<?xml version="1.0" encoding="UTF-8"?>
<gpx version="1.1" creator="https://www.youtrack.es" xsi:schemaLocation="http://www.topografix.com/GPX/1/1 http://www.topografix.com/GPX/1/1/gpx.xsd http://www.garmin.com/xmlschemas/GpxExtensions/v3 http://www.garmin.com/xmlschemas/GpxExtensionsv3.xsd http://www.garmin.com/xmlschemas/TrackPointExtension/v1 http://www.garmin.com/xmlschemas/TrackPointExtensionv1.xsd" xmlns:gpxtpx="http://www.garmin.com/xmlschemas/TrackPointExtension/v1" xmlns:gpxx="http://www.garmin.com/xmlschemas/GpxExtensions/v3" xmlns:xsi="http://www.w3.org/2001/XMLSchema-instance">
  <metadata>
    <link href="https://www.youtrack.es">
      <text>YouTrack.es</text>
    </link>
    <time>2026-05-10T13:45:22Z</time>
  </metadata>
  <trk>
    <src>https://www.youtrack.es</src>
    <link href="https://www.youtrack.es/ruta/25050-the-last-dance">
      <text>YouTrack.es</text>
    </link>
    <trkseg>
      <trkpt lat="41.96964667" lon="2.82413167">
        <ele>82.0</ele>
        <time>2021-08-21T06:16:35.119Z</time>
      </trkpt>
      <trkpt lat="41.96964667" lon="2.82413167">
        <ele>82.0</ele>
        <time>2021-08-21T06:16:36.127Z</time>
      </trkpt>
      <trkpt lat="41.96972833" lon="2.82418333">
        <ele>82.0</ele>
        <time>2021-08-21T06:16:37.145Z</time>
      </trkpt>
      <trkpt lat="41.96972833" lon="2.82418333">
        <ele>82.0</ele>
        <time>2021-08-21T06:16:38.123Z</time>
      </trkpt>
      <trkpt lat="41.96984167" lon="2.82421833">
        <ele>82.0</ele>
        <time>2021-08-21T06:16:39.143Z</time>
      </trkpt>
      <trkpt lat="41.96984167" lon="2.82421833">
        <ele>82.0</ele>
        <time>2021-08-21T06:16:40.148Z</time>
      </trkpt>
      <trkpt lat="41.96996167" lon="2.824235">
        <ele>82.0</ele>
        <time>2021-08-21T06:16:41.146Z</time>
      </trkpt>
      <trkpt lat="41.97002333" lon="2.82424333">
        <ele>82.0</ele>
        <time>2021-08-21T06:16:42.113Z</time>
      </trkpt>
      <trkpt lat="41.97008333" lon="2.82424667">
        <ele>82.0</ele>
        <time>2021-08-21T06:16:43.124Z</time>
      </trkpt>
      <trkpt lat="41.97008333" lon="2.82424667">
        <ele>82.0</ele>
        <time>2021-08-21T06:16:44.117Z</time>
      </trkpt>
      <trkpt lat="41.97020333" lon="2.82425167">
        <ele>82.0</ele>
        <time>2021-08-21T06:16:45.123Z</time>
      </trkpt>
      <trkpt lat="41.97020333" lon="2.82425167">
        <ele>82.0</ele>
        <time>2021-08-21T06:16:46.116Z</time>
      </trkpt>
      <trkpt lat="41.970325" lon="2.824265">
        <ele>81.0</ele>
        <time>2021-08-21T06:16:47.112Z</time>
      </trkpt>
      <trkpt lat="41.970325" lon="2.824265">
        <ele>81.0</ele>
        <time>2021-08-21T06:16:48.130Z</time>
      </trkpt>
      <trkpt lat="41.97045" lon="2.824275">
        <ele>81.0</ele>
        <time>2021-08-21T06:16:49.130Z</time>
      </trkpt>
      <trkpt lat="41.97045" lon="2.824275">
        <ele>81.0</ele>
        <time>2021-08-21T06:16:50.115Z</time>
      </trkpt>
      <trkpt lat="41.970575" lon="2.82427667">
        <ele>81.0</ele>
        <time>2021-08-21T06:16:51.108Z</time>
      </trkpt>
      <trkpt lat="41.970575" lon="2.82427667">
        <ele>81.0</ele>
        <time>2021-08-21T06:16:52.130Z</time>
      </trkpt>
      <trkpt lat="41.97071167" lon="2.824295">
        <ele>80.0</ele>
        <time>2021-08-21T06:16:53.121Z</time>
      </trkpt>
      <trkpt lat="41.97071167" lon="2.824295">
        <ele>80.0</ele>
        <time>2021-08-21T06:16:54.115Z</time>
      </trkpt>
      <trkpt lat="41.97085167" lon="2.82432">
        <ele>80.0</ele>
        <time>2021-08-21T06:16:55.145Z</time>
      </trkpt>
      <trkpt lat="41.97085167" lon="2.82432">
        <ele>80.0</ele>
        <time>2021-08-21T06:16:56.123Z</time>
      </trkpt>
      <trkpt lat="41.97099333" lon="2.82433333">
        <ele>79.0</ele>
        <time>2021-08-21T06:16:57.121Z</time>
      </trkpt>
      <trkpt lat="41.97106667" lon="2.824345">
        <ele>79.0</ele>
        <time>2021-08-21T06:16:58.134Z</time>
      </trkpt>
      <trkpt lat="41.97106667" lon="2.824345">
        <ele>79.0</ele>
        <time>2021-08-21T06:16:59.118Z</time>
      </trkpt>
      <trkpt lat="41.97120667" lon="2.82435833">
        <ele>78.0</ele>
        <time>2021-08-21T06:17:00.138Z</time>
      </trkpt>
      <trkpt lat="41.97127667" lon="2.82436667">
        <ele>78.0</ele>
        <time>2021-08-21T06:17:01.132Z</time>
      </trkpt>
      <trkpt lat="41.97127667" lon="2.82436667">
        <ele>78.0</ele>
        <time>2021-08-21T06:17:02.115Z</time>
      </trkpt>
      <trkpt lat="41.97142833" lon="2.82436833">
        <ele>78.0</ele>
        <time>2021-08-21T06:17:03.108Z</time>
      </trkpt>
      <trkpt lat="41.97142833" lon="2.82436833">
        <ele>78.0</ele>
        <time>2021-08-21T06:17:04.126Z</time>
      </trkpt>
      <trkpt lat="41.97158167" lon="2.82438167">
        <ele>77.0</ele>
        <time>2021-08-21T06:17:05.122Z</time>
      </trkpt>
      <trkpt lat="41.97158167" lon="2.82438167">
        <ele>77.0</ele>
        <time>2021-08-21T06:17:06.117Z</time>
      </trkpt>
      <trkpt lat="41.97173167" lon="2.824405">
        <ele>76.0</ele>
        <time>2021-08-21T06:17:07.145Z</time>
      </trkpt>
      <trkpt lat="41.97173167" lon="2.824405">
        <ele>76.0</ele>
        <time>2021-08-21T06:17:08.124Z</time>
      </trkpt>
      <trkpt lat="41.971885" lon="2.82443">
        <ele>75.0</ele>
        <time>2021-08-21T06:17:09.122Z</time>
      </trkpt>
      <trkpt lat="41.971885" lon="2.82443">
        <ele>75.0</ele>
        <time>2021-08-21T06:17:10.114Z</time>
      </trkpt>
      <trkpt lat="41.97203667" lon="2.82445">
        <ele>74.0</ele>
        <time>2021-08-21T06:17:11.145Z</time>
      </trkpt>
      <trkpt lat="41.97203667" lon="2.82445">
        <ele>74.0</ele>
        <time>2021-08-21T06:17:12.118Z</time>
      </trkpt>
      <trkpt lat="41.97218667" lon="2.82445333">
        <ele>74.0</ele>
        <time>2021-08-21T06:17:13.133Z</time>
      </trkpt>
      <trkpt lat="41.97218667" lon="2.82445333">
        <ele>74.0</ele>
        <time>2021-08-21T06:17:14.116Z</time>
      </trkpt>
      <trkpt lat="41.97233333" lon="2.82446167">
        <ele>74.0</ele>
        <time>2021-08-21T06:17:15.140Z</time>
      </trkpt>
      <trkpt lat="41.97233333" lon="2.82446167">
        <ele>74.0</ele>
        <time>2021-08-21T06:17:16.118Z</time>
      </trkpt>
      <trkpt lat="41.972485" lon="2.824475">
        <ele>75.0</ele>
        <time>2021-08-21T06:17:17.138Z</time>
      </trkpt>
      <trkpt lat="41.972485" lon="2.824475">
        <ele>75.0</ele>
        <time>2021-08-21T06:17:18.117Z</time>
      </trkpt>
      <trkpt lat="41.97262333" lon="2.82446667">
        <ele>74.0</ele>
        <time>2021-08-21T06:17:19.142Z</time>
      </trkpt>
      <trkpt lat="41.97262333" lon="2.82446667">
        <ele>74.0</ele>
        <time>2021-08-21T06:17:20.118Z</time>
      </trkpt>
      <trkpt lat="41.972765" lon="2.82445167">
        <ele>73.0</ele>
        <time>2021-08-21T06:17:21.124Z</time>
      </trkpt>
      <trkpt lat="41.97283333" lon="2.824445">
        <ele>73.0</ele>
        <time>2021-08-21T06:17:22.128Z</time>
      </trkpt>
      <trkpt lat="41.97283333" lon="2.824445">
        <ele>73.0</ele>
        <time>2021-08-21T06:17:23.117Z</time>
      </trkpt>
      <trkpt lat="41.97297833" lon="2.82443667">
        <ele>72.0</ele>
        <time>2021-08-21T06:17:24.141Z</time>
      </trkpt>
      <trkpt lat="41.97305" lon="2.82443">
        <ele>72.0</ele>
        <time>2021-08-21T06:17:25.124Z</time>
      </trkpt>
      <trkpt lat="41.97305" lon="2.82443">
        <ele>72.0</ele>
        <time>2021-08-21T06:17:26.116Z</time>
      </trkpt>
      <trkpt lat="41.97319333" lon="2.82442333">
        <ele>71.0</ele>
        <time>2021-08-21T06:17:27.115Z</time>
      </trkpt>
      <trkpt lat="41.97319333" lon="2.82442333">
        <ele>71.0</ele>
        <time>2021-08-21T06:17:28.133Z</time>
      </trkpt>
      <trkpt lat="41.97333333" lon="2.82441333">
        <ele>70.0</ele>
        <time>2021-08-21T06:17:29.122Z</time>
      </trkpt>
      <trkpt lat="41.97339667" lon="2.82441667">
        <ele>70.0</ele>
        <time>2021-08-21T06:17:30.121Z</time>
      </trkpt>
      <trkpt lat="41.97346167" lon="2.82442833">
        <ele>69.0</ele>
        <time>2021-08-21T06:17:31.146Z</time>
      </trkpt>
      <trkpt lat="41.97346167" lon="2.82442833">
        <ele>69.0</ele>
        <time>2021-08-21T06:17:32.128Z</time>
      </trkpt>
      <trkpt lat="41.973595" lon="2.824455">
        <ele>69.0</ele>
        <time>2021-08-21T06:17:33.130Z</time>
      </trkpt>
      <trkpt lat="41.973595" lon="2.824455">
        <ele>69.0</ele>
        <time>2021-08-21T06:17:34.121Z</time>
      </trkpt>
      <trkpt lat="41.97371667" lon="2.82448">
        <ele>69.0</ele>
        <time>2021-08-21T06:17:35.109Z</time>
      </trkpt>
      <trkpt lat="41.97371667" lon="2.82448">
        <ele>69.0</ele>
        <time>2021-08-21T06:17:36.127Z</time>
      </trkpt>
      <trkpt lat="41.97382167" lon="2.824555">
        <ele>69.0</ele>
        <time>2021-08-21T06:17:37.126Z</time>
      </trkpt>
      <trkpt lat="41.97382167" lon="2.824555">
        <ele>69.0</ele>
        <time>2021-08-21T06:17:38.108Z</time>
      </trkpt>
      <trkpt lat="41.973885" lon="2.82472333">
        <ele>69.0</ele>
        <time>2021-08-21T06:17:39.131Z</time>
      </trkpt>
      <trkpt lat="41.97391833" lon="2.824805">
        <ele>69.0</ele>
        <time>2021-08-21T06:17:40.117Z</time>
      </trkpt>
      <trkpt lat="41.97391833" lon="2.824805">
        <ele>69.0</ele>
        <time>2021-08-21T06:17:41.124Z</time>
      </trkpt>
      <trkpt lat="41.97397833" lon="2.82494833">
        <ele>70.0</ele>
        <time>2021-08-21T06:17:42.140Z</time>
      </trkpt>
      <trkpt lat="41.97400667" lon="2.82500833">
        <ele>70.0</ele>
        <time>2021-08-21T06:17:43.147Z</time>
      </trkpt>
      <trkpt lat="41.97400667" lon="2.82500833">
        <ele>70.0</ele>
        <time>2021-08-21T06:17:44.114Z</time>
      </trkpt>
      <trkpt lat="41.97404667" lon="2.82511833">
        <ele>71.0</ele>
        <time>2021-08-21T06:17:45.120Z</time>
      </trkpt>
      <trkpt lat="41.97403833" lon="2.82518833">
        <ele>71.0</ele>
        <time>2021-08-21T06:17:46.140Z</time>
      </trkpt>
      <trkpt lat="41.97403833" lon="2.82518833">
        <ele>71.0</ele>
        <time>2021-08-21T06:17:47.119Z</time>
      </trkpt>
      <trkpt lat="41.974005" lon="2.82533333">
        <ele>70.0</ele>
        <time>2021-08-21T06:17:48.117Z</time>
      </trkpt>
      <trkpt lat="41.97399333" lon="2.82540667">
        <ele>70.0</ele>
        <time>2021-08-21T06:17:49.127Z</time>
      </trkpt>
      <trkpt lat="41.97399333" lon="2.82540667">
        <ele>70.0</ele>
        <time>2021-08-21T06:17:50.133Z</time>
      </trkpt>
      <trkpt lat="41.97398167" lon="2.825545">
        <ele>70.0</ele>
        <time>2021-08-21T06:17:51.114Z</time>
      </trkpt>
      <trkpt lat="41.97398167" lon="2.825545">
        <ele>70.0</ele>
        <time>2021-08-21T06:17:52.120Z</time>
      </trkpt>
      <trkpt lat="41.97396333" lon="2.82567833">
        <ele>70.0</ele>
        <time>2021-08-21T06:17:53.135Z</time>
      </trkpt>
      <trkpt lat="41.97396333" lon="2.82567833">
        <ele>70.0</ele>
        <time>2021-08-21T06:17:54.142Z</time>
      </trkpt>
      <trkpt lat="41.973935" lon="2.82582333">
        <ele>70.0</ele>
        <time>2021-08-21T06:17:55.139Z</time>
      </trkpt>
      <trkpt lat="41.973935" lon="2.82582333">
        <ele>70.0</ele>
        <time>2021-08-21T06:17:56.109Z</time>
      </trkpt>
      <trkpt lat="41.97390167" lon="2.82597167">
        <ele>70.0</ele>
        <time>2021-08-21T06:17:57.126Z</time>
      </trkpt>
      <trkpt lat="41.97390167" lon="2.82597167">
        <ele>70.0</ele>
        <time>2021-08-21T06:17:58.132Z</time>
      </trkpt>
      <trkpt lat="41.97387" lon="2.82611833">
        <ele>70.0</ele>
        <time>2021-08-21T06:17:59.112Z</time>
      </trkpt>
      <trkpt lat="41.97387" lon="2.82611833">
        <ele>70.0</ele>
        <time>2021-08-21T06:18:00.122Z</time>
      </trkpt>
      <trkpt lat="41.97383833" lon="2.82626833">
        <ele>70.0</ele>
        <time>2021-08-21T06:18:01.133Z</time>
      </trkpt>
      <trkpt lat="41.97383833" lon="2.82626833">
        <ele>70.0</ele>
        <time>2021-08-21T06:18:02.141Z</time>
      </trkpt>
      <trkpt lat="41.97380833" lon="2.82642333">
        <ele>70.0</ele>
        <time>2021-08-21T06:18:03.116Z</time>
      </trkpt>
      <trkpt lat="41.97380833" lon="2.82642333">
        <ele>70.0</ele>
        <time>2021-08-21T06:18:04.122Z</time>
      </trkpt>
      <trkpt lat="41.97378167" lon="2.82658333">
        <ele>70.0</ele>
        <time>2021-08-21T06:18:05.119Z</time>
      </trkpt>
      <trkpt lat="41.97378167" lon="2.82658333">
        <ele>70.0</ele>
        <time>2021-08-21T06:18:06.124Z</time>
      </trkpt>
      <trkpt lat="41.97375333" lon="2.82674167">
        <ele>70.0</ele>
        <time>2021-08-21T06:18:07.144Z</time>
      </trkpt>
      <trkpt lat="41.97375333" lon="2.82674167">
        <ele>70.0</ele>
        <time>2021-08-21T06:18:08.109Z</time>
      </trkpt>
      <trkpt lat="41.97372667" lon="2.82688667">
        <ele>70.0</ele>
        <time>2021-08-21T06:18:09.127Z</time>
      </trkpt>
      <trkpt lat="41.97371333" lon="2.82695667">
        <ele>70.0</ele>
        <time>2021-08-21T06:18:10.146Z</time>
      </trkpt>
      <trkpt lat="41.97371333" lon="2.82695667">
        <ele>70.0</ele>
        <time>2021-08-21T06:18:11.111Z</time>
      </trkpt>
      <trkpt lat="41.97368333" lon="2.82708833">
        <ele>70.0</ele>
        <time>2021-08-21T06:18:12.141Z</time>
      </trkpt>
      <trkpt lat="41.97367" lon="2.82715167">
        <ele>70.0</ele>
        <time>2021-08-21T06:18:13.119Z</time>
      </trkpt>
      <trkpt lat="41.97367" lon="2.82715167">
        <ele>70.0</ele>
        <time>2021-08-21T06:18:14.124Z</time>
      </trkpt>
      <trkpt lat="41.97365" lon="2.827275">
        <ele>70.0</ele>
        <time>2021-08-21T06:18:15.138Z</time>
      </trkpt>
      <trkpt lat="41.97365" lon="2.827275">
        <ele>70.0</ele>
        <time>2021-08-21T06:18:16.109Z</time>
      </trkpt>
      <trkpt lat="41.97362833" lon="2.8274">
        <ele>70.0</ele>
        <time>2021-08-21T06:18:17.136Z</time>
      </trkpt>
      <trkpt lat="41.97362833" lon="2.8274">
        <ele>70.0</ele>
        <time>2021-08-21T06:18:18.143Z</time>
      </trkpt>
      <trkpt lat="41.97361167" lon="2.82752833">
        <ele>70.0</ele>
        <time>2021-08-21T06:18:19.115Z</time>
      </trkpt>
      <trkpt lat="41.97361167" lon="2.82752833">
        <ele>70.0</ele>
        <time>2021-08-21T06:18:20.132Z</time>
      </trkpt>
      <trkpt lat="41.97359333" lon="2.82765833">
        <ele>70.0</ele>
        <time>2021-08-21T06:18:21.126Z</time>
      </trkpt>
      <trkpt lat="41.97359333" lon="2.82765833">
        <ele>70.0</ele>
        <time>2021-08-21T06:18:22.133Z</time>
      </trkpt>
      <trkpt lat="41.97358167" lon="2.82778167">
        <ele>70.0</ele>
        <time>2021-08-21T06:18:23.111Z</time>
      </trkpt>
      <trkpt lat="41.97358167" lon="2.82778167">
        <ele>70.0</ele>
        <time>2021-08-21T06:18:24.116Z</time>
      </trkpt>
      <trkpt lat="41.97356667" lon="2.827905">
        <ele>70.0</ele>
        <time>2021-08-21T06:18:25.134Z</time>
      </trkpt>
      <trkpt lat="41.97356667" lon="2.827905">
        <ele>70.0</ele>
        <time>2021-08-21T06:18:26.143Z</time>
      </trkpt>
      <trkpt lat="41.97355667" lon="2.82803667">
        <ele>70.0</ele>
        <time>2021-08-21T06:18:27.119Z</time>
      </trkpt>
      <trkpt lat="41.97355667" lon="2.82810167">
        <ele>70.0</ele>
        <time>2021-08-21T06:18:28.137Z</time>
      </trkpt>
      <trkpt lat="41.97355667" lon="2.82810167">
        <ele>70.0</ele>
        <time>2021-08-21T06:18:29.143Z</time>
      </trkpt>
      <trkpt lat="41.97355667" lon="2.82822833">
        <ele>70.0</ele>
        <time>2021-08-21T06:18:30.132Z</time>
      </trkpt>
      <trkpt lat="41.97355333" lon="2.82829167">
        <ele>71.0</ele>
        <time>2021-08-21T06:18:31.147Z</time>
      </trkpt>
      <trkpt lat="41.97355333" lon="2.82829167">
        <ele>71.0</ele>
        <time>2021-08-21T06:18:32.113Z</time>
      </trkpt>
      <trkpt lat="41.97354" lon="2.828415">
        <ele>71.0</ele>
        <time>2021-08-21T06:18:33.138Z</time>
      </trkpt>
      <trkpt lat="41.97354" lon="2.828415">
        <ele>71.0</ele>
        <time>2021-08-21T06:18:34.113Z</time>
      </trkpt>
      <trkpt lat="41.97354833" lon="2.82853667">
        <ele>71.0</ele>
        <time>2021-08-21T06:18:35.109Z</time>
      </trkpt>
      <trkpt lat="41.97354833" lon="2.82853667">
        <ele>71.0</ele>
        <time>2021-08-21T06:18:36.116Z</time>
      </trkpt>
      <trkpt lat="41.97355167" lon="2.82866167">
        <ele>71.0</ele>
        <time>2021-08-21T06:18:37.139Z</time>
      </trkpt>
      <trkpt lat="41.97355167" lon="2.82866167">
        <ele>71.0</ele>
        <time>2021-08-21T06:18:38.145Z</time>
      </trkpt>
      <trkpt lat="41.97355167" lon="2.82879167">
        <ele>72.0</ele>
        <time>2021-08-21T06:18:39.116Z</time>
      </trkpt>
      <trkpt lat="41.97355167" lon="2.82879167">
        <ele>72.0</ele>
        <time>2021-08-21T06:18:40.121Z</time>
      </trkpt>
      <trkpt lat="41.973555" lon="2.82891333">
        <ele>72.0</ele>
        <time>2021-08-21T06:18:41.142Z</time>
      </trkpt>
      <trkpt lat="41.973555" lon="2.82891333">
        <ele>72.0</ele>
        <time>2021-08-21T06:18:42.109Z</time>
      </trkpt>
      <trkpt lat="41.973555" lon="2.82903333">
        <ele>73.0</ele>
        <time>2021-08-21T06:18:43.126Z</time>
      </trkpt>
      <trkpt lat="41.973555" lon="2.82903333">
        <ele>73.0</ele>
        <time>2021-08-21T06:18:44.144Z</time>
      </trkpt>
      <trkpt lat="41.97355" lon="2.82914833">
        <ele>74.0</ele>
        <time>2021-08-21T06:18:45.140Z</time>
      </trkpt>
      <trkpt lat="41.97355" lon="2.82914833">
        <ele>74.0</ele>
        <time>2021-08-21T06:18:46.109Z</time>
      </trkpt>
      <trkpt lat="41.97354167" lon="2.82926333">
        <ele>74.0</ele>
        <time>2021-08-21T06:18:47.131Z</time>
      </trkpt>
      <trkpt lat="41.97354167" lon="2.82926333">
        <ele>74.0</ele>
        <time>2021-08-21T06:18:48.137Z</time>
      </trkpt>
      <trkpt lat="41.97354167" lon="2.82938">
        <ele>75.0</ele>
        <time>2021-08-21T06:18:49.115Z</time>
      </trkpt>
      <trkpt lat="41.97354167" lon="2.82938">
        <ele>75.0</ele>
        <time>2021-08-21T06:18:50.111Z</time>
      </trkpt>
      <trkpt lat="41.97354333" lon="2.82949667">
        <ele>75.0</ele>
        <time>2021-08-21T06:18:51.135Z</time>
      </trkpt>
      <trkpt lat="41.97354333" lon="2.82949667">
        <ele>75.0</ele>
        <time>2021-08-21T06:18:52.141Z</time>
      </trkpt>
      <trkpt lat="41.97353167" lon="2.82960833">
        <ele>76.0</ele>
        <time>2021-08-21T06:18:53.125Z</time>
      </trkpt>
      <trkpt lat="41.97353167" lon="2.82960833">
        <ele>76.0</ele>
        <time>2021-08-21T06:18:54.133Z</time>
      </trkpt>
      <trkpt lat="41.97352333" lon="2.82970833">
        <ele>77.0</ele>
        <time>2021-08-21T06:18:55.112Z</time>
      </trkpt>
      <trkpt lat="41.97352333" lon="2.82970833">
        <ele>77.0</ele>
        <time>2021-08-21T06:18:56.131Z</time>
      </trkpt>
      <trkpt lat="41.97352333" lon="2.82981">
        <ele>78.0</ele>
        <time>2021-08-21T06:18:57.122Z</time>
      </trkpt>
      <trkpt lat="41.97352333" lon="2.82986667">
        <ele>78.0</ele>
        <time>2021-08-21T06:18:58.135Z</time>
      </trkpt>
      <trkpt lat="41.97352333" lon="2.82986667">
        <ele>78.0</ele>
        <time>2021-08-21T06:18:59.141Z</time>
      </trkpt>
      <trkpt lat="41.97351833" lon="2.82998">
        <ele>79.0</ele>
        <time>2021-08-21T06:19:00.117Z</time>
      </trkpt>
      <trkpt lat="41.97351167" lon="2.83003167">
        <ele>79.0</ele>
        <time>2021-08-21T06:19:01.137Z</time>
      </trkpt>
      <trkpt lat="41.97351333" lon="2.830085">
        <ele>79.0</ele>
        <time>2021-08-21T06:19:02.140Z</time>
      </trkpt>
      <trkpt lat="41.97351333" lon="2.830085">
        <ele>79.0</ele>
        <time>2021-08-21T06:19:03.109Z</time>
      </trkpt>
      <trkpt lat="41.97351333" lon="2.83019333">
        <ele>80.0</ele>
        <time>2021-08-21T06:19:04.120Z</time>
      </trkpt>
      <trkpt lat="41.973515" lon="2.83025">
        <ele>80.0</ele>
        <time>2021-08-21T06:19:05.144Z</time>
      </trkpt>
      <trkpt lat="41.973515" lon="2.83025">
        <ele>80.0</ele>
        <time>2021-08-21T06:19:06.112Z</time>
      </trkpt>
      <trkpt lat="41.97351333" lon="2.83036167">
        <ele>80.0</ele>
        <time>2021-08-21T06:19:07.137Z</time>
      </trkpt>
      <trkpt lat="41.97351333" lon="2.83036167">
        <ele>80.0</ele>
        <time>2021-08-21T06:19:08.112Z</time>
      </trkpt>
      <trkpt lat="41.97351167" lon="2.830465">
        <ele>80.0</ele>
        <time>2021-08-21T06:19:09.137Z</time>
      </trkpt>
      <trkpt lat="41.97351167" lon="2.830465">
        <ele>80.0</ele>
        <time>2021-08-21T06:19:10.113Z</time>
      </trkpt>
      <trkpt lat="41.97350667" lon="2.83057">
        <ele>80.0</ele>
        <time>2021-08-21T06:19:11.130Z</time>
      </trkpt>
      <trkpt lat="41.97350667" lon="2.83057">
        <ele>80.0</ele>
        <time>2021-08-21T06:19:12.109Z</time>
      </trkpt>
      <trkpt lat="41.973495" lon="2.830675">
        <ele>80.0</ele>
        <time>2021-08-21T06:19:13.144Z</time>
      </trkpt>
      <trkpt lat="41.973495" lon="2.83073333">
        <ele>79.0</ele>
        <time>2021-08-21T06:19:14.121Z</time>
      </trkpt>
      <trkpt lat="41.973495" lon="2.83073333">
        <ele>79.0</ele>
        <time>2021-08-21T06:19:15.129Z</time>
      </trkpt>
      <trkpt lat="41.97348667" lon="2.83088167">
        <ele>77.0</ele>
        <time>2021-08-21T06:19:16.111Z</time>
      </trkpt>
      <trkpt lat="41.97348667" lon="2.83088167">
        <ele>77.0</ele>
        <time>2021-08-21T06:19:17.117Z</time>
      </trkpt>
      <trkpt lat="41.97347167" lon="2.83104333">
        <ele>77.0</ele>
        <time>2021-08-21T06:19:18.134Z</time>
      </trkpt>
      <trkpt lat="41.97345667" lon="2.83112167">
        <ele>76.0</ele>
        <time>2021-08-21T06:19:19.145Z</time>
      </trkpt>
      <trkpt lat="41.97345667" lon="2.83112167">
        <ele>76.0</ele>
        <time>2021-08-21T06:19:20.111Z</time>
      </trkpt>
      <trkpt lat="41.97342" lon="2.83128">
        <ele>76.0</ele>
        <time>2021-08-21T06:19:21.137Z</time>
      </trkpt>
      <trkpt lat="41.97342" lon="2.83128">
        <ele>76.0</ele>
        <time>2021-08-21T06:19:22.109Z</time>
      </trkpt>
      <trkpt lat="41.97337667" lon="2.83144167">
        <ele>75.0</ele>
        <time>2021-08-21T06:19:23.119Z</time>
      </trkpt>
      <trkpt lat="41.97337667" lon="2.83144167">
        <ele>75.0</ele>
        <time>2021-08-21T06:19:24.131Z</time>
      </trkpt>
      <trkpt lat="41.97332667" lon="2.83161">
        <ele>74.0</ele>
        <time>2021-08-21T06:19:25.115Z</time>
      </trkpt>
      <trkpt lat="41.97332667" lon="2.83161">
        <ele>74.0</ele>
        <time>2021-08-21T06:19:26.130Z</time>
      </trkpt>
      <trkpt lat="41.973265" lon="2.83176167">
        <ele>74.0</ele>
        <time>2021-08-21T06:19:27.138Z</time>
      </trkpt>
      <trkpt lat="41.97323333" lon="2.83183167">
        <ele>74.0</ele>
        <time>2021-08-21T06:19:28.109Z</time>
      </trkpt>
      <trkpt lat="41.97323333" lon="2.83183167">
        <ele>74.0</ele>
        <time>2021-08-21T06:19:29.114Z</time>
      </trkpt>
      <trkpt lat="41.97317167" lon="2.83196667">
        <ele>73.0</ele>
        <time>2021-08-21T06:19:30.121Z</time>
      </trkpt>
      <trkpt lat="41.97313833" lon="2.83203333">
        <ele>73.0</ele>
        <time>2021-08-21T06:19:31.139Z</time>
      </trkpt>
      <trkpt lat="41.97313833" lon="2.83203333">
        <ele>73.0</ele>
        <time>2021-08-21T06:19:32.110Z</time>
      </trkpt>
      <trkpt lat="41.97306667" lon="2.83216167">
        <ele>72.0</ele>
        <time>2021-08-21T06:19:33.126Z</time>
      </trkpt>
      <trkpt lat="41.97306667" lon="2.83216167">
        <ele>72.0</ele>
        <time>2021-08-21T06:19:34.131Z</time>
      </trkpt>
      <trkpt lat="41.973" lon="2.832285">
        <ele>72.0</ele>
        <time>2021-08-21T06:19:35.110Z</time>
      </trkpt>
      <trkpt lat="41.973" lon="2.832285">
        <ele>72.0</ele>
        <time>2021-08-21T06:19:36.116Z</time>
      </trkpt>
      <trkpt lat="41.97292667" lon="2.83241167">
        <ele>72.0</ele>
        <time>2021-08-21T06:19:37.137Z</time>
      </trkpt>
      <trkpt lat="41.97292667" lon="2.83241167">
        <ele>72.0</ele>
        <time>2021-08-21T06:19:38.143Z</time>
      </trkpt>
      <trkpt lat="41.97286" lon="2.83253833">
        <ele>71.0</ele>
        <time>2021-08-21T06:19:39.117Z</time>
      </trkpt>
      <trkpt lat="41.97286" lon="2.83253833">
        <ele>71.0</ele>
        <time>2021-08-21T06:19:40.123Z</time>
      </trkpt>
      <trkpt lat="41.97279167" lon="2.83265667">
        <ele>71.0</ele>
        <time>2021-08-21T06:19:41.112Z</time>
      </trkpt>
      <trkpt lat="41.97279167" lon="2.83265667">
        <ele>71.0</ele>
        <time>2021-08-21T06:19:42.117Z</time>
      </trkpt>
      <trkpt lat="41.97273167" lon="2.83277167">
        <ele>71.0</ele>
        <time>2021-08-21T06:19:43.131Z</time>
      </trkpt>
      <trkpt lat="41.97273167" lon="2.83277167">
        <ele>71.0</ele>
        <time>2021-08-21T06:19:44.136Z</time>
      </trkpt>
      <trkpt lat="41.97267667" lon="2.83289">
        <ele>71.0</ele>
        <time>2021-08-21T06:19:45.109Z</time>
      </trkpt>
      <trkpt lat="41.972645" lon="2.832945">
        <ele>71.0</ele>
        <time>2021-08-21T06:19:46.140Z</time>
      </trkpt>
      <trkpt lat="41.972645" lon="2.832945">
        <ele>71.0</ele>
        <time>2021-08-21T06:19:47.112Z</time>
      </trkpt>
      <trkpt lat="41.972585" lon="2.83306167">
        <ele>71.0</ele>
        <time>2021-08-21T06:19:48.131Z</time>
      </trkpt>
      <trkpt lat="41.972585" lon="2.83306167">
        <ele>71.0</ele>
        <time>2021-08-21T06:19:49.136Z</time>
      </trkpt>
      <trkpt lat="41.97253" lon="2.83318333">
        <ele>71.0</ele>
        <time>2021-08-21T06:19:50.109Z</time>
      </trkpt>
      <trkpt lat="41.97253" lon="2.83318333">
        <ele>71.0</ele>
        <time>2021-08-21T06:19:51.115Z</time>
      </trkpt>
      <trkpt lat="41.97248333" lon="2.83330333">
        <ele>71.0</ele>
        <time>2021-08-21T06:19:52.130Z</time>
      </trkpt>
      <trkpt lat="41.97248333" lon="2.83330333">
        <ele>71.0</ele>
        <time>2021-08-21T06:19:53.135Z</time>
      </trkpt>
      <trkpt lat="41.97243667" lon="2.83343">
        <ele>71.0</ele>
        <time>2021-08-21T06:19:54.113Z</time>
      </trkpt>
      <trkpt lat="41.97241333" lon="2.83349333">
        <ele>71.0</ele>
        <time>2021-08-21T06:19:55.129Z</time>
      </trkpt>
      <trkpt lat="41.97241333" lon="2.83349333">
        <ele>71.0</ele>
        <time>2021-08-21T06:19:56.134Z</time>
      </trkpt>
      <trkpt lat="41.97237333" lon="2.833625">
        <ele>71.0</ele>
        <time>2021-08-21T06:19:57.145Z</time>
      </trkpt>
      <trkpt lat="41.97237333" lon="2.833625">
        <ele>71.0</ele>
        <time>2021-08-21T06:19:58.113Z</time>
      </trkpt>
      <trkpt lat="41.97234" lon="2.83376">
        <ele>71.0</ele>
        <time>2021-08-21T06:19:59.130Z</time>
      </trkpt>
      <trkpt lat="41.97234" lon="2.83376">
        <ele>71.0</ele>
        <time>2021-08-21T06:20:00.141Z</time>
      </trkpt>
      <trkpt lat="41.97230833" lon="2.83389">
        <ele>71.0</ele>
        <time>2021-08-21T06:20:01.129Z</time>
      </trkpt>
      <trkpt lat="41.97230833" lon="2.83389">
        <ele>71.0</ele>
        <time>2021-08-21T06:20:02.135Z</time>
      </trkpt>
      <trkpt lat="41.972275" lon="2.83401833">
        <ele>71.0</ele>
        <time>2021-08-21T06:20:03.111Z</time>
      </trkpt>
      <trkpt lat="41.972275" lon="2.83401833">
        <ele>71.0</ele>
        <time>2021-08-21T06:20:04.117Z</time>
      </trkpt>
      <trkpt lat="41.972225" lon="2.83413833">
        <ele>71.0</ele>
        <time>2021-08-21T06:20:05.136Z</time>
      </trkpt>
      <trkpt lat="41.972225" lon="2.83413833">
        <ele>71.0</ele>
        <time>2021-08-21T06:20:06.141Z</time>
      </trkpt>
      <trkpt lat="41.97218333" lon="2.83425833">
        <ele>72.0</ele>
        <time>2021-08-21T06:20:07.108Z</time>
      </trkpt>
      <trkpt lat="41.97218333" lon="2.83425833">
        <ele>72.0</ele>
        <time>2021-08-21T06:20:08.121Z</time>
      </trkpt>
      <trkpt lat="41.97215667" lon="2.834385">
        <ele>72.0</ele>
        <time>2021-08-21T06:20:09.141Z</time>
      </trkpt>
      <trkpt lat="41.97215667" lon="2.834385">
        <ele>72.0</ele>
        <time>2021-08-21T06:20:10.110Z</time>
      </trkpt>
      <trkpt lat="41.97212" lon="2.83450333">
        <ele>72.0</ele>
        <time>2021-08-21T06:20:11.134Z</time>
      </trkpt>
      <trkpt lat="41.97208833" lon="2.83456167">
        <ele>72.0</ele>
        <time>2021-08-21T06:20:12.109Z</time>
      </trkpt>
      <trkpt lat="41.97206333" lon="2.83462">
        <ele>72.0</ele>
        <time>2021-08-21T06:20:13.123Z</time>
      </trkpt>
      <trkpt lat="41.97206333" lon="2.83462">
        <ele>72.0</ele>
        <time>2021-08-21T06:20:14.128Z</time>
      </trkpt>
      <trkpt lat="41.97203" lon="2.83475167">
        <ele>72.0</ele>
        <time>2021-08-21T06:20:15.142Z</time>
      </trkpt>
      <trkpt lat="41.97203" lon="2.83475167">
        <ele>72.0</ele>
        <time>2021-08-21T06:20:16.147Z</time>
      </trkpt>
      <trkpt lat="41.97199333" lon="2.834885">
        <ele>73.0</ele>
        <time>2021-08-21T06:20:17.118Z</time>
      </trkpt>
      <trkpt lat="41.97199333" lon="2.834885">
        <ele>73.0</ele>
        <time>2021-08-21T06:20:18.110Z</time>
      </trkpt>
      <trkpt lat="41.97195333" lon="2.83500833">
        <ele>73.0</ele>
        <time>2021-08-21T06:20:19.127Z</time>
      </trkpt>
      <trkpt lat="41.97195333" lon="2.83500833">
        <ele>73.0</ele>
        <time>2021-08-21T06:20:20.133Z</time>
      </trkpt>
      <trkpt lat="41.97189667" lon="2.83512">
        <ele>73.0</ele>
        <time>2021-08-21T06:20:21.108Z</time>
      </trkpt>
      <trkpt lat="41.97189667" lon="2.83512">
        <ele>73.0</ele>
        <time>2021-08-21T06:20:22.113Z</time>
      </trkpt>
      <trkpt lat="41.97183333" lon="2.835215">
        <ele>73.0</ele>
        <time>2021-08-21T06:20:23.131Z</time>
      </trkpt>
      <trkpt lat="41.97180167" lon="2.83527167">
        <ele>74.0</ele>
        <time>2021-08-21T06:20:24.113Z</time>
      </trkpt>
      <trkpt lat="41.97177167" lon="2.83532667">
        <ele>74.0</ele>
        <time>2021-08-21T06:20:25.137Z</time>
      </trkpt>
      <trkpt lat="41.97177167" lon="2.83532667">
        <ele>74.0</ele>
        <time>2021-08-21T06:20:26.142Z</time>
      </trkpt>
      <trkpt lat="41.97170833" lon="2.83543">
        <ele>74.0</ele>
        <time>2021-08-21T06:20:27.117Z</time>
      </trkpt>
      <trkpt lat="41.971675" lon="2.83547667">
        <ele>74.0</ele>
        <time>2021-08-21T06:20:28.138Z</time>
      </trkpt>
      <trkpt lat="41.971675" lon="2.83547667">
        <ele>74.0</ele>
        <time>2021-08-21T06:20:29.144Z</time>
      </trkpt>
      <trkpt lat="41.97160833" lon="2.83556833">
        <ele>74.0</ele>
        <time>2021-08-21T06:20:30.128Z</time>
      </trkpt>
      <trkpt lat="41.97156667" lon="2.83561">
        <ele>75.0</ele>
        <time>2021-08-21T06:20:31.144Z</time>
      </trkpt>
      <trkpt lat="41.97156667" lon="2.83561">
        <ele>75.0</ele>
        <time>2021-08-21T06:20:32.109Z</time>
      </trkpt>
      <trkpt lat="41.97148167" lon="2.835695">
        <ele>75.0</ele>
        <time>2021-08-21T06:20:33.145Z</time>
      </trkpt>
      <trkpt lat="41.97148167" lon="2.835695">
        <ele>75.0</ele>
        <time>2021-08-21T06:20:34.110Z</time>
      </trkpt>
      <trkpt lat="41.971395" lon="2.835775">
        <ele>75.0</ele>
        <time>2021-08-21T06:20:35.138Z</time>
      </trkpt>
      <trkpt lat="41.971395" lon="2.835775">
        <ele>75.0</ele>
        <time>2021-08-21T06:20:36.144Z</time>
      </trkpt>
      <trkpt lat="41.9713" lon="2.83583333">
        <ele>75.0</ele>
        <time>2021-08-21T06:20:37.127Z</time>
      </trkpt>
      <trkpt lat="41.9713" lon="2.83583333">
        <ele>75.0</ele>
        <time>2021-08-21T06:20:38.132Z</time>
      </trkpt>
      <trkpt lat="41.97121333" lon="2.83587">
        <ele>75.0</ele>
        <time>2021-08-21T06:20:39.109Z</time>
      </trkpt>
      <trkpt lat="41.97116833" lon="2.83588833">
        <ele>75.0</ele>
        <time>2021-08-21T06:20:40.128Z</time>
      </trkpt>
      <trkpt lat="41.97116833" lon="2.83588833">
        <ele>75.0</ele>
        <time>2021-08-21T06:20:41.135Z</time>
      </trkpt>
      <trkpt lat="41.97107833" lon="2.83591667">
        <ele>75.0</ele>
        <time>2021-08-21T06:20:42.117Z</time>
      </trkpt>
      <trkpt lat="41.97102833" lon="2.83593">
        <ele>75.0</ele>
        <time>2021-08-21T06:20:43.135Z</time>
      </trkpt>
      <trkpt lat="41.97102833" lon="2.83593">
        <ele>75.0</ele>
        <time>2021-08-21T06:20:44.140Z</time>
      </trkpt>
      <trkpt lat="41.97093167" lon="2.83596167">
        <ele>75.0</ele>
        <time>2021-08-21T06:20:45.127Z</time>
      </trkpt>
      <trkpt lat="41.97093167" lon="2.83596167">
        <ele>75.0</ele>
        <time>2021-08-21T06:20:46.133Z</time>
      </trkpt>
      <trkpt lat="41.970825" lon="2.83599167">
        <ele>75.0</ele>
        <time>2021-08-21T06:20:47.130Z</time>
      </trkpt>
      <trkpt lat="41.970765" lon="2.836">
        <ele>75.0</ele>
        <time>2021-08-21T06:20:48.139Z</time>
      </trkpt>
      <trkpt lat="41.97070333" lon="2.83600833">
        <ele>76.0</ele>
        <time>2021-08-21T06:20:49.112Z</time>
      </trkpt>
      <trkpt lat="41.97070333" lon="2.83600833">
        <ele>76.0</ele>
        <time>2021-08-21T06:20:50.118Z</time>
      </trkpt>
      <trkpt lat="41.970575" lon="2.83600667">
        <ele>76.0</ele>
        <time>2021-08-21T06:20:51.136Z</time>
      </trkpt>
      <trkpt lat="41.970575" lon="2.83600667">
        <ele>76.0</ele>
        <time>2021-08-21T06:20:52.141Z</time>
      </trkpt>
      <trkpt lat="41.97045" lon="2.836">
        <ele>75.0</ele>
        <time>2021-08-21T06:20:53.117Z</time>
      </trkpt>
      <trkpt lat="41.97038667" lon="2.83600167">
        <ele>75.0</ele>
        <time>2021-08-21T06:20:54.130Z</time>
      </trkpt>
      <trkpt lat="41.97032667" lon="2.83600333">
        <ele>74.0</ele>
        <time>2021-08-21T06:20:55.108Z</time>
      </trkpt>
      <trkpt lat="41.97032667" lon="2.83600333">
        <ele>74.0</ele>
        <time>2021-08-21T06:20:56.113Z</time>
      </trkpt>
      <trkpt lat="41.9702" lon="2.83600167">
        <ele>74.0</ele>
        <time>2021-08-21T06:20:57.136Z</time>
      </trkpt>
      <trkpt lat="41.9702" lon="2.83600167">
        <ele>74.0</ele>
        <time>2021-08-21T06:20:58.141Z</time>
      </trkpt>
      <trkpt lat="41.97007167" lon="2.83600833">
        <ele>75.0</ele>
        <time>2021-08-21T06:20:59.116Z</time>
      </trkpt>
      <trkpt lat="41.97000833" lon="2.83601167">
        <ele>75.0</ele>
        <time>2021-08-21T06:21:00.131Z</time>
      </trkpt>
      <trkpt lat="41.96994833" lon="2.83601333">
        <ele>75.0</ele>
        <time>2021-08-21T06:21:01.121Z</time>
      </trkpt>
      <trkpt lat="41.96994833" lon="2.83601333">
        <ele>75.0</ele>
        <time>2021-08-21T06:21:02.125Z</time>
      </trkpt>
      <trkpt lat="41.96982333" lon="2.83601833">
        <ele>76.0</ele>
        <time>2021-08-21T06:21:03.142Z</time>
      </trkpt>
      <trkpt lat="41.96982333" lon="2.83601833">
        <ele>76.0</ele>
        <time>2021-08-21T06:21:04.111Z</time>
      </trkpt>
      <trkpt lat="41.96969667" lon="2.83602">
        <ele>76.0</ele>
        <time>2021-08-21T06:21:05.130Z</time>
      </trkpt>
      <trkpt lat="41.96963167" lon="2.83602">
        <ele>76.0</ele>
        <time>2021-08-21T06:21:06.146Z</time>
      </trkpt>
      <trkpt lat="41.96963167" lon="2.83602">
        <ele>76.0</ele>
        <time>2021-08-21T06:21:07.113Z</time>
      </trkpt>
      <trkpt lat="41.9695" lon="2.83603333">
        <ele>76.0</ele>
        <time>2021-08-21T06:21:08.144Z</time>
      </trkpt>
      <trkpt lat="41.9695" lon="2.83603333">
        <ele>76.0</ele>
        <time>2021-08-21T06:21:09.110Z</time>
      </trkpt>
      <trkpt lat="41.96936333" lon="2.83604667">
        <ele>76.0</ele>
        <time>2021-08-21T06:21:10.129Z</time>
      </trkpt>
      <trkpt lat="41.96936333" lon="2.83604667">
        <ele>76.0</ele>
        <time>2021-08-21T06:21:11.134Z</time>
      </trkpt>
      <trkpt lat="41.96923833" lon="2.83607833">
        <ele>76.0</ele>
        <time>2021-08-21T06:21:12.108Z</time>
      </trkpt>
      <trkpt lat="41.96918167" lon="2.83611333">
        <ele>76.0</ele>
        <time>2021-08-21T06:21:13.129Z</time>
      </trkpt>
      <trkpt lat="41.96918167" lon="2.83611333">
        <ele>76.0</ele>
        <time>2021-08-21T06:21:14.135Z</time>
      </trkpt>
      <trkpt lat="41.96908167" lon="2.836195">
        <ele>76.0</ele>
        <time>2021-08-21T06:21:15.111Z</time>
      </trkpt>
      <trkpt lat="41.96903833" lon="2.83624167">
        <ele>76.0</ele>
        <time>2021-08-21T06:21:16.132Z</time>
      </trkpt>
      <trkpt lat="41.96903833" lon="2.83624167">
        <ele>76.0</ele>
        <time>2021-08-21T06:21:17.137Z</time>
      </trkpt>
      <trkpt lat="41.96895167" lon="2.83631667">
        <ele>76.0</ele>
        <time>2021-08-21T06:21:18.115Z</time>
      </trkpt>
      <trkpt lat="41.96890333" lon="2.83634">
        <ele>76.0</ele>
        <time>2021-08-21T06:21:19.142Z</time>
      </trkpt>
      <trkpt lat="41.96890333" lon="2.83634">
        <ele>76.0</ele>
        <time>2021-08-21T06:21:20.111Z</time>
      </trkpt>
      <trkpt lat="41.968805" lon="2.83635">
        <ele>76.0</ele>
        <time>2021-08-21T06:21:21.129Z</time>
      </trkpt>
      <trkpt lat="41.968805" lon="2.83635">
        <ele>76.0</ele>
        <time>2021-08-21T06:21:22.133Z</time>
      </trkpt>
      <trkpt lat="41.96873833" lon="2.83638167">
        <ele>77.0</ele>
        <time>2021-08-21T06:21:23.110Z</time>
      </trkpt>
      <trkpt lat="41.96873833" lon="2.83638167">
        <ele>77.0</ele>
        <time>2021-08-21T06:21:24.118Z</time>
      </trkpt>
      <trkpt lat="41.968765" lon="2.83646833">
        <ele>76.0</ele>
        <time>2021-08-21T06:21:25.142Z</time>
      </trkpt>
      <trkpt lat="41.968765" lon="2.83646833">
        <ele>76.0</ele>
        <time>2021-08-21T06:21:26.110Z</time>
      </trkpt>
      <trkpt lat="41.968835" lon="2.83657">
        <ele>76.0</ele>
        <time>2021-08-21T06:21:27.124Z</time>
      </trkpt>
      <trkpt lat="41.968835" lon="2.83657">
        <ele>76.0</ele>
        <time>2021-08-21T06:21:28.129Z</time>
      </trkpt>
      <trkpt lat="41.968885" lon="2.83670833">
        <ele>75.0</ele>
        <time>2021-08-21T06:21:29.109Z</time>
      </trkpt>
      <trkpt lat="41.968885" lon="2.83670833">
        <ele>75.0</ele>
        <time>2021-08-21T06:21:30.114Z</time>
      </trkpt>
      <trkpt lat="41.96892333" lon="2.836875">
        <ele>74.0</ele>
        <time>2021-08-21T06:21:31.131Z</time>
      </trkpt>
      <trkpt lat="41.96892333" lon="2.836875">
        <ele>74.0</ele>
        <time>2021-08-21T06:21:32.131Z</time>
      </trkpt>
      <trkpt lat="41.96896167" lon="2.83706667">
        <ele>74.0</ele>
        <time>2021-08-21T06:21:33.127Z</time>
      </trkpt>
      <trkpt lat="41.96896167" lon="2.83706667">
        <ele>74.0</ele>
        <time>2021-08-21T06:21:34.143Z</time>
      </trkpt>
      <trkpt lat="41.96897" lon="2.83725333">
        <ele>74.0</ele>
        <time>2021-08-21T06:21:35.123Z</time>
      </trkpt>
      <trkpt lat="41.96897" lon="2.83725333">
        <ele>74.0</ele>
        <time>2021-08-21T06:21:36.140Z</time>
      </trkpt>
      <trkpt lat="41.968975" lon="2.83742667">
        <ele>74.0</ele>
        <time>2021-08-21T06:21:37.146Z</time>
      </trkpt>
      <trkpt lat="41.968975" lon="2.83742667">
        <ele>74.0</ele>
        <time>2021-08-21T06:21:38.123Z</time>
      </trkpt>
      <trkpt lat="41.968985" lon="2.83760167">
        <ele>74.0</ele>
        <time>2021-08-21T06:21:39.144Z</time>
      </trkpt>
      <trkpt lat="41.968985" lon="2.83760167">
        <ele>74.0</ele>
        <time>2021-08-21T06:21:40.120Z</time>
      </trkpt>
      <trkpt lat="41.96899167" lon="2.83778167">
        <ele>74.0</ele>
        <time>2021-08-21T06:21:41.144Z</time>
      </trkpt>
      <trkpt lat="41.96899167" lon="2.83778167">
        <ele>74.0</ele>
        <time>2021-08-21T06:21:42.119Z</time>
      </trkpt>
      <trkpt lat="41.96898333" lon="2.83794167">
        <ele>74.0</ele>
        <time>2021-08-21T06:21:43.110Z</time>
      </trkpt>
      <trkpt lat="41.96898333" lon="2.83794167">
        <ele>74.0</ele>
        <time>2021-08-21T06:21:44.127Z</time>
      </trkpt>
      <trkpt lat="41.968985" lon="2.83811">
        <ele>74.0</ele>
        <time>2021-08-21T06:21:45.124Z</time>
      </trkpt>
      <trkpt lat="41.968985" lon="2.83811">
        <ele>74.0</ele>
        <time>2021-08-21T06:21:46.139Z</time>
      </trkpt>
      <trkpt lat="41.96898167" lon="2.838295">
        <ele>74.0</ele>
        <time>2021-08-21T06:21:47.130Z</time>
      </trkpt>
      <trkpt lat="41.96897833" lon="2.83839333">
        <ele>75.0</ele>
        <time>2021-08-21T06:21:48.127Z</time>
      </trkpt>
      <trkpt lat="41.96898333" lon="2.83849333">
        <ele>75.0</ele>
        <time>2021-08-21T06:21:49.126Z</time>
      </trkpt>
      <trkpt lat="41.96898333" lon="2.83849333">
        <ele>75.0</ele>
        <time>2021-08-21T06:21:50.119Z</time>
      </trkpt>
      <trkpt lat="41.96897667" lon="2.838695">
        <ele>76.0</ele>
        <time>2021-08-21T06:21:51.120Z</time>
      </trkpt>
      <trkpt lat="41.96896833" lon="2.83879833">
        <ele>76.0</ele>
        <time>2021-08-21T06:21:52.143Z</time>
      </trkpt>
      <trkpt lat="41.96896833" lon="2.83879833">
        <ele>76.0</ele>
        <time>2021-08-21T06:21:53.120Z</time>
      </trkpt>
      <trkpt lat="41.96894833" lon="2.83898333">
        <ele>76.0</ele>
        <time>2021-08-21T06:21:54.141Z</time>
      </trkpt>
      <trkpt lat="41.96894" lon="2.83907">
        <ele>76.0</ele>
        <time>2021-08-21T06:21:55.127Z</time>
      </trkpt>
      <trkpt lat="41.96894" lon="2.83907">
        <ele>76.0</ele>
        <time>2021-08-21T06:21:56.119Z</time>
      </trkpt>
      <trkpt lat="41.96889333" lon="2.83928">
        <ele>76.0</ele>
        <time>2021-08-21T06:21:57.140Z</time>
      </trkpt>
      <trkpt lat="41.96889333" lon="2.83928">
        <ele>76.0</ele>
        <time>2021-08-21T06:21:58.119Z</time>
      </trkpt>
      <trkpt lat="41.96886833" lon="2.839435">
        <ele>76.0</ele>
        <time>2021-08-21T06:21:59.108Z</time>
      </trkpt>
      <trkpt lat="41.96886833" lon="2.839435">
        <ele>76.0</ele>
        <time>2021-08-21T06:22:00.139Z</time>
      </trkpt>
      <trkpt lat="41.96885667" lon="2.83957667">
        <ele>76.0</ele>
        <time>2021-08-21T06:22:01.127Z</time>
      </trkpt>
      <trkpt lat="41.96885667" lon="2.83957667">
        <ele>76.0</ele>
        <time>2021-08-21T06:22:02.118Z</time>
      </trkpt>
      <trkpt lat="41.968855" lon="2.83973167">
        <ele>77.0</ele>
        <time>2021-08-21T06:22:03.141Z</time>
      </trkpt>
      <trkpt lat="41.968855" lon="2.83973167">
        <ele>77.0</ele>
        <time>2021-08-21T06:22:04.131Z</time>
      </trkpt>
      <trkpt lat="41.968845" lon="2.83989333">
        <ele>77.0</ele>
        <time>2021-08-21T06:22:05.128Z</time>
      </trkpt>
      <trkpt lat="41.968845" lon="2.83989333">
        <ele>77.0</ele>
        <time>2021-08-21T06:22:06.118Z</time>
      </trkpt>
      <trkpt lat="41.96884333" lon="2.84005667">
        <ele>78.0</ele>
        <time>2021-08-21T06:22:07.141Z</time>
      </trkpt>
      <trkpt lat="41.96884333" lon="2.84005667">
        <ele>78.0</ele>
        <time>2021-08-21T06:22:08.120Z</time>
      </trkpt>
      <trkpt lat="41.96884667" lon="2.84020167">
        <ele>78.0</ele>
        <time>2021-08-21T06:22:09.118Z</time>
      </trkpt>
      <trkpt lat="41.96884667" lon="2.84020167">
        <ele>78.0</ele>
        <time>2021-08-21T06:22:10.140Z</time>
      </trkpt>
      <trkpt lat="41.968885" lon="2.840305">
        <ele>79.0</ele>
        <time>2021-08-21T06:22:11.132Z</time>
      </trkpt>
      <trkpt lat="41.968935" lon="2.84032">
        <ele>79.0</ele>
        <time>2021-08-21T06:22:12.125Z</time>
      </trkpt>
      <trkpt lat="41.968935" lon="2.84032">
        <ele>79.0</ele>
        <time>2021-08-21T06:22:13.140Z</time>
      </trkpt>
      <trkpt lat="41.969045" lon="2.840345">
        <ele>78.0</ele>
        <time>2021-08-21T06:22:14.129Z</time>
      </trkpt>
      <trkpt lat="41.969045" lon="2.840345">
        <ele>78.0</ele>
        <time>2021-08-21T06:22:15.120Z</time>
      </trkpt>
      <trkpt lat="41.96907333" lon="2.840435">
        <ele>80.0</ele>
        <time>2021-08-21T06:22:16.114Z</time>
      </trkpt>
      <trkpt lat="41.96907333" lon="2.840435">
        <ele>80.0</ele>
        <time>2021-08-21T06:22:17.130Z</time>
      </trkpt>
      <trkpt lat="41.96908" lon="2.84058333">
        <ele>81.0</ele>
        <time>2021-08-21T06:22:18.124Z</time>
      </trkpt>
      <trkpt lat="41.96907833" lon="2.84065833">
        <ele>81.0</ele>
        <time>2021-08-21T06:22:19.111Z</time>
      </trkpt>
      <trkpt lat="41.96907833" lon="2.84065833">
        <ele>81.0</ele>
        <time>2021-08-21T06:22:20.125Z</time>
      </trkpt>
      <trkpt lat="41.96905667" lon="2.84082333">
        <ele>82.0</ele>
        <time>2021-08-21T06:22:21.114Z</time>
      </trkpt>
      <trkpt lat="41.96905667" lon="2.84082333">
        <ele>82.0</ele>
        <time>2021-08-21T06:22:22.129Z</time>
      </trkpt>
      <trkpt lat="41.96906667" lon="2.84099833">
        <ele>82.0</ele>
        <time>2021-08-21T06:22:23.129Z</time>
      </trkpt>
      <trkpt lat="41.96906667" lon="2.84099833">
        <ele>82.0</ele>
        <time>2021-08-21T06:22:24.122Z</time>
      </trkpt>
      <trkpt lat="41.96908333" lon="2.84119">
        <ele>83.0</ele>
        <time>2021-08-21T06:22:25.145Z</time>
      </trkpt>
      <trkpt lat="41.96908333" lon="2.84119">
        <ele>83.0</ele>
        <time>2021-08-21T06:22:26.121Z</time>
      </trkpt>
      <trkpt lat="41.96910333" lon="2.84136333">
        <ele>83.0</ele>
        <time>2021-08-21T06:22:27.143Z</time>
      </trkpt>
      <trkpt lat="41.96910333" lon="2.84136333">
        <ele>83.0</ele>
        <time>2021-08-21T06:22:28.120Z</time>
      </trkpt>
      <trkpt lat="41.96913167" lon="2.84153833">
        <ele>84.0</ele>
        <time>2021-08-21T06:22:29.140Z</time>
      </trkpt>
      <trkpt lat="41.96915" lon="2.84162833">
        <ele>84.0</ele>
        <time>2021-08-21T06:22:30.125Z</time>
      </trkpt>
      <trkpt lat="41.96915" lon="2.84162833">
        <ele>84.0</ele>
        <time>2021-08-21T06:22:31.140Z</time>
      </trkpt>
      <trkpt lat="41.969175" lon="2.84179">
        <ele>85.0</ele>
        <time>2021-08-21T06:22:32.111Z</time>
      </trkpt>
      <trkpt lat="41.969175" lon="2.84179">
        <ele>85.0</ele>
        <time>2021-08-21T06:22:33.127Z</time>
      </trkpt>
      <trkpt lat="41.96916667" lon="2.84197167">
        <ele>85.0</ele>
        <time>2021-08-21T06:22:34.131Z</time>
      </trkpt>
      <trkpt lat="41.96916667" lon="2.84197167">
        <ele>85.0</ele>
        <time>2021-08-21T06:22:35.126Z</time>
      </trkpt>
      <trkpt lat="41.96916833" lon="2.842135">
        <ele>85.0</ele>
        <time>2021-08-21T06:22:36.124Z</time>
      </trkpt>
      <trkpt lat="41.96917" lon="2.84222333">
        <ele>85.0</ele>
        <time>2021-08-21T06:22:37.135Z</time>
      </trkpt>
      <trkpt lat="41.96917" lon="2.84222333">
        <ele>85.0</ele>
        <time>2021-08-21T06:22:38.120Z</time>
      </trkpt>
      <trkpt lat="41.96916" lon="2.84238833">
        <ele>85.0</ele>
        <time>2021-08-21T06:22:39.147Z</time>
      </trkpt>
      <trkpt lat="41.96916" lon="2.84238833">
        <ele>85.0</ele>
        <time>2021-08-21T06:22:40.123Z</time>
      </trkpt>
      <trkpt lat="41.96915" lon="2.84253167">
        <ele>86.0</ele>
        <time>2021-08-21T06:22:41.118Z</time>
      </trkpt>
      <trkpt lat="41.96915" lon="2.84253167">
        <ele>86.0</ele>
        <time>2021-08-21T06:22:42.130Z</time>
      </trkpt>
      <trkpt lat="41.96914667" lon="2.84269">
        <ele>86.0</ele>
        <time>2021-08-21T06:22:43.127Z</time>
      </trkpt>
      <trkpt lat="41.96914667" lon="2.84269">
        <ele>86.0</ele>
        <time>2021-08-21T06:22:44.144Z</time>
      </trkpt>
      <trkpt lat="41.969105" lon="2.84283333">
        <ele>86.0</ele>
        <time>2021-08-21T06:22:45.132Z</time>
      </trkpt>
      <trkpt lat="41.969105" lon="2.84283333">
        <ele>86.0</ele>
        <time>2021-08-21T06:22:46.120Z</time>
      </trkpt>
      <trkpt lat="41.96903833" lon="2.84293667">
        <ele>87.0</ele>
        <time>2021-08-21T06:22:47.117Z</time>
      </trkpt>
      <trkpt lat="41.96903833" lon="2.84293667">
        <ele>87.0</ele>
        <time>2021-08-21T06:22:48.133Z</time>
      </trkpt>
      <trkpt lat="41.96900167" lon="2.843065">
        <ele>87.0</ele>
        <time>2021-08-21T06:22:49.122Z</time>
      </trkpt>
      <trkpt lat="41.96900167" lon="2.843065">
        <ele>87.0</ele>
        <time>2021-08-21T06:22:50.128Z</time>
      </trkpt>
      <trkpt lat="41.96895833" lon="2.84319333">
        <ele>87.0</ele>
        <time>2021-08-21T06:22:51.130Z</time>
      </trkpt>
      <trkpt lat="41.96895833" lon="2.84319333">
        <ele>87.0</ele>
        <time>2021-08-21T06:22:52.118Z</time>
      </trkpt>
      <trkpt lat="41.96891333" lon="2.84331167">
        <ele>87.0</ele>
        <time>2021-08-21T06:22:53.136Z</time>
      </trkpt>
      <trkpt lat="41.96888667" lon="2.84338167">
        <ele>87.0</ele>
        <time>2021-08-21T06:22:54.141Z</time>
      </trkpt>
      <trkpt lat="41.96885833" lon="2.84344833">
        <ele>87.0</ele>
        <time>2021-08-21T06:22:55.147Z</time>
      </trkpt>
      <trkpt lat="41.96885833" lon="2.84344833">
        <ele>87.0</ele>
        <time>2021-08-21T06:22:56.113Z</time>
      </trkpt>
      <trkpt lat="41.96880833" lon="2.84357667">
        <ele>87.0</ele>
        <time>2021-08-21T06:22:57.130Z</time>
      </trkpt>
      <trkpt lat="41.96880833" lon="2.84357667">
        <ele>87.0</ele>
        <time>2021-08-21T06:22:58.129Z</time>
      </trkpt>
      <trkpt lat="41.968735" lon="2.84371167">
        <ele>88.0</ele>
        <time>2021-08-21T06:22:59.126Z</time>
      </trkpt>
      <trkpt lat="41.968735" lon="2.84371167">
        <ele>88.0</ele>
        <time>2021-08-21T06:23:00.145Z</time>
      </trkpt>
      <trkpt lat="41.96866833" lon="2.84384333">
        <ele>88.0</ele>
        <time>2021-08-21T06:23:01.129Z</time>
      </trkpt>
      <trkpt lat="41.96866833" lon="2.84384333">
        <ele>88.0</ele>
        <time>2021-08-21T06:23:02.120Z</time>
      </trkpt>
      <trkpt lat="41.968615" lon="2.84395">
        <ele>89.0</ele>
        <time>2021-08-21T06:23:03.144Z</time>
      </trkpt>
      <trkpt lat="41.968615" lon="2.84395">
        <ele>89.0</ele>
        <time>2021-08-21T06:23:04.120Z</time>
      </trkpt>
      <trkpt lat="41.96854333" lon="2.84406167">
        <ele>89.0</ele>
        <time>2021-08-21T06:23:05.140Z</time>
      </trkpt>
      <trkpt lat="41.96851167" lon="2.84411667">
        <ele>90.0</ele>
        <time>2021-08-21T06:23:06.125Z</time>
      </trkpt>
      <trkpt lat="41.96847833" lon="2.84416667">
        <ele>90.0</ele>
        <time>2021-08-21T06:23:07.119Z</time>
      </trkpt>
      <trkpt lat="41.96847833" lon="2.84416667">
        <ele>90.0</ele>
        <time>2021-08-21T06:23:08.134Z</time>
      </trkpt>
      <trkpt lat="41.96840333" lon="2.84425833">
        <ele>91.0</ele>
        <time>2021-08-21T06:23:09.126Z</time>
      </trkpt>
      <trkpt lat="41.96836333" lon="2.84430333">
        <ele>92.0</ele>
        <time>2021-08-21T06:23:10.143Z</time>
      </trkpt>
      <trkpt lat="41.96836333" lon="2.84430333">
        <ele>92.0</ele>
        <time>2021-08-21T06:23:11.120Z</time>
      </trkpt>
      <trkpt lat="41.96827" lon="2.84436167">
        <ele>93.0</ele>
        <time>2021-08-21T06:23:12.141Z</time>
      </trkpt>
      <trkpt lat="41.96822167" lon="2.84438">
        <ele>93.0</ele>
        <time>2021-08-21T06:23:13.125Z</time>
      </trkpt>
      <trkpt lat="41.96822167" lon="2.84438">
        <ele>93.0</ele>
        <time>2021-08-21T06:23:14.140Z</time>
      </trkpt>
      <trkpt lat="41.96812333" lon="2.84441667">
        <ele>95.0</ele>
        <time>2021-08-21T06:23:15.108Z</time>
      </trkpt>
      <trkpt lat="41.96807667" lon="2.844435">
        <ele>95.0</ele>
        <time>2021-08-21T06:23:16.127Z</time>
      </trkpt>
      <trkpt lat="41.96807667" lon="2.844435">
        <ele>95.0</ele>
        <time>2021-08-21T06:23:17.120Z</time>
      </trkpt>
      <trkpt lat="41.96798" lon="2.84448333">
        <ele>97.0</ele>
        <time>2021-08-21T06:23:18.141Z</time>
      </trkpt>
      <trkpt lat="41.96793167" lon="2.8445">
        <ele>97.0</ele>
        <time>2021-08-21T06:23:19.128Z</time>
      </trkpt>
      <trkpt lat="41.96793167" lon="2.8445">
        <ele>97.0</ele>
        <time>2021-08-21T06:23:20.120Z</time>
      </trkpt>
      <trkpt lat="41.96781333" lon="2.84451167">
        <ele>98.0</ele>
        <time>2021-08-21T06:23:21.114Z</time>
      </trkpt>
      <trkpt lat="41.96781333" lon="2.84451167">
        <ele>98.0</ele>
        <time>2021-08-21T06:23:22.130Z</time>
      </trkpt>
      <trkpt lat="41.96769833" lon="2.84450667">
        <ele>99.0</ele>
        <time>2021-08-21T06:23:23.130Z</time>
      </trkpt>
      <trkpt lat="41.96769833" lon="2.84450667">
        <ele>99.0</ele>
        <time>2021-08-21T06:23:24.121Z</time>
      </trkpt>
      <trkpt lat="41.96757833" lon="2.84450167">
        <ele>99.0</ele>
        <time>2021-08-21T06:23:25.143Z</time>
      </trkpt>
      <trkpt lat="41.96757833" lon="2.84450167">
        <ele>99.0</ele>
        <time>2021-08-21T06:23:26.121Z</time>
      </trkpt>
      <trkpt lat="41.96745167" lon="2.84446">
        <ele>99.0</ele>
        <time>2021-08-21T06:23:27.143Z</time>
      </trkpt>
      <trkpt lat="41.96740333" lon="2.84443">
        <ele>100.0</ele>
        <time>2021-08-21T06:23:28.126Z</time>
      </trkpt>
      <trkpt lat="41.96734667" lon="2.84438667">
        <ele>100.0</ele>
        <time>2021-08-21T06:23:29.111Z</time>
      </trkpt>
      <trkpt lat="41.96734667" lon="2.84438667">
        <ele>100.0</ele>
        <time>2021-08-21T06:23:30.126Z</time>
      </trkpt>
      <trkpt lat="41.96719167" lon="2.84431833">
        <ele>99.0</ele>
        <time>2021-08-21T06:23:31.124Z</time>
      </trkpt>
      <trkpt lat="41.96719167" lon="2.84431833">
        <ele>99.0</ele>
        <time>2021-08-21T06:23:32.141Z</time>
      </trkpt>
      <trkpt lat="41.96709667" lon="2.84426">
        <ele>99.0</ele>
        <time>2021-08-21T06:23:33.126Z</time>
      </trkpt>
      <trkpt lat="41.96709667" lon="2.84426">
        <ele>99.0</ele>
        <time>2021-08-21T06:23:34.141Z</time>
      </trkpt>
      <trkpt lat="41.967025" lon="2.84419833">
        <ele>98.0</ele>
        <time>2021-08-21T06:23:35.111Z</time>
      </trkpt>
      <trkpt lat="41.967025" lon="2.84419833">
        <ele>98.0</ele>
        <time>2021-08-21T06:23:36.131Z</time>
      </trkpt>
      <trkpt lat="41.96692667" lon="2.84412333">
        <ele>97.0</ele>
        <time>2021-08-21T06:23:37.131Z</time>
      </trkpt>
      <trkpt lat="41.96692667" lon="2.84412333">
        <ele>97.0</ele>
        <time>2021-08-21T06:23:38.120Z</time>
      </trkpt>
      <trkpt lat="41.96682833" lon="2.84403">
        <ele>97.0</ele>
        <time>2021-08-21T06:23:39.121Z</time>
      </trkpt>
      <trkpt lat="41.96682833" lon="2.84403">
        <ele>97.0</ele>
        <time>2021-08-21T06:23:40.136Z</time>
      </trkpt>
      <trkpt lat="41.96674167" lon="2.84394">
        <ele>97.0</ele>
        <time>2021-08-21T06:23:41.128Z</time>
      </trkpt>
      <trkpt lat="41.96669333" lon="2.84389">
        <ele>97.0</ele>
        <time>2021-08-21T06:23:42.141Z</time>
      </trkpt>
      <trkpt lat="41.96669333" lon="2.84389">
        <ele>97.0</ele>
        <time>2021-08-21T06:23:43.124Z</time>
      </trkpt>
      <trkpt lat="41.96660833" lon="2.84379167">
        <ele>97.0</ele>
        <time>2021-08-21T06:23:44.115Z</time>
      </trkpt>
      <trkpt lat="41.96660833" lon="2.84379167">
        <ele>97.0</ele>
        <time>2021-08-21T06:23:45.131Z</time>
      </trkpt>
      <trkpt lat="41.96655333" lon="2.84366833">
        <ele>97.0</ele>
        <time>2021-08-21T06:23:46.126Z</time>
      </trkpt>
      <trkpt lat="41.96655333" lon="2.84366833">
        <ele>97.0</ele>
        <time>2021-08-21T06:23:47.141Z</time>
      </trkpt>
      <trkpt lat="41.96653333" lon="2.84351">
        <ele>96.0</ele>
        <time>2021-08-21T06:23:48.127Z</time>
      </trkpt>
      <trkpt lat="41.96653167" lon="2.843435">
        <ele>96.0</ele>
        <time>2021-08-21T06:23:49.112Z</time>
      </trkpt>
      <trkpt lat="41.96653167" lon="2.843435">
        <ele>96.0</ele>
        <time>2021-08-21T06:23:50.127Z</time>
      </trkpt>
      <trkpt lat="41.96655" lon="2.843285">
        <ele>94.0</ele>
        <time>2021-08-21T06:23:51.133Z</time>
      </trkpt>
      <trkpt lat="41.96655333" lon="2.84321167">
        <ele>93.0</ele>
        <time>2021-08-21T06:23:52.129Z</time>
      </trkpt>
      <trkpt lat="41.96655333" lon="2.84321167">
        <ele>93.0</ele>
        <time>2021-08-21T06:23:53.121Z</time>
      </trkpt>
      <trkpt lat="41.96652333" lon="2.84306333">
        <ele>92.0</ele>
        <time>2021-08-21T06:23:54.108Z</time>
      </trkpt>
      <trkpt lat="41.96650833" lon="2.84300667">
        <ele>92.0</ele>
        <time>2021-08-21T06:23:55.128Z</time>
      </trkpt>
      <trkpt lat="41.96650833" lon="2.84300667">
        <ele>92.0</ele>
        <time>2021-08-21T06:23:56.121Z</time>
      </trkpt>
      <trkpt lat="41.96646333" lon="2.84291">
        <ele>91.0</ele>
        <time>2021-08-21T06:23:57.141Z</time>
      </trkpt>
      <trkpt lat="41.96644" lon="2.84287">
        <ele>91.0</ele>
        <time>2021-08-21T06:23:58.131Z</time>
      </trkpt>
      <trkpt lat="41.96644" lon="2.84287">
        <ele>91.0</ele>
        <time>2021-08-21T06:23:59.147Z</time>
      </trkpt>
      <trkpt lat="41.96640167" lon="2.84279667">
        <ele>91.0</ele>
        <time>2021-08-21T06:24:00.139Z</time>
      </trkpt>
      <trkpt lat="41.96638" lon="2.84274667">
        <ele>91.0</ele>
        <time>2021-08-21T06:24:01.132Z</time>
      </trkpt>
      <trkpt lat="41.96638" lon="2.84274667">
        <ele>91.0</ele>
        <time>2021-08-21T06:24:02.121Z</time>
      </trkpt>
      <trkpt lat="41.966305" lon="2.84261">
        <ele>90.0</ele>
        <time>2021-08-21T06:24:03.144Z</time>
      </trkpt>
      <trkpt lat="41.966305" lon="2.84261">
        <ele>90.0</ele>
        <time>2021-08-21T06:24:04.122Z</time>
      </trkpt>
      <trkpt lat="41.966215" lon="2.842485">
        <ele>90.0</ele>
        <time>2021-08-21T06:24:05.145Z</time>
      </trkpt>
      <trkpt lat="41.966215" lon="2.842485">
        <ele>90.0</ele>
        <time>2021-08-21T06:24:06.120Z</time>
      </trkpt>
      <trkpt lat="41.96613833" lon="2.842355">
        <ele>89.0</ele>
        <time>2021-08-21T06:24:07.112Z</time>
      </trkpt>
      <trkpt lat="41.96613833" lon="2.842355">
        <ele>89.0</ele>
        <time>2021-08-21T06:24:08.142Z</time>
      </trkpt>
      <trkpt lat="41.96606833" lon="2.84221833">
        <ele>88.0</ele>
        <time>2021-08-21T06:24:09.146Z</time>
      </trkpt>
      <trkpt lat="41.96606833" lon="2.84221833">
        <ele>88.0</ele>
        <time>2021-08-21T06:24:10.124Z</time>
      </trkpt>
      <trkpt lat="41.96599" lon="2.842105">
        <ele>88.0</ele>
        <time>2021-08-21T06:24:11.141Z</time>
      </trkpt>
      <trkpt lat="41.96599" lon="2.842105">
        <ele>88.0</ele>
        <time>2021-08-21T06:24:12.146Z</time>
      </trkpt>
      <trkpt lat="41.965945" lon="2.84202167">
        <ele>87.0</ele>
        <time>2021-08-21T06:24:13.130Z</time>
      </trkpt>
      <trkpt lat="41.965945" lon="2.84202167">
        <ele>87.0</ele>
        <time>2021-08-21T06:24:14.135Z</time>
      </trkpt>
      <trkpt lat="41.96590333" lon="2.84197167">
        <ele>86.0</ele>
        <time>2021-08-21T06:24:15.108Z</time>
      </trkpt>
      <trkpt lat="41.96590333" lon="2.84197167">
        <ele>86.0</ele>
        <time>2021-08-21T06:24:16.130Z</time>
      </trkpt>
      <trkpt lat="41.96585" lon="2.841925">
        <ele>86.0</ele>
        <time>2021-08-21T06:24:17.140Z</time>
      </trkpt>
      <trkpt lat="41.96585" lon="2.841925">
        <ele>86.0</ele>
        <time>2021-08-21T06:24:18.145Z</time>
      </trkpt>
      <trkpt lat="41.96579333" lon="2.84183667">
        <ele>86.0</ele>
        <time>2021-08-21T06:24:19.138Z</time>
      </trkpt>
      <trkpt lat="41.96579333" lon="2.84183667">
        <ele>86.0</ele>
        <time>2021-08-21T06:24:20.121Z</time>
      </trkpt>
      <trkpt lat="41.96576" lon="2.84176833">
        <ele>86.0</ele>
        <time>2021-08-21T06:24:21.142Z</time>
      </trkpt>
      <trkpt lat="41.96576" lon="2.84176833">
        <ele>86.0</ele>
        <time>2021-08-21T06:24:22.121Z</time>
      </trkpt>
      <trkpt lat="41.96570167" lon="2.841695">
        <ele>86.0</ele>
        <time>2021-08-21T06:24:23.142Z</time>
      </trkpt>
      <trkpt lat="41.96567333" lon="2.84166">
        <ele>86.0</ele>
        <time>2021-08-21T06:24:24.117Z</time>
      </trkpt>
      <trkpt lat="41.96564833" lon="2.84161333">
        <ele>86.0</ele>
        <time>2021-08-21T06:24:25.110Z</time>
      </trkpt>
      <trkpt lat="41.96564833" lon="2.84161333">
        <ele>86.0</ele>
        <time>2021-08-21T06:24:26.136Z</time>
      </trkpt>
      <trkpt lat="41.9656" lon="2.841535">
        <ele>86.0</ele>
        <time>2021-08-21T06:24:27.127Z</time>
      </trkpt>
      <trkpt lat="41.9656" lon="2.841535">
        <ele>86.0</ele>
        <time>2021-08-21T06:24:28.109Z</time>
      </trkpt>
      <trkpt lat="41.96554833" lon="2.84144833">
        <ele>86.0</ele>
        <time>2021-08-21T06:24:29.128Z</time>
      </trkpt>
      <trkpt lat="41.96554833" lon="2.84144833">
        <ele>86.0</ele>
        <time>2021-08-21T06:24:30.121Z</time>
      </trkpt>
      <trkpt lat="41.965495" lon="2.84135167">
        <ele>86.0</ele>
        <time>2021-08-21T06:24:31.120Z</time>
      </trkpt>
      <trkpt lat="41.965495" lon="2.84135167">
        <ele>86.0</ele>
        <time>2021-08-21T06:24:32.135Z</time>
      </trkpt>
      <trkpt lat="41.965435" lon="2.84124333">
        <ele>87.0</ele>
        <time>2021-08-21T06:24:33.127Z</time>
      </trkpt>
      <trkpt lat="41.965435" lon="2.84124333">
        <ele>87.0</ele>
        <time>2021-08-21T06:24:34.121Z</time>
      </trkpt>
      <trkpt lat="41.96537333" lon="2.84116">
        <ele>87.0</ele>
        <time>2021-08-21T06:24:35.126Z</time>
      </trkpt>
      <trkpt lat="41.96537333" lon="2.84116">
        <ele>87.0</ele>
        <time>2021-08-21T06:24:36.120Z</time>
      </trkpt>
      <trkpt lat="41.96533333" lon="2.841125">
        <ele>87.0</ele>
        <time>2021-08-21T06:24:37.110Z</time>
      </trkpt>
      <trkpt lat="41.96533333" lon="2.841125">
        <ele>87.0</ele>
        <time>2021-08-21T06:24:38.125Z</time>
      </trkpt>
      <trkpt lat="41.96529333" lon="2.84109833">
        <ele>86.0</ele>
        <time>2021-08-21T06:24:39.111Z</time>
      </trkpt>
      <trkpt lat="41.96529333" lon="2.84109833">
        <ele>86.0</ele>
        <time>2021-08-21T06:24:40.125Z</time>
      </trkpt>
      <trkpt lat="41.96527" lon="2.84106">
        <ele>87.0</ele>
        <time>2021-08-21T06:24:41.121Z</time>
      </trkpt>
      <trkpt lat="41.96527" lon="2.84106">
        <ele>87.0</ele>
        <time>2021-08-21T06:24:42.133Z</time>
      </trkpt>
      <trkpt lat="41.96525667" lon="2.84100667">
        <ele>87.0</ele>
        <time>2021-08-21T06:24:43.129Z</time>
      </trkpt>
      <trkpt lat="41.96525667" lon="2.84100667">
        <ele>87.0</ele>
        <time>2021-08-21T06:24:44.124Z</time>
      </trkpt>
      <trkpt lat="41.96523667" lon="2.84097167">
        <ele>87.0</ele>
        <time>2021-08-21T06:24:45.110Z</time>
      </trkpt>
      <trkpt lat="41.96523667" lon="2.84097167">
        <ele>87.0</ele>
        <time>2021-08-21T06:24:46.134Z</time>
      </trkpt>
      <trkpt lat="41.965205" lon="2.84093667">
        <ele>87.0</ele>
        <time>2021-08-21T06:24:47.140Z</time>
      </trkpt>
      <trkpt lat="41.965205" lon="2.84093667">
        <ele>87.0</ele>
        <time>2021-08-21T06:24:48.124Z</time>
      </trkpt>
      <trkpt lat="41.96511333" lon="2.840895">
        <ele>86.0</ele>
        <time>2021-08-21T06:24:49.147Z</time>
      </trkpt>
      <trkpt lat="41.96511333" lon="2.840895">
        <ele>86.0</ele>
        <time>2021-08-21T06:24:50.123Z</time>
      </trkpt>
      <trkpt lat="41.96504333" lon="2.84084333">
        <ele>86.0</ele>
        <time>2021-08-21T06:24:51.119Z</time>
      </trkpt>
      <trkpt lat="41.96504333" lon="2.84084333">
        <ele>86.0</ele>
        <time>2021-08-21T06:24:52.136Z</time>
      </trkpt>
      <trkpt lat="41.96501" lon="2.840765">
        <ele>86.0</ele>
        <time>2021-08-21T06:24:53.126Z</time>
      </trkpt>
      <trkpt lat="41.96501" lon="2.840765">
        <ele>86.0</ele>
        <time>2021-08-21T06:24:54.141Z</time>
      </trkpt>
      <trkpt lat="41.96498" lon="2.84069667">
        <ele>86.0</ele>
        <time>2021-08-21T06:24:55.130Z</time>
      </trkpt>
      <trkpt lat="41.96498" lon="2.84069667">
        <ele>86.0</ele>
        <time>2021-08-21T06:24:56.125Z</time>
      </trkpt>
      <trkpt lat="41.96493333" lon="2.84064">
        <ele>85.0</ele>
        <time>2021-08-21T06:24:57.144Z</time>
      </trkpt>
      <trkpt lat="41.96493333" lon="2.84064">
        <ele>85.0</ele>
        <time>2021-08-21T06:24:58.121Z</time>
      </trkpt>
      <trkpt lat="41.96488167" lon="2.84058333">
        <ele>85.0</ele>
        <time>2021-08-21T06:24:59.143Z</time>
      </trkpt>
      <trkpt lat="41.96488167" lon="2.84058333">
        <ele>85.0</ele>
        <time>2021-08-21T06:25:00.145Z</time>
      </trkpt>
      <trkpt lat="41.964805" lon="2.84058333">
        <ele>84.0</ele>
        <time>2021-08-21T06:25:01.136Z</time>
      </trkpt>
      <trkpt lat="41.964805" lon="2.84058333">
        <ele>84.0</ele>
        <time>2021-08-21T06:25:02.121Z</time>
      </trkpt>
      <trkpt lat="41.96473667" lon="2.84057333">
        <ele>84.0</ele>
        <time>2021-08-21T06:25:03.145Z</time>
      </trkpt>
      <trkpt lat="41.96473667" lon="2.84057333">
        <ele>84.0</ele>
        <time>2021-08-21T06:25:04.122Z</time>
      </trkpt>
      <trkpt lat="41.96468333" lon="2.84059333">
        <ele>83.0</ele>
        <time>2021-08-21T06:25:05.111Z</time>
      </trkpt>
      <trkpt lat="41.96467" lon="2.84063833">
        <ele>83.0</ele>
        <time>2021-08-21T06:25:06.132Z</time>
      </trkpt>
      <trkpt lat="41.96465667" lon="2.840685">
        <ele>82.0</ele>
        <time>2021-08-21T06:25:07.131Z</time>
      </trkpt>
      <trkpt lat="41.96465667" lon="2.840685">
        <ele>82.0</ele>
        <time>2021-08-21T06:25:08.121Z</time>
      </trkpt>
      <trkpt lat="41.96462333" lon="2.84078333">
        <ele>82.0</ele>
        <time>2021-08-21T06:25:09.144Z</time>
      </trkpt>
      <trkpt lat="41.96462333" lon="2.84078333">
        <ele>82.0</ele>
        <time>2021-08-21T06:25:10.121Z</time>
      </trkpt>
      <trkpt lat="41.96459" lon="2.84088667">
        <ele>82.0</ele>
        <time>2021-08-21T06:25:11.119Z</time>
      </trkpt>
      <trkpt lat="41.96459" lon="2.84088667">
        <ele>82.0</ele>
        <time>2021-08-21T06:25:12.130Z</time>
      </trkpt>
      <trkpt lat="41.96456" lon="2.84099667">
        <ele>82.0</ele>
        <time>2021-08-21T06:25:13.132Z</time>
      </trkpt>
      <trkpt lat="41.96456" lon="2.84099667">
        <ele>82.0</ele>
        <time>2021-08-21T06:25:14.121Z</time>
      </trkpt>
      <trkpt lat="41.96453667" lon="2.841095">
        <ele>82.0</ele>
        <time>2021-08-21T06:25:15.143Z</time>
      </trkpt>
      <trkpt lat="41.96453667" lon="2.841095">
        <ele>82.0</ele>
        <time>2021-08-21T06:25:16.131Z</time>
      </trkpt>
      <trkpt lat="41.964485" lon="2.84115167">
        <ele>81.0</ele>
        <time>2021-08-21T06:25:17.126Z</time>
      </trkpt>
      <trkpt lat="41.964485" lon="2.84115167">
        <ele>81.0</ele>
        <time>2021-08-21T06:25:18.141Z</time>
      </trkpt>
      <trkpt lat="41.964415" lon="2.841165">
        <ele>81.0</ele>
        <time>2021-08-21T06:25:19.129Z</time>
      </trkpt>
      <trkpt lat="41.964415" lon="2.841165">
        <ele>81.0</ele>
        <time>2021-08-21T06:25:20.121Z</time>
      </trkpt>
      <trkpt lat="41.964325" lon="2.84116">
        <ele>80.0</ele>
        <time>2021-08-21T06:25:21.117Z</time>
      </trkpt>
      <trkpt lat="41.964325" lon="2.84116">
        <ele>80.0</ele>
        <time>2021-08-21T06:25:22.140Z</time>
      </trkpt>
      <trkpt lat="41.96421667" lon="2.84114167">
        <ele>80.0</ele>
        <time>2021-08-21T06:25:23.133Z</time>
      </trkpt>
      <trkpt lat="41.96421667" lon="2.84114167">
        <ele>80.0</ele>
        <time>2021-08-21T06:25:24.122Z</time>
      </trkpt>
      <trkpt lat="41.96411167" lon="2.84113">
        <ele>79.0</ele>
        <time>2021-08-21T06:25:25.144Z</time>
      </trkpt>
      <trkpt lat="41.96411167" lon="2.84113">
        <ele>79.0</ele>
        <time>2021-08-21T06:25:26.133Z</time>
      </trkpt>
      <trkpt lat="41.964005" lon="2.841125">
        <ele>79.0</ele>
        <time>2021-08-21T06:25:27.127Z</time>
      </trkpt>
      <trkpt lat="41.964005" lon="2.841125">
        <ele>79.0</ele>
        <time>2021-08-21T06:25:28.142Z</time>
      </trkpt>
      <trkpt lat="41.96388833" lon="2.84112667">
        <ele>78.0</ele>
        <time>2021-08-21T06:25:29.126Z</time>
      </trkpt>
      <trkpt lat="41.96388833" lon="2.84112667">
        <ele>78.0</ele>
        <time>2021-08-21T06:25:30.141Z</time>
      </trkpt>
      <trkpt lat="41.96377333" lon="2.84113167">
        <ele>78.0</ele>
        <time>2021-08-21T06:25:31.133Z</time>
      </trkpt>
      <trkpt lat="41.96377333" lon="2.84113167">
        <ele>78.0</ele>
        <time>2021-08-21T06:25:32.121Z</time>
      </trkpt>
      <trkpt lat="41.96366667" lon="2.84113667">
        <ele>78.0</ele>
        <time>2021-08-21T06:25:33.143Z</time>
      </trkpt>
      <trkpt lat="41.96366667" lon="2.84113667">
        <ele>78.0</ele>
        <time>2021-08-21T06:25:34.121Z</time>
      </trkpt>
      <trkpt lat="41.96354833" lon="2.84114">
        <ele>78.0</ele>
        <time>2021-08-21T06:25:35.126Z</time>
      </trkpt>
      <trkpt lat="41.96354833" lon="2.84114">
        <ele>78.0</ele>
        <time>2021-08-21T06:25:36.109Z</time>
      </trkpt>
      <trkpt lat="41.96343" lon="2.84113833">
        <ele>78.0</ele>
        <time>2021-08-21T06:25:37.127Z</time>
      </trkpt>
      <trkpt lat="41.96343" lon="2.84113833">
        <ele>78.0</ele>
        <time>2021-08-21T06:25:38.142Z</time>
      </trkpt>
      <trkpt lat="41.96331333" lon="2.84114">
        <ele>78.0</ele>
        <time>2021-08-21T06:25:39.134Z</time>
      </trkpt>
      <trkpt lat="41.96331333" lon="2.84114">
        <ele>78.0</ele>
        <time>2021-08-21T06:25:40.121Z</time>
      </trkpt>
      <trkpt lat="41.963205" lon="2.84113333">
        <ele>77.0</ele>
        <time>2021-08-21T06:25:41.114Z</time>
      </trkpt>
      <trkpt lat="41.963205" lon="2.84113333">
        <ele>77.0</ele>
        <time>2021-08-21T06:25:42.129Z</time>
      </trkpt>
      <trkpt lat="41.96309833" lon="2.84113833">
        <ele>77.0</ele>
        <time>2021-08-21T06:25:43.124Z</time>
      </trkpt>
      <trkpt lat="41.96309833" lon="2.84113833">
        <ele>77.0</ele>
        <time>2021-08-21T06:25:44.139Z</time>
      </trkpt>
      <trkpt lat="41.96299333" lon="2.84113833">
        <ele>77.0</ele>
        <time>2021-08-21T06:25:45.127Z</time>
      </trkpt>
      <trkpt lat="41.96299333" lon="2.84113833">
        <ele>77.0</ele>
        <time>2021-08-21T06:25:46.108Z</time>
      </trkpt>
      <trkpt lat="41.96288333" lon="2.84113833">
        <ele>78.0</ele>
        <time>2021-08-21T06:25:47.143Z</time>
      </trkpt>
      <trkpt lat="41.96288333" lon="2.84113833">
        <ele>78.0</ele>
        <time>2021-08-21T06:25:48.122Z</time>
      </trkpt>
      <trkpt lat="41.96277" lon="2.84114833">
        <ele>78.0</ele>
        <time>2021-08-21T06:25:49.130Z</time>
      </trkpt>
      <trkpt lat="41.96277" lon="2.84114833">
        <ele>78.0</ele>
        <time>2021-08-21T06:25:50.122Z</time>
      </trkpt>
      <trkpt lat="41.96266167" lon="2.84116167">
        <ele>78.0</ele>
        <time>2021-08-21T06:25:51.143Z</time>
      </trkpt>
      <trkpt lat="41.96266167" lon="2.84116167">
        <ele>78.0</ele>
        <time>2021-08-21T06:25:52.122Z</time>
      </trkpt>
      <trkpt lat="41.96254667" lon="2.84117333">
        <ele>78.0</ele>
        <time>2021-08-21T06:25:53.145Z</time>
      </trkpt>
      <trkpt lat="41.96254667" lon="2.84117333">
        <ele>78.0</ele>
        <time>2021-08-21T06:25:54.134Z</time>
      </trkpt>
      <trkpt lat="41.96243" lon="2.84119167">
        <ele>79.0</ele>
        <time>2021-08-21T06:25:55.130Z</time>
      </trkpt>
      <trkpt lat="41.96243" lon="2.84119167">
        <ele>79.0</ele>
        <time>2021-08-21T06:25:56.125Z</time>
      </trkpt>
      <trkpt lat="41.962315" lon="2.84120833">
        <ele>78.0</ele>
        <time>2021-08-21T06:25:57.128Z</time>
      </trkpt>
      <trkpt lat="41.962315" lon="2.84120833">
        <ele>78.0</ele>
        <time>2021-08-21T06:25:58.114Z</time>
      </trkpt>
      <trkpt lat="41.96220833" lon="2.84121833">
        <ele>78.0</ele>
        <time>2021-08-21T06:25:59.140Z</time>
      </trkpt>
      <trkpt lat="41.96220833" lon="2.84121833">
        <ele>78.0</ele>
        <time>2021-08-21T06:26:00.141Z</time>
      </trkpt>
      <trkpt lat="41.96210333" lon="2.84123667">
        <ele>79.0</ele>
        <time>2021-08-21T06:26:01.132Z</time>
      </trkpt>
      <trkpt lat="41.96210333" lon="2.84123667">
        <ele>79.0</ele>
        <time>2021-08-21T06:26:02.121Z</time>
      </trkpt>
      <trkpt lat="41.96201167" lon="2.84123333">
        <ele>79.0</ele>
        <time>2021-08-21T06:26:03.110Z</time>
      </trkpt>
      <trkpt lat="41.96201167" lon="2.84123333">
        <ele>79.0</ele>
        <time>2021-08-21T06:26:04.127Z</time>
      </trkpt>
      <trkpt lat="41.96191167" lon="2.84124167">
        <ele>79.0</ele>
        <time>2021-08-21T06:26:05.143Z</time>
      </trkpt>
      <trkpt lat="41.96191167" lon="2.84124167">
        <ele>79.0</ele>
        <time>2021-08-21T06:26:06.122Z</time>
      </trkpt>
      <trkpt lat="41.96178667" lon="2.84124667">
        <ele>79.0</ele>
        <time>2021-08-21T06:26:07.129Z</time>
      </trkpt>
      <trkpt lat="41.96178667" lon="2.84124667">
        <ele>79.0</ele>
        <time>2021-08-21T06:26:08.123Z</time>
      </trkpt>
      <trkpt lat="41.96166333" lon="2.841265">
        <ele>80.0</ele>
        <time>2021-08-21T06:26:09.143Z</time>
      </trkpt>
      <trkpt lat="41.96161167" lon="2.84127833">
        <ele>80.0</ele>
        <time>2021-08-21T06:26:10.130Z</time>
      </trkpt>
      <trkpt lat="41.96161167" lon="2.84127833">
        <ele>80.0</ele>
        <time>2021-08-21T06:26:11.129Z</time>
      </trkpt>
      <trkpt lat="41.96150333" lon="2.84131167">
        <ele>80.0</ele>
        <time>2021-08-21T06:26:12.132Z</time>
      </trkpt>
      <trkpt lat="41.96145" lon="2.84133">
        <ele>80.0</ele>
        <time>2021-08-21T06:26:13.130Z</time>
      </trkpt>
      <trkpt lat="41.96145" lon="2.84133">
        <ele>80.0</ele>
        <time>2021-08-21T06:26:14.123Z</time>
      </trkpt>
      <trkpt lat="41.96134667" lon="2.84136">
        <ele>81.0</ele>
        <time>2021-08-21T06:26:15.145Z</time>
      </trkpt>
      <trkpt lat="41.96134667" lon="2.84136">
        <ele>81.0</ele>
        <time>2021-08-21T06:26:16.121Z</time>
      </trkpt>
      <trkpt lat="41.96125333" lon="2.8414">
        <ele>81.0</ele>
        <time>2021-08-21T06:26:17.127Z</time>
      </trkpt>
      <trkpt lat="41.96121" lon="2.84141667">
        <ele>81.0</ele>
        <time>2021-08-21T06:26:18.132Z</time>
      </trkpt>
      <trkpt lat="41.96117167" lon="2.84143333">
        <ele>81.0</ele>
        <time>2021-08-21T06:26:19.114Z</time>
      </trkpt>
      <trkpt lat="41.96117167" lon="2.84143333">
        <ele>81.0</ele>
        <time>2021-08-21T06:26:20.129Z</time>
      </trkpt>
      <trkpt lat="41.96108667" lon="2.84148">
        <ele>81.0</ele>
        <time>2021-08-21T06:26:21.136Z</time>
      </trkpt>
      <trkpt lat="41.96108667" lon="2.84148">
        <ele>81.0</ele>
        <time>2021-08-21T06:26:22.122Z</time>
      </trkpt>
      <trkpt lat="41.96101167" lon="2.84151833">
        <ele>82.0</ele>
        <time>2021-08-21T06:26:23.145Z</time>
      </trkpt>
      <trkpt lat="41.96097" lon="2.84152833">
        <ele>82.0</ele>
        <time>2021-08-21T06:26:24.127Z</time>
      </trkpt>
      <trkpt lat="41.96093667" lon="2.841535">
        <ele>82.0</ele>
        <time>2021-08-21T06:26:25.110Z</time>
      </trkpt>
      <trkpt lat="41.96093667" lon="2.841535">
        <ele>82.0</ele>
        <time>2021-08-21T06:26:26.125Z</time>
      </trkpt>
      <trkpt lat="41.960885" lon="2.84156333">
        <ele>82.0</ele>
        <time>2021-08-21T06:26:27.117Z</time>
      </trkpt>
      <trkpt lat="41.96085833" lon="2.84158833">
        <ele>82.0</ele>
        <time>2021-08-21T06:26:28.111Z</time>
      </trkpt>
      <trkpt lat="41.96085833" lon="2.84158833">
        <ele>82.0</ele>
        <time>2021-08-21T06:26:29.126Z</time>
      </trkpt>
      <trkpt lat="41.96079" lon="2.84163333">
        <ele>82.0</ele>
        <time>2021-08-21T06:26:30.143Z</time>
      </trkpt>
      <trkpt lat="41.96075333" lon="2.84164333">
        <ele>83.0</ele>
        <time>2021-08-21T06:26:31.130Z</time>
      </trkpt>
      <trkpt lat="41.96075333" lon="2.84164333">
        <ele>83.0</ele>
        <time>2021-08-21T06:26:32.122Z</time>
      </trkpt>
      <trkpt lat="41.96067167" lon="2.841665">
        <ele>83.0</ele>
        <time>2021-08-21T06:26:33.121Z</time>
      </trkpt>
      <trkpt lat="41.96067167" lon="2.841665">
        <ele>83.0</ele>
        <time>2021-08-21T06:26:34.135Z</time>
      </trkpt>
      <trkpt lat="41.960585" lon="2.84168833">
        <ele>83.0</ele>
        <time>2021-08-21T06:26:35.141Z</time>
      </trkpt>
      <trkpt lat="41.96053" lon="2.84169833">
        <ele>83.0</ele>
        <time>2021-08-21T06:26:36.131Z</time>
      </trkpt>
      <trkpt lat="41.96048167" lon="2.84171333">
        <ele>83.0</ele>
        <time>2021-08-21T06:26:37.110Z</time>
      </trkpt>
      <trkpt lat="41.96048167" lon="2.84171333">
        <ele>83.0</ele>
        <time>2021-08-21T06:26:38.125Z</time>
      </trkpt>
      <trkpt lat="41.96039833" lon="2.841735">
        <ele>83.0</ele>
        <time>2021-08-21T06:26:39.141Z</time>
      </trkpt>
      <trkpt lat="41.96039833" lon="2.841735">
        <ele>83.0</ele>
        <time>2021-08-21T06:26:40.122Z</time>
      </trkpt>
      <trkpt lat="41.96032" lon="2.841775">
        <ele>83.0</ele>
        <time>2021-08-21T06:26:41.117Z</time>
      </trkpt>
      <trkpt lat="41.96032" lon="2.841775">
        <ele>83.0</ele>
        <time>2021-08-21T06:26:42.122Z</time>
      </trkpt>
      <trkpt lat="41.96022833" lon="2.8418">
        <ele>84.0</ele>
        <time>2021-08-21T06:26:43.129Z</time>
      </trkpt>
      <trkpt lat="41.96022833" lon="2.8418">
        <ele>84.0</ele>
        <time>2021-08-21T06:26:44.134Z</time>
      </trkpt>
      <trkpt lat="41.96013667" lon="2.84181167">
        <ele>83.0</ele>
        <time>2021-08-21T06:26:45.111Z</time>
      </trkpt>
      <trkpt lat="41.96013667" lon="2.84181167">
        <ele>83.0</ele>
        <time>2021-08-21T06:26:46.117Z</time>
      </trkpt>
      <trkpt lat="41.96005667" lon="2.841815">
        <ele>84.0</ele>
        <time>2021-08-21T06:26:47.129Z</time>
      </trkpt>
      <trkpt lat="41.96002" lon="2.841815">
        <ele>84.0</ele>
        <time>2021-08-21T06:26:48.144Z</time>
      </trkpt>
      <trkpt lat="41.959985" lon="2.84180667">
        <ele>84.0</ele>
        <time>2021-08-21T06:26:49.129Z</time>
      </trkpt>
      <trkpt lat="41.959985" lon="2.84180667">
        <ele>84.0</ele>
        <time>2021-08-21T06:26:50.143Z</time>
      </trkpt>
      <trkpt lat="41.95990333" lon="2.84178333">
        <ele>85.0</ele>
        <time>2021-08-21T06:26:51.118Z</time>
      </trkpt>
      <trkpt lat="41.95990333" lon="2.84178333">
        <ele>85.0</ele>
        <time>2021-08-21T06:26:52.124Z</time>
      </trkpt>
      <trkpt lat="41.95980167" lon="2.84176833">
        <ele>85.0</ele>
        <time>2021-08-21T06:26:53.112Z</time>
      </trkpt>
      <trkpt lat="41.95980167" lon="2.84176833">
        <ele>85.0</ele>
        <time>2021-08-21T06:26:54.127Z</time>
      </trkpt>
      <trkpt lat="41.95972" lon="2.84175">
        <ele>85.0</ele>
        <time>2021-08-21T06:26:55.111Z</time>
      </trkpt>
      <trkpt lat="41.95972" lon="2.84175">
        <ele>85.0</ele>
        <time>2021-08-21T06:26:56.134Z</time>
      </trkpt>
      <trkpt lat="41.95965333" lon="2.84173">
        <ele>86.0</ele>
        <time>2021-08-21T06:26:57.130Z</time>
      </trkpt>
      <trkpt lat="41.95965333" lon="2.84173">
        <ele>86.0</ele>
        <time>2021-08-21T06:26:58.122Z</time>
      </trkpt>
      <trkpt lat="41.95955333" lon="2.84170833">
        <ele>86.0</ele>
        <time>2021-08-21T06:26:59.142Z</time>
      </trkpt>
      <trkpt lat="41.95955333" lon="2.84170833">
        <ele>86.0</ele>
        <time>2021-08-21T06:27:00.139Z</time>
      </trkpt>
      <trkpt lat="41.95944667" lon="2.84166667">
        <ele>87.0</ele>
        <time>2021-08-21T06:27:01.130Z</time>
      </trkpt>
      <trkpt lat="41.95944667" lon="2.84166667">
        <ele>87.0</ele>
        <time>2021-08-21T06:27:02.122Z</time>
      </trkpt>
      <trkpt lat="41.959355" lon="2.84161833">
        <ele>87.0</ele>
        <time>2021-08-21T06:27:03.146Z</time>
      </trkpt>
      <trkpt lat="41.959355" lon="2.84161833">
        <ele>87.0</ele>
        <time>2021-08-21T06:27:04.122Z</time>
      </trkpt>
      <trkpt lat="41.95928667" lon="2.84160667">
        <ele>88.0</ele>
        <time>2021-08-21T06:27:05.144Z</time>
      </trkpt>
      <trkpt lat="41.95928667" lon="2.84160667">
        <ele>88.0</ele>
        <time>2021-08-21T06:27:06.122Z</time>
      </trkpt>
      <trkpt lat="41.959225" lon="2.84165">
        <ele>88.0</ele>
        <time>2021-08-21T06:27:07.109Z</time>
      </trkpt>
      <trkpt lat="41.959225" lon="2.84165">
        <ele>88.0</ele>
        <time>2021-08-21T06:27:08.122Z</time>
      </trkpt>
      <trkpt lat="41.95917333" lon="2.84170833">
        <ele>87.0</ele>
        <time>2021-08-21T06:27:09.110Z</time>
      </trkpt>
      <trkpt lat="41.95917333" lon="2.84170833">
        <ele>87.0</ele>
        <time>2021-08-21T06:27:10.126Z</time>
      </trkpt>
      <trkpt lat="41.95911167" lon="2.84175833">
        <ele>86.0</ele>
        <time>2021-08-21T06:27:11.118Z</time>
      </trkpt>
      <trkpt lat="41.95911167" lon="2.84175833">
        <ele>86.0</ele>
        <time>2021-08-21T06:27:12.132Z</time>
      </trkpt>
      <trkpt lat="41.95906333" lon="2.84183">
        <ele>86.0</ele>
        <time>2021-08-21T06:27:13.130Z</time>
      </trkpt>
      <trkpt lat="41.95906333" lon="2.84183">
        <ele>86.0</ele>
        <time>2021-08-21T06:27:14.122Z</time>
      </trkpt>
      <trkpt lat="41.95904333" lon="2.84191">
        <ele>85.0</ele>
        <time>2021-08-21T06:27:15.112Z</time>
      </trkpt>
      <trkpt lat="41.95904333" lon="2.84191">
        <ele>85.0</ele>
        <time>2021-08-21T06:27:16.127Z</time>
      </trkpt>
      <trkpt lat="41.95901167" lon="2.84199167">
        <ele>86.0</ele>
        <time>2021-08-21T06:27:17.117Z</time>
      </trkpt>
      <trkpt lat="41.95901167" lon="2.84199167">
        <ele>86.0</ele>
        <time>2021-08-21T06:27:18.123Z</time>
      </trkpt>
      <trkpt lat="41.95897167" lon="2.842065">
        <ele>86.0</ele>
        <time>2021-08-21T06:27:19.113Z</time>
      </trkpt>
      <trkpt lat="41.95897167" lon="2.842065">
        <ele>86.0</ele>
        <time>2021-08-21T06:27:20.131Z</time>
      </trkpt>
      <trkpt lat="41.95893667" lon="2.84214167">
        <ele>86.0</ele>
        <time>2021-08-21T06:27:21.137Z</time>
      </trkpt>
      <trkpt lat="41.95893667" lon="2.84214167">
        <ele>86.0</ele>
        <time>2021-08-21T06:27:22.122Z</time>
      </trkpt>
      <trkpt lat="41.95891333" lon="2.84222667">
        <ele>86.0</ele>
        <time>2021-08-21T06:27:23.146Z</time>
      </trkpt>
      <trkpt lat="41.95891333" lon="2.84222667">
        <ele>86.0</ele>
        <time>2021-08-21T06:27:24.132Z</time>
      </trkpt>
      <trkpt lat="41.958875" lon="2.84228333">
        <ele>86.0</ele>
        <time>2021-08-21T06:27:25.131Z</time>
      </trkpt>
      <trkpt lat="41.958875" lon="2.84228333">
        <ele>86.0</ele>
        <time>2021-08-21T06:27:26.123Z</time>
      </trkpt>
      <trkpt lat="41.95885" lon="2.84235">
        <ele>87.0</ele>
        <time>2021-08-21T06:27:27.110Z</time>
      </trkpt>
      <trkpt lat="41.95885" lon="2.84235">
        <ele>87.0</ele>
        <time>2021-08-21T06:27:28.131Z</time>
      </trkpt>
      <trkpt lat="41.95881667" lon="2.84241167">
        <ele>87.0</ele>
        <time>2021-08-21T06:27:29.130Z</time>
      </trkpt>
      <trkpt lat="41.95880167" lon="2.84244167">
        <ele>87.0</ele>
        <time>2021-08-21T06:27:30.128Z</time>
      </trkpt>
      <trkpt lat="41.95880167" lon="2.84244167">
        <ele>87.0</ele>
        <time>2021-08-21T06:27:31.143Z</time>
      </trkpt>
      <trkpt lat="41.95878" lon="2.84252167">
        <ele>87.0</ele>
        <time>2021-08-21T06:27:32.131Z</time>
      </trkpt>
      <trkpt lat="41.95876667" lon="2.842565">
        <ele>87.0</ele>
        <time>2021-08-21T06:27:33.130Z</time>
      </trkpt>
      <trkpt lat="41.95876667" lon="2.842565">
        <ele>87.0</ele>
        <time>2021-08-21T06:27:34.123Z</time>
      </trkpt>
      <trkpt lat="41.95872333" lon="2.84263167">
        <ele>87.0</ele>
        <time>2021-08-21T06:27:35.126Z</time>
      </trkpt>
      <trkpt lat="41.958705" lon="2.84266">
        <ele>87.0</ele>
        <time>2021-08-21T06:27:36.110Z</time>
      </trkpt>
      <trkpt lat="41.958705" lon="2.84266">
        <ele>87.0</ele>
        <time>2021-08-21T06:27:37.125Z</time>
      </trkpt>
      <trkpt lat="41.95868167" lon="2.84270833">
        <ele>87.0</ele>
        <time>2021-08-21T06:27:38.112Z</time>
      </trkpt>
      <trkpt lat="41.95867333" lon="2.84273333">
        <ele>87.0</ele>
        <time>2021-08-21T06:27:39.130Z</time>
      </trkpt>
      <trkpt lat="41.95867333" lon="2.84273333">
        <ele>87.0</ele>
        <time>2021-08-21T06:27:40.123Z</time>
      </trkpt>
      <trkpt lat="41.95865833" lon="2.84277667">
        <ele>88.0</ele>
        <time>2021-08-21T06:27:41.146Z</time>
      </trkpt>
      <trkpt lat="41.95865833" lon="2.84277667">
        <ele>88.0</ele>
        <time>2021-08-21T06:27:42.125Z</time>
      </trkpt>
      <trkpt lat="41.95865167" lon="2.84284667">
        <ele>88.0</ele>
        <time>2021-08-21T06:27:43.141Z</time>
      </trkpt>
      <trkpt lat="41.95864167" lon="2.84288833">
        <ele>88.0</ele>
        <time>2021-08-21T06:27:44.128Z</time>
      </trkpt>
      <trkpt lat="41.95863667" lon="2.842935">
        <ele>88.0</ele>
        <time>2021-08-21T06:27:45.110Z</time>
      </trkpt>
      <trkpt lat="41.95863667" lon="2.842935">
        <ele>88.0</ele>
        <time>2021-08-21T06:27:46.125Z</time>
      </trkpt>
      <trkpt lat="41.95862167" lon="2.84301667">
        <ele>87.0</ele>
        <time>2021-08-21T06:27:47.144Z</time>
      </trkpt>
      <trkpt lat="41.95862167" lon="2.84301667">
        <ele>87.0</ele>
        <time>2021-08-21T06:27:48.131Z</time>
      </trkpt>
      <trkpt lat="41.95862167" lon="2.84309333">
        <ele>87.0</ele>
        <time>2021-08-21T06:27:49.125Z</time>
      </trkpt>
      <trkpt lat="41.95862" lon="2.84312833">
        <ele>87.0</ele>
        <time>2021-08-21T06:27:50.142Z</time>
      </trkpt>
      <trkpt lat="41.95862" lon="2.84312833">
        <ele>87.0</ele>
        <time>2021-08-21T06:27:51.130Z</time>
      </trkpt>
      <trkpt lat="41.95864167" lon="2.84316667">
        <ele>87.0</ele>
        <time>2021-08-21T06:27:52.128Z</time>
      </trkpt>
      <trkpt lat="41.95864167" lon="2.84316667">
        <ele>87.0</ele>
        <time>2021-08-21T06:27:53.143Z</time>
      </trkpt>
      <trkpt lat="41.95866167" lon="2.84319833">
        <ele>87.0</ele>
        <time>2021-08-21T06:27:54.121Z</time>
      </trkpt>
      <trkpt lat="41.95866167" lon="2.84319833">
        <ele>87.0</ele>
        <time>2021-08-21T06:27:55.135Z</time>
      </trkpt>
      <trkpt lat="41.95867" lon="2.843265">
        <ele>87.0</ele>
        <time>2021-08-21T06:27:56.126Z</time>
      </trkpt>
      <trkpt lat="41.95867" lon="2.843265">
        <ele>87.0</ele>
        <time>2021-08-21T06:27:57.141Z</time>
      </trkpt>
      <trkpt lat="41.95866167" lon="2.84335833">
        <ele>86.0</ele>
        <time>2021-08-21T06:27:58.119Z</time>
      </trkpt>
      <trkpt lat="41.958655" lon="2.84341167">
        <ele>86.0</ele>
        <time>2021-08-21T06:27:59.143Z</time>
      </trkpt>
      <trkpt lat="41.958655" lon="2.84341167">
        <ele>86.0</ele>
        <time>2021-08-21T06:28:00.146Z</time>
      </trkpt>
      <trkpt lat="41.95862833" lon="2.84350333">
        <ele>86.0</ele>
        <time>2021-08-21T06:28:01.132Z</time>
      </trkpt>
      <trkpt lat="41.95862833" lon="2.84350333">
        <ele>86.0</ele>
        <time>2021-08-21T06:28:02.123Z</time>
      </trkpt>
      <trkpt lat="41.95861167" lon="2.843595">
        <ele>86.0</ele>
        <time>2021-08-21T06:28:03.147Z</time>
      </trkpt>
      <trkpt lat="41.95861167" lon="2.843595">
        <ele>86.0</ele>
        <time>2021-08-21T06:28:04.127Z</time>
      </trkpt>
      <trkpt lat="41.95859333" lon="2.84367167">
        <ele>86.0</ele>
        <time>2021-08-21T06:28:05.111Z</time>
      </trkpt>
      <trkpt lat="41.95859333" lon="2.84367167">
        <ele>86.0</ele>
        <time>2021-08-21T06:28:06.126Z</time>
      </trkpt>
      <trkpt lat="41.95857833" lon="2.84374667">
        <ele>86.0</ele>
        <time>2021-08-21T06:28:07.113Z</time>
      </trkpt>
      <trkpt lat="41.95857" lon="2.84379167">
        <ele>85.0</ele>
        <time>2021-08-21T06:28:08.120Z</time>
      </trkpt>
      <trkpt lat="41.95857" lon="2.84379167">
        <ele>85.0</ele>
        <time>2021-08-21T06:28:09.135Z</time>
      </trkpt>
      <trkpt lat="41.95853667" lon="2.84387167">
        <ele>86.0</ele>
        <time>2021-08-21T06:28:10.128Z</time>
      </trkpt>
      <trkpt lat="41.958525" lon="2.8439">
        <ele>86.0</ele>
        <time>2021-08-21T06:28:11.143Z</time>
      </trkpt>
      <trkpt lat="41.958525" lon="2.8439">
        <ele>86.0</ele>
        <time>2021-08-21T06:28:12.127Z</time>
      </trkpt>
      <trkpt lat="41.95850333" lon="2.84392667">
        <ele>86.0</ele>
        <time>2021-08-21T06:28:13.111Z</time>
      </trkpt>
      <trkpt lat="41.958505" lon="2.84396167">
        <ele>86.0</ele>
        <time>2021-08-21T06:28:14.129Z</time>
      </trkpt>
      <trkpt lat="41.958505" lon="2.84396167">
        <ele>86.0</ele>
        <time>2021-08-21T06:28:15.143Z</time>
      </trkpt>
      <trkpt lat="41.95849333" lon="2.84403333">
        <ele>86.0</ele>
        <time>2021-08-21T06:28:16.128Z</time>
      </trkpt>
      <trkpt lat="41.95849333" lon="2.84403333">
        <ele>86.0</ele>
        <time>2021-08-21T06:28:17.142Z</time>
      </trkpt>
      <trkpt lat="41.95848167" lon="2.84410167">
        <ele>86.0</ele>
        <time>2021-08-21T06:28:18.140Z</time>
      </trkpt>
      <trkpt lat="41.95848167" lon="2.84413333">
        <ele>86.0</ele>
        <time>2021-08-21T06:28:19.130Z</time>
      </trkpt>
      <trkpt lat="41.95848167" lon="2.84413333">
        <ele>86.0</ele>
        <time>2021-08-21T06:28:20.126Z</time>
      </trkpt>
      <trkpt lat="41.95848333" lon="2.84420167">
        <ele>87.0</ele>
        <time>2021-08-21T06:28:21.118Z</time>
      </trkpt>
      <trkpt lat="41.95849333" lon="2.844235">
        <ele>87.0</ele>
        <time>2021-08-21T06:28:22.147Z</time>
      </trkpt>
      <trkpt lat="41.95849333" lon="2.844235">
        <ele>87.0</ele>
        <time>2021-08-21T06:28:23.130Z</time>
      </trkpt>
      <trkpt lat="41.95849167" lon="2.84428833">
        <ele>88.0</ele>
        <time>2021-08-21T06:28:24.130Z</time>
      </trkpt>
      <trkpt lat="41.95849167" lon="2.84428833">
        <ele>88.0</ele>
        <time>2021-08-21T06:28:25.145Z</time>
      </trkpt>
      <trkpt lat="41.95848" lon="2.84433333">
        <ele>88.0</ele>
        <time>2021-08-21T06:28:26.130Z</time>
      </trkpt>
      <trkpt lat="41.95848" lon="2.84433333">
        <ele>88.0</ele>
        <time>2021-08-21T06:28:27.127Z</time>
      </trkpt>
      <trkpt lat="41.95848" lon="2.84440167">
        <ele>89.0</ele>
        <time>2021-08-21T06:28:28.114Z</time>
      </trkpt>
      <trkpt lat="41.95848" lon="2.84440167">
        <ele>89.0</ele>
        <time>2021-08-21T06:28:29.129Z</time>
      </trkpt>
      <trkpt lat="41.95846833" lon="2.84448167">
        <ele>89.0</ele>
        <time>2021-08-21T06:28:30.110Z</time>
      </trkpt>
      <trkpt lat="41.95846833" lon="2.84448167">
        <ele>89.0</ele>
        <time>2021-08-21T06:28:31.128Z</time>
      </trkpt>
      <trkpt lat="41.95842667" lon="2.84451667">
        <ele>90.0</ele>
        <time>2021-08-21T06:28:32.143Z</time>
      </trkpt>
      <trkpt lat="41.95842667" lon="2.84451667">
        <ele>90.0</ele>
        <time>2021-08-21T06:28:33.125Z</time>
      </trkpt>
      <trkpt lat="41.95837833" lon="2.84452833">
        <ele>90.0</ele>
        <time>2021-08-21T06:28:34.111Z</time>
      </trkpt>
      <trkpt lat="41.95837833" lon="2.84452833">
        <ele>90.0</ele>
        <time>2021-08-21T06:28:35.124Z</time>
      </trkpt>
      <trkpt lat="41.95833333" lon="2.84453">
        <ele>91.0</ele>
        <time>2021-08-21T06:28:36.111Z</time>
      </trkpt>
      <trkpt lat="41.95833333" lon="2.84453">
        <ele>91.0</ele>
        <time>2021-08-21T06:28:37.126Z</time>
      </trkpt>
      <trkpt lat="41.95829333" lon="2.84456">
        <ele>92.0</ele>
        <time>2021-08-21T06:28:38.111Z</time>
      </trkpt>
      <trkpt lat="41.95829333" lon="2.84456">
        <ele>92.0</ele>
        <time>2021-08-21T06:28:39.126Z</time>
      </trkpt>
      <trkpt lat="41.95824667" lon="2.844625">
        <ele>93.0</ele>
        <time>2021-08-21T06:28:40.108Z</time>
      </trkpt>
      <trkpt lat="41.95824667" lon="2.844625">
        <ele>93.0</ele>
        <time>2021-08-21T06:28:41.126Z</time>
      </trkpt>
      <trkpt lat="41.95821333" lon="2.84468667">
        <ele>93.0</ele>
        <time>2021-08-21T06:28:42.145Z</time>
      </trkpt>
      <trkpt lat="41.9582" lon="2.84471333">
        <ele>94.0</ele>
        <time>2021-08-21T06:28:43.131Z</time>
      </trkpt>
      <trkpt lat="41.95819333" lon="2.84475">
        <ele>94.0</ele>
        <time>2021-08-21T06:28:44.134Z</time>
      </trkpt>
      <trkpt lat="41.95819333" lon="2.84475">
        <ele>94.0</ele>
        <time>2021-08-21T06:28:45.124Z</time>
      </trkpt>
      <trkpt lat="41.95816833" lon="2.84485333">
        <ele>94.0</ele>
        <time>2021-08-21T06:28:46.146Z</time>
      </trkpt>
      <trkpt lat="41.95815833" lon="2.844895">
        <ele>94.0</ele>
        <time>2021-08-21T06:28:47.129Z</time>
      </trkpt>
      <trkpt lat="41.95815833" lon="2.844895">
        <ele>94.0</ele>
        <time>2021-08-21T06:28:48.109Z</time>
      </trkpt>
      <trkpt lat="41.95815167" lon="2.84499167">
        <ele>95.0</ele>
        <time>2021-08-21T06:28:49.131Z</time>
      </trkpt>
      <trkpt lat="41.95814667" lon="2.84503667">
        <ele>95.0</ele>
        <time>2021-08-21T06:28:50.129Z</time>
      </trkpt>
      <trkpt lat="41.95814667" lon="2.84503667">
        <ele>95.0</ele>
        <time>2021-08-21T06:28:51.144Z</time>
      </trkpt>
      <trkpt lat="41.95813667" lon="2.84514167">
        <ele>96.0</ele>
        <time>2021-08-21T06:28:52.142Z</time>
      </trkpt>
      <trkpt lat="41.95813667" lon="2.84514167">
        <ele>96.0</ele>
        <time>2021-08-21T06:28:53.127Z</time>
      </trkpt>
      <trkpt lat="41.958125" lon="2.84524667">
        <ele>97.0</ele>
        <time>2021-08-21T06:28:54.147Z</time>
      </trkpt>
      <trkpt lat="41.95812" lon="2.84529667">
        <ele>97.0</ele>
        <time>2021-08-21T06:28:55.131Z</time>
      </trkpt>
      <trkpt lat="41.95812" lon="2.84529667">
        <ele>97.0</ele>
        <time>2021-08-21T06:28:56.124Z</time>
      </trkpt>
      <trkpt lat="41.95811167" lon="2.84539667">
        <ele>98.0</ele>
        <time>2021-08-21T06:28:57.110Z</time>
      </trkpt>
      <trkpt lat="41.95811167" lon="2.84539667">
        <ele>98.0</ele>
        <time>2021-08-21T06:28:58.135Z</time>
      </trkpt>
      <trkpt lat="41.958095" lon="2.84550833">
        <ele>99.0</ele>
        <time>2021-08-21T06:28:59.138Z</time>
      </trkpt>
      <trkpt lat="41.958085" lon="2.845555">
        <ele>99.0</ele>
        <time>2021-08-21T06:29:00.110Z</time>
      </trkpt>
      <trkpt lat="41.958085" lon="2.845555">
        <ele>99.0</ele>
        <time>2021-08-21T06:29:01.137Z</time>
      </trkpt>
      <trkpt lat="41.95806167" lon="2.84564667">
        <ele>100.0</ele>
        <time>2021-08-21T06:29:02.130Z</time>
      </trkpt>
      <trkpt lat="41.95804833" lon="2.84568833">
        <ele>100.0</ele>
        <time>2021-08-21T06:29:03.110Z</time>
      </trkpt>
      <trkpt lat="41.95804833" lon="2.84568833">
        <ele>100.0</ele>
        <time>2021-08-21T06:29:04.126Z</time>
      </trkpt>
      <trkpt lat="41.95803333" lon="2.84578667">
        <ele>101.0</ele>
        <time>2021-08-21T06:29:05.145Z</time>
      </trkpt>
      <trkpt lat="41.95803333" lon="2.84578667">
        <ele>101.0</ele>
        <time>2021-08-21T06:29:06.123Z</time>
      </trkpt>
      <trkpt lat="41.95802167" lon="2.845875">
        <ele>102.0</ele>
        <time>2021-08-21T06:29:07.147Z</time>
      </trkpt>
      <trkpt lat="41.95802167" lon="2.845875">
        <ele>102.0</ele>
        <time>2021-08-21T06:29:08.127Z</time>
      </trkpt>
      <trkpt lat="41.95803167" lon="2.84596333">
        <ele>102.0</ele>
        <time>2021-08-21T06:29:09.127Z</time>
      </trkpt>
      <trkpt lat="41.95803333" lon="2.84600833">
        <ele>103.0</ele>
        <time>2021-08-21T06:29:10.121Z</time>
      </trkpt>
      <trkpt lat="41.95803333" lon="2.84600833">
        <ele>103.0</ele>
        <time>2021-08-21T06:29:11.136Z</time>
      </trkpt>
      <trkpt lat="41.95804" lon="2.84611333">
        <ele>103.0</ele>
        <time>2021-08-21T06:29:12.130Z</time>
      </trkpt>
      <trkpt lat="41.95804" lon="2.84611333">
        <ele>103.0</ele>
        <time>2021-08-21T06:29:13.144Z</time>
      </trkpt>
      <trkpt lat="41.95805" lon="2.84619833">
        <ele>104.0</ele>
        <time>2021-08-21T06:29:14.129Z</time>
      </trkpt>
      <trkpt lat="41.95805" lon="2.84619833">
        <ele>104.0</ele>
        <time>2021-08-21T06:29:15.110Z</time>
      </trkpt>
      <trkpt lat="41.958065" lon="2.84629167">
        <ele>105.0</ele>
        <time>2021-08-21T06:29:16.139Z</time>
      </trkpt>
      <trkpt lat="41.95805833" lon="2.84634">
        <ele>106.0</ele>
        <time>2021-08-21T06:29:17.131Z</time>
      </trkpt>
      <trkpt lat="41.95805833" lon="2.84634">
        <ele>106.0</ele>
        <time>2021-08-21T06:29:18.127Z</time>
      </trkpt>
      <trkpt lat="41.958045" lon="2.84645167">
        <ele>106.0</ele>
        <time>2021-08-21T06:29:19.136Z</time>
      </trkpt>
      <trkpt lat="41.95803833" lon="2.84650667">
        <ele>106.0</ele>
        <time>2021-08-21T06:29:20.132Z</time>
      </trkpt>
      <trkpt lat="41.95803833" lon="2.84650667">
        <ele>106.0</ele>
        <time>2021-08-21T06:29:21.129Z</time>
      </trkpt>
      <trkpt lat="41.95801833" lon="2.84661">
        <ele>107.0</ele>
        <time>2021-08-21T06:29:22.109Z</time>
      </trkpt>
      <trkpt lat="41.95800667" lon="2.84665833">
        <ele>107.0</ele>
        <time>2021-08-21T06:29:23.130Z</time>
      </trkpt>
      <trkpt lat="41.95800667" lon="2.84665833">
        <ele>107.0</ele>
        <time>2021-08-21T06:29:24.127Z</time>
      </trkpt>
      <trkpt lat="41.95799167" lon="2.84674667">
        <ele>108.0</ele>
        <time>2021-08-21T06:29:25.112Z</time>
      </trkpt>
      <trkpt lat="41.95799167" lon="2.84674667">
        <ele>108.0</ele>
        <time>2021-08-21T06:29:26.127Z</time>
      </trkpt>
      <trkpt lat="41.957975" lon="2.84683333">
        <ele>108.0</ele>
        <time>2021-08-21T06:29:27.122Z</time>
      </trkpt>
      <trkpt lat="41.95796333" lon="2.84687">
        <ele>109.0</ele>
        <time>2021-08-21T06:29:28.110Z</time>
      </trkpt>
      <trkpt lat="41.95796333" lon="2.84687">
        <ele>109.0</ele>
        <time>2021-08-21T06:29:29.131Z</time>
      </trkpt>
      <trkpt lat="41.95796167" lon="2.84694333">
        <ele>109.0</ele>
        <time>2021-08-21T06:29:30.131Z</time>
      </trkpt>
      <trkpt lat="41.95796167" lon="2.84694333">
        <ele>109.0</ele>
        <time>2021-08-21T06:29:31.124Z</time>
      </trkpt>
      <trkpt lat="41.95796333" lon="2.84703667">
        <ele>109.0</ele>
        <time>2021-08-21T06:29:32.113Z</time>
      </trkpt>
      <trkpt lat="41.95796333" lon="2.84703667">
        <ele>109.0</ele>
        <time>2021-08-21T06:29:33.128Z</time>
      </trkpt>
      <trkpt lat="41.95796667" lon="2.847125">
        <ele>109.0</ele>
        <time>2021-08-21T06:29:34.111Z</time>
      </trkpt>
      <trkpt lat="41.95796667" lon="2.84717167">
        <ele>109.0</ele>
        <time>2021-08-21T06:29:35.146Z</time>
      </trkpt>
      <trkpt lat="41.95796667" lon="2.84717167">
        <ele>109.0</ele>
        <time>2021-08-21T06:29:36.124Z</time>
      </trkpt>
      <trkpt lat="41.957965" lon="2.84725667">
        <ele>109.0</ele>
        <time>2021-08-21T06:29:37.146Z</time>
      </trkpt>
      <trkpt lat="41.957965" lon="2.84725667">
        <ele>109.0</ele>
        <time>2021-08-21T06:29:38.127Z</time>
      </trkpt>
      <trkpt lat="41.95795167" lon="2.84733833">
        <ele>109.0</ele>
        <time>2021-08-21T06:29:39.134Z</time>
      </trkpt>
      <trkpt lat="41.95795167" lon="2.84733833">
        <ele>109.0</ele>
        <time>2021-08-21T06:29:40.124Z</time>
      </trkpt>
      <trkpt lat="41.95793" lon="2.847405">
        <ele>110.0</ele>
        <time>2021-08-21T06:29:41.118Z</time>
      </trkpt>
      <trkpt lat="41.95792333" lon="2.84744">
        <ele>110.0</ele>
        <time>2021-08-21T06:29:42.133Z</time>
      </trkpt>
      <trkpt lat="41.95792333" lon="2.84744">
        <ele>110.0</ele>
        <time>2021-08-21T06:29:43.147Z</time>
      </trkpt>
      <trkpt lat="41.95787667" lon="2.84749333">
        <ele>110.0</ele>
        <time>2021-08-21T06:29:44.130Z</time>
      </trkpt>
      <trkpt lat="41.95785333" lon="2.84751333">
        <ele>110.0</ele>
        <time>2021-08-21T06:29:45.111Z</time>
      </trkpt>
      <trkpt lat="41.95785333" lon="2.84751333">
        <ele>110.0</ele>
        <time>2021-08-21T06:29:46.126Z</time>
      </trkpt>
      <trkpt lat="41.95780667" lon="2.84754667">
        <ele>110.0</ele>
        <time>2021-08-21T06:29:47.110Z</time>
      </trkpt>
      <trkpt lat="41.95780667" lon="2.84754667">
        <ele>110.0</ele>
        <time>2021-08-21T06:29:48.126Z</time>
      </trkpt>
      <trkpt lat="41.95776167" lon="2.84758333">
        <ele>110.0</ele>
        <time>2021-08-21T06:29:49.119Z</time>
      </trkpt>
      <trkpt lat="41.95776167" lon="2.84758333">
        <ele>110.0</ele>
        <time>2021-08-21T06:29:50.140Z</time>
      </trkpt>
      <trkpt lat="41.95772333" lon="2.84760667">
        <ele>111.0</ele>
        <time>2021-08-21T06:29:51.130Z</time>
      </trkpt>
      <trkpt lat="41.95772333" lon="2.84760667">
        <ele>111.0</ele>
        <time>2021-08-21T06:29:52.144Z</time>
      </trkpt>
      <trkpt lat="41.95768" lon="2.847645">
        <ele>111.0</ele>
        <time>2021-08-21T06:29:53.129Z</time>
      </trkpt>
      <trkpt lat="41.95765667" lon="2.847665">
        <ele>111.0</ele>
        <time>2021-08-21T06:29:54.111Z</time>
      </trkpt>
      <trkpt lat="41.95765667" lon="2.847665">
        <ele>111.0</ele>
        <time>2021-08-21T06:29:55.131Z</time>
      </trkpt>
      <trkpt lat="41.95761667" lon="2.84769833">
        <ele>111.0</ele>
        <time>2021-08-21T06:29:56.129Z</time>
      </trkpt>
      <trkpt lat="41.95761667" lon="2.84769833">
        <ele>111.0</ele>
        <time>2021-08-21T06:29:57.144Z</time>
      </trkpt>
      <trkpt lat="41.95758" lon="2.84774333">
        <ele>112.0</ele>
        <time>2021-08-21T06:29:58.130Z</time>
      </trkpt>
      <trkpt lat="41.95758" lon="2.84774333">
        <ele>112.0</ele>
        <time>2021-08-21T06:29:59.130Z</time>
      </trkpt>
      <trkpt lat="41.957535" lon="2.84779167">
        <ele>112.0</ele>
        <time>2021-08-21T06:30:00.139Z</time>
      </trkpt>
      <trkpt lat="41.95751167" lon="2.847815">
        <ele>112.0</ele>
        <time>2021-08-21T06:30:01.114Z</time>
      </trkpt>
      <trkpt lat="41.95751167" lon="2.847815">
        <ele>112.0</ele>
        <time>2021-08-21T06:30:02.128Z</time>
      </trkpt>
      <trkpt lat="41.95747" lon="2.84786167">
        <ele>113.0</ele>
        <time>2021-08-21T06:30:03.108Z</time>
      </trkpt>
      <trkpt lat="41.95747" lon="2.84786167">
        <ele>113.0</ele>
        <time>2021-08-21T06:30:04.124Z</time>
      </trkpt>
      <trkpt lat="41.95743833" lon="2.84790833">
        <ele>113.0</ele>
        <time>2021-08-21T06:30:05.146Z</time>
      </trkpt>
      <trkpt lat="41.95743833" lon="2.84790833">
        <ele>113.0</ele>
        <time>2021-08-21T06:30:06.136Z</time>
      </trkpt>
      <trkpt lat="41.95740167" lon="2.84795167">
        <ele>114.0</ele>
        <time>2021-08-21T06:30:07.132Z</time>
      </trkpt>
      <trkpt lat="41.95740167" lon="2.84795167">
        <ele>114.0</ele>
        <time>2021-08-21T06:30:08.127Z</time>
      </trkpt>
      <trkpt lat="41.95736333" lon="2.84800167">
        <ele>114.0</ele>
        <time>2021-08-21T06:30:09.114Z</time>
      </trkpt>
      <trkpt lat="41.95736333" lon="2.84800167">
        <ele>114.0</ele>
        <time>2021-08-21T06:30:10.130Z</time>
      </trkpt>
      <trkpt lat="41.95733167" lon="2.84805167">
        <ele>115.0</ele>
        <time>2021-08-21T06:30:11.117Z</time>
      </trkpt>
      <trkpt lat="41.95733167" lon="2.84805167">
        <ele>115.0</ele>
        <time>2021-08-21T06:30:12.132Z</time>
      </trkpt>
      <trkpt lat="41.95728667" lon="2.84810833">
        <ele>115.0</ele>
        <time>2021-08-21T06:30:13.111Z</time>
      </trkpt>
      <trkpt lat="41.95728667" lon="2.84810833">
        <ele>115.0</ele>
        <time>2021-08-21T06:30:14.128Z</time>
      </trkpt>
      <trkpt lat="41.95725167" lon="2.84816333">
        <ele>116.0</ele>
        <time>2021-08-21T06:30:15.109Z</time>
      </trkpt>
      <trkpt lat="41.95725167" lon="2.84816333">
        <ele>116.0</ele>
        <time>2021-08-21T06:30:16.124Z</time>
      </trkpt>
      <trkpt lat="41.95722833" lon="2.848225">
        <ele>116.0</ele>
        <time>2021-08-21T06:30:17.146Z</time>
      </trkpt>
      <trkpt lat="41.95722833" lon="2.848225">
        <ele>116.0</ele>
        <time>2021-08-21T06:30:18.124Z</time>
      </trkpt>
      <trkpt lat="41.95720333" lon="2.848275">
        <ele>116.0</ele>
        <time>2021-08-21T06:30:19.115Z</time>
      </trkpt>
      <trkpt lat="41.95720333" lon="2.848275">
        <ele>116.0</ele>
        <time>2021-08-21T06:30:20.128Z</time>
      </trkpt>
      <trkpt lat="41.957185" lon="2.84832667">
        <ele>117.0</ele>
        <time>2021-08-21T06:30:21.119Z</time>
      </trkpt>
      <trkpt lat="41.957185" lon="2.84832667">
        <ele>117.0</ele>
        <time>2021-08-21T06:30:22.130Z</time>
      </trkpt>
      <trkpt lat="41.95717667" lon="2.84838">
        <ele>117.0</ele>
        <time>2021-08-21T06:30:23.108Z</time>
      </trkpt>
      <trkpt lat="41.95717167" lon="2.84839833">
        <ele>117.0</ele>
        <time>2021-08-21T06:30:24.138Z</time>
      </trkpt>
      <trkpt lat="41.95717333" lon="2.848415">
        <ele>117.0</ele>
        <time>2021-08-21T06:30:25.130Z</time>
      </trkpt>
      <trkpt lat="41.95717333" lon="2.848415">
        <ele>117.0</ele>
        <time>2021-08-21T06:30:26.145Z</time>
      </trkpt>
      <trkpt lat="41.95717333" lon="2.84845">
        <ele>117.0</ele>
        <time>2021-08-21T06:30:27.134Z</time>
      </trkpt>
      <trkpt lat="41.95717333" lon="2.84845">
        <ele>117.0</ele>
        <time>2021-08-21T06:30:28.124Z</time>
      </trkpt>
      <trkpt lat="41.95717333" lon="2.84848333">
        <ele>117.0</ele>
        <time>2021-08-21T06:30:29.119Z</time>
      </trkpt>
      <trkpt lat="41.95717333" lon="2.84848333">
        <ele>117.0</ele>
        <time>2021-08-21T06:30:30.142Z</time>
      </trkpt>
      <trkpt lat="41.95717167" lon="2.84852333">
        <ele>117.0</ele>
        <time>2021-08-21T06:30:31.138Z</time>
      </trkpt>
      <trkpt lat="41.95717167" lon="2.84852333">
        <ele>117.0</ele>
        <time>2021-08-21T06:30:32.124Z</time>
      </trkpt>
      <trkpt lat="41.95716" lon="2.848575">
        <ele>117.0</ele>
        <time>2021-08-21T06:30:33.112Z</time>
      </trkpt>
      <trkpt lat="41.95716" lon="2.848575">
        <ele>117.0</ele>
        <time>2021-08-21T06:30:34.127Z</time>
      </trkpt>
      <trkpt lat="41.95714833" lon="2.84863167">
        <ele>117.0</ele>
        <time>2021-08-21T06:30:35.114Z</time>
      </trkpt>
      <trkpt lat="41.95713667" lon="2.84865333">
        <ele>117.0</ele>
        <time>2021-08-21T06:30:36.140Z</time>
      </trkpt>
      <trkpt lat="41.957125" lon="2.84867333">
        <ele>117.0</ele>
        <time>2021-08-21T06:30:37.132Z</time>
      </trkpt>
      <trkpt lat="41.957125" lon="2.84867333">
        <ele>117.0</ele>
        <time>2021-08-21T06:30:38.125Z</time>
      </trkpt>
      <trkpt lat="41.95711" lon="2.84871667">
        <ele>117.0</ele>
        <time>2021-08-21T06:30:39.130Z</time>
      </trkpt>
      <trkpt lat="41.95711" lon="2.84871667">
        <ele>117.0</ele>
        <time>2021-08-21T06:30:40.140Z</time>
      </trkpt>
      <trkpt lat="41.95709333" lon="2.848765">
        <ele>117.0</ele>
        <time>2021-08-21T06:30:41.143Z</time>
      </trkpt>
      <trkpt lat="41.95708833" lon="2.84879">
        <ele>117.0</ele>
        <time>2021-08-21T06:30:42.130Z</time>
      </trkpt>
      <trkpt lat="41.95708167" lon="2.848815">
        <ele>117.0</ele>
        <time>2021-08-21T06:30:43.111Z</time>
      </trkpt>
      <trkpt lat="41.95708167" lon="2.848815">
        <ele>117.0</ele>
        <time>2021-08-21T06:30:44.128Z</time>
      </trkpt>
      <trkpt lat="41.95706833" lon="2.84886833">
        <ele>117.0</ele>
        <time>2021-08-21T06:30:45.115Z</time>
      </trkpt>
      <trkpt lat="41.95706833" lon="2.84886833">
        <ele>117.0</ele>
        <time>2021-08-21T06:30:46.130Z</time>
      </trkpt>
      <trkpt lat="41.95706833" lon="2.84891833">
        <ele>118.0</ele>
        <time>2021-08-21T06:30:47.111Z</time>
      </trkpt>
      <trkpt lat="41.95706833" lon="2.84891833">
        <ele>118.0</ele>
        <time>2021-08-21T06:30:48.126Z</time>
      </trkpt>
      <trkpt lat="41.95706833" lon="2.84895333">
        <ele>118.0</ele>
        <time>2021-08-21T06:30:49.109Z</time>
      </trkpt>
      <trkpt lat="41.95706833" lon="2.84895333">
        <ele>118.0</ele>
        <time>2021-08-21T06:30:50.133Z</time>
      </trkpt>
      <trkpt lat="41.95706833" lon="2.84899333">
        <ele>118.0</ele>
        <time>2021-08-21T06:30:51.142Z</time>
      </trkpt>
      <trkpt lat="41.95707333" lon="2.84901667">
        <ele>119.0</ele>
        <time>2021-08-21T06:30:52.139Z</time>
      </trkpt>
      <trkpt lat="41.95707333" lon="2.84901667">
        <ele>119.0</ele>
        <time>2021-08-21T06:30:53.125Z</time>
      </trkpt>
      <trkpt lat="41.95707833" lon="2.84906">
        <ele>119.0</ele>
        <time>2021-08-21T06:30:54.111Z</time>
      </trkpt>
      <trkpt lat="41.95708167" lon="2.84908333">
        <ele>119.0</ele>
        <time>2021-08-21T06:30:55.132Z</time>
      </trkpt>
      <trkpt lat="41.95708167" lon="2.84908333">
        <ele>119.0</ele>
        <time>2021-08-21T06:30:56.124Z</time>
      </trkpt>
      <trkpt lat="41.95708167" lon="2.84912667">
        <ele>120.0</ele>
        <time>2021-08-21T06:30:57.113Z</time>
      </trkpt>
      <trkpt lat="41.95708167" lon="2.84912667">
        <ele>120.0</ele>
        <time>2021-08-21T06:30:58.130Z</time>
      </trkpt>
      <trkpt lat="41.95708167" lon="2.84917333">
        <ele>120.0</ele>
        <time>2021-08-21T06:30:59.145Z</time>
      </trkpt>
      <trkpt lat="41.95708167" lon="2.849195">
        <ele>121.0</ele>
        <time>2021-08-21T06:31:00.138Z</time>
      </trkpt>
      <trkpt lat="41.95708167" lon="2.84922167">
        <ele>121.0</ele>
        <time>2021-08-21T06:31:01.139Z</time>
      </trkpt>
      <trkpt lat="41.95707833" lon="2.849245">
        <ele>122.0</ele>
        <time>2021-08-21T06:31:02.133Z</time>
      </trkpt>
      <trkpt lat="41.95707833" lon="2.849245">
        <ele>122.0</ele>
        <time>2021-08-21T06:31:03.126Z</time>
      </trkpt>
      <trkpt lat="41.95707333" lon="2.84929167">
        <ele>122.0</ele>
        <time>2021-08-21T06:31:04.124Z</time>
      </trkpt>
      <trkpt lat="41.95707333" lon="2.84929167">
        <ele>122.0</ele>
        <time>2021-08-21T06:31:05.138Z</time>
      </trkpt>
      <trkpt lat="41.95706333" lon="2.84934333">
        <ele>123.0</ele>
        <time>2021-08-21T06:31:06.131Z</time>
      </trkpt>
      <trkpt lat="41.95706" lon="2.84937">
        <ele>123.0</ele>
        <time>2021-08-21T06:31:07.112Z</time>
      </trkpt>
      <trkpt lat="41.95706" lon="2.84937">
        <ele>123.0</ele>
        <time>2021-08-21T06:31:08.127Z</time>
      </trkpt>
      <trkpt lat="41.95704833" lon="2.849425">
        <ele>123.0</ele>
        <time>2021-08-21T06:31:09.111Z</time>
      </trkpt>
      <trkpt lat="41.95704833" lon="2.849425">
        <ele>123.0</ele>
        <time>2021-08-21T06:31:10.145Z</time>
      </trkpt>
      <trkpt lat="41.957035" lon="2.84947833">
        <ele>124.0</ele>
        <time>2021-08-21T06:31:11.135Z</time>
      </trkpt>
      <trkpt lat="41.957035" lon="2.84947833">
        <ele>124.0</ele>
        <time>2021-08-21T06:31:12.125Z</time>
      </trkpt>
      <trkpt lat="41.957015" lon="2.84951167">
        <ele>124.0</ele>
        <time>2021-08-21T06:31:13.111Z</time>
      </trkpt>
      <trkpt lat="41.957015" lon="2.84951167">
        <ele>124.0</ele>
        <time>2021-08-21T06:31:14.125Z</time>
      </trkpt>
      <trkpt lat="41.95698" lon="2.84958667">
        <ele>124.0</ele>
        <time>2021-08-21T06:31:15.146Z</time>
      </trkpt>
      <trkpt lat="41.95696333" lon="2.84963167">
        <ele>125.0</ele>
        <time>2021-08-21T06:31:16.130Z</time>
      </trkpt>
      <trkpt lat="41.95696333" lon="2.84963167">
        <ele>125.0</ele>
        <time>2021-08-21T06:31:17.145Z</time>
      </trkpt>
      <trkpt lat="41.95694333" lon="2.84972167">
        <ele>125.0</ele>
        <time>2021-08-21T06:31:18.146Z</time>
      </trkpt>
      <trkpt lat="41.95692" lon="2.849765">
        <ele>125.0</ele>
        <time>2021-08-21T06:31:19.133Z</time>
      </trkpt>
      <trkpt lat="41.95692" lon="2.849765">
        <ele>125.0</ele>
        <time>2021-08-21T06:31:20.132Z</time>
      </trkpt>
      <trkpt lat="41.95685167" lon="2.849775">
        <ele>125.0</ele>
        <time>2021-08-21T06:31:21.135Z</time>
      </trkpt>
      <trkpt lat="41.95685167" lon="2.849775">
        <ele>125.0</ele>
        <time>2021-08-21T06:31:22.125Z</time>
      </trkpt>
      <trkpt lat="41.956795" lon="2.84971">
        <ele>126.0</ele>
        <time>2021-08-21T06:31:23.112Z</time>
      </trkpt>
      <trkpt lat="41.956795" lon="2.84971">
        <ele>126.0</ele>
        <time>2021-08-21T06:31:24.127Z</time>
      </trkpt>
      <trkpt lat="41.95675667" lon="2.84964333">
        <ele>126.0</ele>
        <time>2021-08-21T06:31:25.110Z</time>
      </trkpt>
      <trkpt lat="41.95675667" lon="2.84964333">
        <ele>126.0</ele>
        <time>2021-08-21T06:31:26.127Z</time>
      </trkpt>
      <trkpt lat="41.95672333" lon="2.84959833">
        <ele>127.0</ele>
        <time>2021-08-21T06:31:27.110Z</time>
      </trkpt>
      <trkpt lat="41.95672333" lon="2.84959833">
        <ele>127.0</ele>
        <time>2021-08-21T06:31:28.130Z</time>
      </trkpt>
      <trkpt lat="41.956695" lon="2.84955">
        <ele>127.0</ele>
        <time>2021-08-21T06:31:29.113Z</time>
      </trkpt>
      <trkpt lat="41.956695" lon="2.84955">
        <ele>127.0</ele>
        <time>2021-08-21T06:31:30.131Z</time>
      </trkpt>
      <trkpt lat="41.95664333" lon="2.84950167">
        <ele>127.0</ele>
        <time>2021-08-21T06:31:31.119Z</time>
      </trkpt>
      <trkpt lat="41.95664333" lon="2.84950167">
        <ele>127.0</ele>
        <time>2021-08-21T06:31:32.134Z</time>
      </trkpt>
      <trkpt lat="41.956585" lon="2.84948333">
        <ele>128.0</ele>
        <time>2021-08-21T06:31:33.130Z</time>
      </trkpt>
      <trkpt lat="41.956585" lon="2.84948333">
        <ele>128.0</ele>
        <time>2021-08-21T06:31:34.114Z</time>
      </trkpt>
      <trkpt lat="41.95651667" lon="2.84947833">
        <ele>128.0</ele>
        <time>2021-08-21T06:31:35.110Z</time>
      </trkpt>
      <trkpt lat="41.95651667" lon="2.84947833">
        <ele>128.0</ele>
        <time>2021-08-21T06:31:36.125Z</time>
      </trkpt>
      <trkpt lat="41.95646333" lon="2.84948167">
        <ele>129.0</ele>
        <time>2021-08-21T06:31:37.113Z</time>
      </trkpt>
      <trkpt lat="41.95646333" lon="2.84948167">
        <ele>129.0</ele>
        <time>2021-08-21T06:31:38.128Z</time>
      </trkpt>
      <trkpt lat="41.95643333" lon="2.84949833">
        <ele>129.0</ele>
        <time>2021-08-21T06:31:39.113Z</time>
      </trkpt>
      <trkpt lat="41.95643333" lon="2.84949833">
        <ele>129.0</ele>
        <time>2021-08-21T06:31:40.135Z</time>
      </trkpt>
      <trkpt lat="41.95641667" lon="2.84955">
        <ele>130.0</ele>
        <time>2021-08-21T06:31:41.138Z</time>
      </trkpt>
      <trkpt lat="41.95641667" lon="2.84955">
        <ele>130.0</ele>
        <time>2021-08-21T06:31:42.125Z</time>
      </trkpt>
      <trkpt lat="41.95639833" lon="2.849585">
        <ele>130.0</ele>
        <time>2021-08-21T06:31:43.108Z</time>
      </trkpt>
      <trkpt lat="41.95639833" lon="2.849585">
        <ele>130.0</ele>
        <time>2021-08-21T06:31:44.126Z</time>
      </trkpt>
      <trkpt lat="41.95637167" lon="2.84961333">
        <ele>131.0</ele>
        <time>2021-08-21T06:31:45.110Z</time>
      </trkpt>
      <trkpt lat="41.95637167" lon="2.84961333">
        <ele>131.0</ele>
        <time>2021-08-21T06:31:46.127Z</time>
      </trkpt>
      <trkpt lat="41.95633" lon="2.84963167">
        <ele>131.0</ele>
        <time>2021-08-21T06:31:47.111Z</time>
      </trkpt>
      <trkpt lat="41.95633" lon="2.84963167">
        <ele>131.0</ele>
        <time>2021-08-21T06:31:48.130Z</time>
      </trkpt>
      <trkpt lat="41.95629167" lon="2.849645">
        <ele>132.0</ele>
        <time>2021-08-21T06:31:49.113Z</time>
      </trkpt>
      <trkpt lat="41.95629167" lon="2.849645">
        <ele>132.0</ele>
        <time>2021-08-21T06:31:50.131Z</time>
      </trkpt>
      <trkpt lat="41.95624333" lon="2.849655">
        <ele>132.0</ele>
        <time>2021-08-21T06:31:51.122Z</time>
      </trkpt>
      <trkpt lat="41.95624333" lon="2.849655">
        <ele>132.0</ele>
        <time>2021-08-21T06:31:52.147Z</time>
      </trkpt>
      <trkpt lat="41.95620167" lon="2.84966167">
        <ele>133.0</ele>
        <time>2021-08-21T06:31:53.131Z</time>
      </trkpt>
      <trkpt lat="41.95620167" lon="2.84966167">
        <ele>133.0</ele>
        <time>2021-08-21T06:31:54.145Z</time>
      </trkpt>
      <trkpt lat="41.95615667" lon="2.84967167">
        <ele>133.0</ele>
        <time>2021-08-21T06:31:55.132Z</time>
      </trkpt>
      <trkpt lat="41.95615667" lon="2.84967167">
        <ele>133.0</ele>
        <time>2021-08-21T06:31:56.146Z</time>
      </trkpt>
      <trkpt lat="41.95612833" lon="2.84970333">
        <ele>133.0</ele>
        <time>2021-08-21T06:31:57.131Z</time>
      </trkpt>
      <trkpt lat="41.95612833" lon="2.84970333">
        <ele>133.0</ele>
        <time>2021-08-21T06:31:58.130Z</time>
      </trkpt>
      <trkpt lat="41.95609833" lon="2.849725">
        <ele>133.0</ele>
        <time>2021-08-21T06:31:59.111Z</time>
      </trkpt>
      <trkpt lat="41.95609833" lon="2.849725">
        <ele>133.0</ele>
        <time>2021-08-21T06:32:00.137Z</time>
      </trkpt>
      <trkpt lat="41.95605833" lon="2.849725">
        <ele>133.0</ele>
        <time>2021-08-21T06:32:01.120Z</time>
      </trkpt>
      <trkpt lat="41.95605833" lon="2.849725">
        <ele>133.0</ele>
        <time>2021-08-21T06:32:02.131Z</time>
      </trkpt>
      <trkpt lat="41.956" lon="2.84971833">
        <ele>133.0</ele>
        <time>2021-08-21T06:32:03.111Z</time>
      </trkpt>
      <trkpt lat="41.956" lon="2.84971833">
        <ele>133.0</ele>
        <time>2021-08-21T06:32:04.128Z</time>
      </trkpt>
      <trkpt lat="41.95593167" lon="2.84970167">
        <ele>133.0</ele>
        <time>2021-08-21T06:32:05.108Z</time>
      </trkpt>
      <trkpt lat="41.95593167" lon="2.84970167">
        <ele>133.0</ele>
        <time>2021-08-21T06:32:06.126Z</time>
      </trkpt>
      <trkpt lat="41.95587667" lon="2.84965">
        <ele>133.0</ele>
        <time>2021-08-21T06:32:07.116Z</time>
      </trkpt>
      <trkpt lat="41.95587667" lon="2.84965">
        <ele>133.0</ele>
        <time>2021-08-21T06:32:08.131Z</time>
      </trkpt>
      <trkpt lat="41.95581333" lon="2.84963">
        <ele>132.0</ele>
        <time>2021-08-21T06:32:09.136Z</time>
      </trkpt>
      <trkpt lat="41.95581333" lon="2.84963">
        <ele>132.0</ele>
        <time>2021-08-21T06:32:10.131Z</time>
      </trkpt>
      <trkpt lat="41.95574167" lon="2.84961">
        <ele>132.0</ele>
        <time>2021-08-21T06:32:11.143Z</time>
      </trkpt>
      <trkpt lat="41.95574167" lon="2.84961">
        <ele>132.0</ele>
        <time>2021-08-21T06:32:12.126Z</time>
      </trkpt>
      <trkpt lat="41.95564833" lon="2.84954167">
        <ele>131.0</ele>
        <time>2021-08-21T06:32:13.112Z</time>
      </trkpt>
      <trkpt lat="41.95564833" lon="2.84954167">
        <ele>131.0</ele>
        <time>2021-08-21T06:32:14.128Z</time>
      </trkpt>
      <trkpt lat="41.95555" lon="2.84939">
        <ele>131.0</ele>
        <time>2021-08-21T06:32:15.109Z</time>
      </trkpt>
      <trkpt lat="41.95555" lon="2.84939">
        <ele>131.0</ele>
        <time>2021-08-21T06:32:16.131Z</time>
      </trkpt>
      <trkpt lat="41.95541333" lon="2.84921833">
        <ele>130.0</ele>
        <time>2021-08-21T06:32:17.109Z</time>
      </trkpt>
      <trkpt lat="41.95541333" lon="2.84921833">
        <ele>130.0</ele>
        <time>2021-08-21T06:32:18.128Z</time>
      </trkpt>
      <trkpt lat="41.95527167" lon="2.84908">
        <ele>130.0</ele>
        <time>2021-08-21T06:32:19.113Z</time>
      </trkpt>
      <trkpt lat="41.95527167" lon="2.84908">
        <ele>130.0</ele>
        <time>2021-08-21T06:32:20.128Z</time>
      </trkpt>
      <trkpt lat="41.95514167" lon="2.84893">
        <ele>129.0</ele>
        <time>2021-08-21T06:32:21.115Z</time>
      </trkpt>
      <trkpt lat="41.95514167" lon="2.84893">
        <ele>129.0</ele>
        <time>2021-08-21T06:32:22.130Z</time>
      </trkpt>
      <trkpt lat="41.955005" lon="2.84879">
        <ele>129.0</ele>
        <time>2021-08-21T06:32:23.110Z</time>
      </trkpt>
      <trkpt lat="41.955005" lon="2.84879">
        <ele>129.0</ele>
        <time>2021-08-21T06:32:24.125Z</time>
      </trkpt>
      <trkpt lat="41.95487833" lon="2.84866167">
        <ele>128.0</ele>
        <time>2021-08-21T06:32:25.109Z</time>
      </trkpt>
      <trkpt lat="41.95482167" lon="2.84861167">
        <ele>127.0</ele>
        <time>2021-08-21T06:32:26.132Z</time>
      </trkpt>
      <trkpt lat="41.95482167" lon="2.84861167">
        <ele>127.0</ele>
        <time>2021-08-21T06:32:27.147Z</time>
      </trkpt>
      <trkpt lat="41.95471833" lon="2.84853167">
        <ele>125.0</ele>
        <time>2021-08-21T06:32:28.141Z</time>
      </trkpt>
      <trkpt lat="41.95471833" lon="2.84853167">
        <ele>125.0</ele>
        <time>2021-08-21T06:32:29.126Z</time>
      </trkpt>
      <trkpt lat="41.95461" lon="2.84845167">
        <ele>122.0</ele>
        <time>2021-08-21T06:32:30.140Z</time>
      </trkpt>
      <trkpt lat="41.95456667" lon="2.84841667">
        <ele>121.0</ele>
        <time>2021-08-21T06:32:31.144Z</time>
      </trkpt>
      <trkpt lat="41.95456667" lon="2.84841667">
        <ele>121.0</ele>
        <time>2021-08-21T06:32:32.109Z</time>
      </trkpt>
      <trkpt lat="41.95447667" lon="2.84836167">
        <ele>120.0</ele>
        <time>2021-08-21T06:32:33.118Z</time>
      </trkpt>
      <trkpt lat="41.95447667" lon="2.84836167">
        <ele>120.0</ele>
        <time>2021-08-21T06:32:34.123Z</time>
      </trkpt>
      <trkpt lat="41.954395" lon="2.848335">
        <ele>118.0</ele>
        <time>2021-08-21T06:32:35.130Z</time>
      </trkpt>
      <trkpt lat="41.954355" lon="2.84832833">
        <ele>118.0</ele>
        <time>2021-08-21T06:32:36.108Z</time>
      </trkpt>
      <trkpt lat="41.954315" lon="2.84832333">
        <ele>118.0</ele>
        <time>2021-08-21T06:32:37.140Z</time>
      </trkpt>
      <trkpt lat="41.954315" lon="2.84832333">
        <ele>118.0</ele>
        <time>2021-08-21T06:32:38.126Z</time>
      </trkpt>
      <trkpt lat="41.95423333" lon="2.84831333">
        <ele>117.0</ele>
        <time>2021-08-21T06:32:39.127Z</time>
      </trkpt>
      <trkpt lat="41.95423333" lon="2.84831333">
        <ele>117.0</ele>
        <time>2021-08-21T06:32:40.126Z</time>
      </trkpt>
      <trkpt lat="41.954155" lon="2.8483">
        <ele>117.0</ele>
        <time>2021-08-21T06:32:41.120Z</time>
      </trkpt>
      <trkpt lat="41.95411833" lon="2.848295">
        <ele>117.0</ele>
        <time>2021-08-21T06:32:42.131Z</time>
      </trkpt>
      <trkpt lat="41.95408333" lon="2.84829167">
        <ele>116.0</ele>
        <time>2021-08-21T06:32:43.126Z</time>
      </trkpt>
      <trkpt lat="41.95408333" lon="2.84829167">
        <ele>116.0</ele>
        <time>2021-08-21T06:32:44.132Z</time>
      </trkpt>
      <trkpt lat="41.95401667" lon="2.84828167">
        <ele>116.0</ele>
        <time>2021-08-21T06:32:45.108Z</time>
      </trkpt>
      <trkpt lat="41.95401667" lon="2.84828167">
        <ele>116.0</ele>
        <time>2021-08-21T06:32:46.115Z</time>
      </trkpt>
      <trkpt lat="41.95395333" lon="2.84827833">
        <ele>116.0</ele>
        <time>2021-08-21T06:32:47.117Z</time>
      </trkpt>
      <trkpt lat="41.95395333" lon="2.84827833">
        <ele>116.0</ele>
        <time>2021-08-21T06:32:48.110Z</time>
      </trkpt>
      <trkpt lat="41.9539" lon="2.84829">
        <ele>116.0</ele>
        <time>2021-08-21T06:32:49.109Z</time>
      </trkpt>
      <trkpt lat="41.9539" lon="2.84829">
        <ele>116.0</ele>
        <time>2021-08-21T06:32:50.125Z</time>
      </trkpt>
      <trkpt lat="41.953845" lon="2.84831667">
        <ele>116.0</ele>
        <time>2021-08-21T06:32:51.132Z</time>
      </trkpt>
      <trkpt lat="41.953845" lon="2.84831667">
        <ele>116.0</ele>
        <time>2021-08-21T06:32:52.140Z</time>
      </trkpt>
      <trkpt lat="41.95379167" lon="2.84834167">
        <ele>116.0</ele>
        <time>2021-08-21T06:32:53.146Z</time>
      </trkpt>
      <trkpt lat="41.95379167" lon="2.84834167">
        <ele>116.0</ele>
        <time>2021-08-21T06:32:54.111Z</time>
      </trkpt>
      <trkpt lat="41.953745" lon="2.84835333">
        <ele>117.0</ele>
        <time>2021-08-21T06:32:55.138Z</time>
      </trkpt>
      <trkpt lat="41.95371167" lon="2.84834667">
        <ele>117.0</ele>
        <time>2021-08-21T06:32:56.133Z</time>
      </trkpt>
      <trkpt lat="41.95371167" lon="2.84834667">
        <ele>117.0</ele>
        <time>2021-08-21T06:32:57.127Z</time>
      </trkpt>
      <trkpt lat="41.95363667" lon="2.84833167">
        <ele>117.0</ele>
        <time>2021-08-21T06:32:58.116Z</time>
      </trkpt>
      <trkpt lat="41.95359667" lon="2.84832333">
        <ele>117.0</ele>
        <time>2021-08-21T06:32:59.134Z</time>
      </trkpt>
      <trkpt lat="41.95359667" lon="2.84832333">
        <ele>117.0</ele>
        <time>2021-08-21T06:33:00.142Z</time>
      </trkpt>
      <trkpt lat="41.95351" lon="2.84831167">
        <ele>117.0</ele>
        <time>2021-08-21T06:33:01.134Z</time>
      </trkpt>
      <trkpt lat="41.95351" lon="2.84831167">
        <ele>117.0</ele>
        <time>2021-08-21T06:33:02.126Z</time>
      </trkpt>
      <trkpt lat="41.95341333" lon="2.848295">
        <ele>117.0</ele>
        <time>2021-08-21T06:33:03.114Z</time>
      </trkpt>
      <trkpt lat="41.95341333" lon="2.848295">
        <ele>117.0</ele>
        <time>2021-08-21T06:33:04.129Z</time>
      </trkpt>
      <trkpt lat="41.95331" lon="2.84828667">
        <ele>117.0</ele>
        <time>2021-08-21T06:33:05.111Z</time>
      </trkpt>
      <trkpt lat="41.95331" lon="2.84828667">
        <ele>117.0</ele>
        <time>2021-08-21T06:33:06.128Z</time>
      </trkpt>
      <trkpt lat="41.95320167" lon="2.84827833">
        <ele>116.0</ele>
        <time>2021-08-21T06:33:07.114Z</time>
      </trkpt>
      <trkpt lat="41.95320167" lon="2.84827833">
        <ele>116.0</ele>
        <time>2021-08-21T06:33:08.130Z</time>
      </trkpt>
      <trkpt lat="41.953095" lon="2.84827">
        <ele>116.0</ele>
        <time>2021-08-21T06:33:09.110Z</time>
      </trkpt>
      <trkpt lat="41.953095" lon="2.84827">
        <ele>116.0</ele>
        <time>2021-08-21T06:33:10.126Z</time>
      </trkpt>
      <trkpt lat="41.95299333" lon="2.84825333">
        <ele>116.0</ele>
        <time>2021-08-21T06:33:11.123Z</time>
      </trkpt>
      <trkpt lat="41.95299333" lon="2.84825333">
        <ele>116.0</ele>
        <time>2021-08-21T06:33:12.135Z</time>
      </trkpt>
      <trkpt lat="41.95288833" lon="2.84822833">
        <ele>116.0</ele>
        <time>2021-08-21T06:33:13.134Z</time>
      </trkpt>
      <trkpt lat="41.95288833" lon="2.84822833">
        <ele>116.0</ele>
        <time>2021-08-21T06:33:14.126Z</time>
      </trkpt>
      <trkpt lat="41.952785" lon="2.848185">
        <ele>115.0</ele>
        <time>2021-08-21T06:33:15.142Z</time>
      </trkpt>
      <trkpt lat="41.952785" lon="2.848185">
        <ele>115.0</ele>
        <time>2021-08-21T06:33:16.126Z</time>
      </trkpt>
      <trkpt lat="41.95268" lon="2.84814167">
        <ele>115.0</ele>
        <time>2021-08-21T06:33:17.109Z</time>
      </trkpt>
      <trkpt lat="41.95268" lon="2.84814167">
        <ele>115.0</ele>
        <time>2021-08-21T06:33:18.126Z</time>
      </trkpt>
      <trkpt lat="41.95256833" lon="2.84809167">
        <ele>115.0</ele>
        <time>2021-08-21T06:33:19.108Z</time>
      </trkpt>
      <trkpt lat="41.95256833" lon="2.84809167">
        <ele>115.0</ele>
        <time>2021-08-21T06:33:20.127Z</time>
      </trkpt>
      <trkpt lat="41.952465" lon="2.84803167">
        <ele>115.0</ele>
        <time>2021-08-21T06:33:21.114Z</time>
      </trkpt>
      <trkpt lat="41.952465" lon="2.84803167">
        <ele>115.0</ele>
        <time>2021-08-21T06:33:22.130Z</time>
      </trkpt>
      <trkpt lat="41.95236667" lon="2.84798">
        <ele>115.0</ele>
        <time>2021-08-21T06:33:23.111Z</time>
      </trkpt>
      <trkpt lat="41.95236667" lon="2.84798">
        <ele>115.0</ele>
        <time>2021-08-21T06:33:24.128Z</time>
      </trkpt>
      <trkpt lat="41.95227167" lon="2.84793167">
        <ele>114.0</ele>
        <time>2021-08-21T06:33:25.113Z</time>
      </trkpt>
      <trkpt lat="41.95227167" lon="2.84793167">
        <ele>114.0</ele>
        <time>2021-08-21T06:33:26.128Z</time>
      </trkpt>
      <trkpt lat="41.95217833" lon="2.84787">
        <ele>114.0</ele>
        <time>2021-08-21T06:33:27.110Z</time>
      </trkpt>
      <trkpt lat="41.95217833" lon="2.84787">
        <ele>114.0</ele>
        <time>2021-08-21T06:33:28.126Z</time>
      </trkpt>
      <trkpt lat="41.95209167" lon="2.84780667">
        <ele>113.0</ele>
        <time>2021-08-21T06:33:29.108Z</time>
      </trkpt>
      <trkpt lat="41.95204833" lon="2.847775">
        <ele>113.0</ele>
        <time>2021-08-21T06:33:30.132Z</time>
      </trkpt>
      <trkpt lat="41.95204833" lon="2.847775">
        <ele>113.0</ele>
        <time>2021-08-21T06:33:31.147Z</time>
      </trkpt>
      <trkpt lat="41.95195833" lon="2.84770167">
        <ele>112.0</ele>
        <time>2021-08-21T06:33:32.132Z</time>
      </trkpt>
      <trkpt lat="41.95195833" lon="2.84770167">
        <ele>112.0</ele>
        <time>2021-08-21T06:33:33.146Z</time>
      </trkpt>
      <trkpt lat="41.95186" lon="2.8476">
        <ele>111.0</ele>
        <time>2021-08-21T06:33:34.112Z</time>
      </trkpt>
      <trkpt lat="41.95186" lon="2.8476">
        <ele>111.0</ele>
        <time>2021-08-21T06:33:35.141Z</time>
      </trkpt>
      <trkpt lat="41.95175667" lon="2.84748333">
        <ele>110.0</ele>
        <time>2021-08-21T06:33:36.132Z</time>
      </trkpt>
      <trkpt lat="41.95171" lon="2.84742167">
        <ele>110.0</ele>
        <time>2021-08-21T06:33:37.132Z</time>
      </trkpt>
      <trkpt lat="41.95171" lon="2.84742167">
        <ele>110.0</ele>
        <time>2021-08-21T06:33:38.147Z</time>
      </trkpt>
      <trkpt lat="41.95160333" lon="2.84730667">
        <ele>109.0</ele>
        <time>2021-08-21T06:33:39.141Z</time>
      </trkpt>
      <trkpt lat="41.95160333" lon="2.84730667">
        <ele>109.0</ele>
        <time>2021-08-21T06:33:40.127Z</time>
      </trkpt>
      <trkpt lat="41.95150667" lon="2.84719167">
        <ele>108.0</ele>
        <time>2021-08-21T06:33:41.133Z</time>
      </trkpt>
      <trkpt lat="41.95150667" lon="2.84719167">
        <ele>108.0</ele>
        <time>2021-08-21T06:33:42.130Z</time>
      </trkpt>
      <trkpt lat="41.95142167" lon="2.84705667">
        <ele>108.0</ele>
        <time>2021-08-21T06:33:43.111Z</time>
      </trkpt>
      <trkpt lat="41.95142167" lon="2.84705667">
        <ele>108.0</ele>
        <time>2021-08-21T06:33:44.127Z</time>
      </trkpt>
      <trkpt lat="41.95131" lon="2.84695667">
        <ele>108.0</ele>
        <time>2021-08-21T06:33:45.111Z</time>
      </trkpt>
      <trkpt lat="41.95131" lon="2.84695667">
        <ele>108.0</ele>
        <time>2021-08-21T06:33:46.127Z</time>
      </trkpt>
      <trkpt lat="41.95120167" lon="2.846875">
        <ele>107.0</ele>
        <time>2021-08-21T06:33:47.113Z</time>
      </trkpt>
      <trkpt lat="41.95120167" lon="2.846875">
        <ele>107.0</ele>
        <time>2021-08-21T06:33:48.129Z</time>
      </trkpt>
      <trkpt lat="41.95110167" lon="2.84682667">
        <ele>106.0</ele>
        <time>2021-08-21T06:33:49.114Z</time>
      </trkpt>
      <trkpt lat="41.95110167" lon="2.84682667">
        <ele>106.0</ele>
        <time>2021-08-21T06:33:50.129Z</time>
      </trkpt>
      <trkpt lat="41.95103167" lon="2.84681333">
        <ele>106.0</ele>
        <time>2021-08-21T06:33:51.123Z</time>
      </trkpt>
      <trkpt lat="41.95103167" lon="2.84681333">
        <ele>106.0</ele>
        <time>2021-08-21T06:33:52.108Z</time>
      </trkpt>
      <trkpt lat="41.95099667" lon="2.846805">
        <ele>106.0</ele>
        <time>2021-08-21T06:33:53.132Z</time>
      </trkpt>
      <trkpt lat="41.95099667" lon="2.846805">
        <ele>106.0</ele>
        <time>2021-08-21T06:33:54.147Z</time>
      </trkpt>
      <trkpt lat="41.95094" lon="2.846805">
        <ele>105.0</ele>
        <time>2021-08-21T06:33:55.134Z</time>
      </trkpt>
      <trkpt lat="41.95094" lon="2.846805">
        <ele>105.0</ele>
        <time>2021-08-21T06:33:56.127Z</time>
      </trkpt>
      <trkpt lat="41.95087833" lon="2.846825">
        <ele>105.0</ele>
        <time>2021-08-21T06:33:57.114Z</time>
      </trkpt>
      <trkpt lat="41.95087833" lon="2.846825">
        <ele>105.0</ele>
        <time>2021-08-21T06:33:58.129Z</time>
      </trkpt>
      <trkpt lat="41.95082333" lon="2.846835">
        <ele>105.0</ele>
        <time>2021-08-21T06:33:59.113Z</time>
      </trkpt>
      <trkpt lat="41.95082333" lon="2.846835">
        <ele>105.0</ele>
        <time>2021-08-21T06:34:00.142Z</time>
      </trkpt>
      <trkpt lat="41.950785" lon="2.84683833">
        <ele>105.0</ele>
        <time>2021-08-21T06:34:01.135Z</time>
      </trkpt>
      <trkpt lat="41.950785" lon="2.84683833">
        <ele>105.0</ele>
        <time>2021-08-21T06:34:02.111Z</time>
      </trkpt>
      <trkpt lat="41.95076333" lon="2.84682833">
        <ele>105.0</ele>
        <time>2021-08-21T06:34:03.133Z</time>
      </trkpt>
      <trkpt lat="41.95076333" lon="2.84682833">
        <ele>105.0</ele>
        <time>2021-08-21T06:34:04.110Z</time>
      </trkpt>
      <trkpt lat="41.95072333" lon="2.84684833">
        <ele>104.0</ele>
        <time>2021-08-21T06:34:05.132Z</time>
      </trkpt>
      <trkpt lat="41.95072333" lon="2.84684833">
        <ele>104.0</ele>
        <time>2021-08-21T06:34:06.147Z</time>
      </trkpt>
      <trkpt lat="41.95066667" lon="2.84687667">
        <ele>104.0</ele>
        <time>2021-08-21T06:34:07.134Z</time>
      </trkpt>
      <trkpt lat="41.95066667" lon="2.84687667">
        <ele>104.0</ele>
        <time>2021-08-21T06:34:08.127Z</time>
      </trkpt>
      <trkpt lat="41.9506" lon="2.84690667">
        <ele>104.0</ele>
        <time>2021-08-21T06:34:09.110Z</time>
      </trkpt>
      <trkpt lat="41.95056667" lon="2.84691667">
        <ele>103.0</ele>
        <time>2021-08-21T06:34:10.145Z</time>
      </trkpt>
      <trkpt lat="41.95056667" lon="2.84691667">
        <ele>103.0</ele>
        <time>2021-08-21T06:34:11.126Z</time>
      </trkpt>
      <trkpt lat="41.95051" lon="2.84692167">
        <ele>103.0</ele>
        <time>2021-08-21T06:34:12.111Z</time>
      </trkpt>
      <trkpt lat="41.95048167" lon="2.84690333">
        <ele>103.0</ele>
        <time>2021-08-21T06:34:13.134Z</time>
      </trkpt>
      <trkpt lat="41.95048167" lon="2.84690333">
        <ele>103.0</ele>
        <time>2021-08-21T06:34:14.127Z</time>
      </trkpt>
      <trkpt lat="41.95046833" lon="2.84681333">
        <ele>103.0</ele>
        <time>2021-08-21T06:34:15.147Z</time>
      </trkpt>
      <trkpt lat="41.95046833" lon="2.84681333">
        <ele>103.0</ele>
        <time>2021-08-21T06:34:16.127Z</time>
      </trkpt>
      <trkpt lat="41.95047" lon="2.84671333">
        <ele>103.0</ele>
        <time>2021-08-21T06:34:17.108Z</time>
      </trkpt>
      <trkpt lat="41.95047" lon="2.84671333">
        <ele>103.0</ele>
        <time>2021-08-21T06:34:18.127Z</time>
      </trkpt>
      <trkpt lat="41.95049" lon="2.846605">
        <ele>103.0</ele>
        <time>2021-08-21T06:34:19.115Z</time>
      </trkpt>
      <trkpt lat="41.95049" lon="2.846605">
        <ele>103.0</ele>
        <time>2021-08-21T06:34:20.131Z</time>
      </trkpt>
      <trkpt lat="41.95052833" lon="2.84647667">
        <ele>102.0</ele>
        <time>2021-08-21T06:34:21.125Z</time>
      </trkpt>
      <trkpt lat="41.95052833" lon="2.84647667">
        <ele>102.0</ele>
        <time>2021-08-21T06:34:22.138Z</time>
      </trkpt>
      <trkpt lat="41.95054" lon="2.84635333">
        <ele>102.0</ele>
        <time>2021-08-21T06:34:23.126Z</time>
      </trkpt>
      <trkpt lat="41.95054" lon="2.84635333">
        <ele>102.0</ele>
        <time>2021-08-21T06:34:24.142Z</time>
      </trkpt>
      <trkpt lat="41.95050667" lon="2.84624833">
        <ele>102.0</ele>
        <time>2021-08-21T06:34:25.139Z</time>
      </trkpt>
      <trkpt lat="41.95050667" lon="2.84624833">
        <ele>102.0</ele>
        <time>2021-08-21T06:34:26.127Z</time>
      </trkpt>
      <trkpt lat="41.95047167" lon="2.84613833">
        <ele>102.0</ele>
        <time>2021-08-21T06:34:27.114Z</time>
      </trkpt>
      <trkpt lat="41.95047167" lon="2.84613833">
        <ele>102.0</ele>
        <time>2021-08-21T06:34:28.108Z</time>
      </trkpt>
      <trkpt lat="41.95043667" lon="2.84601833">
        <ele>102.0</ele>
        <time>2021-08-21T06:34:29.134Z</time>
      </trkpt>
      <trkpt lat="41.95043667" lon="2.84601833">
        <ele>102.0</ele>
        <time>2021-08-21T06:34:30.127Z</time>
      </trkpt>
      <trkpt lat="41.95040167" lon="2.84587667">
        <ele>102.0</ele>
        <time>2021-08-21T06:34:31.115Z</time>
      </trkpt>
      <trkpt lat="41.95040167" lon="2.84587667">
        <ele>102.0</ele>
        <time>2021-08-21T06:34:32.131Z</time>
      </trkpt>
      <trkpt lat="41.95038167" lon="2.84575833">
        <ele>102.0</ele>
        <time>2021-08-21T06:34:33.112Z</time>
      </trkpt>
      <trkpt lat="41.95038167" lon="2.84575833">
        <ele>102.0</ele>
        <time>2021-08-21T06:34:34.129Z</time>
      </trkpt>
      <trkpt lat="41.95036" lon="2.84567333">
        <ele>101.0</ele>
        <time>2021-08-21T06:34:35.132Z</time>
      </trkpt>
      <trkpt lat="41.95034667" lon="2.845645">
        <ele>101.0</ele>
        <time>2021-08-21T06:34:36.114Z</time>
      </trkpt>
      <trkpt lat="41.950325" lon="2.845625">
        <ele>101.0</ele>
        <time>2021-08-21T06:34:37.137Z</time>
      </trkpt>
      <trkpt lat="41.950325" lon="2.845625">
        <ele>101.0</ele>
        <time>2021-08-21T06:34:38.127Z</time>
      </trkpt>
      <trkpt lat="41.95025167" lon="2.845605">
        <ele>101.0</ele>
        <time>2021-08-21T06:34:39.112Z</time>
      </trkpt>
      <trkpt lat="41.95025167" lon="2.845605">
        <ele>101.0</ele>
        <time>2021-08-21T06:34:40.127Z</time>
      </trkpt>
      <trkpt lat="41.95019" lon="2.845625">
        <ele>100.0</ele>
        <time>2021-08-21T06:34:41.119Z</time>
      </trkpt>
      <trkpt lat="41.95019" lon="2.845625">
        <ele>100.0</ele>
        <time>2021-08-21T06:34:42.134Z</time>
      </trkpt>
      <trkpt lat="41.950125" lon="2.84564333">
        <ele>100.0</ele>
        <time>2021-08-21T06:34:43.116Z</time>
      </trkpt>
      <trkpt lat="41.950125" lon="2.84564333">
        <ele>100.0</ele>
        <time>2021-08-21T06:34:44.132Z</time>
      </trkpt>
      <trkpt lat="41.95008167" lon="2.84564667">
        <ele>100.0</ele>
        <time>2021-08-21T06:34:45.113Z</time>
      </trkpt>
      <trkpt lat="41.95008167" lon="2.84564667">
        <ele>100.0</ele>
        <time>2021-08-21T06:34:46.129Z</time>
      </trkpt>
      <trkpt lat="41.95004" lon="2.84565">
        <ele>100.0</ele>
        <time>2021-08-21T06:34:47.112Z</time>
      </trkpt>
      <trkpt lat="41.95004" lon="2.84565">
        <ele>100.0</ele>
        <time>2021-08-21T06:34:48.127Z</time>
      </trkpt>
      <trkpt lat="41.94999333" lon="2.84564667">
        <ele>99.0</ele>
        <time>2021-08-21T06:34:49.111Z</time>
      </trkpt>
      <trkpt lat="41.94999333" lon="2.84564667">
        <ele>99.0</ele>
        <time>2021-08-21T06:34:50.127Z</time>
      </trkpt>
      <trkpt lat="41.94991667" lon="2.84564667">
        <ele>99.0</ele>
        <time>2021-08-21T06:34:51.119Z</time>
      </trkpt>
      <trkpt lat="41.94991667" lon="2.84564667">
        <ele>99.0</ele>
        <time>2021-08-21T06:34:52.134Z</time>
      </trkpt>
      <trkpt lat="41.94982167" lon="2.84563667">
        <ele>99.0</ele>
        <time>2021-08-21T06:34:53.121Z</time>
      </trkpt>
      <trkpt lat="41.94982167" lon="2.84563667">
        <ele>99.0</ele>
        <time>2021-08-21T06:34:54.140Z</time>
      </trkpt>
      <trkpt lat="41.94973333" lon="2.84563167">
        <ele>99.0</ele>
        <time>2021-08-21T06:34:55.139Z</time>
      </trkpt>
      <trkpt lat="41.9497" lon="2.84562167">
        <ele>99.0</ele>
        <time>2021-08-21T06:34:56.144Z</time>
      </trkpt>
      <trkpt lat="41.9497" lon="2.84562167">
        <ele>99.0</ele>
        <time>2021-08-21T06:34:57.127Z</time>
      </trkpt>
      <trkpt lat="41.94964667" lon="2.84563667">
        <ele>99.0</ele>
        <time>2021-08-21T06:34:58.112Z</time>
      </trkpt>
      <trkpt lat="41.94964667" lon="2.84563667">
        <ele>99.0</ele>
        <time>2021-08-21T06:34:59.127Z</time>
      </trkpt>
      <trkpt lat="41.9496" lon="2.84565833">
        <ele>99.0</ele>
        <time>2021-08-21T06:35:00.110Z</time>
      </trkpt>
      <trkpt lat="41.94958" lon="2.84566667">
        <ele>99.0</ele>
        <time>2021-08-21T06:35:01.137Z</time>
      </trkpt>
      <trkpt lat="41.94958" lon="2.84566667">
        <ele>99.0</ele>
        <time>2021-08-21T06:35:02.141Z</time>
      </trkpt>
      <trkpt lat="41.94953333" lon="2.84567667">
        <ele>100.0</ele>
        <time>2021-08-21T06:35:03.136Z</time>
      </trkpt>
      <trkpt lat="41.94953333" lon="2.84567667">
        <ele>100.0</ele>
        <time>2021-08-21T06:35:04.128Z</time>
      </trkpt>
      <trkpt lat="41.94948167" lon="2.845685">
        <ele>100.0</ele>
        <time>2021-08-21T06:35:05.113Z</time>
      </trkpt>
      <trkpt lat="41.94948167" lon="2.845685">
        <ele>100.0</ele>
        <time>2021-08-21T06:35:06.130Z</time>
      </trkpt>
      <trkpt lat="41.94943833" lon="2.845705">
        <ele>101.0</ele>
        <time>2021-08-21T06:35:07.120Z</time>
      </trkpt>
      <trkpt lat="41.94943833" lon="2.845705">
        <ele>101.0</ele>
        <time>2021-08-21T06:35:08.136Z</time>
      </trkpt>
      <trkpt lat="41.94939833" lon="2.845745">
        <ele>101.0</ele>
        <time>2021-08-21T06:35:09.135Z</time>
      </trkpt>
      <trkpt lat="41.94939833" lon="2.845745">
        <ele>101.0</ele>
        <time>2021-08-21T06:35:10.127Z</time>
      </trkpt>
      <trkpt lat="41.94936167" lon="2.84579167">
        <ele>102.0</ele>
        <time>2021-08-21T06:35:11.122Z</time>
      </trkpt>
      <trkpt lat="41.94936167" lon="2.84579167">
        <ele>102.0</ele>
        <time>2021-08-21T06:35:12.134Z</time>
      </trkpt>
      <trkpt lat="41.94931667" lon="2.84585">
        <ele>102.0</ele>
        <time>2021-08-21T06:35:13.113Z</time>
      </trkpt>
      <trkpt lat="41.94931667" lon="2.84585">
        <ele>102.0</ele>
        <time>2021-08-21T06:35:14.130Z</time>
      </trkpt>
      <trkpt lat="41.949265" lon="2.84591333">
        <ele>103.0</ele>
        <time>2021-08-21T06:35:15.147Z</time>
      </trkpt>
      <trkpt lat="41.949265" lon="2.84591333">
        <ele>103.0</ele>
        <time>2021-08-21T06:35:16.127Z</time>
      </trkpt>
      <trkpt lat="41.94919" lon="2.84595167">
        <ele>103.0</ele>
        <time>2021-08-21T06:35:17.113Z</time>
      </trkpt>
      <trkpt lat="41.94919" lon="2.84595167">
        <ele>103.0</ele>
        <time>2021-08-21T06:35:18.130Z</time>
      </trkpt>
      <trkpt lat="41.949105" lon="2.84593833">
        <ele>103.0</ele>
        <time>2021-08-21T06:35:19.114Z</time>
      </trkpt>
      <trkpt lat="41.949105" lon="2.84593833">
        <ele>103.0</ele>
        <time>2021-08-21T06:35:20.130Z</time>
      </trkpt>
      <trkpt lat="41.94903333" lon="2.84588833">
        <ele>103.0</ele>
        <time>2021-08-21T06:35:21.115Z</time>
      </trkpt>
      <trkpt lat="41.94903333" lon="2.84588833">
        <ele>103.0</ele>
        <time>2021-08-21T06:35:22.130Z</time>
      </trkpt>
      <trkpt lat="41.948965" lon="2.84583667">
        <ele>103.0</ele>
        <time>2021-08-21T06:35:23.111Z</time>
      </trkpt>
      <trkpt lat="41.948965" lon="2.84583667">
        <ele>103.0</ele>
        <time>2021-08-21T06:35:24.127Z</time>
      </trkpt>
      <trkpt lat="41.94890833" lon="2.84577333">
        <ele>103.0</ele>
        <time>2021-08-21T06:35:25.121Z</time>
      </trkpt>
      <trkpt lat="41.94890833" lon="2.84577333">
        <ele>103.0</ele>
        <time>2021-08-21T06:35:26.135Z</time>
      </trkpt>
      <trkpt lat="41.94885" lon="2.845705">
        <ele>103.0</ele>
        <time>2021-08-21T06:35:27.134Z</time>
      </trkpt>
      <trkpt lat="41.94885" lon="2.845705">
        <ele>103.0</ele>
        <time>2021-08-21T06:35:28.109Z</time>
      </trkpt>
      <trkpt lat="41.94878167" lon="2.84565167">
        <ele>103.0</ele>
        <time>2021-08-21T06:35:29.135Z</time>
      </trkpt>
      <trkpt lat="41.94878167" lon="2.84565167">
        <ele>103.0</ele>
        <time>2021-08-21T06:35:30.128Z</time>
      </trkpt>
      <trkpt lat="41.94871333" lon="2.84561333">
        <ele>103.0</ele>
        <time>2021-08-21T06:35:31.115Z</time>
      </trkpt>
      <trkpt lat="41.94871333" lon="2.84561333">
        <ele>103.0</ele>
        <time>2021-08-21T06:35:32.131Z</time>
      </trkpt>
      <trkpt lat="41.948655" lon="2.84560333">
        <ele>103.0</ele>
        <time>2021-08-21T06:35:33.135Z</time>
      </trkpt>
      <trkpt lat="41.94862333" lon="2.84559667">
        <ele>103.0</ele>
        <time>2021-08-21T06:35:34.136Z</time>
      </trkpt>
      <trkpt lat="41.94862333" lon="2.84559667">
        <ele>103.0</ele>
        <time>2021-08-21T06:35:35.132Z</time>
      </trkpt>
      <trkpt lat="41.94854667" lon="2.845595">
        <ele>103.0</ele>
        <time>2021-08-21T06:35:36.120Z</time>
      </trkpt>
      <trkpt lat="41.948515" lon="2.84560667">
        <ele>103.0</ele>
        <time>2021-08-21T06:35:37.136Z</time>
      </trkpt>
      <trkpt lat="41.948515" lon="2.84560667">
        <ele>103.0</ele>
        <time>2021-08-21T06:35:38.128Z</time>
      </trkpt>
      <trkpt lat="41.94845333" lon="2.84562333">
        <ele>104.0</ele>
        <time>2021-08-21T06:35:39.111Z</time>
      </trkpt>
      <trkpt lat="41.94842667" lon="2.84562667">
        <ele>104.0</ele>
        <time>2021-08-21T06:35:40.134Z</time>
      </trkpt>
      <trkpt lat="41.94839833" lon="2.84562833">
        <ele>104.0</ele>
        <time>2021-08-21T06:35:41.119Z</time>
      </trkpt>
      <trkpt lat="41.94839833" lon="2.84562833">
        <ele>104.0</ele>
        <time>2021-08-21T06:35:42.134Z</time>
      </trkpt>
      <trkpt lat="41.94833" lon="2.84563167">
        <ele>105.0</ele>
        <time>2021-08-21T06:35:43.114Z</time>
      </trkpt>
      <trkpt lat="41.94833" lon="2.84563167">
        <ele>105.0</ele>
        <time>2021-08-21T06:35:44.131Z</time>
      </trkpt>
      <trkpt lat="41.94825667" lon="2.84563667">
        <ele>105.0</ele>
        <time>2021-08-21T06:35:45.113Z</time>
      </trkpt>
      <trkpt lat="41.94825667" lon="2.84563667">
        <ele>105.0</ele>
        <time>2021-08-21T06:35:46.110Z</time>
      </trkpt>
      <trkpt lat="41.94818333" lon="2.845655">
        <ele>105.0</ele>
        <time>2021-08-21T06:35:47.136Z</time>
      </trkpt>
      <trkpt lat="41.94818333" lon="2.845655">
        <ele>105.0</ele>
        <time>2021-08-21T06:35:48.128Z</time>
      </trkpt>
      <trkpt lat="41.948125" lon="2.84565667">
        <ele>106.0</ele>
        <time>2021-08-21T06:35:49.116Z</time>
      </trkpt>
      <trkpt lat="41.94812" lon="2.84566">
        <ele>106.0</ele>
        <time>2021-08-21T06:35:50.135Z</time>
      </trkpt>
      <trkpt lat="41.94812" lon="2.84566">
        <ele>106.0</ele>
        <time>2021-08-21T06:35:51.128Z</time>
      </trkpt>
      <trkpt lat="41.94811833" lon="2.84565">
        <ele>105.0</ele>
        <time>2021-08-21T06:35:52.119Z</time>
      </trkpt>
      <trkpt lat="41.94811833" lon="2.84565">
        <ele>105.0</ele>
        <time>2021-08-21T06:35:53.134Z</time>
      </trkpt>
      <trkpt lat="41.94811667" lon="2.84564667">
        <ele>105.0</ele>
        <time>2021-08-21T06:35:54.124Z</time>
      </trkpt>
      <trkpt lat="41.94802167" lon="2.84563167">
        <ele>104.0</ele>
        <time>2021-08-21T06:35:55.114Z</time>
      </trkpt>
      <trkpt lat="41.94802167" lon="2.84563167">
        <ele>104.0</ele>
        <time>2021-08-21T06:35:56.129Z</time>
      </trkpt>
      <trkpt lat="41.94793833" lon="2.84562833">
        <ele>104.0</ele>
        <time>2021-08-21T06:35:57.118Z</time>
      </trkpt>
      <trkpt lat="41.94789833" lon="2.84562667">
        <ele>104.0</ele>
        <time>2021-08-21T06:35:58.140Z</time>
      </trkpt>
      <trkpt lat="41.94789833" lon="2.84562667">
        <ele>104.0</ele>
        <time>2021-08-21T06:35:59.144Z</time>
      </trkpt>
      <trkpt lat="41.94781333" lon="2.84561333">
        <ele>104.0</ele>
        <time>2021-08-21T06:36:00.110Z</time>
      </trkpt>
      <trkpt lat="41.94781333" lon="2.84561333">
        <ele>104.0</ele>
        <time>2021-08-21T06:36:01.115Z</time>
      </trkpt>
      <trkpt lat="41.947725" lon="2.845615">
        <ele>104.0</ele>
        <time>2021-08-21T06:36:02.141Z</time>
      </trkpt>
      <trkpt lat="41.947725" lon="2.845615">
        <ele>104.0</ele>
        <time>2021-08-21T06:36:03.115Z</time>
      </trkpt>
      <trkpt lat="41.94763167" lon="2.845625">
        <ele>104.0</ele>
        <time>2021-08-21T06:36:04.142Z</time>
      </trkpt>
      <trkpt lat="41.94763167" lon="2.845625">
        <ele>104.0</ele>
        <time>2021-08-21T06:36:05.119Z</time>
      </trkpt>
      <trkpt lat="41.947515" lon="2.845635">
        <ele>104.0</ele>
        <time>2021-08-21T06:36:06.143Z</time>
      </trkpt>
      <trkpt lat="41.947515" lon="2.845635">
        <ele>104.0</ele>
        <time>2021-08-21T06:36:07.108Z</time>
      </trkpt>
      <trkpt lat="41.94739833" lon="2.84561667">
        <ele>104.0</ele>
        <time>2021-08-21T06:36:08.129Z</time>
      </trkpt>
      <trkpt lat="41.94734333" lon="2.845595">
        <ele>104.0</ele>
        <time>2021-08-21T06:36:09.119Z</time>
      </trkpt>
      <trkpt lat="41.94729" lon="2.845575">
        <ele>104.0</ele>
        <time>2021-08-21T06:36:10.143Z</time>
      </trkpt>
      <trkpt lat="41.94729" lon="2.845575">
        <ele>104.0</ele>
        <time>2021-08-21T06:36:11.108Z</time>
      </trkpt>
      <trkpt lat="41.94718167" lon="2.84555">
        <ele>104.0</ele>
        <time>2021-08-21T06:36:12.131Z</time>
      </trkpt>
      <trkpt lat="41.94718167" lon="2.84555">
        <ele>104.0</ele>
        <time>2021-08-21T06:36:13.136Z</time>
      </trkpt>
      <trkpt lat="41.94708333" lon="2.84556">
        <ele>105.0</ele>
        <time>2021-08-21T06:36:14.120Z</time>
      </trkpt>
      <trkpt lat="41.94708333" lon="2.84556">
        <ele>105.0</ele>
        <time>2021-08-21T06:36:15.129Z</time>
      </trkpt>
      <trkpt lat="41.94699167" lon="2.84558833">
        <ele>105.0</ele>
        <time>2021-08-21T06:36:16.140Z</time>
      </trkpt>
      <trkpt lat="41.94699167" lon="2.84558833">
        <ele>105.0</ele>
        <time>2021-08-21T06:36:17.145Z</time>
      </trkpt>
      <trkpt lat="41.94688833" lon="2.84561333">
        <ele>105.0</ele>
        <time>2021-08-21T06:36:18.126Z</time>
      </trkpt>
      <trkpt lat="41.94688833" lon="2.84561333">
        <ele>105.0</ele>
        <time>2021-08-21T06:36:19.130Z</time>
      </trkpt>
      <trkpt lat="41.94678167" lon="2.84562833">
        <ele>105.0</ele>
        <time>2021-08-21T06:36:20.125Z</time>
      </trkpt>
      <trkpt lat="41.94678167" lon="2.84562833">
        <ele>105.0</ele>
        <time>2021-08-21T06:36:21.130Z</time>
      </trkpt>
      <trkpt lat="41.94666833" lon="2.84565167">
        <ele>104.0</ele>
        <time>2021-08-21T06:36:22.144Z</time>
      </trkpt>
      <trkpt lat="41.94666833" lon="2.84565167">
        <ele>104.0</ele>
        <time>2021-08-21T06:36:23.109Z</time>
      </trkpt>
      <trkpt lat="41.946555" lon="2.84567667">
        <ele>104.0</ele>
        <time>2021-08-21T06:36:24.129Z</time>
      </trkpt>
      <trkpt lat="41.946555" lon="2.84567667">
        <ele>104.0</ele>
        <time>2021-08-21T06:36:25.141Z</time>
      </trkpt>
      <trkpt lat="41.94643667" lon="2.84569333">
        <ele>103.0</ele>
        <time>2021-08-21T06:36:26.120Z</time>
      </trkpt>
      <trkpt lat="41.94643667" lon="2.84569333">
        <ele>103.0</ele>
        <time>2021-08-21T06:36:27.125Z</time>
      </trkpt>
      <trkpt lat="41.94630667" lon="2.84572333">
        <ele>102.0</ele>
        <time>2021-08-21T06:36:28.141Z</time>
      </trkpt>
      <trkpt lat="41.94630667" lon="2.84572333">
        <ele>102.0</ele>
        <time>2021-08-21T06:36:29.146Z</time>
      </trkpt>
      <trkpt lat="41.94618333" lon="2.84575167">
        <ele>100.0</ele>
        <time>2021-08-21T06:36:30.125Z</time>
      </trkpt>
      <trkpt lat="41.94618333" lon="2.84575167">
        <ele>100.0</ele>
        <time>2021-08-21T06:36:31.130Z</time>
      </trkpt>
      <trkpt lat="41.94607167" lon="2.84574333">
        <ele>99.0</ele>
        <time>2021-08-21T06:36:32.149Z</time>
      </trkpt>
      <trkpt lat="41.94607167" lon="2.84574333">
        <ele>99.0</ele>
        <time>2021-08-21T06:36:33.117Z</time>
      </trkpt>
      <trkpt lat="41.94600167" lon="2.845675">
        <ele>98.0</ele>
        <time>2021-08-21T06:36:34.144Z</time>
      </trkpt>
      <trkpt lat="41.94600167" lon="2.845675">
        <ele>98.0</ele>
        <time>2021-08-21T06:36:35.119Z</time>
      </trkpt>
      <trkpt lat="41.94597833" lon="2.84559833">
        <ele>98.0</ele>
        <time>2021-08-21T06:36:36.138Z</time>
      </trkpt>
      <trkpt lat="41.94597833" lon="2.84559833">
        <ele>98.0</ele>
        <time>2021-08-21T06:36:37.142Z</time>
      </trkpt>
      <trkpt lat="41.94599" lon="2.84553167">
        <ele>97.0</ele>
        <time>2021-08-21T06:36:38.139Z</time>
      </trkpt>
      <trkpt lat="41.94599" lon="2.84553167">
        <ele>97.0</ele>
        <time>2021-08-21T06:36:39.147Z</time>
      </trkpt>
      <trkpt lat="41.94601" lon="2.84548167">
        <ele>97.0</ele>
        <time>2021-08-21T06:36:40.121Z</time>
      </trkpt>
      <trkpt lat="41.94601" lon="2.84548167">
        <ele>97.0</ele>
        <time>2021-08-21T06:36:41.127Z</time>
      </trkpt>
      <trkpt lat="41.94601167" lon="2.84546167">
        <ele>96.0</ele>
        <time>2021-08-21T06:36:42.142Z</time>
      </trkpt>
      <trkpt lat="41.946005" lon="2.84546333">
        <ele>96.0</ele>
        <time>2021-08-21T06:36:43.148Z</time>
      </trkpt>
      <trkpt lat="41.946005" lon="2.84546333">
        <ele>96.0</ele>
        <time>2021-08-21T06:36:44.113Z</time>
      </trkpt>
      <trkpt lat="41.94599167" lon="2.84550167">
        <ele>95.0</ele>
        <time>2021-08-21T06:36:45.118Z</time>
      </trkpt>
      <trkpt lat="41.94599" lon="2.845525">
        <ele>95.0</ele>
        <time>2021-08-21T06:36:46.123Z</time>
      </trkpt>
      <trkpt lat="41.94599" lon="2.845525">
        <ele>95.0</ele>
        <time>2021-08-21T06:36:47.108Z</time>
      </trkpt>
      <trkpt lat="41.945965" lon="2.84559">
        <ele>95.0</ele>
        <time>2021-08-21T06:36:48.127Z</time>
      </trkpt>
      <trkpt lat="41.945965" lon="2.84559">
        <ele>95.0</ele>
        <time>2021-08-21T06:36:49.108Z</time>
      </trkpt>
      <trkpt lat="41.94592333" lon="2.84565833">
        <ele>94.0</ele>
        <time>2021-08-21T06:36:50.144Z</time>
      </trkpt>
      <trkpt lat="41.94592333" lon="2.84565833">
        <ele>94.0</ele>
        <time>2021-08-21T06:36:51.108Z</time>
      </trkpt>
      <trkpt lat="41.94590667" lon="2.84573167">
        <ele>94.0</ele>
        <time>2021-08-21T06:36:52.139Z</time>
      </trkpt>
      <trkpt lat="41.94590667" lon="2.84573167">
        <ele>94.0</ele>
        <time>2021-08-21T06:36:53.115Z</time>
      </trkpt>
      <trkpt lat="41.94589833" lon="2.845825">
        <ele>93.0</ele>
        <time>2021-08-21T06:36:54.117Z</time>
      </trkpt>
      <trkpt lat="41.94589833" lon="2.845825">
        <ele>93.0</ele>
        <time>2021-08-21T06:36:55.131Z</time>
      </trkpt>
      <trkpt lat="41.94588" lon="2.84589833">
        <ele>93.0</ele>
        <time>2021-08-21T06:36:56.124Z</time>
      </trkpt>
      <trkpt lat="41.94588" lon="2.84589833">
        <ele>93.0</ele>
        <time>2021-08-21T06:36:57.129Z</time>
      </trkpt>
      <trkpt lat="41.945855" lon="2.84593333">
        <ele>93.0</ele>
        <time>2021-08-21T06:36:58.142Z</time>
      </trkpt>
      <trkpt lat="41.945855" lon="2.84593333">
        <ele>93.0</ele>
        <time>2021-08-21T06:36:59.120Z</time>
      </trkpt>
      <trkpt lat="41.945825" lon="2.84589333">
        <ele>94.0</ele>
        <time>2021-08-21T06:37:00.125Z</time>
      </trkpt>
      <trkpt lat="41.945825" lon="2.84589333">
        <ele>94.0</ele>
        <time>2021-08-21T06:37:01.133Z</time>
      </trkpt>
      <trkpt lat="41.945785" lon="2.84584667">
        <ele>95.0</ele>
        <time>2021-08-21T06:37:02.116Z</time>
      </trkpt>
      <trkpt lat="41.945785" lon="2.84584667">
        <ele>95.0</ele>
        <time>2021-08-21T06:37:03.109Z</time>
      </trkpt>
      <trkpt lat="41.94574333" lon="2.84579167">
        <ele>95.0</ele>
        <time>2021-08-21T06:37:04.133Z</time>
      </trkpt>
      <trkpt lat="41.94574333" lon="2.84579167">
        <ele>95.0</ele>
        <time>2021-08-21T06:37:05.111Z</time>
      </trkpt>
      <trkpt lat="41.94572" lon="2.84573333">
        <ele>96.0</ele>
        <time>2021-08-21T06:37:06.131Z</time>
      </trkpt>
      <trkpt lat="41.94572" lon="2.84573333">
        <ele>96.0</ele>
        <time>2021-08-21T06:37:07.109Z</time>
      </trkpt>
      <trkpt lat="41.945695" lon="2.84567833">
        <ele>97.0</ele>
        <time>2021-08-21T06:37:08.139Z</time>
      </trkpt>
      <trkpt lat="41.945695" lon="2.84567833">
        <ele>97.0</ele>
        <time>2021-08-21T06:37:09.112Z</time>
      </trkpt>
      <trkpt lat="41.94566" lon="2.845605">
        <ele>98.0</ele>
        <time>2021-08-21T06:37:10.146Z</time>
      </trkpt>
      <trkpt lat="41.94566" lon="2.845605">
        <ele>98.0</ele>
        <time>2021-08-21T06:37:11.113Z</time>
      </trkpt>
      <trkpt lat="41.94562833" lon="2.845535">
        <ele>98.0</ele>
        <time>2021-08-21T06:37:12.118Z</time>
      </trkpt>
      <trkpt lat="41.94562833" lon="2.845535">
        <ele>98.0</ele>
        <time>2021-08-21T06:37:13.124Z</time>
      </trkpt>
      <trkpt lat="41.945595" lon="2.84546167">
        <ele>99.0</ele>
        <time>2021-08-21T06:37:14.114Z</time>
      </trkpt>
      <trkpt lat="41.94557833" lon="2.84542667">
        <ele>100.0</ele>
        <time>2021-08-21T06:37:15.133Z</time>
      </trkpt>
      <trkpt lat="41.94557833" lon="2.84542667">
        <ele>100.0</ele>
        <time>2021-08-21T06:37:16.111Z</time>
      </trkpt>
      <trkpt lat="41.94554167" lon="2.84535667">
        <ele>100.0</ele>
        <time>2021-08-21T06:37:17.133Z</time>
      </trkpt>
      <trkpt lat="41.94554167" lon="2.84535667">
        <ele>100.0</ele>
        <time>2021-08-21T06:37:18.108Z</time>
      </trkpt>
      <trkpt lat="41.94551167" lon="2.84529167">
        <ele>101.0</ele>
        <time>2021-08-21T06:37:19.136Z</time>
      </trkpt>
      <trkpt lat="41.94551167" lon="2.84529167">
        <ele>101.0</ele>
        <time>2021-08-21T06:37:20.142Z</time>
      </trkpt>
      <trkpt lat="41.94547833" lon="2.84524333">
        <ele>102.0</ele>
        <time>2021-08-21T06:37:21.123Z</time>
      </trkpt>
      <trkpt lat="41.94547" lon="2.84521833">
        <ele>103.0</ele>
        <time>2021-08-21T06:37:22.119Z</time>
      </trkpt>
      <trkpt lat="41.94547" lon="2.84521833">
        <ele>103.0</ele>
        <time>2021-08-21T06:37:23.123Z</time>
      </trkpt>
      <trkpt lat="41.94544833" lon="2.84517667">
        <ele>104.0</ele>
        <time>2021-08-21T06:37:24.142Z</time>
      </trkpt>
      <trkpt lat="41.94544833" lon="2.84517667">
        <ele>104.0</ele>
        <time>2021-08-21T06:37:25.147Z</time>
      </trkpt>
      <trkpt lat="41.94541167" lon="2.845155">
        <ele>104.0</ele>
        <time>2021-08-21T06:37:26.119Z</time>
      </trkpt>
      <trkpt lat="41.94541167" lon="2.845155">
        <ele>104.0</ele>
        <time>2021-08-21T06:37:27.144Z</time>
      </trkpt>
      <trkpt lat="41.94538" lon="2.84510167">
        <ele>105.0</ele>
        <time>2021-08-21T06:37:28.128Z</time>
      </trkpt>
      <trkpt lat="41.94538" lon="2.84510167">
        <ele>105.0</ele>
        <time>2021-08-21T06:37:29.133Z</time>
      </trkpt>
      <trkpt lat="41.94534667" lon="2.845045">
        <ele>107.0</ele>
        <time>2021-08-21T06:37:30.117Z</time>
      </trkpt>
      <trkpt lat="41.94534667" lon="2.845045">
        <ele>107.0</ele>
        <time>2021-08-21T06:37:31.122Z</time>
      </trkpt>
      <trkpt lat="41.94530333" lon="2.84502667">
        <ele>107.0</ele>
        <time>2021-08-21T06:37:32.136Z</time>
      </trkpt>
      <trkpt lat="41.94530333" lon="2.84502667">
        <ele>107.0</ele>
        <time>2021-08-21T06:37:33.141Z</time>
      </trkpt>
      <trkpt lat="41.94525167" lon="2.84503167">
        <ele>108.0</ele>
        <time>2021-08-21T06:37:34.116Z</time>
      </trkpt>
      <trkpt lat="41.94525167" lon="2.84503167">
        <ele>108.0</ele>
        <time>2021-08-21T06:37:35.130Z</time>
      </trkpt>
      <trkpt lat="41.94520167" lon="2.845055">
        <ele>108.0</ele>
        <time>2021-08-21T06:37:36.109Z</time>
      </trkpt>
      <trkpt lat="41.94520167" lon="2.845055">
        <ele>108.0</ele>
        <time>2021-08-21T06:37:37.114Z</time>
      </trkpt>
      <trkpt lat="41.94515" lon="2.84508167">
        <ele>109.0</ele>
        <time>2021-08-21T06:37:38.137Z</time>
      </trkpt>
      <trkpt lat="41.94515" lon="2.84508167">
        <ele>109.0</ele>
        <time>2021-08-21T06:37:39.142Z</time>
      </trkpt>
      <trkpt lat="41.9451" lon="2.84511">
        <ele>109.0</ele>
        <time>2021-08-21T06:37:40.121Z</time>
      </trkpt>
      <trkpt lat="41.9451" lon="2.84511">
        <ele>109.0</ele>
        <time>2021-08-21T06:37:41.129Z</time>
      </trkpt>
      <trkpt lat="41.94505167" lon="2.84513333">
        <ele>109.0</ele>
        <time>2021-08-21T06:37:42.141Z</time>
      </trkpt>
      <trkpt lat="41.94505167" lon="2.84513333">
        <ele>109.0</ele>
        <time>2021-08-21T06:37:43.148Z</time>
      </trkpt>
      <trkpt lat="41.94500167" lon="2.84516333">
        <ele>109.0</ele>
        <time>2021-08-21T06:37:44.136Z</time>
      </trkpt>
      <trkpt lat="41.94500167" lon="2.84516333">
        <ele>109.0</ele>
        <time>2021-08-21T06:37:45.141Z</time>
      </trkpt>
      <trkpt lat="41.94494667" lon="2.84519833">
        <ele>109.0</ele>
        <time>2021-08-21T06:37:46.147Z</time>
      </trkpt>
      <trkpt lat="41.94491333" lon="2.84521833">
        <ele>109.0</ele>
        <time>2021-08-21T06:37:47.127Z</time>
      </trkpt>
      <trkpt lat="41.94491333" lon="2.84521833">
        <ele>109.0</ele>
        <time>2021-08-21T06:37:48.132Z</time>
      </trkpt>
      <trkpt lat="41.94484667" lon="2.84526167">
        <ele>109.0</ele>
        <time>2021-08-21T06:37:49.142Z</time>
      </trkpt>
      <trkpt lat="41.94484667" lon="2.84526167">
        <ele>109.0</ele>
        <time>2021-08-21T06:37:50.147Z</time>
      </trkpt>
      <trkpt lat="41.94478" lon="2.8453">
        <ele>109.0</ele>
        <time>2021-08-21T06:37:51.127Z</time>
      </trkpt>
      <trkpt lat="41.94474667" lon="2.84532">
        <ele>108.0</ele>
        <time>2021-08-21T06:37:52.138Z</time>
      </trkpt>
      <trkpt lat="41.94474667" lon="2.84532">
        <ele>108.0</ele>
        <time>2021-08-21T06:37:53.144Z</time>
      </trkpt>
      <trkpt lat="41.944675" lon="2.84536333">
        <ele>108.0</ele>
        <time>2021-08-21T06:37:54.125Z</time>
      </trkpt>
      <trkpt lat="41.944675" lon="2.84536333">
        <ele>108.0</ele>
        <time>2021-08-21T06:37:55.132Z</time>
      </trkpt>
      <trkpt lat="41.94460333" lon="2.84541833">
        <ele>108.0</ele>
        <time>2021-08-21T06:37:56.118Z</time>
      </trkpt>
      <trkpt lat="41.94460333" lon="2.84541833">
        <ele>108.0</ele>
        <time>2021-08-21T06:37:57.123Z</time>
      </trkpt>
      <trkpt lat="41.94452833" lon="2.84546667">
        <ele>108.0</ele>
        <time>2021-08-21T06:37:58.134Z</time>
      </trkpt>
      <trkpt lat="41.94452833" lon="2.84546667">
        <ele>108.0</ele>
        <time>2021-08-21T06:37:59.144Z</time>
      </trkpt>
      <trkpt lat="41.94445833" lon="2.84549">
        <ele>109.0</ele>
        <time>2021-08-21T06:38:00.126Z</time>
      </trkpt>
      <trkpt lat="41.94445833" lon="2.84549">
        <ele>109.0</ele>
        <time>2021-08-21T06:38:01.139Z</time>
      </trkpt>
      <trkpt lat="41.94439333" lon="2.84547">
        <ele>109.0</ele>
        <time>2021-08-21T06:38:02.125Z</time>
      </trkpt>
      <trkpt lat="41.94439333" lon="2.84547">
        <ele>109.0</ele>
        <time>2021-08-21T06:38:03.130Z</time>
      </trkpt>
      <trkpt lat="41.944335" lon="2.84540333">
        <ele>110.0</ele>
        <time>2021-08-21T06:38:04.147Z</time>
      </trkpt>
      <trkpt lat="41.944335" lon="2.84540333">
        <ele>110.0</ele>
        <time>2021-08-21T06:38:05.111Z</time>
      </trkpt>
      <trkpt lat="41.94429167" lon="2.84532833">
        <ele>110.0</ele>
        <time>2021-08-21T06:38:06.133Z</time>
      </trkpt>
      <trkpt lat="41.94429167" lon="2.84532833">
        <ele>110.0</ele>
        <time>2021-08-21T06:38:07.139Z</time>
      </trkpt>
      <trkpt lat="41.94422667" lon="2.84528">
        <ele>111.0</ele>
        <time>2021-08-21T06:38:08.113Z</time>
      </trkpt>
      <trkpt lat="41.94422667" lon="2.84528">
        <ele>111.0</ele>
        <time>2021-08-21T06:38:09.118Z</time>
      </trkpt>
      <trkpt lat="41.94415667" lon="2.845255">
        <ele>111.0</ele>
        <time>2021-08-21T06:38:10.130Z</time>
      </trkpt>
      <trkpt lat="41.94415667" lon="2.845255">
        <ele>111.0</ele>
        <time>2021-08-21T06:38:11.135Z</time>
      </trkpt>
      <trkpt lat="41.944075" lon="2.84525833">
        <ele>112.0</ele>
        <time>2021-08-21T06:38:12.119Z</time>
      </trkpt>
      <trkpt lat="41.944075" lon="2.84525833">
        <ele>112.0</ele>
        <time>2021-08-21T06:38:13.124Z</time>
      </trkpt>
      <trkpt lat="41.94400167" lon="2.84526667">
        <ele>113.0</ele>
        <time>2021-08-21T06:38:14.128Z</time>
      </trkpt>
      <trkpt lat="41.94400167" lon="2.84526667">
        <ele>113.0</ele>
        <time>2021-08-21T06:38:15.144Z</time>
      </trkpt>
      <trkpt lat="41.94393833" lon="2.845265">
        <ele>113.0</ele>
        <time>2021-08-21T06:38:16.128Z</time>
      </trkpt>
      <trkpt lat="41.94393833" lon="2.845265">
        <ele>113.0</ele>
        <time>2021-08-21T06:38:17.117Z</time>
      </trkpt>
      <trkpt lat="41.943875" lon="2.84526">
        <ele>114.0</ele>
        <time>2021-08-21T06:38:18.129Z</time>
      </trkpt>
      <trkpt lat="41.943875" lon="2.84526">
        <ele>114.0</ele>
        <time>2021-08-21T06:38:19.135Z</time>
      </trkpt>
      <trkpt lat="41.94380833" lon="2.84524667">
        <ele>114.0</ele>
        <time>2021-08-21T06:38:20.136Z</time>
      </trkpt>
      <trkpt lat="41.94380833" lon="2.84524667">
        <ele>114.0</ele>
        <time>2021-08-21T06:38:21.141Z</time>
      </trkpt>
      <trkpt lat="41.94374833" lon="2.84522833">
        <ele>115.0</ele>
        <time>2021-08-21T06:38:22.130Z</time>
      </trkpt>
      <trkpt lat="41.94374833" lon="2.84522833">
        <ele>115.0</ele>
        <time>2021-08-21T06:38:23.135Z</time>
      </trkpt>
      <trkpt lat="41.943685" lon="2.84519833">
        <ele>116.0</ele>
        <time>2021-08-21T06:38:24.122Z</time>
      </trkpt>
      <trkpt lat="41.943685" lon="2.84519833">
        <ele>116.0</ele>
        <time>2021-08-21T06:38:25.127Z</time>
      </trkpt>
      <trkpt lat="41.94363833" lon="2.84514833">
        <ele>116.0</ele>
        <time>2021-08-21T06:38:26.116Z</time>
      </trkpt>
      <trkpt lat="41.94363833" lon="2.84514833">
        <ele>116.0</ele>
        <time>2021-08-21T06:38:27.120Z</time>
      </trkpt>
      <trkpt lat="41.94360667" lon="2.84508833">
        <ele>117.0</ele>
        <time>2021-08-21T06:38:28.129Z</time>
      </trkpt>
      <trkpt lat="41.94360667" lon="2.84508833">
        <ele>117.0</ele>
        <time>2021-08-21T06:38:29.142Z</time>
      </trkpt>
      <trkpt lat="41.94358" lon="2.84502">
        <ele>118.0</ele>
        <time>2021-08-21T06:38:30.138Z</time>
      </trkpt>
      <trkpt lat="41.94358" lon="2.84502">
        <ele>118.0</ele>
        <time>2021-08-21T06:38:31.128Z</time>
      </trkpt>
      <trkpt lat="41.94354" lon="2.844965">
        <ele>119.0</ele>
        <time>2021-08-21T06:38:32.142Z</time>
      </trkpt>
      <trkpt lat="41.94354" lon="2.844965">
        <ele>119.0</ele>
        <time>2021-08-21T06:38:33.146Z</time>
      </trkpt>
      <trkpt lat="41.94350167" lon="2.84492667">
        <ele>120.0</ele>
        <time>2021-08-21T06:38:34.137Z</time>
      </trkpt>
      <trkpt lat="41.94350167" lon="2.84492667">
        <ele>120.0</ele>
        <time>2021-08-21T06:38:35.111Z</time>
      </trkpt>
      <trkpt lat="41.94346833" lon="2.8449">
        <ele>121.0</ele>
        <time>2021-08-21T06:38:36.128Z</time>
      </trkpt>
      <trkpt lat="41.94346833" lon="2.8449">
        <ele>121.0</ele>
        <time>2021-08-21T06:38:37.133Z</time>
      </trkpt>
      <trkpt lat="41.9434" lon="2.84485333">
        <ele>122.0</ele>
        <time>2021-08-21T06:38:38.127Z</time>
      </trkpt>
      <trkpt lat="41.94336833" lon="2.84483">
        <ele>122.0</ele>
        <time>2021-08-21T06:38:39.144Z</time>
      </trkpt>
      <trkpt lat="41.94334667" lon="2.84481333">
        <ele>123.0</ele>
        <time>2021-08-21T06:38:40.133Z</time>
      </trkpt>
      <trkpt lat="41.94334667" lon="2.84481333">
        <ele>123.0</ele>
        <time>2021-08-21T06:38:41.142Z</time>
      </trkpt>
      <trkpt lat="41.94329167" lon="2.84478667">
        <ele>124.0</ele>
        <time>2021-08-21T06:38:42.137Z</time>
      </trkpt>
      <trkpt lat="41.94329167" lon="2.84478667">
        <ele>124.0</ele>
        <time>2021-08-21T06:38:43.144Z</time>
      </trkpt>
      <trkpt lat="41.94323333" lon="2.84476167">
        <ele>124.0</ele>
        <time>2021-08-21T06:38:44.122Z</time>
      </trkpt>
      <trkpt lat="41.94323333" lon="2.84476167">
        <ele>124.0</ele>
        <time>2021-08-21T06:38:45.127Z</time>
      </trkpt>
      <trkpt lat="41.94317" lon="2.84473333">
        <ele>125.0</ele>
        <time>2021-08-21T06:38:46.139Z</time>
      </trkpt>
      <trkpt lat="41.94317" lon="2.84473333">
        <ele>125.0</ele>
        <time>2021-08-21T06:38:47.110Z</time>
      </trkpt>
      <trkpt lat="41.94311167" lon="2.84472">
        <ele>126.0</ele>
        <time>2021-08-21T06:38:48.146Z</time>
      </trkpt>
      <trkpt lat="41.94311167" lon="2.84472">
        <ele>126.0</ele>
        <time>2021-08-21T06:38:49.111Z</time>
      </trkpt>
      <trkpt lat="41.94304833" lon="2.84470833">
        <ele>127.0</ele>
        <time>2021-08-21T06:38:50.128Z</time>
      </trkpt>
      <trkpt lat="41.94304833" lon="2.84470833">
        <ele>127.0</ele>
        <time>2021-08-21T06:38:51.133Z</time>
      </trkpt>
      <trkpt lat="41.94298333" lon="2.84469">
        <ele>127.0</ele>
        <time>2021-08-21T06:38:52.117Z</time>
      </trkpt>
      <trkpt lat="41.94298333" lon="2.84469">
        <ele>127.0</ele>
        <time>2021-08-21T06:38:53.121Z</time>
      </trkpt>
      <trkpt lat="41.94291333" lon="2.84466667">
        <ele>128.0</ele>
        <time>2021-08-21T06:38:54.140Z</time>
      </trkpt>
      <trkpt lat="41.94291333" lon="2.84466667">
        <ele>128.0</ele>
        <time>2021-08-21T06:38:55.144Z</time>
      </trkpt>
      <trkpt lat="41.942845" lon="2.84465667">
        <ele>129.0</ele>
        <time>2021-08-21T06:38:56.147Z</time>
      </trkpt>
      <trkpt lat="41.942845" lon="2.84465667">
        <ele>129.0</ele>
        <time>2021-08-21T06:38:57.112Z</time>
      </trkpt>
      <trkpt lat="41.94277833" lon="2.84465">
        <ele>129.0</ele>
        <time>2021-08-21T06:38:58.130Z</time>
      </trkpt>
      <trkpt lat="41.94277833" lon="2.84465">
        <ele>129.0</ele>
        <time>2021-08-21T06:38:59.135Z</time>
      </trkpt>
      <trkpt lat="41.94271167" lon="2.844645">
        <ele>130.0</ele>
        <time>2021-08-21T06:39:00.120Z</time>
      </trkpt>
      <trkpt lat="41.94271167" lon="2.844645">
        <ele>130.0</ele>
        <time>2021-08-21T06:39:01.136Z</time>
      </trkpt>
      <trkpt lat="41.94263833" lon="2.84463167">
        <ele>131.0</ele>
        <time>2021-08-21T06:39:02.111Z</time>
      </trkpt>
      <trkpt lat="41.94260667" lon="2.84463333">
        <ele>131.0</ele>
        <time>2021-08-21T06:39:03.126Z</time>
      </trkpt>
      <trkpt lat="41.942575" lon="2.84464333">
        <ele>131.0</ele>
        <time>2021-08-21T06:39:04.139Z</time>
      </trkpt>
      <trkpt lat="41.942575" lon="2.84464333">
        <ele>131.0</ele>
        <time>2021-08-21T06:39:05.144Z</time>
      </trkpt>
      <trkpt lat="41.94251333" lon="2.84468167">
        <ele>132.0</ele>
        <time>2021-08-21T06:39:06.141Z</time>
      </trkpt>
      <trkpt lat="41.94251333" lon="2.84468167">
        <ele>132.0</ele>
        <time>2021-08-21T06:39:07.145Z</time>
      </trkpt>
      <trkpt lat="41.94245667" lon="2.84472833">
        <ele>132.0</ele>
        <time>2021-08-21T06:39:08.138Z</time>
      </trkpt>
      <trkpt lat="41.94245667" lon="2.84472833">
        <ele>132.0</ele>
        <time>2021-08-21T06:39:09.144Z</time>
      </trkpt>
      <trkpt lat="41.94239667" lon="2.84476167">
        <ele>133.0</ele>
        <time>2021-08-21T06:39:10.119Z</time>
      </trkpt>
      <trkpt lat="41.94239667" lon="2.84476167">
        <ele>133.0</ele>
        <time>2021-08-21T06:39:11.125Z</time>
      </trkpt>
      <trkpt lat="41.94234833" lon="2.84478833">
        <ele>133.0</ele>
        <time>2021-08-21T06:39:12.144Z</time>
      </trkpt>
      <trkpt lat="41.94234833" lon="2.84478833">
        <ele>133.0</ele>
        <time>2021-08-21T06:39:13.108Z</time>
      </trkpt>
      <trkpt lat="41.94229667" lon="2.84481">
        <ele>133.0</ele>
        <time>2021-08-21T06:39:14.127Z</time>
      </trkpt>
      <trkpt lat="41.94226833" lon="2.84482167">
        <ele>133.0</ele>
        <time>2021-08-21T06:39:15.117Z</time>
      </trkpt>
      <trkpt lat="41.94226833" lon="2.84482167">
        <ele>133.0</ele>
        <time>2021-08-21T06:39:16.121Z</time>
      </trkpt>
      <trkpt lat="41.942215" lon="2.84485167">
        <ele>133.0</ele>
        <time>2021-08-21T06:39:17.137Z</time>
      </trkpt>
      <trkpt lat="41.942215" lon="2.84485167">
        <ele>133.0</ele>
        <time>2021-08-21T06:39:18.143Z</time>
      </trkpt>
      <trkpt lat="41.94215833" lon="2.84488333">
        <ele>133.0</ele>
        <time>2021-08-21T06:39:19.116Z</time>
      </trkpt>
      <trkpt lat="41.94215833" lon="2.84488333">
        <ele>133.0</ele>
        <time>2021-08-21T06:39:20.121Z</time>
      </trkpt>
      <trkpt lat="41.942095" lon="2.84489">
        <ele>133.0</ele>
        <time>2021-08-21T06:39:21.110Z</time>
      </trkpt>
      <trkpt lat="41.94205833" lon="2.84488167">
        <ele>133.0</ele>
        <time>2021-08-21T06:39:22.147Z</time>
      </trkpt>
      <trkpt lat="41.94205833" lon="2.84488167">
        <ele>133.0</ele>
        <time>2021-08-21T06:39:23.118Z</time>
      </trkpt>
      <trkpt lat="41.941975" lon="2.84485167">
        <ele>132.0</ele>
        <time>2021-08-21T06:39:24.137Z</time>
      </trkpt>
      <trkpt lat="41.941975" lon="2.84485167">
        <ele>132.0</ele>
        <time>2021-08-21T06:39:25.142Z</time>
      </trkpt>
      <trkpt lat="41.94190167" lon="2.84484167">
        <ele>132.0</ele>
        <time>2021-08-21T06:39:26.116Z</time>
      </trkpt>
      <trkpt lat="41.94190167" lon="2.84484167">
        <ele>132.0</ele>
        <time>2021-08-21T06:39:27.121Z</time>
      </trkpt>
      <trkpt lat="41.94186333" lon="2.84490167">
        <ele>131.0</ele>
        <time>2021-08-21T06:39:28.139Z</time>
      </trkpt>
      <trkpt lat="41.94186333" lon="2.84490167">
        <ele>131.0</ele>
        <time>2021-08-21T06:39:29.143Z</time>
      </trkpt>
      <trkpt lat="41.94185" lon="2.84498">
        <ele>131.0</ele>
        <time>2021-08-21T06:39:30.121Z</time>
      </trkpt>
      <trkpt lat="41.94185" lon="2.84498">
        <ele>131.0</ele>
        <time>2021-08-21T06:39:31.139Z</time>
      </trkpt>
      <trkpt lat="41.94185" lon="2.845075">
        <ele>130.0</ele>
        <time>2021-08-21T06:39:32.114Z</time>
      </trkpt>
      <trkpt lat="41.94185" lon="2.845075">
        <ele>130.0</ele>
        <time>2021-08-21T06:39:33.119Z</time>
      </trkpt>
      <trkpt lat="41.94182833" lon="2.84516667">
        <ele>130.0</ele>
        <time>2021-08-21T06:39:34.139Z</time>
      </trkpt>
      <trkpt lat="41.94182833" lon="2.84516667">
        <ele>130.0</ele>
        <time>2021-08-21T06:39:35.111Z</time>
      </trkpt>
      <trkpt lat="41.94178333" lon="2.84523167">
        <ele>130.0</ele>
        <time>2021-08-21T06:39:36.125Z</time>
      </trkpt>
      <trkpt lat="41.94178333" lon="2.84523167">
        <ele>130.0</ele>
        <time>2021-08-21T06:39:37.130Z</time>
      </trkpt>
      <trkpt lat="41.941735" lon="2.84526167">
        <ele>131.0</ele>
        <time>2021-08-21T06:39:38.113Z</time>
      </trkpt>
      <trkpt lat="41.941735" lon="2.84526167">
        <ele>131.0</ele>
        <time>2021-08-21T06:39:39.118Z</time>
      </trkpt>
      <trkpt lat="41.94168667" lon="2.84529833">
        <ele>131.0</ele>
        <time>2021-08-21T06:39:40.128Z</time>
      </trkpt>
      <trkpt lat="41.94168667" lon="2.84529833">
        <ele>131.0</ele>
        <time>2021-08-21T06:39:41.133Z</time>
      </trkpt>
      <trkpt lat="41.94161833" lon="2.84532667">
        <ele>131.0</ele>
        <time>2021-08-21T06:39:42.113Z</time>
      </trkpt>
      <trkpt lat="41.94161833" lon="2.84532667">
        <ele>131.0</ele>
        <time>2021-08-21T06:39:43.118Z</time>
      </trkpt>
      <trkpt lat="41.941555" lon="2.84534667">
        <ele>132.0</ele>
        <time>2021-08-21T06:39:44.137Z</time>
      </trkpt>
      <trkpt lat="41.941555" lon="2.84534667">
        <ele>132.0</ele>
        <time>2021-08-21T06:39:45.144Z</time>
      </trkpt>
      <trkpt lat="41.94149" lon="2.84536">
        <ele>133.0</ele>
        <time>2021-08-21T06:39:46.123Z</time>
      </trkpt>
      <trkpt lat="41.94149" lon="2.84536">
        <ele>133.0</ele>
        <time>2021-08-21T06:39:47.127Z</time>
      </trkpt>
      <trkpt lat="41.94142667" lon="2.84536667">
        <ele>133.0</ele>
        <time>2021-08-21T06:39:48.109Z</time>
      </trkpt>
      <trkpt lat="41.94142667" lon="2.84536667">
        <ele>133.0</ele>
        <time>2021-08-21T06:39:49.114Z</time>
      </trkpt>
      <trkpt lat="41.94136" lon="2.84538333">
        <ele>134.0</ele>
        <time>2021-08-21T06:39:50.132Z</time>
      </trkpt>
      <trkpt lat="41.94132333" lon="2.84539667">
        <ele>134.0</ele>
        <time>2021-08-21T06:39:51.108Z</time>
      </trkpt>
      <trkpt lat="41.94129167" lon="2.84541167">
        <ele>134.0</ele>
        <time>2021-08-21T06:39:52.143Z</time>
      </trkpt>
      <trkpt lat="41.94129167" lon="2.84541167">
        <ele>134.0</ele>
        <time>2021-08-21T06:39:53.147Z</time>
      </trkpt>
      <trkpt lat="41.94123" lon="2.84543667">
        <ele>135.0</ele>
        <time>2021-08-21T06:39:54.128Z</time>
      </trkpt>
      <trkpt lat="41.94123" lon="2.84543667">
        <ele>135.0</ele>
        <time>2021-08-21T06:39:55.133Z</time>
      </trkpt>
      <trkpt lat="41.94117167" lon="2.84545667">
        <ele>136.0</ele>
        <time>2021-08-21T06:39:56.133Z</time>
      </trkpt>
      <trkpt lat="41.94117167" lon="2.84545667">
        <ele>136.0</ele>
        <time>2021-08-21T06:39:57.139Z</time>
      </trkpt>
      <trkpt lat="41.941095" lon="2.845465">
        <ele>137.0</ele>
        <time>2021-08-21T06:39:58.112Z</time>
      </trkpt>
      <trkpt lat="41.941095" lon="2.845465">
        <ele>137.0</ele>
        <time>2021-08-21T06:39:59.116Z</time>
      </trkpt>
      <trkpt lat="41.94103" lon="2.84550333">
        <ele>138.0</ele>
        <time>2021-08-21T06:40:00.135Z</time>
      </trkpt>
      <trkpt lat="41.94103" lon="2.84550333">
        <ele>138.0</ele>
        <time>2021-08-21T06:40:01.141Z</time>
      </trkpt>
      <trkpt lat="41.94097667" lon="2.84552667">
        <ele>138.0</ele>
        <time>2021-08-21T06:40:02.116Z</time>
      </trkpt>
      <trkpt lat="41.94097667" lon="2.84552667">
        <ele>138.0</ele>
        <time>2021-08-21T06:40:03.126Z</time>
      </trkpt>
      <trkpt lat="41.94091333" lon="2.84553833">
        <ele>140.0</ele>
        <time>2021-08-21T06:40:04.139Z</time>
      </trkpt>
      <trkpt lat="41.94091333" lon="2.84553833">
        <ele>140.0</ele>
        <time>2021-08-21T06:40:05.145Z</time>
      </trkpt>
      <trkpt lat="41.94083833" lon="2.84553833">
        <ele>141.0</ele>
        <time>2021-08-21T06:40:06.126Z</time>
      </trkpt>
      <trkpt lat="41.94083833" lon="2.84553833">
        <ele>141.0</ele>
        <time>2021-08-21T06:40:07.131Z</time>
      </trkpt>
      <trkpt lat="41.94077667" lon="2.84553">
        <ele>142.0</ele>
        <time>2021-08-21T06:40:08.118Z</time>
      </trkpt>
      <trkpt lat="41.94077667" lon="2.84553">
        <ele>142.0</ele>
        <time>2021-08-21T06:40:09.132Z</time>
      </trkpt>
      <trkpt lat="41.94071333" lon="2.845525">
        <ele>142.0</ele>
        <time>2021-08-21T06:40:10.140Z</time>
      </trkpt>
      <trkpt lat="41.94071333" lon="2.845525">
        <ele>142.0</ele>
        <time>2021-08-21T06:40:11.145Z</time>
      </trkpt>
      <trkpt lat="41.94064167" lon="2.84553333">
        <ele>143.0</ele>
        <time>2021-08-21T06:40:12.126Z</time>
      </trkpt>
      <trkpt lat="41.94064167" lon="2.84553333">
        <ele>143.0</ele>
        <time>2021-08-21T06:40:13.130Z</time>
      </trkpt>
      <trkpt lat="41.94056667" lon="2.84556333">
        <ele>143.0</ele>
        <time>2021-08-21T06:40:14.141Z</time>
      </trkpt>
      <trkpt lat="41.94056667" lon="2.84556333">
        <ele>143.0</ele>
        <time>2021-08-21T06:40:15.147Z</time>
      </trkpt>
      <trkpt lat="41.940525" lon="2.84561">
        <ele>144.0</ele>
        <time>2021-08-21T06:40:16.133Z</time>
      </trkpt>
      <trkpt lat="41.940525" lon="2.84561">
        <ele>144.0</ele>
        <time>2021-08-21T06:40:17.139Z</time>
      </trkpt>
      <trkpt lat="41.94051333" lon="2.84566833">
        <ele>144.0</ele>
        <time>2021-08-21T06:40:18.113Z</time>
      </trkpt>
      <trkpt lat="41.94051333" lon="2.84566833">
        <ele>144.0</ele>
        <time>2021-08-21T06:40:19.118Z</time>
      </trkpt>
      <trkpt lat="41.94050667" lon="2.84572833">
        <ele>145.0</ele>
        <time>2021-08-21T06:40:20.132Z</time>
      </trkpt>
      <trkpt lat="41.94050667" lon="2.84572833">
        <ele>145.0</ele>
        <time>2021-08-21T06:40:21.143Z</time>
      </trkpt>
      <trkpt lat="41.94049833" lon="2.84579833">
        <ele>145.0</ele>
        <time>2021-08-21T06:40:22.126Z</time>
      </trkpt>
      <trkpt lat="41.94049833" lon="2.84579833">
        <ele>145.0</ele>
        <time>2021-08-21T06:40:23.130Z</time>
      </trkpt>
      <trkpt lat="41.94043167" lon="2.84585167">
        <ele>144.0</ele>
        <time>2021-08-21T06:40:24.123Z</time>
      </trkpt>
      <trkpt lat="41.94043167" lon="2.84585167">
        <ele>144.0</ele>
        <time>2021-08-21T06:40:25.131Z</time>
      </trkpt>
      <trkpt lat="41.940335" lon="2.845885">
        <ele>144.0</ele>
        <time>2021-08-21T06:40:26.141Z</time>
      </trkpt>
      <trkpt lat="41.940335" lon="2.845885">
        <ele>144.0</ele>
        <time>2021-08-21T06:40:27.146Z</time>
      </trkpt>
      <trkpt lat="41.940275" lon="2.84588833">
        <ele>144.0</ele>
        <time>2021-08-21T06:40:28.126Z</time>
      </trkpt>
      <trkpt lat="41.940275" lon="2.84588833">
        <ele>144.0</ele>
        <time>2021-08-21T06:40:29.131Z</time>
      </trkpt>
      <trkpt lat="41.94027333" lon="2.84589167">
        <ele>145.0</ele>
        <time>2021-08-21T06:40:30.134Z</time>
      </trkpt>
      <trkpt lat="41.94027333" lon="2.84589167">
        <ele>145.0</ele>
        <time>2021-08-21T06:40:31.144Z</time>
      </trkpt>
      <trkpt lat="41.94027167" lon="2.84589333">
        <ele>144.0</ele>
        <time>2021-08-21T06:41:02.025Z</time>
      </trkpt>
      <trkpt lat="41.94027167" lon="2.84589333">
        <ele>144.0</ele>
        <time>2021-08-21T06:41:03.003Z</time>
      </trkpt>
      <trkpt lat="41.94027167" lon="2.84589333">
        <ele>144.0</ele>
        <time>2021-08-21T06:41:04.011Z</time>
      </trkpt>
      <trkpt lat="41.94029167" lon="2.84595833">
        <ele>143.0</ele>
        <time>2021-08-21T06:41:05.021Z</time>
      </trkpt>
      <trkpt lat="41.94029167" lon="2.84595833">
        <ele>143.0</ele>
        <time>2021-08-21T06:41:06.017Z</time>
      </trkpt>
      <trkpt lat="41.94031667" lon="2.84599">
        <ele>143.0</ele>
        <time>2021-08-21T06:41:07.003Z</time>
      </trkpt>
      <trkpt lat="41.94031667" lon="2.84599">
        <ele>143.0</ele>
        <time>2021-08-21T06:41:07.996Z</time>
      </trkpt>
      <trkpt lat="41.94033167" lon="2.84603167">
        <ele>142.0</ele>
        <time>2021-08-21T06:41:09.017Z</time>
      </trkpt>
      <trkpt lat="41.94033167" lon="2.84603167">
        <ele>142.0</ele>
        <time>2021-08-21T06:41:10.029Z</time>
      </trkpt>
      <trkpt lat="41.94036167" lon="2.846085">
        <ele>142.0</ele>
        <time>2021-08-21T06:41:10.992Z</time>
      </trkpt>
      <trkpt lat="41.94036167" lon="2.846085">
        <ele>142.0</ele>
        <time>2021-08-21T06:41:11.999Z</time>
      </trkpt>
      <trkpt lat="41.94037333" lon="2.84615">
        <ele>141.0</ele>
        <time>2021-08-21T06:41:13.019Z</time>
      </trkpt>
      <trkpt lat="41.94037333" lon="2.84615">
        <ele>141.0</ele>
        <time>2021-08-21T06:41:14.029Z</time>
      </trkpt>
      <trkpt lat="41.94037667" lon="2.84623">
        <ele>141.0</ele>
        <time>2021-08-21T06:41:15.001Z</time>
      </trkpt>
      <trkpt lat="41.94037667" lon="2.84623">
        <ele>141.0</ele>
        <time>2021-08-21T06:41:16.003Z</time>
      </trkpt>
      <trkpt lat="41.940355" lon="2.84631833">
        <ele>141.0</ele>
        <time>2021-08-21T06:41:17.021Z</time>
      </trkpt>
      <trkpt lat="41.94034" lon="2.84636667">
        <ele>141.0</ele>
        <time>2021-08-21T06:41:18.011Z</time>
      </trkpt>
      <trkpt lat="41.940315" lon="2.84641667">
        <ele>141.0</ele>
        <time>2021-08-21T06:41:19.010Z</time>
      </trkpt>
      <trkpt lat="41.940315" lon="2.84641667">
        <ele>141.0</ele>
        <time>2021-08-21T06:41:20.025Z</time>
      </trkpt>
      <trkpt lat="41.94026" lon="2.846525">
        <ele>140.0</ele>
        <time>2021-08-21T06:41:21.001Z</time>
      </trkpt>
      <trkpt lat="41.94026" lon="2.846525">
        <ele>140.0</ele>
        <time>2021-08-21T06:41:22.022Z</time>
      </trkpt>
      <trkpt lat="41.94017833" lon="2.846625">
        <ele>140.0</ele>
        <time>2021-08-21T06:41:23.012Z</time>
      </trkpt>
      <trkpt lat="41.94017833" lon="2.846625">
        <ele>140.0</ele>
        <time>2021-08-21T06:41:24.018Z</time>
      </trkpt>
      <trkpt lat="41.94008" lon="2.84671167">
        <ele>140.0</ele>
        <time>2021-08-21T06:41:24.999Z</time>
      </trkpt>
      <trkpt lat="41.94008" lon="2.84671167">
        <ele>140.0</ele>
        <time>2021-08-21T06:41:26.007Z</time>
      </trkpt>
      <trkpt lat="41.94002" lon="2.84677167">
        <ele>139.0</ele>
        <time>2021-08-21T06:41:27.027Z</time>
      </trkpt>
      <trkpt lat="41.94002" lon="2.84677167">
        <ele>139.0</ele>
        <time>2021-08-21T06:41:27.999Z</time>
      </trkpt>
      <trkpt lat="41.93999667" lon="2.84681833">
        <ele>138.0</ele>
        <time>2021-08-21T06:41:29.023Z</time>
      </trkpt>
      <trkpt lat="41.93999" lon="2.84684167">
        <ele>138.0</ele>
        <time>2021-08-21T06:41:29.994Z</time>
      </trkpt>
      <trkpt lat="41.93999333" lon="2.84686333">
        <ele>138.0</ele>
        <time>2021-08-21T06:41:31.011Z</time>
      </trkpt>
      <trkpt lat="41.93999333" lon="2.84686333">
        <ele>138.0</ele>
        <time>2021-08-21T06:41:32.021Z</time>
      </trkpt>
      <trkpt lat="41.94001667" lon="2.84691333">
        <ele>137.0</ele>
        <time>2021-08-21T06:41:33.011Z</time>
      </trkpt>
      <trkpt lat="41.94001667" lon="2.84691333">
        <ele>137.0</ele>
        <time>2021-08-21T06:41:34.017Z</time>
      </trkpt>
      <trkpt lat="41.94004333" lon="2.84695667">
        <ele>138.0</ele>
        <time>2021-08-21T06:41:35.027Z</time>
      </trkpt>
      <trkpt lat="41.94005667" lon="2.84698167">
        <ele>138.0</ele>
        <time>2021-08-21T06:41:35.999Z</time>
      </trkpt>
      <trkpt lat="41.94006833" lon="2.847005">
        <ele>138.0</ele>
        <time>2021-08-21T06:41:37.014Z</time>
      </trkpt>
      <trkpt lat="41.94006833" lon="2.847005">
        <ele>138.0</ele>
        <time>2021-08-21T06:41:37.992Z</time>
      </trkpt>
      <trkpt lat="41.940075" lon="2.84705167">
        <ele>139.0</ele>
        <time>2021-08-21T06:41:39.009Z</time>
      </trkpt>
      <trkpt lat="41.940075" lon="2.84705167">
        <ele>139.0</ele>
        <time>2021-08-21T06:41:40.022Z</time>
      </trkpt>
      <trkpt lat="41.94007833" lon="2.84711833">
        <ele>138.0</ele>
        <time>2021-08-21T06:41:41.016Z</time>
      </trkpt>
      <trkpt lat="41.94007833" lon="2.84711833">
        <ele>138.0</ele>
        <time>2021-08-21T06:41:42.022Z</time>
      </trkpt>
      <trkpt lat="41.94004333" lon="2.84720333">
        <ele>137.0</ele>
        <time>2021-08-21T06:41:42.995Z</time>
      </trkpt>
      <trkpt lat="41.94004333" lon="2.84720333">
        <ele>137.0</ele>
        <time>2021-08-21T06:41:44.016Z</time>
      </trkpt>
      <trkpt lat="41.93999" lon="2.84730167">
        <ele>136.0</ele>
        <time>2021-08-21T06:41:45.030Z</time>
      </trkpt>
      <trkpt lat="41.93999" lon="2.84730167">
        <ele>136.0</ele>
        <time>2021-08-21T06:41:45.997Z</time>
      </trkpt>
      <trkpt lat="41.93995167" lon="2.84744333">
        <ele>135.0</ele>
        <time>2021-08-21T06:41:47.026Z</time>
      </trkpt>
      <trkpt lat="41.93995167" lon="2.84744333">
        <ele>135.0</ele>
        <time>2021-08-21T06:41:47.999Z</time>
      </trkpt>
      <trkpt lat="41.93993667" lon="2.84761333">
        <ele>134.0</ele>
        <time>2021-08-21T06:41:49.026Z</time>
      </trkpt>
      <trkpt lat="41.93993667" lon="2.84761333">
        <ele>134.0</ele>
        <time>2021-08-21T06:41:50.016Z</time>
      </trkpt>
      <trkpt lat="41.939935" lon="2.84779333">
        <ele>133.0</ele>
        <time>2021-08-21T06:41:51.031Z</time>
      </trkpt>
      <trkpt lat="41.939935" lon="2.84779333">
        <ele>133.0</ele>
        <time>2021-08-21T06:41:51.999Z</time>
      </trkpt>
      <trkpt lat="41.93995" lon="2.84796333">
        <ele>132.0</ele>
        <time>2021-08-21T06:41:52.992Z</time>
      </trkpt>
      <trkpt lat="41.93995" lon="2.84796333">
        <ele>132.0</ele>
        <time>2021-08-21T06:41:54.003Z</time>
      </trkpt>
      <trkpt lat="41.93993" lon="2.84812667">
        <ele>132.0</ele>
        <time>2021-08-21T06:41:55.014Z</time>
      </trkpt>
      <trkpt lat="41.93993" lon="2.84812667">
        <ele>132.0</ele>
        <time>2021-08-21T06:41:56.013Z</time>
      </trkpt>
      <trkpt lat="41.93987167" lon="2.84827333">
        <ele>131.0</ele>
        <time>2021-08-21T06:41:56.994Z</time>
      </trkpt>
      <trkpt lat="41.93987167" lon="2.84827333">
        <ele>131.0</ele>
        <time>2021-08-21T06:41:58.004Z</time>
      </trkpt>
      <trkpt lat="41.93982833" lon="2.84841167">
        <ele>130.0</ele>
        <time>2021-08-21T06:41:59.025Z</time>
      </trkpt>
      <trkpt lat="41.93980667" lon="2.848475">
        <ele>130.0</ele>
        <time>2021-08-21T06:42:00.022Z</time>
      </trkpt>
      <trkpt lat="41.93980667" lon="2.848475">
        <ele>130.0</ele>
        <time>2021-08-21T06:42:01.010Z</time>
      </trkpt>
      <trkpt lat="41.93975833" lon="2.848595">
        <ele>130.0</ele>
        <time>2021-08-21T06:42:02.005Z</time>
      </trkpt>
      <trkpt lat="41.93975833" lon="2.848595">
        <ele>130.0</ele>
        <time>2021-08-21T06:42:03.014Z</time>
      </trkpt>
      <trkpt lat="41.93971833" lon="2.84871167">
        <ele>129.0</ele>
        <time>2021-08-21T06:42:04.028Z</time>
      </trkpt>
      <trkpt lat="41.93971833" lon="2.84871167">
        <ele>129.0</ele>
        <time>2021-08-21T06:42:04.999Z</time>
      </trkpt>
      <trkpt lat="41.939685" lon="2.84884333">
        <ele>129.0</ele>
        <time>2021-08-21T06:42:06.024Z</time>
      </trkpt>
      <trkpt lat="41.93967167" lon="2.84891">
        <ele>128.0</ele>
        <time>2021-08-21T06:42:06.997Z</time>
      </trkpt>
      <trkpt lat="41.93967167" lon="2.84891">
        <ele>128.0</ele>
        <time>2021-08-21T06:42:08.007Z</time>
      </trkpt>
      <trkpt lat="41.93965" lon="2.84904333">
        <ele>128.0</ele>
        <time>2021-08-21T06:42:09.018Z</time>
      </trkpt>
      <trkpt lat="41.93965" lon="2.84904333">
        <ele>128.0</ele>
        <time>2021-08-21T06:42:09.999Z</time>
      </trkpt>
      <trkpt lat="41.939615" lon="2.84917667">
        <ele>128.0</ele>
        <time>2021-08-21T06:42:11.015Z</time>
      </trkpt>
      <trkpt lat="41.939615" lon="2.84917667">
        <ele>128.0</ele>
        <time>2021-08-21T06:42:12.030Z</time>
      </trkpt>
      <trkpt lat="41.939585" lon="2.84930667">
        <ele>128.0</ele>
        <time>2021-08-21T06:42:13.006Z</time>
      </trkpt>
      <trkpt lat="41.939585" lon="2.84930667">
        <ele>128.0</ele>
        <time>2021-08-21T06:42:14.013Z</time>
      </trkpt>
      <trkpt lat="41.93954833" lon="2.84943667">
        <ele>128.0</ele>
        <time>2021-08-21T06:42:15.028Z</time>
      </trkpt>
      <trkpt lat="41.93954833" lon="2.84943667">
        <ele>128.0</ele>
        <time>2021-08-21T06:42:15.996Z</time>
      </trkpt>
      <trkpt lat="41.93951167" lon="2.84956333">
        <ele>129.0</ele>
        <time>2021-08-21T06:42:17.031Z</time>
      </trkpt>
      <trkpt lat="41.93951167" lon="2.84956333">
        <ele>129.0</ele>
        <time>2021-08-21T06:42:17.999Z</time>
      </trkpt>
      <trkpt lat="41.93948667" lon="2.84966833">
        <ele>130.0</ele>
        <time>2021-08-21T06:42:19.147Z</time>
      </trkpt>
      <trkpt lat="41.93948667" lon="2.84966833">
        <ele>130.0</ele>
        <time>2021-08-21T06:42:20.009Z</time>
      </trkpt>
      <trkpt lat="41.93948833" lon="2.84975167">
        <ele>131.0</ele>
        <time>2021-08-21T06:42:21.022Z</time>
      </trkpt>
      <trkpt lat="41.93948833" lon="2.84975167">
        <ele>131.0</ele>
        <time>2021-08-21T06:42:22.028Z</time>
      </trkpt>
      <trkpt lat="41.93951" lon="2.84981">
        <ele>132.0</ele>
        <time>2021-08-21T06:42:22.999Z</time>
      </trkpt>
      <trkpt lat="41.93951" lon="2.84981">
        <ele>132.0</ele>
        <time>2021-08-21T06:42:24.005Z</time>
      </trkpt>
      <trkpt lat="41.93954667" lon="2.84984">
        <ele>133.0</ele>
        <time>2021-08-21T06:42:24.998Z</time>
      </trkpt>
      <trkpt lat="41.93954667" lon="2.84984">
        <ele>133.0</ele>
        <time>2021-08-21T06:42:26.014Z</time>
      </trkpt>
      <trkpt lat="41.93958167" lon="2.849875">
        <ele>133.0</ele>
        <time>2021-08-21T06:42:27.028Z</time>
      </trkpt>
      <trkpt lat="41.9396" lon="2.849895">
        <ele>134.0</ele>
        <time>2021-08-21T06:42:28.001Z</time>
      </trkpt>
      <trkpt lat="41.93961833" lon="2.84991167">
        <ele>134.0</ele>
        <time>2021-08-21T06:42:29.020Z</time>
      </trkpt>
      <trkpt lat="41.93961833" lon="2.84991167">
        <ele>134.0</ele>
        <time>2021-08-21T06:42:30.029Z</time>
      </trkpt>
      <trkpt lat="41.93965333" lon="2.84993333">
        <ele>134.0</ele>
        <time>2021-08-21T06:42:31.007Z</time>
      </trkpt>
      <trkpt lat="41.93965333" lon="2.84993333">
        <ele>134.0</ele>
        <time>2021-08-21T06:42:31.995Z</time>
      </trkpt>
      <trkpt lat="41.93968833" lon="2.84995">
        <ele>135.0</ele>
        <time>2021-08-21T06:42:33.026Z</time>
      </trkpt>
      <trkpt lat="41.93968833" lon="2.84995">
        <ele>135.0</ele>
        <time>2021-08-21T06:42:34.009Z</time>
      </trkpt>
      <trkpt lat="41.93972833" lon="2.84997167">
        <ele>135.0</ele>
        <time>2021-08-21T06:42:35.031Z</time>
      </trkpt>
      <trkpt lat="41.939745" lon="2.84998667">
        <ele>135.0</ele>
        <time>2021-08-21T06:42:36.029Z</time>
      </trkpt>
      <trkpt lat="41.939745" lon="2.84998667">
        <ele>135.0</ele>
        <time>2021-08-21T06:42:37.017Z</time>
      </trkpt>
      <trkpt lat="41.939785" lon="2.85001833">
        <ele>136.0</ele>
        <time>2021-08-21T06:42:38.031Z</time>
      </trkpt>
      <trkpt lat="41.93980667" lon="2.85003333">
        <ele>137.0</ele>
        <time>2021-08-21T06:42:39.015Z</time>
      </trkpt>
      <trkpt lat="41.93980667" lon="2.85003333">
        <ele>137.0</ele>
        <time>2021-08-21T06:42:40.020Z</time>
      </trkpt>
      <trkpt lat="41.93984833" lon="2.85007333">
        <ele>136.0</ele>
        <time>2021-08-21T06:42:40.995Z</time>
      </trkpt>
      <trkpt lat="41.93984833" lon="2.85007333">
        <ele>136.0</ele>
        <time>2021-08-21T06:42:42.005Z</time>
      </trkpt>
      <trkpt lat="41.93988333" lon="2.85012333">
        <ele>137.0</ele>
        <time>2021-08-21T06:42:43.019Z</time>
      </trkpt>
      <trkpt lat="41.93988333" lon="2.85012333">
        <ele>137.0</ele>
        <time>2021-08-21T06:42:44.023Z</time>
      </trkpt>
      <trkpt lat="41.939905" lon="2.85017833">
        <ele>137.0</ele>
        <time>2021-08-21T06:42:45.006Z</time>
      </trkpt>
      <trkpt lat="41.939905" lon="2.85017833">
        <ele>137.0</ele>
        <time>2021-08-21T06:42:46.015Z</time>
      </trkpt>
      <trkpt lat="41.939935" lon="2.85021333">
        <ele>138.0</ele>
        <time>2021-08-21T06:42:46.992Z</time>
      </trkpt>
      <trkpt lat="41.93995833" lon="2.85021667">
        <ele>138.0</ele>
        <time>2021-08-21T06:42:48.023Z</time>
      </trkpt>
      <trkpt lat="41.93997833" lon="2.85021667">
        <ele>138.0</ele>
        <time>2021-08-21T06:42:49.015Z</time>
      </trkpt>
      <trkpt lat="41.93997833" lon="2.85021667">
        <ele>138.0</ele>
        <time>2021-08-21T06:42:50.020Z</time>
      </trkpt>
      <trkpt lat="41.94001667" lon="2.85023167">
        <ele>139.0</ele>
        <time>2021-08-21T06:42:50.993Z</time>
      </trkpt>
      <trkpt lat="41.94001667" lon="2.85023167">
        <ele>139.0</ele>
        <time>2021-08-21T06:42:52.023Z</time>
      </trkpt>
      <trkpt lat="41.94006" lon="2.85025167">
        <ele>139.0</ele>
        <time>2021-08-21T06:42:53.003Z</time>
      </trkpt>
      <trkpt lat="41.94006" lon="2.85025167">
        <ele>139.0</ele>
        <time>2021-08-21T06:42:54.015Z</time>
      </trkpt>
      <trkpt lat="41.94010667" lon="2.85026833">
        <ele>139.0</ele>
        <time>2021-08-21T06:42:55.028Z</time>
      </trkpt>
      <trkpt lat="41.94010667" lon="2.85026833">
        <ele>139.0</ele>
        <time>2021-08-21T06:42:55.999Z</time>
      </trkpt>
      <trkpt lat="41.940155" lon="2.85028">
        <ele>139.0</ele>
        <time>2021-08-21T06:42:57.000Z</time>
      </trkpt>
      <trkpt lat="41.940155" lon="2.85028">
        <ele>139.0</ele>
        <time>2021-08-21T06:42:58.013Z</time>
      </trkpt>
      <trkpt lat="41.94020167" lon="2.85028">
        <ele>140.0</ele>
        <time>2021-08-21T06:42:59.028Z</time>
      </trkpt>
      <trkpt lat="41.94022333" lon="2.85027833">
        <ele>140.0</ele>
        <time>2021-08-21T06:43:00.015Z</time>
      </trkpt>
      <trkpt lat="41.940245" lon="2.85028333">
        <ele>141.0</ele>
        <time>2021-08-21T06:43:01.002Z</time>
      </trkpt>
      <trkpt lat="41.940245" lon="2.85028333">
        <ele>141.0</ele>
        <time>2021-08-21T06:43:02.015Z</time>
      </trkpt>
      <trkpt lat="41.940265" lon="2.85031667">
        <ele>142.0</ele>
        <time>2021-08-21T06:43:03.026Z</time>
      </trkpt>
      <trkpt lat="41.940265" lon="2.85031667">
        <ele>142.0</ele>
        <time>2021-08-21T06:43:03.996Z</time>
      </trkpt>
      <trkpt lat="41.94028833" lon="2.850365">
        <ele>142.0</ele>
        <time>2021-08-21T06:43:05.029Z</time>
      </trkpt>
      <trkpt lat="41.94028833" lon="2.850365">
        <ele>142.0</ele>
        <time>2021-08-21T06:43:05.998Z</time>
      </trkpt>
      <trkpt lat="41.94032" lon="2.85039167">
        <ele>143.0</ele>
        <time>2021-08-21T06:43:06.998Z</time>
      </trkpt>
      <trkpt lat="41.94032" lon="2.85039167">
        <ele>143.0</ele>
        <time>2021-08-21T06:43:08.003Z</time>
      </trkpt>
      <trkpt lat="41.94034667" lon="2.85041333">
        <ele>143.0</ele>
        <time>2021-08-21T06:43:09.017Z</time>
      </trkpt>
      <trkpt lat="41.94034667" lon="2.85041333">
        <ele>143.0</ele>
        <time>2021-08-21T06:43:10.027Z</time>
      </trkpt>
      <trkpt lat="41.94036" lon="2.85045167">
        <ele>144.0</ele>
        <time>2021-08-21T06:43:10.997Z</time>
      </trkpt>
      <trkpt lat="41.94036" lon="2.85045167">
        <ele>144.0</ele>
        <time>2021-08-21T06:43:11.999Z</time>
      </trkpt>
      <trkpt lat="41.94039167" lon="2.85049167">
        <ele>145.0</ele>
        <time>2021-08-21T06:43:13.015Z</time>
      </trkpt>
      <trkpt lat="41.9404" lon="2.85050667">
        <ele>145.0</ele>
        <time>2021-08-21T06:43:14.010Z</time>
      </trkpt>
      <trkpt lat="41.9404" lon="2.85050667">
        <ele>145.0</ele>
        <time>2021-08-21T06:43:15.013Z</time>
      </trkpt>
      <trkpt lat="41.940425" lon="2.85053833">
        <ele>146.0</ele>
        <time>2021-08-21T06:43:16.029Z</time>
      </trkpt>
      <trkpt lat="41.940425" lon="2.85053833">
        <ele>146.0</ele>
        <time>2021-08-21T06:43:16.996Z</time>
      </trkpt>
      <trkpt lat="41.94046" lon="2.85057167">
        <ele>146.0</ele>
        <time>2021-08-21T06:43:18.011Z</time>
      </trkpt>
      <trkpt lat="41.94046" lon="2.85057167">
        <ele>146.0</ele>
        <time>2021-08-21T06:43:18.999Z</time>
      </trkpt>
      <trkpt lat="41.94048833" lon="2.85062333">
        <ele>147.0</ele>
        <time>2021-08-21T06:43:20.023Z</time>
      </trkpt>
      <trkpt lat="41.94048833" lon="2.85062333">
        <ele>147.0</ele>
        <time>2021-08-21T06:43:21.032Z</time>
      </trkpt>
      <trkpt lat="41.94052" lon="2.85067">
        <ele>147.0</ele>
        <time>2021-08-21T06:43:22.027Z</time>
      </trkpt>
      <trkpt lat="41.94052" lon="2.85067">
        <ele>147.0</ele>
        <time>2021-08-21T06:43:23.012Z</time>
      </trkpt>
      <trkpt lat="41.940555" lon="2.85070167">
        <ele>147.0</ele>
        <time>2021-08-21T06:43:24.026Z</time>
      </trkpt>
      <trkpt lat="41.94057833" lon="2.850725">
        <ele>148.0</ele>
        <time>2021-08-21T06:43:25.025Z</time>
      </trkpt>
      <trkpt lat="41.94057833" lon="2.850725">
        <ele>148.0</ele>
        <time>2021-08-21T06:43:25.997Z</time>
      </trkpt>
      <trkpt lat="41.94060833" lon="2.85075833">
        <ele>148.0</ele>
        <time>2021-08-21T06:43:27.011Z</time>
      </trkpt>
      <trkpt lat="41.94062333" lon="2.85077167">
        <ele>148.0</ele>
        <time>2021-08-21T06:43:27.995Z</time>
      </trkpt>
      <trkpt lat="41.94062333" lon="2.85077167">
        <ele>148.0</ele>
        <time>2021-08-21T06:43:29.004Z</time>
      </trkpt>
      <trkpt lat="41.94065167" lon="2.85079833">
        <ele>148.0</ele>
        <time>2021-08-21T06:43:30.007Z</time>
      </trkpt>
      <trkpt lat="41.94065833" lon="2.85080667">
        <ele>149.0</ele>
        <time>2021-08-21T06:43:31.022Z</time>
      </trkpt>
      <trkpt lat="41.94066333" lon="2.85081">
        <ele>149.0</ele>
        <time>2021-08-21T06:43:32.005Z</time>
      </trkpt>
      <trkpt lat="41.94066333" lon="2.85081">
        <ele>149.0</ele>
        <time>2021-08-21T06:43:33.014Z</time>
      </trkpt>
      <trkpt lat="41.940665" lon="2.85081167">
        <ele>149.0</ele>
        <time>2021-08-21T06:43:34.028Z</time>
      </trkpt>
      <trkpt lat="41.94059" lon="2.85074167">
        <ele>149.0</ele>
        <time>2021-08-21T06:43:35.045Z</time>
      </trkpt>
      <trkpt lat="41.94059" lon="2.85074167">
        <ele>149.0</ele>
        <time>2021-08-21T06:43:36.039Z</time>
      </trkpt>
      <trkpt lat="41.94059" lon="2.85074167">
        <ele>149.0</ele>
        <time>2021-08-21T06:43:36.993Z</time>
      </trkpt>
      <trkpt lat="41.94054167" lon="2.85069667">
        <ele>149.0</ele>
        <time>2021-08-21T06:43:38.002Z</time>
      </trkpt>
      <trkpt lat="41.94052167" lon="2.850675">
        <ele>149.0</ele>
        <time>2021-08-21T06:43:39.031Z</time>
      </trkpt>
      <trkpt lat="41.94052167" lon="2.850675">
        <ele>149.0</ele>
        <time>2021-08-21T06:43:40.003Z</time>
      </trkpt>
      <trkpt lat="41.94048333" lon="2.85061833">
        <ele>150.0</ele>
        <time>2021-08-21T06:43:41.027Z</time>
      </trkpt>
      <trkpt lat="41.94048333" lon="2.85061833">
        <ele>150.0</ele>
        <time>2021-08-21T06:43:42.000Z</time>
      </trkpt>
      <trkpt lat="41.94044833" lon="2.85055833">
        <ele>150.0</ele>
        <time>2021-08-21T06:43:43.032Z</time>
      </trkpt>
      <trkpt lat="41.94044833" lon="2.85055833">
        <ele>150.0</ele>
        <time>2021-08-21T06:43:44.003Z</time>
      </trkpt>
      <trkpt lat="41.94041" lon="2.85049167">
        <ele>151.0</ele>
        <time>2021-08-21T06:43:44.992Z</time>
      </trkpt>
      <trkpt lat="41.94041" lon="2.85049167">
        <ele>151.0</ele>
        <time>2021-08-21T06:43:46.000Z</time>
      </trkpt>
      <trkpt lat="41.94039833" lon="2.85045">
        <ele>151.0</ele>
        <time>2021-08-21T06:43:47.030Z</time>
      </trkpt>
      <trkpt lat="41.94039833" lon="2.85045">
        <ele>151.0</ele>
        <time>2021-08-21T06:43:48.003Z</time>
      </trkpt>
      <trkpt lat="41.94040667" lon="2.85042">
        <ele>151.0</ele>
        <time>2021-08-21T06:43:49.032Z</time>
      </trkpt>
      <trkpt lat="41.94040667" lon="2.85042">
        <ele>151.0</ele>
        <time>2021-08-21T06:43:50.005Z</time>
      </trkpt>
      <trkpt lat="41.94042833" lon="2.85041">
        <ele>151.0</ele>
        <time>2021-08-21T06:43:51.018Z</time>
      </trkpt>
      <trkpt lat="41.94042833" lon="2.85041">
        <ele>151.0</ele>
        <time>2021-08-21T06:43:52.026Z</time>
      </trkpt>
      <trkpt lat="41.94045333" lon="2.85042333">
        <ele>151.0</ele>
        <time>2021-08-21T06:43:53.032Z</time>
      </trkpt>
      <trkpt lat="41.94045333" lon="2.85042333">
        <ele>151.0</ele>
        <time>2021-08-21T06:43:53.998Z</time>
      </trkpt>
      <trkpt lat="41.94048833" lon="2.85043167">
        <ele>151.0</ele>
        <time>2021-08-21T06:43:55.018Z</time>
      </trkpt>
      <trkpt lat="41.94048833" lon="2.85043167">
        <ele>151.0</ele>
        <time>2021-08-21T06:43:56.010Z</time>
      </trkpt>
      <trkpt lat="41.94051833" lon="2.85045333">
        <ele>151.0</ele>
        <time>2021-08-21T06:43:57.028Z</time>
      </trkpt>
      <trkpt lat="41.94051833" lon="2.85045333">
        <ele>151.0</ele>
        <time>2021-08-21T06:43:57.999Z</time>
      </trkpt>
      <trkpt lat="41.94054833" lon="2.85047833">
        <ele>152.0</ele>
        <time>2021-08-21T06:43:59.021Z</time>
      </trkpt>
      <trkpt lat="41.94054833" lon="2.85047833">
        <ele>152.0</ele>
        <time>2021-08-21T06:43:59.996Z</time>
      </trkpt>
      <trkpt lat="41.94058" lon="2.85049">
        <ele>152.0</ele>
        <time>2021-08-21T06:44:01.020Z</time>
      </trkpt>
      <trkpt lat="41.94058" lon="2.85049">
        <ele>152.0</ele>
        <time>2021-08-21T06:44:02.022Z</time>
      </trkpt>
      <trkpt lat="41.94061" lon="2.85046667">
        <ele>152.0</ele>
        <time>2021-08-21T06:44:03.012Z</time>
      </trkpt>
      <trkpt lat="41.94061" lon="2.85046667">
        <ele>152.0</ele>
        <time>2021-08-21T06:44:04.017Z</time>
      </trkpt>
      <trkpt lat="41.940645" lon="2.85043833">
        <ele>152.0</ele>
        <time>2021-08-21T06:44:05.002Z</time>
      </trkpt>
      <trkpt lat="41.940645" lon="2.85043833">
        <ele>152.0</ele>
        <time>2021-08-21T06:44:06.008Z</time>
      </trkpt>
      <trkpt lat="41.94067667" lon="2.850415">
        <ele>153.0</ele>
        <time>2021-08-21T06:44:07.036Z</time>
      </trkpt>
      <trkpt lat="41.94068833" lon="2.85040333">
        <ele>153.0</ele>
        <time>2021-08-21T06:44:08.009Z</time>
      </trkpt>
      <trkpt lat="41.94070333" lon="2.850395">
        <ele>153.0</ele>
        <time>2021-08-21T06:44:08.994Z</time>
      </trkpt>
      <trkpt lat="41.94070333" lon="2.850395">
        <ele>153.0</ele>
        <time>2021-08-21T06:44:10.001Z</time>
      </trkpt>
      <trkpt lat="41.94074333" lon="2.85038833">
        <ele>154.0</ele>
        <time>2021-08-21T06:44:11.020Z</time>
      </trkpt>
      <trkpt lat="41.94074333" lon="2.85038833">
        <ele>154.0</ele>
        <time>2021-08-21T06:44:11.999Z</time>
      </trkpt>
      <trkpt lat="41.94077667" lon="2.85035167">
        <ele>154.0</ele>
        <time>2021-08-21T06:44:13.023Z</time>
      </trkpt>
      <trkpt lat="41.94077667" lon="2.85035167">
        <ele>154.0</ele>
        <time>2021-08-21T06:44:14.009Z</time>
      </trkpt>
      <trkpt lat="41.940795" lon="2.85031">
        <ele>154.0</ele>
        <time>2021-08-21T06:44:15.031Z</time>
      </trkpt>
      <trkpt lat="41.940795" lon="2.85031">
        <ele>154.0</ele>
        <time>2021-08-21T06:44:15.999Z</time>
      </trkpt>
      <trkpt lat="41.94080667" lon="2.85026167">
        <ele>154.0</ele>
        <time>2021-08-21T06:44:17.014Z</time>
      </trkpt>
      <trkpt lat="41.940815" lon="2.85024333">
        <ele>155.0</ele>
        <time>2021-08-21T06:44:18.028Z</time>
      </trkpt>
      <trkpt lat="41.940815" lon="2.85024333">
        <ele>155.0</ele>
        <time>2021-08-21T06:44:19.001Z</time>
      </trkpt>
      <trkpt lat="41.940835" lon="2.85023167">
        <ele>155.0</ele>
        <time>2021-08-21T06:44:19.997Z</time>
      </trkpt>
      <trkpt lat="41.94083667" lon="2.85023667">
        <ele>155.0</ele>
        <time>2021-08-21T06:44:21.017Z</time>
      </trkpt>
      <trkpt lat="41.94083667" lon="2.85023667">
        <ele>155.0</ele>
        <time>2021-08-21T06:44:22.002Z</time>
      </trkpt>
      <trkpt lat="41.94084333" lon="2.85024167">
        <ele>156.0</ele>
        <time>2021-08-21T06:44:23.023Z</time>
      </trkpt>
      <trkpt lat="41.94094667" lon="2.8503">
        <ele>158.0</ele>
        <time>2021-08-21T06:44:24.012Z</time>
      </trkpt>
      <trkpt lat="41.94094667" lon="2.8503">
        <ele>158.0</ele>
        <time>2021-08-21T06:44:24.999Z</time>
      </trkpt>
      <trkpt lat="41.94095667" lon="2.85035">
        <ele>159.0</ele>
        <time>2021-08-21T06:44:26.025Z</time>
      </trkpt>
      <trkpt lat="41.94095667" lon="2.85035">
        <ele>159.0</ele>
        <time>2021-08-21T06:44:27.010Z</time>
      </trkpt>
      <trkpt lat="41.94098167" lon="2.85039833">
        <ele>159.0</ele>
        <time>2021-08-21T06:44:28.008Z</time>
      </trkpt>
      <trkpt lat="41.94098167" lon="2.85039833">
        <ele>159.0</ele>
        <time>2021-08-21T06:44:29.015Z</time>
      </trkpt>
      <trkpt lat="41.94100667" lon="2.850435">
        <ele>159.0</ele>
        <time>2021-08-21T06:44:30.025Z</time>
      </trkpt>
      <trkpt lat="41.94102667" lon="2.850445">
        <ele>159.0</ele>
        <time>2021-08-21T06:44:31.000Z</time>
      </trkpt>
      <trkpt lat="41.94102667" lon="2.850445">
        <ele>159.0</ele>
        <time>2021-08-21T06:44:32.007Z</time>
      </trkpt>
      <trkpt lat="41.94107" lon="2.850465">
        <ele>160.0</ele>
        <time>2021-08-21T06:44:33.031Z</time>
      </trkpt>
      <trkpt lat="41.94108667" lon="2.85045667">
        <ele>160.0</ele>
        <time>2021-08-21T06:44:34.014Z</time>
      </trkpt>
      <trkpt lat="41.94108667" lon="2.85045667">
        <ele>160.0</ele>
        <time>2021-08-21T06:44:35.023Z</time>
      </trkpt>
      <trkpt lat="41.94113" lon="2.85044333">
        <ele>160.0</ele>
        <time>2021-08-21T06:44:36.005Z</time>
      </trkpt>
      <trkpt lat="41.94113" lon="2.85044333">
        <ele>160.0</ele>
        <time>2021-08-21T06:44:37.012Z</time>
      </trkpt>
      <trkpt lat="41.941165" lon="2.85041667">
        <ele>160.0</ele>
        <time>2021-08-21T06:44:38.001Z</time>
      </trkpt>
      <trkpt lat="41.941165" lon="2.85041667">
        <ele>160.0</ele>
        <time>2021-08-21T06:44:39.008Z</time>
      </trkpt>
      <trkpt lat="41.941195" lon="2.850385">
        <ele>161.0</ele>
        <time>2021-08-21T06:44:40.025Z</time>
      </trkpt>
      <trkpt lat="41.94120833" lon="2.85037667">
        <ele>161.0</ele>
        <time>2021-08-21T06:44:41.005Z</time>
      </trkpt>
      <trkpt lat="41.94122" lon="2.85037">
        <ele>161.0</ele>
        <time>2021-08-21T06:44:42.025Z</time>
      </trkpt>
      <trkpt lat="41.94122" lon="2.85037">
        <ele>161.0</ele>
        <time>2021-08-21T06:44:42.992Z</time>
      </trkpt>
      <trkpt lat="41.941245" lon="2.85034667">
        <ele>162.0</ele>
        <time>2021-08-21T06:44:44.027Z</time>
      </trkpt>
      <trkpt lat="41.94125833" lon="2.85033333">
        <ele>162.0</ele>
        <time>2021-08-21T06:44:45.007Z</time>
      </trkpt>
      <trkpt lat="41.94125833" lon="2.85033333">
        <ele>162.0</ele>
        <time>2021-08-21T06:44:46.016Z</time>
      </trkpt>
      <trkpt lat="41.94128333" lon="2.85031">
        <ele>163.0</ele>
        <time>2021-08-21T06:44:47.031Z</time>
      </trkpt>
      <trkpt lat="41.94130167" lon="2.85030667">
        <ele>163.0</ele>
        <time>2021-08-21T06:44:48.005Z</time>
      </trkpt>
      <trkpt lat="41.94130167" lon="2.85030667">
        <ele>163.0</ele>
        <time>2021-08-21T06:44:49.012Z</time>
      </trkpt>
      <trkpt lat="41.94134333" lon="2.85031667">
        <ele>163.0</ele>
        <time>2021-08-21T06:44:49.993Z</time>
      </trkpt>
      <trkpt lat="41.94134333" lon="2.85031667">
        <ele>163.0</ele>
        <time>2021-08-21T06:44:50.999Z</time>
      </trkpt>
      <trkpt lat="41.94137667" lon="2.85033333">
        <ele>163.0</ele>
        <time>2021-08-21T06:44:52.029Z</time>
      </trkpt>
      <trkpt lat="41.941385" lon="2.85034333">
        <ele>163.0</ele>
        <time>2021-08-21T06:44:53.012Z</time>
      </trkpt>
      <trkpt lat="41.941385" lon="2.85034333">
        <ele>163.0</ele>
        <time>2021-08-21T06:44:54.019Z</time>
      </trkpt>
      <trkpt lat="41.94140333" lon="2.85036833">
        <ele>163.0</ele>
        <time>2021-08-21T06:44:55.007Z</time>
      </trkpt>
      <trkpt lat="41.94140333" lon="2.85036833">
        <ele>163.0</ele>
        <time>2021-08-21T06:44:56.013Z</time>
      </trkpt>
      <trkpt lat="41.941425" lon="2.85039">
        <ele>163.0</ele>
        <time>2021-08-21T06:44:57.030Z</time>
      </trkpt>
      <trkpt lat="41.94144167" lon="2.850405">
        <ele>163.0</ele>
        <time>2021-08-21T06:44:58.027Z</time>
      </trkpt>
      <trkpt lat="41.941455" lon="2.85041833">
        <ele>164.0</ele>
        <time>2021-08-21T06:44:59.009Z</time>
      </trkpt>
      <trkpt lat="41.941455" lon="2.85041833">
        <ele>164.0</ele>
        <time>2021-08-21T06:45:00.016Z</time>
      </trkpt>
      <trkpt lat="41.94147667" lon="2.850455">
        <ele>164.0</ele>
        <time>2021-08-21T06:45:00.997Z</time>
      </trkpt>
      <trkpt lat="41.94147667" lon="2.850455">
        <ele>164.0</ele>
        <time>2021-08-21T06:45:02.026Z</time>
      </trkpt>
      <trkpt lat="41.941515" lon="2.850485">
        <ele>164.0</ele>
        <time>2021-08-21T06:45:02.998Z</time>
      </trkpt>
      <trkpt lat="41.941515" lon="2.850485">
        <ele>164.0</ele>
        <time>2021-08-21T06:45:04.004Z</time>
      </trkpt>
      <trkpt lat="41.941565" lon="2.85050167">
        <ele>164.0</ele>
        <time>2021-08-21T06:45:05.029Z</time>
      </trkpt>
      <trkpt lat="41.941585" lon="2.8505">
        <ele>164.0</ele>
        <time>2021-08-21T06:45:06.012Z</time>
      </trkpt>
      <trkpt lat="41.941585" lon="2.8505">
        <ele>164.0</ele>
        <time>2021-08-21T06:45:07.019Z</time>
      </trkpt>
      <trkpt lat="41.94160667" lon="2.85048">
        <ele>164.0</ele>
        <time>2021-08-21T06:45:08.004Z</time>
      </trkpt>
      <trkpt lat="41.94160667" lon="2.85048">
        <ele>164.0</ele>
        <time>2021-08-21T06:45:09.011Z</time>
      </trkpt>
      <trkpt lat="41.94162167" lon="2.850445">
        <ele>164.0</ele>
        <time>2021-08-21T06:45:10.030Z</time>
      </trkpt>
      <trkpt lat="41.94163" lon="2.85042">
        <ele>164.0</ele>
        <time>2021-08-21T06:45:11.005Z</time>
      </trkpt>
      <trkpt lat="41.94163" lon="2.85042">
        <ele>164.0</ele>
        <time>2021-08-21T06:45:12.012Z</time>
      </trkpt>
      <trkpt lat="41.94165" lon="2.85037167">
        <ele>165.0</ele>
        <time>2021-08-21T06:45:12.994Z</time>
      </trkpt>
      <trkpt lat="41.941665" lon="2.85035167">
        <ele>165.0</ele>
        <time>2021-08-21T06:45:14.013Z</time>
      </trkpt>
      <trkpt lat="41.94167833" lon="2.85033833">
        <ele>165.0</ele>
        <time>2021-08-21T06:45:15.010Z</time>
      </trkpt>
      <trkpt lat="41.94167833" lon="2.85033833">
        <ele>165.0</ele>
        <time>2021-08-21T06:45:16.017Z</time>
      </trkpt>
      <trkpt lat="41.94169667" lon="2.85031333">
        <ele>165.0</ele>
        <time>2021-08-21T06:45:16.992Z</time>
      </trkpt>
      <trkpt lat="41.94170667" lon="2.850305">
        <ele>166.0</ele>
        <time>2021-08-21T06:45:18.020Z</time>
      </trkpt>
      <trkpt lat="41.94170667" lon="2.850305">
        <ele>166.0</ele>
        <time>2021-08-21T06:45:19.027Z</time>
      </trkpt>
      <trkpt lat="41.94173667" lon="2.85030333">
        <ele>166.0</ele>
        <time>2021-08-21T06:45:20.016Z</time>
      </trkpt>
      <trkpt lat="41.94175333" lon="2.85030667">
        <ele>166.0</ele>
        <time>2021-08-21T06:45:20.995Z</time>
      </trkpt>
      <trkpt lat="41.94175333" lon="2.85030667">
        <ele>166.0</ele>
        <time>2021-08-21T06:45:22.002Z</time>
      </trkpt>
      <trkpt lat="41.94178667" lon="2.850315">
        <ele>167.0</ele>
        <time>2021-08-21T06:45:23.012Z</time>
      </trkpt>
      <trkpt lat="41.94180167" lon="2.85030833">
        <ele>167.0</ele>
        <time>2021-08-21T06:45:24.026Z</time>
      </trkpt>
      <trkpt lat="41.94180167" lon="2.85030833">
        <ele>167.0</ele>
        <time>2021-08-21T06:45:24.993Z</time>
      </trkpt>
      <trkpt lat="41.94184" lon="2.85031167">
        <ele>168.0</ele>
        <time>2021-08-21T06:45:26.009Z</time>
      </trkpt>
      <trkpt lat="41.94184" lon="2.85031167">
        <ele>168.0</ele>
        <time>2021-08-21T06:45:27.016Z</time>
      </trkpt>
      <trkpt lat="41.94189167" lon="2.85032667">
        <ele>168.0</ele>
        <time>2021-08-21T06:45:28.004Z</time>
      </trkpt>
      <trkpt lat="41.94189167" lon="2.85032667">
        <ele>168.0</ele>
        <time>2021-08-21T06:45:29.016Z</time>
      </trkpt>
      <trkpt lat="41.94195333" lon="2.85032167">
        <ele>169.0</ele>
        <time>2021-08-21T06:45:29.993Z</time>
      </trkpt>
      <trkpt lat="41.94195333" lon="2.85032167">
        <ele>169.0</ele>
        <time>2021-08-21T06:45:31.001Z</time>
      </trkpt>
      <trkpt lat="41.94200333" lon="2.85030667">
        <ele>169.0</ele>
        <time>2021-08-21T06:45:31.993Z</time>
      </trkpt>
      <trkpt lat="41.94200333" lon="2.85030667">
        <ele>169.0</ele>
        <time>2021-08-21T06:45:33.001Z</time>
      </trkpt>
      <trkpt lat="41.94206667" lon="2.85029167">
        <ele>169.0</ele>
        <time>2021-08-21T06:45:34.013Z</time>
      </trkpt>
      <trkpt lat="41.94206667" lon="2.85029167">
        <ele>169.0</ele>
        <time>2021-08-21T06:45:35.022Z</time>
      </trkpt>
      <trkpt lat="41.94212667" lon="2.850315">
        <ele>169.0</ele>
        <time>2021-08-21T06:45:36.003Z</time>
      </trkpt>
      <trkpt lat="41.94212667" lon="2.850315">
        <ele>169.0</ele>
        <time>2021-08-21T06:45:37.009Z</time>
      </trkpt>
      <trkpt lat="41.94217333" lon="2.850325">
        <ele>168.0</ele>
        <time>2021-08-21T06:45:38.031Z</time>
      </trkpt>
      <trkpt lat="41.94219833" lon="2.85033167">
        <ele>168.0</ele>
        <time>2021-08-21T06:45:39.001Z</time>
      </trkpt>
      <trkpt lat="41.94219833" lon="2.85033167">
        <ele>168.0</ele>
        <time>2021-08-21T06:45:40.007Z</time>
      </trkpt>
      <trkpt lat="41.94224833" lon="2.85031">
        <ele>168.0</ele>
        <time>2021-08-21T06:45:41.022Z</time>
      </trkpt>
      <trkpt lat="41.94227" lon="2.85028833">
        <ele>168.0</ele>
        <time>2021-08-21T06:45:42.007Z</time>
      </trkpt>
      <trkpt lat="41.94227" lon="2.85028833">
        <ele>168.0</ele>
        <time>2021-08-21T06:45:43.015Z</time>
      </trkpt>
      <trkpt lat="41.94232167" lon="2.85023833">
        <ele>168.0</ele>
        <time>2021-08-21T06:45:44.001Z</time>
      </trkpt>
      <trkpt lat="41.942355" lon="2.85020333">
        <ele>167.0</ele>
        <time>2021-08-21T06:45:45.016Z</time>
      </trkpt>
      <trkpt lat="41.942355" lon="2.85020333">
        <ele>167.0</ele>
        <time>2021-08-21T06:45:46.000Z</time>
      </trkpt>
      <trkpt lat="41.94240167" lon="2.85011333">
        <ele>167.0</ele>
        <time>2021-08-21T06:45:46.992Z</time>
      </trkpt>
      <trkpt lat="41.942415" lon="2.85007833">
        <ele>167.0</ele>
        <time>2021-08-21T06:45:48.021Z</time>
      </trkpt>
      <trkpt lat="41.942415" lon="2.85007833">
        <ele>167.0</ele>
        <time>2021-08-21T06:45:49.028Z</time>
      </trkpt>
      <trkpt lat="41.94243667" lon="2.85003">
        <ele>167.0</ele>
        <time>2021-08-21T06:45:50.003Z</time>
      </trkpt>
      <trkpt lat="41.94243667" lon="2.85003">
        <ele>167.0</ele>
        <time>2021-08-21T06:45:51.009Z</time>
      </trkpt>
      <trkpt lat="41.94247333" lon="2.84998833">
        <ele>167.0</ele>
        <time>2021-08-21T06:45:52.024Z</time>
      </trkpt>
      <trkpt lat="41.94247333" lon="2.84998833">
        <ele>167.0</ele>
        <time>2021-08-21T06:45:52.992Z</time>
      </trkpt>
      <trkpt lat="41.942525" lon="2.84997833">
        <ele>166.0</ele>
        <time>2021-08-21T06:45:54.012Z</time>
      </trkpt>
      <trkpt lat="41.942525" lon="2.84997833">
        <ele>166.0</ele>
        <time>2021-08-21T06:45:55.021Z</time>
      </trkpt>
      <trkpt lat="41.94260833" lon="2.85000667">
        <ele>166.0</ele>
        <time>2021-08-21T06:45:55.997Z</time>
      </trkpt>
      <trkpt lat="41.94265667" lon="2.850035">
        <ele>166.0</ele>
        <time>2021-08-21T06:45:57.024Z</time>
      </trkpt>
      <trkpt lat="41.94265667" lon="2.850035">
        <ele>166.0</ele>
        <time>2021-08-21T06:45:58.030Z</time>
      </trkpt>
      <trkpt lat="41.94274667" lon="2.85011333">
        <ele>165.0</ele>
        <time>2021-08-21T06:45:59.152Z</time>
      </trkpt>
      <trkpt lat="41.94274667" lon="2.85011333">
        <ele>165.0</ele>
        <time>2021-08-21T06:46:00.002Z</time>
      </trkpt>
      <trkpt lat="41.94281667" lon="2.85020667">
        <ele>164.0</ele>
        <time>2021-08-21T06:46:01.024Z</time>
      </trkpt>
      <trkpt lat="41.94283833" lon="2.850265">
        <ele>164.0</ele>
        <time>2021-08-21T06:46:02.031Z</time>
      </trkpt>
      <trkpt lat="41.94283833" lon="2.850265">
        <ele>164.0</ele>
        <time>2021-08-21T06:46:02.999Z</time>
      </trkpt>
      <trkpt lat="41.94287167" lon="2.85038">
        <ele>163.0</ele>
        <time>2021-08-21T06:46:04.021Z</time>
      </trkpt>
      <trkpt lat="41.94287167" lon="2.85038">
        <ele>163.0</ele>
        <time>2021-08-21T06:46:05.028Z</time>
      </trkpt>
      <trkpt lat="41.94289333" lon="2.85050667">
        <ele>162.0</ele>
        <time>2021-08-21T06:46:06.006Z</time>
      </trkpt>
      <trkpt lat="41.94289333" lon="2.85050667">
        <ele>162.0</ele>
        <time>2021-08-21T06:46:07.012Z</time>
      </trkpt>
      <trkpt lat="41.94288833" lon="2.85064">
        <ele>161.0</ele>
        <time>2021-08-21T06:46:08.031Z</time>
      </trkpt>
      <trkpt lat="41.94288833" lon="2.85064">
        <ele>161.0</ele>
        <time>2021-08-21T06:46:08.997Z</time>
      </trkpt>
      <trkpt lat="41.94292" lon="2.85073667">
        <ele>160.0</ele>
        <time>2021-08-21T06:46:10.028Z</time>
      </trkpt>
      <trkpt lat="41.94292" lon="2.85073667">
        <ele>160.0</ele>
        <time>2021-08-21T06:46:10.995Z</time>
      </trkpt>
      <trkpt lat="41.94298" lon="2.85080667">
        <ele>160.0</ele>
        <time>2021-08-21T06:46:12.017Z</time>
      </trkpt>
      <trkpt lat="41.94302167" lon="2.850845">
        <ele>159.0</ele>
        <time>2021-08-21T06:46:12.994Z</time>
      </trkpt>
      <trkpt lat="41.94302167" lon="2.850845">
        <ele>159.0</ele>
        <time>2021-08-21T06:46:14.001Z</time>
      </trkpt>
      <trkpt lat="41.94308667" lon="2.85091667">
        <ele>159.0</ele>
        <time>2021-08-21T06:46:15.019Z</time>
      </trkpt>
      <trkpt lat="41.94308667" lon="2.85091667">
        <ele>159.0</ele>
        <time>2021-08-21T06:46:16.029Z</time>
      </trkpt>
      <trkpt lat="41.94315833" lon="2.85095167">
        <ele>159.0</ele>
        <time>2021-08-21T06:46:16.998Z</time>
      </trkpt>
      <trkpt lat="41.94320167" lon="2.85096167">
        <ele>158.0</ele>
        <time>2021-08-21T06:46:18.019Z</time>
      </trkpt>
      <trkpt lat="41.94320167" lon="2.85096167">
        <ele>158.0</ele>
        <time>2021-08-21T06:46:19.029Z</time>
      </trkpt>
      <trkpt lat="41.94328833" lon="2.85098833">
        <ele>158.0</ele>
        <time>2021-08-21T06:46:20.024Z</time>
      </trkpt>
      <trkpt lat="41.94333167" lon="2.85101667">
        <ele>158.0</ele>
        <time>2021-08-21T06:46:20.998Z</time>
      </trkpt>
      <trkpt lat="41.94333167" lon="2.85101667">
        <ele>158.0</ele>
        <time>2021-08-21T06:46:22.005Z</time>
      </trkpt>
      <trkpt lat="41.94341167" lon="2.85111333">
        <ele>157.0</ele>
        <time>2021-08-21T06:46:23.025Z</time>
      </trkpt>
      <trkpt lat="41.94345333" lon="2.85116333">
        <ele>157.0</ele>
        <time>2021-08-21T06:46:24.021Z</time>
      </trkpt>
      <trkpt lat="41.94345333" lon="2.85116333">
        <ele>157.0</ele>
        <time>2021-08-21T06:46:25.028Z</time>
      </trkpt>
      <trkpt lat="41.943555" lon="2.85123167">
        <ele>157.0</ele>
        <time>2021-08-21T06:46:26.013Z</time>
      </trkpt>
      <trkpt lat="41.943555" lon="2.85123167">
        <ele>157.0</ele>
        <time>2021-08-21T06:46:27.022Z</time>
      </trkpt>
      <trkpt lat="41.94364667" lon="2.85125333">
        <ele>156.0</ele>
        <time>2021-08-21T06:46:27.997Z</time>
      </trkpt>
      <trkpt lat="41.94364667" lon="2.85125333">
        <ele>156.0</ele>
        <time>2021-08-21T06:46:29.003Z</time>
      </trkpt>
      <trkpt lat="41.94374333" lon="2.851275">
        <ele>156.0</ele>
        <time>2021-08-21T06:46:29.994Z</time>
      </trkpt>
      <trkpt lat="41.94374333" lon="2.851275">
        <ele>156.0</ele>
        <time>2021-08-21T06:46:31.000Z</time>
      </trkpt>
      <trkpt lat="41.94381833" lon="2.851285">
        <ele>155.0</ele>
        <time>2021-08-21T06:46:32.020Z</time>
      </trkpt>
      <trkpt lat="41.94384333" lon="2.85128833">
        <ele>155.0</ele>
        <time>2021-08-21T06:46:33.008Z</time>
      </trkpt>
      <trkpt lat="41.94386333" lon="2.85129167">
        <ele>155.0</ele>
        <time>2021-08-21T06:46:34.027Z</time>
      </trkpt>
      <trkpt lat="41.94386333" lon="2.85129167">
        <ele>155.0</ele>
        <time>2021-08-21T06:46:34.996Z</time>
      </trkpt>
      <trkpt lat="41.94390667" lon="2.85131">
        <ele>154.0</ele>
        <time>2021-08-21T06:46:36.020Z</time>
      </trkpt>
      <trkpt lat="41.94390667" lon="2.85131">
        <ele>154.0</ele>
        <time>2021-08-21T06:46:37.027Z</time>
      </trkpt>
      <trkpt lat="41.94396333" lon="2.85135167">
        <ele>155.0</ele>
        <time>2021-08-21T06:46:37.999Z</time>
      </trkpt>
      <trkpt lat="41.94400333" lon="2.85135667">
        <ele>154.0</ele>
        <time>2021-08-21T06:46:38.997Z</time>
      </trkpt>
      <trkpt lat="41.94400333" lon="2.85135667">
        <ele>154.0</ele>
        <time>2021-08-21T06:46:40.004Z</time>
      </trkpt>
      <trkpt lat="41.94407167" lon="2.85128">
        <ele>154.0</ele>
        <time>2021-08-21T06:46:41.028Z</time>
      </trkpt>
      <trkpt lat="41.944095" lon="2.851225">
        <ele>155.0</ele>
        <time>2021-08-21T06:46:42.007Z</time>
      </trkpt>
      <trkpt lat="41.944095" lon="2.851225">
        <ele>155.0</ele>
        <time>2021-08-21T06:46:43.018Z</time>
      </trkpt>
      <trkpt lat="41.94414833" lon="2.85113167">
        <ele>154.0</ele>
        <time>2021-08-21T06:46:43.995Z</time>
      </trkpt>
      <trkpt lat="41.94414833" lon="2.85113167">
        <ele>154.0</ele>
        <time>2021-08-21T06:46:45.002Z</time>
      </trkpt>
      <trkpt lat="41.94418667" lon="2.851025">
        <ele>153.0</ele>
        <time>2021-08-21T06:46:46.025Z</time>
      </trkpt>
      <trkpt lat="41.94419833" lon="2.85095167">
        <ele>152.0</ele>
        <time>2021-08-21T06:46:47.004Z</time>
      </trkpt>
      <trkpt lat="41.94419833" lon="2.85095167">
        <ele>152.0</ele>
        <time>2021-08-21T06:46:48.013Z</time>
      </trkpt>
      <trkpt lat="41.94424167" lon="2.85079833">
        <ele>149.0</ele>
        <time>2021-08-21T06:46:49.031Z</time>
      </trkpt>
      <trkpt lat="41.944255" lon="2.85072333">
        <ele>148.0</ele>
        <time>2021-08-21T06:46:50.001Z</time>
      </trkpt>
      <trkpt lat="41.944255" lon="2.85072333">
        <ele>148.0</ele>
        <time>2021-08-21T06:46:51.007Z</time>
      </trkpt>
      <trkpt lat="41.94430667" lon="2.850575">
        <ele>146.0</ele>
        <time>2021-08-21T06:46:52.029Z</time>
      </trkpt>
      <trkpt lat="41.94430667" lon="2.850575">
        <ele>146.0</ele>
        <time>2021-08-21T06:46:52.998Z</time>
      </trkpt>
      <trkpt lat="41.94439" lon="2.85043833">
        <ele>145.0</ele>
        <time>2021-08-21T06:46:54.014Z</time>
      </trkpt>
      <trkpt lat="41.94444333" lon="2.85038167">
        <ele>144.0</ele>
        <time>2021-08-21T06:46:55.027Z</time>
      </trkpt>
      <trkpt lat="41.94444333" lon="2.85038167">
        <ele>144.0</ele>
        <time>2021-08-21T06:46:55.994Z</time>
      </trkpt>
      <trkpt lat="41.94456" lon="2.85030333">
        <ele>142.0</ele>
        <time>2021-08-21T06:46:57.014Z</time>
      </trkpt>
      <trkpt lat="41.94461833" lon="2.85029167">
        <ele>141.0</ele>
        <time>2021-08-21T06:46:57.996Z</time>
      </trkpt>
      <trkpt lat="41.94461833" lon="2.85029167">
        <ele>141.0</ele>
        <time>2021-08-21T06:46:59.003Z</time>
      </trkpt>
      <trkpt lat="41.94472667" lon="2.85030667">
        <ele>140.0</ele>
        <time>2021-08-21T06:47:00.015Z</time>
      </trkpt>
      <trkpt lat="41.94472667" lon="2.85030667">
        <ele>140.0</ele>
        <time>2021-08-21T06:47:01.022Z</time>
      </trkpt>
      <trkpt lat="41.94482" lon="2.85038833">
        <ele>139.0</ele>
        <time>2021-08-21T06:47:01.999Z</time>
      </trkpt>
      <trkpt lat="41.94482" lon="2.85038833">
        <ele>139.0</ele>
        <time>2021-08-21T06:47:02.997Z</time>
      </trkpt>
      <trkpt lat="41.94488667" lon="2.85051833">
        <ele>138.0</ele>
        <time>2021-08-21T06:47:04.016Z</time>
      </trkpt>
      <trkpt lat="41.94491833" lon="2.85058">
        <ele>138.0</ele>
        <time>2021-08-21T06:47:04.995Z</time>
      </trkpt>
      <trkpt lat="41.94491833" lon="2.85058">
        <ele>138.0</ele>
        <time>2021-08-21T06:47:06.003Z</time>
      </trkpt>
      <trkpt lat="41.944995" lon="2.85069833">
        <ele>137.0</ele>
        <time>2021-08-21T06:47:07.014Z</time>
      </trkpt>
      <trkpt lat="41.944995" lon="2.85069833">
        <ele>137.0</ele>
        <time>2021-08-21T06:47:08.021Z</time>
      </trkpt>
      <trkpt lat="41.94510833" lon="2.85078667">
        <ele>136.0</ele>
        <time>2021-08-21T06:47:08.996Z</time>
      </trkpt>
      <trkpt lat="41.94516833" lon="2.85082167">
        <ele>135.0</ele>
        <time>2021-08-21T06:47:10.013Z</time>
      </trkpt>
      <trkpt lat="41.94516833" lon="2.85082167">
        <ele>135.0</ele>
        <time>2021-08-21T06:47:11.022Z</time>
      </trkpt>
      <trkpt lat="41.94528833" lon="2.8509">
        <ele>134.0</ele>
        <time>2021-08-21T06:47:12.002Z</time>
      </trkpt>
      <trkpt lat="41.94528833" lon="2.8509">
        <ele>134.0</ele>
        <time>2021-08-21T06:47:13.008Z</time>
      </trkpt>
      <trkpt lat="41.94538" lon="2.85100833">
        <ele>133.0</ele>
        <time>2021-08-21T06:47:13.995Z</time>
      </trkpt>
      <trkpt lat="41.94538" lon="2.85100833">
        <ele>133.0</ele>
        <time>2021-08-21T06:47:15.001Z</time>
      </trkpt>
      <trkpt lat="41.945435" lon="2.85116167">
        <ele>132.0</ele>
        <time>2021-08-21T06:47:16.023Z</time>
      </trkpt>
      <trkpt lat="41.945435" lon="2.85116167">
        <ele>132.0</ele>
        <time>2021-08-21T06:47:17.028Z</time>
      </trkpt>
      <trkpt lat="41.94552833" lon="2.85126">
        <ele>132.0</ele>
        <time>2021-08-21T06:47:18.014Z</time>
      </trkpt>
      <trkpt lat="41.94552833" lon="2.85126">
        <ele>132.0</ele>
        <time>2021-08-21T06:47:19.022Z</time>
      </trkpt>
      <trkpt lat="41.94562667" lon="2.85124833">
        <ele>132.0</ele>
        <time>2021-08-21T06:47:20.000Z</time>
      </trkpt>
      <trkpt lat="41.94562667" lon="2.85124833">
        <ele>132.0</ele>
        <time>2021-08-21T06:47:21.006Z</time>
      </trkpt>
      <trkpt lat="41.94569" lon="2.851215">
        <ele>131.0</ele>
        <time>2021-08-21T06:47:21.995Z</time>
      </trkpt>
      <trkpt lat="41.94569" lon="2.851215">
        <ele>131.0</ele>
        <time>2021-08-21T06:47:23.001Z</time>
      </trkpt>
      <trkpt lat="41.945725" lon="2.85120333">
        <ele>132.0</ele>
        <time>2021-08-21T06:47:24.018Z</time>
      </trkpt>
      <trkpt lat="41.945725" lon="2.85120333">
        <ele>132.0</ele>
        <time>2021-08-21T06:47:25.025Z</time>
      </trkpt>
      <trkpt lat="41.94575167" lon="2.85119333">
        <ele>131.0</ele>
        <time>2021-08-21T06:47:26.001Z</time>
      </trkpt>
      <trkpt lat="41.94575167" lon="2.85119333">
        <ele>131.0</ele>
        <time>2021-08-21T06:47:27.008Z</time>
      </trkpt>
      <trkpt lat="41.94579833" lon="2.85118667">
        <ele>131.0</ele>
        <time>2021-08-21T06:47:28.031Z</time>
      </trkpt>
      <trkpt lat="41.94583667" lon="2.851175">
        <ele>131.0</ele>
        <time>2021-08-21T06:47:29.009Z</time>
      </trkpt>
      <trkpt lat="41.94588" lon="2.85114833">
        <ele>131.0</ele>
        <time>2021-08-21T06:47:30.011Z</time>
      </trkpt>
      <trkpt lat="41.94588" lon="2.85114833">
        <ele>131.0</ele>
        <time>2021-08-21T06:47:31.018Z</time>
      </trkpt>
      <trkpt lat="41.94592" lon="2.85104667">
        <ele>131.0</ele>
        <time>2021-08-21T06:47:32.004Z</time>
      </trkpt>
      <trkpt lat="41.94592167" lon="2.85099667">
        <ele>131.0</ele>
        <time>2021-08-21T06:47:33.025Z</time>
      </trkpt>
      <trkpt lat="41.94592167" lon="2.85099667">
        <ele>131.0</ele>
        <time>2021-08-21T06:47:34.032Z</time>
      </trkpt>
      <trkpt lat="41.94591667" lon="2.850905">
        <ele>130.0</ele>
        <time>2021-08-21T06:47:35.003Z</time>
      </trkpt>
      <trkpt lat="41.94591667" lon="2.850905">
        <ele>130.0</ele>
        <time>2021-08-21T06:47:36.009Z</time>
      </trkpt>
      <trkpt lat="41.94590667" lon="2.85080333">
        <ele>130.0</ele>
        <time>2021-08-21T06:47:37.023Z</time>
      </trkpt>
      <trkpt lat="41.94589667" lon="2.850745">
        <ele>130.0</ele>
        <time>2021-08-21T06:47:38.009Z</time>
      </trkpt>
      <trkpt lat="41.94589667" lon="2.850745">
        <ele>130.0</ele>
        <time>2021-08-21T06:47:39.017Z</time>
      </trkpt>
      <trkpt lat="41.94588667" lon="2.85065667">
        <ele>131.0</ele>
        <time>2021-08-21T06:47:40.003Z</time>
      </trkpt>
      <trkpt lat="41.94588667" lon="2.85065667">
        <ele>131.0</ele>
        <time>2021-08-21T06:47:41.010Z</time>
      </trkpt>
      <trkpt lat="41.94588167" lon="2.85057667">
        <ele>131.0</ele>
        <time>2021-08-21T06:47:42.030Z</time>
      </trkpt>
      <trkpt lat="41.94588167" lon="2.85057667">
        <ele>131.0</ele>
        <time>2021-08-21T06:47:42.996Z</time>
      </trkpt>
      <trkpt lat="41.945875" lon="2.85048667">
        <ele>131.0</ele>
        <time>2021-08-21T06:47:44.017Z</time>
      </trkpt>
      <trkpt lat="41.945875" lon="2.85048667">
        <ele>131.0</ele>
        <time>2021-08-21T06:47:45.023Z</time>
      </trkpt>
      <trkpt lat="41.94587" lon="2.85041167">
        <ele>132.0</ele>
        <time>2021-08-21T06:47:46.006Z</time>
      </trkpt>
      <trkpt lat="41.94587" lon="2.85037833">
        <ele>132.0</ele>
        <time>2021-08-21T06:47:47.028Z</time>
      </trkpt>
      <trkpt lat="41.94587333" lon="2.850345">
        <ele>132.0</ele>
        <time>2021-08-21T06:47:48.004Z</time>
      </trkpt>
      <trkpt lat="41.94587333" lon="2.850345">
        <ele>132.0</ele>
        <time>2021-08-21T06:47:49.011Z</time>
      </trkpt>
      <trkpt lat="41.94587667" lon="2.85027">
        <ele>133.0</ele>
        <time>2021-08-21T06:47:50.031Z</time>
      </trkpt>
      <trkpt lat="41.94588167" lon="2.85024">
        <ele>133.0</ele>
        <time>2021-08-21T06:47:51.008Z</time>
      </trkpt>
      <trkpt lat="41.94588167" lon="2.85024">
        <ele>133.0</ele>
        <time>2021-08-21T06:47:52.014Z</time>
      </trkpt>
      <trkpt lat="41.94588833" lon="2.85018">
        <ele>134.0</ele>
        <time>2021-08-21T06:47:52.993Z</time>
      </trkpt>
      <trkpt lat="41.94589333" lon="2.85015">
        <ele>134.0</ele>
        <time>2021-08-21T06:47:54.027Z</time>
      </trkpt>
      <trkpt lat="41.94589333" lon="2.85015">
        <ele>134.0</ele>
        <time>2021-08-21T06:47:54.995Z</time>
      </trkpt>
      <trkpt lat="41.94591667" lon="2.85009">
        <ele>135.0</ele>
        <time>2021-08-21T06:47:56.006Z</time>
      </trkpt>
      <trkpt lat="41.94593" lon="2.85006667">
        <ele>135.0</ele>
        <time>2021-08-21T06:47:57.019Z</time>
      </trkpt>
      <trkpt lat="41.94593" lon="2.85006667">
        <ele>135.0</ele>
        <time>2021-08-21T06:47:58.025Z</time>
      </trkpt>
      <trkpt lat="41.94596" lon="2.85003">
        <ele>136.0</ele>
        <time>2021-08-21T06:47:58.999Z</time>
      </trkpt>
      <trkpt lat="41.94596" lon="2.85003">
        <ele>136.0</ele>
        <time>2021-08-21T06:48:00.006Z</time>
      </trkpt>
      <trkpt lat="41.94598667" lon="2.84999833">
        <ele>137.0</ele>
        <time>2021-08-21T06:48:01.024Z</time>
      </trkpt>
      <trkpt lat="41.94598667" lon="2.84999833">
        <ele>137.0</ele>
        <time>2021-08-21T06:48:02.011Z</time>
      </trkpt>
      <trkpt lat="41.94603167" lon="2.84999">
        <ele>137.0</ele>
        <time>2021-08-21T06:48:03.003Z</time>
      </trkpt>
      <trkpt lat="41.94605667" lon="2.85000167">
        <ele>138.0</ele>
        <time>2021-08-21T06:48:04.006Z</time>
      </trkpt>
      <trkpt lat="41.94605667" lon="2.85000167">
        <ele>138.0</ele>
        <time>2021-08-21T06:48:05.013Z</time>
      </trkpt>
      <trkpt lat="41.94609167" lon="2.85003333">
        <ele>138.0</ele>
        <time>2021-08-21T06:48:06.031Z</time>
      </trkpt>
      <trkpt lat="41.94609167" lon="2.85003333">
        <ele>138.0</ele>
        <time>2021-08-21T06:48:06.999Z</time>
      </trkpt>
      <trkpt lat="41.94613" lon="2.85006167">
        <ele>138.0</ele>
        <time>2021-08-21T06:48:08.027Z</time>
      </trkpt>
      <trkpt lat="41.946155" lon="2.85007">
        <ele>138.0</ele>
        <time>2021-08-21T06:48:09.011Z</time>
      </trkpt>
      <trkpt lat="41.946155" lon="2.85007">
        <ele>138.0</ele>
        <time>2021-08-21T06:48:10.017Z</time>
      </trkpt>
      <trkpt lat="41.946195" lon="2.85010333">
        <ele>139.0</ele>
        <time>2021-08-21T06:48:11.000Z</time>
      </trkpt>
      <trkpt lat="41.946195" lon="2.85010333">
        <ele>139.0</ele>
        <time>2021-08-21T06:48:12.006Z</time>
      </trkpt>
      <trkpt lat="41.94622833" lon="2.85015">
        <ele>139.0</ele>
        <time>2021-08-21T06:48:13.029Z</time>
      </trkpt>
      <trkpt lat="41.94622833" lon="2.85015">
        <ele>139.0</ele>
        <time>2021-08-21T06:48:13.996Z</time>
      </trkpt>
      <trkpt lat="41.946255" lon="2.850205">
        <ele>140.0</ele>
        <time>2021-08-21T06:48:15.015Z</time>
      </trkpt>
      <trkpt lat="41.946255" lon="2.850205">
        <ele>140.0</ele>
        <time>2021-08-21T06:48:16.022Z</time>
      </trkpt>
      <trkpt lat="41.94627667" lon="2.850255">
        <ele>140.0</ele>
        <time>2021-08-21T06:48:17.009Z</time>
      </trkpt>
      <trkpt lat="41.94628667" lon="2.85028833">
        <ele>140.0</ele>
        <time>2021-08-21T06:48:18.026Z</time>
      </trkpt>
      <trkpt lat="41.94628667" lon="2.85028833">
        <ele>140.0</ele>
        <time>2021-08-21T06:48:18.992Z</time>
      </trkpt>
      <trkpt lat="41.94629667" lon="2.85034667">
        <ele>141.0</ele>
        <time>2021-08-21T06:48:20.019Z</time>
      </trkpt>
      <trkpt lat="41.94630167" lon="2.85037">
        <ele>142.0</ele>
        <time>2021-08-21T06:48:21.014Z</time>
      </trkpt>
      <trkpt lat="41.94630167" lon="2.85037">
        <ele>142.0</ele>
        <time>2021-08-21T06:48:22.022Z</time>
      </trkpt>
      <trkpt lat="41.94629833" lon="2.85041">
        <ele>142.0</ele>
        <time>2021-08-21T06:48:22.995Z</time>
      </trkpt>
      <trkpt lat="41.94629833" lon="2.85041">
        <ele>142.0</ele>
        <time>2021-08-21T06:48:24.001Z</time>
      </trkpt>
      <trkpt lat="41.94631" lon="2.85046833">
        <ele>142.0</ele>
        <time>2021-08-21T06:48:25.031Z</time>
      </trkpt>
      <trkpt lat="41.94631667" lon="2.85049333">
        <ele>142.0</ele>
        <time>2021-08-21T06:48:26.010Z</time>
      </trkpt>
      <trkpt lat="41.94633167" lon="2.85051833">
        <ele>142.0</ele>
        <time>2021-08-21T06:48:27.025Z</time>
      </trkpt>
      <trkpt lat="41.94633167" lon="2.85051833">
        <ele>142.0</ele>
        <time>2021-08-21T06:48:28.031Z</time>
      </trkpt>
      <trkpt lat="41.946365" lon="2.85057">
        <ele>142.0</ele>
        <time>2021-08-21T06:48:29.014Z</time>
      </trkpt>
      <trkpt lat="41.946365" lon="2.85057">
        <ele>142.0</ele>
        <time>2021-08-21T06:48:30.020Z</time>
      </trkpt>
      <trkpt lat="41.94640167" lon="2.85060333">
        <ele>143.0</ele>
        <time>2021-08-21T06:48:31.007Z</time>
      </trkpt>
      <trkpt lat="41.94640167" lon="2.85060333">
        <ele>143.0</ele>
        <time>2021-08-21T06:48:32.015Z</time>
      </trkpt>
      <trkpt lat="41.94643167" lon="2.85063833">
        <ele>144.0</ele>
        <time>2021-08-21T06:48:33.027Z</time>
      </trkpt>
      <trkpt lat="41.94643167" lon="2.85063833">
        <ele>144.0</ele>
        <time>2021-08-21T06:48:33.993Z</time>
      </trkpt>
      <trkpt lat="41.94646" lon="2.85067167">
        <ele>144.0</ele>
        <time>2021-08-21T06:48:35.015Z</time>
      </trkpt>
      <trkpt lat="41.94647167" lon="2.85069167">
        <ele>145.0</ele>
        <time>2021-08-21T06:48:36.030Z</time>
      </trkpt>
      <trkpt lat="41.94647167" lon="2.85069167">
        <ele>145.0</ele>
        <time>2021-08-21T06:48:36.996Z</time>
      </trkpt>
      <trkpt lat="41.94649" lon="2.850735">
        <ele>145.0</ele>
        <time>2021-08-21T06:48:38.013Z</time>
      </trkpt>
      <trkpt lat="41.94649" lon="2.850735">
        <ele>145.0</ele>
        <time>2021-08-21T06:48:39.024Z</time>
      </trkpt>
      <trkpt lat="41.946505" lon="2.85077833">
        <ele>146.0</ele>
        <time>2021-08-21T06:48:40.000Z</time>
      </trkpt>
      <trkpt lat="41.946505" lon="2.85077833">
        <ele>146.0</ele>
        <time>2021-08-21T06:48:41.006Z</time>
      </trkpt>
      <trkpt lat="41.946525" lon="2.85082833">
        <ele>146.0</ele>
        <time>2021-08-21T06:48:42.021Z</time>
      </trkpt>
      <trkpt lat="41.946535" lon="2.850855">
        <ele>146.0</ele>
        <time>2021-08-21T06:48:43.006Z</time>
      </trkpt>
      <trkpt lat="41.946535" lon="2.850855">
        <ele>146.0</ele>
        <time>2021-08-21T06:48:44.013Z</time>
      </trkpt>
      <trkpt lat="41.94656" lon="2.85090667">
        <ele>146.0</ele>
        <time>2021-08-21T06:48:45.012Z</time>
      </trkpt>
      <trkpt lat="41.94656" lon="2.85090667">
        <ele>146.0</ele>
        <time>2021-08-21T06:48:46.018Z</time>
      </trkpt>
      <trkpt lat="41.94659" lon="2.85095333">
        <ele>146.0</ele>
        <time>2021-08-21T06:48:47.001Z</time>
      </trkpt>
      <trkpt lat="41.94660333" lon="2.850975">
        <ele>146.0</ele>
        <time>2021-08-21T06:48:48.012Z</time>
      </trkpt>
      <trkpt lat="41.94660333" lon="2.850975">
        <ele>146.0</ele>
        <time>2021-08-21T06:48:49.020Z</time>
      </trkpt>
      <trkpt lat="41.94662333" lon="2.85102167">
        <ele>146.0</ele>
        <time>2021-08-21T06:48:50.005Z</time>
      </trkpt>
      <trkpt lat="41.94662333" lon="2.85102167">
        <ele>146.0</ele>
        <time>2021-08-21T06:48:51.011Z</time>
      </trkpt>
      <trkpt lat="41.94665" lon="2.85106333">
        <ele>146.0</ele>
        <time>2021-08-21T06:48:51.992Z</time>
      </trkpt>
      <trkpt lat="41.94666667" lon="2.85108167">
        <ele>147.0</ele>
        <time>2021-08-21T06:48:53.010Z</time>
      </trkpt>
      <trkpt lat="41.94668333" lon="2.85109667">
        <ele>147.0</ele>
        <time>2021-08-21T06:48:54.024Z</time>
      </trkpt>
      <trkpt lat="41.94669667" lon="2.85111">
        <ele>147.0</ele>
        <time>2021-08-21T06:48:55.003Z</time>
      </trkpt>
      <trkpt lat="41.94669667" lon="2.85111">
        <ele>147.0</ele>
        <time>2021-08-21T06:48:56.010Z</time>
      </trkpt>
      <trkpt lat="41.94672833" lon="2.85114333">
        <ele>148.0</ele>
        <time>2021-08-21T06:48:56.998Z</time>
      </trkpt>
      <trkpt lat="41.94672833" lon="2.85114333">
        <ele>148.0</ele>
        <time>2021-08-21T06:48:58.007Z</time>
      </trkpt>
      <trkpt lat="41.94676" lon="2.85118167">
        <ele>148.0</ele>
        <time>2021-08-21T06:48:59.021Z</time>
      </trkpt>
      <trkpt lat="41.94677333" lon="2.85120333">
        <ele>148.0</ele>
        <time>2021-08-21T06:49:00.005Z</time>
      </trkpt>
      <trkpt lat="41.94677333" lon="2.85120333">
        <ele>148.0</ele>
        <time>2021-08-21T06:49:01.011Z</time>
      </trkpt>
      <trkpt lat="41.94680667" lon="2.851245">
        <ele>148.0</ele>
        <time>2021-08-21T06:49:02.003Z</time>
      </trkpt>
      <trkpt lat="41.94682167" lon="2.85126333">
        <ele>148.0</ele>
        <time>2021-08-21T06:49:03.003Z</time>
      </trkpt>
      <trkpt lat="41.94682167" lon="2.85126333">
        <ele>148.0</ele>
        <time>2021-08-21T06:49:04.010Z</time>
      </trkpt>
      <trkpt lat="41.946865" lon="2.85129833">
        <ele>149.0</ele>
        <time>2021-08-21T06:49:05.014Z</time>
      </trkpt>
      <trkpt lat="41.946865" lon="2.85129833">
        <ele>149.0</ele>
        <time>2021-08-21T06:49:06.020Z</time>
      </trkpt>
      <trkpt lat="41.94691167" lon="2.85133167">
        <ele>148.0</ele>
        <time>2021-08-21T06:49:07.022Z</time>
      </trkpt>
      <trkpt lat="41.94692833" lon="2.85135333">
        <ele>148.0</ele>
        <time>2021-08-21T06:49:07.995Z</time>
      </trkpt>
      <trkpt lat="41.94692833" lon="2.85135333">
        <ele>148.0</ele>
        <time>2021-08-21T06:49:09.001Z</time>
      </trkpt>
      <trkpt lat="41.94694333" lon="2.85139333">
        <ele>149.0</ele>
        <time>2021-08-21T06:49:10.019Z</time>
      </trkpt>
      <trkpt lat="41.94694333" lon="2.85139333">
        <ele>149.0</ele>
        <time>2021-08-21T06:49:11.025Z</time>
      </trkpt>
      <trkpt lat="41.94696167" lon="2.851445">
        <ele>150.0</ele>
        <time>2021-08-21T06:49:12.004Z</time>
      </trkpt>
      <trkpt lat="41.94696167" lon="2.851445">
        <ele>150.0</ele>
        <time>2021-08-21T06:49:13.011Z</time>
      </trkpt>
      <trkpt lat="41.94698" lon="2.85149833">
        <ele>150.0</ele>
        <time>2021-08-21T06:49:14.032Z</time>
      </trkpt>
      <trkpt lat="41.94699167" lon="2.851525">
        <ele>150.0</ele>
        <time>2021-08-21T06:49:15.008Z</time>
      </trkpt>
      <trkpt lat="41.94699167" lon="2.851525">
        <ele>150.0</ele>
        <time>2021-08-21T06:49:16.015Z</time>
      </trkpt>
      <trkpt lat="41.94701167" lon="2.85158">
        <ele>150.0</ele>
        <time>2021-08-21T06:49:17.028Z</time>
      </trkpt>
      <trkpt lat="41.94702167" lon="2.85160833">
        <ele>151.0</ele>
        <time>2021-08-21T06:49:18.005Z</time>
      </trkpt>
      <trkpt lat="41.94702167" lon="2.85160833">
        <ele>151.0</ele>
        <time>2021-08-21T06:49:19.011Z</time>
      </trkpt>
      <trkpt lat="41.94703833" lon="2.85165833">
        <ele>151.0</ele>
        <time>2021-08-21T06:49:19.993Z</time>
      </trkpt>
      <trkpt lat="41.947055" lon="2.85167833">
        <ele>151.0</ele>
        <time>2021-08-21T06:49:21.008Z</time>
      </trkpt>
      <trkpt lat="41.947055" lon="2.85167833">
        <ele>151.0</ele>
        <time>2021-08-21T06:49:22.013Z</time>
      </trkpt>
      <trkpt lat="41.94708333" lon="2.85171167">
        <ele>151.0</ele>
        <time>2021-08-21T06:49:23.028Z</time>
      </trkpt>
      <trkpt lat="41.94709833" lon="2.85172667">
        <ele>152.0</ele>
        <time>2021-08-21T06:49:24.001Z</time>
      </trkpt>
      <trkpt lat="41.94709833" lon="2.85172667">
        <ele>152.0</ele>
        <time>2021-08-21T06:49:25.008Z</time>
      </trkpt>
      <trkpt lat="41.94713" lon="2.85176333">
        <ele>151.0</ele>
        <time>2021-08-21T06:49:26.029Z</time>
      </trkpt>
      <trkpt lat="41.94714" lon="2.85178167">
        <ele>152.0</ele>
        <time>2021-08-21T06:49:27.005Z</time>
      </trkpt>
      <trkpt lat="41.94714" lon="2.85178167">
        <ele>152.0</ele>
        <time>2021-08-21T06:49:28.011Z</time>
      </trkpt>
      <trkpt lat="41.94716667" lon="2.85182333">
        <ele>152.0</ele>
        <time>2021-08-21T06:49:29.030Z</time>
      </trkpt>
      <trkpt lat="41.94718" lon="2.85185">
        <ele>152.0</ele>
        <time>2021-08-21T06:49:30.007Z</time>
      </trkpt>
      <trkpt lat="41.94718" lon="2.85185">
        <ele>152.0</ele>
        <time>2021-08-21T06:49:31.015Z</time>
      </trkpt>
      <trkpt lat="41.94720667" lon="2.8519">
        <ele>152.0</ele>
        <time>2021-08-21T06:49:31.999Z</time>
      </trkpt>
      <trkpt lat="41.94720667" lon="2.8519">
        <ele>152.0</ele>
        <time>2021-08-21T06:49:33.005Z</time>
      </trkpt>
      <trkpt lat="41.94723167" lon="2.851945">
        <ele>152.0</ele>
        <time>2021-08-21T06:49:34.030Z</time>
      </trkpt>
      <trkpt lat="41.947245" lon="2.85197333">
        <ele>153.0</ele>
        <time>2021-08-21T06:49:35.001Z</time>
      </trkpt>
      <trkpt lat="41.947245" lon="2.85197333">
        <ele>153.0</ele>
        <time>2021-08-21T06:49:36.008Z</time>
      </trkpt>
      <trkpt lat="41.947265" lon="2.85203333">
        <ele>154.0</ele>
        <time>2021-08-21T06:49:37.028Z</time>
      </trkpt>
      <trkpt lat="41.94728" lon="2.85205333">
        <ele>154.0</ele>
        <time>2021-08-21T06:49:38.001Z</time>
      </trkpt>
      <trkpt lat="41.94728" lon="2.85205333">
        <ele>154.0</ele>
        <time>2021-08-21T06:49:39.008Z</time>
      </trkpt>
      <trkpt lat="41.94731167" lon="2.85208667">
        <ele>155.0</ele>
        <time>2021-08-21T06:49:40.024Z</time>
      </trkpt>
      <trkpt lat="41.94731167" lon="2.85208667">
        <ele>155.0</ele>
        <time>2021-08-21T06:49:41.031Z</time>
      </trkpt>
      <trkpt lat="41.947335" lon="2.852125">
        <ele>156.0</ele>
        <time>2021-08-21T06:49:42.005Z</time>
      </trkpt>
      <trkpt lat="41.947335" lon="2.852125">
        <ele>156.0</ele>
        <time>2021-08-21T06:49:43.012Z</time>
      </trkpt>
      <trkpt lat="41.947355" lon="2.85216167">
        <ele>156.0</ele>
        <time>2021-08-21T06:49:44.028Z</time>
      </trkpt>
      <trkpt lat="41.947365" lon="2.852175">
        <ele>156.0</ele>
        <time>2021-08-21T06:49:45.006Z</time>
      </trkpt>
      <trkpt lat="41.947365" lon="2.852175">
        <ele>156.0</ele>
        <time>2021-08-21T06:49:46.013Z</time>
      </trkpt>
      <trkpt lat="41.94739" lon="2.85220333">
        <ele>156.0</ele>
        <time>2021-08-21T06:49:46.992Z</time>
      </trkpt>
      <trkpt lat="41.94740333" lon="2.85221333">
        <ele>157.0</ele>
        <time>2021-08-21T06:49:48.009Z</time>
      </trkpt>
      <trkpt lat="41.94740333" lon="2.85221333">
        <ele>157.0</ele>
        <time>2021-08-21T06:49:49.017Z</time>
      </trkpt>
      <trkpt lat="41.94743" lon="2.85223333">
        <ele>157.0</ele>
        <time>2021-08-21T06:49:50.031Z</time>
      </trkpt>
      <trkpt lat="41.94743833" lon="2.852245">
        <ele>157.0</ele>
        <time>2021-08-21T06:49:51.005Z</time>
      </trkpt>
      <trkpt lat="41.94743833" lon="2.852245">
        <ele>157.0</ele>
        <time>2021-08-21T06:49:52.011Z</time>
      </trkpt>
      <trkpt lat="41.94746167" lon="2.852275">
        <ele>158.0</ele>
        <time>2021-08-21T06:49:53.025Z</time>
      </trkpt>
      <trkpt lat="41.947475" lon="2.85228667">
        <ele>158.0</ele>
        <time>2021-08-21T06:49:54.010Z</time>
      </trkpt>
      <trkpt lat="41.947475" lon="2.85228667">
        <ele>158.0</ele>
        <time>2021-08-21T06:49:55.016Z</time>
      </trkpt>
      <trkpt lat="41.9475" lon="2.85232333">
        <ele>158.0</ele>
        <time>2021-08-21T06:49:55.994Z</time>
      </trkpt>
      <trkpt lat="41.94751" lon="2.85234333">
        <ele>158.0</ele>
        <time>2021-08-21T06:49:57.025Z</time>
      </trkpt>
      <trkpt lat="41.94751" lon="2.85234333">
        <ele>158.0</ele>
        <time>2021-08-21T06:49:57.992Z</time>
      </trkpt>
      <trkpt lat="41.94752667" lon="2.85238833">
        <ele>159.0</ele>
        <time>2021-08-21T06:49:59.012Z</time>
      </trkpt>
      <trkpt lat="41.94753667" lon="2.85241167">
        <ele>159.0</ele>
        <time>2021-08-21T06:50:00.003Z</time>
      </trkpt>
      <trkpt lat="41.94753667" lon="2.85241167">
        <ele>159.0</ele>
        <time>2021-08-21T06:50:01.011Z</time>
      </trkpt>
      <trkpt lat="41.94756167" lon="2.85246">
        <ele>159.0</ele>
        <time>2021-08-21T06:50:02.010Z</time>
      </trkpt>
      <trkpt lat="41.94756167" lon="2.85246">
        <ele>159.0</ele>
        <time>2021-08-21T06:50:03.017Z</time>
      </trkpt>
      <trkpt lat="41.947585" lon="2.85250167">
        <ele>159.0</ele>
        <time>2021-08-21T06:50:04.030Z</time>
      </trkpt>
      <trkpt lat="41.947595" lon="2.85252">
        <ele>159.0</ele>
        <time>2021-08-21T06:50:05.020Z</time>
      </trkpt>
      <trkpt lat="41.947595" lon="2.85252">
        <ele>159.0</ele>
        <time>2021-08-21T06:50:06.001Z</time>
      </trkpt>
      <trkpt lat="41.94762167" lon="2.85256167">
        <ele>159.0</ele>
        <time>2021-08-21T06:50:07.030Z</time>
      </trkpt>
      <trkpt lat="41.94762167" lon="2.85256167">
        <ele>159.0</ele>
        <time>2021-08-21T06:50:07.999Z</time>
      </trkpt>
      <trkpt lat="41.94764667" lon="2.85260167">
        <ele>160.0</ele>
        <time>2021-08-21T06:50:09.008Z</time>
      </trkpt>
      <trkpt lat="41.94765667" lon="2.85261833">
        <ele>160.0</ele>
        <time>2021-08-21T06:50:10.017Z</time>
      </trkpt>
      <trkpt lat="41.94766833" lon="2.85264">
        <ele>160.0</ele>
        <time>2021-08-21T06:50:11.010Z</time>
      </trkpt>
      <trkpt lat="41.94767833" lon="2.85266333">
        <ele>160.0</ele>
        <time>2021-08-21T06:50:12.019Z</time>
      </trkpt>
      <trkpt lat="41.94767833" lon="2.85266333">
        <ele>160.0</ele>
        <time>2021-08-21T06:50:13.018Z</time>
      </trkpt>
      <trkpt lat="41.9477" lon="2.85271333">
        <ele>161.0</ele>
        <time>2021-08-21T06:50:14.025Z</time>
      </trkpt>
      <trkpt lat="41.9477" lon="2.85271333">
        <ele>161.0</ele>
        <time>2021-08-21T06:50:14.992Z</time>
      </trkpt>
      <trkpt lat="41.94772167" lon="2.852755">
        <ele>161.0</ele>
        <time>2021-08-21T06:50:16.010Z</time>
      </trkpt>
      <trkpt lat="41.94772167" lon="2.852755">
        <ele>161.0</ele>
        <time>2021-08-21T06:50:17.021Z</time>
      </trkpt>
      <trkpt lat="41.94773833" lon="2.85280333">
        <ele>162.0</ele>
        <time>2021-08-21T06:50:18.009Z</time>
      </trkpt>
      <trkpt lat="41.94773833" lon="2.85280333">
        <ele>162.0</ele>
        <time>2021-08-21T06:50:19.018Z</time>
      </trkpt>
      <trkpt lat="41.947755" lon="2.85285333">
        <ele>162.0</ele>
        <time>2021-08-21T06:50:20.019Z</time>
      </trkpt>
      <trkpt lat="41.94776333" lon="2.85288">
        <ele>162.0</ele>
        <time>2021-08-21T06:50:21.000Z</time>
      </trkpt>
      <trkpt lat="41.94776333" lon="2.85288">
        <ele>162.0</ele>
        <time>2021-08-21T06:50:22.013Z</time>
      </trkpt>
      <trkpt lat="41.94777667" lon="2.85293333">
        <ele>162.0</ele>
        <time>2021-08-21T06:50:22.998Z</time>
      </trkpt>
      <trkpt lat="41.94777667" lon="2.85293333">
        <ele>162.0</ele>
        <time>2021-08-21T06:50:24.007Z</time>
      </trkpt>
      <trkpt lat="41.94778" lon="2.852985">
        <ele>163.0</ele>
        <time>2021-08-21T06:50:24.993Z</time>
      </trkpt>
      <trkpt lat="41.947785" lon="2.853015">
        <ele>163.0</ele>
        <time>2021-08-21T06:50:26.010Z</time>
      </trkpt>
      <trkpt lat="41.947785" lon="2.853015">
        <ele>163.0</ele>
        <time>2021-08-21T06:50:27.019Z</time>
      </trkpt>
      <trkpt lat="41.94779" lon="2.853065">
        <ele>163.0</ele>
        <time>2021-08-21T06:50:28.009Z</time>
      </trkpt>
      <trkpt lat="41.94779167" lon="2.85309167">
        <ele>163.0</ele>
        <time>2021-08-21T06:50:28.993Z</time>
      </trkpt>
      <trkpt lat="41.947795" lon="2.85311833">
        <ele>163.0</ele>
        <time>2021-08-21T06:50:30.025Z</time>
      </trkpt>
      <trkpt lat="41.947795" lon="2.85311833">
        <ele>163.0</ele>
        <time>2021-08-21T06:50:30.998Z</time>
      </trkpt>
      <trkpt lat="41.94781167" lon="2.85317167">
        <ele>164.0</ele>
        <time>2021-08-21T06:50:32.011Z</time>
      </trkpt>
      <trkpt lat="41.94781833" lon="2.853195">
        <ele>164.0</ele>
        <time>2021-08-21T06:50:33.003Z</time>
      </trkpt>
      <trkpt lat="41.94781833" lon="2.853195">
        <ele>164.0</ele>
        <time>2021-08-21T06:50:34.012Z</time>
      </trkpt>
      <trkpt lat="41.94783333" lon="2.85324">
        <ele>164.0</ele>
        <time>2021-08-21T06:50:35.031Z</time>
      </trkpt>
      <trkpt lat="41.94784167" lon="2.853265">
        <ele>164.0</ele>
        <time>2021-08-21T06:50:36.017Z</time>
      </trkpt>
      <trkpt lat="41.94785167" lon="2.85329">
        <ele>164.0</ele>
        <time>2021-08-21T06:50:37.002Z</time>
      </trkpt>
      <trkpt lat="41.94785167" lon="2.85329">
        <ele>164.0</ele>
        <time>2021-08-21T06:50:38.014Z</time>
      </trkpt>
      <trkpt lat="41.94786833" lon="2.853325">
        <ele>164.0</ele>
        <time>2021-08-21T06:50:38.992Z</time>
      </trkpt>
      <trkpt lat="41.94787667" lon="2.85334167">
        <ele>165.0</ele>
        <time>2021-08-21T06:50:40.009Z</time>
      </trkpt>
      <trkpt lat="41.94787667" lon="2.85334167">
        <ele>165.0</ele>
        <time>2021-08-21T06:50:41.019Z</time>
      </trkpt>
      <trkpt lat="41.94789333" lon="2.85338833">
        <ele>165.0</ele>
        <time>2021-08-21T06:50:41.995Z</time>
      </trkpt>
      <trkpt lat="41.94789333" lon="2.85338833">
        <ele>165.0</ele>
        <time>2021-08-21T06:50:43.002Z</time>
      </trkpt>
      <trkpt lat="41.947915" lon="2.85343167">
        <ele>166.0</ele>
        <time>2021-08-21T06:50:44.023Z</time>
      </trkpt>
      <trkpt lat="41.947925" lon="2.85344833">
        <ele>166.0</ele>
        <time>2021-08-21T06:50:45.012Z</time>
      </trkpt>
      <trkpt lat="41.947925" lon="2.85344833">
        <ele>166.0</ele>
        <time>2021-08-21T06:50:46.025Z</time>
      </trkpt>
      <trkpt lat="41.94794167" lon="2.85348167">
        <ele>166.0</ele>
        <time>2021-08-21T06:50:47.012Z</time>
      </trkpt>
      <trkpt lat="41.94794833" lon="2.85349833">
        <ele>166.0</ele>
        <time>2021-08-21T06:50:47.997Z</time>
      </trkpt>
      <trkpt lat="41.94795333" lon="2.85352">
        <ele>166.0</ele>
        <time>2021-08-21T06:50:49.027Z</time>
      </trkpt>
      <trkpt lat="41.94795333" lon="2.85352">
        <ele>166.0</ele>
        <time>2021-08-21T06:50:49.996Z</time>
      </trkpt>
      <trkpt lat="41.947965" lon="2.85356167">
        <ele>167.0</ele>
        <time>2021-08-21T06:50:51.022Z</time>
      </trkpt>
      <trkpt lat="41.94797" lon="2.85358333">
        <ele>167.0</ele>
        <time>2021-08-21T06:50:52.001Z</time>
      </trkpt>
      <trkpt lat="41.94797" lon="2.85358333">
        <ele>167.0</ele>
        <time>2021-08-21T06:50:53.008Z</time>
      </trkpt>
      <trkpt lat="41.94798167" lon="2.85363">
        <ele>167.0</ele>
        <time>2021-08-21T06:50:53.996Z</time>
      </trkpt>
      <trkpt lat="41.94798167" lon="2.85363">
        <ele>167.0</ele>
        <time>2021-08-21T06:50:55.003Z</time>
      </trkpt>
      <trkpt lat="41.94798333" lon="2.85367833">
        <ele>167.0</ele>
        <time>2021-08-21T06:50:56.024Z</time>
      </trkpt>
      <trkpt lat="41.947985" lon="2.85370333">
        <ele>167.0</ele>
        <time>2021-08-21T06:50:57.007Z</time>
      </trkpt>
      <trkpt lat="41.947985" lon="2.85370333">
        <ele>167.0</ele>
        <time>2021-08-21T06:50:58.013Z</time>
      </trkpt>
      <trkpt lat="41.94799" lon="2.853755">
        <ele>167.0</ele>
        <time>2021-08-21T06:50:59.023Z</time>
      </trkpt>
      <trkpt lat="41.94799167" lon="2.85378167">
        <ele>168.0</ele>
        <time>2021-08-21T06:51:00.000Z</time>
      </trkpt>
      <trkpt lat="41.94799167" lon="2.85378167">
        <ele>168.0</ele>
        <time>2021-08-21T06:51:01.015Z</time>
      </trkpt>
      <trkpt lat="41.948" lon="2.85384167">
        <ele>168.0</ele>
        <time>2021-08-21T06:51:01.999Z</time>
      </trkpt>
      <trkpt lat="41.948" lon="2.85384167">
        <ele>168.0</ele>
        <time>2021-08-21T06:51:03.007Z</time>
      </trkpt>
      <trkpt lat="41.94801333" lon="2.853905">
        <ele>168.0</ele>
        <time>2021-08-21T06:51:03.992Z</time>
      </trkpt>
      <trkpt lat="41.94801333" lon="2.853905">
        <ele>168.0</ele>
        <time>2021-08-21T06:51:04.999Z</time>
      </trkpt>
      <trkpt lat="41.94802667" lon="2.85397">
        <ele>169.0</ele>
        <time>2021-08-21T06:51:06.014Z</time>
      </trkpt>
      <trkpt lat="41.94802667" lon="2.85397">
        <ele>169.0</ele>
        <time>2021-08-21T06:51:07.021Z</time>
      </trkpt>
      <trkpt lat="41.94804667" lon="2.85404167">
        <ele>169.0</ele>
        <time>2021-08-21T06:51:08.005Z</time>
      </trkpt>
      <trkpt lat="41.94804667" lon="2.85404167">
        <ele>169.0</ele>
        <time>2021-08-21T06:51:09.013Z</time>
      </trkpt>
      <trkpt lat="41.94806167" lon="2.85411667">
        <ele>170.0</ele>
        <time>2021-08-21T06:51:09.992Z</time>
      </trkpt>
      <trkpt lat="41.94806667" lon="2.85414333">
        <ele>170.0</ele>
        <time>2021-08-21T06:51:11.018Z</time>
      </trkpt>
      <trkpt lat="41.94807" lon="2.854165">
        <ele>171.0</ele>
        <time>2021-08-21T06:51:11.995Z</time>
      </trkpt>
      <trkpt lat="41.94807" lon="2.854165">
        <ele>171.0</ele>
        <time>2021-08-21T06:51:13.003Z</time>
      </trkpt>
      <trkpt lat="41.94807333" lon="2.85421667">
        <ele>171.0</ele>
        <time>2021-08-21T06:51:14.024Z</time>
      </trkpt>
      <trkpt lat="41.94807333" lon="2.85424167">
        <ele>172.0</ele>
        <time>2021-08-21T06:51:15.015Z</time>
      </trkpt>
      <trkpt lat="41.94807333" lon="2.85424167">
        <ele>172.0</ele>
        <time>2021-08-21T06:51:16.021Z</time>
      </trkpt>
      <trkpt lat="41.94807333" lon="2.85428667">
        <ele>172.0</ele>
        <time>2021-08-21T06:51:17.007Z</time>
      </trkpt>
      <trkpt lat="41.94807167" lon="2.85430833">
        <ele>173.0</ele>
        <time>2021-08-21T06:51:18.025Z</time>
      </trkpt>
      <trkpt lat="41.94807167" lon="2.85430833">
        <ele>173.0</ele>
        <time>2021-08-21T06:51:18.992Z</time>
      </trkpt>
      <trkpt lat="41.94806667" lon="2.85434833">
        <ele>174.0</ele>
        <time>2021-08-21T06:51:20.013Z</time>
      </trkpt>
      <trkpt lat="41.94806667" lon="2.85436833">
        <ele>174.0</ele>
        <time>2021-08-21T06:51:20.999Z</time>
      </trkpt>
      <trkpt lat="41.94806667" lon="2.85436833">
        <ele>174.0</ele>
        <time>2021-08-21T06:51:22.007Z</time>
      </trkpt>
      <trkpt lat="41.94807833" lon="2.85442">
        <ele>175.0</ele>
        <time>2021-08-21T06:51:22.992Z</time>
      </trkpt>
      <trkpt lat="41.94808167" lon="2.85444167">
        <ele>175.0</ele>
        <time>2021-08-21T06:51:24.026Z</time>
      </trkpt>
      <trkpt lat="41.94808167" lon="2.85444167">
        <ele>175.0</ele>
        <time>2021-08-21T06:51:24.994Z</time>
      </trkpt>
      <trkpt lat="41.94808167" lon="2.854485">
        <ele>176.0</ele>
        <time>2021-08-21T06:51:26.015Z</time>
      </trkpt>
      <trkpt lat="41.94808167" lon="2.854485">
        <ele>176.0</ele>
        <time>2021-08-21T06:51:27.023Z</time>
      </trkpt>
      <trkpt lat="41.94808" lon="2.85453167">
        <ele>176.0</ele>
        <time>2021-08-21T06:51:28.008Z</time>
      </trkpt>
      <trkpt lat="41.94808" lon="2.85453167">
        <ele>176.0</ele>
        <time>2021-08-21T06:51:29.015Z</time>
      </trkpt>
      <trkpt lat="41.94806333" lon="2.85458">
        <ele>177.0</ele>
        <time>2021-08-21T06:51:29.999Z</time>
      </trkpt>
      <trkpt lat="41.94806333" lon="2.85458">
        <ele>177.0</ele>
        <time>2021-08-21T06:51:31.006Z</time>
      </trkpt>
      <trkpt lat="41.948045" lon="2.854635">
        <ele>178.0</ele>
        <time>2021-08-21T06:51:32.015Z</time>
      </trkpt>
      <trkpt lat="41.948045" lon="2.854635">
        <ele>178.0</ele>
        <time>2021-08-21T06:51:33.026Z</time>
      </trkpt>
      <trkpt lat="41.94803" lon="2.854685">
        <ele>178.0</ele>
        <time>2021-08-21T06:51:34.002Z</time>
      </trkpt>
      <trkpt lat="41.94803" lon="2.854685">
        <ele>178.0</ele>
        <time>2021-08-21T06:51:35.009Z</time>
      </trkpt>
      <trkpt lat="41.94801667" lon="2.85474">
        <ele>178.0</ele>
        <time>2021-08-21T06:51:36.024Z</time>
      </trkpt>
      <trkpt lat="41.94801" lon="2.85477">
        <ele>179.0</ele>
        <time>2021-08-21T06:51:36.997Z</time>
      </trkpt>
      <trkpt lat="41.94801" lon="2.85477">
        <ele>179.0</ele>
        <time>2021-08-21T06:51:38.003Z</time>
      </trkpt>
      <trkpt lat="41.94799833" lon="2.85484">
        <ele>179.0</ele>
        <time>2021-08-21T06:51:39.023Z</time>
      </trkpt>
      <trkpt lat="41.94799833" lon="2.85484">
        <ele>179.0</ele>
        <time>2021-08-21T06:51:40.031Z</time>
      </trkpt>
      <trkpt lat="41.947995" lon="2.8549">
        <ele>180.0</ele>
        <time>2021-08-21T06:51:41.010Z</time>
      </trkpt>
      <trkpt lat="41.947995" lon="2.8549">
        <ele>180.0</ele>
        <time>2021-08-21T06:51:42.017Z</time>
      </trkpt>
      <trkpt lat="41.94799333" lon="2.85495167">
        <ele>181.0</ele>
        <time>2021-08-21T06:51:42.992Z</time>
      </trkpt>
      <trkpt lat="41.947985" lon="2.85498167">
        <ele>181.0</ele>
        <time>2021-08-21T06:51:44.016Z</time>
      </trkpt>
      <trkpt lat="41.947985" lon="2.85498167">
        <ele>181.0</ele>
        <time>2021-08-21T06:51:45.024Z</time>
      </trkpt>
      <trkpt lat="41.94797667" lon="2.855045">
        <ele>181.0</ele>
        <time>2021-08-21T06:51:45.998Z</time>
      </trkpt>
      <trkpt lat="41.94797667" lon="2.855045">
        <ele>181.0</ele>
        <time>2021-08-21T06:51:47.004Z</time>
      </trkpt>
      <trkpt lat="41.94797" lon="2.85510667">
        <ele>182.0</ele>
        <time>2021-08-21T06:51:48.024Z</time>
      </trkpt>
      <trkpt lat="41.94797" lon="2.85510667">
        <ele>182.0</ele>
        <time>2021-08-21T06:51:48.993Z</time>
      </trkpt>
      <trkpt lat="41.94797" lon="2.855165">
        <ele>183.0</ele>
        <time>2021-08-21T06:51:50.022Z</time>
      </trkpt>
      <trkpt lat="41.94797167" lon="2.85519833">
        <ele>183.0</ele>
        <time>2021-08-21T06:51:50.999Z</time>
      </trkpt>
      <trkpt lat="41.94797167" lon="2.85519833">
        <ele>183.0</ele>
        <time>2021-08-21T06:51:52.007Z</time>
      </trkpt>
      <trkpt lat="41.94798" lon="2.85526">
        <ele>184.0</ele>
        <time>2021-08-21T06:51:53.023Z</time>
      </trkpt>
      <trkpt lat="41.94798667" lon="2.85528833">
        <ele>184.0</ele>
        <time>2021-08-21T06:51:54.003Z</time>
      </trkpt>
      <trkpt lat="41.94798667" lon="2.85528833">
        <ele>184.0</ele>
        <time>2021-08-21T06:51:55.011Z</time>
      </trkpt>
      <trkpt lat="41.94802" lon="2.85535667">
        <ele>185.0</ele>
        <time>2021-08-21T06:51:56.028Z</time>
      </trkpt>
      <trkpt lat="41.94804167" lon="2.855385">
        <ele>185.0</ele>
        <time>2021-08-21T06:51:57.010Z</time>
      </trkpt>
      <trkpt lat="41.94804167" lon="2.855385">
        <ele>185.0</ele>
        <time>2021-08-21T06:51:58.018Z</time>
      </trkpt>
      <trkpt lat="41.948095" lon="2.85543667">
        <ele>186.0</ele>
        <time>2021-08-21T06:51:58.996Z</time>
      </trkpt>
      <trkpt lat="41.94812" lon="2.85546">
        <ele>186.0</ele>
        <time>2021-08-21T06:52:00.015Z</time>
      </trkpt>
      <trkpt lat="41.94812" lon="2.85546">
        <ele>186.0</ele>
        <time>2021-08-21T06:52:01.023Z</time>
      </trkpt>
      <trkpt lat="41.94818" lon="2.85549833">
        <ele>186.0</ele>
        <time>2021-08-21T06:52:02.031Z</time>
      </trkpt>
      <trkpt lat="41.94818" lon="2.85549833">
        <ele>186.0</ele>
        <time>2021-08-21T06:52:02.998Z</time>
      </trkpt>
      <trkpt lat="41.94823333" lon="2.85554833">
        <ele>186.0</ele>
        <time>2021-08-21T06:52:04.012Z</time>
      </trkpt>
      <trkpt lat="41.94823333" lon="2.85554833">
        <ele>186.0</ele>
        <time>2021-08-21T06:52:05.020Z</time>
      </trkpt>
      <trkpt lat="41.948285" lon="2.855605">
        <ele>187.0</ele>
        <time>2021-08-21T06:52:05.997Z</time>
      </trkpt>
      <trkpt lat="41.948285" lon="2.855605">
        <ele>187.0</ele>
        <time>2021-08-21T06:52:07.003Z</time>
      </trkpt>
      <trkpt lat="41.94832667" lon="2.85565667">
        <ele>187.0</ele>
        <time>2021-08-21T06:52:08.025Z</time>
      </trkpt>
      <trkpt lat="41.948345" lon="2.85568">
        <ele>187.0</ele>
        <time>2021-08-21T06:52:09.010Z</time>
      </trkpt>
      <trkpt lat="41.948345" lon="2.85568">
        <ele>187.0</ele>
        <time>2021-08-21T06:52:10.017Z</time>
      </trkpt>
      <trkpt lat="41.94837167" lon="2.855725">
        <ele>188.0</ele>
        <time>2021-08-21T06:52:10.999Z</time>
      </trkpt>
      <trkpt lat="41.94838333" lon="2.85575167">
        <ele>188.0</ele>
        <time>2021-08-21T06:52:12.017Z</time>
      </trkpt>
      <trkpt lat="41.94838333" lon="2.85575167">
        <ele>188.0</ele>
        <time>2021-08-21T06:52:13.025Z</time>
      </trkpt>
      <trkpt lat="41.94840833" lon="2.85580667">
        <ele>188.0</ele>
        <time>2021-08-21T06:52:14.001Z</time>
      </trkpt>
      <trkpt lat="41.948425" lon="2.85583667">
        <ele>189.0</ele>
        <time>2021-08-21T06:52:15.026Z</time>
      </trkpt>
      <trkpt lat="41.948425" lon="2.85583667">
        <ele>189.0</ele>
        <time>2021-08-21T06:52:15.993Z</time>
      </trkpt>
      <trkpt lat="41.94845" lon="2.855915">
        <ele>189.0</ele>
        <time>2021-08-21T06:52:17.021Z</time>
      </trkpt>
      <trkpt lat="41.948465" lon="2.855955">
        <ele>189.0</ele>
        <time>2021-08-21T06:52:17.997Z</time>
      </trkpt>
      <trkpt lat="41.948465" lon="2.855955">
        <ele>189.0</ele>
        <time>2021-08-21T06:52:19.007Z</time>
      </trkpt>
      <trkpt lat="41.948505" lon="2.85604">
        <ele>190.0</ele>
        <time>2021-08-21T06:52:20.030Z</time>
      </trkpt>
      <trkpt lat="41.94852167" lon="2.85608167">
        <ele>190.0</ele>
        <time>2021-08-21T06:52:21.027Z</time>
      </trkpt>
      <trkpt lat="41.94852167" lon="2.85608167">
        <ele>190.0</ele>
        <time>2021-08-21T06:52:21.994Z</time>
      </trkpt>
      <trkpt lat="41.94856833" lon="2.85616667">
        <ele>190.0</ele>
        <time>2021-08-21T06:52:23.021Z</time>
      </trkpt>
      <trkpt lat="41.94859167" lon="2.856205">
        <ele>190.0</ele>
        <time>2021-08-21T06:52:24.018Z</time>
      </trkpt>
      <trkpt lat="41.94859167" lon="2.856205">
        <ele>190.0</ele>
        <time>2021-08-21T06:52:25.027Z</time>
      </trkpt>
      <trkpt lat="41.94864333" lon="2.85628667">
        <ele>191.0</ele>
        <time>2021-08-21T06:52:26.006Z</time>
      </trkpt>
      <trkpt lat="41.948665" lon="2.85632167">
        <ele>191.0</ele>
        <time>2021-08-21T06:52:27.019Z</time>
      </trkpt>
      <trkpt lat="41.948665" lon="2.85632167">
        <ele>191.0</ele>
        <time>2021-08-21T06:52:28.026Z</time>
      </trkpt>
      <trkpt lat="41.94869833" lon="2.85638333">
        <ele>192.0</ele>
        <time>2021-08-21T06:52:29.004Z</time>
      </trkpt>
      <trkpt lat="41.94869833" lon="2.85638333">
        <ele>192.0</ele>
        <time>2021-08-21T06:52:30.010Z</time>
      </trkpt>
      <trkpt lat="41.94872167" lon="2.85642667">
        <ele>192.0</ele>
        <time>2021-08-21T06:52:31.028Z</time>
      </trkpt>
      <trkpt lat="41.948725" lon="2.856445">
        <ele>192.0</ele>
        <time>2021-08-21T06:52:31.997Z</time>
      </trkpt>
      <trkpt lat="41.948725" lon="2.856445">
        <ele>192.0</ele>
        <time>2021-08-21T06:52:33.003Z</time>
      </trkpt>
      <trkpt lat="41.94874" lon="2.85648333">
        <ele>193.0</ele>
        <time>2021-08-21T06:52:34.016Z</time>
      </trkpt>
      <trkpt lat="41.94874667" lon="2.85650333">
        <ele>193.0</ele>
        <time>2021-08-21T06:52:35.032Z</time>
      </trkpt>
      <trkpt lat="41.94875333" lon="2.85652333">
        <ele>193.0</ele>
        <time>2021-08-21T06:52:36.012Z</time>
      </trkpt>
      <trkpt lat="41.94875333" lon="2.85652333">
        <ele>193.0</ele>
        <time>2021-08-21T06:52:37.019Z</time>
      </trkpt>
      <trkpt lat="41.94876167" lon="2.85656">
        <ele>194.0</ele>
        <time>2021-08-21T06:52:38.001Z</time>
      </trkpt>
      <trkpt lat="41.94876167" lon="2.85656">
        <ele>194.0</ele>
        <time>2021-08-21T06:52:39.008Z</time>
      </trkpt>
      <trkpt lat="41.94877667" lon="2.85659">
        <ele>194.0</ele>
        <time>2021-08-21T06:52:39.997Z</time>
      </trkpt>
      <trkpt lat="41.948785" lon="2.85662">
        <ele>194.0</ele>
        <time>2021-08-21T06:52:41.026Z</time>
      </trkpt>
      <trkpt lat="41.94879333" lon="2.85664667">
        <ele>194.0</ele>
        <time>2021-08-21T06:52:42.015Z</time>
      </trkpt>
      <trkpt lat="41.94879333" lon="2.85664667">
        <ele>194.0</ele>
        <time>2021-08-21T06:52:43.024Z</time>
      </trkpt>
      <trkpt lat="41.94880667" lon="2.85669833">
        <ele>194.0</ele>
        <time>2021-08-21T06:52:44.005Z</time>
      </trkpt>
      <trkpt lat="41.948805" lon="2.85671833">
        <ele>194.0</ele>
        <time>2021-08-21T06:52:45.025Z</time>
      </trkpt>
      <trkpt lat="41.948805" lon="2.85671833">
        <ele>194.0</ele>
        <time>2021-08-21T06:52:46.032Z</time>
      </trkpt>
      <trkpt lat="41.94882167" lon="2.85674833">
        <ele>194.0</ele>
        <time>2021-08-21T06:52:47.013Z</time>
      </trkpt>
      <trkpt lat="41.94882167" lon="2.85674833">
        <ele>194.0</ele>
        <time>2021-08-21T06:52:48.019Z</time>
      </trkpt>
      <trkpt lat="41.94885667" lon="2.85674333">
        <ele>194.0</ele>
        <time>2021-08-21T06:52:49.003Z</time>
      </trkpt>
      <trkpt lat="41.94887167" lon="2.85672667">
        <ele>195.0</ele>
        <time>2021-08-21T06:52:50.026Z</time>
      </trkpt>
      <trkpt lat="41.94887167" lon="2.85672667">
        <ele>195.0</ele>
        <time>2021-08-21T06:52:50.994Z</time>
      </trkpt>
      <trkpt lat="41.94890667" lon="2.85669">
        <ele>195.0</ele>
        <time>2021-08-21T06:52:52.012Z</time>
      </trkpt>
      <trkpt lat="41.94890667" lon="2.85669">
        <ele>195.0</ele>
        <time>2021-08-21T06:52:53.019Z</time>
      </trkpt>
      <trkpt lat="41.94894333" lon="2.856655">
        <ele>195.0</ele>
        <time>2021-08-21T06:52:54.016Z</time>
      </trkpt>
      <trkpt lat="41.94894333" lon="2.856655">
        <ele>195.0</ele>
        <time>2021-08-21T06:52:55.023Z</time>
      </trkpt>
      <trkpt lat="41.94899333" lon="2.85661667">
        <ele>195.0</ele>
        <time>2021-08-21T06:52:55.995Z</time>
      </trkpt>
      <trkpt lat="41.94899333" lon="2.85661667">
        <ele>195.0</ele>
        <time>2021-08-21T06:52:57.001Z</time>
      </trkpt>
      <trkpt lat="41.949035" lon="2.856585">
        <ele>195.0</ele>
        <time>2021-08-21T06:52:58.024Z</time>
      </trkpt>
      <trkpt lat="41.94904833" lon="2.85656833">
        <ele>195.0</ele>
        <time>2021-08-21T06:52:59.014Z</time>
      </trkpt>
      <trkpt lat="41.94906667" lon="2.85655">
        <ele>195.0</ele>
        <time>2021-08-21T06:52:59.994Z</time>
      </trkpt>
      <trkpt lat="41.94906667" lon="2.85655">
        <ele>195.0</ele>
        <time>2021-08-21T06:53:01.002Z</time>
      </trkpt>
      <trkpt lat="41.94910833" lon="2.856515">
        <ele>195.0</ele>
        <time>2021-08-21T06:53:02.021Z</time>
      </trkpt>
      <trkpt lat="41.94913" lon="2.85649667">
        <ele>195.0</ele>
        <time>2021-08-21T06:53:03.004Z</time>
      </trkpt>
      <trkpt lat="41.94913" lon="2.85649667">
        <ele>195.0</ele>
        <time>2021-08-21T06:53:04.012Z</time>
      </trkpt>
      <trkpt lat="41.94917167" lon="2.85646">
        <ele>195.0</ele>
        <time>2021-08-21T06:53:05.029Z</time>
      </trkpt>
      <trkpt lat="41.94918833" lon="2.856445">
        <ele>195.0</ele>
        <time>2021-08-21T06:53:06.000Z</time>
      </trkpt>
      <trkpt lat="41.94918833" lon="2.856445">
        <ele>195.0</ele>
        <time>2021-08-21T06:53:07.007Z</time>
      </trkpt>
      <trkpt lat="41.94922333" lon="2.856415">
        <ele>195.0</ele>
        <time>2021-08-21T06:53:08.026Z</time>
      </trkpt>
      <trkpt lat="41.94924667" lon="2.8564">
        <ele>195.0</ele>
        <time>2021-08-21T06:53:09.002Z</time>
      </trkpt>
      <trkpt lat="41.94927333" lon="2.85638">
        <ele>195.0</ele>
        <time>2021-08-21T06:53:10.024Z</time>
      </trkpt>
      <trkpt lat="41.9493" lon="2.856355">
        <ele>195.0</ele>
        <time>2021-08-21T06:53:10.997Z</time>
      </trkpt>
      <trkpt lat="41.9493" lon="2.856355">
        <ele>195.0</ele>
        <time>2021-08-21T06:53:12.004Z</time>
      </trkpt>
      <trkpt lat="41.94936833" lon="2.85631">
        <ele>195.0</ele>
        <time>2021-08-21T06:53:12.996Z</time>
      </trkpt>
      <trkpt lat="41.94936833" lon="2.85631">
        <ele>195.0</ele>
        <time>2021-08-21T06:53:14.003Z</time>
      </trkpt>
      <trkpt lat="41.94941167" lon="2.85628">
        <ele>195.0</ele>
        <time>2021-08-21T06:53:15.026Z</time>
      </trkpt>
      <trkpt lat="41.94941167" lon="2.85628">
        <ele>195.0</ele>
        <time>2021-08-21T06:53:15.992Z</time>
      </trkpt>
      <trkpt lat="41.94943333" lon="2.85626833">
        <ele>195.0</ele>
        <time>2021-08-21T06:53:17.007Z</time>
      </trkpt>
      <trkpt lat="41.94944167" lon="2.85626833">
        <ele>195.0</ele>
        <time>2021-08-21T06:53:18.019Z</time>
      </trkpt>
      <trkpt lat="41.94944167" lon="2.85626833">
        <ele>195.0</ele>
        <time>2021-08-21T06:53:19.026Z</time>
      </trkpt>
      <trkpt lat="41.94944333" lon="2.856265">
        <ele>195.0</ele>
        <time>2021-08-21T06:53:20.000Z</time>
      </trkpt>
      <trkpt lat="41.94944333" lon="2.856265">
        <ele>195.0</ele>
        <time>2021-08-21T06:53:21.031Z</time>
      </trkpt>
      <trkpt lat="41.94953167" lon="2.85624">
        <ele>194.0</ele>
        <time>2021-08-21T06:53:22.029Z</time>
      </trkpt>
      <trkpt lat="41.949555" lon="2.85623167">
        <ele>194.0</ele>
        <time>2021-08-21T06:53:23.031Z</time>
      </trkpt>
      <trkpt lat="41.94957667" lon="2.856225">
        <ele>193.0</ele>
        <time>2021-08-21T06:53:24.007Z</time>
      </trkpt>
      <trkpt lat="41.94957667" lon="2.856225">
        <ele>193.0</ele>
        <time>2021-08-21T06:53:25.017Z</time>
      </trkpt>
      <trkpt lat="41.94962167" lon="2.85622">
        <ele>193.0</ele>
        <time>2021-08-21T06:53:26.003Z</time>
      </trkpt>
      <trkpt lat="41.94964833" lon="2.85621833">
        <ele>193.0</ele>
        <time>2021-08-21T06:53:27.028Z</time>
      </trkpt>
      <trkpt lat="41.94964833" lon="2.85621833">
        <ele>193.0</ele>
        <time>2021-08-21T06:53:27.994Z</time>
      </trkpt>
      <trkpt lat="41.94970167" lon="2.856225">
        <ele>192.0</ele>
        <time>2021-08-21T06:53:29.018Z</time>
      </trkpt>
      <trkpt lat="41.94970167" lon="2.856225">
        <ele>192.0</ele>
        <time>2021-08-21T06:53:30.025Z</time>
      </trkpt>
      <trkpt lat="41.94975333" lon="2.85625167">
        <ele>192.0</ele>
        <time>2021-08-21T06:53:31.001Z</time>
      </trkpt>
      <trkpt lat="41.94975333" lon="2.85625167">
        <ele>192.0</ele>
        <time>2021-08-21T06:53:32.012Z</time>
      </trkpt>
      <trkpt lat="41.94979833" lon="2.85628167">
        <ele>192.0</ele>
        <time>2021-08-21T06:53:32.992Z</time>
      </trkpt>
      <trkpt lat="41.94979833" lon="2.85628167">
        <ele>192.0</ele>
        <time>2021-08-21T06:53:33.999Z</time>
      </trkpt>
      <trkpt lat="41.94985333" lon="2.85633833">
        <ele>192.0</ele>
        <time>2021-08-21T06:53:35.023Z</time>
      </trkpt>
      <trkpt lat="41.94988333" lon="2.85636167">
        <ele>192.0</ele>
        <time>2021-08-21T06:53:35.997Z</time>
      </trkpt>
      <trkpt lat="41.94988333" lon="2.85636167">
        <ele>192.0</ele>
        <time>2021-08-21T06:53:37.004Z</time>
      </trkpt>
      <trkpt lat="41.94995833" lon="2.85642333">
        <ele>191.0</ele>
        <time>2021-08-21T06:53:38.029Z</time>
      </trkpt>
      <trkpt lat="41.950005" lon="2.85646333">
        <ele>191.0</ele>
        <time>2021-08-21T06:53:39.000Z</time>
      </trkpt>
      <trkpt lat="41.950005" lon="2.85646333">
        <ele>191.0</ele>
        <time>2021-08-21T06:53:40.007Z</time>
      </trkpt>
      <trkpt lat="41.95009667" lon="2.85654833">
        <ele>191.0</ele>
        <time>2021-08-21T06:53:41.024Z</time>
      </trkpt>
      <trkpt lat="41.95009667" lon="2.85654833">
        <ele>191.0</ele>
        <time>2021-08-21T06:53:41.992Z</time>
      </trkpt>
      <trkpt lat="41.95018833" lon="2.85662333">
        <ele>191.0</ele>
        <time>2021-08-21T06:53:43.010Z</time>
      </trkpt>
      <trkpt lat="41.95022167" lon="2.85666">
        <ele>191.0</ele>
        <time>2021-08-21T06:53:44.024Z</time>
      </trkpt>
      <trkpt lat="41.95026167" lon="2.85669833">
        <ele>191.0</ele>
        <time>2021-08-21T06:53:44.999Z</time>
      </trkpt>
      <trkpt lat="41.95026167" lon="2.85669833">
        <ele>191.0</ele>
        <time>2021-08-21T06:53:46.005Z</time>
      </trkpt>
      <trkpt lat="41.95033167" lon="2.85677333">
        <ele>191.0</ele>
        <time>2021-08-21T06:53:47.024Z</time>
      </trkpt>
      <trkpt lat="41.95036333" lon="2.85681">
        <ele>191.0</ele>
        <time>2021-08-21T06:53:48.007Z</time>
      </trkpt>
      <trkpt lat="41.95036333" lon="2.85681">
        <ele>191.0</ele>
        <time>2021-08-21T06:53:49.015Z</time>
      </trkpt>
      <trkpt lat="41.95042167" lon="2.85687333">
        <ele>192.0</ele>
        <time>2021-08-21T06:53:50.010Z</time>
      </trkpt>
      <trkpt lat="41.950445" lon="2.85689667">
        <ele>192.0</ele>
        <time>2021-08-21T06:53:51.031Z</time>
      </trkpt>
      <trkpt lat="41.950445" lon="2.85689667">
        <ele>192.0</ele>
        <time>2021-08-21T06:53:52.000Z</time>
      </trkpt>
      <trkpt lat="41.95050167" lon="2.85692667">
        <ele>192.0</ele>
        <time>2021-08-21T06:53:53.021Z</time>
      </trkpt>
      <trkpt lat="41.95050167" lon="2.85692667">
        <ele>192.0</ele>
        <time>2021-08-21T06:53:54.028Z</time>
      </trkpt>
      <trkpt lat="41.950575" lon="2.85691">
        <ele>192.0</ele>
        <time>2021-08-21T06:53:55.012Z</time>
      </trkpt>
      <trkpt lat="41.950575" lon="2.85691">
        <ele>192.0</ele>
        <time>2021-08-21T06:53:56.019Z</time>
      </trkpt>
      <trkpt lat="41.950615" lon="2.85686167">
        <ele>192.0</ele>
        <time>2021-08-21T06:53:56.998Z</time>
      </trkpt>
      <trkpt lat="41.950615" lon="2.85686167">
        <ele>192.0</ele>
        <time>2021-08-21T06:53:58.005Z</time>
      </trkpt>
      <trkpt lat="41.95063667" lon="2.85680167">
        <ele>192.0</ele>
        <time>2021-08-21T06:53:58.992Z</time>
      </trkpt>
      <trkpt lat="41.95063667" lon="2.85680167">
        <ele>192.0</ele>
        <time>2021-08-21T06:53:59.999Z</time>
      </trkpt>
      <trkpt lat="41.95063333" lon="2.85677833">
        <ele>192.0</ele>
        <time>2021-08-21T06:54:01.019Z</time>
      </trkpt>
      <trkpt lat="41.95063333" lon="2.85677833">
        <ele>192.0</ele>
        <time>2021-08-21T06:54:01.996Z</time>
      </trkpt>
      <trkpt lat="41.95063333" lon="2.85678333">
        <ele>192.0</ele>
        <time>2021-08-21T06:54:03.038Z</time>
      </trkpt>
      <trkpt lat="41.95063333" lon="2.85678333">
        <ele>192.0</ele>
        <time>2021-08-21T06:54:04.023Z</time>
      </trkpt>
      <trkpt lat="41.95065" lon="2.856715">
        <ele>192.0</ele>
        <time>2021-08-21T06:54:05.025Z</time>
      </trkpt>
      <trkpt lat="41.95065" lon="2.856715">
        <ele>192.0</ele>
        <time>2021-08-21T06:54:06.008Z</time>
      </trkpt>
      <trkpt lat="41.95065667" lon="2.85670167">
        <ele>192.0</ele>
        <time>2021-08-21T06:54:07.008Z</time>
      </trkpt>
      <trkpt lat="41.95065667" lon="2.85670167">
        <ele>192.0</ele>
        <time>2021-08-21T06:54:08.014Z</time>
      </trkpt>
      <trkpt lat="41.95066667" lon="2.856675">
        <ele>192.0</ele>
        <time>2021-08-21T06:54:09.000Z</time>
      </trkpt>
      <trkpt lat="41.95066667" lon="2.856675">
        <ele>192.0</ele>
        <time>2021-08-21T06:54:10.009Z</time>
      </trkpt>
      <trkpt lat="41.95068667" lon="2.85662">
        <ele>192.0</ele>
        <time>2021-08-21T06:54:11.003Z</time>
      </trkpt>
      <trkpt lat="41.95068667" lon="2.85662">
        <ele>192.0</ele>
        <time>2021-08-21T06:54:12.011Z</time>
      </trkpt>
      <trkpt lat="41.95069" lon="2.85656833">
        <ele>192.0</ele>
        <time>2021-08-21T06:54:12.994Z</time>
      </trkpt>
      <trkpt lat="41.95069" lon="2.85656833">
        <ele>192.0</ele>
        <time>2021-08-21T06:54:14.005Z</time>
      </trkpt>
      <trkpt lat="41.950665" lon="2.85651">
        <ele>192.0</ele>
        <time>2021-08-21T06:54:15.027Z</time>
      </trkpt>
      <trkpt lat="41.950665" lon="2.85651">
        <ele>192.0</ele>
        <time>2021-08-21T06:54:15.993Z</time>
      </trkpt>
      <trkpt lat="41.95066" lon="2.85644667">
        <ele>192.0</ele>
        <time>2021-08-21T06:54:17.019Z</time>
      </trkpt>
      <trkpt lat="41.95066" lon="2.85644667">
        <ele>192.0</ele>
        <time>2021-08-21T06:54:18.026Z</time>
      </trkpt>
      <trkpt lat="41.95064" lon="2.85636333">
        <ele>192.0</ele>
        <time>2021-08-21T06:54:19.002Z</time>
      </trkpt>
      <trkpt lat="41.95064" lon="2.85636333">
        <ele>192.0</ele>
        <time>2021-08-21T06:54:20.008Z</time>
      </trkpt>
      <trkpt lat="41.95061667" lon="2.85627667">
        <ele>192.0</ele>
        <time>2021-08-21T06:54:21.026Z</time>
      </trkpt>
      <trkpt lat="41.95061667" lon="2.85627667">
        <ele>192.0</ele>
        <time>2021-08-21T06:54:21.992Z</time>
      </trkpt>
      <trkpt lat="41.95059333" lon="2.85620333">
        <ele>192.0</ele>
        <time>2021-08-21T06:54:23.013Z</time>
      </trkpt>
      <trkpt lat="41.95058667" lon="2.85617333">
        <ele>192.0</ele>
        <time>2021-08-21T06:54:24.032Z</time>
      </trkpt>
      <trkpt lat="41.95058667" lon="2.85617333">
        <ele>192.0</ele>
        <time>2021-08-21T06:54:24.998Z</time>
      </trkpt>
      <trkpt lat="41.95058" lon="2.85612667">
        <ele>191.0</ele>
        <time>2021-08-21T06:54:26.013Z</time>
      </trkpt>
      <trkpt lat="41.95057833" lon="2.85610167">
        <ele>191.0</ele>
        <time>2021-08-21T06:54:27.027Z</time>
      </trkpt>
      <trkpt lat="41.95057833" lon="2.85610167">
        <ele>191.0</ele>
        <time>2021-08-21T06:54:27.994Z</time>
      </trkpt>
      <trkpt lat="41.950575" lon="2.85604">
        <ele>191.0</ele>
        <time>2021-08-21T06:54:29.018Z</time>
      </trkpt>
      <trkpt lat="41.950575" lon="2.85604">
        <ele>191.0</ele>
        <time>2021-08-21T06:54:30.024Z</time>
      </trkpt>
      <trkpt lat="41.95056333" lon="2.85596333">
        <ele>191.0</ele>
        <time>2021-08-21T06:54:31.018Z</time>
      </trkpt>
      <trkpt lat="41.95056333" lon="2.85596333">
        <ele>191.0</ele>
        <time>2021-08-21T06:54:32.025Z</time>
      </trkpt>
      <trkpt lat="41.95054333" lon="2.85587333">
        <ele>191.0</ele>
        <time>2021-08-21T06:54:33.015Z</time>
      </trkpt>
      <trkpt lat="41.95054333" lon="2.85587333">
        <ele>191.0</ele>
        <time>2021-08-21T06:54:34.023Z</time>
      </trkpt>
      <trkpt lat="41.95053333" lon="2.85577167">
        <ele>191.0</ele>
        <time>2021-08-21T06:54:35.008Z</time>
      </trkpt>
      <trkpt lat="41.95053333" lon="2.85572667">
        <ele>191.0</ele>
        <time>2021-08-21T06:54:36.020Z</time>
      </trkpt>
      <trkpt lat="41.95053333" lon="2.85572667">
        <ele>191.0</ele>
        <time>2021-08-21T06:54:37.028Z</time>
      </trkpt>
      <trkpt lat="41.95053167" lon="2.85564">
        <ele>191.0</ele>
        <time>2021-08-21T06:54:38.009Z</time>
      </trkpt>
      <trkpt lat="41.95053833" lon="2.85559833">
        <ele>191.0</ele>
        <time>2021-08-21T06:54:39.026Z</time>
      </trkpt>
      <trkpt lat="41.95053833" lon="2.85559833">
        <ele>191.0</ele>
        <time>2021-08-21T06:54:39.993Z</time>
      </trkpt>
      <trkpt lat="41.95054167" lon="2.855505">
        <ele>192.0</ele>
        <time>2021-08-21T06:54:41.021Z</time>
      </trkpt>
      <trkpt lat="41.95054167" lon="2.855505">
        <ele>192.0</ele>
        <time>2021-08-21T06:54:42.028Z</time>
      </trkpt>
      <trkpt lat="41.95055333" lon="2.855395">
        <ele>192.0</ele>
        <time>2021-08-21T06:54:42.999Z</time>
      </trkpt>
      <trkpt lat="41.95055333" lon="2.855395">
        <ele>192.0</ele>
        <time>2021-08-21T06:54:44.006Z</time>
      </trkpt>
      <trkpt lat="41.950545" lon="2.85531333">
        <ele>192.0</ele>
        <time>2021-08-21T06:54:45.025Z</time>
      </trkpt>
      <trkpt lat="41.950545" lon="2.85531333">
        <ele>192.0</ele>
        <time>2021-08-21T06:54:46.031Z</time>
      </trkpt>
      <trkpt lat="41.95054333" lon="2.855225">
        <ele>193.0</ele>
        <time>2021-08-21T06:54:47.008Z</time>
      </trkpt>
      <trkpt lat="41.95054333" lon="2.855225">
        <ele>193.0</ele>
        <time>2021-08-21T06:54:48.015Z</time>
      </trkpt>
      <trkpt lat="41.95053667" lon="2.85515167">
        <ele>193.0</ele>
        <time>2021-08-21T06:54:48.998Z</time>
      </trkpt>
      <trkpt lat="41.950535" lon="2.85512167">
        <ele>193.0</ele>
        <time>2021-08-21T06:54:50.010Z</time>
      </trkpt>
      <trkpt lat="41.95054167" lon="2.85508667">
        <ele>193.0</ele>
        <time>2021-08-21T06:54:51.026Z</time>
      </trkpt>
      <trkpt lat="41.95054167" lon="2.85508667">
        <ele>193.0</ele>
        <time>2021-08-21T06:54:51.993Z</time>
      </trkpt>
      <trkpt lat="41.95054" lon="2.855025">
        <ele>193.0</ele>
        <time>2021-08-21T06:54:53.022Z</time>
      </trkpt>
      <trkpt lat="41.95054" lon="2.855025">
        <ele>193.0</ele>
        <time>2021-08-21T06:54:54.028Z</time>
      </trkpt>
      <trkpt lat="41.95054" lon="2.85495667">
        <ele>194.0</ele>
        <time>2021-08-21T06:54:55.006Z</time>
      </trkpt>
      <trkpt lat="41.95054" lon="2.85495667">
        <ele>194.0</ele>
        <time>2021-08-21T06:54:56.012Z</time>
      </trkpt>
      <trkpt lat="41.95055" lon="2.85487667">
        <ele>194.0</ele>
        <time>2021-08-21T06:54:57.027Z</time>
      </trkpt>
      <trkpt lat="41.95055" lon="2.85487667">
        <ele>194.0</ele>
        <time>2021-08-21T06:54:57.995Z</time>
      </trkpt>
      <trkpt lat="41.950565" lon="2.85480167">
        <ele>194.0</ele>
        <time>2021-08-21T06:54:59.016Z</time>
      </trkpt>
      <trkpt lat="41.950565" lon="2.85480167">
        <ele>194.0</ele>
        <time>2021-08-21T06:55:00.023Z</time>
      </trkpt>
      <trkpt lat="41.95059333" lon="2.854735">
        <ele>195.0</ele>
        <time>2021-08-21T06:55:01.000Z</time>
      </trkpt>
      <trkpt lat="41.95059333" lon="2.854735">
        <ele>195.0</ele>
        <time>2021-08-21T06:55:02.001Z</time>
      </trkpt>
      <trkpt lat="41.95062" lon="2.85467167">
        <ele>195.0</ele>
        <time>2021-08-21T06:55:03.029Z</time>
      </trkpt>
      <trkpt lat="41.95062" lon="2.85467167">
        <ele>195.0</ele>
        <time>2021-08-21T06:55:03.996Z</time>
      </trkpt>
      <trkpt lat="41.95064" lon="2.85459333">
        <ele>195.0</ele>
        <time>2021-08-21T06:55:05.001Z</time>
      </trkpt>
      <trkpt lat="41.95064" lon="2.85459333">
        <ele>195.0</ele>
        <time>2021-08-21T06:55:06.009Z</time>
      </trkpt>
      <trkpt lat="41.95066833" lon="2.85451667">
        <ele>195.0</ele>
        <time>2021-08-21T06:55:06.992Z</time>
      </trkpt>
      <trkpt lat="41.95066833" lon="2.85451667">
        <ele>195.0</ele>
        <time>2021-08-21T06:55:07.999Z</time>
      </trkpt>
      <trkpt lat="41.95069333" lon="2.85445833">
        <ele>195.0</ele>
        <time>2021-08-21T06:55:09.018Z</time>
      </trkpt>
      <trkpt lat="41.95069333" lon="2.85445833">
        <ele>195.0</ele>
        <time>2021-08-21T06:55:10.027Z</time>
      </trkpt>
      <trkpt lat="41.95072333" lon="2.85440833">
        <ele>195.0</ele>
        <time>2021-08-21T06:55:11.009Z</time>
      </trkpt>
      <trkpt lat="41.95072333" lon="2.85440833">
        <ele>195.0</ele>
        <time>2021-08-21T06:55:12.016Z</time>
      </trkpt>
      <trkpt lat="41.95074667" lon="2.85435167">
        <ele>196.0</ele>
        <time>2021-08-21T06:55:12.994Z</time>
      </trkpt>
      <trkpt lat="41.95074667" lon="2.85432667">
        <ele>196.0</ele>
        <time>2021-08-21T06:55:14.022Z</time>
      </trkpt>
      <trkpt lat="41.95076" lon="2.85432167">
        <ele>196.0</ele>
        <time>2021-08-21T06:55:15.007Z</time>
      </trkpt>
      <trkpt lat="41.95076" lon="2.85432167">
        <ele>196.0</ele>
        <time>2021-08-21T06:55:16.014Z</time>
      </trkpt>
      <trkpt lat="41.95077" lon="2.854355">
        <ele>196.0</ele>
        <time>2021-08-21T06:55:16.996Z</time>
      </trkpt>
      <trkpt lat="41.95077" lon="2.854355">
        <ele>196.0</ele>
        <time>2021-08-21T06:55:18.004Z</time>
      </trkpt>
      <trkpt lat="41.95077833" lon="2.854405">
        <ele>197.0</ele>
        <time>2021-08-21T06:55:19.003Z</time>
      </trkpt>
      <trkpt lat="41.95077833" lon="2.854405">
        <ele>197.0</ele>
        <time>2021-08-21T06:55:20.011Z</time>
      </trkpt>
      <trkpt lat="41.95079167" lon="2.85447">
        <ele>197.0</ele>
        <time>2021-08-21T06:55:21.029Z</time>
      </trkpt>
      <trkpt lat="41.95079167" lon="2.85447">
        <ele>197.0</ele>
        <time>2021-08-21T06:55:21.995Z</time>
      </trkpt>
      <trkpt lat="41.950795" lon="2.85453667">
        <ele>197.0</ele>
        <time>2021-08-21T06:55:23.022Z</time>
      </trkpt>
      <trkpt lat="41.95079833" lon="2.85456667">
        <ele>198.0</ele>
        <time>2021-08-21T06:55:24.002Z</time>
      </trkpt>
      <trkpt lat="41.95079833" lon="2.85456667">
        <ele>198.0</ele>
        <time>2021-08-21T06:55:25.011Z</time>
      </trkpt>
      <trkpt lat="41.950815" lon="2.854655">
        <ele>198.0</ele>
        <time>2021-08-21T06:55:26.021Z</time>
      </trkpt>
      <trkpt lat="41.95081333" lon="2.85469167">
        <ele>198.0</ele>
        <time>2021-08-21T06:55:26.995Z</time>
      </trkpt>
      <trkpt lat="41.95081333" lon="2.85469167">
        <ele>198.0</ele>
        <time>2021-08-21T06:55:28.002Z</time>
      </trkpt>
      <trkpt lat="41.95081" lon="2.854765">
        <ele>199.0</ele>
        <time>2021-08-21T06:55:29.018Z</time>
      </trkpt>
      <trkpt lat="41.95081" lon="2.854765">
        <ele>199.0</ele>
        <time>2021-08-21T06:55:30.025Z</time>
      </trkpt>
      <trkpt lat="41.95082" lon="2.85483667">
        <ele>199.0</ele>
        <time>2021-08-21T06:55:31.006Z</time>
      </trkpt>
      <trkpt lat="41.95082" lon="2.85483667">
        <ele>199.0</ele>
        <time>2021-08-21T06:55:32.013Z</time>
      </trkpt>
      <trkpt lat="41.95084167" lon="2.85490167">
        <ele>199.0</ele>
        <time>2021-08-21T06:55:32.993Z</time>
      </trkpt>
      <trkpt lat="41.95084167" lon="2.85490167">
        <ele>199.0</ele>
        <time>2021-08-21T06:55:34.000Z</time>
      </trkpt>
      <trkpt lat="41.95086333" lon="2.85496333">
        <ele>200.0</ele>
        <time>2021-08-21T06:55:35.015Z</time>
      </trkpt>
      <trkpt lat="41.95086333" lon="2.85496333">
        <ele>200.0</ele>
        <time>2021-08-21T06:55:36.021Z</time>
      </trkpt>
      <trkpt lat="41.95088" lon="2.85503">
        <ele>200.0</ele>
        <time>2021-08-21T06:55:37.025Z</time>
      </trkpt>
      <trkpt lat="41.950885" lon="2.855065">
        <ele>200.0</ele>
        <time>2021-08-21T06:55:37.999Z</time>
      </trkpt>
      <trkpt lat="41.95089167" lon="2.855105">
        <ele>200.0</ele>
        <time>2021-08-21T06:55:39.015Z</time>
      </trkpt>
      <trkpt lat="41.95089167" lon="2.855105">
        <ele>200.0</ele>
        <time>2021-08-21T06:55:40.022Z</time>
      </trkpt>
      <trkpt lat="41.95090667" lon="2.85518833">
        <ele>200.0</ele>
        <time>2021-08-21T06:55:41.012Z</time>
      </trkpt>
      <trkpt lat="41.95090667" lon="2.85518833">
        <ele>200.0</ele>
        <time>2021-08-21T06:55:42.020Z</time>
      </trkpt>
      <trkpt lat="41.95092333" lon="2.855275">
        <ele>200.0</ele>
        <time>2021-08-21T06:55:43.006Z</time>
      </trkpt>
      <trkpt lat="41.95092333" lon="2.855275">
        <ele>200.0</ele>
        <time>2021-08-21T06:55:44.013Z</time>
      </trkpt>
      <trkpt lat="41.95093167" lon="2.85535167">
        <ele>200.0</ele>
        <time>2021-08-21T06:55:44.999Z</time>
      </trkpt>
      <trkpt lat="41.95093167" lon="2.85535167">
        <ele>200.0</ele>
        <time>2021-08-21T06:55:46.009Z</time>
      </trkpt>
      <trkpt lat="41.95094" lon="2.855435">
        <ele>200.0</ele>
        <time>2021-08-21T06:55:46.994Z</time>
      </trkpt>
      <trkpt lat="41.95094" lon="2.855435">
        <ele>200.0</ele>
        <time>2021-08-21T06:55:48.001Z</time>
      </trkpt>
      <trkpt lat="41.95094667" lon="2.85551667">
        <ele>201.0</ele>
        <time>2021-08-21T06:55:49.026Z</time>
      </trkpt>
      <trkpt lat="41.95095" lon="2.85556">
        <ele>201.0</ele>
        <time>2021-08-21T06:55:50.013Z</time>
      </trkpt>
      <trkpt lat="41.95095333" lon="2.85560167">
        <ele>201.0</ele>
        <time>2021-08-21T06:55:50.995Z</time>
      </trkpt>
      <trkpt lat="41.95095333" lon="2.85560167">
        <ele>201.0</ele>
        <time>2021-08-21T06:55:52.002Z</time>
      </trkpt>
      <trkpt lat="41.95096167" lon="2.85568167">
        <ele>201.0</ele>
        <time>2021-08-21T06:55:53.028Z</time>
      </trkpt>
      <trkpt lat="41.950965" lon="2.85572">
        <ele>202.0</ele>
        <time>2021-08-21T06:55:54.001Z</time>
      </trkpt>
      <trkpt lat="41.950965" lon="2.85572">
        <ele>202.0</ele>
        <time>2021-08-21T06:55:55.008Z</time>
      </trkpt>
      <trkpt lat="41.95097167" lon="2.85579667">
        <ele>202.0</ele>
        <time>2021-08-21T06:55:55.993Z</time>
      </trkpt>
      <trkpt lat="41.950975" lon="2.85583167">
        <ele>202.0</ele>
        <time>2021-08-21T06:55:57.014Z</time>
      </trkpt>
      <trkpt lat="41.950975" lon="2.85583167">
        <ele>202.0</ele>
        <time>2021-08-21T06:55:58.020Z</time>
      </trkpt>
      <trkpt lat="41.95098833" lon="2.85590167">
        <ele>203.0</ele>
        <time>2021-08-21T06:55:59.003Z</time>
      </trkpt>
      <trkpt lat="41.95098833" lon="2.85590167">
        <ele>203.0</ele>
        <time>2021-08-21T06:56:00.009Z</time>
      </trkpt>
      <trkpt lat="41.95100167" lon="2.85596667">
        <ele>203.0</ele>
        <time>2021-08-21T06:56:01.024Z</time>
      </trkpt>
      <trkpt lat="41.95100167" lon="2.85596667">
        <ele>203.0</ele>
        <time>2021-08-21T06:56:02.011Z</time>
      </trkpt>
      <trkpt lat="41.950995" lon="2.85602667">
        <ele>203.0</ele>
        <time>2021-08-21T06:56:02.996Z</time>
      </trkpt>
      <trkpt lat="41.950995" lon="2.85602667">
        <ele>203.0</ele>
        <time>2021-08-21T06:56:04.002Z</time>
      </trkpt>
      <trkpt lat="41.951" lon="2.85609333">
        <ele>203.0</ele>
        <time>2021-08-21T06:56:05.020Z</time>
      </trkpt>
      <trkpt lat="41.951" lon="2.85609333">
        <ele>203.0</ele>
        <time>2021-08-21T06:56:06.027Z</time>
      </trkpt>
      <trkpt lat="41.951005" lon="2.85615833">
        <ele>204.0</ele>
        <time>2021-08-21T06:56:07.009Z</time>
      </trkpt>
      <trkpt lat="41.95101333" lon="2.85618">
        <ele>204.0</ele>
        <time>2021-08-21T06:56:08.026Z</time>
      </trkpt>
      <trkpt lat="41.95102" lon="2.85619667">
        <ele>205.0</ele>
        <time>2021-08-21T06:56:09.006Z</time>
      </trkpt>
      <trkpt lat="41.95102" lon="2.85619667">
        <ele>205.0</ele>
        <time>2021-08-21T06:56:10.013Z</time>
      </trkpt>
      <trkpt lat="41.95102833" lon="2.85623167">
        <ele>205.0</ele>
        <time>2021-08-21T06:56:11.028Z</time>
      </trkpt>
      <trkpt lat="41.95102833" lon="2.85623167">
        <ele>205.0</ele>
        <time>2021-08-21T06:56:11.996Z</time>
      </trkpt>
      <trkpt lat="41.95104167" lon="2.85628833">
        <ele>206.0</ele>
        <time>2021-08-21T06:56:13.021Z</time>
      </trkpt>
      <trkpt lat="41.95104167" lon="2.85628833">
        <ele>206.0</ele>
        <time>2021-08-21T06:56:14.028Z</time>
      </trkpt>
      <trkpt lat="41.95104333" lon="2.85635167">
        <ele>206.0</ele>
        <time>2021-08-21T06:56:15.001Z</time>
      </trkpt>
      <trkpt lat="41.95104333" lon="2.85635167">
        <ele>206.0</ele>
        <time>2021-08-21T06:56:16.008Z</time>
      </trkpt>
      <trkpt lat="41.95106167" lon="2.85639">
        <ele>206.0</ele>
        <time>2021-08-21T06:56:17.029Z</time>
      </trkpt>
      <trkpt lat="41.95106167" lon="2.85639">
        <ele>206.0</ele>
        <time>2021-08-21T06:56:17.995Z</time>
      </trkpt>
      <trkpt lat="41.95111333" lon="2.85639167">
        <ele>207.0</ele>
        <time>2021-08-21T06:56:19.017Z</time>
      </trkpt>
      <trkpt lat="41.95113667" lon="2.85637667">
        <ele>207.0</ele>
        <time>2021-08-21T06:56:20.006Z</time>
      </trkpt>
      <trkpt lat="41.95113667" lon="2.85637667">
        <ele>207.0</ele>
        <time>2021-08-21T06:56:21.014Z</time>
      </trkpt>
      <trkpt lat="41.951165" lon="2.856325">
        <ele>207.0</ele>
        <time>2021-08-21T06:56:21.998Z</time>
      </trkpt>
      <trkpt lat="41.95118167" lon="2.85629833">
        <ele>208.0</ele>
        <time>2021-08-21T06:56:23.013Z</time>
      </trkpt>
      <trkpt lat="41.95118167" lon="2.85629833">
        <ele>208.0</ele>
        <time>2021-08-21T06:56:24.020Z</time>
      </trkpt>
      <trkpt lat="41.951225" lon="2.85625667">
        <ele>208.0</ele>
        <time>2021-08-21T06:56:25.005Z</time>
      </trkpt>
      <trkpt lat="41.951225" lon="2.85625667">
        <ele>208.0</ele>
        <time>2021-08-21T06:56:26.011Z</time>
      </trkpt>
      <trkpt lat="41.95126667" lon="2.85622667">
        <ele>208.0</ele>
        <time>2021-08-21T06:56:27.030Z</time>
      </trkpt>
      <trkpt lat="41.95126667" lon="2.85622667">
        <ele>208.0</ele>
        <time>2021-08-21T06:56:27.997Z</time>
      </trkpt>
      <trkpt lat="41.95130333" lon="2.85618167">
        <ele>209.0</ele>
        <time>2021-08-21T06:56:29.012Z</time>
      </trkpt>
      <trkpt lat="41.951315" lon="2.85615833">
        <ele>209.0</ele>
        <time>2021-08-21T06:56:30.029Z</time>
      </trkpt>
      <trkpt lat="41.951315" lon="2.85615833">
        <ele>209.0</ele>
        <time>2021-08-21T06:56:30.995Z</time>
      </trkpt>
      <trkpt lat="41.95133333" lon="2.85613">
        <ele>210.0</ele>
        <time>2021-08-21T06:56:32.014Z</time>
      </trkpt>
      <trkpt lat="41.95133333" lon="2.85613">
        <ele>210.0</ele>
        <time>2021-08-21T06:56:33.022Z</time>
      </trkpt>
      <trkpt lat="41.95135167" lon="2.85611167">
        <ele>210.0</ele>
        <time>2021-08-21T06:56:34.000Z</time>
      </trkpt>
      <trkpt lat="41.95135167" lon="2.85611167">
        <ele>210.0</ele>
        <time>2021-08-21T06:56:35.008Z</time>
      </trkpt>
      <trkpt lat="41.95136" lon="2.85609167">
        <ele>211.0</ele>
        <time>2021-08-21T06:56:36.025Z</time>
      </trkpt>
      <trkpt lat="41.95136" lon="2.85609333">
        <ele>211.0</ele>
        <time>2021-08-21T06:56:37.009Z</time>
      </trkpt>
      <trkpt lat="41.95136" lon="2.85609333">
        <ele>211.0</ele>
        <time>2021-08-21T06:56:38.031Z</time>
      </trkpt>
      <trkpt lat="41.95136" lon="2.85609333">
        <ele>211.0</ele>
        <time>2021-08-21T06:56:39.017Z</time>
      </trkpt>
      <trkpt lat="41.95145667" lon="2.85603167">
        <ele>209.0</ele>
        <time>2021-08-21T06:56:40.025Z</time>
      </trkpt>
      <trkpt lat="41.95148" lon="2.85601167">
        <ele>209.0</ele>
        <time>2021-08-21T06:56:41.017Z</time>
      </trkpt>
      <trkpt lat="41.95148" lon="2.85601167">
        <ele>209.0</ele>
        <time>2021-08-21T06:56:42.024Z</time>
      </trkpt>
      <trkpt lat="41.95151167" lon="2.85598333">
        <ele>209.0</ele>
        <time>2021-08-21T06:56:43.021Z</time>
      </trkpt>
      <trkpt lat="41.95151167" lon="2.85598333">
        <ele>209.0</ele>
        <time>2021-08-21T06:56:44.027Z</time>
      </trkpt>
      <trkpt lat="41.95155167" lon="2.85596667">
        <ele>209.0</ele>
        <time>2021-08-21T06:56:45.017Z</time>
      </trkpt>
      <trkpt lat="41.95155167" lon="2.85596667">
        <ele>209.0</ele>
        <time>2021-08-21T06:56:46.023Z</time>
      </trkpt>
      <trkpt lat="41.95157" lon="2.85594333">
        <ele>209.0</ele>
        <time>2021-08-21T06:56:47.012Z</time>
      </trkpt>
      <trkpt lat="41.95157" lon="2.85594333">
        <ele>209.0</ele>
        <time>2021-08-21T06:56:48.019Z</time>
      </trkpt>
      <trkpt lat="41.95158167" lon="2.85592">
        <ele>209.0</ele>
        <time>2021-08-21T06:56:48.999Z</time>
      </trkpt>
      <trkpt lat="41.95158167" lon="2.85592">
        <ele>209.0</ele>
        <time>2021-08-21T06:56:50.006Z</time>
      </trkpt>
      <trkpt lat="41.95159167" lon="2.85590167">
        <ele>208.0</ele>
        <time>2021-08-21T06:56:51.021Z</time>
      </trkpt>
      <trkpt lat="41.95159167" lon="2.85590167">
        <ele>208.0</ele>
        <time>2021-08-21T06:56:52.028Z</time>
      </trkpt>
      <trkpt lat="41.95160667" lon="2.855885">
        <ele>208.0</ele>
        <time>2021-08-21T06:56:53.023Z</time>
      </trkpt>
      <trkpt lat="41.95160667" lon="2.855885">
        <ele>208.0</ele>
        <time>2021-08-21T06:56:54.030Z</time>
      </trkpt>
      <trkpt lat="41.951615" lon="2.85586667">
        <ele>208.0</ele>
        <time>2021-08-21T06:56:55.016Z</time>
      </trkpt>
      <trkpt lat="41.951615" lon="2.85586667">
        <ele>208.0</ele>
        <time>2021-08-21T06:56:56.024Z</time>
      </trkpt>
      <trkpt lat="41.95162167" lon="2.85586333">
        <ele>208.0</ele>
        <time>2021-08-21T06:56:57.001Z</time>
      </trkpt>
      <trkpt lat="41.95162167" lon="2.85586333">
        <ele>208.0</ele>
        <time>2021-08-21T06:56:58.008Z</time>
      </trkpt>
      <trkpt lat="41.95163667" lon="2.855875">
        <ele>208.0</ele>
        <time>2021-08-21T06:56:59.026Z</time>
      </trkpt>
      <trkpt lat="41.95167833" lon="2.855945">
        <ele>207.0</ele>
        <time>2021-08-21T06:57:00.010Z</time>
      </trkpt>
      <trkpt lat="41.95168167" lon="2.85595833">
        <ele>207.0</ele>
        <time>2021-08-21T06:57:01.000Z</time>
      </trkpt>
      <trkpt lat="41.95168167" lon="2.85595833">
        <ele>207.0</ele>
        <time>2021-08-21T06:57:02.022Z</time>
      </trkpt>
      <trkpt lat="41.95168333" lon="2.85597333">
        <ele>207.0</ele>
        <time>2021-08-21T06:57:03.029Z</time>
      </trkpt>
      <trkpt lat="41.95168" lon="2.85598">
        <ele>207.0</ele>
        <time>2021-08-21T06:57:04.020Z</time>
      </trkpt>
      <trkpt lat="41.95168" lon="2.85598">
        <ele>207.0</ele>
        <time>2021-08-21T06:57:05.030Z</time>
      </trkpt>
      <trkpt lat="41.95167" lon="2.85599667">
        <ele>207.0</ele>
        <time>2021-08-21T06:57:06.005Z</time>
      </trkpt>
      <trkpt lat="41.95166833" lon="2.85600667">
        <ele>207.0</ele>
        <time>2021-08-21T06:57:07.024Z</time>
      </trkpt>
      <trkpt lat="41.95166833" lon="2.85600667">
        <ele>207.0</ele>
        <time>2021-08-21T06:57:07.992Z</time>
      </trkpt>
      <trkpt lat="41.95166167" lon="2.85603333">
        <ele>207.0</ele>
        <time>2021-08-21T06:57:09.008Z</time>
      </trkpt>
      <trkpt lat="41.95166167" lon="2.85603333">
        <ele>207.0</ele>
        <time>2021-08-21T06:57:10.018Z</time>
      </trkpt>
      <trkpt lat="41.951655" lon="2.85605167">
        <ele>207.0</ele>
        <time>2021-08-21T06:57:10.997Z</time>
      </trkpt>
      <trkpt lat="41.951655" lon="2.85605167">
        <ele>207.0</ele>
        <time>2021-08-21T06:57:12.025Z</time>
      </trkpt>
      <trkpt lat="41.95164333" lon="2.85608">
        <ele>207.0</ele>
        <time>2021-08-21T06:57:13.001Z</time>
      </trkpt>
      <trkpt lat="41.95164333" lon="2.85608">
        <ele>207.0</ele>
        <time>2021-08-21T06:57:13.998Z</time>
      </trkpt>
      <trkpt lat="41.95163333" lon="2.85611333">
        <ele>207.0</ele>
        <time>2021-08-21T06:57:15.016Z</time>
      </trkpt>
      <trkpt lat="41.95163333" lon="2.85611333">
        <ele>207.0</ele>
        <time>2021-08-21T06:57:16.025Z</time>
      </trkpt>
      <trkpt lat="41.951635" lon="2.85614833">
        <ele>208.0</ele>
        <time>2021-08-21T06:57:17.010Z</time>
      </trkpt>
      <trkpt lat="41.951635" lon="2.85614833">
        <ele>208.0</ele>
        <time>2021-08-21T06:57:18.017Z</time>
      </trkpt>
      <trkpt lat="41.95161667" lon="2.85618167">
        <ele>208.0</ele>
        <time>2021-08-21T06:57:18.999Z</time>
      </trkpt>
      <trkpt lat="41.95161667" lon="2.85618167">
        <ele>208.0</ele>
        <time>2021-08-21T06:57:20.019Z</time>
      </trkpt>
      <trkpt lat="41.951605" lon="2.856215">
        <ele>208.0</ele>
        <time>2021-08-21T06:57:20.999Z</time>
      </trkpt>
      <trkpt lat="41.951605" lon="2.856215">
        <ele>208.0</ele>
        <time>2021-08-21T06:57:22.020Z</time>
      </trkpt>
      <trkpt lat="41.95160333" lon="2.85626167">
        <ele>209.0</ele>
        <time>2021-08-21T06:57:22.996Z</time>
      </trkpt>
      <trkpt lat="41.95160333" lon="2.85626167">
        <ele>209.0</ele>
        <time>2021-08-21T06:57:24.019Z</time>
      </trkpt>
      <trkpt lat="41.95160167" lon="2.85631167">
        <ele>209.0</ele>
        <time>2021-08-21T06:57:24.995Z</time>
      </trkpt>
      <trkpt lat="41.95160167" lon="2.85631167">
        <ele>209.0</ele>
        <time>2021-08-21T06:57:26.010Z</time>
      </trkpt>
      <trkpt lat="41.95159667" lon="2.85636167">
        <ele>210.0</ele>
        <time>2021-08-21T06:57:27.019Z</time>
      </trkpt>
      <trkpt lat="41.95159667" lon="2.85636167">
        <ele>210.0</ele>
        <time>2021-08-21T06:57:28.010Z</time>
      </trkpt>
      <trkpt lat="41.95159333" lon="2.85640833">
        <ele>210.0</ele>
        <time>2021-08-21T06:57:28.992Z</time>
      </trkpt>
      <trkpt lat="41.95159333" lon="2.85640833">
        <ele>210.0</ele>
        <time>2021-08-21T06:57:30.003Z</time>
      </trkpt>
      <trkpt lat="41.951595" lon="2.85646">
        <ele>210.0</ele>
        <time>2021-08-21T06:57:31.019Z</time>
      </trkpt>
      <trkpt lat="41.951595" lon="2.85646">
        <ele>210.0</ele>
        <time>2021-08-21T06:57:32.028Z</time>
      </trkpt>
      <trkpt lat="41.95159833" lon="2.85651667">
        <ele>211.0</ele>
        <time>2021-08-21T06:57:33.002Z</time>
      </trkpt>
      <trkpt lat="41.95159833" lon="2.85651667">
        <ele>211.0</ele>
        <time>2021-08-21T06:57:34.011Z</time>
      </trkpt>
      <trkpt lat="41.95161167" lon="2.85657333">
        <ele>211.0</ele>
        <time>2021-08-21T06:57:35.028Z</time>
      </trkpt>
      <trkpt lat="41.95161667" lon="2.856595">
        <ele>211.0</ele>
        <time>2021-08-21T06:57:35.997Z</time>
      </trkpt>
      <trkpt lat="41.95162333" lon="2.85661167">
        <ele>211.0</ele>
        <time>2021-08-21T06:57:37.018Z</time>
      </trkpt>
      <trkpt lat="41.95162333" lon="2.85661167">
        <ele>211.0</ele>
        <time>2021-08-21T06:57:38.032Z</time>
      </trkpt>
      <trkpt lat="41.95163667" lon="2.85664333">
        <ele>211.0</ele>
        <time>2021-08-21T06:57:39.004Z</time>
      </trkpt>
      <trkpt lat="41.95164167" lon="2.85666167">
        <ele>211.0</ele>
        <time>2021-08-21T06:57:40.028Z</time>
      </trkpt>
      <trkpt lat="41.95164167" lon="2.85666167">
        <ele>211.0</ele>
        <time>2021-08-21T06:57:41.005Z</time>
      </trkpt>
      <trkpt lat="41.95165" lon="2.856705">
        <ele>212.0</ele>
        <time>2021-08-21T06:57:42.029Z</time>
      </trkpt>
      <trkpt lat="41.95165667" lon="2.85672333">
        <ele>212.0</ele>
        <time>2021-08-21T06:57:42.994Z</time>
      </trkpt>
      <trkpt lat="41.95165667" lon="2.85672333">
        <ele>212.0</ele>
        <time>2021-08-21T06:57:44.014Z</time>
      </trkpt>
      <trkpt lat="41.95167" lon="2.85675">
        <ele>212.0</ele>
        <time>2021-08-21T06:57:45.031Z</time>
      </trkpt>
      <trkpt lat="41.95167667" lon="2.85676">
        <ele>212.0</ele>
        <time>2021-08-21T06:57:46.005Z</time>
      </trkpt>
      <trkpt lat="41.95167667" lon="2.85676">
        <ele>212.0</ele>
        <time>2021-08-21T06:57:46.993Z</time>
      </trkpt>
      <trkpt lat="41.95168167" lon="2.85679167">
        <ele>213.0</ele>
        <time>2021-08-21T06:57:48.006Z</time>
      </trkpt>
      <trkpt lat="41.95167833" lon="2.85680833">
        <ele>213.0</ele>
        <time>2021-08-21T06:57:49.003Z</time>
      </trkpt>
      <trkpt lat="41.95167833" lon="2.85680833">
        <ele>213.0</ele>
        <time>2021-08-21T06:57:50.030Z</time>
      </trkpt>
      <trkpt lat="41.95165833" lon="2.85684">
        <ele>214.0</ele>
        <time>2021-08-21T06:57:51.004Z</time>
      </trkpt>
      <trkpt lat="41.95165833" lon="2.85684">
        <ele>214.0</ele>
        <time>2021-08-21T06:57:51.992Z</time>
      </trkpt>
      <trkpt lat="41.95163333" lon="2.85685667">
        <ele>214.0</ele>
        <time>2021-08-21T06:57:53.009Z</time>
      </trkpt>
      <trkpt lat="41.95163333" lon="2.85685667">
        <ele>214.0</ele>
        <time>2021-08-21T06:57:54.016Z</time>
      </trkpt>
      <trkpt lat="41.95161667" lon="2.85687167">
        <ele>215.0</ele>
        <time>2021-08-21T06:57:54.993Z</time>
      </trkpt>
      <trkpt lat="41.95161667" lon="2.85687167">
        <ele>215.0</ele>
        <time>2021-08-21T06:57:55.993Z</time>
      </trkpt>
      <trkpt lat="41.9516" lon="2.85690167">
        <ele>215.0</ele>
        <time>2021-08-21T06:57:57.008Z</time>
      </trkpt>
      <trkpt lat="41.9516" lon="2.85690167">
        <ele>215.0</ele>
        <time>2021-08-21T06:57:58.026Z</time>
      </trkpt>
      <trkpt lat="41.95158333" lon="2.85694">
        <ele>215.0</ele>
        <time>2021-08-21T06:57:59.008Z</time>
      </trkpt>
      <trkpt lat="41.95158333" lon="2.85694">
        <ele>215.0</ele>
        <time>2021-08-21T06:58:00.008Z</time>
      </trkpt>
      <trkpt lat="41.951585" lon="2.85699">
        <ele>216.0</ele>
        <time>2021-08-21T06:58:01.030Z</time>
      </trkpt>
      <trkpt lat="41.951585" lon="2.85699">
        <ele>216.0</ele>
        <time>2021-08-21T06:58:02.015Z</time>
      </trkpt>
      <trkpt lat="41.95159333" lon="2.857035">
        <ele>216.0</ele>
        <time>2021-08-21T06:58:03.032Z</time>
      </trkpt>
      <trkpt lat="41.95159667" lon="2.857055">
        <ele>217.0</ele>
        <time>2021-08-21T06:58:04.015Z</time>
      </trkpt>
      <trkpt lat="41.95159667" lon="2.857055">
        <ele>217.0</ele>
        <time>2021-08-21T06:58:04.994Z</time>
      </trkpt>
      <trkpt lat="41.95160333" lon="2.85709833">
        <ele>217.0</ele>
        <time>2021-08-21T06:58:06.014Z</time>
      </trkpt>
      <trkpt lat="41.95160167" lon="2.85711833">
        <ele>218.0</ele>
        <time>2021-08-21T06:58:07.031Z</time>
      </trkpt>
      <trkpt lat="41.95160167" lon="2.85711833">
        <ele>218.0</ele>
        <time>2021-08-21T06:58:08.001Z</time>
      </trkpt>
      <trkpt lat="41.95158833" lon="2.857155">
        <ele>218.0</ele>
        <time>2021-08-21T06:58:09.013Z</time>
      </trkpt>
      <trkpt lat="41.95158833" lon="2.857155">
        <ele>218.0</ele>
        <time>2021-08-21T06:58:09.992Z</time>
      </trkpt>
      <trkpt lat="41.95159" lon="2.85720167">
        <ele>219.0</ele>
        <time>2021-08-21T06:58:11.005Z</time>
      </trkpt>
      <trkpt lat="41.95159" lon="2.85720167">
        <ele>219.0</ele>
        <time>2021-08-21T06:58:12.029Z</time>
      </trkpt>
      <trkpt lat="41.95159333" lon="2.85725">
        <ele>219.0</ele>
        <time>2021-08-21T06:58:13.004Z</time>
      </trkpt>
      <trkpt lat="41.95159333" lon="2.85725">
        <ele>219.0</ele>
        <time>2021-08-21T06:58:13.994Z</time>
      </trkpt>
      <trkpt lat="41.9516" lon="2.85729">
        <ele>220.0</ele>
        <time>2021-08-21T06:58:15.011Z</time>
      </trkpt>
      <trkpt lat="41.95160667" lon="2.85731">
        <ele>220.0</ele>
        <time>2021-08-21T06:58:16.025Z</time>
      </trkpt>
      <trkpt lat="41.95160667" lon="2.85731">
        <ele>220.0</ele>
        <time>2021-08-21T06:58:17.014Z</time>
      </trkpt>
      <trkpt lat="41.95162167" lon="2.85734667">
        <ele>221.0</ele>
        <time>2021-08-21T06:58:18.027Z</time>
      </trkpt>
      <trkpt lat="41.951635" lon="2.85736833">
        <ele>221.0</ele>
        <time>2021-08-21T06:58:19.013Z</time>
      </trkpt>
      <trkpt lat="41.951635" lon="2.85736833">
        <ele>221.0</ele>
        <time>2021-08-21T06:58:19.993Z</time>
      </trkpt>
      <trkpt lat="41.95165333" lon="2.85740833">
        <ele>221.0</ele>
        <time>2021-08-21T06:58:21.016Z</time>
      </trkpt>
      <trkpt lat="41.95166" lon="2.85743167">
        <ele>222.0</ele>
        <time>2021-08-21T06:58:22.012Z</time>
      </trkpt>
      <trkpt lat="41.95166" lon="2.85743167">
        <ele>222.0</ele>
        <time>2021-08-21T06:58:23.028Z</time>
      </trkpt>
      <trkpt lat="41.95168333" lon="2.85748167">
        <ele>222.0</ele>
        <time>2021-08-21T06:58:24.007Z</time>
      </trkpt>
      <trkpt lat="41.95169667" lon="2.85750333">
        <ele>223.0</ele>
        <time>2021-08-21T06:58:25.018Z</time>
      </trkpt>
      <trkpt lat="41.95169667" lon="2.85750333">
        <ele>223.0</ele>
        <time>2021-08-21T06:58:26.029Z</time>
      </trkpt>
      <trkpt lat="41.95171833" lon="2.857545">
        <ele>223.0</ele>
        <time>2021-08-21T06:58:27.005Z</time>
      </trkpt>
      <trkpt lat="41.95171833" lon="2.857545">
        <ele>223.0</ele>
        <time>2021-08-21T06:58:28.026Z</time>
      </trkpt>
      <trkpt lat="41.95174667" lon="2.85758167">
        <ele>223.0</ele>
        <time>2021-08-21T06:58:28.995Z</time>
      </trkpt>
      <trkpt lat="41.95174667" lon="2.85758167">
        <ele>223.0</ele>
        <time>2021-08-21T06:58:30.003Z</time>
      </trkpt>
      <trkpt lat="41.95177167" lon="2.85762333">
        <ele>224.0</ele>
        <time>2021-08-21T06:58:31.009Z</time>
      </trkpt>
      <trkpt lat="41.95177167" lon="2.85762333">
        <ele>224.0</ele>
        <time>2021-08-21T06:58:32.018Z</time>
      </trkpt>
      <trkpt lat="41.9518" lon="2.85766667">
        <ele>225.0</ele>
        <time>2021-08-21T06:58:33.029Z</time>
      </trkpt>
      <trkpt lat="41.9518" lon="2.85766667">
        <ele>225.0</ele>
        <time>2021-08-21T06:58:33.995Z</time>
      </trkpt>
      <trkpt lat="41.95182833" lon="2.857705">
        <ele>226.0</ele>
        <time>2021-08-21T06:58:35.024Z</time>
      </trkpt>
      <trkpt lat="41.951845" lon="2.85772">
        <ele>226.0</ele>
        <time>2021-08-21T06:58:36.005Z</time>
      </trkpt>
      <trkpt lat="41.95186833" lon="2.857735">
        <ele>226.0</ele>
        <time>2021-08-21T06:58:37.012Z</time>
      </trkpt>
      <trkpt lat="41.95186833" lon="2.857735">
        <ele>226.0</ele>
        <time>2021-08-21T06:58:38.016Z</time>
      </trkpt>
      <trkpt lat="41.95192" lon="2.85775333">
        <ele>226.0</ele>
        <time>2021-08-21T06:58:39.027Z</time>
      </trkpt>
      <trkpt lat="41.95192" lon="2.85775333">
        <ele>226.0</ele>
        <time>2021-08-21T06:58:40.000Z</time>
      </trkpt>
      <trkpt lat="41.95198667" lon="2.85775833">
        <ele>227.0</ele>
        <time>2021-08-21T06:58:41.018Z</time>
      </trkpt>
      <trkpt lat="41.95198667" lon="2.85775833">
        <ele>227.0</ele>
        <time>2021-08-21T06:58:42.010Z</time>
      </trkpt>
      <trkpt lat="41.95205167" lon="2.85778667">
        <ele>228.0</ele>
        <time>2021-08-21T06:58:43.033Z</time>
      </trkpt>
      <trkpt lat="41.95205167" lon="2.85778667">
        <ele>228.0</ele>
        <time>2021-08-21T06:58:44.004Z</time>
      </trkpt>
      <trkpt lat="41.95212" lon="2.85781333">
        <ele>228.0</ele>
        <time>2021-08-21T06:58:44.995Z</time>
      </trkpt>
      <trkpt lat="41.95212" lon="2.85781333">
        <ele>228.0</ele>
        <time>2021-08-21T06:58:46.005Z</time>
      </trkpt>
      <trkpt lat="41.95218833" lon="2.85781">
        <ele>229.0</ele>
        <time>2021-08-21T06:58:47.024Z</time>
      </trkpt>
      <trkpt lat="41.95218833" lon="2.85781">
        <ele>229.0</ele>
        <time>2021-08-21T06:58:48.003Z</time>
      </trkpt>
      <trkpt lat="41.95225167" lon="2.85778833">
        <ele>229.0</ele>
        <time>2021-08-21T06:58:49.019Z</time>
      </trkpt>
      <trkpt lat="41.95228" lon="2.85777167">
        <ele>229.0</ele>
        <time>2021-08-21T06:58:49.992Z</time>
      </trkpt>
      <trkpt lat="41.95228" lon="2.85777167">
        <ele>229.0</ele>
        <time>2021-08-21T06:58:51.021Z</time>
      </trkpt>
      <trkpt lat="41.95234333" lon="2.85773333">
        <ele>230.0</ele>
        <time>2021-08-21T06:58:51.992Z</time>
      </trkpt>
      <trkpt lat="41.95234333" lon="2.85773333">
        <ele>230.0</ele>
        <time>2021-08-21T06:58:53.009Z</time>
      </trkpt>
      <trkpt lat="41.95240333" lon="2.85768667">
        <ele>230.0</ele>
        <time>2021-08-21T06:58:54.027Z</time>
      </trkpt>
      <trkpt lat="41.95243333" lon="2.85766833">
        <ele>230.0</ele>
        <time>2021-08-21T06:58:55.013Z</time>
      </trkpt>
      <trkpt lat="41.95243333" lon="2.85766833">
        <ele>230.0</ele>
        <time>2021-08-21T06:58:56.029Z</time>
      </trkpt>
      <trkpt lat="41.95250167" lon="2.857625">
        <ele>231.0</ele>
        <time>2021-08-21T06:58:56.999Z</time>
      </trkpt>
      <trkpt lat="41.95250167" lon="2.857625">
        <ele>231.0</ele>
        <time>2021-08-21T06:58:58.006Z</time>
      </trkpt>
      <trkpt lat="41.95257" lon="2.85758">
        <ele>231.0</ele>
        <time>2021-08-21T06:58:59.020Z</time>
      </trkpt>
      <trkpt lat="41.95257" lon="2.85758">
        <ele>231.0</ele>
        <time>2021-08-21T06:59:00.001Z</time>
      </trkpt>
      <trkpt lat="41.952635" lon="2.85754333">
        <ele>232.0</ele>
        <time>2021-08-21T06:59:01.020Z</time>
      </trkpt>
      <trkpt lat="41.952635" lon="2.85754333">
        <ele>232.0</ele>
        <time>2021-08-21T06:59:01.993Z</time>
      </trkpt>
      <trkpt lat="41.95268667" lon="2.85752">
        <ele>232.0</ele>
        <time>2021-08-21T06:59:02.999Z</time>
      </trkpt>
      <trkpt lat="41.95268667" lon="2.85752">
        <ele>232.0</ele>
        <time>2021-08-21T06:59:04.009Z</time>
      </trkpt>
      <trkpt lat="41.95273833" lon="2.85749">
        <ele>233.0</ele>
        <time>2021-08-21T06:59:05.024Z</time>
      </trkpt>
      <trkpt lat="41.95273833" lon="2.85749">
        <ele>233.0</ele>
        <time>2021-08-21T06:59:05.995Z</time>
      </trkpt>
      <trkpt lat="41.952795" lon="2.85747167">
        <ele>233.0</ele>
        <time>2021-08-21T06:59:07.017Z</time>
      </trkpt>
      <trkpt lat="41.952795" lon="2.85747167">
        <ele>233.0</ele>
        <time>2021-08-21T06:59:08.031Z</time>
      </trkpt>
      <trkpt lat="41.952845" lon="2.85746">
        <ele>234.0</ele>
        <time>2021-08-21T06:59:09.009Z</time>
      </trkpt>
      <trkpt lat="41.952845" lon="2.85746">
        <ele>234.0</ele>
        <time>2021-08-21T06:59:10.014Z</time>
      </trkpt>
      <trkpt lat="41.952895" lon="2.85746167">
        <ele>235.0</ele>
        <time>2021-08-21T06:59:11.025Z</time>
      </trkpt>
      <trkpt lat="41.952895" lon="2.85746167">
        <ele>235.0</ele>
        <time>2021-08-21T06:59:12.031Z</time>
      </trkpt>
      <trkpt lat="41.95294667" lon="2.85747">
        <ele>236.0</ele>
        <time>2021-08-21T06:59:13.017Z</time>
      </trkpt>
      <trkpt lat="41.95294667" lon="2.85747">
        <ele>236.0</ele>
        <time>2021-08-21T06:59:14.024Z</time>
      </trkpt>
      <trkpt lat="41.95301333" lon="2.857495">
        <ele>235.0</ele>
        <time>2021-08-21T06:59:14.995Z</time>
      </trkpt>
      <trkpt lat="41.95301333" lon="2.857495">
        <ele>235.0</ele>
        <time>2021-08-21T06:59:16.011Z</time>
      </trkpt>
      <trkpt lat="41.95308833" lon="2.85753833">
        <ele>236.0</ele>
        <time>2021-08-21T06:59:16.993Z</time>
      </trkpt>
      <trkpt lat="41.95308833" lon="2.85753833">
        <ele>236.0</ele>
        <time>2021-08-21T06:59:18.001Z</time>
      </trkpt>
      <trkpt lat="41.95316167" lon="2.85757167">
        <ele>236.0</ele>
        <time>2021-08-21T06:59:19.025Z</time>
      </trkpt>
      <trkpt lat="41.95316167" lon="2.85757167">
        <ele>236.0</ele>
        <time>2021-08-21T06:59:19.995Z</time>
      </trkpt>
      <trkpt lat="41.953245" lon="2.85761667">
        <ele>236.0</ele>
        <time>2021-08-21T06:59:21.026Z</time>
      </trkpt>
      <trkpt lat="41.953245" lon="2.85761667">
        <ele>236.0</ele>
        <time>2021-08-21T06:59:21.993Z</time>
      </trkpt>
      <trkpt lat="41.953335" lon="2.85761833">
        <ele>236.0</ele>
        <time>2021-08-21T06:59:22.999Z</time>
      </trkpt>
      <trkpt lat="41.95338" lon="2.85760667">
        <ele>235.0</ele>
        <time>2021-08-21T06:59:24.001Z</time>
      </trkpt>
      <trkpt lat="41.95343" lon="2.85759333">
        <ele>235.0</ele>
        <time>2021-08-21T06:59:24.994Z</time>
      </trkpt>
      <trkpt lat="41.95343" lon="2.85759333">
        <ele>235.0</ele>
        <time>2021-08-21T06:59:26.021Z</time>
      </trkpt>
      <trkpt lat="41.95351833" lon="2.85756">
        <ele>235.0</ele>
        <time>2021-08-21T06:59:27.001Z</time>
      </trkpt>
      <trkpt lat="41.95351833" lon="2.85756">
        <ele>235.0</ele>
        <time>2021-08-21T06:59:28.017Z</time>
      </trkpt>
      <trkpt lat="41.95358833" lon="2.857535">
        <ele>235.0</ele>
        <time>2021-08-21T06:59:29.028Z</time>
      </trkpt>
      <trkpt lat="41.95358833" lon="2.857535">
        <ele>235.0</ele>
        <time>2021-08-21T06:59:30.025Z</time>
      </trkpt>
      <trkpt lat="41.95364833" lon="2.85751">
        <ele>234.0</ele>
        <time>2021-08-21T06:59:30.999Z</time>
      </trkpt>
      <trkpt lat="41.95364833" lon="2.85751">
        <ele>234.0</ele>
        <time>2021-08-21T06:59:32.006Z</time>
      </trkpt>
      <trkpt lat="41.95370167" lon="2.857455">
        <ele>234.0</ele>
        <time>2021-08-21T06:59:33.024Z</time>
      </trkpt>
      <trkpt lat="41.95370167" lon="2.857455">
        <ele>234.0</ele>
        <time>2021-08-21T06:59:33.993Z</time>
      </trkpt>
      <trkpt lat="41.95376333" lon="2.85739833">
        <ele>234.0</ele>
        <time>2021-08-21T06:59:35.006Z</time>
      </trkpt>
      <trkpt lat="41.95378667" lon="2.85738333">
        <ele>234.0</ele>
        <time>2021-08-21T06:59:36.025Z</time>
      </trkpt>
      <trkpt lat="41.95379833" lon="2.85736167">
        <ele>234.0</ele>
        <time>2021-08-21T06:59:37.008Z</time>
      </trkpt>
      <trkpt lat="41.95379833" lon="2.85736167">
        <ele>234.0</ele>
        <time>2021-08-21T06:59:38.001Z</time>
      </trkpt>
      <trkpt lat="41.95383833" lon="2.85731">
        <ele>233.0</ele>
        <time>2021-08-21T06:59:39.020Z</time>
      </trkpt>
      <trkpt lat="41.95383833" lon="2.85731">
        <ele>233.0</ele>
        <time>2021-08-21T06:59:39.992Z</time>
      </trkpt>
      <trkpt lat="41.95386667" lon="2.85726167">
        <ele>233.0</ele>
        <time>2021-08-21T06:59:41.009Z</time>
      </trkpt>
      <trkpt lat="41.95386667" lon="2.85726167">
        <ele>233.0</ele>
        <time>2021-08-21T06:59:42.024Z</time>
      </trkpt>
      <trkpt lat="41.953905" lon="2.85724833">
        <ele>233.0</ele>
        <time>2021-08-21T06:59:43.006Z</time>
      </trkpt>
      <trkpt lat="41.953905" lon="2.85724833">
        <ele>233.0</ele>
        <time>2021-08-21T06:59:43.993Z</time>
      </trkpt>
      <trkpt lat="41.95394833" lon="2.85724667">
        <ele>233.0</ele>
        <time>2021-08-21T06:59:45.007Z</time>
      </trkpt>
      <trkpt lat="41.95394833" lon="2.85724667">
        <ele>233.0</ele>
        <time>2021-08-21T06:59:46.015Z</time>
      </trkpt>
      <trkpt lat="41.95398333" lon="2.85723333">
        <ele>234.0</ele>
        <time>2021-08-21T06:59:46.997Z</time>
      </trkpt>
      <trkpt lat="41.95398333" lon="2.85723333">
        <ele>234.0</ele>
        <time>2021-08-21T06:59:48.021Z</time>
      </trkpt>
      <trkpt lat="41.95403167" lon="2.85722">
        <ele>234.0</ele>
        <time>2021-08-21T06:59:49.000Z</time>
      </trkpt>
      <trkpt lat="41.95403167" lon="2.85722">
        <ele>234.0</ele>
        <time>2021-08-21T06:59:50.016Z</time>
      </trkpt>
      <trkpt lat="41.95409" lon="2.85719333">
        <ele>234.0</ele>
        <time>2021-08-21T06:59:51.032Z</time>
      </trkpt>
      <trkpt lat="41.95409" lon="2.85719333">
        <ele>234.0</ele>
        <time>2021-08-21T06:59:52.001Z</time>
      </trkpt>
      <trkpt lat="41.954135" lon="2.85714833">
        <ele>234.0</ele>
        <time>2021-08-21T06:59:53.021Z</time>
      </trkpt>
      <trkpt lat="41.954135" lon="2.85714833">
        <ele>234.0</ele>
        <time>2021-08-21T06:59:53.992Z</time>
      </trkpt>
      <trkpt lat="41.95417833" lon="2.85711167">
        <ele>233.0</ele>
        <time>2021-08-21T06:59:55.005Z</time>
      </trkpt>
      <trkpt lat="41.95417833" lon="2.85711167">
        <ele>233.0</ele>
        <time>2021-08-21T06:59:56.021Z</time>
      </trkpt>
      <trkpt lat="41.95422167" lon="2.857085">
        <ele>234.0</ele>
        <time>2021-08-21T06:59:57.003Z</time>
      </trkpt>
      <trkpt lat="41.95424167" lon="2.85707333">
        <ele>234.0</ele>
        <time>2021-08-21T06:59:58.020Z</time>
      </trkpt>
      <trkpt lat="41.95424167" lon="2.85707333">
        <ele>234.0</ele>
        <time>2021-08-21T06:59:59.027Z</time>
      </trkpt>
      <trkpt lat="41.95428167" lon="2.85705333">
        <ele>234.0</ele>
        <time>2021-08-21T07:00:00.015Z</time>
      </trkpt>
      <trkpt lat="41.95430333" lon="2.85704333">
        <ele>234.0</ele>
        <time>2021-08-21T07:00:01.000Z</time>
      </trkpt>
      <trkpt lat="41.95430333" lon="2.85704333">
        <ele>234.0</ele>
        <time>2021-08-21T07:00:02.029Z</time>
      </trkpt>
      <trkpt lat="41.95435333" lon="2.857035">
        <ele>234.0</ele>
        <time>2021-08-21T07:00:03.003Z</time>
      </trkpt>
      <trkpt lat="41.95435333" lon="2.857035">
        <ele>234.0</ele>
        <time>2021-08-21T07:00:04.013Z</time>
      </trkpt>
      <trkpt lat="41.95440167" lon="2.85701667">
        <ele>234.0</ele>
        <time>2021-08-21T07:00:05.001Z</time>
      </trkpt>
      <trkpt lat="41.95440167" lon="2.85701667">
        <ele>234.0</ele>
        <time>2021-08-21T07:00:06.013Z</time>
      </trkpt>
      <trkpt lat="41.95445167" lon="2.85699667">
        <ele>234.0</ele>
        <time>2021-08-21T07:00:07.032Z</time>
      </trkpt>
      <trkpt lat="41.95445167" lon="2.85699667">
        <ele>234.0</ele>
        <time>2021-08-21T07:00:07.997Z</time>
      </trkpt>
      <trkpt lat="41.95451167" lon="2.85699">
        <ele>234.0</ele>
        <time>2021-08-21T07:00:09.007Z</time>
      </trkpt>
      <trkpt lat="41.95454333" lon="2.85699">
        <ele>234.0</ele>
        <time>2021-08-21T07:00:10.031Z</time>
      </trkpt>
      <trkpt lat="41.95454333" lon="2.85699">
        <ele>234.0</ele>
        <time>2021-08-21T07:00:11.002Z</time>
      </trkpt>
      <trkpt lat="41.95460333" lon="2.857005">
        <ele>234.0</ele>
        <time>2021-08-21T07:00:12.019Z</time>
      </trkpt>
      <trkpt lat="41.95463333" lon="2.85701167">
        <ele>235.0</ele>
        <time>2021-08-21T07:00:13.017Z</time>
      </trkpt>
      <trkpt lat="41.95463333" lon="2.85701167">
        <ele>235.0</ele>
        <time>2021-08-21T07:00:14.025Z</time>
      </trkpt>
      <trkpt lat="41.95469333" lon="2.85701">
        <ele>235.0</ele>
        <time>2021-08-21T07:00:15.012Z</time>
      </trkpt>
      <trkpt lat="41.95469333" lon="2.85701">
        <ele>235.0</ele>
        <time>2021-08-21T07:00:16.019Z</time>
      </trkpt>
      <trkpt lat="41.954745" lon="2.856995">
        <ele>235.0</ele>
        <time>2021-08-21T07:00:16.998Z</time>
      </trkpt>
      <trkpt lat="41.954765" lon="2.85697833">
        <ele>234.0</ele>
        <time>2021-08-21T07:00:18.011Z</time>
      </trkpt>
      <trkpt lat="41.95479167" lon="2.856965">
        <ele>234.0</ele>
        <time>2021-08-21T07:00:19.031Z</time>
      </trkpt>
      <trkpt lat="41.95479167" lon="2.856965">
        <ele>234.0</ele>
        <time>2021-08-21T07:00:20.000Z</time>
      </trkpt>
      <trkpt lat="41.95485833" lon="2.856965">
        <ele>233.0</ele>
        <time>2021-08-21T07:00:21.004Z</time>
      </trkpt>
      <trkpt lat="41.95485833" lon="2.856965">
        <ele>233.0</ele>
        <time>2021-08-21T07:00:21.998Z</time>
      </trkpt>
      <trkpt lat="41.95491167" lon="2.85698667">
        <ele>233.0</ele>
        <time>2021-08-21T07:00:23.015Z</time>
      </trkpt>
      <trkpt lat="41.95491167" lon="2.85698667">
        <ele>233.0</ele>
        <time>2021-08-21T07:00:24.026Z</time>
      </trkpt>
      <trkpt lat="41.95495667" lon="2.857045">
        <ele>232.0</ele>
        <time>2021-08-21T07:00:24.998Z</time>
      </trkpt>
      <trkpt lat="41.95495667" lon="2.857045">
        <ele>232.0</ele>
        <time>2021-08-21T07:00:26.006Z</time>
      </trkpt>
      <trkpt lat="41.954975" lon="2.85710833">
        <ele>231.0</ele>
        <time>2021-08-21T07:00:26.992Z</time>
      </trkpt>
      <trkpt lat="41.95499667" lon="2.85713667">
        <ele>231.0</ele>
        <time>2021-08-21T07:00:28.003Z</time>
      </trkpt>
      <trkpt lat="41.95499667" lon="2.85713667">
        <ele>231.0</ele>
        <time>2021-08-21T07:00:29.022Z</time>
      </trkpt>
      <trkpt lat="41.95506667" lon="2.85716667">
        <ele>230.0</ele>
        <time>2021-08-21T07:00:30.005Z</time>
      </trkpt>
      <trkpt lat="41.955105" lon="2.85719167">
        <ele>230.0</ele>
        <time>2021-08-21T07:00:31.024Z</time>
      </trkpt>
      <trkpt lat="41.955105" lon="2.85719167">
        <ele>230.0</ele>
        <time>2021-08-21T07:00:32.027Z</time>
      </trkpt>
      <trkpt lat="41.95518333" lon="2.85724667">
        <ele>228.0</ele>
        <time>2021-08-21T07:00:32.998Z</time>
      </trkpt>
      <trkpt lat="41.95518333" lon="2.85724667">
        <ele>228.0</ele>
        <time>2021-08-21T07:00:34.022Z</time>
      </trkpt>
      <trkpt lat="41.95526" lon="2.85729333">
        <ele>227.0</ele>
        <time>2021-08-21T07:00:34.998Z</time>
      </trkpt>
      <trkpt lat="41.95526" lon="2.85729333">
        <ele>227.0</ele>
        <time>2021-08-21T07:00:36.025Z</time>
      </trkpt>
      <trkpt lat="41.95530667" lon="2.85734167">
        <ele>226.0</ele>
        <time>2021-08-21T07:00:37.004Z</time>
      </trkpt>
      <trkpt lat="41.95530667" lon="2.85734167">
        <ele>226.0</ele>
        <time>2021-08-21T07:00:37.997Z</time>
      </trkpt>
      <trkpt lat="41.95532833" lon="2.85738333">
        <ele>224.0</ele>
        <time>2021-08-21T07:00:39.014Z</time>
      </trkpt>
      <trkpt lat="41.95532833" lon="2.85738333">
        <ele>224.0</ele>
        <time>2021-08-21T07:00:40.026Z</time>
      </trkpt>
      <trkpt lat="41.95534333" lon="2.85743167">
        <ele>223.0</ele>
        <time>2021-08-21T07:00:40.995Z</time>
      </trkpt>
      <trkpt lat="41.95534333" lon="2.85743167">
        <ele>223.0</ele>
        <time>2021-08-21T07:00:42.011Z</time>
      </trkpt>
      <trkpt lat="41.95539167" lon="2.85745">
        <ele>222.0</ele>
        <time>2021-08-21T07:00:43.032Z</time>
      </trkpt>
      <trkpt lat="41.95539167" lon="2.85745">
        <ele>222.0</ele>
        <time>2021-08-21T07:00:43.997Z</time>
      </trkpt>
      <trkpt lat="41.95544" lon="2.85746833">
        <ele>221.0</ele>
        <time>2021-08-21T07:00:45.015Z</time>
      </trkpt>
      <trkpt lat="41.95544" lon="2.85746833">
        <ele>221.0</ele>
        <time>2021-08-21T07:00:45.998Z</time>
      </trkpt>
      <trkpt lat="41.955495" lon="2.85747667">
        <ele>220.0</ele>
        <time>2021-08-21T07:00:47.017Z</time>
      </trkpt>
      <trkpt lat="41.955495" lon="2.85747667">
        <ele>220.0</ele>
        <time>2021-08-21T07:00:47.993Z</time>
      </trkpt>
      <trkpt lat="41.95555667" lon="2.85747833">
        <ele>219.0</ele>
        <time>2021-08-21T07:00:49.012Z</time>
      </trkpt>
      <trkpt lat="41.95555667" lon="2.85747833">
        <ele>219.0</ele>
        <time>2021-08-21T07:00:50.022Z</time>
      </trkpt>
      <trkpt lat="41.95562167" lon="2.85749167">
        <ele>218.0</ele>
        <time>2021-08-21T07:00:50.995Z</time>
      </trkpt>
      <trkpt lat="41.95562167" lon="2.85749167">
        <ele>218.0</ele>
        <time>2021-08-21T07:00:52.008Z</time>
      </trkpt>
      <trkpt lat="41.95569667" lon="2.85751">
        <ele>217.0</ele>
        <time>2021-08-21T07:00:53.018Z</time>
      </trkpt>
      <trkpt lat="41.95569667" lon="2.85751">
        <ele>217.0</ele>
        <time>2021-08-21T07:00:54.023Z</time>
      </trkpt>
      <trkpt lat="41.95575667" lon="2.85752">
        <ele>217.0</ele>
        <time>2021-08-21T07:00:54.999Z</time>
      </trkpt>
      <trkpt lat="41.95575667" lon="2.85752">
        <ele>217.0</ele>
        <time>2021-08-21T07:00:55.994Z</time>
      </trkpt>
      <trkpt lat="41.95581667" lon="2.85752667">
        <ele>217.0</ele>
        <time>2021-08-21T07:00:57.007Z</time>
      </trkpt>
      <trkpt lat="41.95581667" lon="2.85752667">
        <ele>217.0</ele>
        <time>2021-08-21T07:00:58.016Z</time>
      </trkpt>
      <trkpt lat="41.95586833" lon="2.85752667">
        <ele>216.0</ele>
        <time>2021-08-21T07:00:59.010Z</time>
      </trkpt>
      <trkpt lat="41.95586833" lon="2.85752667">
        <ele>216.0</ele>
        <time>2021-08-21T07:00:59.994Z</time>
      </trkpt>
      <trkpt lat="41.95591833" lon="2.85754167">
        <ele>217.0</ele>
        <time>2021-08-21T07:01:01.011Z</time>
      </trkpt>
      <trkpt lat="41.95591833" lon="2.85754167">
        <ele>217.0</ele>
        <time>2021-08-21T07:01:02.013Z</time>
      </trkpt>
      <trkpt lat="41.95597333" lon="2.85755667">
        <ele>217.0</ele>
        <time>2021-08-21T07:01:03.028Z</time>
      </trkpt>
      <trkpt lat="41.956" lon="2.857565">
        <ele>218.0</ele>
        <time>2021-08-21T07:01:04.028Z</time>
      </trkpt>
      <trkpt lat="41.956" lon="2.857565">
        <ele>218.0</ele>
        <time>2021-08-21T07:01:05.004Z</time>
      </trkpt>
      <trkpt lat="41.95605167" lon="2.85758833">
        <ele>219.0</ele>
        <time>2021-08-21T07:01:06.017Z</time>
      </trkpt>
      <trkpt lat="41.95607667" lon="2.857605">
        <ele>220.0</ele>
        <time>2021-08-21T07:01:06.994Z</time>
      </trkpt>
      <trkpt lat="41.95607667" lon="2.857605">
        <ele>220.0</ele>
        <time>2021-08-21T07:01:08.001Z</time>
      </trkpt>
      <trkpt lat="41.95612667" lon="2.85763833">
        <ele>220.0</ele>
        <time>2021-08-21T07:01:09.016Z</time>
      </trkpt>
      <trkpt lat="41.95612667" lon="2.85763833">
        <ele>220.0</ele>
        <time>2021-08-21T07:01:10.022Z</time>
      </trkpt>
      <trkpt lat="41.956175" lon="2.85766">
        <ele>221.0</ele>
        <time>2021-08-21T07:01:10.999Z</time>
      </trkpt>
      <trkpt lat="41.95619833" lon="2.85767">
        <ele>222.0</ele>
        <time>2021-08-21T07:01:12.025Z</time>
      </trkpt>
      <trkpt lat="41.95621833" lon="2.85768">
        <ele>222.0</ele>
        <time>2021-08-21T07:01:12.995Z</time>
      </trkpt>
      <trkpt lat="41.95621833" lon="2.85768">
        <ele>222.0</ele>
        <time>2021-08-21T07:01:14.008Z</time>
      </trkpt>
      <trkpt lat="41.95624833" lon="2.85770333">
        <ele>223.0</ele>
        <time>2021-08-21T07:01:15.021Z</time>
      </trkpt>
      <trkpt lat="41.95624833" lon="2.85770333">
        <ele>223.0</ele>
        <time>2021-08-21T07:01:16.029Z</time>
      </trkpt>
      <trkpt lat="41.956285" lon="2.857735">
        <ele>223.0</ele>
        <time>2021-08-21T07:01:17.001Z</time>
      </trkpt>
      <trkpt lat="41.956285" lon="2.857735">
        <ele>223.0</ele>
        <time>2021-08-21T07:01:18.015Z</time>
      </trkpt>
      <trkpt lat="41.956335" lon="2.85779333">
        <ele>223.0</ele>
        <time>2021-08-21T07:01:19.028Z</time>
      </trkpt>
      <trkpt lat="41.956335" lon="2.85779333">
        <ele>223.0</ele>
        <time>2021-08-21T07:01:20.019Z</time>
      </trkpt>
      <trkpt lat="41.95639833" lon="2.85786">
        <ele>223.0</ele>
        <time>2021-08-21T07:01:20.998Z</time>
      </trkpt>
      <trkpt lat="41.95639833" lon="2.85786">
        <ele>223.0</ele>
        <time>2021-08-21T07:01:22.022Z</time>
      </trkpt>
      <trkpt lat="41.95646" lon="2.85793">
        <ele>224.0</ele>
        <time>2021-08-21T07:01:23.000Z</time>
      </trkpt>
      <trkpt lat="41.95646" lon="2.85793">
        <ele>224.0</ele>
        <time>2021-08-21T07:01:23.999Z</time>
      </trkpt>
      <trkpt lat="41.95652" lon="2.85800833">
        <ele>223.0</ele>
        <time>2021-08-21T07:01:25.014Z</time>
      </trkpt>
      <trkpt lat="41.95652" lon="2.85800833">
        <ele>223.0</ele>
        <time>2021-08-21T07:01:26.029Z</time>
      </trkpt>
      <trkpt lat="41.95658667" lon="2.8581">
        <ele>223.0</ele>
        <time>2021-08-21T07:01:27.000Z</time>
      </trkpt>
      <trkpt lat="41.95658667" lon="2.8581">
        <ele>223.0</ele>
        <time>2021-08-21T07:01:28.009Z</time>
      </trkpt>
      <trkpt lat="41.95664" lon="2.85820167">
        <ele>223.0</ele>
        <time>2021-08-21T07:01:29.025Z</time>
      </trkpt>
      <trkpt lat="41.95664" lon="2.85820167">
        <ele>223.0</ele>
        <time>2021-08-21T07:01:30.002Z</time>
      </trkpt>
      <trkpt lat="41.95668667" lon="2.85834833">
        <ele>223.0</ele>
        <time>2021-08-21T07:01:30.992Z</time>
      </trkpt>
      <trkpt lat="41.95668667" lon="2.85834833">
        <ele>223.0</ele>
        <time>2021-08-21T07:01:32.009Z</time>
      </trkpt>
      <trkpt lat="41.95672833" lon="2.85850667">
        <ele>222.0</ele>
        <time>2021-08-21T07:01:33.024Z</time>
      </trkpt>
      <trkpt lat="41.95675167" lon="2.858575">
        <ele>222.0</ele>
        <time>2021-08-21T07:01:34.025Z</time>
      </trkpt>
      <trkpt lat="41.95675167" lon="2.858575">
        <ele>222.0</ele>
        <time>2021-08-21T07:01:34.994Z</time>
      </trkpt>
      <trkpt lat="41.95678833" lon="2.8587">
        <ele>222.0</ele>
        <time>2021-08-21T07:01:36.007Z</time>
      </trkpt>
      <trkpt lat="41.95680333" lon="2.858765">
        <ele>222.0</ele>
        <time>2021-08-21T07:01:37.030Z</time>
      </trkpt>
      <trkpt lat="41.95680333" lon="2.858765">
        <ele>222.0</ele>
        <time>2021-08-21T07:01:37.999Z</time>
      </trkpt>
      <trkpt lat="41.95688" lon="2.85888833">
        <ele>221.0</ele>
        <time>2021-08-21T07:01:39.022Z</time>
      </trkpt>
      <trkpt lat="41.95688" lon="2.85888833">
        <ele>221.0</ele>
        <time>2021-08-21T07:01:40.007Z</time>
      </trkpt>
      <trkpt lat="41.95696667" lon="2.859">
        <ele>221.0</ele>
        <time>2021-08-21T07:01:41.026Z</time>
      </trkpt>
      <trkpt lat="41.95696667" lon="2.859">
        <ele>221.0</ele>
        <time>2021-08-21T07:01:41.994Z</time>
      </trkpt>
      <trkpt lat="41.95704667" lon="2.85911167">
        <ele>221.0</ele>
        <time>2021-08-21T07:01:43.012Z</time>
      </trkpt>
      <trkpt lat="41.95704667" lon="2.85911167">
        <ele>221.0</ele>
        <time>2021-08-21T07:01:44.018Z</time>
      </trkpt>
      <trkpt lat="41.9571" lon="2.859195">
        <ele>220.0</ele>
        <time>2021-08-21T07:01:44.998Z</time>
      </trkpt>
      <trkpt lat="41.95711667" lon="2.85923167">
        <ele>220.0</ele>
        <time>2021-08-21T07:01:46.026Z</time>
      </trkpt>
      <trkpt lat="41.95711667" lon="2.85923167">
        <ele>220.0</ele>
        <time>2021-08-21T07:01:47.021Z</time>
      </trkpt>
      <trkpt lat="41.95711" lon="2.85931833">
        <ele>220.0</ele>
        <time>2021-08-21T07:01:47.999Z</time>
      </trkpt>
      <trkpt lat="41.95710833" lon="2.859365">
        <ele>220.0</ele>
        <time>2021-08-21T07:01:49.019Z</time>
      </trkpt>
      <trkpt lat="41.95710833" lon="2.859365">
        <ele>220.0</ele>
        <time>2021-08-21T07:01:50.028Z</time>
      </trkpt>
      <trkpt lat="41.95712167" lon="2.85946167">
        <ele>220.0</ele>
        <time>2021-08-21T07:01:51.006Z</time>
      </trkpt>
      <trkpt lat="41.95712167" lon="2.85946167">
        <ele>220.0</ele>
        <time>2021-08-21T07:01:52.015Z</time>
      </trkpt>
      <trkpt lat="41.95714167" lon="2.85956167">
        <ele>219.0</ele>
        <time>2021-08-21T07:01:52.999Z</time>
      </trkpt>
      <trkpt lat="41.95714167" lon="2.85956167">
        <ele>219.0</ele>
        <time>2021-08-21T07:01:53.997Z</time>
      </trkpt>
      <trkpt lat="41.95717333" lon="2.85967">
        <ele>219.0</ele>
        <time>2021-08-21T07:01:55.020Z</time>
      </trkpt>
      <trkpt lat="41.95717333" lon="2.85967">
        <ele>219.0</ele>
        <time>2021-08-21T07:01:56.028Z</time>
      </trkpt>
      <trkpt lat="41.95720333" lon="2.85976333">
        <ele>219.0</ele>
        <time>2021-08-21T07:01:57.009Z</time>
      </trkpt>
      <trkpt lat="41.95720333" lon="2.85976333">
        <ele>219.0</ele>
        <time>2021-08-21T07:01:58.022Z</time>
      </trkpt>
      <trkpt lat="41.95725" lon="2.859825">
        <ele>219.0</ele>
        <time>2021-08-21T07:01:58.997Z</time>
      </trkpt>
      <trkpt lat="41.95725" lon="2.859825">
        <ele>219.0</ele>
        <time>2021-08-21T07:02:00.026Z</time>
      </trkpt>
      <trkpt lat="41.95731167" lon="2.85988167">
        <ele>219.0</ele>
        <time>2021-08-21T07:02:01.012Z</time>
      </trkpt>
      <trkpt lat="41.95731167" lon="2.85988167">
        <ele>219.0</ele>
        <time>2021-08-21T07:02:01.993Z</time>
      </trkpt>
      <trkpt lat="41.957375" lon="2.859875">
        <ele>218.0</ele>
        <time>2021-08-21T07:02:03.015Z</time>
      </trkpt>
      <trkpt lat="41.957375" lon="2.859875">
        <ele>218.0</ele>
        <time>2021-08-21T07:02:03.998Z</time>
      </trkpt>
      <trkpt lat="41.957435" lon="2.85986833">
        <ele>218.0</ele>
        <time>2021-08-21T07:02:05.016Z</time>
      </trkpt>
      <trkpt lat="41.957435" lon="2.85986833">
        <ele>218.0</ele>
        <time>2021-08-21T07:02:06.031Z</time>
      </trkpt>
      <trkpt lat="41.9575" lon="2.8599">
        <ele>218.0</ele>
        <time>2021-08-21T07:02:07.012Z</time>
      </trkpt>
      <trkpt lat="41.9575" lon="2.8599">
        <ele>218.0</ele>
        <time>2021-08-21T07:02:08.021Z</time>
      </trkpt>
      <trkpt lat="41.95754833" lon="2.85993333">
        <ele>217.0</ele>
        <time>2021-08-21T07:02:09.031Z</time>
      </trkpt>
      <trkpt lat="41.95754833" lon="2.85993333">
        <ele>217.0</ele>
        <time>2021-08-21T07:02:10.015Z</time>
      </trkpt>
      <trkpt lat="41.95757667" lon="2.86000667">
        <ele>217.0</ele>
        <time>2021-08-21T07:02:11.037Z</time>
      </trkpt>
      <trkpt lat="41.95759667" lon="2.86003667">
        <ele>216.0</ele>
        <time>2021-08-21T07:02:12.028Z</time>
      </trkpt>
      <trkpt lat="41.95761667" lon="2.86005667">
        <ele>216.0</ele>
        <time>2021-08-21T07:02:13.006Z</time>
      </trkpt>
      <trkpt lat="41.95761667" lon="2.86005667">
        <ele>216.0</ele>
        <time>2021-08-21T07:02:14.017Z</time>
      </trkpt>
      <trkpt lat="41.95765167" lon="2.86011833">
        <ele>216.0</ele>
        <time>2021-08-21T07:02:15.029Z</time>
      </trkpt>
      <trkpt lat="41.95767167" lon="2.86014167">
        <ele>216.0</ele>
        <time>2021-08-21T07:02:16.003Z</time>
      </trkpt>
      <trkpt lat="41.95769833" lon="2.86016167">
        <ele>216.0</ele>
        <time>2021-08-21T07:02:17.035Z</time>
      </trkpt>
      <trkpt lat="41.95769833" lon="2.86016167">
        <ele>216.0</ele>
        <time>2021-08-21T07:02:18.002Z</time>
      </trkpt>
      <trkpt lat="41.95775333" lon="2.86021">
        <ele>216.0</ele>
        <time>2021-08-21T07:02:19.018Z</time>
      </trkpt>
      <trkpt lat="41.95775333" lon="2.86021">
        <ele>216.0</ele>
        <time>2021-08-21T07:02:19.995Z</time>
      </trkpt>
      <trkpt lat="41.957815" lon="2.86023667">
        <ele>215.0</ele>
        <time>2021-08-21T07:02:21.005Z</time>
      </trkpt>
      <trkpt lat="41.95784667" lon="2.86023333">
        <ele>215.0</ele>
        <time>2021-08-21T07:02:22.016Z</time>
      </trkpt>
      <trkpt lat="41.95784667" lon="2.86023333">
        <ele>215.0</ele>
        <time>2021-08-21T07:02:23.031Z</time>
      </trkpt>
      <trkpt lat="41.95789" lon="2.86020167">
        <ele>215.0</ele>
        <time>2021-08-21T07:02:24.010Z</time>
      </trkpt>
      <trkpt lat="41.95791167" lon="2.86018667">
        <ele>215.0</ele>
        <time>2021-08-21T07:02:25.032Z</time>
      </trkpt>
      <trkpt lat="41.95791167" lon="2.86018667">
        <ele>215.0</ele>
        <time>2021-08-21T07:02:26.002Z</time>
      </trkpt>
      <trkpt lat="41.95795667" lon="2.86015833">
        <ele>215.0</ele>
        <time>2021-08-21T07:02:27.012Z</time>
      </trkpt>
      <trkpt lat="41.95795667" lon="2.86015833">
        <ele>215.0</ele>
        <time>2021-08-21T07:02:28.020Z</time>
      </trkpt>
      <trkpt lat="41.95799167" lon="2.86012333">
        <ele>215.0</ele>
        <time>2021-08-21T07:02:29.028Z</time>
      </trkpt>
      <trkpt lat="41.95802333" lon="2.86011">
        <ele>215.0</ele>
        <time>2021-08-21T07:02:29.999Z</time>
      </trkpt>
      <trkpt lat="41.95806" lon="2.860095">
        <ele>215.0</ele>
        <time>2021-08-21T07:02:31.024Z</time>
      </trkpt>
      <trkpt lat="41.95806" lon="2.860095">
        <ele>215.0</ele>
        <time>2021-08-21T07:02:31.992Z</time>
      </trkpt>
      <trkpt lat="41.95812" lon="2.86004833">
        <ele>215.0</ele>
        <time>2021-08-21T07:02:33.011Z</time>
      </trkpt>
      <trkpt lat="41.95812" lon="2.86004833">
        <ele>215.0</ele>
        <time>2021-08-21T07:02:34.007Z</time>
      </trkpt>
      <trkpt lat="41.95818333" lon="2.86000833">
        <ele>215.0</ele>
        <time>2021-08-21T07:02:35.020Z</time>
      </trkpt>
      <trkpt lat="41.95818333" lon="2.86000833">
        <ele>215.0</ele>
        <time>2021-08-21T07:02:36.020Z</time>
      </trkpt>
      <trkpt lat="41.95822833" lon="2.85997833">
        <ele>215.0</ele>
        <time>2021-08-21T07:02:37.000Z</time>
      </trkpt>
      <trkpt lat="41.95822833" lon="2.85997833">
        <ele>215.0</ele>
        <time>2021-08-21T07:02:38.009Z</time>
      </trkpt>
      <trkpt lat="41.95828167" lon="2.85995667">
        <ele>215.0</ele>
        <time>2021-08-21T07:02:39.023Z</time>
      </trkpt>
      <trkpt lat="41.95828167" lon="2.85995667">
        <ele>215.0</ele>
        <time>2021-08-21T07:02:40.000Z</time>
      </trkpt>
      <trkpt lat="41.95833333" lon="2.85993167">
        <ele>215.0</ele>
        <time>2021-08-21T07:02:41.013Z</time>
      </trkpt>
      <trkpt lat="41.95836" lon="2.85992333">
        <ele>215.0</ele>
        <time>2021-08-21T07:02:41.997Z</time>
      </trkpt>
      <trkpt lat="41.95836" lon="2.85992333">
        <ele>215.0</ele>
        <time>2021-08-21T07:02:43.012Z</time>
      </trkpt>
      <trkpt lat="41.95841667" lon="2.859905">
        <ele>215.0</ele>
        <time>2021-08-21T07:02:44.028Z</time>
      </trkpt>
      <trkpt lat="41.95841667" lon="2.859905">
        <ele>215.0</ele>
        <time>2021-08-21T07:02:44.994Z</time>
      </trkpt>
      <trkpt lat="41.95846833" lon="2.85988667">
        <ele>215.0</ele>
        <time>2021-08-21T07:02:46.013Z</time>
      </trkpt>
      <trkpt lat="41.95846833" lon="2.85988667">
        <ele>215.0</ele>
        <time>2021-08-21T07:02:47.025Z</time>
      </trkpt>
      <trkpt lat="41.95852167" lon="2.85988333">
        <ele>216.0</ele>
        <time>2021-08-21T07:02:48.005Z</time>
      </trkpt>
      <trkpt lat="41.95854833" lon="2.85988833">
        <ele>216.0</ele>
        <time>2021-08-21T07:02:48.994Z</time>
      </trkpt>
      <trkpt lat="41.95854833" lon="2.85988833">
        <ele>216.0</ele>
        <time>2021-08-21T07:02:50.014Z</time>
      </trkpt>
      <trkpt lat="41.95859833" lon="2.859895">
        <ele>217.0</ele>
        <time>2021-08-21T07:02:51.030Z</time>
      </trkpt>
      <trkpt lat="41.95862" lon="2.85989833">
        <ele>217.0</ele>
        <time>2021-08-21T07:02:52.017Z</time>
      </trkpt>
      <trkpt lat="41.95862" lon="2.85989833">
        <ele>217.0</ele>
        <time>2021-08-21T07:02:53.018Z</time>
      </trkpt>
      <trkpt lat="41.95867" lon="2.85990667">
        <ele>217.0</ele>
        <time>2021-08-21T07:02:53.995Z</time>
      </trkpt>
      <trkpt lat="41.95870167" lon="2.85991667">
        <ele>217.0</ele>
        <time>2021-08-21T07:02:55.029Z</time>
      </trkpt>
      <trkpt lat="41.95870167" lon="2.85991667">
        <ele>217.0</ele>
        <time>2021-08-21T07:02:56.021Z</time>
      </trkpt>
      <trkpt lat="41.95879" lon="2.85993">
        <ele>218.0</ele>
        <time>2021-08-21T07:02:56.993Z</time>
      </trkpt>
      <trkpt lat="41.95879" lon="2.85993">
        <ele>218.0</ele>
        <time>2021-08-21T07:02:58.013Z</time>
      </trkpt>
      <trkpt lat="41.95887167" lon="2.85991333">
        <ele>218.0</ele>
        <time>2021-08-21T07:02:58.992Z</time>
      </trkpt>
      <trkpt lat="41.95891167" lon="2.85990333">
        <ele>218.0</ele>
        <time>2021-08-21T07:03:00.016Z</time>
      </trkpt>
      <trkpt lat="41.95895167" lon="2.85989167">
        <ele>218.0</ele>
        <time>2021-08-21T07:03:00.998Z</time>
      </trkpt>
      <trkpt lat="41.95895167" lon="2.85989167">
        <ele>218.0</ele>
        <time>2021-08-21T07:03:02.001Z</time>
      </trkpt>
      <trkpt lat="41.95902333" lon="2.85988667">
        <ele>218.0</ele>
        <time>2021-08-21T07:03:03.018Z</time>
      </trkpt>
      <trkpt lat="41.959045" lon="2.85990833">
        <ele>218.0</ele>
        <time>2021-08-21T07:03:04.065Z</time>
      </trkpt>
      <trkpt lat="41.959045" lon="2.85990833">
        <ele>218.0</ele>
        <time>2021-08-21T07:03:05.005Z</time>
      </trkpt>
      <trkpt lat="41.95909667" lon="2.85998333">
        <ele>218.0</ele>
        <time>2021-08-21T07:03:06.031Z</time>
      </trkpt>
      <trkpt lat="41.95913167" lon="2.86002833">
        <ele>218.0</ele>
        <time>2021-08-21T07:03:07.007Z</time>
      </trkpt>
      <trkpt lat="41.95913167" lon="2.86002833">
        <ele>218.0</ele>
        <time>2021-08-21T07:03:08.021Z</time>
      </trkpt>
      <trkpt lat="41.95919833" lon="2.86011667">
        <ele>217.0</ele>
        <time>2021-08-21T07:03:08.995Z</time>
      </trkpt>
      <trkpt lat="41.95919833" lon="2.86011667">
        <ele>217.0</ele>
        <time>2021-08-21T07:03:10.015Z</time>
      </trkpt>
      <trkpt lat="41.95927167" lon="2.860165">
        <ele>217.0</ele>
        <time>2021-08-21T07:03:10.994Z</time>
      </trkpt>
      <trkpt lat="41.959305" lon="2.86017667">
        <ele>216.0</ele>
        <time>2021-08-21T07:03:12.015Z</time>
      </trkpt>
      <trkpt lat="41.959305" lon="2.86017667">
        <ele>216.0</ele>
        <time>2021-08-21T07:03:13.030Z</time>
      </trkpt>
      <trkpt lat="41.95935333" lon="2.86023667">
        <ele>216.0</ele>
        <time>2021-08-21T07:03:14.007Z</time>
      </trkpt>
      <trkpt lat="41.95938" lon="2.86026833">
        <ele>216.0</ele>
        <time>2021-08-21T07:03:14.993Z</time>
      </trkpt>
      <trkpt lat="41.95938" lon="2.86026833">
        <ele>216.0</ele>
        <time>2021-08-21T07:03:15.995Z</time>
      </trkpt>
      <trkpt lat="41.95944333" lon="2.8603">
        <ele>215.0</ele>
        <time>2021-08-21T07:03:17.011Z</time>
      </trkpt>
      <trkpt lat="41.95944333" lon="2.8603">
        <ele>215.0</ele>
        <time>2021-08-21T07:03:18.000Z</time>
      </trkpt>
      <trkpt lat="41.95950333" lon="2.86034167">
        <ele>215.0</ele>
        <time>2021-08-21T07:03:19.015Z</time>
      </trkpt>
      <trkpt lat="41.95950333" lon="2.86034167">
        <ele>215.0</ele>
        <time>2021-08-21T07:03:19.994Z</time>
      </trkpt>
      <trkpt lat="41.95958" lon="2.86042667">
        <ele>215.0</ele>
        <time>2021-08-21T07:03:21.006Z</time>
      </trkpt>
      <trkpt lat="41.95958" lon="2.86042667">
        <ele>215.0</ele>
        <time>2021-08-21T07:03:22.015Z</time>
      </trkpt>
      <trkpt lat="41.95966667" lon="2.86049">
        <ele>214.0</ele>
        <time>2021-08-21T07:03:23.029Z</time>
      </trkpt>
      <trkpt lat="41.95966667" lon="2.86049">
        <ele>214.0</ele>
        <time>2021-08-21T07:03:24.001Z</time>
      </trkpt>
      <trkpt lat="41.95973833" lon="2.86052667">
        <ele>214.0</ele>
        <time>2021-08-21T07:03:25.015Z</time>
      </trkpt>
      <trkpt lat="41.95973833" lon="2.86052667">
        <ele>214.0</ele>
        <time>2021-08-21T07:03:26.014Z</time>
      </trkpt>
      <trkpt lat="41.95976167" lon="2.86055">
        <ele>213.0</ele>
        <time>2021-08-21T07:03:27.025Z</time>
      </trkpt>
      <trkpt lat="41.95976167" lon="2.86055">
        <ele>213.0</ele>
        <time>2021-08-21T07:03:28.006Z</time>
      </trkpt>
      <trkpt lat="41.95978333" lon="2.86055833">
        <ele>212.0</ele>
        <time>2021-08-21T07:03:29.031Z</time>
      </trkpt>
      <trkpt lat="41.95978333" lon="2.86055833">
        <ele>212.0</ele>
        <time>2021-08-21T07:03:30.000Z</time>
      </trkpt>
      <trkpt lat="41.95982833" lon="2.86057167">
        <ele>212.0</ele>
        <time>2021-08-21T07:03:31.015Z</time>
      </trkpt>
      <trkpt lat="41.95982833" lon="2.86057167">
        <ele>212.0</ele>
        <time>2021-08-21T07:03:31.992Z</time>
      </trkpt>
      <trkpt lat="41.95985167" lon="2.86062">
        <ele>211.0</ele>
        <time>2021-08-21T07:03:33.008Z</time>
      </trkpt>
      <trkpt lat="41.95985167" lon="2.86062">
        <ele>211.0</ele>
        <time>2021-08-21T07:03:34.031Z</time>
      </trkpt>
      <trkpt lat="41.95990667" lon="2.86067167">
        <ele>210.0</ele>
        <time>2021-08-21T07:03:34.999Z</time>
      </trkpt>
      <trkpt lat="41.95990667" lon="2.86067167">
        <ele>210.0</ele>
        <time>2021-08-21T07:03:36.008Z</time>
      </trkpt>
      <trkpt lat="41.95996667" lon="2.86073">
        <ele>210.0</ele>
        <time>2021-08-21T07:03:37.000Z</time>
      </trkpt>
      <trkpt lat="41.95996667" lon="2.86073">
        <ele>210.0</ele>
        <time>2021-08-21T07:03:38.012Z</time>
      </trkpt>
      <trkpt lat="41.95997167" lon="2.86081333">
        <ele>210.0</ele>
        <time>2021-08-21T07:03:39.025Z</time>
      </trkpt>
      <trkpt lat="41.95997167" lon="2.86081333">
        <ele>210.0</ele>
        <time>2021-08-21T07:03:40.019Z</time>
      </trkpt>
      <trkpt lat="41.959985" lon="2.86091167">
        <ele>209.0</ele>
        <time>2021-08-21T07:03:41.033Z</time>
      </trkpt>
      <trkpt lat="41.959985" lon="2.86091167">
        <ele>209.0</ele>
        <time>2021-08-21T07:03:42.011Z</time>
      </trkpt>
      <trkpt lat="41.96003167" lon="2.860995">
        <ele>209.0</ele>
        <time>2021-08-21T07:03:43.025Z</time>
      </trkpt>
      <trkpt lat="41.96003167" lon="2.860995">
        <ele>209.0</ele>
        <time>2021-08-21T07:03:44.000Z</time>
      </trkpt>
      <trkpt lat="41.96009" lon="2.86104667">
        <ele>209.0</ele>
        <time>2021-08-21T07:03:45.030Z</time>
      </trkpt>
      <trkpt lat="41.96009" lon="2.86104667">
        <ele>209.0</ele>
        <time>2021-08-21T07:03:46.011Z</time>
      </trkpt>
      <trkpt lat="41.96016" lon="2.861095">
        <ele>208.0</ele>
        <time>2021-08-21T07:03:47.029Z</time>
      </trkpt>
      <trkpt lat="41.96016" lon="2.861095">
        <ele>208.0</ele>
        <time>2021-08-21T07:03:48.000Z</time>
      </trkpt>
      <trkpt lat="41.960225" lon="2.861145">
        <ele>208.0</ele>
        <time>2021-08-21T07:03:49.021Z</time>
      </trkpt>
      <trkpt lat="41.960225" lon="2.861145">
        <ele>208.0</ele>
        <time>2021-08-21T07:03:50.000Z</time>
      </trkpt>
      <trkpt lat="41.96029833" lon="2.86121">
        <ele>207.0</ele>
        <time>2021-08-21T07:03:51.026Z</time>
      </trkpt>
      <trkpt lat="41.96033667" lon="2.86124">
        <ele>207.0</ele>
        <time>2021-08-21T07:03:52.010Z</time>
      </trkpt>
      <trkpt lat="41.96033667" lon="2.86124">
        <ele>207.0</ele>
        <time>2021-08-21T07:03:53.024Z</time>
      </trkpt>
      <trkpt lat="41.9604" lon="2.86129333">
        <ele>207.0</ele>
        <time>2021-08-21T07:03:53.998Z</time>
      </trkpt>
      <trkpt lat="41.960435" lon="2.861325">
        <ele>207.0</ele>
        <time>2021-08-21T07:03:55.012Z</time>
      </trkpt>
      <trkpt lat="41.960435" lon="2.861325">
        <ele>207.0</ele>
        <time>2021-08-21T07:03:56.021Z</time>
      </trkpt>
      <trkpt lat="41.96051167" lon="2.86139667">
        <ele>207.0</ele>
        <time>2021-08-21T07:03:57.011Z</time>
      </trkpt>
      <trkpt lat="41.96055167" lon="2.86144333">
        <ele>206.0</ele>
        <time>2021-08-21T07:03:57.993Z</time>
      </trkpt>
      <trkpt lat="41.96055167" lon="2.86144333">
        <ele>206.0</ele>
        <time>2021-08-21T07:03:59.008Z</time>
      </trkpt>
      <trkpt lat="41.96063333" lon="2.86150333">
        <ele>206.0</ele>
        <time>2021-08-21T07:04:00.003Z</time>
      </trkpt>
      <trkpt lat="41.96066833" lon="2.86152">
        <ele>206.0</ele>
        <time>2021-08-21T07:04:01.029Z</time>
      </trkpt>
      <trkpt lat="41.96066833" lon="2.86152">
        <ele>206.0</ele>
        <time>2021-08-21T07:04:02.015Z</time>
      </trkpt>
      <trkpt lat="41.96073333" lon="2.86153167">
        <ele>206.0</ele>
        <time>2021-08-21T07:04:02.998Z</time>
      </trkpt>
      <trkpt lat="41.96077167" lon="2.86153">
        <ele>205.0</ele>
        <time>2021-08-21T07:04:04.021Z</time>
      </trkpt>
      <trkpt lat="41.96077167" lon="2.86153">
        <ele>205.0</ele>
        <time>2021-08-21T07:04:04.996Z</time>
      </trkpt>
      <trkpt lat="41.96084333" lon="2.86154333">
        <ele>205.0</ele>
        <time>2021-08-21T07:04:06.012Z</time>
      </trkpt>
      <trkpt lat="41.96086833" lon="2.86156">
        <ele>205.0</ele>
        <time>2021-08-21T07:04:07.003Z</time>
      </trkpt>
      <trkpt lat="41.96086833" lon="2.86156">
        <ele>205.0</ele>
        <time>2021-08-21T07:04:08.009Z</time>
      </trkpt>
      <trkpt lat="41.96089167" lon="2.86163667">
        <ele>205.0</ele>
        <time>2021-08-21T07:04:09.027Z</time>
      </trkpt>
      <trkpt lat="41.96089167" lon="2.86163667">
        <ele>205.0</ele>
        <time>2021-08-21T07:04:10.004Z</time>
      </trkpt>
      <trkpt lat="41.96090167" lon="2.86174167">
        <ele>205.0</ele>
        <time>2021-08-21T07:04:11.020Z</time>
      </trkpt>
      <trkpt lat="41.96090833" lon="2.86179167">
        <ele>205.0</ele>
        <time>2021-08-21T07:04:12.001Z</time>
      </trkpt>
      <trkpt lat="41.96091667" lon="2.86184333">
        <ele>205.0</ele>
        <time>2021-08-21T07:04:13.013Z</time>
      </trkpt>
      <trkpt lat="41.96091667" lon="2.86184333">
        <ele>205.0</ele>
        <time>2021-08-21T07:04:14.021Z</time>
      </trkpt>
      <trkpt lat="41.96091833" lon="2.861935">
        <ele>205.0</ele>
        <time>2021-08-21T07:04:14.998Z</time>
      </trkpt>
      <trkpt lat="41.96091833" lon="2.861935">
        <ele>205.0</ele>
        <time>2021-08-21T07:04:16.005Z</time>
      </trkpt>
      <trkpt lat="41.96094667" lon="2.86203333">
        <ele>205.0</ele>
        <time>2021-08-21T07:04:17.020Z</time>
      </trkpt>
      <trkpt lat="41.96094667" lon="2.86203333">
        <ele>205.0</ele>
        <time>2021-08-21T07:04:18.014Z</time>
      </trkpt>
      <trkpt lat="41.96098333" lon="2.86211333">
        <ele>205.0</ele>
        <time>2021-08-21T07:04:18.992Z</time>
      </trkpt>
      <trkpt lat="41.96098333" lon="2.86211333">
        <ele>205.0</ele>
        <time>2021-08-21T07:04:19.999Z</time>
      </trkpt>
      <trkpt lat="41.96102333" lon="2.86219">
        <ele>205.0</ele>
        <time>2021-08-21T07:04:21.011Z</time>
      </trkpt>
      <trkpt lat="41.96102333" lon="2.86219">
        <ele>205.0</ele>
        <time>2021-08-21T07:04:22.022Z</time>
      </trkpt>
      <trkpt lat="41.96107833" lon="2.86227667">
        <ele>205.0</ele>
        <time>2021-08-21T07:04:23.032Z</time>
      </trkpt>
      <trkpt lat="41.96107833" lon="2.86227667">
        <ele>205.0</ele>
        <time>2021-08-21T07:04:23.999Z</time>
      </trkpt>
      <trkpt lat="41.96115" lon="2.86234833">
        <ele>205.0</ele>
        <time>2021-08-21T07:04:25.021Z</time>
      </trkpt>
      <trkpt lat="41.96115" lon="2.86234833">
        <ele>205.0</ele>
        <time>2021-08-21T07:04:25.997Z</time>
      </trkpt>
      <trkpt lat="41.96123167" lon="2.86240833">
        <ele>205.0</ele>
        <time>2021-08-21T07:04:27.021Z</time>
      </trkpt>
      <trkpt lat="41.96123167" lon="2.86240833">
        <ele>205.0</ele>
        <time>2021-08-21T07:04:28.030Z</time>
      </trkpt>
      <trkpt lat="41.96130667" lon="2.86248167">
        <ele>206.0</ele>
        <time>2021-08-21T07:04:29.001Z</time>
      </trkpt>
      <trkpt lat="41.96130667" lon="2.86248167">
        <ele>206.0</ele>
        <time>2021-08-21T07:04:30.015Z</time>
      </trkpt>
      <trkpt lat="41.96139167" lon="2.86255167">
        <ele>206.0</ele>
        <time>2021-08-21T07:04:31.028Z</time>
      </trkpt>
      <trkpt lat="41.96139167" lon="2.86255167">
        <ele>206.0</ele>
        <time>2021-08-21T07:04:31.996Z</time>
      </trkpt>
      <trkpt lat="41.96146667" lon="2.862615">
        <ele>206.0</ele>
        <time>2021-08-21T07:04:33.017Z</time>
      </trkpt>
      <trkpt lat="41.96146667" lon="2.862615">
        <ele>206.0</ele>
        <time>2021-08-21T07:04:33.998Z</time>
      </trkpt>
      <trkpt lat="41.96153" lon="2.86267333">
        <ele>206.0</ele>
        <time>2021-08-21T07:04:35.008Z</time>
      </trkpt>
      <trkpt lat="41.96156" lon="2.86270167">
        <ele>206.0</ele>
        <time>2021-08-21T07:04:36.009Z</time>
      </trkpt>
      <trkpt lat="41.96159167" lon="2.862725">
        <ele>206.0</ele>
        <time>2021-08-21T07:04:37.004Z</time>
      </trkpt>
      <trkpt lat="41.96159167" lon="2.862725">
        <ele>206.0</ele>
        <time>2021-08-21T07:04:38.023Z</time>
      </trkpt>
      <trkpt lat="41.96166333" lon="2.86276167">
        <ele>206.0</ele>
        <time>2021-08-21T07:04:39.000Z</time>
      </trkpt>
      <trkpt lat="41.96166333" lon="2.86276167">
        <ele>206.0</ele>
        <time>2021-08-21T07:04:40.006Z</time>
      </trkpt>
      <trkpt lat="41.96174833" lon="2.86278167">
        <ele>206.0</ele>
        <time>2021-08-21T07:04:41.019Z</time>
      </trkpt>
      <trkpt lat="41.96174833" lon="2.86278167">
        <ele>206.0</ele>
        <time>2021-08-21T07:04:42.000Z</time>
      </trkpt>
      <trkpt lat="41.96182667" lon="2.86279333">
        <ele>206.0</ele>
        <time>2021-08-21T07:04:43.025Z</time>
      </trkpt>
      <trkpt lat="41.96182667" lon="2.86279333">
        <ele>206.0</ele>
        <time>2021-08-21T07:04:44.018Z</time>
      </trkpt>
      <trkpt lat="41.961905" lon="2.86282333">
        <ele>205.0</ele>
        <time>2021-08-21T07:04:45.001Z</time>
      </trkpt>
      <trkpt lat="41.961905" lon="2.86282333">
        <ele>205.0</ele>
        <time>2021-08-21T07:04:46.031Z</time>
      </trkpt>
      <trkpt lat="41.96200333" lon="2.862835">
        <ele>205.0</ele>
        <time>2021-08-21T07:04:47.006Z</time>
      </trkpt>
      <trkpt lat="41.96200333" lon="2.862835">
        <ele>205.0</ele>
        <time>2021-08-21T07:04:48.019Z</time>
      </trkpt>
      <trkpt lat="41.96209833" lon="2.86283833">
        <ele>204.0</ele>
        <time>2021-08-21T07:04:49.000Z</time>
      </trkpt>
      <trkpt lat="41.96209833" lon="2.86283833">
        <ele>204.0</ele>
        <time>2021-08-21T07:04:50.022Z</time>
      </trkpt>
      <trkpt lat="41.96216833" lon="2.862895">
        <ele>203.0</ele>
        <time>2021-08-21T07:04:51.003Z</time>
      </trkpt>
      <trkpt lat="41.96216833" lon="2.862895">
        <ele>203.0</ele>
        <time>2021-08-21T07:04:52.027Z</time>
      </trkpt>
      <trkpt lat="41.96224833" lon="2.86295333">
        <ele>203.0</ele>
        <time>2021-08-21T07:04:53.007Z</time>
      </trkpt>
      <trkpt lat="41.96229667" lon="2.86298667">
        <ele>203.0</ele>
        <time>2021-08-21T07:04:53.997Z</time>
      </trkpt>
      <trkpt lat="41.96229667" lon="2.86298667">
        <ele>203.0</ele>
        <time>2021-08-21T07:04:55.003Z</time>
      </trkpt>
      <trkpt lat="41.96237667" lon="2.863075">
        <ele>203.0</ele>
        <time>2021-08-21T07:04:56.018Z</time>
      </trkpt>
      <trkpt lat="41.96241667" lon="2.86310833">
        <ele>203.0</ele>
        <time>2021-08-21T07:04:57.016Z</time>
      </trkpt>
      <trkpt lat="41.96241667" lon="2.86310833">
        <ele>203.0</ele>
        <time>2021-08-21T07:04:58.001Z</time>
      </trkpt>
      <trkpt lat="41.96249667" lon="2.86316667">
        <ele>203.0</ele>
        <time>2021-08-21T07:04:59.013Z</time>
      </trkpt>
      <trkpt lat="41.96249667" lon="2.86316667">
        <ele>203.0</ele>
        <time>2021-08-21T07:04:59.996Z</time>
      </trkpt>
      <trkpt lat="41.96257333" lon="2.863235">
        <ele>202.0</ele>
        <time>2021-08-21T07:05:01.008Z</time>
      </trkpt>
      <trkpt lat="41.96257333" lon="2.863235">
        <ele>202.0</ele>
        <time>2021-08-21T07:05:02.008Z</time>
      </trkpt>
      <trkpt lat="41.96262167" lon="2.86331833">
        <ele>202.0</ele>
        <time>2021-08-21T07:05:03.028Z</time>
      </trkpt>
      <trkpt lat="41.96262167" lon="2.86331833">
        <ele>202.0</ele>
        <time>2021-08-21T07:05:04.020Z</time>
      </trkpt>
      <trkpt lat="41.96263833" lon="2.86342">
        <ele>202.0</ele>
        <time>2021-08-21T07:05:04.998Z</time>
      </trkpt>
      <trkpt lat="41.96263833" lon="2.86342">
        <ele>202.0</ele>
        <time>2021-08-21T07:05:06.008Z</time>
      </trkpt>
      <trkpt lat="41.96262667" lon="2.86353167">
        <ele>202.0</ele>
        <time>2021-08-21T07:05:07.021Z</time>
      </trkpt>
      <trkpt lat="41.96262667" lon="2.86353167">
        <ele>202.0</ele>
        <time>2021-08-21T07:05:07.994Z</time>
      </trkpt>
      <trkpt lat="41.96261667" lon="2.86366167">
        <ele>202.0</ele>
        <time>2021-08-21T07:05:09.015Z</time>
      </trkpt>
      <trkpt lat="41.96261667" lon="2.86366167">
        <ele>202.0</ele>
        <time>2021-08-21T07:05:10.023Z</time>
      </trkpt>
      <trkpt lat="41.9626" lon="2.86379167">
        <ele>201.0</ele>
        <time>2021-08-21T07:05:10.994Z</time>
      </trkpt>
      <trkpt lat="41.96260167" lon="2.86386333">
        <ele>201.0</ele>
        <time>2021-08-21T07:05:12.008Z</time>
      </trkpt>
      <trkpt lat="41.96260833" lon="2.86393167">
        <ele>201.0</ele>
        <time>2021-08-21T07:05:13.015Z</time>
      </trkpt>
      <trkpt lat="41.96260833" lon="2.86393167">
        <ele>201.0</ele>
        <time>2021-08-21T07:05:14.022Z</time>
      </trkpt>
      <trkpt lat="41.96261833" lon="2.86406667">
        <ele>200.0</ele>
        <time>2021-08-21T07:05:15.007Z</time>
      </trkpt>
      <trkpt lat="41.96261833" lon="2.86406667">
        <ele>200.0</ele>
        <time>2021-08-21T07:05:16.015Z</time>
      </trkpt>
      <trkpt lat="41.96261333" lon="2.86420667">
        <ele>200.0</ele>
        <time>2021-08-21T07:05:17.018Z</time>
      </trkpt>
      <trkpt lat="41.96261333" lon="2.86420667">
        <ele>200.0</ele>
        <time>2021-08-21T07:05:18.026Z</time>
      </trkpt>
      <trkpt lat="41.96262833" lon="2.86431">
        <ele>200.0</ele>
        <time>2021-08-21T07:05:19.009Z</time>
      </trkpt>
      <trkpt lat="41.96262833" lon="2.86431">
        <ele>200.0</ele>
        <time>2021-08-21T07:05:20.024Z</time>
      </trkpt>
      <trkpt lat="41.96267167" lon="2.86436">
        <ele>200.0</ele>
        <time>2021-08-21T07:05:20.995Z</time>
      </trkpt>
      <trkpt lat="41.96269833" lon="2.86438">
        <ele>200.0</ele>
        <time>2021-08-21T07:05:22.007Z</time>
      </trkpt>
      <trkpt lat="41.96269833" lon="2.86438">
        <ele>200.0</ele>
        <time>2021-08-21T07:05:23.016Z</time>
      </trkpt>
      <trkpt lat="41.96275833" lon="2.86446333">
        <ele>199.0</ele>
        <time>2021-08-21T07:05:24.031Z</time>
      </trkpt>
      <trkpt lat="41.9628" lon="2.86451167">
        <ele>199.0</ele>
        <time>2021-08-21T07:05:25.001Z</time>
      </trkpt>
      <trkpt lat="41.9628" lon="2.86451167">
        <ele>199.0</ele>
        <time>2021-08-21T07:05:26.009Z</time>
      </trkpt>
      <trkpt lat="41.96290833" lon="2.86462333">
        <ele>199.0</ele>
        <time>2021-08-21T07:05:27.025Z</time>
      </trkpt>
      <trkpt lat="41.96297167" lon="2.86468667">
        <ele>199.0</ele>
        <time>2021-08-21T07:05:28.021Z</time>
      </trkpt>
      <trkpt lat="41.96297167" lon="2.86468667">
        <ele>199.0</ele>
        <time>2021-08-21T07:05:29.031Z</time>
      </trkpt>
      <trkpt lat="41.96312167" lon="2.864795">
        <ele>198.0</ele>
        <time>2021-08-21T07:05:30.010Z</time>
      </trkpt>
      <trkpt lat="41.96320667" lon="2.86483667">
        <ele>198.0</ele>
        <time>2021-08-21T07:05:31.005Z</time>
      </trkpt>
      <trkpt lat="41.96320667" lon="2.86483667">
        <ele>198.0</ele>
        <time>2021-08-21T07:05:31.993Z</time>
      </trkpt>
      <trkpt lat="41.96338333" lon="2.86491833">
        <ele>197.0</ele>
        <time>2021-08-21T07:05:33.005Z</time>
      </trkpt>
      <trkpt lat="41.96338333" lon="2.86491833">
        <ele>197.0</ele>
        <time>2021-08-21T07:05:34.018Z</time>
      </trkpt>
      <trkpt lat="41.963555" lon="2.865015">
        <ele>196.0</ele>
        <time>2021-08-21T07:05:35.008Z</time>
      </trkpt>
      <trkpt lat="41.96363333" lon="2.86505833">
        <ele>196.0</ele>
        <time>2021-08-21T07:05:36.042Z</time>
      </trkpt>
      <trkpt lat="41.96371167" lon="2.86510333">
        <ele>196.0</ele>
        <time>2021-08-21T07:05:37.023Z</time>
      </trkpt>
      <trkpt lat="41.96371167" lon="2.86510333">
        <ele>196.0</ele>
        <time>2021-08-21T07:05:38.008Z</time>
      </trkpt>
      <trkpt lat="41.96385833" lon="2.865185">
        <ele>195.0</ele>
        <time>2021-08-21T07:05:39.022Z</time>
      </trkpt>
      <trkpt lat="41.96392667" lon="2.86522167">
        <ele>195.0</ele>
        <time>2021-08-21T07:05:40.004Z</time>
      </trkpt>
      <trkpt lat="41.96392667" lon="2.86522167">
        <ele>195.0</ele>
        <time>2021-08-21T07:05:41.023Z</time>
      </trkpt>
      <trkpt lat="41.96404333" lon="2.86531333">
        <ele>194.0</ele>
        <time>2021-08-21T07:05:41.996Z</time>
      </trkpt>
      <trkpt lat="41.964095" lon="2.86535833">
        <ele>194.0</ele>
        <time>2021-08-21T07:05:42.993Z</time>
      </trkpt>
      <trkpt lat="41.964095" lon="2.86535833">
        <ele>194.0</ele>
        <time>2021-08-21T07:05:43.999Z</time>
      </trkpt>
      <trkpt lat="41.96419167" lon="2.86545">
        <ele>193.0</ele>
        <time>2021-08-21T07:05:45.022Z</time>
      </trkpt>
      <trkpt lat="41.96419167" lon="2.86545">
        <ele>193.0</ele>
        <time>2021-08-21T07:05:46.016Z</time>
      </trkpt>
      <trkpt lat="41.96427667" lon="2.865555">
        <ele>193.0</ele>
        <time>2021-08-21T07:05:46.994Z</time>
      </trkpt>
      <trkpt lat="41.96432167" lon="2.865615">
        <ele>193.0</ele>
        <time>2021-08-21T07:05:48.011Z</time>
      </trkpt>
      <trkpt lat="41.96436" lon="2.86566667">
        <ele>192.0</ele>
        <time>2021-08-21T07:05:49.008Z</time>
      </trkpt>
      <trkpt lat="41.96436" lon="2.86566667">
        <ele>192.0</ele>
        <time>2021-08-21T07:05:50.017Z</time>
      </trkpt>
      <trkpt lat="41.96445" lon="2.86576167">
        <ele>192.0</ele>
        <time>2021-08-21T07:05:51.032Z</time>
      </trkpt>
      <trkpt lat="41.96445" lon="2.86576167">
        <ele>192.0</ele>
        <time>2021-08-21T07:05:52.020Z</time>
      </trkpt>
      <trkpt lat="41.964545" lon="2.865875">
        <ele>192.0</ele>
        <time>2021-08-21T07:05:52.992Z</time>
      </trkpt>
      <trkpt lat="41.96457667" lon="2.86593667">
        <ele>192.0</ele>
        <time>2021-08-21T07:05:54.031Z</time>
      </trkpt>
      <trkpt lat="41.96457667" lon="2.86593667">
        <ele>192.0</ele>
        <time>2021-08-21T07:05:55.017Z</time>
      </trkpt>
      <trkpt lat="41.964605" lon="2.86609167">
        <ele>191.0</ele>
        <time>2021-08-21T07:05:55.999Z</time>
      </trkpt>
      <trkpt lat="41.96461167" lon="2.866185">
        <ele>191.0</ele>
        <time>2021-08-21T07:05:57.007Z</time>
      </trkpt>
      <trkpt lat="41.96461167" lon="2.866185">
        <ele>191.0</ele>
        <time>2021-08-21T07:05:58.030Z</time>
      </trkpt>
      <trkpt lat="41.96464833" lon="2.86635833">
        <ele>190.0</ele>
        <time>2021-08-21T07:05:59.007Z</time>
      </trkpt>
      <trkpt lat="41.96464833" lon="2.86635833">
        <ele>190.0</ele>
        <time>2021-08-21T07:06:00.018Z</time>
      </trkpt>
      <trkpt lat="41.96472333" lon="2.86649333">
        <ele>190.0</ele>
        <time>2021-08-21T07:06:00.998Z</time>
      </trkpt>
      <trkpt lat="41.96472333" lon="2.86649333">
        <ele>190.0</ele>
        <time>2021-08-21T07:06:02.003Z</time>
      </trkpt>
      <trkpt lat="41.964805" lon="2.86658833">
        <ele>189.0</ele>
        <time>2021-08-21T07:06:03.013Z</time>
      </trkpt>
      <trkpt lat="41.964805" lon="2.86658833">
        <ele>189.0</ele>
        <time>2021-08-21T07:06:04.024Z</time>
      </trkpt>
      <trkpt lat="41.96482167" lon="2.86665833">
        <ele>189.0</ele>
        <time>2021-08-21T07:06:04.999Z</time>
      </trkpt>
      <trkpt lat="41.96483833" lon="2.86669667">
        <ele>189.0</ele>
        <time>2021-08-21T07:06:06.010Z</time>
      </trkpt>
      <trkpt lat="41.96487" lon="2.86674">
        <ele>189.0</ele>
        <time>2021-08-21T07:06:07.026Z</time>
      </trkpt>
      <trkpt lat="41.96487" lon="2.86674">
        <ele>189.0</ele>
        <time>2021-08-21T07:06:08.002Z</time>
      </trkpt>
      <trkpt lat="41.96491" lon="2.866855">
        <ele>188.0</ele>
        <time>2021-08-21T07:06:09.025Z</time>
      </trkpt>
      <trkpt lat="41.96491" lon="2.866855">
        <ele>188.0</ele>
        <time>2021-08-21T07:06:10.000Z</time>
      </trkpt>
      <trkpt lat="41.96493" lon="2.86698667">
        <ele>188.0</ele>
        <time>2021-08-21T07:06:11.018Z</time>
      </trkpt>
      <trkpt lat="41.96493" lon="2.86698667">
        <ele>188.0</ele>
        <time>2021-08-21T07:06:11.994Z</time>
      </trkpt>
      <trkpt lat="41.96495333" lon="2.86711">
        <ele>187.0</ele>
        <time>2021-08-21T07:06:13.008Z</time>
      </trkpt>
      <trkpt lat="41.96495333" lon="2.86711">
        <ele>187.0</ele>
        <time>2021-08-21T07:06:14.022Z</time>
      </trkpt>
      <trkpt lat="41.964985" lon="2.86721667">
        <ele>187.0</ele>
        <time>2021-08-21T07:06:14.998Z</time>
      </trkpt>
      <trkpt lat="41.964985" lon="2.86721667">
        <ele>187.0</ele>
        <time>2021-08-21T07:06:16.004Z</time>
      </trkpt>
      <trkpt lat="41.965035" lon="2.86731">
        <ele>187.0</ele>
        <time>2021-08-21T07:06:17.017Z</time>
      </trkpt>
      <trkpt lat="41.96505333" lon="2.86735667">
        <ele>187.0</ele>
        <time>2021-08-21T07:06:18.002Z</time>
      </trkpt>
      <trkpt lat="41.96507333" lon="2.867395">
        <ele>186.0</ele>
        <time>2021-08-21T07:06:19.013Z</time>
      </trkpt>
      <trkpt lat="41.96507333" lon="2.867395">
        <ele>186.0</ele>
        <time>2021-08-21T07:06:20.021Z</time>
      </trkpt>
      <trkpt lat="41.96511833" lon="2.86746333">
        <ele>186.0</ele>
        <time>2021-08-21T07:06:20.994Z</time>
      </trkpt>
      <trkpt lat="41.96511833" lon="2.86746333">
        <ele>186.0</ele>
        <time>2021-08-21T07:06:22.009Z</time>
      </trkpt>
      <trkpt lat="41.96518" lon="2.86754167">
        <ele>186.0</ele>
        <time>2021-08-21T07:06:23.025Z</time>
      </trkpt>
      <trkpt lat="41.96518" lon="2.86754167">
        <ele>186.0</ele>
        <time>2021-08-21T07:06:24.031Z</time>
      </trkpt>
      <trkpt lat="41.96524333" lon="2.86760333">
        <ele>186.0</ele>
        <time>2021-08-21T07:06:25.006Z</time>
      </trkpt>
      <trkpt lat="41.96524333" lon="2.86760333">
        <ele>186.0</ele>
        <time>2021-08-21T07:06:26.014Z</time>
      </trkpt>
      <trkpt lat="41.96526" lon="2.86768">
        <ele>185.0</ele>
        <time>2021-08-21T07:06:27.031Z</time>
      </trkpt>
      <trkpt lat="41.96526" lon="2.86768">
        <ele>185.0</ele>
        <time>2021-08-21T07:06:28.005Z</time>
      </trkpt>
      <trkpt lat="41.96521167" lon="2.86776667">
        <ele>185.0</ele>
        <time>2021-08-21T07:06:28.997Z</time>
      </trkpt>
      <trkpt lat="41.96521167" lon="2.86776667">
        <ele>185.0</ele>
        <time>2021-08-21T07:06:30.013Z</time>
      </trkpt>
      <trkpt lat="41.96515833" lon="2.86789333">
        <ele>184.0</ele>
        <time>2021-08-21T07:06:31.013Z</time>
      </trkpt>
      <trkpt lat="41.96515833" lon="2.86789333">
        <ele>184.0</ele>
        <time>2021-08-21T07:06:32.023Z</time>
      </trkpt>
      <trkpt lat="41.965145" lon="2.86806">
        <ele>184.0</ele>
        <time>2021-08-21T07:06:32.995Z</time>
      </trkpt>
      <trkpt lat="41.965145" lon="2.86806">
        <ele>184.0</ele>
        <time>2021-08-21T07:06:34.031Z</time>
      </trkpt>
      <trkpt lat="41.96512667" lon="2.86822667">
        <ele>184.0</ele>
        <time>2021-08-21T07:06:35.015Z</time>
      </trkpt>
      <trkpt lat="41.96512667" lon="2.86822667">
        <ele>184.0</ele>
        <time>2021-08-21T07:06:36.027Z</time>
      </trkpt>
      <trkpt lat="41.96509167" lon="2.86836">
        <ele>183.0</ele>
        <time>2021-08-21T07:06:37.016Z</time>
      </trkpt>
      <trkpt lat="41.96509167" lon="2.86836">
        <ele>183.0</ele>
        <time>2021-08-21T07:06:38.030Z</time>
      </trkpt>
      <trkpt lat="41.96506667" lon="2.86849333">
        <ele>183.0</ele>
        <time>2021-08-21T07:06:39.014Z</time>
      </trkpt>
      <trkpt lat="41.96506667" lon="2.86849333">
        <ele>183.0</ele>
        <time>2021-08-21T07:06:40.021Z</time>
      </trkpt>
      <trkpt lat="41.96511" lon="2.86861333">
        <ele>182.0</ele>
        <time>2021-08-21T07:06:40.998Z</time>
      </trkpt>
      <trkpt lat="41.96514667" lon="2.86866333">
        <ele>182.0</ele>
        <time>2021-08-21T07:06:42.026Z</time>
      </trkpt>
      <trkpt lat="41.96514667" lon="2.86866333">
        <ele>182.0</ele>
        <time>2021-08-21T07:06:42.996Z</time>
      </trkpt>
      <trkpt lat="41.96521833" lon="2.86876833">
        <ele>181.0</ele>
        <time>2021-08-21T07:06:44.010Z</time>
      </trkpt>
      <trkpt lat="41.96525167" lon="2.86881833">
        <ele>181.0</ele>
        <time>2021-08-21T07:06:45.029Z</time>
      </trkpt>
      <trkpt lat="41.96525167" lon="2.86881833">
        <ele>181.0</ele>
        <time>2021-08-21T07:06:46.007Z</time>
      </trkpt>
      <trkpt lat="41.96533333" lon="2.868875">
        <ele>180.0</ele>
        <time>2021-08-21T07:06:47.003Z</time>
      </trkpt>
      <trkpt lat="41.96537" lon="2.868895">
        <ele>180.0</ele>
        <time>2021-08-21T07:06:48.031Z</time>
      </trkpt>
      <trkpt lat="41.96540667" lon="2.86891167">
        <ele>180.0</ele>
        <time>2021-08-21T07:06:49.015Z</time>
      </trkpt>
      <trkpt lat="41.96540667" lon="2.86891167">
        <ele>180.0</ele>
        <time>2021-08-21T07:06:50.022Z</time>
      </trkpt>
      <trkpt lat="41.965475" lon="2.86892333">
        <ele>179.0</ele>
        <time>2021-08-21T07:06:51.002Z</time>
      </trkpt>
      <trkpt lat="41.965475" lon="2.86892333">
        <ele>179.0</ele>
        <time>2021-08-21T07:06:52.027Z</time>
      </trkpt>
      <trkpt lat="41.96551333" lon="2.86892833">
        <ele>179.0</ele>
        <time>2021-08-21T07:06:53.014Z</time>
      </trkpt>
      <trkpt lat="41.96551333" lon="2.86892833">
        <ele>179.0</ele>
        <time>2021-08-21T07:06:53.998Z</time>
      </trkpt>
      <trkpt lat="41.96556333" lon="2.86891833">
        <ele>179.0</ele>
        <time>2021-08-21T07:06:55.022Z</time>
      </trkpt>
      <trkpt lat="41.96556333" lon="2.86891833">
        <ele>179.0</ele>
        <time>2021-08-21T07:06:56.002Z</time>
      </trkpt>
      <trkpt lat="41.965605" lon="2.868915">
        <ele>179.0</ele>
        <time>2021-08-21T07:06:57.018Z</time>
      </trkpt>
      <trkpt lat="41.965605" lon="2.868915">
        <ele>179.0</ele>
        <time>2021-08-21T07:06:58.000Z</time>
      </trkpt>
      <trkpt lat="41.96564333" lon="2.868915">
        <ele>179.0</ele>
        <time>2021-08-21T07:06:59.015Z</time>
      </trkpt>
      <trkpt lat="41.96564333" lon="2.868915">
        <ele>179.0</ele>
        <time>2021-08-21T07:07:00.027Z</time>
      </trkpt>
      <trkpt lat="41.96567667" lon="2.86893167">
        <ele>178.0</ele>
        <time>2021-08-21T07:07:01.013Z</time>
      </trkpt>
      <trkpt lat="41.96567667" lon="2.86893167">
        <ele>178.0</ele>
        <time>2021-08-21T07:07:02.027Z</time>
      </trkpt>
      <trkpt lat="41.96572333" lon="2.86895167">
        <ele>178.0</ele>
        <time>2021-08-21T07:07:03.017Z</time>
      </trkpt>
      <trkpt lat="41.96572333" lon="2.86895167">
        <ele>178.0</ele>
        <time>2021-08-21T07:07:04.025Z</time>
      </trkpt>
      <trkpt lat="41.96577333" lon="2.86896833">
        <ele>178.0</ele>
        <time>2021-08-21T07:07:04.994Z</time>
      </trkpt>
      <trkpt lat="41.96577333" lon="2.86896833">
        <ele>178.0</ele>
        <time>2021-08-21T07:07:06.019Z</time>
      </trkpt>
      <trkpt lat="41.96582" lon="2.86898667">
        <ele>178.0</ele>
        <time>2021-08-21T07:07:07.000Z</time>
      </trkpt>
      <trkpt lat="41.96582" lon="2.86898667">
        <ele>178.0</ele>
        <time>2021-08-21T07:07:08.007Z</time>
      </trkpt>
      <trkpt lat="41.96586667" lon="2.86900333">
        <ele>178.0</ele>
        <time>2021-08-21T07:07:09.018Z</time>
      </trkpt>
      <trkpt lat="41.96586667" lon="2.86900333">
        <ele>178.0</ele>
        <time>2021-08-21T07:07:10.025Z</time>
      </trkpt>
      <trkpt lat="41.96591167" lon="2.86903">
        <ele>178.0</ele>
        <time>2021-08-21T07:07:10.996Z</time>
      </trkpt>
      <trkpt lat="41.96591167" lon="2.86903">
        <ele>178.0</ele>
        <time>2021-08-21T07:07:12.004Z</time>
      </trkpt>
      <trkpt lat="41.96596333" lon="2.86906">
        <ele>178.0</ele>
        <time>2021-08-21T07:07:12.997Z</time>
      </trkpt>
      <trkpt lat="41.96596333" lon="2.86906">
        <ele>178.0</ele>
        <time>2021-08-21T07:07:14.006Z</time>
      </trkpt>
      <trkpt lat="41.96601333" lon="2.86908833">
        <ele>178.0</ele>
        <time>2021-08-21T07:07:15.016Z</time>
      </trkpt>
      <trkpt lat="41.96601333" lon="2.86908833">
        <ele>178.0</ele>
        <time>2021-08-21T07:07:16.026Z</time>
      </trkpt>
      <trkpt lat="41.96605" lon="2.86911167">
        <ele>178.0</ele>
        <time>2021-08-21T07:07:17.009Z</time>
      </trkpt>
      <trkpt lat="41.96605" lon="2.86911167">
        <ele>178.0</ele>
        <time>2021-08-21T07:07:18.022Z</time>
      </trkpt>
      <trkpt lat="41.96607333" lon="2.86912167">
        <ele>178.0</ele>
        <time>2021-08-21T07:07:19.009Z</time>
      </trkpt>
      <trkpt lat="41.96607333" lon="2.86912167">
        <ele>178.0</ele>
        <time>2021-08-21T07:07:20.017Z</time>
      </trkpt>
      <trkpt lat="41.966075" lon="2.869115">
        <ele>178.0</ele>
        <time>2021-08-21T07:07:21.019Z</time>
      </trkpt>
      <trkpt lat="41.966075" lon="2.869115">
        <ele>178.0</ele>
        <time>2021-08-21T07:07:22.026Z</time>
      </trkpt>
      <trkpt lat="41.96607667" lon="2.869115">
        <ele>179.0</ele>
        <time>2021-08-21T07:07:23.012Z</time>
      </trkpt>
      <trkpt lat="41.96607667" lon="2.869115">
        <ele>179.0</ele>
        <time>2021-08-21T07:07:23.992Z</time>
      </trkpt>
      <trkpt lat="41.96614333" lon="2.869155">
        <ele>177.0</ele>
        <time>2021-08-21T07:07:25.009Z</time>
      </trkpt>
      <trkpt lat="41.96614333" lon="2.869155">
        <ele>177.0</ele>
        <time>2021-08-21T07:07:26.011Z</time>
      </trkpt>
      <trkpt lat="41.96614333" lon="2.869155">
        <ele>177.0</ele>
        <time>2021-08-21T07:07:27.028Z</time>
      </trkpt>
      <trkpt lat="41.96623" lon="2.869175">
        <ele>175.0</ele>
        <time>2021-08-21T07:07:28.025Z</time>
      </trkpt>
      <trkpt lat="41.96623" lon="2.869175">
        <ele>175.0</ele>
        <time>2021-08-21T07:07:29.005Z</time>
      </trkpt>
      <trkpt lat="41.96628833" lon="2.86921167">
        <ele>175.0</ele>
        <time>2021-08-21T07:07:30.032Z</time>
      </trkpt>
      <trkpt lat="41.96632" lon="2.86923">
        <ele>175.0</ele>
        <time>2021-08-21T07:07:31.003Z</time>
      </trkpt>
      <trkpt lat="41.96632" lon="2.86923">
        <ele>175.0</ele>
        <time>2021-08-21T07:07:32.012Z</time>
      </trkpt>
      <trkpt lat="41.96638333" lon="2.86926167">
        <ele>174.0</ele>
        <time>2021-08-21T07:07:33.030Z</time>
      </trkpt>
      <trkpt lat="41.96638333" lon="2.86926167">
        <ele>174.0</ele>
        <time>2021-08-21T07:07:34.000Z</time>
      </trkpt>
      <trkpt lat="41.96644833" lon="2.86928833">
        <ele>174.0</ele>
        <time>2021-08-21T07:07:35.025Z</time>
      </trkpt>
      <trkpt lat="41.96648167" lon="2.8693">
        <ele>175.0</ele>
        <time>2021-08-21T07:07:35.997Z</time>
      </trkpt>
      <trkpt lat="41.96648167" lon="2.8693">
        <ele>175.0</ele>
        <time>2021-08-21T07:07:37.010Z</time>
      </trkpt>
      <trkpt lat="41.96655" lon="2.86932667">
        <ele>174.0</ele>
        <time>2021-08-21T07:07:38.027Z</time>
      </trkpt>
      <trkpt lat="41.96655" lon="2.86932667">
        <ele>174.0</ele>
        <time>2021-08-21T07:07:39.000Z</time>
      </trkpt>
      <trkpt lat="41.966625" lon="2.86935833">
        <ele>174.0</ele>
        <time>2021-08-21T07:07:40.017Z</time>
      </trkpt>
      <trkpt lat="41.966625" lon="2.86935833">
        <ele>174.0</ele>
        <time>2021-08-21T07:07:41.025Z</time>
      </trkpt>
      <trkpt lat="41.96670167" lon="2.869395">
        <ele>174.0</ele>
        <time>2021-08-21T07:07:42.007Z</time>
      </trkpt>
      <trkpt lat="41.96670167" lon="2.869395">
        <ele>174.0</ele>
        <time>2021-08-21T07:07:43.011Z</time>
      </trkpt>
      <trkpt lat="41.96677667" lon="2.86943833">
        <ele>174.0</ele>
        <time>2021-08-21T07:07:43.993Z</time>
      </trkpt>
      <trkpt lat="41.96677667" lon="2.86943833">
        <ele>174.0</ele>
        <time>2021-08-21T07:07:45.004Z</time>
      </trkpt>
      <trkpt lat="41.96685833" lon="2.86944333">
        <ele>174.0</ele>
        <time>2021-08-21T07:07:46.014Z</time>
      </trkpt>
      <trkpt lat="41.96685833" lon="2.86944333">
        <ele>174.0</ele>
        <time>2021-08-21T07:07:47.000Z</time>
      </trkpt>
      <trkpt lat="41.966935" lon="2.86943667">
        <ele>174.0</ele>
        <time>2021-08-21T07:07:48.015Z</time>
      </trkpt>
      <trkpt lat="41.966935" lon="2.86943667">
        <ele>174.0</ele>
        <time>2021-08-21T07:07:49.026Z</time>
      </trkpt>
      <trkpt lat="41.96701" lon="2.86943">
        <ele>174.0</ele>
        <time>2021-08-21T07:07:50.002Z</time>
      </trkpt>
      <trkpt lat="41.96701" lon="2.86943">
        <ele>174.0</ele>
        <time>2021-08-21T07:07:51.009Z</time>
      </trkpt>
      <trkpt lat="41.96707833" lon="2.86942167">
        <ele>174.0</ele>
        <time>2021-08-21T07:07:52.006Z</time>
      </trkpt>
      <trkpt lat="41.96707833" lon="2.86942167">
        <ele>174.0</ele>
        <time>2021-08-21T07:07:53.014Z</time>
      </trkpt>
      <trkpt lat="41.967135" lon="2.86940167">
        <ele>174.0</ele>
        <time>2021-08-21T07:07:54.032Z</time>
      </trkpt>
      <trkpt lat="41.967135" lon="2.86940167">
        <ele>174.0</ele>
        <time>2021-08-21T07:07:54.996Z</time>
      </trkpt>
      <trkpt lat="41.96718333" lon="2.86938">
        <ele>174.0</ele>
        <time>2021-08-21T07:07:56.032Z</time>
      </trkpt>
      <trkpt lat="41.96718333" lon="2.86938">
        <ele>174.0</ele>
        <time>2021-08-21T07:07:56.998Z</time>
      </trkpt>
      <trkpt lat="41.96724167" lon="2.86937667">
        <ele>175.0</ele>
        <time>2021-08-21T07:07:58.108Z</time>
      </trkpt>
      <trkpt lat="41.96724167" lon="2.86937667">
        <ele>175.0</ele>
        <time>2021-08-21T07:07:58.992Z</time>
      </trkpt>
      <trkpt lat="41.9673" lon="2.86941167">
        <ele>176.0</ele>
        <time>2021-08-21T07:08:00.011Z</time>
      </trkpt>
      <trkpt lat="41.9673" lon="2.86941167">
        <ele>176.0</ele>
        <time>2021-08-21T07:08:01.018Z</time>
      </trkpt>
      <trkpt lat="41.96734167" lon="2.869485">
        <ele>176.0</ele>
        <time>2021-08-21T07:08:02.003Z</time>
      </trkpt>
      <trkpt lat="41.96735667" lon="2.86953167">
        <ele>176.0</ele>
        <time>2021-08-21T07:08:03.008Z</time>
      </trkpt>
      <trkpt lat="41.96736333" lon="2.869575">
        <ele>175.0</ele>
        <time>2021-08-21T07:08:04.023Z</time>
      </trkpt>
      <trkpt lat="41.96736333" lon="2.869575">
        <ele>175.0</ele>
        <time>2021-08-21T07:08:05.003Z</time>
      </trkpt>
      <trkpt lat="41.96737" lon="2.86966167">
        <ele>175.0</ele>
        <time>2021-08-21T07:08:06.016Z</time>
      </trkpt>
      <trkpt lat="41.96737" lon="2.86966167">
        <ele>175.0</ele>
        <time>2021-08-21T07:08:07.023Z</time>
      </trkpt>
      <trkpt lat="41.96737333" lon="2.86975167">
        <ele>176.0</ele>
        <time>2021-08-21T07:08:07.996Z</time>
      </trkpt>
      <trkpt lat="41.96737333" lon="2.86975167">
        <ele>176.0</ele>
        <time>2021-08-21T07:08:09.017Z</time>
      </trkpt>
      <trkpt lat="41.96738333" lon="2.86984333">
        <ele>176.0</ele>
        <time>2021-08-21T07:08:09.995Z</time>
      </trkpt>
      <trkpt lat="41.96738333" lon="2.86984333">
        <ele>176.0</ele>
        <time>2021-08-21T07:08:11.018Z</time>
      </trkpt>
      <trkpt lat="41.967385" lon="2.869925">
        <ele>177.0</ele>
        <time>2021-08-21T07:08:12.034Z</time>
      </trkpt>
      <trkpt lat="41.967385" lon="2.869925">
        <ele>177.0</ele>
        <time>2021-08-21T07:08:13.010Z</time>
      </trkpt>
      <trkpt lat="41.96737833" lon="2.86999333">
        <ele>178.0</ele>
        <time>2021-08-21T07:08:14.032Z</time>
      </trkpt>
      <trkpt lat="41.96737833" lon="2.86999333">
        <ele>178.0</ele>
        <time>2021-08-21T07:08:15.002Z</time>
      </trkpt>
      <trkpt lat="41.96738" lon="2.87006667">
        <ele>178.0</ele>
        <time>2021-08-21T07:08:16.024Z</time>
      </trkpt>
      <trkpt lat="41.96738" lon="2.87006667">
        <ele>178.0</ele>
        <time>2021-08-21T07:08:16.996Z</time>
      </trkpt>
      <trkpt lat="41.96738667" lon="2.870135">
        <ele>179.0</ele>
        <time>2021-08-21T07:08:18.020Z</time>
      </trkpt>
      <trkpt lat="41.96738667" lon="2.870135">
        <ele>179.0</ele>
        <time>2021-08-21T07:08:19.025Z</time>
      </trkpt>
      <trkpt lat="41.967405" lon="2.870205">
        <ele>180.0</ele>
        <time>2021-08-21T07:08:19.996Z</time>
      </trkpt>
      <trkpt lat="41.967405" lon="2.870205">
        <ele>180.0</ele>
        <time>2021-08-21T07:08:21.009Z</time>
      </trkpt>
      <trkpt lat="41.96744167" lon="2.87024667">
        <ele>180.0</ele>
        <time>2021-08-21T07:08:22.035Z</time>
      </trkpt>
      <trkpt lat="41.96744167" lon="2.87024667">
        <ele>180.0</ele>
        <time>2021-08-21T07:08:23.011Z</time>
      </trkpt>
      <trkpt lat="41.9675" lon="2.87027333">
        <ele>181.0</ele>
        <time>2021-08-21T07:08:24.006Z</time>
      </trkpt>
      <trkpt lat="41.9675" lon="2.87027333">
        <ele>181.0</ele>
        <time>2021-08-21T07:08:24.992Z</time>
      </trkpt>
      <trkpt lat="41.96755" lon="2.87030167">
        <ele>181.0</ele>
        <time>2021-08-21T07:08:26.009Z</time>
      </trkpt>
      <trkpt lat="41.96757667" lon="2.87031333">
        <ele>182.0</ele>
        <time>2021-08-21T07:08:27.027Z</time>
      </trkpt>
      <trkpt lat="41.96760667" lon="2.87033">
        <ele>182.0</ele>
        <time>2021-08-21T07:08:28.006Z</time>
      </trkpt>
      <trkpt lat="41.96760667" lon="2.87033">
        <ele>182.0</ele>
        <time>2021-08-21T07:08:29.014Z</time>
      </trkpt>
      <trkpt lat="41.96767667" lon="2.87037833">
        <ele>181.0</ele>
        <time>2021-08-21T07:08:29.993Z</time>
      </trkpt>
      <trkpt lat="41.96767667" lon="2.87037833">
        <ele>181.0</ele>
        <time>2021-08-21T07:08:31.007Z</time>
      </trkpt>
      <trkpt lat="41.96774667" lon="2.87041833">
        <ele>181.0</ele>
        <time>2021-08-21T07:08:32.028Z</time>
      </trkpt>
      <trkpt lat="41.96774667" lon="2.87041833">
        <ele>181.0</ele>
        <time>2021-08-21T07:08:33.010Z</time>
      </trkpt>
      <trkpt lat="41.96781333" lon="2.870455">
        <ele>181.0</ele>
        <time>2021-08-21T07:08:34.024Z</time>
      </trkpt>
      <trkpt lat="41.96781333" lon="2.870455">
        <ele>181.0</ele>
        <time>2021-08-21T07:08:35.032Z</time>
      </trkpt>
      <trkpt lat="41.96787167" lon="2.87049667">
        <ele>180.0</ele>
        <time>2021-08-21T07:08:36.003Z</time>
      </trkpt>
      <trkpt lat="41.96787167" lon="2.87049667">
        <ele>180.0</ele>
        <time>2021-08-21T07:08:37.018Z</time>
      </trkpt>
      <trkpt lat="41.96793167" lon="2.870545">
        <ele>180.0</ele>
        <time>2021-08-21T07:08:37.993Z</time>
      </trkpt>
      <trkpt lat="41.96793167" lon="2.870545">
        <ele>180.0</ele>
        <time>2021-08-21T07:08:38.999Z</time>
      </trkpt>
      <trkpt lat="41.96800667" lon="2.87061833">
        <ele>179.0</ele>
        <time>2021-08-21T07:08:40.014Z</time>
      </trkpt>
      <trkpt lat="41.96800667" lon="2.87061833">
        <ele>179.0</ele>
        <time>2021-08-21T07:08:41.025Z</time>
      </trkpt>
      <trkpt lat="41.96807667" lon="2.87069333">
        <ele>179.0</ele>
        <time>2021-08-21T07:08:41.998Z</time>
      </trkpt>
      <trkpt lat="41.96810167" lon="2.87073167">
        <ele>179.0</ele>
        <time>2021-08-21T07:08:43.022Z</time>
      </trkpt>
      <trkpt lat="41.96810167" lon="2.87073167">
        <ele>179.0</ele>
        <time>2021-08-21T07:08:44.030Z</time>
      </trkpt>
      <trkpt lat="41.96813833" lon="2.87081667">
        <ele>179.0</ele>
        <time>2021-08-21T07:08:45.012Z</time>
      </trkpt>
      <trkpt lat="41.96815667" lon="2.87085667">
        <ele>179.0</ele>
        <time>2021-08-21T07:08:46.029Z</time>
      </trkpt>
      <trkpt lat="41.96815667" lon="2.87085667">
        <ele>179.0</ele>
        <time>2021-08-21T07:08:47.001Z</time>
      </trkpt>
      <trkpt lat="41.96818167" lon="2.87094667">
        <ele>178.0</ele>
        <time>2021-08-21T07:08:48.016Z</time>
      </trkpt>
      <trkpt lat="41.96818167" lon="2.87094667">
        <ele>178.0</ele>
        <time>2021-08-21T07:08:48.994Z</time>
      </trkpt>
      <trkpt lat="41.96818" lon="2.87103333">
        <ele>179.0</ele>
        <time>2021-08-21T07:08:50.011Z</time>
      </trkpt>
      <trkpt lat="41.96818" lon="2.87103333">
        <ele>179.0</ele>
        <time>2021-08-21T07:08:51.017Z</time>
      </trkpt>
      <trkpt lat="41.96816667" lon="2.87111333">
        <ele>179.0</ele>
        <time>2021-08-21T07:08:51.997Z</time>
      </trkpt>
      <trkpt lat="41.96816667" lon="2.87111333">
        <ele>179.0</ele>
        <time>2021-08-21T07:08:53.004Z</time>
      </trkpt>
      <trkpt lat="41.96815167" lon="2.871195">
        <ele>180.0</ele>
        <time>2021-08-21T07:08:54.024Z</time>
      </trkpt>
      <trkpt lat="41.96815167" lon="2.871195">
        <ele>180.0</ele>
        <time>2021-08-21T07:08:54.999Z</time>
      </trkpt>
      <trkpt lat="41.96815" lon="2.87127667">
        <ele>181.0</ele>
        <time>2021-08-21T07:08:56.017Z</time>
      </trkpt>
      <trkpt lat="41.96815" lon="2.87127667">
        <ele>181.0</ele>
        <time>2021-08-21T07:08:57.022Z</time>
      </trkpt>
      <trkpt lat="41.96816833" lon="2.87136833">
        <ele>182.0</ele>
        <time>2021-08-21T07:08:57.998Z</time>
      </trkpt>
      <trkpt lat="41.96816833" lon="2.87136833">
        <ele>182.0</ele>
        <time>2021-08-21T07:08:59.011Z</time>
      </trkpt>
      <trkpt lat="41.9682" lon="2.87145">
        <ele>183.0</ele>
        <time>2021-08-21T07:09:00.027Z</time>
      </trkpt>
      <trkpt lat="41.96822" lon="2.871475">
        <ele>183.0</ele>
        <time>2021-08-21T07:09:01.005Z</time>
      </trkpt>
      <trkpt lat="41.96822" lon="2.871475">
        <ele>183.0</ele>
        <time>2021-08-21T07:09:02.007Z</time>
      </trkpt>
      <trkpt lat="41.96826833" lon="2.87151167">
        <ele>184.0</ele>
        <time>2021-08-21T07:09:03.012Z</time>
      </trkpt>
      <trkpt lat="41.9683" lon="2.87151667">
        <ele>185.0</ele>
        <time>2021-08-21T07:09:04.008Z</time>
      </trkpt>
      <trkpt lat="41.9683" lon="2.87151667">
        <ele>185.0</ele>
        <time>2021-08-21T07:09:05.016Z</time>
      </trkpt>
      <trkpt lat="41.96838167" lon="2.871545">
        <ele>185.0</ele>
        <time>2021-08-21T07:09:05.992Z</time>
      </trkpt>
      <trkpt lat="41.96838167" lon="2.871545">
        <ele>185.0</ele>
        <time>2021-08-21T07:09:06.997Z</time>
      </trkpt>
      <trkpt lat="41.96845833" lon="2.87158333">
        <ele>186.0</ele>
        <time>2021-08-21T07:09:08.010Z</time>
      </trkpt>
      <trkpt lat="41.96845833" lon="2.87158333">
        <ele>186.0</ele>
        <time>2021-08-21T07:09:09.023Z</time>
      </trkpt>
      <trkpt lat="41.96852833" lon="2.871645">
        <ele>186.0</ele>
        <time>2021-08-21T07:09:09.998Z</time>
      </trkpt>
      <trkpt lat="41.96852833" lon="2.871645">
        <ele>186.0</ele>
        <time>2021-08-21T07:09:11.014Z</time>
      </trkpt>
      <trkpt lat="41.96860333" lon="2.87172">
        <ele>186.0</ele>
        <time>2021-08-21T07:09:12.031Z</time>
      </trkpt>
      <trkpt lat="41.96860333" lon="2.87172">
        <ele>186.0</ele>
        <time>2021-08-21T07:09:13.001Z</time>
      </trkpt>
      <trkpt lat="41.96867833" lon="2.871795">
        <ele>186.0</ele>
        <time>2021-08-21T07:09:14.031Z</time>
      </trkpt>
      <trkpt lat="41.96867833" lon="2.871795">
        <ele>186.0</ele>
        <time>2021-08-21T07:09:14.997Z</time>
      </trkpt>
      <trkpt lat="41.96874167" lon="2.87188667">
        <ele>187.0</ele>
        <time>2021-08-21T07:09:16.016Z</time>
      </trkpt>
      <trkpt lat="41.96874167" lon="2.87188667">
        <ele>187.0</ele>
        <time>2021-08-21T07:09:17.026Z</time>
      </trkpt>
      <trkpt lat="41.96878667" lon="2.87198333">
        <ele>187.0</ele>
        <time>2021-08-21T07:09:18.007Z</time>
      </trkpt>
      <trkpt lat="41.96878667" lon="2.87198333">
        <ele>187.0</ele>
        <time>2021-08-21T07:09:19.022Z</time>
      </trkpt>
      <trkpt lat="41.96883" lon="2.87206333">
        <ele>188.0</ele>
        <time>2021-08-21T07:09:19.995Z</time>
      </trkpt>
      <trkpt lat="41.96883" lon="2.87206333">
        <ele>188.0</ele>
        <time>2021-08-21T07:09:21.010Z</time>
      </trkpt>
      <trkpt lat="41.96886167" lon="2.87216333">
        <ele>189.0</ele>
        <time>2021-08-21T07:09:22.024Z</time>
      </trkpt>
      <trkpt lat="41.96886167" lon="2.87216333">
        <ele>189.0</ele>
        <time>2021-08-21T07:09:22.997Z</time>
      </trkpt>
      <trkpt lat="41.96889833" lon="2.87226667">
        <ele>189.0</ele>
        <time>2021-08-21T07:09:24.014Z</time>
      </trkpt>
      <trkpt lat="41.96892167" lon="2.87231333">
        <ele>189.0</ele>
        <time>2021-08-21T07:09:25.030Z</time>
      </trkpt>
      <trkpt lat="41.96892167" lon="2.87231333">
        <ele>189.0</ele>
        <time>2021-08-21T07:09:25.998Z</time>
      </trkpt>
      <trkpt lat="41.968975" lon="2.872395">
        <ele>189.0</ele>
        <time>2021-08-21T07:09:27.014Z</time>
      </trkpt>
      <trkpt lat="41.969005" lon="2.87242167">
        <ele>190.0</ele>
        <time>2021-08-21T07:09:28.013Z</time>
      </trkpt>
      <trkpt lat="41.969005" lon="2.87242167">
        <ele>190.0</ele>
        <time>2021-08-21T07:09:29.020Z</time>
      </trkpt>
      <trkpt lat="41.96908167" lon="2.87247167">
        <ele>191.0</ele>
        <time>2021-08-21T07:09:30.002Z</time>
      </trkpt>
      <trkpt lat="41.96908167" lon="2.87247167">
        <ele>191.0</ele>
        <time>2021-08-21T07:09:31.010Z</time>
      </trkpt>
      <trkpt lat="41.96917167" lon="2.87252667">
        <ele>191.0</ele>
        <time>2021-08-21T07:09:32.024Z</time>
      </trkpt>
      <trkpt lat="41.96917167" lon="2.87252667">
        <ele>191.0</ele>
        <time>2021-08-21T07:09:32.993Z</time>
      </trkpt>
      <trkpt lat="41.969235" lon="2.87257667">
        <ele>192.0</ele>
        <time>2021-08-21T07:09:34.009Z</time>
      </trkpt>
      <trkpt lat="41.969235" lon="2.87257667">
        <ele>192.0</ele>
        <time>2021-08-21T07:09:35.016Z</time>
      </trkpt>
      <trkpt lat="41.96931" lon="2.872655">
        <ele>192.0</ele>
        <time>2021-08-21T07:09:35.995Z</time>
      </trkpt>
      <trkpt lat="41.96931" lon="2.872655">
        <ele>192.0</ele>
        <time>2021-08-21T07:09:37.008Z</time>
      </trkpt>
      <trkpt lat="41.969385" lon="2.87272833">
        <ele>192.0</ele>
        <time>2021-08-21T07:09:38.026Z</time>
      </trkpt>
      <trkpt lat="41.969385" lon="2.87272833">
        <ele>192.0</ele>
        <time>2021-08-21T07:09:38.997Z</time>
      </trkpt>
      <trkpt lat="41.96945833" lon="2.87279167">
        <ele>193.0</ele>
        <time>2021-08-21T07:09:40.013Z</time>
      </trkpt>
      <trkpt lat="41.96949167" lon="2.87281333">
        <ele>193.0</ele>
        <time>2021-08-21T07:09:40.999Z</time>
      </trkpt>
      <trkpt lat="41.96949167" lon="2.87281333">
        <ele>193.0</ele>
        <time>2021-08-21T07:09:42.009Z</time>
      </trkpt>
      <trkpt lat="41.96956833" lon="2.872875">
        <ele>194.0</ele>
        <time>2021-08-21T07:09:43.025Z</time>
      </trkpt>
      <trkpt lat="41.96956833" lon="2.872875">
        <ele>194.0</ele>
        <time>2021-08-21T07:09:43.993Z</time>
      </trkpt>
      <trkpt lat="41.96963833" lon="2.872945">
        <ele>194.0</ele>
        <time>2021-08-21T07:09:45.004Z</time>
      </trkpt>
      <trkpt lat="41.96967" lon="2.87298333">
        <ele>194.0</ele>
        <time>2021-08-21T07:09:46.027Z</time>
      </trkpt>
      <trkpt lat="41.96967" lon="2.87298333">
        <ele>194.0</ele>
        <time>2021-08-21T07:09:46.993Z</time>
      </trkpt>
      <trkpt lat="41.96973" lon="2.87305167">
        <ele>194.0</ele>
        <time>2021-08-21T07:09:48.004Z</time>
      </trkpt>
      <trkpt lat="41.96973" lon="2.87305167">
        <ele>194.0</ele>
        <time>2021-08-21T07:09:49.012Z</time>
      </trkpt>
      <trkpt lat="41.96978167" lon="2.87312">
        <ele>195.0</ele>
        <time>2021-08-21T07:09:50.028Z</time>
      </trkpt>
      <trkpt lat="41.96978167" lon="2.87312">
        <ele>195.0</ele>
        <time>2021-08-21T07:09:50.993Z</time>
      </trkpt>
      <trkpt lat="41.96983" lon="2.87319833">
        <ele>195.0</ele>
        <time>2021-08-21T07:09:52.008Z</time>
      </trkpt>
      <trkpt lat="41.96983" lon="2.87319833">
        <ele>195.0</ele>
        <time>2021-08-21T07:09:53.025Z</time>
      </trkpt>
      <trkpt lat="41.96988833" lon="2.873265">
        <ele>194.0</ele>
        <time>2021-08-21T07:09:53.996Z</time>
      </trkpt>
      <trkpt lat="41.96988833" lon="2.873265">
        <ele>194.0</ele>
        <time>2021-08-21T07:09:55.004Z</time>
      </trkpt>
      <trkpt lat="41.96995333" lon="2.87329333">
        <ele>195.0</ele>
        <time>2021-08-21T07:09:55.994Z</time>
      </trkpt>
      <trkpt lat="41.96995333" lon="2.87329333">
        <ele>195.0</ele>
        <time>2021-08-21T07:09:57.018Z</time>
      </trkpt>
      <trkpt lat="41.97002833" lon="2.87330167">
        <ele>195.0</ele>
        <time>2021-08-21T07:09:58.028Z</time>
      </trkpt>
      <trkpt lat="41.97002833" lon="2.87330167">
        <ele>195.0</ele>
        <time>2021-08-21T07:09:58.994Z</time>
      </trkpt>
      <trkpt lat="41.97007833" lon="2.87325833">
        <ele>195.0</ele>
        <time>2021-08-21T07:10:00.007Z</time>
      </trkpt>
      <trkpt lat="41.97007833" lon="2.87325833">
        <ele>195.0</ele>
        <time>2021-08-21T07:10:01.018Z</time>
      </trkpt>
      <trkpt lat="41.9701" lon="2.87315833">
        <ele>196.0</ele>
        <time>2021-08-21T07:10:02.009Z</time>
      </trkpt>
      <trkpt lat="41.9701" lon="2.87315833">
        <ele>196.0</ele>
        <time>2021-08-21T07:10:03.016Z</time>
      </trkpt>
      <trkpt lat="41.970135" lon="2.87308833">
        <ele>196.0</ele>
        <time>2021-08-21T07:10:04.031Z</time>
      </trkpt>
      <trkpt lat="41.970135" lon="2.87308833">
        <ele>196.0</ele>
        <time>2021-08-21T07:10:05.008Z</time>
      </trkpt>
      <trkpt lat="41.97018833" lon="2.87306">
        <ele>197.0</ele>
        <time>2021-08-21T07:10:06.024Z</time>
      </trkpt>
      <trkpt lat="41.97022167" lon="2.87305833">
        <ele>197.0</ele>
        <time>2021-08-21T07:10:07.001Z</time>
      </trkpt>
      <trkpt lat="41.97022167" lon="2.87305833">
        <ele>197.0</ele>
        <time>2021-08-21T07:10:08.016Z</time>
      </trkpt>
      <trkpt lat="41.97028833" lon="2.87304167">
        <ele>198.0</ele>
        <time>2021-08-21T07:10:08.994Z</time>
      </trkpt>
      <trkpt lat="41.97032333" lon="2.87302833">
        <ele>198.0</ele>
        <time>2021-08-21T07:10:10.034Z</time>
      </trkpt>
      <trkpt lat="41.97032333" lon="2.87302833">
        <ele>198.0</ele>
        <time>2021-08-21T07:10:11.003Z</time>
      </trkpt>
      <trkpt lat="41.97040333" lon="2.87302833">
        <ele>199.0</ele>
        <time>2021-08-21T07:10:12.022Z</time>
      </trkpt>
      <trkpt lat="41.97040333" lon="2.87302833">
        <ele>199.0</ele>
        <time>2021-08-21T07:10:13.030Z</time>
      </trkpt>
      <trkpt lat="41.970485" lon="2.87306333">
        <ele>199.0</ele>
        <time>2021-08-21T07:10:14.005Z</time>
      </trkpt>
      <trkpt lat="41.970485" lon="2.87306333">
        <ele>199.0</ele>
        <time>2021-08-21T07:10:15.013Z</time>
      </trkpt>
      <trkpt lat="41.97056" lon="2.87311333">
        <ele>200.0</ele>
        <time>2021-08-21T07:10:16.026Z</time>
      </trkpt>
      <trkpt lat="41.97056" lon="2.87311333">
        <ele>200.0</ele>
        <time>2021-08-21T07:10:17.012Z</time>
      </trkpt>
      <trkpt lat="41.97063" lon="2.87316167">
        <ele>200.0</ele>
        <time>2021-08-21T07:10:18.004Z</time>
      </trkpt>
      <trkpt lat="41.97063" lon="2.87316167">
        <ele>200.0</ele>
        <time>2021-08-21T07:10:19.013Z</time>
      </trkpt>
      <trkpt lat="41.97069833" lon="2.87321833">
        <ele>200.0</ele>
        <time>2021-08-21T07:10:20.030Z</time>
      </trkpt>
      <trkpt lat="41.97069833" lon="2.87321833">
        <ele>200.0</ele>
        <time>2021-08-21T07:10:20.999Z</time>
      </trkpt>
      <trkpt lat="41.97076667" lon="2.87329167">
        <ele>201.0</ele>
        <time>2021-08-21T07:10:22.027Z</time>
      </trkpt>
      <trkpt lat="41.97076667" lon="2.87329167">
        <ele>201.0</ele>
        <time>2021-08-21T07:10:23.008Z</time>
      </trkpt>
      <trkpt lat="41.970825" lon="2.87337">
        <ele>201.0</ele>
        <time>2021-08-21T07:10:24.026Z</time>
      </trkpt>
      <trkpt lat="41.970825" lon="2.87337">
        <ele>201.0</ele>
        <time>2021-08-21T07:10:24.995Z</time>
      </trkpt>
      <trkpt lat="41.970885" lon="2.87344833">
        <ele>201.0</ele>
        <time>2021-08-21T07:10:26.013Z</time>
      </trkpt>
      <trkpt lat="41.970885" lon="2.87344833">
        <ele>201.0</ele>
        <time>2021-08-21T07:10:27.022Z</time>
      </trkpt>
      <trkpt lat="41.97094" lon="2.87350167">
        <ele>202.0</ele>
        <time>2021-08-21T07:10:28.007Z</time>
      </trkpt>
      <trkpt lat="41.97094" lon="2.87350167">
        <ele>202.0</ele>
        <time>2021-08-21T07:10:29.014Z</time>
      </trkpt>
      <trkpt lat="41.97101667" lon="2.87355167">
        <ele>202.0</ele>
        <time>2021-08-21T07:10:30.029Z</time>
      </trkpt>
      <trkpt lat="41.97101667" lon="2.87355167">
        <ele>202.0</ele>
        <time>2021-08-21T07:10:31.005Z</time>
      </trkpt>
      <trkpt lat="41.97108667" lon="2.87358667">
        <ele>202.0</ele>
        <time>2021-08-21T07:10:32.022Z</time>
      </trkpt>
      <trkpt lat="41.97108667" lon="2.87358667">
        <ele>202.0</ele>
        <time>2021-08-21T07:10:32.994Z</time>
      </trkpt>
      <trkpt lat="41.97115833" lon="2.87361">
        <ele>203.0</ele>
        <time>2021-08-21T07:10:34.008Z</time>
      </trkpt>
      <trkpt lat="41.97115833" lon="2.87361">
        <ele>203.0</ele>
        <time>2021-08-21T07:10:35.018Z</time>
      </trkpt>
      <trkpt lat="41.97121333" lon="2.87363667">
        <ele>203.0</ele>
        <time>2021-08-21T07:10:36.005Z</time>
      </trkpt>
      <trkpt lat="41.97121333" lon="2.87363667">
        <ele>203.0</ele>
        <time>2021-08-21T07:10:37.021Z</time>
      </trkpt>
      <trkpt lat="41.971295" lon="2.87367833">
        <ele>203.0</ele>
        <time>2021-08-21T07:10:38.000Z</time>
      </trkpt>
      <trkpt lat="41.971295" lon="2.87367833">
        <ele>203.0</ele>
        <time>2021-08-21T07:10:39.015Z</time>
      </trkpt>
      <trkpt lat="41.97137833" lon="2.873725">
        <ele>203.0</ele>
        <time>2021-08-21T07:10:40.009Z</time>
      </trkpt>
      <trkpt lat="41.97137833" lon="2.873725">
        <ele>203.0</ele>
        <time>2021-08-21T07:10:40.992Z</time>
      </trkpt>
      <trkpt lat="41.97145" lon="2.87375">
        <ele>204.0</ele>
        <time>2021-08-21T07:10:42.004Z</time>
      </trkpt>
      <trkpt lat="41.97148667" lon="2.873765">
        <ele>203.0</ele>
        <time>2021-08-21T07:10:43.025Z</time>
      </trkpt>
      <trkpt lat="41.97148667" lon="2.873765">
        <ele>203.0</ele>
        <time>2021-08-21T07:10:44.031Z</time>
      </trkpt>
      <trkpt lat="41.97155167" lon="2.87381333">
        <ele>203.0</ele>
        <time>2021-08-21T07:10:45.001Z</time>
      </trkpt>
      <trkpt lat="41.97158333" lon="2.87382833">
        <ele>203.0</ele>
        <time>2021-08-21T07:10:45.998Z</time>
      </trkpt>
      <trkpt lat="41.97158333" lon="2.87382833">
        <ele>203.0</ele>
        <time>2021-08-21T07:10:47.012Z</time>
      </trkpt>
      <trkpt lat="41.97165667" lon="2.873875">
        <ele>203.0</ele>
        <time>2021-08-21T07:10:48.023Z</time>
      </trkpt>
      <trkpt lat="41.97165667" lon="2.873875">
        <ele>203.0</ele>
        <time>2021-08-21T07:10:49.029Z</time>
      </trkpt>
      <trkpt lat="41.97172" lon="2.87393833">
        <ele>203.0</ele>
        <time>2021-08-21T07:10:50.003Z</time>
      </trkpt>
      <trkpt lat="41.97172" lon="2.87393833">
        <ele>203.0</ele>
        <time>2021-08-21T07:10:51.012Z</time>
      </trkpt>
      <trkpt lat="41.97178833" lon="2.87400667">
        <ele>203.0</ele>
        <time>2021-08-21T07:10:52.031Z</time>
      </trkpt>
      <trkpt lat="41.97178833" lon="2.87400667">
        <ele>203.0</ele>
        <time>2021-08-21T07:10:52.997Z</time>
      </trkpt>
      <trkpt lat="41.971845" lon="2.874075">
        <ele>203.0</ele>
        <time>2021-08-21T07:10:54.010Z</time>
      </trkpt>
      <trkpt lat="41.971845" lon="2.874075">
        <ele>203.0</ele>
        <time>2021-08-21T07:10:55.028Z</time>
      </trkpt>
      <trkpt lat="41.971905" lon="2.87415">
        <ele>203.0</ele>
        <time>2021-08-21T07:10:56.006Z</time>
      </trkpt>
      <trkpt lat="41.971905" lon="2.87415">
        <ele>203.0</ele>
        <time>2021-08-21T07:10:57.018Z</time>
      </trkpt>
      <trkpt lat="41.97197" lon="2.87420667">
        <ele>203.0</ele>
        <time>2021-08-21T07:10:57.993Z</time>
      </trkpt>
      <trkpt lat="41.97197" lon="2.87420667">
        <ele>203.0</ele>
        <time>2021-08-21T07:10:59.001Z</time>
      </trkpt>
      <trkpt lat="41.97203333" lon="2.87425167">
        <ele>203.0</ele>
        <time>2021-08-21T07:11:00.020Z</time>
      </trkpt>
      <trkpt lat="41.97203333" lon="2.87425167">
        <ele>203.0</ele>
        <time>2021-08-21T07:11:01.029Z</time>
      </trkpt>
      <trkpt lat="41.97209333" lon="2.87427167">
        <ele>203.0</ele>
        <time>2021-08-21T07:11:02.018Z</time>
      </trkpt>
      <trkpt lat="41.97209333" lon="2.87427167">
        <ele>203.0</ele>
        <time>2021-08-21T07:11:03.000Z</time>
      </trkpt>
      <trkpt lat="41.97216" lon="2.87429833">
        <ele>203.0</ele>
        <time>2021-08-21T07:11:04.012Z</time>
      </trkpt>
      <trkpt lat="41.97216" lon="2.87429833">
        <ele>203.0</ele>
        <time>2021-08-21T07:11:05.020Z</time>
      </trkpt>
      <trkpt lat="41.97222833" lon="2.87432167">
        <ele>203.0</ele>
        <time>2021-08-21T07:11:05.995Z</time>
      </trkpt>
      <trkpt lat="41.97222833" lon="2.87432167">
        <ele>203.0</ele>
        <time>2021-08-21T07:11:07.004Z</time>
      </trkpt>
      <trkpt lat="41.97230167" lon="2.874325">
        <ele>203.0</ele>
        <time>2021-08-21T07:11:08.017Z</time>
      </trkpt>
      <trkpt lat="41.97230167" lon="2.874325">
        <ele>203.0</ele>
        <time>2021-08-21T07:11:08.995Z</time>
      </trkpt>
      <trkpt lat="41.97237667" lon="2.87435333">
        <ele>203.0</ele>
        <time>2021-08-21T07:11:10.009Z</time>
      </trkpt>
      <trkpt lat="41.97237667" lon="2.87435333">
        <ele>203.0</ele>
        <time>2021-08-21T07:11:11.023Z</time>
      </trkpt>
      <trkpt lat="41.97245833" lon="2.87440167">
        <ele>203.0</ele>
        <time>2021-08-21T07:11:11.999Z</time>
      </trkpt>
      <trkpt lat="41.97245833" lon="2.87440167">
        <ele>203.0</ele>
        <time>2021-08-21T07:11:13.015Z</time>
      </trkpt>
      <trkpt lat="41.97252" lon="2.87447">
        <ele>203.0</ele>
        <time>2021-08-21T07:11:14.027Z</time>
      </trkpt>
      <trkpt lat="41.97252" lon="2.87447">
        <ele>203.0</ele>
        <time>2021-08-21T07:11:14.995Z</time>
      </trkpt>
      <trkpt lat="41.97256167" lon="2.87454">
        <ele>203.0</ele>
        <time>2021-08-21T07:11:16.028Z</time>
      </trkpt>
      <trkpt lat="41.97256167" lon="2.87454">
        <ele>203.0</ele>
        <time>2021-08-21T07:11:17.000Z</time>
      </trkpt>
      <trkpt lat="41.97259833" lon="2.87463667">
        <ele>203.0</ele>
        <time>2021-08-21T07:11:18.009Z</time>
      </trkpt>
      <trkpt lat="41.97259833" lon="2.87463667">
        <ele>203.0</ele>
        <time>2021-08-21T07:11:19.025Z</time>
      </trkpt>
      <trkpt lat="41.97264167" lon="2.87472667">
        <ele>203.0</ele>
        <time>2021-08-21T07:11:20.002Z</time>
      </trkpt>
      <trkpt lat="41.97264167" lon="2.87472667">
        <ele>203.0</ele>
        <time>2021-08-21T07:11:21.016Z</time>
      </trkpt>
      <trkpt lat="41.97269667" lon="2.87479667">
        <ele>202.0</ele>
        <time>2021-08-21T07:11:22.038Z</time>
      </trkpt>
      <trkpt lat="41.97272833" lon="2.87482167">
        <ele>202.0</ele>
        <time>2021-08-21T07:11:23.028Z</time>
      </trkpt>
      <trkpt lat="41.97272833" lon="2.87482167">
        <ele>202.0</ele>
        <time>2021-08-21T07:11:23.995Z</time>
      </trkpt>
      <trkpt lat="41.97279333" lon="2.87486667">
        <ele>202.0</ele>
        <time>2021-08-21T07:11:25.010Z</time>
      </trkpt>
      <trkpt lat="41.97279333" lon="2.87486667">
        <ele>202.0</ele>
        <time>2021-08-21T07:11:26.018Z</time>
      </trkpt>
      <trkpt lat="41.972855" lon="2.874905">
        <ele>203.0</ele>
        <time>2021-08-21T07:11:26.993Z</time>
      </trkpt>
      <trkpt lat="41.97289167" lon="2.87492">
        <ele>203.0</ele>
        <time>2021-08-21T07:11:28.014Z</time>
      </trkpt>
      <trkpt lat="41.97289167" lon="2.87492">
        <ele>203.0</ele>
        <time>2021-08-21T07:11:29.018Z</time>
      </trkpt>
      <trkpt lat="41.972965" lon="2.87495833">
        <ele>203.0</ele>
        <time>2021-08-21T07:11:30.012Z</time>
      </trkpt>
      <trkpt lat="41.972965" lon="2.87495833">
        <ele>203.0</ele>
        <time>2021-08-21T07:11:31.020Z</time>
      </trkpt>
      <trkpt lat="41.97302333" lon="2.87499">
        <ele>203.0</ele>
        <time>2021-08-21T07:11:31.999Z</time>
      </trkpt>
      <trkpt lat="41.97302333" lon="2.87499">
        <ele>203.0</ele>
        <time>2021-08-21T07:11:33.005Z</time>
      </trkpt>
      <trkpt lat="41.973085" lon="2.87501667">
        <ele>202.0</ele>
        <time>2021-08-21T07:11:34.030Z</time>
      </trkpt>
      <trkpt lat="41.973085" lon="2.87501667">
        <ele>202.0</ele>
        <time>2021-08-21T07:11:34.997Z</time>
      </trkpt>
      <trkpt lat="41.97316333" lon="2.875015">
        <ele>202.0</ele>
        <time>2021-08-21T07:11:36.011Z</time>
      </trkpt>
      <trkpt lat="41.97316333" lon="2.875015">
        <ele>202.0</ele>
        <time>2021-08-21T07:11:37.025Z</time>
      </trkpt>
      <trkpt lat="41.97323" lon="2.87497">
        <ele>202.0</ele>
        <time>2021-08-21T07:11:37.999Z</time>
      </trkpt>
      <trkpt lat="41.97323" lon="2.87497">
        <ele>202.0</ele>
        <time>2021-08-21T07:11:39.015Z</time>
      </trkpt>
      <trkpt lat="41.97330167" lon="2.8749">
        <ele>202.0</ele>
        <time>2021-08-21T07:11:39.996Z</time>
      </trkpt>
      <trkpt lat="41.97330167" lon="2.8749">
        <ele>202.0</ele>
        <time>2021-08-21T07:11:41.004Z</time>
      </trkpt>
      <trkpt lat="41.97336333" lon="2.87482833">
        <ele>202.0</ele>
        <time>2021-08-21T07:11:41.999Z</time>
      </trkpt>
      <trkpt lat="41.97336333" lon="2.87482833">
        <ele>202.0</ele>
        <time>2021-08-21T07:11:43.007Z</time>
      </trkpt>
      <trkpt lat="41.97341667" lon="2.87474">
        <ele>202.0</ele>
        <time>2021-08-21T07:11:44.019Z</time>
      </trkpt>
      <trkpt lat="41.97341667" lon="2.87474">
        <ele>202.0</ele>
        <time>2021-08-21T07:11:45.027Z</time>
      </trkpt>
      <trkpt lat="41.97344833" lon="2.874645">
        <ele>202.0</ele>
        <time>2021-08-21T07:11:46.003Z</time>
      </trkpt>
      <trkpt lat="41.97344833" lon="2.874645">
        <ele>202.0</ele>
        <time>2021-08-21T07:11:47.014Z</time>
      </trkpt>
      <trkpt lat="41.973485" lon="2.87456333">
        <ele>202.0</ele>
        <time>2021-08-21T07:11:47.993Z</time>
      </trkpt>
      <trkpt lat="41.973485" lon="2.87456333">
        <ele>202.0</ele>
        <time>2021-08-21T07:11:49.012Z</time>
      </trkpt>
      <trkpt lat="41.97353167" lon="2.87448667">
        <ele>202.0</ele>
        <time>2021-08-21T07:11:50.031Z</time>
      </trkpt>
      <trkpt lat="41.97353167" lon="2.87448667">
        <ele>202.0</ele>
        <time>2021-08-21T07:11:50.996Z</time>
      </trkpt>
      <trkpt lat="41.97357833" lon="2.874415">
        <ele>202.0</ele>
        <time>2021-08-21T07:11:52.013Z</time>
      </trkpt>
      <trkpt lat="41.97360167" lon="2.87437333">
        <ele>202.0</ele>
        <time>2021-08-21T07:11:53.007Z</time>
      </trkpt>
      <trkpt lat="41.97360167" lon="2.87437333">
        <ele>202.0</ele>
        <time>2021-08-21T07:11:54.016Z</time>
      </trkpt>
      <trkpt lat="41.97365" lon="2.87429833">
        <ele>203.0</ele>
        <time>2021-08-21T07:11:54.999Z</time>
      </trkpt>
      <trkpt lat="41.97367" lon="2.874265">
        <ele>203.0</ele>
        <time>2021-08-21T07:11:55.994Z</time>
      </trkpt>
      <trkpt lat="41.97367" lon="2.874265">
        <ele>203.0</ele>
        <time>2021-08-21T07:11:57.016Z</time>
      </trkpt>
      <trkpt lat="41.97370333" lon="2.87419167">
        <ele>203.0</ele>
        <time>2021-08-21T07:11:58.031Z</time>
      </trkpt>
      <trkpt lat="41.97370333" lon="2.87419167">
        <ele>203.0</ele>
        <time>2021-08-21T07:11:59.018Z</time>
      </trkpt>
      <trkpt lat="41.973735" lon="2.87412667">
        <ele>204.0</ele>
        <time>2021-08-21T07:12:00.019Z</time>
      </trkpt>
      <trkpt lat="41.973735" lon="2.87412667">
        <ele>204.0</ele>
        <time>2021-08-21T07:12:00.992Z</time>
      </trkpt>
      <trkpt lat="41.973765" lon="2.87405333">
        <ele>204.0</ele>
        <time>2021-08-21T07:12:02.007Z</time>
      </trkpt>
      <trkpt lat="41.97377667" lon="2.87402">
        <ele>204.0</ele>
        <time>2021-08-21T07:12:02.999Z</time>
      </trkpt>
      <trkpt lat="41.97377667" lon="2.87402">
        <ele>204.0</ele>
        <time>2021-08-21T07:12:04.008Z</time>
      </trkpt>
      <trkpt lat="41.97379667" lon="2.87395667">
        <ele>204.0</ele>
        <time>2021-08-21T07:12:05.032Z</time>
      </trkpt>
      <trkpt lat="41.97379667" lon="2.87395667">
        <ele>204.0</ele>
        <time>2021-08-21T07:12:05.997Z</time>
      </trkpt>
      <trkpt lat="41.97382" lon="2.87389167">
        <ele>204.0</ele>
        <time>2021-08-21T07:12:07.010Z</time>
      </trkpt>
      <trkpt lat="41.97382" lon="2.87389167">
        <ele>204.0</ele>
        <time>2021-08-21T07:12:08.026Z</time>
      </trkpt>
      <trkpt lat="41.97384167" lon="2.87383833">
        <ele>204.0</ele>
        <time>2021-08-21T07:12:09.005Z</time>
      </trkpt>
      <trkpt lat="41.97384167" lon="2.87383833">
        <ele>204.0</ele>
        <time>2021-08-21T07:12:10.021Z</time>
      </trkpt>
      <trkpt lat="41.97387167" lon="2.87379667">
        <ele>204.0</ele>
        <time>2021-08-21T07:12:10.998Z</time>
      </trkpt>
      <trkpt lat="41.97387167" lon="2.87379667">
        <ele>204.0</ele>
        <time>2021-08-21T07:12:12.011Z</time>
      </trkpt>
      <trkpt lat="41.973905" lon="2.87376">
        <ele>204.0</ele>
        <time>2021-08-21T07:12:13.037Z</time>
      </trkpt>
      <trkpt lat="41.973905" lon="2.87376">
        <ele>204.0</ele>
        <time>2021-08-21T07:12:14.002Z</time>
      </trkpt>
      <trkpt lat="41.97394167" lon="2.87372">
        <ele>205.0</ele>
        <time>2021-08-21T07:12:15.018Z</time>
      </trkpt>
      <trkpt lat="41.97396" lon="2.87370167">
        <ele>205.0</ele>
        <time>2021-08-21T07:12:15.999Z</time>
      </trkpt>
      <trkpt lat="41.97396" lon="2.87370167">
        <ele>205.0</ele>
        <time>2021-08-21T07:12:17.016Z</time>
      </trkpt>
      <trkpt lat="41.97399" lon="2.873655">
        <ele>205.0</ele>
        <time>2021-08-21T07:12:17.994Z</time>
      </trkpt>
      <trkpt lat="41.97399833" lon="2.873625">
        <ele>205.0</ele>
        <time>2021-08-21T07:12:18.994Z</time>
      </trkpt>
      <trkpt lat="41.974005" lon="2.873595">
        <ele>205.0</ele>
        <time>2021-08-21T07:12:20.008Z</time>
      </trkpt>
      <trkpt lat="41.974005" lon="2.873595">
        <ele>205.0</ele>
        <time>2021-08-21T07:12:21.019Z</time>
      </trkpt>
      <trkpt lat="41.97402167" lon="2.87352833">
        <ele>206.0</ele>
        <time>2021-08-21T07:12:22.014Z</time>
      </trkpt>
      <trkpt lat="41.97402167" lon="2.87352833">
        <ele>206.0</ele>
        <time>2021-08-21T07:12:23.030Z</time>
      </trkpt>
      <trkpt lat="41.97404" lon="2.87344667">
        <ele>206.0</ele>
        <time>2021-08-21T07:12:24.003Z</time>
      </trkpt>
      <trkpt lat="41.97404" lon="2.87344667">
        <ele>206.0</ele>
        <time>2021-08-21T07:12:25.015Z</time>
      </trkpt>
      <trkpt lat="41.97406333" lon="2.87334167">
        <ele>206.0</ele>
        <time>2021-08-21T07:12:26.022Z</time>
      </trkpt>
      <trkpt lat="41.97406333" lon="2.87334167">
        <ele>206.0</ele>
        <time>2021-08-21T07:12:27.027Z</time>
      </trkpt>
      <trkpt lat="41.97409333" lon="2.87329667">
        <ele>207.0</ele>
        <time>2021-08-21T07:12:28.008Z</time>
      </trkpt>
      <trkpt lat="41.97412167" lon="2.873305">
        <ele>207.0</ele>
        <time>2021-08-21T07:12:28.992Z</time>
      </trkpt>
      <trkpt lat="41.97415" lon="2.87332333">
        <ele>207.0</ele>
        <time>2021-08-21T07:12:30.008Z</time>
      </trkpt>
      <trkpt lat="41.97415" lon="2.87332333">
        <ele>207.0</ele>
        <time>2021-08-21T07:12:31.027Z</time>
      </trkpt>
      <trkpt lat="41.97417833" lon="2.873385">
        <ele>207.0</ele>
        <time>2021-08-21T07:12:32.000Z</time>
      </trkpt>
      <trkpt lat="41.97417833" lon="2.873385">
        <ele>207.0</ele>
        <time>2021-08-21T07:12:33.020Z</time>
      </trkpt>
      <trkpt lat="41.97418833" lon="2.87344833">
        <ele>208.0</ele>
        <time>2021-08-21T07:12:33.997Z</time>
      </trkpt>
      <trkpt lat="41.97418833" lon="2.87344833">
        <ele>208.0</ele>
        <time>2021-08-21T07:12:35.007Z</time>
      </trkpt>
      <trkpt lat="41.97419167" lon="2.87351333">
        <ele>208.0</ele>
        <time>2021-08-21T07:12:36.030Z</time>
      </trkpt>
      <trkpt lat="41.97418833" lon="2.87355167">
        <ele>209.0</ele>
        <time>2021-08-21T07:12:37.005Z</time>
      </trkpt>
      <trkpt lat="41.97418833" lon="2.87355167">
        <ele>209.0</ele>
        <time>2021-08-21T07:12:38.018Z</time>
      </trkpt>
      <trkpt lat="41.97417667" lon="2.87362167">
        <ele>209.0</ele>
        <time>2021-08-21T07:12:38.998Z</time>
      </trkpt>
      <trkpt lat="41.97417" lon="2.87366167">
        <ele>209.0</ele>
        <time>2021-08-21T07:12:40.017Z</time>
      </trkpt>
      <trkpt lat="41.97417" lon="2.87366167">
        <ele>209.0</ele>
        <time>2021-08-21T07:12:41.026Z</time>
      </trkpt>
      <trkpt lat="41.97416167" lon="2.87374167">
        <ele>209.0</ele>
        <time>2021-08-21T07:12:42.002Z</time>
      </trkpt>
      <trkpt lat="41.97416167" lon="2.87374167">
        <ele>209.0</ele>
        <time>2021-08-21T07:12:43.007Z</time>
      </trkpt>
      <trkpt lat="41.974165" lon="2.87382333">
        <ele>209.0</ele>
        <time>2021-08-21T07:12:43.994Z</time>
      </trkpt>
      <trkpt lat="41.97417" lon="2.87386">
        <ele>209.0</ele>
        <time>2021-08-21T07:12:45.009Z</time>
      </trkpt>
      <trkpt lat="41.97417667" lon="2.87389667">
        <ele>209.0</ele>
        <time>2021-08-21T07:12:46.026Z</time>
      </trkpt>
      <trkpt lat="41.97417667" lon="2.87389667">
        <ele>209.0</ele>
        <time>2021-08-21T07:12:46.993Z</time>
      </trkpt>
      <trkpt lat="41.97419833" lon="2.873975">
        <ele>209.0</ele>
        <time>2021-08-21T07:12:48.009Z</time>
      </trkpt>
      <trkpt lat="41.97421167" lon="2.87401167">
        <ele>209.0</ele>
        <time>2021-08-21T07:12:49.007Z</time>
      </trkpt>
      <trkpt lat="41.97421167" lon="2.87401167">
        <ele>209.0</ele>
        <time>2021-08-21T07:12:50.013Z</time>
      </trkpt>
      <trkpt lat="41.974235" lon="2.87408667">
        <ele>209.0</ele>
        <time>2021-08-21T07:12:51.031Z</time>
      </trkpt>
      <trkpt lat="41.97424667" lon="2.874125">
        <ele>209.0</ele>
        <time>2021-08-21T07:12:52.014Z</time>
      </trkpt>
      <trkpt lat="41.97424667" lon="2.874125">
        <ele>209.0</ele>
        <time>2021-08-21T07:12:53.019Z</time>
      </trkpt>
      <trkpt lat="41.97426667" lon="2.874205">
        <ele>209.0</ele>
        <time>2021-08-21T07:12:53.999Z</time>
      </trkpt>
      <trkpt lat="41.97426667" lon="2.874205">
        <ele>209.0</ele>
        <time>2021-08-21T07:12:55.014Z</time>
      </trkpt>
      <trkpt lat="41.97428667" lon="2.87428833">
        <ele>210.0</ele>
        <time>2021-08-21T07:12:56.030Z</time>
      </trkpt>
      <trkpt lat="41.97429833" lon="2.87432833">
        <ele>210.0</ele>
        <time>2021-08-21T07:12:57.018Z</time>
      </trkpt>
      <trkpt lat="41.97429833" lon="2.87432833">
        <ele>210.0</ele>
        <time>2021-08-21T07:12:58.025Z</time>
      </trkpt>
      <trkpt lat="41.97432167" lon="2.87440833">
        <ele>210.0</ele>
        <time>2021-08-21T07:12:59.005Z</time>
      </trkpt>
      <trkpt lat="41.97432167" lon="2.87440833">
        <ele>210.0</ele>
        <time>2021-08-21T07:13:00.017Z</time>
      </trkpt>
      <trkpt lat="41.97435" lon="2.87449">
        <ele>210.0</ele>
        <time>2021-08-21T07:13:00.993Z</time>
      </trkpt>
      <trkpt lat="41.97436333" lon="2.87453">
        <ele>210.0</ele>
        <time>2021-08-21T07:13:02.031Z</time>
      </trkpt>
      <trkpt lat="41.97436333" lon="2.87453">
        <ele>210.0</ele>
        <time>2021-08-21T07:13:03.009Z</time>
      </trkpt>
      <trkpt lat="41.97439167" lon="2.87461167">
        <ele>211.0</ele>
        <time>2021-08-21T07:13:04.026Z</time>
      </trkpt>
      <trkpt lat="41.97439167" lon="2.87461167">
        <ele>211.0</ele>
        <time>2021-08-21T07:13:04.997Z</time>
      </trkpt>
      <trkpt lat="41.97441833" lon="2.874685">
        <ele>211.0</ele>
        <time>2021-08-21T07:13:06.009Z</time>
      </trkpt>
      <trkpt lat="41.97441833" lon="2.874685">
        <ele>211.0</ele>
        <time>2021-08-21T07:13:07.020Z</time>
      </trkpt>
      <trkpt lat="41.97444833" lon="2.87475833">
        <ele>211.0</ele>
        <time>2021-08-21T07:13:07.992Z</time>
      </trkpt>
      <trkpt lat="41.97444833" lon="2.87475833">
        <ele>211.0</ele>
        <time>2021-08-21T07:13:08.998Z</time>
      </trkpt>
      <trkpt lat="41.97448167" lon="2.87483833">
        <ele>212.0</ele>
        <time>2021-08-21T07:13:10.010Z</time>
      </trkpt>
      <trkpt lat="41.97448167" lon="2.87483833">
        <ele>212.0</ele>
        <time>2021-08-21T07:13:11.019Z</time>
      </trkpt>
      <trkpt lat="41.97451" lon="2.874915">
        <ele>212.0</ele>
        <time>2021-08-21T07:13:12.032Z</time>
      </trkpt>
      <trkpt lat="41.97451" lon="2.874915">
        <ele>212.0</ele>
        <time>2021-08-21T07:13:12.997Z</time>
      </trkpt>
      <trkpt lat="41.97454" lon="2.87499167">
        <ele>212.0</ele>
        <time>2021-08-21T07:13:14.014Z</time>
      </trkpt>
      <trkpt lat="41.97454" lon="2.87499167">
        <ele>212.0</ele>
        <time>2021-08-21T07:13:15.022Z</time>
      </trkpt>
      <trkpt lat="41.97456167" lon="2.875065">
        <ele>213.0</ele>
        <time>2021-08-21T07:13:16.003Z</time>
      </trkpt>
      <trkpt lat="41.97456167" lon="2.875065">
        <ele>213.0</ele>
        <time>2021-08-21T07:13:17.017Z</time>
      </trkpt>
      <trkpt lat="41.974585" lon="2.87514">
        <ele>213.0</ele>
        <time>2021-08-21T07:13:18.004Z</time>
      </trkpt>
      <trkpt lat="41.9746" lon="2.87518">
        <ele>213.0</ele>
        <time>2021-08-21T07:13:19.024Z</time>
      </trkpt>
      <trkpt lat="41.974615" lon="2.87521667">
        <ele>213.0</ele>
        <time>2021-08-21T07:13:20.000Z</time>
      </trkpt>
      <trkpt lat="41.974615" lon="2.87521667">
        <ele>213.0</ele>
        <time>2021-08-21T07:13:21.022Z</time>
      </trkpt>
      <trkpt lat="41.974645" lon="2.875285">
        <ele>213.0</ele>
        <time>2021-08-21T07:13:21.998Z</time>
      </trkpt>
      <trkpt lat="41.974645" lon="2.875285">
        <ele>213.0</ele>
        <time>2021-08-21T07:13:23.025Z</time>
      </trkpt>
      <trkpt lat="41.97468667" lon="2.87534833">
        <ele>214.0</ele>
        <time>2021-08-21T07:13:23.996Z</time>
      </trkpt>
      <trkpt lat="41.97468667" lon="2.87534833">
        <ele>214.0</ele>
        <time>2021-08-21T07:13:25.006Z</time>
      </trkpt>
      <trkpt lat="41.97472333" lon="2.87540833">
        <ele>214.0</ele>
        <time>2021-08-21T07:13:26.020Z</time>
      </trkpt>
      <trkpt lat="41.97472333" lon="2.87540833">
        <ele>214.0</ele>
        <time>2021-08-21T07:13:26.996Z</time>
      </trkpt>
      <trkpt lat="41.97476333" lon="2.875455">
        <ele>214.0</ele>
        <time>2021-08-21T07:13:28.017Z</time>
      </trkpt>
      <trkpt lat="41.97476333" lon="2.875455">
        <ele>214.0</ele>
        <time>2021-08-21T07:13:29.028Z</time>
      </trkpt>
      <trkpt lat="41.97481167" lon="2.87549833">
        <ele>215.0</ele>
        <time>2021-08-21T07:13:30.007Z</time>
      </trkpt>
      <trkpt lat="41.97481167" lon="2.87549833">
        <ele>215.0</ele>
        <time>2021-08-21T07:13:31.015Z</time>
      </trkpt>
      <trkpt lat="41.97486167" lon="2.87554833">
        <ele>215.0</ele>
        <time>2021-08-21T07:13:31.992Z</time>
      </trkpt>
      <trkpt lat="41.97488667" lon="2.875575">
        <ele>215.0</ele>
        <time>2021-08-21T07:13:33.013Z</time>
      </trkpt>
      <trkpt lat="41.97490833" lon="2.87560167">
        <ele>216.0</ele>
        <time>2021-08-21T07:13:34.036Z</time>
      </trkpt>
      <trkpt lat="41.97490833" lon="2.87560167">
        <ele>216.0</ele>
        <time>2021-08-21T07:13:35.014Z</time>
      </trkpt>
      <trkpt lat="41.974955" lon="2.87565667">
        <ele>216.0</ele>
        <time>2021-08-21T07:13:36.034Z</time>
      </trkpt>
      <trkpt lat="41.97497667" lon="2.87567667">
        <ele>216.0</ele>
        <time>2021-08-21T07:13:37.011Z</time>
      </trkpt>
      <trkpt lat="41.97497667" lon="2.87567667">
        <ele>216.0</ele>
        <time>2021-08-21T07:13:38.022Z</time>
      </trkpt>
      <trkpt lat="41.97503167" lon="2.87570167">
        <ele>217.0</ele>
        <time>2021-08-21T07:13:38.993Z</time>
      </trkpt>
      <trkpt lat="41.97505833" lon="2.87571833">
        <ele>217.0</ele>
        <time>2021-08-21T07:13:40.007Z</time>
      </trkpt>
      <trkpt lat="41.97505833" lon="2.87571833">
        <ele>217.0</ele>
        <time>2021-08-21T07:13:41.014Z</time>
      </trkpt>
      <trkpt lat="41.97511167" lon="2.87574167">
        <ele>217.0</ele>
        <time>2021-08-21T07:13:41.994Z</time>
      </trkpt>
      <trkpt lat="41.97511167" lon="2.87574167">
        <ele>217.0</ele>
        <time>2021-08-21T07:13:43.006Z</time>
      </trkpt>
      <trkpt lat="41.97517333" lon="2.87576">
        <ele>217.0</ele>
        <time>2021-08-21T07:13:44.024Z</time>
      </trkpt>
      <trkpt lat="41.97517333" lon="2.87576">
        <ele>217.0</ele>
        <time>2021-08-21T07:13:44.994Z</time>
      </trkpt>
      <trkpt lat="41.97523" lon="2.87578167">
        <ele>218.0</ele>
        <time>2021-08-21T07:13:46.016Z</time>
      </trkpt>
      <trkpt lat="41.97523" lon="2.87578167">
        <ele>218.0</ele>
        <time>2021-08-21T07:13:47.017Z</time>
      </trkpt>
      <trkpt lat="41.97528333" lon="2.87580333">
        <ele>218.0</ele>
        <time>2021-08-21T07:13:47.997Z</time>
      </trkpt>
      <trkpt lat="41.97528333" lon="2.87580333">
        <ele>218.0</ele>
        <time>2021-08-21T07:13:49.020Z</time>
      </trkpt>
      <trkpt lat="41.975335" lon="2.875825">
        <ele>219.0</ele>
        <time>2021-08-21T07:13:49.999Z</time>
      </trkpt>
      <trkpt lat="41.97535667" lon="2.87583833">
        <ele>219.0</ele>
        <time>2021-08-21T07:13:51.015Z</time>
      </trkpt>
      <trkpt lat="41.97537167" lon="2.875845">
        <ele>219.0</ele>
        <time>2021-08-21T07:13:51.998Z</time>
      </trkpt>
      <trkpt lat="41.97537167" lon="2.875845">
        <ele>219.0</ele>
        <time>2021-08-21T07:13:53.005Z</time>
      </trkpt>
      <trkpt lat="41.97541833" lon="2.87587833">
        <ele>219.0</ele>
        <time>2021-08-21T07:13:54.014Z</time>
      </trkpt>
      <trkpt lat="41.97544167" lon="2.8759">
        <ele>219.0</ele>
        <time>2021-08-21T07:13:55.019Z</time>
      </trkpt>
      <trkpt lat="41.97544167" lon="2.8759">
        <ele>219.0</ele>
        <time>2021-08-21T07:13:56.029Z</time>
      </trkpt>
      <trkpt lat="41.97549333" lon="2.87594667">
        <ele>220.0</ele>
        <time>2021-08-21T07:13:57.002Z</time>
      </trkpt>
      <trkpt lat="41.97551667" lon="2.87597167">
        <ele>220.0</ele>
        <time>2021-08-21T07:13:58.018Z</time>
      </trkpt>
      <trkpt lat="41.97551667" lon="2.87597167">
        <ele>220.0</ele>
        <time>2021-08-21T07:13:59.030Z</time>
      </trkpt>
      <trkpt lat="41.97556" lon="2.87602333">
        <ele>220.0</ele>
        <time>2021-08-21T07:14:00.008Z</time>
      </trkpt>
      <trkpt lat="41.97556" lon="2.87602333">
        <ele>220.0</ele>
        <time>2021-08-21T07:14:01.016Z</time>
      </trkpt>
      <trkpt lat="41.975605" lon="2.87608333">
        <ele>221.0</ele>
        <time>2021-08-21T07:14:02.008Z</time>
      </trkpt>
      <trkpt lat="41.975605" lon="2.87608333">
        <ele>221.0</ele>
        <time>2021-08-21T07:14:03.026Z</time>
      </trkpt>
      <trkpt lat="41.97564667" lon="2.87614333">
        <ele>221.0</ele>
        <time>2021-08-21T07:14:03.998Z</time>
      </trkpt>
      <trkpt lat="41.97564667" lon="2.87614333">
        <ele>221.0</ele>
        <time>2021-08-21T07:14:05.005Z</time>
      </trkpt>
      <trkpt lat="41.97568333" lon="2.876205">
        <ele>221.0</ele>
        <time>2021-08-21T07:14:06.030Z</time>
      </trkpt>
      <trkpt lat="41.97568333" lon="2.876205">
        <ele>221.0</ele>
        <time>2021-08-21T07:14:06.998Z</time>
      </trkpt>
      <trkpt lat="41.975725" lon="2.87627">
        <ele>222.0</ele>
        <time>2021-08-21T07:14:08.026Z</time>
      </trkpt>
      <trkpt lat="41.975725" lon="2.87627">
        <ele>222.0</ele>
        <time>2021-08-21T07:14:08.999Z</time>
      </trkpt>
      <trkpt lat="41.97576667" lon="2.87633">
        <ele>222.0</ele>
        <time>2021-08-21T07:14:10.011Z</time>
      </trkpt>
      <trkpt lat="41.97576667" lon="2.87633">
        <ele>222.0</ele>
        <time>2021-08-21T07:14:11.026Z</time>
      </trkpt>
      <trkpt lat="41.975805" lon="2.87638833">
        <ele>223.0</ele>
        <time>2021-08-21T07:14:12.001Z</time>
      </trkpt>
      <trkpt lat="41.975805" lon="2.87638833">
        <ele>223.0</ele>
        <time>2021-08-21T07:14:13.032Z</time>
      </trkpt>
      <trkpt lat="41.97584167" lon="2.87645">
        <ele>223.0</ele>
        <time>2021-08-21T07:14:14.019Z</time>
      </trkpt>
      <trkpt lat="41.97584167" lon="2.87645">
        <ele>223.0</ele>
        <time>2021-08-21T07:14:15.024Z</time>
      </trkpt>
      <trkpt lat="41.97587167" lon="2.876515">
        <ele>223.0</ele>
        <time>2021-08-21T07:14:16.002Z</time>
      </trkpt>
      <trkpt lat="41.97587167" lon="2.876515">
        <ele>223.0</ele>
        <time>2021-08-21T07:14:16.999Z</time>
      </trkpt>
      <trkpt lat="41.97590167" lon="2.876565">
        <ele>224.0</ele>
        <time>2021-08-21T07:14:18.021Z</time>
      </trkpt>
      <trkpt lat="41.97590167" lon="2.876565">
        <ele>224.0</ele>
        <time>2021-08-21T07:14:19.001Z</time>
      </trkpt>
      <trkpt lat="41.97593667" lon="2.87661667">
        <ele>224.0</ele>
        <time>2021-08-21T07:14:20.028Z</time>
      </trkpt>
      <trkpt lat="41.97593667" lon="2.87661667">
        <ele>224.0</ele>
        <time>2021-08-21T07:14:20.995Z</time>
      </trkpt>
      <trkpt lat="41.975985" lon="2.87665333">
        <ele>225.0</ele>
        <time>2021-08-21T07:14:22.033Z</time>
      </trkpt>
      <trkpt lat="41.975985" lon="2.87665333">
        <ele>225.0</ele>
        <time>2021-08-21T07:14:23.001Z</time>
      </trkpt>
      <trkpt lat="41.97603" lon="2.87667667">
        <ele>225.0</ele>
        <time>2021-08-21T07:14:24.019Z</time>
      </trkpt>
      <trkpt lat="41.97605333" lon="2.87669">
        <ele>225.0</ele>
        <time>2021-08-21T07:14:24.994Z</time>
      </trkpt>
      <trkpt lat="41.97605333" lon="2.87669">
        <ele>225.0</ele>
        <time>2021-08-21T07:14:26.002Z</time>
      </trkpt>
      <trkpt lat="41.97610333" lon="2.87672333">
        <ele>225.0</ele>
        <time>2021-08-21T07:14:27.014Z</time>
      </trkpt>
      <trkpt lat="41.97612833" lon="2.87674">
        <ele>225.0</ele>
        <time>2021-08-21T07:14:28.031Z</time>
      </trkpt>
      <trkpt lat="41.97612833" lon="2.87674">
        <ele>225.0</ele>
        <time>2021-08-21T07:14:28.998Z</time>
      </trkpt>
      <trkpt lat="41.97617333" lon="2.87678667">
        <ele>226.0</ele>
        <time>2021-08-21T07:14:30.016Z</time>
      </trkpt>
      <trkpt lat="41.97617333" lon="2.87678667">
        <ele>226.0</ele>
        <time>2021-08-21T07:14:31.029Z</time>
      </trkpt>
      <trkpt lat="41.97621" lon="2.87684667">
        <ele>226.0</ele>
        <time>2021-08-21T07:14:32.008Z</time>
      </trkpt>
      <trkpt lat="41.97621" lon="2.87684667">
        <ele>226.0</ele>
        <time>2021-08-21T07:14:33.015Z</time>
      </trkpt>
      <trkpt lat="41.97624333" lon="2.87690833">
        <ele>226.0</ele>
        <time>2021-08-21T07:14:33.993Z</time>
      </trkpt>
      <trkpt lat="41.97624333" lon="2.87690833">
        <ele>226.0</ele>
        <time>2021-08-21T07:14:35.006Z</time>
      </trkpt>
      <trkpt lat="41.97628333" lon="2.876965">
        <ele>227.0</ele>
        <time>2021-08-21T07:14:36.029Z</time>
      </trkpt>
      <trkpt lat="41.976305" lon="2.87699167">
        <ele>227.0</ele>
        <time>2021-08-21T07:14:37.003Z</time>
      </trkpt>
      <trkpt lat="41.976305" lon="2.87699167">
        <ele>227.0</ele>
        <time>2021-08-21T07:14:38.012Z</time>
      </trkpt>
      <trkpt lat="41.97636" lon="2.87704">
        <ele>227.0</ele>
        <time>2021-08-21T07:14:39.025Z</time>
      </trkpt>
      <trkpt lat="41.97638667" lon="2.877055">
        <ele>227.0</ele>
        <time>2021-08-21T07:14:40.017Z</time>
      </trkpt>
      <trkpt lat="41.97638667" lon="2.877055">
        <ele>227.0</ele>
        <time>2021-08-21T07:14:41.023Z</time>
      </trkpt>
      <trkpt lat="41.97643833" lon="2.87708667">
        <ele>228.0</ele>
        <time>2021-08-21T07:14:42.006Z</time>
      </trkpt>
      <trkpt lat="41.97647" lon="2.87709667">
        <ele>228.0</ele>
        <time>2021-08-21T07:14:42.993Z</time>
      </trkpt>
      <trkpt lat="41.97647" lon="2.87709667">
        <ele>228.0</ele>
        <time>2021-08-21T07:14:44.007Z</time>
      </trkpt>
      <trkpt lat="41.97651833" lon="2.87712333">
        <ele>228.0</ele>
        <time>2021-08-21T07:14:45.019Z</time>
      </trkpt>
      <trkpt lat="41.97654167" lon="2.877135">
        <ele>229.0</ele>
        <time>2021-08-21T07:14:46.014Z</time>
      </trkpt>
      <trkpt lat="41.97654167" lon="2.877135">
        <ele>229.0</ele>
        <time>2021-08-21T07:14:47.019Z</time>
      </trkpt>
      <trkpt lat="41.97658167" lon="2.877155">
        <ele>229.0</ele>
        <time>2021-08-21T07:14:48.030Z</time>
      </trkpt>
      <trkpt lat="41.97660333" lon="2.877165">
        <ele>229.0</ele>
        <time>2021-08-21T07:14:49.009Z</time>
      </trkpt>
      <trkpt lat="41.97660333" lon="2.877165">
        <ele>229.0</ele>
        <time>2021-08-21T07:14:50.013Z</time>
      </trkpt>
      <trkpt lat="41.97664667" lon="2.87717833">
        <ele>229.0</ele>
        <time>2021-08-21T07:14:51.031Z</time>
      </trkpt>
      <trkpt lat="41.97666833" lon="2.87718333">
        <ele>229.0</ele>
        <time>2021-08-21T07:14:52.008Z</time>
      </trkpt>
      <trkpt lat="41.97666833" lon="2.87718333">
        <ele>229.0</ele>
        <time>2021-08-21T07:14:53.018Z</time>
      </trkpt>
      <trkpt lat="41.97671833" lon="2.877205">
        <ele>230.0</ele>
        <time>2021-08-21T07:14:53.994Z</time>
      </trkpt>
      <trkpt lat="41.97671833" lon="2.877205">
        <ele>230.0</ele>
        <time>2021-08-21T07:14:55.006Z</time>
      </trkpt>
      <trkpt lat="41.97677" lon="2.87724167">
        <ele>230.0</ele>
        <time>2021-08-21T07:14:56.019Z</time>
      </trkpt>
      <trkpt lat="41.976795" lon="2.87725833">
        <ele>231.0</ele>
        <time>2021-08-21T07:14:56.999Z</time>
      </trkpt>
      <trkpt lat="41.976795" lon="2.87725833">
        <ele>231.0</ele>
        <time>2021-08-21T07:14:58.010Z</time>
      </trkpt>
      <trkpt lat="41.97684333" lon="2.87728667">
        <ele>231.0</ele>
        <time>2021-08-21T07:14:59.024Z</time>
      </trkpt>
      <trkpt lat="41.97684333" lon="2.87728667">
        <ele>231.0</ele>
        <time>2021-08-21T07:14:59.993Z</time>
      </trkpt>
      <trkpt lat="41.97688833" lon="2.87730167">
        <ele>232.0</ele>
        <time>2021-08-21T07:15:01.013Z</time>
      </trkpt>
      <trkpt lat="41.97688833" lon="2.87730167">
        <ele>232.0</ele>
        <time>2021-08-21T07:15:02.013Z</time>
      </trkpt>
      <trkpt lat="41.97693333" lon="2.87733">
        <ele>232.0</ele>
        <time>2021-08-21T07:15:03.030Z</time>
      </trkpt>
      <trkpt lat="41.976955" lon="2.87734833">
        <ele>232.0</ele>
        <time>2021-08-21T07:15:04.002Z</time>
      </trkpt>
      <trkpt lat="41.976955" lon="2.87734833">
        <ele>232.0</ele>
        <time>2021-08-21T07:15:05.016Z</time>
      </trkpt>
      <trkpt lat="41.97700333" lon="2.87738">
        <ele>233.0</ele>
        <time>2021-08-21T07:15:06.003Z</time>
      </trkpt>
      <trkpt lat="41.97700333" lon="2.87738">
        <ele>233.0</ele>
        <time>2021-08-21T07:15:07.015Z</time>
      </trkpt>
      <trkpt lat="41.977045" lon="2.87740333">
        <ele>233.0</ele>
        <time>2021-08-21T07:15:08.033Z</time>
      </trkpt>
      <trkpt lat="41.977045" lon="2.87740333">
        <ele>233.0</ele>
        <time>2021-08-21T07:15:09.014Z</time>
      </trkpt>
      <trkpt lat="41.97709333" lon="2.87741833">
        <ele>234.0</ele>
        <time>2021-08-21T07:15:10.030Z</time>
      </trkpt>
      <trkpt lat="41.97709333" lon="2.87741833">
        <ele>234.0</ele>
        <time>2021-08-21T07:15:11.003Z</time>
      </trkpt>
      <trkpt lat="41.97714333" lon="2.87743">
        <ele>234.0</ele>
        <time>2021-08-21T07:15:12.010Z</time>
      </trkpt>
      <trkpt lat="41.97714333" lon="2.87743">
        <ele>234.0</ele>
        <time>2021-08-21T07:15:13.024Z</time>
      </trkpt>
      <trkpt lat="41.97718833" lon="2.87743333">
        <ele>235.0</ele>
        <time>2021-08-21T07:15:13.997Z</time>
      </trkpt>
      <trkpt lat="41.97718833" lon="2.87743333">
        <ele>235.0</ele>
        <time>2021-08-21T07:15:15.023Z</time>
      </trkpt>
      <trkpt lat="41.97723333" lon="2.87743667">
        <ele>235.0</ele>
        <time>2021-08-21T07:15:16.002Z</time>
      </trkpt>
      <trkpt lat="41.97723333" lon="2.87743667">
        <ele>235.0</ele>
        <time>2021-08-21T07:15:17.008Z</time>
      </trkpt>
      <trkpt lat="41.97728333" lon="2.87742667">
        <ele>236.0</ele>
        <time>2021-08-21T07:15:18.012Z</time>
      </trkpt>
      <trkpt lat="41.97728333" lon="2.87742667">
        <ele>236.0</ele>
        <time>2021-08-21T07:15:19.016Z</time>
      </trkpt>
      <trkpt lat="41.97732167" lon="2.877425">
        <ele>236.0</ele>
        <time>2021-08-21T07:15:20.030Z</time>
      </trkpt>
      <trkpt lat="41.97732167" lon="2.877425">
        <ele>236.0</ele>
        <time>2021-08-21T07:15:21.006Z</time>
      </trkpt>
      <trkpt lat="41.97736" lon="2.87742">
        <ele>236.0</ele>
        <time>2021-08-21T07:15:22.029Z</time>
      </trkpt>
      <trkpt lat="41.97736" lon="2.87742">
        <ele>236.0</ele>
        <time>2021-08-21T07:15:22.994Z</time>
      </trkpt>
      <trkpt lat="41.97740333" lon="2.87741833">
        <ele>237.0</ele>
        <time>2021-08-21T07:15:24.002Z</time>
      </trkpt>
      <trkpt lat="41.97742667" lon="2.87742333">
        <ele>237.0</ele>
        <time>2021-08-21T07:15:25.025Z</time>
      </trkpt>
      <trkpt lat="41.97742667" lon="2.87742333">
        <ele>237.0</ele>
        <time>2021-08-21T07:15:25.992Z</time>
      </trkpt>
      <trkpt lat="41.97747167" lon="2.877445">
        <ele>238.0</ele>
        <time>2021-08-21T07:15:27.005Z</time>
      </trkpt>
      <trkpt lat="41.97749667" lon="2.87745667">
        <ele>238.0</ele>
        <time>2021-08-21T07:15:28.002Z</time>
      </trkpt>
      <trkpt lat="41.97749667" lon="2.87745667">
        <ele>238.0</ele>
        <time>2021-08-21T07:15:29.015Z</time>
      </trkpt>
      <trkpt lat="41.97754833" lon="2.87746833">
        <ele>239.0</ele>
        <time>2021-08-21T07:15:29.992Z</time>
      </trkpt>
      <trkpt lat="41.97757167" lon="2.87747667">
        <ele>239.0</ele>
        <time>2021-08-21T07:15:30.996Z</time>
      </trkpt>
      <trkpt lat="41.97757167" lon="2.87747667">
        <ele>239.0</ele>
        <time>2021-08-21T07:15:32.009Z</time>
      </trkpt>
      <trkpt lat="41.97762167" lon="2.877495">
        <ele>240.0</ele>
        <time>2021-08-21T07:15:33.028Z</time>
      </trkpt>
      <trkpt lat="41.977645" lon="2.8775">
        <ele>240.0</ele>
        <time>2021-08-21T07:15:34.006Z</time>
      </trkpt>
      <trkpt lat="41.977645" lon="2.8775">
        <ele>240.0</ele>
        <time>2021-08-21T07:15:35.012Z</time>
      </trkpt>
      <trkpt lat="41.97769667" lon="2.87751167">
        <ele>240.0</ele>
        <time>2021-08-21T07:15:35.993Z</time>
      </trkpt>
      <trkpt lat="41.97772333" lon="2.87751333">
        <ele>240.0</ele>
        <time>2021-08-21T07:15:37.005Z</time>
      </trkpt>
      <trkpt lat="41.97775" lon="2.87751667">
        <ele>241.0</ele>
        <time>2021-08-21T07:15:38.024Z</time>
      </trkpt>
      <trkpt lat="41.97775" lon="2.87751667">
        <ele>241.0</ele>
        <time>2021-08-21T07:15:39.015Z</time>
      </trkpt>
      <trkpt lat="41.97779833" lon="2.87751833">
        <ele>241.0</ele>
        <time>2021-08-21T07:15:39.995Z</time>
      </trkpt>
      <trkpt lat="41.97779833" lon="2.87751833">
        <ele>241.0</ele>
        <time>2021-08-21T07:15:41.011Z</time>
      </trkpt>
      <trkpt lat="41.97784833" lon="2.877515">
        <ele>242.0</ele>
        <time>2021-08-21T07:15:42.029Z</time>
      </trkpt>
      <trkpt lat="41.97784833" lon="2.877515">
        <ele>242.0</ele>
        <time>2021-08-21T07:15:42.994Z</time>
      </trkpt>
      <trkpt lat="41.97790333" lon="2.87751167">
        <ele>243.0</ele>
        <time>2021-08-21T07:15:44.015Z</time>
      </trkpt>
      <trkpt lat="41.97790333" lon="2.87751167">
        <ele>243.0</ele>
        <time>2021-08-21T07:15:45.025Z</time>
      </trkpt>
      <trkpt lat="41.97794333" lon="2.87753667">
        <ele>243.0</ele>
        <time>2021-08-21T07:15:46.002Z</time>
      </trkpt>
      <trkpt lat="41.97794333" lon="2.87753667">
        <ele>243.0</ele>
        <time>2021-08-21T07:15:47.014Z</time>
      </trkpt>
      <trkpt lat="41.977975" lon="2.87759167">
        <ele>245.0</ele>
        <time>2021-08-21T07:15:48.029Z</time>
      </trkpt>
      <trkpt lat="41.97798833" lon="2.87762333">
        <ele>245.0</ele>
        <time>2021-08-21T07:15:49.011Z</time>
      </trkpt>
      <trkpt lat="41.97798833" lon="2.87762333">
        <ele>245.0</ele>
        <time>2021-08-21T07:15:50.020Z</time>
      </trkpt>
      <trkpt lat="41.97799833" lon="2.87768833">
        <ele>244.0</ele>
        <time>2021-08-21T07:15:51.003Z</time>
      </trkpt>
      <trkpt lat="41.97800167" lon="2.877725">
        <ele>243.0</ele>
        <time>2021-08-21T07:15:51.993Z</time>
      </trkpt>
      <trkpt lat="41.97800167" lon="2.877725">
        <ele>243.0</ele>
        <time>2021-08-21T07:15:52.999Z</time>
      </trkpt>
      <trkpt lat="41.97801" lon="2.87779833">
        <ele>242.0</ele>
        <time>2021-08-21T07:15:54.018Z</time>
      </trkpt>
      <trkpt lat="41.97801" lon="2.87779833">
        <ele>242.0</ele>
        <time>2021-08-21T07:15:54.996Z</time>
      </trkpt>
      <trkpt lat="41.978035" lon="2.87786333">
        <ele>242.0</ele>
        <time>2021-08-21T07:15:56.010Z</time>
      </trkpt>
      <trkpt lat="41.978035" lon="2.87786333">
        <ele>242.0</ele>
        <time>2021-08-21T07:15:57.027Z</time>
      </trkpt>
      <trkpt lat="41.97804167" lon="2.87793">
        <ele>242.0</ele>
        <time>2021-08-21T07:15:58.009Z</time>
      </trkpt>
      <trkpt lat="41.97804167" lon="2.87793">
        <ele>242.0</ele>
        <time>2021-08-21T07:15:59.020Z</time>
      </trkpt>
      <trkpt lat="41.97800833" lon="2.87797333">
        <ele>242.0</ele>
        <time>2021-08-21T07:15:59.993Z</time>
      </trkpt>
      <trkpt lat="41.97800833" lon="2.87797333">
        <ele>242.0</ele>
        <time>2021-08-21T07:16:01.007Z</time>
      </trkpt>
      <trkpt lat="41.97796667" lon="2.87798">
        <ele>242.0</ele>
        <time>2021-08-21T07:16:02.000Z</time>
      </trkpt>
      <trkpt lat="41.97794667" lon="2.877975">
        <ele>242.0</ele>
        <time>2021-08-21T07:16:02.995Z</time>
      </trkpt>
      <trkpt lat="41.977925" lon="2.87795">
        <ele>242.0</ele>
        <time>2021-08-21T07:16:04.028Z</time>
      </trkpt>
      <trkpt lat="41.977925" lon="2.87795">
        <ele>242.0</ele>
        <time>2021-08-21T07:16:05.001Z</time>
      </trkpt>
      <trkpt lat="41.97788167" lon="2.87790167">
        <ele>243.0</ele>
        <time>2021-08-21T07:16:06.017Z</time>
      </trkpt>
      <trkpt lat="41.97785833" lon="2.877885">
        <ele>243.0</ele>
        <time>2021-08-21T07:16:07.031Z</time>
      </trkpt>
      <trkpt lat="41.97785833" lon="2.877885">
        <ele>243.0</ele>
        <time>2021-08-21T07:16:08.001Z</time>
      </trkpt>
      <trkpt lat="41.9778" lon="2.877865">
        <ele>243.0</ele>
        <time>2021-08-21T07:16:09.017Z</time>
      </trkpt>
      <trkpt lat="41.97777167" lon="2.87786333">
        <ele>243.0</ele>
        <time>2021-08-21T07:16:09.996Z</time>
      </trkpt>
      <trkpt lat="41.97777167" lon="2.87786333">
        <ele>243.0</ele>
        <time>2021-08-21T07:16:11.002Z</time>
      </trkpt>
      <trkpt lat="41.97771333" lon="2.87786167">
        <ele>244.0</ele>
        <time>2021-08-21T07:16:12.016Z</time>
      </trkpt>
      <trkpt lat="41.97771333" lon="2.87786167">
        <ele>244.0</ele>
        <time>2021-08-21T07:16:13.023Z</time>
      </trkpt>
      <trkpt lat="41.977655" lon="2.87786167">
        <ele>244.0</ele>
        <time>2021-08-21T07:16:14.003Z</time>
      </trkpt>
      <trkpt lat="41.97761667" lon="2.87786333">
        <ele>244.0</ele>
        <time>2021-08-21T07:16:14.998Z</time>
      </trkpt>
      <trkpt lat="41.97758667" lon="2.87786667">
        <ele>244.0</ele>
        <time>2021-08-21T07:16:15.995Z</time>
      </trkpt>
      <trkpt lat="41.97758667" lon="2.87786667">
        <ele>244.0</ele>
        <time>2021-08-21T07:16:17.003Z</time>
      </trkpt>
      <trkpt lat="41.97753" lon="2.87787333">
        <ele>244.0</ele>
        <time>2021-08-21T07:16:18.019Z</time>
      </trkpt>
      <trkpt lat="41.97753" lon="2.87787333">
        <ele>244.0</ele>
        <time>2021-08-21T07:16:19.029Z</time>
      </trkpt>
      <trkpt lat="41.97747" lon="2.87787833">
        <ele>244.0</ele>
        <time>2021-08-21T07:16:20.010Z</time>
      </trkpt>
      <trkpt lat="41.97747" lon="2.87787833">
        <ele>244.0</ele>
        <time>2021-08-21T07:16:21.018Z</time>
      </trkpt>
      <trkpt lat="41.97741167" lon="2.87788667">
        <ele>244.0</ele>
        <time>2021-08-21T07:16:21.993Z</time>
      </trkpt>
      <trkpt lat="41.97738667" lon="2.87789">
        <ele>245.0</ele>
        <time>2021-08-21T07:16:23.007Z</time>
      </trkpt>
      <trkpt lat="41.97738667" lon="2.87789">
        <ele>245.0</ele>
        <time>2021-08-21T07:16:24.026Z</time>
      </trkpt>
      <trkpt lat="41.97733167" lon="2.8779">
        <ele>245.0</ele>
        <time>2021-08-21T07:16:25.012Z</time>
      </trkpt>
      <trkpt lat="41.97733167" lon="2.8779">
        <ele>245.0</ele>
        <time>2021-08-21T07:16:26.026Z</time>
      </trkpt>
      <trkpt lat="41.97728167" lon="2.877915">
        <ele>245.0</ele>
        <time>2021-08-21T07:16:27.001Z</time>
      </trkpt>
      <trkpt lat="41.977255" lon="2.87792333">
        <ele>245.0</ele>
        <time>2021-08-21T07:16:28.022Z</time>
      </trkpt>
      <trkpt lat="41.977255" lon="2.87792333">
        <ele>245.0</ele>
        <time>2021-08-21T07:16:28.998Z</time>
      </trkpt>
      <trkpt lat="41.97720167" lon="2.87794667">
        <ele>245.0</ele>
        <time>2021-08-21T07:16:30.013Z</time>
      </trkpt>
      <trkpt lat="41.97720167" lon="2.87794667">
        <ele>245.0</ele>
        <time>2021-08-21T07:16:31.022Z</time>
      </trkpt>
      <trkpt lat="41.97715833" lon="2.87797">
        <ele>245.0</ele>
        <time>2021-08-21T07:16:32.007Z</time>
      </trkpt>
      <trkpt lat="41.97715833" lon="2.87797">
        <ele>245.0</ele>
        <time>2021-08-21T07:16:32.999Z</time>
      </trkpt>
      <trkpt lat="41.97711667" lon="2.87798333">
        <ele>245.0</ele>
        <time>2021-08-21T07:16:34.013Z</time>
      </trkpt>
      <trkpt lat="41.97709833" lon="2.87799333">
        <ele>246.0</ele>
        <time>2021-08-21T07:16:34.993Z</time>
      </trkpt>
      <trkpt lat="41.97709833" lon="2.87799333">
        <ele>246.0</ele>
        <time>2021-08-21T07:16:36.000Z</time>
      </trkpt>
      <trkpt lat="41.977065" lon="2.87801833">
        <ele>246.0</ele>
        <time>2021-08-21T07:16:37.013Z</time>
      </trkpt>
      <trkpt lat="41.977065" lon="2.87801833">
        <ele>246.0</ele>
        <time>2021-08-21T07:16:38.020Z</time>
      </trkpt>
      <trkpt lat="41.97702333" lon="2.878035">
        <ele>246.0</ele>
        <time>2021-08-21T07:16:38.996Z</time>
      </trkpt>
      <trkpt lat="41.977" lon="2.87804167">
        <ele>246.0</ele>
        <time>2021-08-21T07:16:40.018Z</time>
      </trkpt>
      <trkpt lat="41.977" lon="2.87804167">
        <ele>246.0</ele>
        <time>2021-08-21T07:16:41.027Z</time>
      </trkpt>
      <trkpt lat="41.97695167" lon="2.87804833">
        <ele>247.0</ele>
        <time>2021-08-21T07:16:42.024Z</time>
      </trkpt>
      <trkpt lat="41.97695167" lon="2.87804833">
        <ele>247.0</ele>
        <time>2021-08-21T07:16:42.995Z</time>
      </trkpt>
      <trkpt lat="41.9769" lon="2.878035">
        <ele>247.0</ele>
        <time>2021-08-21T07:16:44.005Z</time>
      </trkpt>
      <trkpt lat="41.9769" lon="2.878035">
        <ele>247.0</ele>
        <time>2021-08-21T07:16:45.018Z</time>
      </trkpt>
      <trkpt lat="41.97686" lon="2.87802833">
        <ele>247.0</ele>
        <time>2021-08-21T07:16:45.994Z</time>
      </trkpt>
      <trkpt lat="41.97686" lon="2.87802833">
        <ele>247.0</ele>
        <time>2021-08-21T07:16:47.016Z</time>
      </trkpt>
      <trkpt lat="41.97681667" lon="2.87802">
        <ele>248.0</ele>
        <time>2021-08-21T07:16:48.012Z</time>
      </trkpt>
      <trkpt lat="41.97681667" lon="2.87802">
        <ele>248.0</ele>
        <time>2021-08-21T07:16:49.025Z</time>
      </trkpt>
      <trkpt lat="41.97677833" lon="2.87800833">
        <ele>248.0</ele>
        <time>2021-08-21T07:16:49.996Z</time>
      </trkpt>
      <trkpt lat="41.97677833" lon="2.87800833">
        <ele>248.0</ele>
        <time>2021-08-21T07:16:51.016Z</time>
      </trkpt>
      <trkpt lat="41.97674167" lon="2.877995">
        <ele>249.0</ele>
        <time>2021-08-21T07:16:51.994Z</time>
      </trkpt>
      <trkpt lat="41.97674167" lon="2.877995">
        <ele>249.0</ele>
        <time>2021-08-21T07:16:53.006Z</time>
      </trkpt>
      <trkpt lat="41.97669833" lon="2.87798333">
        <ele>250.0</ele>
        <time>2021-08-21T07:16:54.028Z</time>
      </trkpt>
      <trkpt lat="41.97669833" lon="2.87798333">
        <ele>250.0</ele>
        <time>2021-08-21T07:16:54.993Z</time>
      </trkpt>
      <trkpt lat="41.976655" lon="2.87797">
        <ele>250.0</ele>
        <time>2021-08-21T07:16:56.003Z</time>
      </trkpt>
      <trkpt lat="41.976655" lon="2.87797">
        <ele>250.0</ele>
        <time>2021-08-21T07:16:57.009Z</time>
      </trkpt>
      <trkpt lat="41.97661667" lon="2.87795833">
        <ele>250.0</ele>
        <time>2021-08-21T07:16:58.032Z</time>
      </trkpt>
      <trkpt lat="41.97661667" lon="2.87795833">
        <ele>250.0</ele>
        <time>2021-08-21T07:16:59.025Z</time>
      </trkpt>
      <trkpt lat="41.97661167" lon="2.87795667">
        <ele>251.0</ele>
        <time>2021-08-21T07:16:59.996Z</time>
      </trkpt>
      <trkpt lat="41.97661167" lon="2.87795667">
        <ele>251.0</ele>
        <time>2021-08-21T07:17:01.012Z</time>
      </trkpt>
      <trkpt lat="41.976605" lon="2.87795">
        <ele>251.0</ele>
        <time>2021-08-21T07:17:01.997Z</time>
      </trkpt>
      <trkpt lat="41.976605" lon="2.87795">
        <ele>251.0</ele>
        <time>2021-08-21T07:17:03.004Z</time>
      </trkpt>
      <trkpt lat="41.97653" lon="2.87792667">
        <ele>238.0</ele>
        <time>2021-08-21T07:17:04.025Z</time>
      </trkpt>
      <trkpt lat="41.97653" lon="2.87792667">
        <ele>238.0</ele>
        <time>2021-08-21T07:17:05.018Z</time>
      </trkpt>
      <trkpt lat="41.97649833" lon="2.87792333">
        <ele>238.0</ele>
        <time>2021-08-21T07:17:06.002Z</time>
      </trkpt>
      <trkpt lat="41.97647833" lon="2.877925">
        <ele>238.0</ele>
        <time>2021-08-21T07:17:07.022Z</time>
      </trkpt>
      <trkpt lat="41.97647833" lon="2.877925">
        <ele>238.0</ele>
        <time>2021-08-21T07:17:08.028Z</time>
      </trkpt>
      <trkpt lat="41.97643833" lon="2.87793">
        <ele>238.0</ele>
        <time>2021-08-21T07:17:08.994Z</time>
      </trkpt>
      <trkpt lat="41.97643833" lon="2.87793">
        <ele>238.0</ele>
        <time>2021-08-21T07:17:09.998Z</time>
      </trkpt>
      <trkpt lat="41.97639667" lon="2.87794667">
        <ele>239.0</ele>
        <time>2021-08-21T07:17:11.021Z</time>
      </trkpt>
      <trkpt lat="41.97638" lon="2.877955">
        <ele>239.0</ele>
        <time>2021-08-21T07:17:11.995Z</time>
      </trkpt>
      <trkpt lat="41.97638" lon="2.877955">
        <ele>239.0</ele>
        <time>2021-08-21T07:17:13.001Z</time>
      </trkpt>
      <trkpt lat="41.976345" lon="2.87797">
        <ele>240.0</ele>
        <time>2021-08-21T07:17:14.024Z</time>
      </trkpt>
      <trkpt lat="41.97632333" lon="2.87797667">
        <ele>240.0</ele>
        <time>2021-08-21T07:17:15.022Z</time>
      </trkpt>
      <trkpt lat="41.97632333" lon="2.87797667">
        <ele>240.0</ele>
        <time>2021-08-21T07:17:16.027Z</time>
      </trkpt>
      <trkpt lat="41.97627833" lon="2.87798">
        <ele>240.0</ele>
        <time>2021-08-21T07:17:17.007Z</time>
      </trkpt>
      <trkpt lat="41.97627833" lon="2.87798">
        <ele>240.0</ele>
        <time>2021-08-21T07:17:18.013Z</time>
      </trkpt>
      <trkpt lat="41.97623833" lon="2.87796833">
        <ele>241.0</ele>
        <time>2021-08-21T07:17:19.009Z</time>
      </trkpt>
      <trkpt lat="41.97623833" lon="2.87796833">
        <ele>241.0</ele>
        <time>2021-08-21T07:17:20.015Z</time>
      </trkpt>
      <trkpt lat="41.97620167" lon="2.87793667">
        <ele>242.0</ele>
        <time>2021-08-21T07:17:21.010Z</time>
      </trkpt>
      <trkpt lat="41.97620167" lon="2.87793667">
        <ele>242.0</ele>
        <time>2021-08-21T07:17:22.017Z</time>
      </trkpt>
      <trkpt lat="41.97616333" lon="2.8779">
        <ele>243.0</ele>
        <time>2021-08-21T07:17:22.999Z</time>
      </trkpt>
      <trkpt lat="41.97616333" lon="2.8779">
        <ele>243.0</ele>
        <time>2021-08-21T07:17:24.004Z</time>
      </trkpt>
      <trkpt lat="41.97612333" lon="2.87786667">
        <ele>243.0</ele>
        <time>2021-08-21T07:17:25.031Z</time>
      </trkpt>
      <trkpt lat="41.976105" lon="2.87785">
        <ele>243.0</ele>
        <time>2021-08-21T07:17:26.007Z</time>
      </trkpt>
      <trkpt lat="41.97609333" lon="2.87784">
        <ele>244.0</ele>
        <time>2021-08-21T07:17:27.027Z</time>
      </trkpt>
      <trkpt lat="41.97609333" lon="2.87784">
        <ele>244.0</ele>
        <time>2021-08-21T07:17:27.992Z</time>
      </trkpt>
      <trkpt lat="41.97606833" lon="2.87782833">
        <ele>244.0</ele>
        <time>2021-08-21T07:17:29.007Z</time>
      </trkpt>
      <trkpt lat="41.97604833" lon="2.87782167">
        <ele>245.0</ele>
        <time>2021-08-21T07:17:30.028Z</time>
      </trkpt>
      <trkpt lat="41.976025" lon="2.87781333">
        <ele>245.0</ele>
        <time>2021-08-21T07:17:31.003Z</time>
      </trkpt>
      <trkpt lat="41.976025" lon="2.87781333">
        <ele>245.0</ele>
        <time>2021-08-21T07:17:32.008Z</time>
      </trkpt>
      <trkpt lat="41.97597833" lon="2.877805">
        <ele>245.0</ele>
        <time>2021-08-21T07:17:33.025Z</time>
      </trkpt>
      <trkpt lat="41.97597833" lon="2.877805">
        <ele>245.0</ele>
        <time>2021-08-21T07:17:34.030Z</time>
      </trkpt>
      <trkpt lat="41.97591833" lon="2.8778">
        <ele>246.0</ele>
        <time>2021-08-21T07:17:35.002Z</time>
      </trkpt>
      <trkpt lat="41.97589" lon="2.87779167">
        <ele>246.0</ele>
        <time>2021-08-21T07:17:36.017Z</time>
      </trkpt>
      <trkpt lat="41.97589" lon="2.87779167">
        <ele>246.0</ele>
        <time>2021-08-21T07:17:37.024Z</time>
      </trkpt>
      <trkpt lat="41.975845" lon="2.877775">
        <ele>247.0</ele>
        <time>2021-08-21T07:17:38.022Z</time>
      </trkpt>
      <trkpt lat="41.97582167" lon="2.87776333">
        <ele>248.0</ele>
        <time>2021-08-21T07:17:39.001Z</time>
      </trkpt>
      <trkpt lat="41.97582167" lon="2.87776333">
        <ele>248.0</ele>
        <time>2021-08-21T07:17:40.007Z</time>
      </trkpt>
      <trkpt lat="41.97577833" lon="2.87773">
        <ele>248.0</ele>
        <time>2021-08-21T07:17:41.019Z</time>
      </trkpt>
      <trkpt lat="41.975755" lon="2.87771833">
        <ele>248.0</ele>
        <time>2021-08-21T07:17:42.003Z</time>
      </trkpt>
      <trkpt lat="41.975755" lon="2.87771833">
        <ele>248.0</ele>
        <time>2021-08-21T07:17:43.008Z</time>
      </trkpt>
      <trkpt lat="41.97571667" lon="2.87771">
        <ele>249.0</ele>
        <time>2021-08-21T07:17:44.026Z</time>
      </trkpt>
      <trkpt lat="41.97569833" lon="2.87772">
        <ele>250.0</ele>
        <time>2021-08-21T07:17:45.004Z</time>
      </trkpt>
      <trkpt lat="41.97569833" lon="2.87772">
        <ele>250.0</ele>
        <time>2021-08-21T07:17:46.009Z</time>
      </trkpt>
      <trkpt lat="41.9757" lon="2.87776">
        <ele>250.0</ele>
        <time>2021-08-21T07:17:46.994Z</time>
      </trkpt>
      <trkpt lat="41.9757" lon="2.87776">
        <ele>250.0</ele>
        <time>2021-08-21T07:17:47.999Z</time>
      </trkpt>
      <trkpt lat="41.97573333" lon="2.87778167">
        <ele>250.0</ele>
        <time>2021-08-21T07:17:49.013Z</time>
      </trkpt>
      <trkpt lat="41.97573333" lon="2.87778167">
        <ele>250.0</ele>
        <time>2021-08-21T07:17:50.018Z</time>
      </trkpt>
      <trkpt lat="41.97577667" lon="2.87779833">
        <ele>249.0</ele>
        <time>2021-08-21T07:17:51.030Z</time>
      </trkpt>
      <trkpt lat="41.97577667" lon="2.87779833">
        <ele>249.0</ele>
        <time>2021-08-21T07:17:51.995Z</time>
      </trkpt>
      <trkpt lat="41.97583" lon="2.877825">
        <ele>249.0</ele>
        <time>2021-08-21T07:17:53.014Z</time>
      </trkpt>
      <trkpt lat="41.97583" lon="2.877825">
        <ele>249.0</ele>
        <time>2021-08-21T07:17:54.019Z</time>
      </trkpt>
      <trkpt lat="41.97588333" lon="2.87785167">
        <ele>249.0</ele>
        <time>2021-08-21T07:17:54.995Z</time>
      </trkpt>
      <trkpt lat="41.97588333" lon="2.87785167">
        <ele>249.0</ele>
        <time>2021-08-21T07:17:56.001Z</time>
      </trkpt>
      <trkpt lat="41.97594" lon="2.87787667">
        <ele>249.0</ele>
        <time>2021-08-21T07:17:57.017Z</time>
      </trkpt>
      <trkpt lat="41.97594" lon="2.87787667">
        <ele>249.0</ele>
        <time>2021-08-21T07:17:58.022Z</time>
      </trkpt>
      <trkpt lat="41.976" lon="2.87790667">
        <ele>249.0</ele>
        <time>2021-08-21T07:17:59.011Z</time>
      </trkpt>
      <trkpt lat="41.976" lon="2.87790667">
        <ele>249.0</ele>
        <time>2021-08-21T07:18:00.016Z</time>
      </trkpt>
      <trkpt lat="41.97605667" lon="2.87794667">
        <ele>248.0</ele>
        <time>2021-08-21T07:18:00.996Z</time>
      </trkpt>
      <trkpt lat="41.97605667" lon="2.87794667">
        <ele>248.0</ele>
        <time>2021-08-21T07:18:02.020Z</time>
      </trkpt>
      <trkpt lat="41.97611667" lon="2.87799833">
        <ele>249.0</ele>
        <time>2021-08-21T07:18:03.022Z</time>
      </trkpt>
      <trkpt lat="41.97611667" lon="2.87799833">
        <ele>249.0</ele>
        <time>2021-08-21T07:18:04.028Z</time>
      </trkpt>
      <trkpt lat="41.976165" lon="2.87805167">
        <ele>249.0</ele>
        <time>2021-08-21T07:18:05.007Z</time>
      </trkpt>
      <trkpt lat="41.97619" lon="2.87807833">
        <ele>249.0</ele>
        <time>2021-08-21T07:18:06.031Z</time>
      </trkpt>
      <trkpt lat="41.97619" lon="2.87807833">
        <ele>249.0</ele>
        <time>2021-08-21T07:18:06.996Z</time>
      </trkpt>
      <trkpt lat="41.976245" lon="2.87812333">
        <ele>249.0</ele>
        <time>2021-08-21T07:18:08.014Z</time>
      </trkpt>
      <trkpt lat="41.97627833" lon="2.87813833">
        <ele>249.0</ele>
        <time>2021-08-21T07:18:09.026Z</time>
      </trkpt>
      <trkpt lat="41.97627833" lon="2.87813833">
        <ele>249.0</ele>
        <time>2021-08-21T07:18:10.031Z</time>
      </trkpt>
      <trkpt lat="41.97635667" lon="2.87813667">
        <ele>250.0</ele>
        <time>2021-08-21T07:18:11.011Z</time>
      </trkpt>
      <trkpt lat="41.97635667" lon="2.87813667">
        <ele>250.0</ele>
        <time>2021-08-21T07:18:12.016Z</time>
      </trkpt>
      <trkpt lat="41.97643167" lon="2.878125">
        <ele>250.0</ele>
        <time>2021-08-21T07:18:13.011Z</time>
      </trkpt>
      <trkpt lat="41.97647167" lon="2.87812333">
        <ele>250.0</ele>
        <time>2021-08-21T07:18:14.027Z</time>
      </trkpt>
      <trkpt lat="41.97650667" lon="2.87812667">
        <ele>250.0</ele>
        <time>2021-08-21T07:18:15.009Z</time>
      </trkpt>
      <trkpt lat="41.97650667" lon="2.87812667">
        <ele>250.0</ele>
        <time>2021-08-21T07:18:16.014Z</time>
      </trkpt>
      <trkpt lat="41.97658" lon="2.87815667">
        <ele>251.0</ele>
        <time>2021-08-21T07:18:17.015Z</time>
      </trkpt>
      <trkpt lat="41.97661667" lon="2.87817833">
        <ele>251.0</ele>
        <time>2021-08-21T07:18:18.003Z</time>
      </trkpt>
      <trkpt lat="41.97661667" lon="2.87817833">
        <ele>251.0</ele>
        <time>2021-08-21T07:18:19.009Z</time>
      </trkpt>
      <trkpt lat="41.97668333" lon="2.87822667">
        <ele>251.0</ele>
        <time>2021-08-21T07:18:20.029Z</time>
      </trkpt>
      <trkpt lat="41.97671667" lon="2.87825333">
        <ele>251.0</ele>
        <time>2021-08-21T07:18:21.004Z</time>
      </trkpt>
      <trkpt lat="41.97671667" lon="2.87825333">
        <ele>251.0</ele>
        <time>2021-08-21T07:18:22.010Z</time>
      </trkpt>
      <trkpt lat="41.97678333" lon="2.8783">
        <ele>252.0</ele>
        <time>2021-08-21T07:18:22.992Z</time>
      </trkpt>
      <trkpt lat="41.97678333" lon="2.8783">
        <ele>252.0</ele>
        <time>2021-08-21T07:18:24.014Z</time>
      </trkpt>
      <trkpt lat="41.97684667" lon="2.87835167">
        <ele>252.0</ele>
        <time>2021-08-21T07:18:24.996Z</time>
      </trkpt>
      <trkpt lat="41.97684667" lon="2.87835167">
        <ele>252.0</ele>
        <time>2021-08-21T07:18:26.001Z</time>
      </trkpt>
      <trkpt lat="41.976905" lon="2.87838333">
        <ele>252.0</ele>
        <time>2021-08-21T07:18:27.024Z</time>
      </trkpt>
      <trkpt lat="41.976905" lon="2.87838333">
        <ele>252.0</ele>
        <time>2021-08-21T07:18:28.029Z</time>
      </trkpt>
      <trkpt lat="41.97697333" lon="2.87838333">
        <ele>253.0</ele>
        <time>2021-08-21T07:18:29.019Z</time>
      </trkpt>
      <trkpt lat="41.97700833" lon="2.87837333">
        <ele>253.0</ele>
        <time>2021-08-21T07:18:29.998Z</time>
      </trkpt>
      <trkpt lat="41.97700833" lon="2.87837333">
        <ele>253.0</ele>
        <time>2021-08-21T07:18:31.003Z</time>
      </trkpt>
      <trkpt lat="41.97708" lon="2.87834333">
        <ele>253.0</ele>
        <time>2021-08-21T07:18:32.019Z</time>
      </trkpt>
      <trkpt lat="41.97711833" lon="2.87832833">
        <ele>253.0</ele>
        <time>2021-08-21T07:18:32.998Z</time>
      </trkpt>
      <trkpt lat="41.97711833" lon="2.87832833">
        <ele>253.0</ele>
        <time>2021-08-21T07:18:34.003Z</time>
      </trkpt>
      <trkpt lat="41.97718833" lon="2.87830667">
        <ele>254.0</ele>
        <time>2021-08-21T07:18:35.015Z</time>
      </trkpt>
      <trkpt lat="41.97718833" lon="2.87830667">
        <ele>254.0</ele>
        <time>2021-08-21T07:18:36.022Z</time>
      </trkpt>
      <trkpt lat="41.97726333" lon="2.87830333">
        <ele>254.0</ele>
        <time>2021-08-21T07:18:37.000Z</time>
      </trkpt>
      <trkpt lat="41.97726333" lon="2.87830333">
        <ele>254.0</ele>
        <time>2021-08-21T07:18:38.005Z</time>
      </trkpt>
      <trkpt lat="41.97733667" lon="2.87831">
        <ele>255.0</ele>
        <time>2021-08-21T07:18:39.022Z</time>
      </trkpt>
      <trkpt lat="41.97733667" lon="2.87831">
        <ele>255.0</ele>
        <time>2021-08-21T07:18:40.027Z</time>
      </trkpt>
      <trkpt lat="41.97741667" lon="2.878325">
        <ele>255.0</ele>
        <time>2021-08-21T07:18:41.009Z</time>
      </trkpt>
      <trkpt lat="41.97741667" lon="2.878325">
        <ele>255.0</ele>
        <time>2021-08-21T07:18:42.015Z</time>
      </trkpt>
      <trkpt lat="41.97750667" lon="2.87831833">
        <ele>256.0</ele>
        <time>2021-08-21T07:18:42.999Z</time>
      </trkpt>
      <trkpt lat="41.97755333" lon="2.87831167">
        <ele>256.0</ele>
        <time>2021-08-21T07:18:44.000Z</time>
      </trkpt>
      <trkpt lat="41.97759333" lon="2.87831167">
        <ele>256.0</ele>
        <time>2021-08-21T07:18:45.025Z</time>
      </trkpt>
      <trkpt lat="41.97759333" lon="2.87831167">
        <ele>256.0</ele>
        <time>2021-08-21T07:18:46.030Z</time>
      </trkpt>
      <trkpt lat="41.97765" lon="2.878325">
        <ele>256.0</ele>
        <time>2021-08-21T07:18:46.995Z</time>
      </trkpt>
      <trkpt lat="41.97766833" lon="2.87833167">
        <ele>257.0</ele>
        <time>2021-08-21T07:18:48.028Z</time>
      </trkpt>
      <trkpt lat="41.97766833" lon="2.87833167">
        <ele>257.0</ele>
        <time>2021-08-21T07:18:48.993Z</time>
      </trkpt>
      <trkpt lat="41.97770833" lon="2.87836667">
        <ele>257.0</ele>
        <time>2021-08-21T07:18:50.012Z</time>
      </trkpt>
      <trkpt lat="41.97772667" lon="2.87839">
        <ele>257.0</ele>
        <time>2021-08-21T07:18:51.029Z</time>
      </trkpt>
      <trkpt lat="41.97772667" lon="2.87839">
        <ele>257.0</ele>
        <time>2021-08-21T07:18:51.996Z</time>
      </trkpt>
      <trkpt lat="41.977765" lon="2.878455">
        <ele>257.0</ele>
        <time>2021-08-21T07:18:53.024Z</time>
      </trkpt>
      <trkpt lat="41.977765" lon="2.878455">
        <ele>257.0</ele>
        <time>2021-08-21T07:18:54.029Z</time>
      </trkpt>
      <trkpt lat="41.977795" lon="2.87854667">
        <ele>257.0</ele>
        <time>2021-08-21T07:18:55.001Z</time>
      </trkpt>
      <trkpt lat="41.977795" lon="2.87854667">
        <ele>257.0</ele>
        <time>2021-08-21T07:18:56.006Z</time>
      </trkpt>
      <trkpt lat="41.97782833" lon="2.87864">
        <ele>257.0</ele>
        <time>2021-08-21T07:18:57.025Z</time>
      </trkpt>
      <trkpt lat="41.97782833" lon="2.87864">
        <ele>257.0</ele>
        <time>2021-08-21T07:18:58.030Z</time>
      </trkpt>
      <trkpt lat="41.97788333" lon="2.87870167">
        <ele>257.0</ele>
        <time>2021-08-21T07:18:59.016Z</time>
      </trkpt>
      <trkpt lat="41.97791667" lon="2.87870833">
        <ele>257.0</ele>
        <time>2021-08-21T07:19:00.031Z</time>
      </trkpt>
      <trkpt lat="41.977955" lon="2.87870167">
        <ele>257.0</ele>
        <time>2021-08-21T07:19:01.012Z</time>
      </trkpt>
      <trkpt lat="41.977955" lon="2.87870167">
        <ele>257.0</ele>
        <time>2021-08-21T07:19:02.031Z</time>
      </trkpt>
      <trkpt lat="41.97803167" lon="2.87868833">
        <ele>257.0</ele>
        <time>2021-08-21T07:19:03.010Z</time>
      </trkpt>
      <trkpt lat="41.97803167" lon="2.87868833">
        <ele>257.0</ele>
        <time>2021-08-21T07:19:04.016Z</time>
      </trkpt>
      <trkpt lat="41.97810667" lon="2.87870667">
        <ele>258.0</ele>
        <time>2021-08-21T07:19:04.998Z</time>
      </trkpt>
      <trkpt lat="41.97810667" lon="2.87870667">
        <ele>258.0</ele>
        <time>2021-08-21T07:19:06.004Z</time>
      </trkpt>
      <trkpt lat="41.97818" lon="2.878755">
        <ele>258.0</ele>
        <time>2021-08-21T07:19:07.015Z</time>
      </trkpt>
      <trkpt lat="41.97818" lon="2.878755">
        <ele>258.0</ele>
        <time>2021-08-21T07:19:08.020Z</time>
      </trkpt>
      <trkpt lat="41.97825667" lon="2.87880833">
        <ele>259.0</ele>
        <time>2021-08-21T07:19:09.000Z</time>
      </trkpt>
      <trkpt lat="41.97825667" lon="2.87880833">
        <ele>259.0</ele>
        <time>2021-08-21T07:19:10.005Z</time>
      </trkpt>
      <trkpt lat="41.97833333" lon="2.87885833">
        <ele>259.0</ele>
        <time>2021-08-21T07:19:10.995Z</time>
      </trkpt>
      <trkpt lat="41.97837333" lon="2.87888333">
        <ele>259.0</ele>
        <time>2021-08-21T07:19:12.013Z</time>
      </trkpt>
      <trkpt lat="41.97837333" lon="2.87888333">
        <ele>259.0</ele>
        <time>2021-08-21T07:19:13.019Z</time>
      </trkpt>
      <trkpt lat="41.97846333" lon="2.87893167">
        <ele>259.0</ele>
        <time>2021-08-21T07:19:13.994Z</time>
      </trkpt>
      <trkpt lat="41.97851167" lon="2.87895667">
        <ele>259.0</ele>
        <time>2021-08-21T07:19:15.023Z</time>
      </trkpt>
      <trkpt lat="41.97851167" lon="2.87895667">
        <ele>259.0</ele>
        <time>2021-08-21T07:19:16.028Z</time>
      </trkpt>
      <trkpt lat="41.978615" lon="2.87900667">
        <ele>259.0</ele>
        <time>2021-08-21T07:19:17.017Z</time>
      </trkpt>
      <trkpt lat="41.978615" lon="2.87900667">
        <ele>259.0</ele>
        <time>2021-08-21T07:19:18.024Z</time>
      </trkpt>
      <trkpt lat="41.97870667" lon="2.87906">
        <ele>259.0</ele>
        <time>2021-08-21T07:19:18.998Z</time>
      </trkpt>
      <trkpt lat="41.97870667" lon="2.87906">
        <ele>259.0</ele>
        <time>2021-08-21T07:19:20.003Z</time>
      </trkpt>
      <trkpt lat="41.97879167" lon="2.87911167">
        <ele>260.0</ele>
        <time>2021-08-21T07:19:21.020Z</time>
      </trkpt>
      <trkpt lat="41.97879167" lon="2.87911167">
        <ele>260.0</ele>
        <time>2021-08-21T07:19:22.028Z</time>
      </trkpt>
      <trkpt lat="41.97889333" lon="2.87912333">
        <ele>260.0</ele>
        <time>2021-08-21T07:19:23.005Z</time>
      </trkpt>
      <trkpt lat="41.97889333" lon="2.87912333">
        <ele>260.0</ele>
        <time>2021-08-21T07:19:24.010Z</time>
      </trkpt>
      <trkpt lat="41.978985" lon="2.879125">
        <ele>260.0</ele>
        <time>2021-08-21T07:19:24.993Z</time>
      </trkpt>
      <trkpt lat="41.978985" lon="2.879125">
        <ele>260.0</ele>
        <time>2021-08-21T07:19:25.998Z</time>
      </trkpt>
      <trkpt lat="41.97907333" lon="2.87915833">
        <ele>260.0</ele>
        <time>2021-08-21T07:19:27.019Z</time>
      </trkpt>
      <trkpt lat="41.97907333" lon="2.87915833">
        <ele>260.0</ele>
        <time>2021-08-21T07:19:28.024Z</time>
      </trkpt>
      <trkpt lat="41.97915833" lon="2.87922">
        <ele>261.0</ele>
        <time>2021-08-21T07:19:29.013Z</time>
      </trkpt>
      <trkpt lat="41.97915833" lon="2.87922">
        <ele>261.0</ele>
        <time>2021-08-21T07:19:30.018Z</time>
      </trkpt>
      <trkpt lat="41.97924" lon="2.87927833">
        <ele>261.0</ele>
        <time>2021-08-21T07:19:30.992Z</time>
      </trkpt>
      <trkpt lat="41.97928167" lon="2.87930833">
        <ele>261.0</ele>
        <time>2021-08-21T07:19:32.010Z</time>
      </trkpt>
      <trkpt lat="41.979325" lon="2.87933333">
        <ele>262.0</ele>
        <time>2021-08-21T07:19:32.992Z</time>
      </trkpt>
      <trkpt lat="41.979325" lon="2.87933333">
        <ele>262.0</ele>
        <time>2021-08-21T07:19:33.997Z</time>
      </trkpt>
      <trkpt lat="41.97941833" lon="2.87935667">
        <ele>262.0</ele>
        <time>2021-08-21T07:19:35.017Z</time>
      </trkpt>
      <trkpt lat="41.979465" lon="2.87934833">
        <ele>263.0</ele>
        <time>2021-08-21T07:19:36.008Z</time>
      </trkpt>
      <trkpt lat="41.97951167" lon="2.87934">
        <ele>263.0</ele>
        <time>2021-08-21T07:19:37.021Z</time>
      </trkpt>
      <trkpt lat="41.979555" lon="2.87933833">
        <ele>263.0</ele>
        <time>2021-08-21T07:19:38.006Z</time>
      </trkpt>
      <trkpt lat="41.979555" lon="2.87933833">
        <ele>263.0</ele>
        <time>2021-08-21T07:19:39.011Z</time>
      </trkpt>
      <trkpt lat="41.979635" lon="2.879355">
        <ele>264.0</ele>
        <time>2021-08-21T07:19:40.029Z</time>
      </trkpt>
      <trkpt lat="41.979635" lon="2.879355">
        <ele>264.0</ele>
        <time>2021-08-21T07:19:40.995Z</time>
      </trkpt>
      <trkpt lat="41.97970833" lon="2.87938333">
        <ele>265.0</ele>
        <time>2021-08-21T07:19:42.018Z</time>
      </trkpt>
      <trkpt lat="41.97970833" lon="2.87938333">
        <ele>265.0</ele>
        <time>2021-08-21T07:19:43.024Z</time>
      </trkpt>
      <trkpt lat="41.97978" lon="2.879405">
        <ele>266.0</ele>
        <time>2021-08-21T07:19:44.002Z</time>
      </trkpt>
      <trkpt lat="41.97981833" lon="2.87941167">
        <ele>267.0</ele>
        <time>2021-08-21T07:19:45.029Z</time>
      </trkpt>
      <trkpt lat="41.97981833" lon="2.87941167">
        <ele>267.0</ele>
        <time>2021-08-21T07:19:45.994Z</time>
      </trkpt>
      <trkpt lat="41.979885" lon="2.87941167">
        <ele>267.0</ele>
        <time>2021-08-21T07:19:47.016Z</time>
      </trkpt>
      <trkpt lat="41.979885" lon="2.87941167">
        <ele>267.0</ele>
        <time>2021-08-21T07:19:48.022Z</time>
      </trkpt>
      <trkpt lat="41.97995167" lon="2.87942667">
        <ele>269.0</ele>
        <time>2021-08-21T07:19:49.000Z</time>
      </trkpt>
      <trkpt lat="41.97995167" lon="2.87942667">
        <ele>269.0</ele>
        <time>2021-08-21T07:19:50.005Z</time>
      </trkpt>
      <trkpt lat="41.98002333" lon="2.87945833">
        <ele>270.0</ele>
        <time>2021-08-21T07:19:51.028Z</time>
      </trkpt>
      <trkpt lat="41.98002333" lon="2.87945833">
        <ele>270.0</ele>
        <time>2021-08-21T07:19:51.993Z</time>
      </trkpt>
      <trkpt lat="41.98009333" lon="2.87943667">
        <ele>270.0</ele>
        <time>2021-08-21T07:19:53.015Z</time>
      </trkpt>
      <trkpt lat="41.98009333" lon="2.87943667">
        <ele>270.0</ele>
        <time>2021-08-21T07:19:54.020Z</time>
      </trkpt>
      <trkpt lat="41.98012167" lon="2.87938">
        <ele>271.0</ele>
        <time>2021-08-21T07:19:54.994Z</time>
      </trkpt>
      <trkpt lat="41.98012167" lon="2.87938">
        <ele>271.0</ele>
        <time>2021-08-21T07:19:55.999Z</time>
      </trkpt>
      <trkpt lat="41.98012" lon="2.87931333">
        <ele>272.0</ele>
        <time>2021-08-21T07:19:57.018Z</time>
      </trkpt>
      <trkpt lat="41.98012" lon="2.87931333">
        <ele>272.0</ele>
        <time>2021-08-21T07:19:58.023Z</time>
      </trkpt>
      <trkpt lat="41.980105" lon="2.87925">
        <ele>273.0</ele>
        <time>2021-08-21T07:19:59.011Z</time>
      </trkpt>
      <trkpt lat="41.980105" lon="2.87925">
        <ele>273.0</ele>
        <time>2021-08-21T07:20:00.016Z</time>
      </trkpt>
      <trkpt lat="41.98008333" lon="2.87920167">
        <ele>274.0</ele>
        <time>2021-08-21T07:20:01.031Z</time>
      </trkpt>
      <trkpt lat="41.980075" lon="2.87917667">
        <ele>274.0</ele>
        <time>2021-08-21T07:20:02.012Z</time>
      </trkpt>
      <trkpt lat="41.980075" lon="2.87917667">
        <ele>274.0</ele>
        <time>2021-08-21T07:20:03.018Z</time>
      </trkpt>
      <trkpt lat="41.98004167" lon="2.87913667">
        <ele>276.0</ele>
        <time>2021-08-21T07:20:03.998Z</time>
      </trkpt>
      <trkpt lat="41.980025" lon="2.879115">
        <ele>276.0</ele>
        <time>2021-08-21T07:20:05.017Z</time>
      </trkpt>
      <trkpt lat="41.98001167" lon="2.879095">
        <ele>277.0</ele>
        <time>2021-08-21T07:20:06.009Z</time>
      </trkpt>
      <trkpt lat="41.98001167" lon="2.879095">
        <ele>277.0</ele>
        <time>2021-08-21T07:20:07.014Z</time>
      </trkpt>
      <trkpt lat="41.97998333" lon="2.87905">
        <ele>278.0</ele>
        <time>2021-08-21T07:20:08.029Z</time>
      </trkpt>
      <trkpt lat="41.979965" lon="2.87903333">
        <ele>278.0</ele>
        <time>2021-08-21T07:20:09.008Z</time>
      </trkpt>
      <trkpt lat="41.979965" lon="2.87903333">
        <ele>278.0</ele>
        <time>2021-08-21T07:20:10.014Z</time>
      </trkpt>
      <trkpt lat="41.97993167" lon="2.87899833">
        <ele>279.0</ele>
        <time>2021-08-21T07:20:11.001Z</time>
      </trkpt>
      <trkpt lat="41.97993167" lon="2.87899833">
        <ele>279.0</ele>
        <time>2021-08-21T07:20:12.006Z</time>
      </trkpt>
      <trkpt lat="41.9799" lon="2.87894833">
        <ele>280.0</ele>
        <time>2021-08-21T07:20:13.029Z</time>
      </trkpt>
      <trkpt lat="41.97988167" lon="2.87892333">
        <ele>280.0</ele>
        <time>2021-08-21T07:20:14.009Z</time>
      </trkpt>
      <trkpt lat="41.97988167" lon="2.87892333">
        <ele>280.0</ele>
        <time>2021-08-21T07:20:15.014Z</time>
      </trkpt>
      <trkpt lat="41.97985333" lon="2.87887833">
        <ele>281.0</ele>
        <time>2021-08-21T07:20:15.995Z</time>
      </trkpt>
      <trkpt lat="41.97983167" lon="2.87885667">
        <ele>282.0</ele>
        <time>2021-08-21T07:20:17.013Z</time>
      </trkpt>
      <trkpt lat="41.97983167" lon="2.87885667">
        <ele>282.0</ele>
        <time>2021-08-21T07:20:18.019Z</time>
      </trkpt>
      <trkpt lat="41.97979167" lon="2.87881167">
        <ele>283.0</ele>
        <time>2021-08-21T07:20:18.998Z</time>
      </trkpt>
      <trkpt lat="41.979775" lon="2.87879">
        <ele>283.0</ele>
        <time>2021-08-21T07:20:20.013Z</time>
      </trkpt>
      <trkpt lat="41.97975833" lon="2.87876833">
        <ele>284.0</ele>
        <time>2021-08-21T07:20:20.994Z</time>
      </trkpt>
      <trkpt lat="41.97975833" lon="2.87876833">
        <ele>284.0</ele>
        <time>2021-08-21T07:20:22.000Z</time>
      </trkpt>
      <trkpt lat="41.97972667" lon="2.87871833">
        <ele>285.0</ele>
        <time>2021-08-21T07:20:23.000Z</time>
      </trkpt>
      <trkpt lat="41.97972667" lon="2.87871833">
        <ele>285.0</ele>
        <time>2021-08-21T07:20:24.005Z</time>
      </trkpt>
      <trkpt lat="41.97969667" lon="2.87867167">
        <ele>286.0</ele>
        <time>2021-08-21T07:20:25.030Z</time>
      </trkpt>
      <trkpt lat="41.97968167" lon="2.87864833">
        <ele>285.0</ele>
        <time>2021-08-21T07:20:26.010Z</time>
      </trkpt>
      <trkpt lat="41.97966833" lon="2.87863">
        <ele>285.0</ele>
        <time>2021-08-21T07:20:26.995Z</time>
      </trkpt>
      <trkpt lat="41.97966833" lon="2.87863">
        <ele>285.0</ele>
        <time>2021-08-21T07:20:28.000Z</time>
      </trkpt>
      <trkpt lat="41.97964667" lon="2.87859667">
        <ele>285.0</ele>
        <time>2021-08-21T07:20:29.015Z</time>
      </trkpt>
      <trkpt lat="41.97963833" lon="2.878585">
        <ele>285.0</ele>
        <time>2021-08-21T07:20:29.995Z</time>
      </trkpt>
      <trkpt lat="41.97963833" lon="2.878585">
        <ele>285.0</ele>
        <time>2021-08-21T07:20:31.000Z</time>
      </trkpt>
      <trkpt lat="41.97961833" lon="2.87855833">
        <ele>285.0</ele>
        <time>2021-08-21T07:20:32.010Z</time>
      </trkpt>
      <trkpt lat="41.97960333" lon="2.87854333">
        <ele>285.0</ele>
        <time>2021-08-21T07:20:32.996Z</time>
      </trkpt>
      <trkpt lat="41.97960333" lon="2.87854333">
        <ele>285.0</ele>
        <time>2021-08-21T07:20:34.001Z</time>
      </trkpt>
      <trkpt lat="41.97957167" lon="2.878505">
        <ele>285.0</ele>
        <time>2021-08-21T07:20:35.015Z</time>
      </trkpt>
      <trkpt lat="41.97957167" lon="2.878505">
        <ele>285.0</ele>
        <time>2021-08-21T07:20:36.021Z</time>
      </trkpt>
      <trkpt lat="41.97953833" lon="2.87845333">
        <ele>285.0</ele>
        <time>2021-08-21T07:20:37.001Z</time>
      </trkpt>
      <trkpt lat="41.97953833" lon="2.87845333">
        <ele>285.0</ele>
        <time>2021-08-21T07:20:38.007Z</time>
      </trkpt>
      <trkpt lat="41.97951167" lon="2.87839167">
        <ele>285.0</ele>
        <time>2021-08-21T07:20:39.029Z</time>
      </trkpt>
      <trkpt lat="41.97951167" lon="2.87839167">
        <ele>285.0</ele>
        <time>2021-08-21T07:20:39.994Z</time>
      </trkpt>
      <trkpt lat="41.97948667" lon="2.87834">
        <ele>285.0</ele>
        <time>2021-08-21T07:20:41.021Z</time>
      </trkpt>
      <trkpt lat="41.97948667" lon="2.87834">
        <ele>285.0</ele>
        <time>2021-08-21T07:20:42.027Z</time>
      </trkpt>
      <trkpt lat="41.97945167" lon="2.87830167">
        <ele>285.0</ele>
        <time>2021-08-21T07:20:43.030Z</time>
      </trkpt>
      <trkpt lat="41.97945167" lon="2.87830167">
        <ele>285.0</ele>
        <time>2021-08-21T07:20:43.995Z</time>
      </trkpt>
      <trkpt lat="41.97940667" lon="2.878255">
        <ele>285.0</ele>
        <time>2021-08-21T07:20:44.993Z</time>
      </trkpt>
      <trkpt lat="41.97940667" lon="2.878255">
        <ele>285.0</ele>
        <time>2021-08-21T07:20:45.998Z</time>
      </trkpt>
      <trkpt lat="41.97936667" lon="2.87820167">
        <ele>286.0</ele>
        <time>2021-08-21T07:20:47.022Z</time>
      </trkpt>
      <trkpt lat="41.97934667" lon="2.878175">
        <ele>286.0</ele>
        <time>2021-08-21T07:20:47.997Z</time>
      </trkpt>
      <trkpt lat="41.97934667" lon="2.878175">
        <ele>286.0</ele>
        <time>2021-08-21T07:20:49.002Z</time>
      </trkpt>
      <trkpt lat="41.97930667" lon="2.87812">
        <ele>286.0</ele>
        <time>2021-08-21T07:20:50.015Z</time>
      </trkpt>
      <trkpt lat="41.97928833" lon="2.87809167">
        <ele>286.0</ele>
        <time>2021-08-21T07:20:50.995Z</time>
      </trkpt>
      <trkpt lat="41.97928833" lon="2.87809167">
        <ele>286.0</ele>
        <time>2021-08-21T07:20:52.001Z</time>
      </trkpt>
      <trkpt lat="41.97925167" lon="2.87803167">
        <ele>287.0</ele>
        <time>2021-08-21T07:20:53.028Z</time>
      </trkpt>
      <trkpt lat="41.97925167" lon="2.87803167">
        <ele>287.0</ele>
        <time>2021-08-21T07:20:53.993Z</time>
      </trkpt>
      <trkpt lat="41.97921667" lon="2.87797667">
        <ele>287.0</ele>
        <time>2021-08-21T07:20:55.015Z</time>
      </trkpt>
      <trkpt lat="41.97919667" lon="2.87794833">
        <ele>287.0</ele>
        <time>2021-08-21T07:20:55.999Z</time>
      </trkpt>
      <trkpt lat="41.97917667" lon="2.87791833">
        <ele>288.0</ele>
        <time>2021-08-21T07:20:57.031Z</time>
      </trkpt>
      <trkpt lat="41.97917667" lon="2.87791833">
        <ele>288.0</ele>
        <time>2021-08-21T07:20:57.996Z</time>
      </trkpt>
      <trkpt lat="41.97914167" lon="2.87786333">
        <ele>288.0</ele>
        <time>2021-08-21T07:20:59.014Z</time>
      </trkpt>
      <trkpt lat="41.97912667" lon="2.87783833">
        <ele>288.0</ele>
        <time>2021-08-21T07:21:00.001Z</time>
      </trkpt>
      <trkpt lat="41.97912667" lon="2.87783833">
        <ele>288.0</ele>
        <time>2021-08-21T07:21:01.007Z</time>
      </trkpt>
      <trkpt lat="41.97909167" lon="2.87778833">
        <ele>289.0</ele>
        <time>2021-08-21T07:21:01.996Z</time>
      </trkpt>
      <trkpt lat="41.979075" lon="2.87776333">
        <ele>289.0</ele>
        <time>2021-08-21T07:21:03.025Z</time>
      </trkpt>
      <trkpt lat="41.979075" lon="2.87776333">
        <ele>289.0</ele>
        <time>2021-08-21T07:21:04.030Z</time>
      </trkpt>
      <trkpt lat="41.979035" lon="2.877715">
        <ele>289.0</ele>
        <time>2021-08-21T07:21:05.022Z</time>
      </trkpt>
      <trkpt lat="41.979035" lon="2.877715">
        <ele>289.0</ele>
        <time>2021-08-21T07:21:06.027Z</time>
      </trkpt>
      <trkpt lat="41.97899" lon="2.87766333">
        <ele>289.0</ele>
        <time>2021-08-21T07:21:07.006Z</time>
      </trkpt>
      <trkpt lat="41.97899" lon="2.87766333">
        <ele>289.0</ele>
        <time>2021-08-21T07:21:08.012Z</time>
      </trkpt>
      <trkpt lat="41.97894833" lon="2.87760667">
        <ele>290.0</ele>
        <time>2021-08-21T07:21:08.992Z</time>
      </trkpt>
      <trkpt lat="41.97894833" lon="2.87760667">
        <ele>290.0</ele>
        <time>2021-08-21T07:21:09.997Z</time>
      </trkpt>
      <trkpt lat="41.97890667" lon="2.877535">
        <ele>288.0</ele>
        <time>2021-08-21T07:21:10.994Z</time>
      </trkpt>
      <trkpt lat="41.97890667" lon="2.877535">
        <ele>288.0</ele>
        <time>2021-08-21T07:21:11.999Z</time>
      </trkpt>
      <trkpt lat="41.97887" lon="2.87746667">
        <ele>286.0</ele>
        <time>2021-08-21T07:21:13.022Z</time>
      </trkpt>
      <trkpt lat="41.97885667" lon="2.87743167">
        <ele>286.0</ele>
        <time>2021-08-21T07:21:14.009Z</time>
      </trkpt>
      <trkpt lat="41.978845" lon="2.8774">
        <ele>287.0</ele>
        <time>2021-08-21T07:21:15.029Z</time>
      </trkpt>
      <trkpt lat="41.978845" lon="2.8774">
        <ele>287.0</ele>
        <time>2021-08-21T07:21:15.994Z</time>
      </trkpt>
      <trkpt lat="41.97883333" lon="2.87732833">
        <ele>286.0</ele>
        <time>2021-08-21T07:21:17.005Z</time>
      </trkpt>
      <trkpt lat="41.97883333" lon="2.87732833">
        <ele>286.0</ele>
        <time>2021-08-21T07:21:18.010Z</time>
      </trkpt>
      <trkpt lat="41.97882167" lon="2.87725">
        <ele>286.0</ele>
        <time>2021-08-21T07:21:19.026Z</time>
      </trkpt>
      <trkpt lat="41.97882" lon="2.87721">
        <ele>285.0</ele>
        <time>2021-08-21T07:21:20.000Z</time>
      </trkpt>
      <trkpt lat="41.97881833" lon="2.87717">
        <ele>286.0</ele>
        <time>2021-08-21T07:21:21.014Z</time>
      </trkpt>
      <trkpt lat="41.97881833" lon="2.87717">
        <ele>286.0</ele>
        <time>2021-08-21T07:21:22.022Z</time>
      </trkpt>
      <trkpt lat="41.97882333" lon="2.87708">
        <ele>286.0</ele>
        <time>2021-08-21T07:21:23.010Z</time>
      </trkpt>
      <trkpt lat="41.97883167" lon="2.87703">
        <ele>286.0</ele>
        <time>2021-08-21T07:21:23.998Z</time>
      </trkpt>
      <trkpt lat="41.97883167" lon="2.87703">
        <ele>286.0</ele>
        <time>2021-08-21T07:21:25.005Z</time>
      </trkpt>
      <trkpt lat="41.978855" lon="2.87692333">
        <ele>285.0</ele>
        <time>2021-08-21T07:21:26.026Z</time>
      </trkpt>
      <trkpt lat="41.97887167" lon="2.876875">
        <ele>285.0</ele>
        <time>2021-08-21T07:21:27.019Z</time>
      </trkpt>
      <trkpt lat="41.97887167" lon="2.876875">
        <ele>285.0</ele>
        <time>2021-08-21T07:21:28.024Z</time>
      </trkpt>
      <trkpt lat="41.97892167" lon="2.87679">
        <ele>285.0</ele>
        <time>2021-08-21T07:21:29.010Z</time>
      </trkpt>
      <trkpt lat="41.97892167" lon="2.87679">
        <ele>285.0</ele>
        <time>2021-08-21T07:21:30.016Z</time>
      </trkpt>
      <trkpt lat="41.97898667" lon="2.87672333">
        <ele>285.0</ele>
        <time>2021-08-21T07:21:30.999Z</time>
      </trkpt>
      <trkpt lat="41.97898667" lon="2.87672333">
        <ele>285.0</ele>
        <time>2021-08-21T07:21:32.005Z</time>
      </trkpt>
      <trkpt lat="41.97906167" lon="2.87667">
        <ele>286.0</ele>
        <time>2021-08-21T07:21:33.025Z</time>
      </trkpt>
      <trkpt lat="41.97906167" lon="2.87667">
        <ele>286.0</ele>
        <time>2021-08-21T07:21:34.031Z</time>
      </trkpt>
      <trkpt lat="41.97913667" lon="2.87659333">
        <ele>286.0</ele>
        <time>2021-08-21T07:21:35.026Z</time>
      </trkpt>
      <trkpt lat="41.97913667" lon="2.87659333">
        <ele>286.0</ele>
        <time>2021-08-21T07:21:35.992Z</time>
      </trkpt>
      <trkpt lat="41.97917333" lon="2.87649">
        <ele>287.0</ele>
        <time>2021-08-21T07:21:37.015Z</time>
      </trkpt>
      <trkpt lat="41.97916833" lon="2.87642333">
        <ele>287.0</ele>
        <time>2021-08-21T07:21:37.994Z</time>
      </trkpt>
      <trkpt lat="41.97915167" lon="2.87636333">
        <ele>287.0</ele>
        <time>2021-08-21T07:21:39.017Z</time>
      </trkpt>
      <trkpt lat="41.97915167" lon="2.87636333">
        <ele>287.0</ele>
        <time>2021-08-21T07:21:40.022Z</time>
      </trkpt>
      <trkpt lat="41.97909" lon="2.876265">
        <ele>287.0</ele>
        <time>2021-08-21T07:21:41.001Z</time>
      </trkpt>
      <trkpt lat="41.97909" lon="2.876265">
        <ele>287.0</ele>
        <time>2021-08-21T07:21:42.006Z</time>
      </trkpt>
      <trkpt lat="41.979025" lon="2.87617">
        <ele>288.0</ele>
        <time>2021-08-21T07:21:43.031Z</time>
      </trkpt>
      <trkpt lat="41.97899167" lon="2.876115">
        <ele>288.0</ele>
        <time>2021-08-21T07:21:44.006Z</time>
      </trkpt>
      <trkpt lat="41.97896667" lon="2.87605667">
        <ele>288.0</ele>
        <time>2021-08-21T07:21:44.994Z</time>
      </trkpt>
      <trkpt lat="41.97896667" lon="2.87605667">
        <ele>288.0</ele>
        <time>2021-08-21T07:21:45.999Z</time>
      </trkpt>
      <trkpt lat="41.97893167" lon="2.87594333">
        <ele>288.0</ele>
        <time>2021-08-21T07:21:47.019Z</time>
      </trkpt>
      <trkpt lat="41.97892167" lon="2.87588333">
        <ele>289.0</ele>
        <time>2021-08-21T07:21:47.992Z</time>
      </trkpt>
      <trkpt lat="41.97892167" lon="2.87588333">
        <ele>289.0</ele>
        <time>2021-08-21T07:21:48.997Z</time>
      </trkpt>
      <trkpt lat="41.97890833" lon="2.87576">
        <ele>289.0</ele>
        <time>2021-08-21T07:21:50.023Z</time>
      </trkpt>
      <trkpt lat="41.97890833" lon="2.87576">
        <ele>289.0</ele>
        <time>2021-08-21T07:21:51.028Z</time>
      </trkpt>
      <trkpt lat="41.97890333" lon="2.87564">
        <ele>290.0</ele>
        <time>2021-08-21T07:21:52.008Z</time>
      </trkpt>
      <trkpt lat="41.97890333" lon="2.87564">
        <ele>290.0</ele>
        <time>2021-08-21T07:21:53.014Z</time>
      </trkpt>
      <trkpt lat="41.97890167" lon="2.875515">
        <ele>290.0</ele>
        <time>2021-08-21T07:21:53.995Z</time>
      </trkpt>
      <trkpt lat="41.97890167" lon="2.875515">
        <ele>290.0</ele>
        <time>2021-08-21T07:21:55.000Z</time>
      </trkpt>
      <trkpt lat="41.97891333" lon="2.87539">
        <ele>290.0</ele>
        <time>2021-08-21T07:21:56.022Z</time>
      </trkpt>
      <trkpt lat="41.978925" lon="2.87533">
        <ele>290.0</ele>
        <time>2021-08-21T07:21:57.010Z</time>
      </trkpt>
      <trkpt lat="41.978925" lon="2.87533">
        <ele>290.0</ele>
        <time>2021-08-21T07:21:58.015Z</time>
      </trkpt>
      <trkpt lat="41.978955" lon="2.87520667">
        <ele>291.0</ele>
        <time>2021-08-21T07:21:59.004Z</time>
      </trkpt>
      <trkpt lat="41.978955" lon="2.87515167">
        <ele>291.0</ele>
        <time>2021-08-21T07:22:00.020Z</time>
      </trkpt>
      <trkpt lat="41.978955" lon="2.87515167">
        <ele>291.0</ele>
        <time>2021-08-21T07:22:01.027Z</time>
      </trkpt>
      <trkpt lat="41.97892333" lon="2.875065">
        <ele>292.0</ele>
        <time>2021-08-21T07:22:02.013Z</time>
      </trkpt>
      <trkpt lat="41.97888667" lon="2.87503333">
        <ele>292.0</ele>
        <time>2021-08-21T07:22:03.031Z</time>
      </trkpt>
      <trkpt lat="41.97888667" lon="2.87503333">
        <ele>292.0</ele>
        <time>2021-08-21T07:22:03.996Z</time>
      </trkpt>
      <trkpt lat="41.97879167" lon="2.87499">
        <ele>292.0</ele>
        <time>2021-08-21T07:22:05.019Z</time>
      </trkpt>
      <trkpt lat="41.97879167" lon="2.87499">
        <ele>292.0</ele>
        <time>2021-08-21T07:22:06.026Z</time>
      </trkpt>
      <trkpt lat="41.9787" lon="2.87498833">
        <ele>292.0</ele>
        <time>2021-08-21T07:22:07.000Z</time>
      </trkpt>
      <trkpt lat="41.9787" lon="2.87498833">
        <ele>292.0</ele>
        <time>2021-08-21T07:22:08.005Z</time>
      </trkpt>
      <trkpt lat="41.978615" lon="2.87501167">
        <ele>293.0</ele>
        <time>2021-08-21T07:22:09.029Z</time>
      </trkpt>
      <trkpt lat="41.978615" lon="2.87501167">
        <ele>293.0</ele>
        <time>2021-08-21T07:22:09.994Z</time>
      </trkpt>
      <trkpt lat="41.978535" lon="2.87504333">
        <ele>293.0</ele>
        <time>2021-08-21T07:22:11.009Z</time>
      </trkpt>
      <trkpt lat="41.978535" lon="2.87504333">
        <ele>293.0</ele>
        <time>2021-08-21T07:22:12.015Z</time>
      </trkpt>
      <trkpt lat="41.97845667" lon="2.87509167">
        <ele>293.0</ele>
        <time>2021-08-21T07:22:12.992Z</time>
      </trkpt>
      <trkpt lat="41.97842" lon="2.87511833">
        <ele>293.0</ele>
        <time>2021-08-21T07:22:14.025Z</time>
      </trkpt>
      <trkpt lat="41.97838833" lon="2.87515667">
        <ele>293.0</ele>
        <time>2021-08-21T07:22:15.008Z</time>
      </trkpt>
      <trkpt lat="41.97838833" lon="2.87515667">
        <ele>293.0</ele>
        <time>2021-08-21T07:22:16.013Z</time>
      </trkpt>
      <trkpt lat="41.97833" lon="2.87524167">
        <ele>294.0</ele>
        <time>2021-08-21T07:22:17.002Z</time>
      </trkpt>
      <trkpt lat="41.9783" lon="2.87527833">
        <ele>294.0</ele>
        <time>2021-08-21T07:22:18.024Z</time>
      </trkpt>
      <trkpt lat="41.9783" lon="2.87527833">
        <ele>294.0</ele>
        <time>2021-08-21T07:22:19.029Z</time>
      </trkpt>
      <trkpt lat="41.97823333" lon="2.87532333">
        <ele>294.0</ele>
        <time>2021-08-21T07:22:20.011Z</time>
      </trkpt>
      <trkpt lat="41.97819667" lon="2.87532">
        <ele>294.0</ele>
        <time>2021-08-21T07:22:21.030Z</time>
      </trkpt>
      <trkpt lat="41.97819667" lon="2.87532">
        <ele>294.0</ele>
        <time>2021-08-21T07:22:21.995Z</time>
      </trkpt>
      <trkpt lat="41.97811833" lon="2.87527667">
        <ele>294.0</ele>
        <time>2021-08-21T07:22:23.024Z</time>
      </trkpt>
      <trkpt lat="41.97808333" lon="2.87524667">
        <ele>294.0</ele>
        <time>2021-08-21T07:22:24.009Z</time>
      </trkpt>
      <trkpt lat="41.97808333" lon="2.87524667">
        <ele>294.0</ele>
        <time>2021-08-21T07:22:25.015Z</time>
      </trkpt>
      <trkpt lat="41.97801833" lon="2.87518333">
        <ele>295.0</ele>
        <time>2021-08-21T07:22:26.000Z</time>
      </trkpt>
      <trkpt lat="41.977985" lon="2.87515333">
        <ele>295.0</ele>
        <time>2021-08-21T07:22:27.020Z</time>
      </trkpt>
      <trkpt lat="41.977985" lon="2.87515333">
        <ele>295.0</ele>
        <time>2021-08-21T07:22:28.025Z</time>
      </trkpt>
      <trkpt lat="41.97791667" lon="2.87509333">
        <ele>295.0</ele>
        <time>2021-08-21T07:22:29.001Z</time>
      </trkpt>
      <trkpt lat="41.97791667" lon="2.87509333">
        <ele>295.0</ele>
        <time>2021-08-21T07:22:30.006Z</time>
      </trkpt>
      <trkpt lat="41.97784667" lon="2.87504167">
        <ele>296.0</ele>
        <time>2021-08-21T07:22:31.031Z</time>
      </trkpt>
      <trkpt lat="41.97784667" lon="2.87504167">
        <ele>296.0</ele>
        <time>2021-08-21T07:22:31.996Z</time>
      </trkpt>
      <trkpt lat="41.97777167" lon="2.87499833">
        <ele>296.0</ele>
        <time>2021-08-21T07:22:33.017Z</time>
      </trkpt>
      <trkpt lat="41.97777167" lon="2.87499833">
        <ele>296.0</ele>
        <time>2021-08-21T07:22:34.023Z</time>
      </trkpt>
      <trkpt lat="41.97768667" lon="2.87496833">
        <ele>296.0</ele>
        <time>2021-08-21T07:22:35.014Z</time>
      </trkpt>
      <trkpt lat="41.97768667" lon="2.87496833">
        <ele>296.0</ele>
        <time>2021-08-21T07:22:36.022Z</time>
      </trkpt>
      <trkpt lat="41.97760167" lon="2.87495167">
        <ele>296.0</ele>
        <time>2021-08-21T07:22:37.011Z</time>
      </trkpt>
      <trkpt lat="41.97760167" lon="2.87495167">
        <ele>296.0</ele>
        <time>2021-08-21T07:22:38.017Z</time>
      </trkpt>
      <trkpt lat="41.97751833" lon="2.87494167">
        <ele>296.0</ele>
        <time>2021-08-21T07:22:38.996Z</time>
      </trkpt>
      <trkpt lat="41.97751833" lon="2.87494167">
        <ele>296.0</ele>
        <time>2021-08-21T07:22:40.001Z</time>
      </trkpt>
      <trkpt lat="41.97743333" lon="2.874935">
        <ele>297.0</ele>
        <time>2021-08-21T07:22:41.018Z</time>
      </trkpt>
      <trkpt lat="41.97743333" lon="2.874935">
        <ele>297.0</ele>
        <time>2021-08-21T07:22:42.024Z</time>
      </trkpt>
      <trkpt lat="41.977345" lon="2.87492833">
        <ele>297.0</ele>
        <time>2021-08-21T07:22:43.006Z</time>
      </trkpt>
      <trkpt lat="41.977345" lon="2.87492833">
        <ele>297.0</ele>
        <time>2021-08-21T07:22:44.012Z</time>
      </trkpt>
      <trkpt lat="41.97726" lon="2.87490833">
        <ele>298.0</ele>
        <time>2021-08-21T07:22:45.022Z</time>
      </trkpt>
      <trkpt lat="41.97726" lon="2.87490833">
        <ele>298.0</ele>
        <time>2021-08-21T07:22:46.028Z</time>
      </trkpt>
      <trkpt lat="41.97718" lon="2.87486667">
        <ele>298.0</ele>
        <time>2021-08-21T07:22:47.011Z</time>
      </trkpt>
      <trkpt lat="41.97718" lon="2.87486667">
        <ele>298.0</ele>
        <time>2021-08-21T07:22:48.016Z</time>
      </trkpt>
      <trkpt lat="41.977105" lon="2.87480667">
        <ele>298.0</ele>
        <time>2021-08-21T07:22:48.998Z</time>
      </trkpt>
      <trkpt lat="41.977105" lon="2.87480667">
        <ele>298.0</ele>
        <time>2021-08-21T07:22:50.004Z</time>
      </trkpt>
      <trkpt lat="41.97702833" lon="2.874745">
        <ele>298.0</ele>
        <time>2021-08-21T07:22:50.992Z</time>
      </trkpt>
      <trkpt lat="41.97702833" lon="2.874745">
        <ele>298.0</ele>
        <time>2021-08-21T07:22:51.997Z</time>
      </trkpt>
      <trkpt lat="41.97695167" lon="2.87468167">
        <ele>298.0</ele>
        <time>2021-08-21T07:22:53.014Z</time>
      </trkpt>
      <trkpt lat="41.97695167" lon="2.87468167">
        <ele>298.0</ele>
        <time>2021-08-21T07:22:54.021Z</time>
      </trkpt>
      <trkpt lat="41.976875" lon="2.87462333">
        <ele>297.0</ele>
        <time>2021-08-21T07:22:55.001Z</time>
      </trkpt>
      <trkpt lat="41.97683667" lon="2.87459833">
        <ele>297.0</ele>
        <time>2021-08-21T07:22:56.023Z</time>
      </trkpt>
      <trkpt lat="41.97679833" lon="2.87457">
        <ele>297.0</ele>
        <time>2021-08-21T07:22:57.001Z</time>
      </trkpt>
      <trkpt lat="41.97679833" lon="2.87457">
        <ele>297.0</ele>
        <time>2021-08-21T07:22:58.006Z</time>
      </trkpt>
      <trkpt lat="41.97671833" lon="2.874525">
        <ele>297.0</ele>
        <time>2021-08-21T07:22:59.022Z</time>
      </trkpt>
      <trkpt lat="41.97671833" lon="2.874525">
        <ele>297.0</ele>
        <time>2021-08-21T07:23:00.027Z</time>
      </trkpt>
      <trkpt lat="41.97664" lon="2.874475">
        <ele>297.0</ele>
        <time>2021-08-21T07:23:01.011Z</time>
      </trkpt>
      <trkpt lat="41.97664" lon="2.874475">
        <ele>297.0</ele>
        <time>2021-08-21T07:23:02.026Z</time>
      </trkpt>
      <trkpt lat="41.97656667" lon="2.87442167">
        <ele>297.0</ele>
        <time>2021-08-21T07:23:03.006Z</time>
      </trkpt>
      <trkpt lat="41.97656667" lon="2.87442167">
        <ele>297.0</ele>
        <time>2021-08-21T07:23:04.012Z</time>
      </trkpt>
      <trkpt lat="41.976495" lon="2.87435833">
        <ele>297.0</ele>
        <time>2021-08-21T07:23:04.996Z</time>
      </trkpt>
      <trkpt lat="41.97646" lon="2.874325">
        <ele>297.0</ele>
        <time>2021-08-21T07:23:06.026Z</time>
      </trkpt>
      <trkpt lat="41.97646" lon="2.874325">
        <ele>297.0</ele>
        <time>2021-08-21T07:23:06.992Z</time>
      </trkpt>
      <trkpt lat="41.97638833" lon="2.87426">
        <ele>297.0</ele>
        <time>2021-08-21T07:23:08.015Z</time>
      </trkpt>
      <trkpt lat="41.97635333" lon="2.87422667">
        <ele>297.0</ele>
        <time>2021-08-21T07:23:08.998Z</time>
      </trkpt>
      <trkpt lat="41.97635333" lon="2.87422667">
        <ele>297.0</ele>
        <time>2021-08-21T07:23:10.003Z</time>
      </trkpt>
      <trkpt lat="41.976285" lon="2.87415667">
        <ele>297.0</ele>
        <time>2021-08-21T07:23:10.994Z</time>
      </trkpt>
      <trkpt lat="41.976285" lon="2.87415667">
        <ele>297.0</ele>
        <time>2021-08-21T07:23:12.000Z</time>
      </trkpt>
      <trkpt lat="41.97621667" lon="2.87408667">
        <ele>297.0</ele>
        <time>2021-08-21T07:23:13.014Z</time>
      </trkpt>
      <trkpt lat="41.97621667" lon="2.87408667">
        <ele>297.0</ele>
        <time>2021-08-21T07:23:14.022Z</time>
      </trkpt>
      <trkpt lat="41.976155" lon="2.874005">
        <ele>296.0</ele>
        <time>2021-08-21T07:23:15.009Z</time>
      </trkpt>
      <trkpt lat="41.976155" lon="2.874005">
        <ele>296.0</ele>
        <time>2021-08-21T07:23:16.014Z</time>
      </trkpt>
      <trkpt lat="41.97609833" lon="2.87391333">
        <ele>295.0</ele>
        <time>2021-08-21T07:23:16.994Z</time>
      </trkpt>
      <trkpt lat="41.97609833" lon="2.87391333">
        <ele>295.0</ele>
        <time>2021-08-21T07:23:17.999Z</time>
      </trkpt>
      <trkpt lat="41.97605833" lon="2.87381333">
        <ele>294.0</ele>
        <time>2021-08-21T07:23:19.021Z</time>
      </trkpt>
      <trkpt lat="41.97604667" lon="2.87376167">
        <ele>294.0</ele>
        <time>2021-08-21T07:23:20.001Z</time>
      </trkpt>
      <trkpt lat="41.97604167" lon="2.87370667">
        <ele>294.0</ele>
        <time>2021-08-21T07:23:21.019Z</time>
      </trkpt>
      <trkpt lat="41.97604167" lon="2.87370667">
        <ele>294.0</ele>
        <time>2021-08-21T07:23:22.024Z</time>
      </trkpt>
      <trkpt lat="41.97604167" lon="2.873595">
        <ele>293.0</ele>
        <time>2021-08-21T07:23:23.007Z</time>
      </trkpt>
      <trkpt lat="41.97604167" lon="2.873595">
        <ele>293.0</ele>
        <time>2021-08-21T07:23:24.012Z</time>
      </trkpt>
      <trkpt lat="41.97606" lon="2.87349">
        <ele>293.0</ele>
        <time>2021-08-21T07:23:25.027Z</time>
      </trkpt>
      <trkpt lat="41.97607667" lon="2.87343833">
        <ele>292.0</ele>
        <time>2021-08-21T07:23:26.006Z</time>
      </trkpt>
      <trkpt lat="41.97607667" lon="2.87343833">
        <ele>292.0</ele>
        <time>2021-08-21T07:23:27.011Z</time>
      </trkpt>
      <trkpt lat="41.97612667" lon="2.87335167">
        <ele>291.0</ele>
        <time>2021-08-21T07:23:27.993Z</time>
      </trkpt>
      <trkpt lat="41.97612667" lon="2.87335167">
        <ele>291.0</ele>
        <time>2021-08-21T07:23:28.999Z</time>
      </trkpt>
      <trkpt lat="41.97618667" lon="2.87328167">
        <ele>290.0</ele>
        <time>2021-08-21T07:23:30.015Z</time>
      </trkpt>
      <trkpt lat="41.97618667" lon="2.87328167">
        <ele>290.0</ele>
        <time>2021-08-21T07:23:31.022Z</time>
      </trkpt>
      <trkpt lat="41.97625167" lon="2.87323667">
        <ele>289.0</ele>
        <time>2021-08-21T07:23:32.009Z</time>
      </trkpt>
      <trkpt lat="41.97628667" lon="2.87321833">
        <ele>289.0</ele>
        <time>2021-08-21T07:23:33.020Z</time>
      </trkpt>
      <trkpt lat="41.97628667" lon="2.87321833">
        <ele>289.0</ele>
        <time>2021-08-21T07:23:34.027Z</time>
      </trkpt>
      <trkpt lat="41.97635667" lon="2.87318833">
        <ele>289.0</ele>
        <time>2021-08-21T07:23:35.000Z</time>
      </trkpt>
      <trkpt lat="41.97635667" lon="2.87318833">
        <ele>289.0</ele>
        <time>2021-08-21T07:23:36.005Z</time>
      </trkpt>
      <trkpt lat="41.976435" lon="2.87317167">
        <ele>289.0</ele>
        <time>2021-08-21T07:23:37.000Z</time>
      </trkpt>
      <trkpt lat="41.976435" lon="2.87317167">
        <ele>289.0</ele>
        <time>2021-08-21T07:23:38.005Z</time>
      </trkpt>
      <trkpt lat="41.976525" lon="2.87318">
        <ele>289.0</ele>
        <time>2021-08-21T07:23:39.024Z</time>
      </trkpt>
      <trkpt lat="41.976525" lon="2.87318">
        <ele>289.0</ele>
        <time>2021-08-21T07:23:40.028Z</time>
      </trkpt>
      <trkpt lat="41.97661167" lon="2.873215">
        <ele>288.0</ele>
        <time>2021-08-21T07:23:41.000Z</time>
      </trkpt>
      <trkpt lat="41.97661167" lon="2.873215">
        <ele>288.0</ele>
        <time>2021-08-21T07:23:42.006Z</time>
      </trkpt>
      <trkpt lat="41.97669" lon="2.873275">
        <ele>288.0</ele>
        <time>2021-08-21T07:23:43.031Z</time>
      </trkpt>
      <trkpt lat="41.97669" lon="2.873275">
        <ele>288.0</ele>
        <time>2021-08-21T07:23:44.010Z</time>
      </trkpt>
      <trkpt lat="41.97675833" lon="2.87335833">
        <ele>288.0</ele>
        <time>2021-08-21T07:23:44.995Z</time>
      </trkpt>
      <trkpt lat="41.97675833" lon="2.87335833">
        <ele>288.0</ele>
        <time>2021-08-21T07:23:46.000Z</time>
      </trkpt>
      <trkpt lat="41.97682" lon="2.87345333">
        <ele>288.0</ele>
        <time>2021-08-21T07:23:47.029Z</time>
      </trkpt>
      <trkpt lat="41.97684833" lon="2.87350333">
        <ele>288.0</ele>
        <time>2021-08-21T07:23:48.004Z</time>
      </trkpt>
      <trkpt lat="41.97684833" lon="2.87350333">
        <ele>288.0</ele>
        <time>2021-08-21T07:23:49.009Z</time>
      </trkpt>
      <trkpt lat="41.97690833" lon="2.87360333">
        <ele>287.0</ele>
        <time>2021-08-21T07:23:49.996Z</time>
      </trkpt>
      <trkpt lat="41.976935" lon="2.87364667">
        <ele>287.0</ele>
        <time>2021-08-21T07:23:51.020Z</time>
      </trkpt>
      <trkpt lat="41.976935" lon="2.87364667">
        <ele>287.0</ele>
        <time>2021-08-21T07:23:52.026Z</time>
      </trkpt>
      <trkpt lat="41.97699833" lon="2.87373333">
        <ele>287.0</ele>
        <time>2021-08-21T07:23:53.003Z</time>
      </trkpt>
      <trkpt lat="41.97699833" lon="2.87373333">
        <ele>287.0</ele>
        <time>2021-08-21T07:23:54.008Z</time>
      </trkpt>
      <trkpt lat="41.977075" lon="2.87379333">
        <ele>287.0</ele>
        <time>2021-08-21T07:23:55.006Z</time>
      </trkpt>
      <trkpt lat="41.977075" lon="2.87379333">
        <ele>287.0</ele>
        <time>2021-08-21T07:23:56.012Z</time>
      </trkpt>
      <trkpt lat="41.97716833" lon="2.87382">
        <ele>286.0</ele>
        <time>2021-08-21T07:23:57.030Z</time>
      </trkpt>
      <trkpt lat="41.97716833" lon="2.87382">
        <ele>286.0</ele>
        <time>2021-08-21T07:23:57.995Z</time>
      </trkpt>
      <trkpt lat="41.97726833" lon="2.87383667">
        <ele>286.0</ele>
        <time>2021-08-21T07:23:59.013Z</time>
      </trkpt>
      <trkpt lat="41.97731833" lon="2.87383833">
        <ele>286.0</ele>
        <time>2021-08-21T07:24:00.025Z</time>
      </trkpt>
      <trkpt lat="41.97731833" lon="2.87383833">
        <ele>286.0</ele>
        <time>2021-08-21T07:24:01.030Z</time>
      </trkpt>
      <trkpt lat="41.97742833" lon="2.87381667">
        <ele>286.0</ele>
        <time>2021-08-21T07:24:02.025Z</time>
      </trkpt>
      <trkpt lat="41.97747833" lon="2.87379">
        <ele>286.0</ele>
        <time>2021-08-21T07:24:03.005Z</time>
      </trkpt>
      <trkpt lat="41.97747833" lon="2.87379">
        <ele>286.0</ele>
        <time>2021-08-21T07:24:04.010Z</time>
      </trkpt>
      <trkpt lat="41.97752667" lon="2.87368167">
        <ele>286.0</ele>
        <time>2021-08-21T07:24:04.993Z</time>
      </trkpt>
      <trkpt lat="41.97753833" lon="2.87362">
        <ele>286.0</ele>
        <time>2021-08-21T07:24:06.001Z</time>
      </trkpt>
      <trkpt lat="41.97753833" lon="2.87362">
        <ele>286.0</ele>
        <time>2021-08-21T07:24:07.007Z</time>
      </trkpt>
      <trkpt lat="41.977565" lon="2.8735">
        <ele>286.0</ele>
        <time>2021-08-21T07:24:08.027Z</time>
      </trkpt>
      <trkpt lat="41.97758333" lon="2.87344333">
        <ele>286.0</ele>
        <time>2021-08-21T07:24:09.007Z</time>
      </trkpt>
      <trkpt lat="41.97758333" lon="2.87344333">
        <ele>286.0</ele>
        <time>2021-08-21T07:24:10.013Z</time>
      </trkpt>
      <trkpt lat="41.97763667" lon="2.87334833">
        <ele>287.0</ele>
        <time>2021-08-21T07:24:11.029Z</time>
      </trkpt>
      <trkpt lat="41.97767333" lon="2.87333167">
        <ele>287.0</ele>
        <time>2021-08-21T07:24:12.015Z</time>
      </trkpt>
      <trkpt lat="41.97767333" lon="2.87333167">
        <ele>287.0</ele>
        <time>2021-08-21T07:24:13.022Z</time>
      </trkpt>
      <trkpt lat="41.977745" lon="2.873325">
        <ele>287.0</ele>
        <time>2021-08-21T07:24:13.997Z</time>
      </trkpt>
      <trkpt lat="41.97778" lon="2.873335">
        <ele>287.0</ele>
        <time>2021-08-21T07:24:15.025Z</time>
      </trkpt>
      <trkpt lat="41.97778" lon="2.873335">
        <ele>287.0</ele>
        <time>2021-08-21T07:24:16.031Z</time>
      </trkpt>
      <trkpt lat="41.97785167" lon="2.87336833">
        <ele>288.0</ele>
        <time>2021-08-21T07:24:17.011Z</time>
      </trkpt>
      <trkpt lat="41.977885" lon="2.87338833">
        <ele>288.0</ele>
        <time>2021-08-21T07:24:18.030Z</time>
      </trkpt>
      <trkpt lat="41.97791667" lon="2.87341167">
        <ele>288.0</ele>
        <time>2021-08-21T07:24:19.013Z</time>
      </trkpt>
      <trkpt lat="41.97795" lon="2.87343833">
        <ele>288.0</ele>
        <time>2021-08-21T07:24:19.999Z</time>
      </trkpt>
      <trkpt lat="41.97795" lon="2.87343833">
        <ele>288.0</ele>
        <time>2021-08-21T07:24:21.005Z</time>
      </trkpt>
      <trkpt lat="41.978015" lon="2.87349">
        <ele>288.0</ele>
        <time>2021-08-21T07:24:22.022Z</time>
      </trkpt>
      <trkpt lat="41.97804667" lon="2.873515">
        <ele>288.0</ele>
        <time>2021-08-21T07:24:23.004Z</time>
      </trkpt>
      <trkpt lat="41.97804667" lon="2.873515">
        <ele>288.0</ele>
        <time>2021-08-21T07:24:24.010Z</time>
      </trkpt>
      <trkpt lat="41.97811333" lon="2.873555">
        <ele>289.0</ele>
        <time>2021-08-21T07:24:25.027Z</time>
      </trkpt>
      <trkpt lat="41.97815" lon="2.873565">
        <ele>289.0</ele>
        <time>2021-08-21T07:24:26.006Z</time>
      </trkpt>
      <trkpt lat="41.97815" lon="2.873565">
        <ele>289.0</ele>
        <time>2021-08-21T07:24:27.011Z</time>
      </trkpt>
      <trkpt lat="41.978225" lon="2.87355667">
        <ele>290.0</ele>
        <time>2021-08-21T07:24:27.994Z</time>
      </trkpt>
      <trkpt lat="41.978225" lon="2.87355667">
        <ele>290.0</ele>
        <time>2021-08-21T07:24:28.999Z</time>
      </trkpt>
      <trkpt lat="41.9783" lon="2.873525">
        <ele>290.0</ele>
        <time>2021-08-21T07:24:30.026Z</time>
      </trkpt>
      <trkpt lat="41.9783" lon="2.873525">
        <ele>290.0</ele>
        <time>2021-08-21T07:24:31.031Z</time>
      </trkpt>
      <trkpt lat="41.97837333" lon="2.873465">
        <ele>290.0</ele>
        <time>2021-08-21T07:24:32.011Z</time>
      </trkpt>
      <trkpt lat="41.97841667" lon="2.873425">
        <ele>291.0</ele>
        <time>2021-08-21T07:24:33.004Z</time>
      </trkpt>
      <trkpt lat="41.97841667" lon="2.873425">
        <ele>291.0</ele>
        <time>2021-08-21T07:24:34.009Z</time>
      </trkpt>
      <trkpt lat="41.97848667" lon="2.87334167">
        <ele>291.0</ele>
        <time>2021-08-21T07:24:35.030Z</time>
      </trkpt>
      <trkpt lat="41.97851833" lon="2.87330167">
        <ele>291.0</ele>
        <time>2021-08-21T07:24:36.011Z</time>
      </trkpt>
      <trkpt lat="41.97851833" lon="2.87330167">
        <ele>291.0</ele>
        <time>2021-08-21T07:24:37.017Z</time>
      </trkpt>
      <trkpt lat="41.97858833" lon="2.87325833">
        <ele>292.0</ele>
        <time>2021-08-21T07:24:37.994Z</time>
      </trkpt>
      <trkpt lat="41.978625" lon="2.87324833">
        <ele>292.0</ele>
        <time>2021-08-21T07:24:39.019Z</time>
      </trkpt>
      <trkpt lat="41.978625" lon="2.87324833">
        <ele>292.0</ele>
        <time>2021-08-21T07:24:40.026Z</time>
      </trkpt>
      <trkpt lat="41.97869" lon="2.87326">
        <ele>291.0</ele>
        <time>2021-08-21T07:24:41.008Z</time>
      </trkpt>
      <trkpt lat="41.97869" lon="2.87326">
        <ele>291.0</ele>
        <time>2021-08-21T07:24:42.014Z</time>
      </trkpt>
      <trkpt lat="41.97875333" lon="2.87328667">
        <ele>291.0</ele>
        <time>2021-08-21T07:24:43.028Z</time>
      </trkpt>
      <trkpt lat="41.97875333" lon="2.87328667">
        <ele>291.0</ele>
        <time>2021-08-21T07:24:43.993Z</time>
      </trkpt>
      <trkpt lat="41.97882667" lon="2.87332">
        <ele>291.0</ele>
        <time>2021-08-21T07:24:45.027Z</time>
      </trkpt>
      <trkpt lat="41.97882667" lon="2.87332">
        <ele>291.0</ele>
        <time>2021-08-21T07:24:45.993Z</time>
      </trkpt>
      <trkpt lat="41.97890833" lon="2.87331833">
        <ele>291.0</ele>
        <time>2021-08-21T07:24:47.015Z</time>
      </trkpt>
      <trkpt lat="41.97890833" lon="2.87331833">
        <ele>291.0</ele>
        <time>2021-08-21T07:24:48.020Z</time>
      </trkpt>
      <trkpt lat="41.97898833" lon="2.873275">
        <ele>291.0</ele>
        <time>2021-08-21T07:24:49.030Z</time>
      </trkpt>
      <trkpt lat="41.97898833" lon="2.873275">
        <ele>291.0</ele>
        <time>2021-08-21T07:24:49.995Z</time>
      </trkpt>
      <trkpt lat="41.97905833" lon="2.87323">
        <ele>291.0</ele>
        <time>2021-08-21T07:24:51.007Z</time>
      </trkpt>
      <trkpt lat="41.97905833" lon="2.87323">
        <ele>291.0</ele>
        <time>2021-08-21T07:24:52.012Z</time>
      </trkpt>
      <trkpt lat="41.97912333" lon="2.87318">
        <ele>291.0</ele>
        <time>2021-08-21T07:24:53.030Z</time>
      </trkpt>
      <trkpt lat="41.97915667" lon="2.87317">
        <ele>291.0</ele>
        <time>2021-08-21T07:24:54.009Z</time>
      </trkpt>
      <trkpt lat="41.97915667" lon="2.87317">
        <ele>291.0</ele>
        <time>2021-08-21T07:24:55.014Z</time>
      </trkpt>
      <trkpt lat="41.979235" lon="2.873175">
        <ele>291.0</ele>
        <time>2021-08-21T07:24:55.994Z</time>
      </trkpt>
      <trkpt lat="41.97927333" lon="2.87319">
        <ele>291.0</ele>
        <time>2021-08-21T07:24:57.020Z</time>
      </trkpt>
      <trkpt lat="41.97927333" lon="2.87319">
        <ele>291.0</ele>
        <time>2021-08-21T07:24:58.026Z</time>
      </trkpt>
      <trkpt lat="41.97934667" lon="2.87324167">
        <ele>291.0</ele>
        <time>2021-08-21T07:24:59.003Z</time>
      </trkpt>
      <trkpt lat="41.97934667" lon="2.87324167">
        <ele>291.0</ele>
        <time>2021-08-21T07:25:00.008Z</time>
      </trkpt>
      <trkpt lat="41.97941333" lon="2.87331833">
        <ele>291.0</ele>
        <time>2021-08-21T07:25:01.024Z</time>
      </trkpt>
      <trkpt lat="41.97944333" lon="2.87336333">
        <ele>292.0</ele>
        <time>2021-08-21T07:25:02.028Z</time>
      </trkpt>
      <trkpt lat="41.97944333" lon="2.87336333">
        <ele>292.0</ele>
        <time>2021-08-21T07:25:02.995Z</time>
      </trkpt>
      <trkpt lat="41.97950667" lon="2.87346">
        <ele>291.0</ele>
        <time>2021-08-21T07:25:03.999Z</time>
      </trkpt>
      <trkpt lat="41.979545" lon="2.8735">
        <ele>291.0</ele>
        <time>2021-08-21T07:25:05.019Z</time>
      </trkpt>
      <trkpt lat="41.979545" lon="2.8735">
        <ele>291.0</ele>
        <time>2021-08-21T07:25:06.025Z</time>
      </trkpt>
      <trkpt lat="41.97963" lon="2.873495">
        <ele>291.0</ele>
        <time>2021-08-21T07:25:07.003Z</time>
      </trkpt>
      <trkpt lat="41.97963" lon="2.873495">
        <ele>291.0</ele>
        <time>2021-08-21T07:25:08.008Z</time>
      </trkpt>
      <trkpt lat="41.97970667" lon="2.873405">
        <ele>291.0</ele>
        <time>2021-08-21T07:25:09.026Z</time>
      </trkpt>
      <trkpt lat="41.97970667" lon="2.873405">
        <ele>291.0</ele>
        <time>2021-08-21T07:25:10.031Z</time>
      </trkpt>
      <trkpt lat="41.97974333" lon="2.87327833">
        <ele>291.0</ele>
        <time>2021-08-21T07:25:11.008Z</time>
      </trkpt>
      <trkpt lat="41.97975167" lon="2.87321333">
        <ele>291.0</ele>
        <time>2021-08-21T07:25:12.026Z</time>
      </trkpt>
      <trkpt lat="41.97975167" lon="2.87321333">
        <ele>291.0</ele>
        <time>2021-08-21T07:25:12.992Z</time>
      </trkpt>
      <trkpt lat="41.97975167" lon="2.873065">
        <ele>291.0</ele>
        <time>2021-08-21T07:25:14.013Z</time>
      </trkpt>
      <trkpt lat="41.97975167" lon="2.87299333">
        <ele>291.0</ele>
        <time>2021-08-21T07:25:14.996Z</time>
      </trkpt>
      <trkpt lat="41.97975167" lon="2.87299333">
        <ele>291.0</ele>
        <time>2021-08-21T07:25:16.001Z</time>
      </trkpt>
      <trkpt lat="41.979755" lon="2.87285333">
        <ele>292.0</ele>
        <time>2021-08-21T07:25:17.025Z</time>
      </trkpt>
      <trkpt lat="41.979755" lon="2.87285333">
        <ele>292.0</ele>
        <time>2021-08-21T07:25:18.031Z</time>
      </trkpt>
      <trkpt lat="41.97980167" lon="2.87274333">
        <ele>292.0</ele>
        <time>2021-08-21T07:25:19.015Z</time>
      </trkpt>
      <trkpt lat="41.97984" lon="2.87271667">
        <ele>292.0</ele>
        <time>2021-08-21T07:25:20.004Z</time>
      </trkpt>
      <trkpt lat="41.97984" lon="2.87271667">
        <ele>292.0</ele>
        <time>2021-08-21T07:25:21.010Z</time>
      </trkpt>
      <trkpt lat="41.97992333" lon="2.87271">
        <ele>292.0</ele>
        <time>2021-08-21T07:25:22.030Z</time>
      </trkpt>
      <trkpt lat="41.97997" lon="2.872705">
        <ele>292.0</ele>
        <time>2021-08-21T07:25:23.012Z</time>
      </trkpt>
      <trkpt lat="41.97997" lon="2.872705">
        <ele>292.0</ele>
        <time>2021-08-21T07:25:24.017Z</time>
      </trkpt>
      <trkpt lat="41.98005167" lon="2.87265833">
        <ele>292.0</ele>
        <time>2021-08-21T07:25:25.004Z</time>
      </trkpt>
      <trkpt lat="41.98006333" lon="2.872615">
        <ele>292.0</ele>
        <time>2021-08-21T07:25:26.030Z</time>
      </trkpt>
      <trkpt lat="41.98006667" lon="2.872575">
        <ele>293.0</ele>
        <time>2021-08-21T07:25:27.015Z</time>
      </trkpt>
      <trkpt lat="41.98006667" lon="2.872575">
        <ele>293.0</ele>
        <time>2021-08-21T07:25:28.021Z</time>
      </trkpt>
      <trkpt lat="41.98005333" lon="2.87246833">
        <ele>293.0</ele>
        <time>2021-08-21T07:25:29.003Z</time>
      </trkpt>
      <trkpt lat="41.98005333" lon="2.87246833">
        <ele>293.0</ele>
        <time>2021-08-21T07:25:30.008Z</time>
      </trkpt>
      <trkpt lat="41.980025" lon="2.87233167">
        <ele>294.0</ele>
        <time>2021-08-21T07:25:31.027Z</time>
      </trkpt>
      <trkpt lat="41.980025" lon="2.87233167">
        <ele>294.0</ele>
        <time>2021-08-21T07:25:31.992Z</time>
      </trkpt>
      <trkpt lat="41.98000667" lon="2.87218">
        <ele>294.0</ele>
        <time>2021-08-21T07:25:33.015Z</time>
      </trkpt>
      <trkpt lat="41.98000667" lon="2.87218">
        <ele>294.0</ele>
        <time>2021-08-21T07:25:34.021Z</time>
      </trkpt>
      <trkpt lat="41.98000167" lon="2.87203333">
        <ele>294.0</ele>
        <time>2021-08-21T07:25:35.008Z</time>
      </trkpt>
      <trkpt lat="41.979995" lon="2.87195833">
        <ele>295.0</ele>
        <time>2021-08-21T07:25:36.018Z</time>
      </trkpt>
      <trkpt lat="41.979995" lon="2.871885">
        <ele>295.0</ele>
        <time>2021-08-21T07:25:36.997Z</time>
      </trkpt>
      <trkpt lat="41.979995" lon="2.871885">
        <ele>295.0</ele>
        <time>2021-08-21T07:25:38.002Z</time>
      </trkpt>
      <trkpt lat="41.97996833" lon="2.87173833">
        <ele>295.0</ele>
        <time>2021-08-21T07:25:39.019Z</time>
      </trkpt>
      <trkpt lat="41.97996833" lon="2.87173833">
        <ele>295.0</ele>
        <time>2021-08-21T07:25:40.024Z</time>
      </trkpt>
      <trkpt lat="41.97993833" lon="2.87159333">
        <ele>295.0</ele>
        <time>2021-08-21T07:25:41.004Z</time>
      </trkpt>
      <trkpt lat="41.97993833" lon="2.87159333">
        <ele>295.0</ele>
        <time>2021-08-21T07:25:42.009Z</time>
      </trkpt>
      <trkpt lat="41.979925" lon="2.87144667">
        <ele>296.0</ele>
        <time>2021-08-21T07:25:43.030Z</time>
      </trkpt>
      <trkpt lat="41.979925" lon="2.87144667">
        <ele>296.0</ele>
        <time>2021-08-21T07:25:43.996Z</time>
      </trkpt>
      <trkpt lat="41.97996667" lon="2.87130333">
        <ele>296.0</ele>
        <time>2021-08-21T07:25:45.018Z</time>
      </trkpt>
      <trkpt lat="41.97996667" lon="2.87130333">
        <ele>296.0</ele>
        <time>2021-08-21T07:25:46.027Z</time>
      </trkpt>
      <trkpt lat="41.980045" lon="2.87119333">
        <ele>296.0</ele>
        <time>2021-08-21T07:25:47.001Z</time>
      </trkpt>
      <trkpt lat="41.980045" lon="2.87119333">
        <ele>296.0</ele>
        <time>2021-08-21T07:25:48.007Z</time>
      </trkpt>
      <trkpt lat="41.98013833" lon="2.87111">
        <ele>295.0</ele>
        <time>2021-08-21T07:25:48.992Z</time>
      </trkpt>
      <trkpt lat="41.98013833" lon="2.87111">
        <ele>295.0</ele>
        <time>2021-08-21T07:25:49.997Z</time>
      </trkpt>
      <trkpt lat="41.980235" lon="2.87103">
        <ele>295.0</ele>
        <time>2021-08-21T07:25:51.023Z</time>
      </trkpt>
      <trkpt lat="41.980285" lon="2.87099">
        <ele>295.0</ele>
        <time>2021-08-21T07:25:52.015Z</time>
      </trkpt>
      <trkpt lat="41.980285" lon="2.87099">
        <ele>295.0</ele>
        <time>2021-08-21T07:25:53.020Z</time>
      </trkpt>
      <trkpt lat="41.98039167" lon="2.870915">
        <ele>294.0</ele>
        <time>2021-08-21T07:25:53.997Z</time>
      </trkpt>
      <trkpt lat="41.98039167" lon="2.870915">
        <ele>294.0</ele>
        <time>2021-08-21T07:25:55.003Z</time>
      </trkpt>
      <trkpt lat="41.98050333" lon="2.87086667">
        <ele>294.0</ele>
        <time>2021-08-21T07:25:56.016Z</time>
      </trkpt>
      <trkpt lat="41.98056" lon="2.87084667">
        <ele>294.0</ele>
        <time>2021-08-21T07:25:56.999Z</time>
      </trkpt>
      <trkpt lat="41.98056" lon="2.87084667">
        <ele>294.0</ele>
        <time>2021-08-21T07:25:58.005Z</time>
      </trkpt>
      <trkpt lat="41.98067833" lon="2.87082">
        <ele>294.0</ele>
        <time>2021-08-21T07:25:59.025Z</time>
      </trkpt>
      <trkpt lat="41.98073833" lon="2.87081333">
        <ele>294.0</ele>
        <time>2021-08-21T07:26:00.005Z</time>
      </trkpt>
      <trkpt lat="41.98073833" lon="2.87081333">
        <ele>294.0</ele>
        <time>2021-08-21T07:26:01.011Z</time>
      </trkpt>
      <trkpt lat="41.98085667" lon="2.87080833">
        <ele>293.0</ele>
        <time>2021-08-21T07:26:02.011Z</time>
      </trkpt>
      <trkpt lat="41.98091333" lon="2.87083">
        <ele>293.0</ele>
        <time>2021-08-21T07:26:03.008Z</time>
      </trkpt>
      <trkpt lat="41.98091333" lon="2.87083">
        <ele>293.0</ele>
        <time>2021-08-21T07:26:04.014Z</time>
      </trkpt>
      <trkpt lat="41.98101833" lon="2.87089">
        <ele>293.0</ele>
        <time>2021-08-21T07:26:04.995Z</time>
      </trkpt>
      <trkpt lat="41.98101833" lon="2.87089">
        <ele>293.0</ele>
        <time>2021-08-21T07:26:06.000Z</time>
      </trkpt>
      <trkpt lat="41.98113333" lon="2.870895">
        <ele>293.0</ele>
        <time>2021-08-21T07:26:07.023Z</time>
      </trkpt>
      <trkpt lat="41.98118833" lon="2.87087">
        <ele>293.0</ele>
        <time>2021-08-21T07:26:07.999Z</time>
      </trkpt>
      <trkpt lat="41.98124167" lon="2.870835">
        <ele>293.0</ele>
        <time>2021-08-21T07:26:09.021Z</time>
      </trkpt>
      <trkpt lat="41.98124167" lon="2.870835">
        <ele>293.0</ele>
        <time>2021-08-21T07:26:10.027Z</time>
      </trkpt>
      <trkpt lat="41.98135333" lon="2.87076667">
        <ele>293.0</ele>
        <time>2021-08-21T07:26:11.007Z</time>
      </trkpt>
      <trkpt lat="41.98135333" lon="2.87076667">
        <ele>293.0</ele>
        <time>2021-08-21T07:26:12.012Z</time>
      </trkpt>
      <trkpt lat="41.981475" lon="2.87070833">
        <ele>293.0</ele>
        <time>2021-08-21T07:26:13.003Z</time>
      </trkpt>
      <trkpt lat="41.98154167" lon="2.87067667">
        <ele>293.0</ele>
        <time>2021-08-21T07:26:14.017Z</time>
      </trkpt>
      <trkpt lat="41.98154167" lon="2.87067667">
        <ele>293.0</ele>
        <time>2021-08-21T07:26:15.022Z</time>
      </trkpt>
      <trkpt lat="41.98165667" lon="2.87059167">
        <ele>293.0</ele>
        <time>2021-08-21T07:26:16.001Z</time>
      </trkpt>
      <trkpt lat="41.98165667" lon="2.87059167">
        <ele>293.0</ele>
        <time>2021-08-21T07:26:17.000Z</time>
      </trkpt>
      <trkpt lat="41.98176667" lon="2.87050667">
        <ele>293.0</ele>
        <time>2021-08-21T07:26:18.022Z</time>
      </trkpt>
      <trkpt lat="41.98182" lon="2.870465">
        <ele>293.0</ele>
        <time>2021-08-21T07:26:19.001Z</time>
      </trkpt>
      <trkpt lat="41.981875" lon="2.87043">
        <ele>293.0</ele>
        <time>2021-08-21T07:26:19.995Z</time>
      </trkpt>
      <trkpt lat="41.981875" lon="2.87043">
        <ele>293.0</ele>
        <time>2021-08-21T07:26:21.000Z</time>
      </trkpt>
      <trkpt lat="41.98196667" lon="2.87034833">
        <ele>293.0</ele>
        <time>2021-08-21T07:26:22.018Z</time>
      </trkpt>
      <trkpt lat="41.98198333" lon="2.87029333">
        <ele>293.0</ele>
        <time>2021-08-21T07:26:23.000Z</time>
      </trkpt>
      <trkpt lat="41.98198333" lon="2.87029333">
        <ele>293.0</ele>
        <time>2021-08-21T07:26:24.006Z</time>
      </trkpt>
      <trkpt lat="41.981955" lon="2.8702">
        <ele>294.0</ele>
        <time>2021-08-21T07:26:25.020Z</time>
      </trkpt>
      <trkpt lat="41.981955" lon="2.8702">
        <ele>294.0</ele>
        <time>2021-08-21T07:26:26.029Z</time>
      </trkpt>
      <trkpt lat="41.98187833" lon="2.87019167">
        <ele>294.0</ele>
        <time>2021-08-21T07:26:27.008Z</time>
      </trkpt>
      <trkpt lat="41.98187833" lon="2.87019167">
        <ele>294.0</ele>
        <time>2021-08-21T07:26:28.015Z</time>
      </trkpt>
      <trkpt lat="41.98178667" lon="2.87021167">
        <ele>294.0</ele>
        <time>2021-08-21T07:26:28.992Z</time>
      </trkpt>
      <trkpt lat="41.98178667" lon="2.87021167">
        <ele>294.0</ele>
        <time>2021-08-21T07:26:29.998Z</time>
      </trkpt>
      <trkpt lat="41.98168833" lon="2.87024833">
        <ele>294.0</ele>
        <time>2021-08-21T07:26:31.024Z</time>
      </trkpt>
      <trkpt lat="41.98163167" lon="2.87027">
        <ele>294.0</ele>
        <time>2021-08-21T07:26:32.018Z</time>
      </trkpt>
      <trkpt lat="41.98163167" lon="2.87027">
        <ele>294.0</ele>
        <time>2021-08-21T07:26:33.024Z</time>
      </trkpt>
      <trkpt lat="41.98150833" lon="2.87030833">
        <ele>293.0</ele>
        <time>2021-08-21T07:26:34.000Z</time>
      </trkpt>
      <trkpt lat="41.98150833" lon="2.87030833">
        <ele>293.0</ele>
        <time>2021-08-21T07:26:35.005Z</time>
      </trkpt>
      <trkpt lat="41.98138833" lon="2.87031">
        <ele>293.0</ele>
        <time>2021-08-21T07:26:35.993Z</time>
      </trkpt>
      <trkpt lat="41.98138833" lon="2.87031">
        <ele>293.0</ele>
        <time>2021-08-21T07:26:36.998Z</time>
      </trkpt>
      <trkpt lat="41.98126167" lon="2.87027833">
        <ele>293.0</ele>
        <time>2021-08-21T07:26:38.027Z</time>
      </trkpt>
      <trkpt lat="41.98120167" lon="2.87023833">
        <ele>293.0</ele>
        <time>2021-08-21T07:26:39.010Z</time>
      </trkpt>
      <trkpt lat="41.98120167" lon="2.87023833">
        <ele>293.0</ele>
        <time>2021-08-21T07:26:40.015Z</time>
      </trkpt>
      <trkpt lat="41.98108667" lon="2.87015333">
        <ele>293.0</ele>
        <time>2021-08-21T07:26:41.031Z</time>
      </trkpt>
      <trkpt lat="41.981035" lon="2.8701">
        <ele>292.0</ele>
        <time>2021-08-21T07:26:42.016Z</time>
      </trkpt>
      <trkpt lat="41.981035" lon="2.8701">
        <ele>292.0</ele>
        <time>2021-08-21T07:26:43.021Z</time>
      </trkpt>
      <trkpt lat="41.98096333" lon="2.869975">
        <ele>292.0</ele>
        <time>2021-08-21T07:26:44.005Z</time>
      </trkpt>
      <trkpt lat="41.98092833" lon="2.86991">
        <ele>292.0</ele>
        <time>2021-08-21T07:26:44.996Z</time>
      </trkpt>
      <trkpt lat="41.98092833" lon="2.86991">
        <ele>292.0</ele>
        <time>2021-08-21T07:26:46.001Z</time>
      </trkpt>
      <trkpt lat="41.98087333" lon="2.86979833">
        <ele>292.0</ele>
        <time>2021-08-21T07:26:47.018Z</time>
      </trkpt>
      <trkpt lat="41.98087333" lon="2.86979833">
        <ele>292.0</ele>
        <time>2021-08-21T07:26:48.024Z</time>
      </trkpt>
      <trkpt lat="41.98087667" lon="2.869715">
        <ele>292.0</ele>
        <time>2021-08-21T07:26:49.002Z</time>
      </trkpt>
      <trkpt lat="41.98087667" lon="2.869715">
        <ele>292.0</ele>
        <time>2021-08-21T07:26:50.007Z</time>
      </trkpt>
      <trkpt lat="41.98090667" lon="2.86964333">
        <ele>292.0</ele>
        <time>2021-08-21T07:26:51.025Z</time>
      </trkpt>
      <trkpt lat="41.98090667" lon="2.86964333">
        <ele>292.0</ele>
        <time>2021-08-21T07:26:52.031Z</time>
      </trkpt>
      <trkpt lat="41.980955" lon="2.86961">
        <ele>292.0</ele>
        <time>2021-08-21T07:26:53.013Z</time>
      </trkpt>
      <trkpt lat="41.980955" lon="2.86961">
        <ele>292.0</ele>
        <time>2021-08-21T07:26:54.018Z</time>
      </trkpt>
      <trkpt lat="41.98100667" lon="2.86965">
        <ele>292.0</ele>
        <time>2021-08-21T07:26:54.992Z</time>
      </trkpt>
      <trkpt lat="41.98100667" lon="2.86965">
        <ele>292.0</ele>
        <time>2021-08-21T07:26:55.997Z</time>
      </trkpt>
      <trkpt lat="41.98102667" lon="2.86974667">
        <ele>292.0</ele>
        <time>2021-08-21T07:26:57.021Z</time>
      </trkpt>
      <trkpt lat="41.98102667" lon="2.86974667">
        <ele>292.0</ele>
        <time>2021-08-21T07:26:57.995Z</time>
      </trkpt>
      <trkpt lat="41.98104" lon="2.869855">
        <ele>292.0</ele>
        <time>2021-08-21T07:26:59.005Z</time>
      </trkpt>
      <trkpt lat="41.98104" lon="2.869855">
        <ele>292.0</ele>
        <time>2021-08-21T07:27:00.009Z</time>
      </trkpt>
      <trkpt lat="41.98107" lon="2.86995333">
        <ele>292.0</ele>
        <time>2021-08-21T07:27:01.032Z</time>
      </trkpt>
      <trkpt lat="41.98107" lon="2.86995333">
        <ele>292.0</ele>
        <time>2021-08-21T07:27:02.008Z</time>
      </trkpt>
      <trkpt lat="41.981125" lon="2.87001833">
        <ele>292.0</ele>
        <time>2021-08-21T07:27:02.992Z</time>
      </trkpt>
      <trkpt lat="41.981125" lon="2.87001833">
        <ele>292.0</ele>
        <time>2021-08-21T07:27:03.997Z</time>
      </trkpt>
      <trkpt lat="41.98119" lon="2.87005833">
        <ele>292.0</ele>
        <time>2021-08-21T07:27:05.005Z</time>
      </trkpt>
      <trkpt lat="41.98119" lon="2.87005833">
        <ele>292.0</ele>
        <time>2021-08-21T07:27:06.010Z</time>
      </trkpt>
      <trkpt lat="41.981255" lon="2.87008333">
        <ele>292.0</ele>
        <time>2021-08-21T07:27:07.027Z</time>
      </trkpt>
      <trkpt lat="41.981255" lon="2.87008333">
        <ele>292.0</ele>
        <time>2021-08-21T07:27:07.993Z</time>
      </trkpt>
      <trkpt lat="41.981325" lon="2.870085">
        <ele>293.0</ele>
        <time>2021-08-21T07:27:09.011Z</time>
      </trkpt>
      <trkpt lat="41.981325" lon="2.870085">
        <ele>293.0</ele>
        <time>2021-08-21T07:27:10.015Z</time>
      </trkpt>
      <trkpt lat="41.981385" lon="2.87009667">
        <ele>293.0</ele>
        <time>2021-08-21T07:27:10.999Z</time>
      </trkpt>
      <trkpt lat="41.981385" lon="2.87009667">
        <ele>293.0</ele>
        <time>2021-08-21T07:27:12.004Z</time>
      </trkpt>
      <trkpt lat="41.98145667" lon="2.87009833">
        <ele>294.0</ele>
        <time>2021-08-21T07:27:13.024Z</time>
      </trkpt>
      <trkpt lat="41.98145667" lon="2.87009833">
        <ele>294.0</ele>
        <time>2021-08-21T07:27:14.031Z</time>
      </trkpt>
      <trkpt lat="41.98153667" lon="2.8701">
        <ele>294.0</ele>
        <time>2021-08-21T07:27:15.020Z</time>
      </trkpt>
      <trkpt lat="41.98153667" lon="2.8701">
        <ele>294.0</ele>
        <time>2021-08-21T07:27:16.028Z</time>
      </trkpt>
      <trkpt lat="41.98161167" lon="2.87009667">
        <ele>295.0</ele>
        <time>2021-08-21T07:27:17.001Z</time>
      </trkpt>
      <trkpt lat="41.98161167" lon="2.87009667">
        <ele>295.0</ele>
        <time>2021-08-21T07:27:18.007Z</time>
      </trkpt>
      <trkpt lat="41.98167667" lon="2.87010333">
        <ele>297.0</ele>
        <time>2021-08-21T07:27:19.025Z</time>
      </trkpt>
      <trkpt lat="41.98171167" lon="2.87009333">
        <ele>298.0</ele>
        <time>2021-08-21T07:27:20.004Z</time>
      </trkpt>
      <trkpt lat="41.98171167" lon="2.87009333">
        <ele>298.0</ele>
        <time>2021-08-21T07:27:21.010Z</time>
      </trkpt>
      <trkpt lat="41.98178833" lon="2.87007333">
        <ele>299.0</ele>
        <time>2021-08-21T07:27:22.021Z</time>
      </trkpt>
      <trkpt lat="41.98178833" lon="2.87007333">
        <ele>299.0</ele>
        <time>2021-08-21T07:27:23.027Z</time>
      </trkpt>
      <trkpt lat="41.98186667" lon="2.870055">
        <ele>300.0</ele>
        <time>2021-08-21T07:27:24.009Z</time>
      </trkpt>
      <trkpt lat="41.98186667" lon="2.870055">
        <ele>300.0</ele>
        <time>2021-08-21T07:27:25.014Z</time>
      </trkpt>
      <trkpt lat="41.981935" lon="2.87002">
        <ele>302.0</ele>
        <time>2021-08-21T07:27:25.992Z</time>
      </trkpt>
      <trkpt lat="41.98196833" lon="2.87">
        <ele>302.0</ele>
        <time>2021-08-21T07:27:27.011Z</time>
      </trkpt>
      <trkpt lat="41.982" lon="2.86997833">
        <ele>303.0</ele>
        <time>2021-08-21T07:27:27.994Z</time>
      </trkpt>
      <trkpt lat="41.982" lon="2.86997833">
        <ele>303.0</ele>
        <time>2021-08-21T07:27:28.999Z</time>
      </trkpt>
      <trkpt lat="41.98205667" lon="2.86993667">
        <ele>304.0</ele>
        <time>2021-08-21T07:27:30.020Z</time>
      </trkpt>
      <trkpt lat="41.98205667" lon="2.86993667">
        <ele>304.0</ele>
        <time>2021-08-21T07:27:31.025Z</time>
      </trkpt>
      <trkpt lat="41.98211167" lon="2.8699">
        <ele>305.0</ele>
        <time>2021-08-21T07:27:32.002Z</time>
      </trkpt>
      <trkpt lat="41.98213667" lon="2.869885">
        <ele>306.0</ele>
        <time>2021-08-21T07:27:33.026Z</time>
      </trkpt>
      <trkpt lat="41.98213667" lon="2.869885">
        <ele>306.0</ele>
        <time>2021-08-21T07:27:33.993Z</time>
      </trkpt>
      <trkpt lat="41.98218" lon="2.86985">
        <ele>307.0</ele>
        <time>2021-08-21T07:27:35.011Z</time>
      </trkpt>
      <trkpt lat="41.98218" lon="2.86985">
        <ele>307.0</ele>
        <time>2021-08-21T07:27:36.016Z</time>
      </trkpt>
      <trkpt lat="41.98221833" lon="2.86980833">
        <ele>309.0</ele>
        <time>2021-08-21T07:27:37.031Z</time>
      </trkpt>
      <trkpt lat="41.98224" lon="2.86977833">
        <ele>309.0</ele>
        <time>2021-08-21T07:27:38.015Z</time>
      </trkpt>
      <trkpt lat="41.98226167" lon="2.86974833">
        <ele>310.0</ele>
        <time>2021-08-21T07:27:38.992Z</time>
      </trkpt>
      <trkpt lat="41.98226167" lon="2.86974833">
        <ele>310.0</ele>
        <time>2021-08-21T07:27:39.997Z</time>
      </trkpt>
      <trkpt lat="41.98229667" lon="2.86968">
        <ele>311.0</ele>
        <time>2021-08-21T07:27:41.025Z</time>
      </trkpt>
      <trkpt lat="41.98229667" lon="2.86968">
        <ele>311.0</ele>
        <time>2021-08-21T07:27:42.031Z</time>
      </trkpt>
      <trkpt lat="41.98233333" lon="2.86961833">
        <ele>313.0</ele>
        <time>2021-08-21T07:27:43.022Z</time>
      </trkpt>
      <trkpt lat="41.98235" lon="2.86960167">
        <ele>313.0</ele>
        <time>2021-08-21T07:27:44.000Z</time>
      </trkpt>
      <trkpt lat="41.98235" lon="2.86960167">
        <ele>313.0</ele>
        <time>2021-08-21T07:27:45.009Z</time>
      </trkpt>
      <trkpt lat="41.98238667" lon="2.86960667">
        <ele>315.0</ele>
        <time>2021-08-21T07:27:46.029Z</time>
      </trkpt>
      <trkpt lat="41.98240333" lon="2.86963">
        <ele>316.0</ele>
        <time>2021-08-21T07:27:47.018Z</time>
      </trkpt>
      <trkpt lat="41.98240333" lon="2.86963">
        <ele>316.0</ele>
        <time>2021-08-21T07:27:48.025Z</time>
      </trkpt>
      <trkpt lat="41.98243167" lon="2.869695">
        <ele>317.0</ele>
        <time>2021-08-21T07:27:49.001Z</time>
      </trkpt>
      <trkpt lat="41.98243167" lon="2.869695">
        <ele>317.0</ele>
        <time>2021-08-21T07:27:50.007Z</time>
      </trkpt>
      <trkpt lat="41.982445" lon="2.86976167">
        <ele>318.0</ele>
        <time>2021-08-21T07:27:50.998Z</time>
      </trkpt>
      <trkpt lat="41.982445" lon="2.86976167">
        <ele>318.0</ele>
        <time>2021-08-21T07:27:52.003Z</time>
      </trkpt>
      <trkpt lat="41.98245167" lon="2.869825">
        <ele>319.0</ele>
        <time>2021-08-21T07:27:53.004Z</time>
      </trkpt>
      <trkpt lat="41.98245167" lon="2.869825">
        <ele>319.0</ele>
        <time>2021-08-21T07:27:54.008Z</time>
      </trkpt>
      <trkpt lat="41.98244833" lon="2.86989667">
        <ele>320.0</ele>
        <time>2021-08-21T07:27:55.023Z</time>
      </trkpt>
      <trkpt lat="41.98244333" lon="2.86993333">
        <ele>321.0</ele>
        <time>2021-08-21T07:27:56.000Z</time>
      </trkpt>
      <trkpt lat="41.98243667" lon="2.86996333">
        <ele>321.0</ele>
        <time>2021-08-21T07:27:57.025Z</time>
      </trkpt>
      <trkpt lat="41.98243667" lon="2.86996333">
        <ele>321.0</ele>
        <time>2021-08-21T07:27:58.030Z</time>
      </trkpt>
      <trkpt lat="41.98241667" lon="2.87003333">
        <ele>321.0</ele>
        <time>2021-08-21T07:27:59.005Z</time>
      </trkpt>
      <trkpt lat="41.98241667" lon="2.87003333">
        <ele>321.0</ele>
        <time>2021-08-21T07:28:00.011Z</time>
      </trkpt>
      <trkpt lat="41.98239" lon="2.87010333">
        <ele>321.0</ele>
        <time>2021-08-21T07:28:00.992Z</time>
      </trkpt>
      <trkpt lat="41.98239" lon="2.87010333">
        <ele>321.0</ele>
        <time>2021-08-21T07:28:02.006Z</time>
      </trkpt>
      <trkpt lat="41.98236167" lon="2.87017833">
        <ele>322.0</ele>
        <time>2021-08-21T07:28:03.016Z</time>
      </trkpt>
      <trkpt lat="41.98236167" lon="2.87017833">
        <ele>322.0</ele>
        <time>2021-08-21T07:28:04.021Z</time>
      </trkpt>
      <trkpt lat="41.98233833" lon="2.87024333">
        <ele>322.0</ele>
        <time>2021-08-21T07:28:04.994Z</time>
      </trkpt>
      <trkpt lat="41.98233833" lon="2.87024333">
        <ele>322.0</ele>
        <time>2021-08-21T07:28:05.999Z</time>
      </trkpt>
      <trkpt lat="41.98233333" lon="2.87032167">
        <ele>323.0</ele>
        <time>2021-08-21T07:28:07.018Z</time>
      </trkpt>
      <trkpt lat="41.98233333" lon="2.87032167">
        <ele>323.0</ele>
        <time>2021-08-21T07:28:08.025Z</time>
      </trkpt>
      <trkpt lat="41.98232167" lon="2.87039667">
        <ele>323.0</ele>
        <time>2021-08-21T07:28:09.020Z</time>
      </trkpt>
      <trkpt lat="41.98232167" lon="2.87039667">
        <ele>323.0</ele>
        <time>2021-08-21T07:28:10.025Z</time>
      </trkpt>
      <trkpt lat="41.98231" lon="2.87047">
        <ele>324.0</ele>
        <time>2021-08-21T07:28:11.007Z</time>
      </trkpt>
      <trkpt lat="41.98231" lon="2.87047">
        <ele>324.0</ele>
        <time>2021-08-21T07:28:12.013Z</time>
      </trkpt>
      <trkpt lat="41.98231" lon="2.87056">
        <ele>324.0</ele>
        <time>2021-08-21T07:28:13.029Z</time>
      </trkpt>
      <trkpt lat="41.98231" lon="2.87056">
        <ele>324.0</ele>
        <time>2021-08-21T07:28:13.995Z</time>
      </trkpt>
      <trkpt lat="41.982285" lon="2.87061833">
        <ele>322.0</ele>
        <time>2021-08-21T07:28:15.014Z</time>
      </trkpt>
      <trkpt lat="41.98227" lon="2.87066">
        <ele>322.0</ele>
        <time>2021-08-21T07:28:16.025Z</time>
      </trkpt>
      <trkpt lat="41.98224167" lon="2.87069333">
        <ele>322.0</ele>
        <time>2021-08-21T07:28:17.002Z</time>
      </trkpt>
      <trkpt lat="41.98224167" lon="2.87069333">
        <ele>322.0</ele>
        <time>2021-08-21T07:28:18.008Z</time>
      </trkpt>
      <trkpt lat="41.98218667" lon="2.87073333">
        <ele>323.0</ele>
        <time>2021-08-21T07:28:19.027Z</time>
      </trkpt>
      <trkpt lat="41.98215833" lon="2.87074833">
        <ele>323.0</ele>
        <time>2021-08-21T07:28:20.010Z</time>
      </trkpt>
      <trkpt lat="41.982135" lon="2.87076167">
        <ele>322.0</ele>
        <time>2021-08-21T07:28:21.024Z</time>
      </trkpt>
      <trkpt lat="41.982135" lon="2.87076167">
        <ele>322.0</ele>
        <time>2021-08-21T07:28:22.031Z</time>
      </trkpt>
      <trkpt lat="41.982075" lon="2.87078">
        <ele>322.0</ele>
        <time>2021-08-21T07:28:23.008Z</time>
      </trkpt>
      <trkpt lat="41.982075" lon="2.87078">
        <ele>322.0</ele>
        <time>2021-08-21T07:28:24.013Z</time>
      </trkpt>
      <trkpt lat="41.98201" lon="2.87080833">
        <ele>322.0</ele>
        <time>2021-08-21T07:28:25.001Z</time>
      </trkpt>
      <trkpt lat="41.98201" lon="2.87080833">
        <ele>322.0</ele>
        <time>2021-08-21T07:28:26.006Z</time>
      </trkpt>
      <trkpt lat="41.981945" lon="2.87085333">
        <ele>321.0</ele>
        <time>2021-08-21T07:28:27.023Z</time>
      </trkpt>
      <trkpt lat="41.981945" lon="2.87085333">
        <ele>321.0</ele>
        <time>2021-08-21T07:28:28.029Z</time>
      </trkpt>
      <trkpt lat="41.98188333" lon="2.87090833">
        <ele>320.0</ele>
        <time>2021-08-21T07:28:29.007Z</time>
      </trkpt>
      <trkpt lat="41.98188333" lon="2.87090833">
        <ele>320.0</ele>
        <time>2021-08-21T07:28:30.012Z</time>
      </trkpt>
      <trkpt lat="41.98181833" lon="2.87096167">
        <ele>319.0</ele>
        <time>2021-08-21T07:28:31.030Z</time>
      </trkpt>
      <trkpt lat="41.98178667" lon="2.87098833">
        <ele>319.0</ele>
        <time>2021-08-21T07:28:31.997Z</time>
      </trkpt>
      <trkpt lat="41.98175167" lon="2.871015">
        <ele>319.0</ele>
        <time>2021-08-21T07:28:33.022Z</time>
      </trkpt>
      <trkpt lat="41.98172" lon="2.87104333">
        <ele>319.0</ele>
        <time>2021-08-21T07:28:34.002Z</time>
      </trkpt>
      <trkpt lat="41.98172" lon="2.87104333">
        <ele>319.0</ele>
        <time>2021-08-21T07:28:35.007Z</time>
      </trkpt>
      <trkpt lat="41.98166" lon="2.8711">
        <ele>318.0</ele>
        <time>2021-08-21T07:28:35.993Z</time>
      </trkpt>
      <trkpt lat="41.98166" lon="2.8711">
        <ele>318.0</ele>
        <time>2021-08-21T07:28:37.000Z</time>
      </trkpt>
      <trkpt lat="41.98160167" lon="2.87115833">
        <ele>317.0</ele>
        <time>2021-08-21T07:28:38.018Z</time>
      </trkpt>
      <trkpt lat="41.981575" lon="2.87118167">
        <ele>317.0</ele>
        <time>2021-08-21T07:28:38.994Z</time>
      </trkpt>
      <trkpt lat="41.981575" lon="2.87118167">
        <ele>317.0</ele>
        <time>2021-08-21T07:28:39.999Z</time>
      </trkpt>
      <trkpt lat="41.98152833" lon="2.87124167">
        <ele>315.0</ele>
        <time>2021-08-21T07:28:41.021Z</time>
      </trkpt>
      <trkpt lat="41.98152833" lon="2.87124167">
        <ele>315.0</ele>
        <time>2021-08-21T07:28:42.026Z</time>
      </trkpt>
      <trkpt lat="41.98149167" lon="2.87127333">
        <ele>315.0</ele>
        <time>2021-08-21T07:28:43.010Z</time>
      </trkpt>
      <trkpt lat="41.98146833" lon="2.87129333">
        <ele>314.0</ele>
        <time>2021-08-21T07:28:44.029Z</time>
      </trkpt>
      <trkpt lat="41.981445" lon="2.87131833">
        <ele>314.0</ele>
        <time>2021-08-21T07:28:45.005Z</time>
      </trkpt>
      <trkpt lat="41.981445" lon="2.87131833">
        <ele>314.0</ele>
        <time>2021-08-21T07:28:46.009Z</time>
      </trkpt>
      <trkpt lat="41.98141333" lon="2.87137167">
        <ele>313.0</ele>
        <time>2021-08-21T07:28:47.031Z</time>
      </trkpt>
      <trkpt lat="41.98141333" lon="2.87137167">
        <ele>313.0</ele>
        <time>2021-08-21T07:28:47.996Z</time>
      </trkpt>
      <trkpt lat="41.981415" lon="2.87143333">
        <ele>313.0</ele>
        <time>2021-08-21T07:28:49.011Z</time>
      </trkpt>
      <trkpt lat="41.981415" lon="2.87143333">
        <ele>313.0</ele>
        <time>2021-08-21T07:28:50.016Z</time>
      </trkpt>
      <trkpt lat="41.98144667" lon="2.87143833">
        <ele>313.0</ele>
        <time>2021-08-21T07:28:50.995Z</time>
      </trkpt>
      <trkpt lat="41.98144667" lon="2.87143833">
        <ele>313.0</ele>
        <time>2021-08-21T07:28:52.000Z</time>
      </trkpt>
      <trkpt lat="41.98149" lon="2.87143667">
        <ele>313.0</ele>
        <time>2021-08-21T07:28:53.025Z</time>
      </trkpt>
      <trkpt lat="41.98149" lon="2.87143667">
        <ele>313.0</ele>
        <time>2021-08-21T07:28:53.992Z</time>
      </trkpt>
      <trkpt lat="41.98153667" lon="2.871435">
        <ele>313.0</ele>
        <time>2021-08-21T07:28:55.026Z</time>
      </trkpt>
      <trkpt lat="41.98156333" lon="2.87142667">
        <ele>313.0</ele>
        <time>2021-08-21T07:28:56.001Z</time>
      </trkpt>
      <trkpt lat="41.98156333" lon="2.87142667">
        <ele>313.0</ele>
        <time>2021-08-21T07:28:57.006Z</time>
      </trkpt>
      <trkpt lat="41.98161667" lon="2.87141">
        <ele>313.0</ele>
        <time>2021-08-21T07:28:58.025Z</time>
      </trkpt>
      <trkpt lat="41.98164" lon="2.87139833">
        <ele>313.0</ele>
        <time>2021-08-21T07:28:59.005Z</time>
      </trkpt>
      <trkpt lat="41.98164" lon="2.87139833">
        <ele>313.0</ele>
        <time>2021-08-21T07:29:00.010Z</time>
      </trkpt>
      <trkpt lat="41.98168" lon="2.87137667">
        <ele>314.0</ele>
        <time>2021-08-21T07:29:01.011Z</time>
      </trkpt>
      <trkpt lat="41.98168" lon="2.87137667">
        <ele>314.0</ele>
        <time>2021-08-21T07:29:02.031Z</time>
      </trkpt>
      <trkpt lat="41.98172333" lon="2.87134">
        <ele>314.0</ele>
        <time>2021-08-21T07:29:03.002Z</time>
      </trkpt>
      <trkpt lat="41.98172333" lon="2.87134">
        <ele>314.0</ele>
        <time>2021-08-21T07:29:04.007Z</time>
      </trkpt>
      <trkpt lat="41.98176833" lon="2.8713">
        <ele>314.0</ele>
        <time>2021-08-21T07:29:05.001Z</time>
      </trkpt>
      <trkpt lat="41.98176833" lon="2.8713">
        <ele>314.0</ele>
        <time>2021-08-21T07:29:06.007Z</time>
      </trkpt>
      <trkpt lat="41.98181" lon="2.87128">
        <ele>313.0</ele>
        <time>2021-08-21T07:29:07.022Z</time>
      </trkpt>
      <trkpt lat="41.98183" lon="2.87127667">
        <ele>313.0</ele>
        <time>2021-08-21T07:29:07.999Z</time>
      </trkpt>
      <trkpt lat="41.98183" lon="2.87127667">
        <ele>313.0</ele>
        <time>2021-08-21T07:29:09.004Z</time>
      </trkpt>
      <trkpt lat="41.98186667" lon="2.871285">
        <ele>311.0</ele>
        <time>2021-08-21T07:29:10.017Z</time>
      </trkpt>
      <trkpt lat="41.98186667" lon="2.871285">
        <ele>311.0</ele>
        <time>2021-08-21T07:29:11.023Z</time>
      </trkpt>
      <trkpt lat="41.98188167" lon="2.87131">
        <ele>310.0</ele>
        <time>2021-08-21T07:29:11.998Z</time>
      </trkpt>
      <trkpt lat="41.98188167" lon="2.87131">
        <ele>310.0</ele>
        <time>2021-08-21T07:29:13.004Z</time>
      </trkpt>
      <trkpt lat="41.981895" lon="2.87134333">
        <ele>310.0</ele>
        <time>2021-08-21T07:29:14.026Z</time>
      </trkpt>
      <trkpt lat="41.98191167" lon="2.87135667">
        <ele>310.0</ele>
        <time>2021-08-21T07:29:15.009Z</time>
      </trkpt>
      <trkpt lat="41.98191167" lon="2.87135667">
        <ele>310.0</ele>
        <time>2021-08-21T07:29:16.014Z</time>
      </trkpt>
      <trkpt lat="41.981965" lon="2.871355">
        <ele>310.0</ele>
        <time>2021-08-21T07:29:17.028Z</time>
      </trkpt>
      <trkpt lat="41.98199333" lon="2.87134333">
        <ele>310.0</ele>
        <time>2021-08-21T07:29:18.008Z</time>
      </trkpt>
      <trkpt lat="41.98199333" lon="2.87134333">
        <ele>310.0</ele>
        <time>2021-08-21T07:29:19.014Z</time>
      </trkpt>
      <trkpt lat="41.982055" lon="2.87128667">
        <ele>309.0</ele>
        <time>2021-08-21T07:29:20.028Z</time>
      </trkpt>
      <trkpt lat="41.98208667" lon="2.87126">
        <ele>309.0</ele>
        <time>2021-08-21T07:29:21.010Z</time>
      </trkpt>
      <trkpt lat="41.98208667" lon="2.87126">
        <ele>309.0</ele>
        <time>2021-08-21T07:29:22.015Z</time>
      </trkpt>
      <trkpt lat="41.98215833" lon="2.87121667">
        <ele>309.0</ele>
        <time>2021-08-21T07:29:22.993Z</time>
      </trkpt>
      <trkpt lat="41.98215833" lon="2.87121667">
        <ele>309.0</ele>
        <time>2021-08-21T07:29:23.998Z</time>
      </trkpt>
      <trkpt lat="41.98223667" lon="2.87116833">
        <ele>309.0</ele>
        <time>2021-08-21T07:29:25.024Z</time>
      </trkpt>
      <trkpt lat="41.98227" lon="2.87113667">
        <ele>309.0</ele>
        <time>2021-08-21T07:29:26.005Z</time>
      </trkpt>
      <trkpt lat="41.98227" lon="2.87113667">
        <ele>309.0</ele>
        <time>2021-08-21T07:29:27.011Z</time>
      </trkpt>
      <trkpt lat="41.98233667" lon="2.87108667">
        <ele>309.0</ele>
        <time>2021-08-21T07:29:28.030Z</time>
      </trkpt>
      <trkpt lat="41.98233667" lon="2.87108667">
        <ele>309.0</ele>
        <time>2021-08-21T07:29:28.995Z</time>
      </trkpt>
      <trkpt lat="41.98239333" lon="2.87104167">
        <ele>309.0</ele>
        <time>2021-08-21T07:29:30.030Z</time>
      </trkpt>
      <trkpt lat="41.98241667" lon="2.87102167">
        <ele>309.0</ele>
        <time>2021-08-21T07:29:31.004Z</time>
      </trkpt>
      <trkpt lat="41.98241667" lon="2.87102167">
        <ele>309.0</ele>
        <time>2021-08-21T07:29:32.010Z</time>
      </trkpt>
      <trkpt lat="41.982455" lon="2.870985">
        <ele>309.0</ele>
        <time>2021-08-21T07:29:33.004Z</time>
      </trkpt>
      <trkpt lat="41.982455" lon="2.870985">
        <ele>309.0</ele>
        <time>2021-08-21T07:29:34.010Z</time>
      </trkpt>
      <trkpt lat="41.98249333" lon="2.87095">
        <ele>309.0</ele>
        <time>2021-08-21T07:29:35.006Z</time>
      </trkpt>
      <trkpt lat="41.98249333" lon="2.87095">
        <ele>309.0</ele>
        <time>2021-08-21T07:29:36.011Z</time>
      </trkpt>
      <trkpt lat="41.98253" lon="2.87091667">
        <ele>310.0</ele>
        <time>2021-08-21T07:29:36.995Z</time>
      </trkpt>
      <trkpt lat="41.98253" lon="2.87091667">
        <ele>310.0</ele>
        <time>2021-08-21T07:29:38.000Z</time>
      </trkpt>
      <trkpt lat="41.98257333" lon="2.87091333">
        <ele>310.0</ele>
        <time>2021-08-21T07:29:39.021Z</time>
      </trkpt>
      <trkpt lat="41.98257333" lon="2.87091333">
        <ele>310.0</ele>
        <time>2021-08-21T07:29:40.027Z</time>
      </trkpt>
      <trkpt lat="41.98263667" lon="2.87093333">
        <ele>310.0</ele>
        <time>2021-08-21T07:29:41.008Z</time>
      </trkpt>
      <trkpt lat="41.98263667" lon="2.87093333">
        <ele>310.0</ele>
        <time>2021-08-21T07:29:42.014Z</time>
      </trkpt>
      <trkpt lat="41.98273833" lon="2.87098333">
        <ele>310.0</ele>
        <time>2021-08-21T07:29:42.992Z</time>
      </trkpt>
      <trkpt lat="41.98273833" lon="2.87098333">
        <ele>310.0</ele>
        <time>2021-08-21T07:29:43.997Z</time>
      </trkpt>
      <trkpt lat="41.98284167" lon="2.87108167">
        <ele>310.0</ele>
        <time>2021-08-21T07:29:45.031Z</time>
      </trkpt>
      <trkpt lat="41.98284167" lon="2.87108167">
        <ele>310.0</ele>
        <time>2021-08-21T07:29:45.997Z</time>
      </trkpt>
      <trkpt lat="41.98292667" lon="2.87120833">
        <ele>309.0</ele>
        <time>2021-08-21T07:29:47.015Z</time>
      </trkpt>
      <trkpt lat="41.98292667" lon="2.87120833">
        <ele>309.0</ele>
        <time>2021-08-21T07:29:48.020Z</time>
      </trkpt>
      <trkpt lat="41.983035" lon="2.87129167">
        <ele>309.0</ele>
        <time>2021-08-21T07:29:49.029Z</time>
      </trkpt>
      <trkpt lat="41.983035" lon="2.87129167">
        <ele>309.0</ele>
        <time>2021-08-21T07:29:49.994Z</time>
      </trkpt>
      <trkpt lat="41.983165" lon="2.871315">
        <ele>308.0</ele>
        <time>2021-08-21T07:29:51.013Z</time>
      </trkpt>
      <trkpt lat="41.983235" lon="2.87131333">
        <ele>308.0</ele>
        <time>2021-08-21T07:29:52.030Z</time>
      </trkpt>
      <trkpt lat="41.983235" lon="2.87131333">
        <ele>308.0</ele>
        <time>2021-08-21T07:29:52.995Z</time>
      </trkpt>
      <trkpt lat="41.98337167" lon="2.87129833">
        <ele>308.0</ele>
        <time>2021-08-21T07:29:54.011Z</time>
      </trkpt>
      <trkpt lat="41.98337167" lon="2.87129833">
        <ele>308.0</ele>
        <time>2021-08-21T07:29:55.016Z</time>
      </trkpt>
      <trkpt lat="41.98350333" lon="2.87127167">
        <ele>308.0</ele>
        <time>2021-08-21T07:29:56.031Z</time>
      </trkpt>
      <trkpt lat="41.98358" lon="2.87125667">
        <ele>307.0</ele>
        <time>2021-08-21T07:29:57.008Z</time>
      </trkpt>
      <trkpt lat="41.98358" lon="2.87125667">
        <ele>307.0</ele>
        <time>2021-08-21T07:29:58.014Z</time>
      </trkpt>
      <trkpt lat="41.98374333" lon="2.87121333">
        <ele>307.0</ele>
        <time>2021-08-21T07:29:58.992Z</time>
      </trkpt>
      <trkpt lat="41.98374333" lon="2.87121333">
        <ele>307.0</ele>
        <time>2021-08-21T07:29:59.998Z</time>
      </trkpt>
      <trkpt lat="41.98392333" lon="2.87114667">
        <ele>307.0</ele>
        <time>2021-08-21T07:30:01.019Z</time>
      </trkpt>
      <trkpt lat="41.98392333" lon="2.87114667">
        <ele>307.0</ele>
        <time>2021-08-21T07:30:01.992Z</time>
      </trkpt>
      <trkpt lat="41.98408833" lon="2.871065">
        <ele>307.0</ele>
        <time>2021-08-21T07:30:02.997Z</time>
      </trkpt>
      <trkpt lat="41.98408833" lon="2.871065">
        <ele>307.0</ele>
        <time>2021-08-21T07:30:04.011Z</time>
      </trkpt>
      <trkpt lat="41.98425833" lon="2.871025">
        <ele>306.0</ele>
        <time>2021-08-21T07:30:05.003Z</time>
      </trkpt>
      <trkpt lat="41.98425833" lon="2.871025">
        <ele>306.0</ele>
        <time>2021-08-21T07:30:06.009Z</time>
      </trkpt>
      <trkpt lat="41.98439833" lon="2.87103">
        <ele>306.0</ele>
        <time>2021-08-21T07:30:07.031Z</time>
      </trkpt>
      <trkpt lat="41.98445333" lon="2.871045">
        <ele>306.0</ele>
        <time>2021-08-21T07:30:08.007Z</time>
      </trkpt>
      <trkpt lat="41.98445333" lon="2.871045">
        <ele>306.0</ele>
        <time>2021-08-21T07:30:09.014Z</time>
      </trkpt>
      <trkpt lat="41.98455833" lon="2.87105667">
        <ele>307.0</ele>
        <time>2021-08-21T07:30:09.998Z</time>
      </trkpt>
      <trkpt lat="41.98455833" lon="2.87105667">
        <ele>307.0</ele>
        <time>2021-08-21T07:30:11.008Z</time>
      </trkpt>
      <trkpt lat="41.98465" lon="2.87105167">
        <ele>307.0</ele>
        <time>2021-08-21T07:30:12.030Z</time>
      </trkpt>
      <trkpt lat="41.98469833" lon="2.87105">
        <ele>307.0</ele>
        <time>2021-08-21T07:30:13.009Z</time>
      </trkpt>
      <trkpt lat="41.98475667" lon="2.87104667">
        <ele>307.0</ele>
        <time>2021-08-21T07:30:14.024Z</time>
      </trkpt>
      <trkpt lat="41.98480667" lon="2.87104667">
        <ele>307.0</ele>
        <time>2021-08-21T07:30:14.997Z</time>
      </trkpt>
      <trkpt lat="41.98480667" lon="2.87104667">
        <ele>307.0</ele>
        <time>2021-08-21T07:30:16.003Z</time>
      </trkpt>
      <trkpt lat="41.98487833" lon="2.871035">
        <ele>308.0</ele>
        <time>2021-08-21T07:30:17.016Z</time>
      </trkpt>
      <trkpt lat="41.98487833" lon="2.871035">
        <ele>308.0</ele>
        <time>2021-08-21T07:30:18.026Z</time>
      </trkpt>
      <trkpt lat="41.98494" lon="2.871025">
        <ele>309.0</ele>
        <time>2021-08-21T07:30:19.015Z</time>
      </trkpt>
      <trkpt lat="41.98497" lon="2.87102">
        <ele>308.0</ele>
        <time>2021-08-21T07:30:20.002Z</time>
      </trkpt>
      <trkpt lat="41.98497" lon="2.87102">
        <ele>308.0</ele>
        <time>2021-08-21T07:30:21.011Z</time>
      </trkpt>
      <trkpt lat="41.98503167" lon="2.87099667">
        <ele>309.0</ele>
        <time>2021-08-21T07:30:22.031Z</time>
      </trkpt>
      <trkpt lat="41.98503167" lon="2.87099667">
        <ele>309.0</ele>
        <time>2021-08-21T07:30:23.001Z</time>
      </trkpt>
      <trkpt lat="41.98508667" lon="2.87097833">
        <ele>309.0</ele>
        <time>2021-08-21T07:30:24.027Z</time>
      </trkpt>
      <trkpt lat="41.98508667" lon="2.87097833">
        <ele>309.0</ele>
        <time>2021-08-21T07:30:24.998Z</time>
      </trkpt>
      <trkpt lat="41.98515" lon="2.87096167">
        <ele>310.0</ele>
        <time>2021-08-21T07:30:26.021Z</time>
      </trkpt>
      <trkpt lat="41.98517667" lon="2.87095167">
        <ele>311.0</ele>
        <time>2021-08-21T07:30:27.004Z</time>
      </trkpt>
      <trkpt lat="41.98517667" lon="2.87095167">
        <ele>311.0</ele>
        <time>2021-08-21T07:30:28.014Z</time>
      </trkpt>
      <trkpt lat="41.98523" lon="2.870935">
        <ele>312.0</ele>
        <time>2021-08-21T07:30:29.000Z</time>
      </trkpt>
      <trkpt lat="41.98523" lon="2.870935">
        <ele>312.0</ele>
        <time>2021-08-21T07:30:30.011Z</time>
      </trkpt>
      <trkpt lat="41.98528167" lon="2.87093167">
        <ele>312.0</ele>
        <time>2021-08-21T07:30:31.031Z</time>
      </trkpt>
      <trkpt lat="41.98531167" lon="2.87093">
        <ele>313.0</ele>
        <time>2021-08-21T07:30:32.016Z</time>
      </trkpt>
      <trkpt lat="41.98533667" lon="2.870935">
        <ele>313.0</ele>
        <time>2021-08-21T07:30:33.004Z</time>
      </trkpt>
      <trkpt lat="41.98533667" lon="2.870935">
        <ele>313.0</ele>
        <time>2021-08-21T07:30:34.012Z</time>
      </trkpt>
      <trkpt lat="41.985375" lon="2.87094333">
        <ele>314.0</ele>
        <time>2021-08-21T07:30:34.995Z</time>
      </trkpt>
      <trkpt lat="41.985375" lon="2.87094333">
        <ele>314.0</ele>
        <time>2021-08-21T07:30:36.003Z</time>
      </trkpt>
      <trkpt lat="41.98543333" lon="2.87095">
        <ele>316.0</ele>
        <time>2021-08-21T07:30:37.001Z</time>
      </trkpt>
      <trkpt lat="41.98543333" lon="2.87095">
        <ele>316.0</ele>
        <time>2021-08-21T07:30:38.008Z</time>
      </trkpt>
      <trkpt lat="41.985495" lon="2.87095333">
        <ele>317.0</ele>
        <time>2021-08-21T07:30:39.012Z</time>
      </trkpt>
      <trkpt lat="41.985495" lon="2.87095333">
        <ele>317.0</ele>
        <time>2021-08-21T07:30:40.020Z</time>
      </trkpt>
      <trkpt lat="41.98556" lon="2.87095667">
        <ele>319.0</ele>
        <time>2021-08-21T07:30:41.002Z</time>
      </trkpt>
      <trkpt lat="41.98556" lon="2.87095667">
        <ele>319.0</ele>
        <time>2021-08-21T07:30:42.009Z</time>
      </trkpt>
      <trkpt lat="41.98563333" lon="2.87097">
        <ele>320.0</ele>
        <time>2021-08-21T07:30:43.025Z</time>
      </trkpt>
      <trkpt lat="41.98563333" lon="2.87097">
        <ele>320.0</ele>
        <time>2021-08-21T07:30:43.992Z</time>
      </trkpt>
      <trkpt lat="41.98571667" lon="2.870965">
        <ele>321.0</ele>
        <time>2021-08-21T07:30:45.011Z</time>
      </trkpt>
      <trkpt lat="41.98571667" lon="2.870965">
        <ele>321.0</ele>
        <time>2021-08-21T07:30:46.017Z</time>
      </trkpt>
      <trkpt lat="41.98579" lon="2.87097167">
        <ele>322.0</ele>
        <time>2021-08-21T07:30:47.000Z</time>
      </trkpt>
      <trkpt lat="41.98579" lon="2.87097167">
        <ele>322.0</ele>
        <time>2021-08-21T07:30:48.008Z</time>
      </trkpt>
      <trkpt lat="41.98583833" lon="2.87100333">
        <ele>323.0</ele>
        <time>2021-08-21T07:30:48.995Z</time>
      </trkpt>
      <trkpt lat="41.98583833" lon="2.87100333">
        <ele>323.0</ele>
        <time>2021-08-21T07:30:50.002Z</time>
      </trkpt>
      <trkpt lat="41.98587333" lon="2.871075">
        <ele>324.0</ele>
        <time>2021-08-21T07:30:51.018Z</time>
      </trkpt>
      <trkpt lat="41.98587333" lon="2.871075">
        <ele>324.0</ele>
        <time>2021-08-21T07:30:52.024Z</time>
      </trkpt>
      <trkpt lat="41.98587333" lon="2.87114333">
        <ele>326.0</ele>
        <time>2021-08-21T07:30:53.001Z</time>
      </trkpt>
      <trkpt lat="41.98587333" lon="2.87114333">
        <ele>326.0</ele>
        <time>2021-08-21T07:30:54.007Z</time>
      </trkpt>
      <trkpt lat="41.985845" lon="2.87120333">
        <ele>326.0</ele>
        <time>2021-08-21T07:30:55.028Z</time>
      </trkpt>
      <trkpt lat="41.98582333" lon="2.87122">
        <ele>326.0</ele>
        <time>2021-08-21T07:30:56.005Z</time>
      </trkpt>
      <trkpt lat="41.98580167" lon="2.87123167">
        <ele>326.0</ele>
        <time>2021-08-21T07:30:57.023Z</time>
      </trkpt>
      <trkpt lat="41.98580167" lon="2.87123167">
        <ele>326.0</ele>
        <time>2021-08-21T07:30:58.030Z</time>
      </trkpt>
      <trkpt lat="41.98577167" lon="2.87126167">
        <ele>326.0</ele>
        <time>2021-08-21T07:30:59.006Z</time>
      </trkpt>
      <trkpt lat="41.98577167" lon="2.87126167">
        <ele>326.0</ele>
        <time>2021-08-21T07:31:00.012Z</time>
      </trkpt>
      <trkpt lat="41.98572833" lon="2.87128833">
        <ele>326.0</ele>
        <time>2021-08-21T07:31:00.995Z</time>
      </trkpt>
      <trkpt lat="41.98572833" lon="2.87128833">
        <ele>326.0</ele>
        <time>2021-08-21T07:31:02.017Z</time>
      </trkpt>
      <trkpt lat="41.98567667" lon="2.87132167">
        <ele>326.0</ele>
        <time>2021-08-21T07:31:02.992Z</time>
      </trkpt>
      <trkpt lat="41.98567667" lon="2.87132167">
        <ele>326.0</ele>
        <time>2021-08-21T07:31:03.998Z</time>
      </trkpt>
      <trkpt lat="41.985625" lon="2.871355">
        <ele>327.0</ele>
        <time>2021-08-21T07:31:05.016Z</time>
      </trkpt>
      <trkpt lat="41.985625" lon="2.871355">
        <ele>327.0</ele>
        <time>2021-08-21T07:31:06.022Z</time>
      </trkpt>
      <trkpt lat="41.98557333" lon="2.871395">
        <ele>328.0</ele>
        <time>2021-08-21T07:31:07.003Z</time>
      </trkpt>
      <trkpt lat="41.98557333" lon="2.871395">
        <ele>328.0</ele>
        <time>2021-08-21T07:31:08.009Z</time>
      </trkpt>
      <trkpt lat="41.98553" lon="2.87144333">
        <ele>328.0</ele>
        <time>2021-08-21T07:31:09.026Z</time>
      </trkpt>
      <trkpt lat="41.98553" lon="2.87144333">
        <ele>328.0</ele>
        <time>2021-08-21T07:31:09.994Z</time>
      </trkpt>
      <trkpt lat="41.98549667" lon="2.87150333">
        <ele>329.0</ele>
        <time>2021-08-21T07:31:11.025Z</time>
      </trkpt>
      <trkpt lat="41.985475" lon="2.87153">
        <ele>329.0</ele>
        <time>2021-08-21T07:31:12.002Z</time>
      </trkpt>
      <trkpt lat="41.985475" lon="2.87153">
        <ele>329.0</ele>
        <time>2021-08-21T07:31:13.008Z</time>
      </trkpt>
      <trkpt lat="41.98542833" lon="2.87158167">
        <ele>327.0</ele>
        <time>2021-08-21T07:31:14.020Z</time>
      </trkpt>
      <trkpt lat="41.98541333" lon="2.87161333">
        <ele>326.0</ele>
        <time>2021-08-21T07:31:15.002Z</time>
      </trkpt>
      <trkpt lat="41.98541333" lon="2.87161333">
        <ele>326.0</ele>
        <time>2021-08-21T07:31:16.007Z</time>
      </trkpt>
      <trkpt lat="41.98538833" lon="2.87168">
        <ele>324.0</ele>
        <time>2021-08-21T07:31:16.992Z</time>
      </trkpt>
      <trkpt lat="41.98539167" lon="2.87171833">
        <ele>324.0</ele>
        <time>2021-08-21T07:31:18.020Z</time>
      </trkpt>
      <trkpt lat="41.98540667" lon="2.87174667">
        <ele>323.0</ele>
        <time>2021-08-21T07:31:18.999Z</time>
      </trkpt>
      <trkpt lat="41.98540667" lon="2.87174667">
        <ele>323.0</ele>
        <time>2021-08-21T07:31:20.005Z</time>
      </trkpt>
      <trkpt lat="41.98546" lon="2.87176667">
        <ele>322.0</ele>
        <time>2021-08-21T07:31:21.028Z</time>
      </trkpt>
      <trkpt lat="41.98546" lon="2.87176667">
        <ele>322.0</ele>
        <time>2021-08-21T07:31:21.993Z</time>
      </trkpt>
      <trkpt lat="41.98552" lon="2.87174667">
        <ele>322.0</ele>
        <time>2021-08-21T07:31:23.012Z</time>
      </trkpt>
      <trkpt lat="41.98554333" lon="2.87172833">
        <ele>322.0</ele>
        <time>2021-08-21T07:31:24.000Z</time>
      </trkpt>
      <trkpt lat="41.98554333" lon="2.87172833">
        <ele>322.0</ele>
        <time>2021-08-21T07:31:25.008Z</time>
      </trkpt>
      <trkpt lat="41.98559" lon="2.87169667">
        <ele>323.0</ele>
        <time>2021-08-21T07:31:25.992Z</time>
      </trkpt>
      <trkpt lat="41.98559" lon="2.87169667">
        <ele>323.0</ele>
        <time>2021-08-21T07:31:26.997Z</time>
      </trkpt>
      <trkpt lat="41.98564" lon="2.87167167">
        <ele>323.0</ele>
        <time>2021-08-21T07:31:28.029Z</time>
      </trkpt>
      <trkpt lat="41.98567" lon="2.87166">
        <ele>323.0</ele>
        <time>2021-08-21T07:31:28.996Z</time>
      </trkpt>
      <trkpt lat="41.98570167" lon="2.87165333">
        <ele>324.0</ele>
        <time>2021-08-21T07:31:30.010Z</time>
      </trkpt>
      <trkpt lat="41.98570167" lon="2.87165333">
        <ele>324.0</ele>
        <time>2021-08-21T07:31:31.016Z</time>
      </trkpt>
      <trkpt lat="41.98576833" lon="2.871645">
        <ele>324.0</ele>
        <time>2021-08-21T07:31:32.009Z</time>
      </trkpt>
      <trkpt lat="41.98579833" lon="2.87164167">
        <ele>324.0</ele>
        <time>2021-08-21T07:31:33.018Z</time>
      </trkpt>
      <trkpt lat="41.98579833" lon="2.87164167">
        <ele>324.0</ele>
        <time>2021-08-21T07:31:34.025Z</time>
      </trkpt>
      <trkpt lat="41.98585833" lon="2.87164167">
        <ele>325.0</ele>
        <time>2021-08-21T07:31:35.006Z</time>
      </trkpt>
      <trkpt lat="41.98585833" lon="2.87164167">
        <ele>325.0</ele>
        <time>2021-08-21T07:31:36.012Z</time>
      </trkpt>
      <trkpt lat="41.98591833" lon="2.87165167">
        <ele>325.0</ele>
        <time>2021-08-21T07:31:37.000Z</time>
      </trkpt>
      <trkpt lat="41.98591833" lon="2.87165167">
        <ele>325.0</ele>
        <time>2021-08-21T07:31:38.005Z</time>
      </trkpt>
      <trkpt lat="41.98596833" lon="2.87165833">
        <ele>326.0</ele>
        <time>2021-08-21T07:31:39.024Z</time>
      </trkpt>
      <trkpt lat="41.985995" lon="2.87166">
        <ele>326.0</ele>
        <time>2021-08-21T07:31:40.010Z</time>
      </trkpt>
      <trkpt lat="41.985995" lon="2.87166">
        <ele>326.0</ele>
        <time>2021-08-21T07:31:41.016Z</time>
      </trkpt>
      <trkpt lat="41.98605167" lon="2.87166667">
        <ele>326.0</ele>
        <time>2021-08-21T07:31:42.030Z</time>
      </trkpt>
      <trkpt lat="41.98608333" lon="2.87167333">
        <ele>327.0</ele>
        <time>2021-08-21T07:31:43.008Z</time>
      </trkpt>
      <trkpt lat="41.98608333" lon="2.87167333">
        <ele>327.0</ele>
        <time>2021-08-21T07:31:44.014Z</time>
      </trkpt>
      <trkpt lat="41.98614667" lon="2.87166833">
        <ele>327.0</ele>
        <time>2021-08-21T07:31:45.031Z</time>
      </trkpt>
      <trkpt lat="41.98614667" lon="2.87166833">
        <ele>327.0</ele>
        <time>2021-08-21T07:31:45.997Z</time>
      </trkpt>
      <trkpt lat="41.98620333" lon="2.87166333">
        <ele>328.0</ele>
        <time>2021-08-21T07:31:47.027Z</time>
      </trkpt>
      <trkpt lat="41.98623" lon="2.871645">
        <ele>328.0</ele>
        <time>2021-08-21T07:31:48.004Z</time>
      </trkpt>
      <trkpt lat="41.98623" lon="2.871645">
        <ele>328.0</ele>
        <time>2021-08-21T07:31:49.009Z</time>
      </trkpt>
      <trkpt lat="41.98628" lon="2.87160833">
        <ele>328.0</ele>
        <time>2021-08-21T07:31:50.027Z</time>
      </trkpt>
      <trkpt lat="41.98630167" lon="2.87159667">
        <ele>328.0</ele>
        <time>2021-08-21T07:31:51.005Z</time>
      </trkpt>
      <trkpt lat="41.98630167" lon="2.87159667">
        <ele>328.0</ele>
        <time>2021-08-21T07:31:52.010Z</time>
      </trkpt>
      <trkpt lat="41.98634833" lon="2.87159333">
        <ele>328.0</ele>
        <time>2021-08-21T07:31:53.027Z</time>
      </trkpt>
      <trkpt lat="41.986375" lon="2.87159333">
        <ele>328.0</ele>
        <time>2021-08-21T07:31:54.031Z</time>
      </trkpt>
      <trkpt lat="41.986375" lon="2.87159333">
        <ele>328.0</ele>
        <time>2021-08-21T07:31:54.997Z</time>
      </trkpt>
      <trkpt lat="41.98643667" lon="2.87158833">
        <ele>328.0</ele>
        <time>2021-08-21T07:31:56.024Z</time>
      </trkpt>
      <trkpt lat="41.98647667" lon="2.87157667">
        <ele>328.0</ele>
        <time>2021-08-21T07:31:57.022Z</time>
      </trkpt>
      <trkpt lat="41.98647667" lon="2.87157667">
        <ele>328.0</ele>
        <time>2021-08-21T07:31:57.992Z</time>
      </trkpt>
      <trkpt lat="41.98656667" lon="2.87155167">
        <ele>328.0</ele>
        <time>2021-08-21T07:31:59.015Z</time>
      </trkpt>
      <trkpt lat="41.98661833" lon="2.87153667">
        <ele>328.0</ele>
        <time>2021-08-21T07:32:00.031Z</time>
      </trkpt>
      <trkpt lat="41.98667167" lon="2.87152833">
        <ele>328.0</ele>
        <time>2021-08-21T07:32:01.007Z</time>
      </trkpt>
      <trkpt lat="41.98667167" lon="2.87152833">
        <ele>328.0</ele>
        <time>2021-08-21T07:32:02.030Z</time>
      </trkpt>
      <trkpt lat="41.98678333" lon="2.87153">
        <ele>327.0</ele>
        <time>2021-08-21T07:32:03.020Z</time>
      </trkpt>
      <trkpt lat="41.98678333" lon="2.87153">
        <ele>327.0</ele>
        <time>2021-08-21T07:32:04.027Z</time>
      </trkpt>
      <trkpt lat="41.98690167" lon="2.87154">
        <ele>326.0</ele>
        <time>2021-08-21T07:32:05.005Z</time>
      </trkpt>
      <trkpt lat="41.98690167" lon="2.87154">
        <ele>326.0</ele>
        <time>2021-08-21T07:32:06.010Z</time>
      </trkpt>
      <trkpt lat="41.98701833" lon="2.87157667">
        <ele>325.0</ele>
        <time>2021-08-21T07:32:07.027Z</time>
      </trkpt>
      <trkpt lat="41.98701833" lon="2.87157667">
        <ele>325.0</ele>
        <time>2021-08-21T07:32:07.993Z</time>
      </trkpt>
      <trkpt lat="41.987115" lon="2.87167">
        <ele>325.0</ele>
        <time>2021-08-21T07:32:08.996Z</time>
      </trkpt>
      <trkpt lat="41.987115" lon="2.87167">
        <ele>325.0</ele>
        <time>2021-08-21T07:32:10.019Z</time>
      </trkpt>
      <trkpt lat="41.98721" lon="2.87177167">
        <ele>325.0</ele>
        <time>2021-08-21T07:32:11.026Z</time>
      </trkpt>
      <trkpt lat="41.98721" lon="2.87177167">
        <ele>325.0</ele>
        <time>2021-08-21T07:32:12.031Z</time>
      </trkpt>
      <trkpt lat="41.98728667" lon="2.87184167">
        <ele>325.0</ele>
        <time>2021-08-21T07:32:13.010Z</time>
      </trkpt>
      <trkpt lat="41.98728667" lon="2.87184167">
        <ele>325.0</ele>
        <time>2021-08-21T07:32:14.015Z</time>
      </trkpt>
      <trkpt lat="41.987355" lon="2.87186667">
        <ele>325.0</ele>
        <time>2021-08-21T07:32:15.000Z</time>
      </trkpt>
      <trkpt lat="41.987355" lon="2.87186667">
        <ele>325.0</ele>
        <time>2021-08-21T07:32:16.004Z</time>
      </trkpt>
      <trkpt lat="41.987425" lon="2.871855">
        <ele>325.0</ele>
        <time>2021-08-21T07:32:17.027Z</time>
      </trkpt>
      <trkpt lat="41.987425" lon="2.871855">
        <ele>325.0</ele>
        <time>2021-08-21T07:32:17.993Z</time>
      </trkpt>
      <trkpt lat="41.98749333" lon="2.87180833">
        <ele>325.0</ele>
        <time>2021-08-21T07:32:19.004Z</time>
      </trkpt>
      <trkpt lat="41.98752333" lon="2.87178667">
        <ele>325.0</ele>
        <time>2021-08-21T07:32:20.029Z</time>
      </trkpt>
      <trkpt lat="41.98756" lon="2.87176333">
        <ele>325.0</ele>
        <time>2021-08-21T07:32:21.005Z</time>
      </trkpt>
      <trkpt lat="41.98756" lon="2.87176333">
        <ele>325.0</ele>
        <time>2021-08-21T07:32:22.011Z</time>
      </trkpt>
      <trkpt lat="41.98763333" lon="2.87173333">
        <ele>325.0</ele>
        <time>2021-08-21T07:32:23.030Z</time>
      </trkpt>
      <trkpt lat="41.98763333" lon="2.87173333">
        <ele>325.0</ele>
        <time>2021-08-21T07:32:23.995Z</time>
      </trkpt>
      <trkpt lat="41.98769833" lon="2.8717">
        <ele>325.0</ele>
        <time>2021-08-21T07:32:25.022Z</time>
      </trkpt>
      <trkpt lat="41.98773333" lon="2.87168167">
        <ele>325.0</ele>
        <time>2021-08-21T07:32:26.002Z</time>
      </trkpt>
      <trkpt lat="41.98776667" lon="2.871665">
        <ele>326.0</ele>
        <time>2021-08-21T07:32:27.015Z</time>
      </trkpt>
      <trkpt lat="41.98776667" lon="2.871665">
        <ele>326.0</ele>
        <time>2021-08-21T07:32:28.021Z</time>
      </trkpt>
      <trkpt lat="41.98782667" lon="2.87164667">
        <ele>326.0</ele>
        <time>2021-08-21T07:32:29.006Z</time>
      </trkpt>
      <trkpt lat="41.98782667" lon="2.87164667">
        <ele>326.0</ele>
        <time>2021-08-21T07:32:30.012Z</time>
      </trkpt>
      <trkpt lat="41.98788667" lon="2.87162">
        <ele>327.0</ele>
        <time>2021-08-21T07:32:30.993Z</time>
      </trkpt>
      <trkpt lat="41.98792667" lon="2.871605">
        <ele>327.0</ele>
        <time>2021-08-21T07:32:32.005Z</time>
      </trkpt>
      <trkpt lat="41.987965" lon="2.871585">
        <ele>327.0</ele>
        <time>2021-08-21T07:32:33.021Z</time>
      </trkpt>
      <trkpt lat="41.987965" lon="2.871585">
        <ele>327.0</ele>
        <time>2021-08-21T07:32:34.027Z</time>
      </trkpt>
      <trkpt lat="41.98804" lon="2.871525">
        <ele>327.0</ele>
        <time>2021-08-21T07:32:35.010Z</time>
      </trkpt>
      <trkpt lat="41.98804" lon="2.871525">
        <ele>327.0</ele>
        <time>2021-08-21T07:32:36.015Z</time>
      </trkpt>
      <trkpt lat="41.98811167" lon="2.871435">
        <ele>328.0</ele>
        <time>2021-08-21T07:32:36.995Z</time>
      </trkpt>
      <trkpt lat="41.98811167" lon="2.871435">
        <ele>328.0</ele>
        <time>2021-08-21T07:32:38.000Z</time>
      </trkpt>
      <trkpt lat="41.98817667" lon="2.871325">
        <ele>328.0</ele>
        <time>2021-08-21T07:32:39.031Z</time>
      </trkpt>
      <trkpt lat="41.98817667" lon="2.871325">
        <ele>328.0</ele>
        <time>2021-08-21T07:32:39.997Z</time>
      </trkpt>
      <trkpt lat="41.98825667" lon="2.87120333">
        <ele>329.0</ele>
        <time>2021-08-21T07:32:41.013Z</time>
      </trkpt>
      <trkpt lat="41.98825667" lon="2.87120333">
        <ele>329.0</ele>
        <time>2021-08-21T07:32:42.018Z</time>
      </trkpt>
      <trkpt lat="41.98832667" lon="2.87107667">
        <ele>329.0</ele>
        <time>2021-08-21T07:32:42.996Z</time>
      </trkpt>
      <trkpt lat="41.98832667" lon="2.87107667">
        <ele>329.0</ele>
        <time>2021-08-21T07:32:44.007Z</time>
      </trkpt>
      <trkpt lat="41.98837167" lon="2.87098333">
        <ele>329.0</ele>
        <time>2021-08-21T07:32:44.994Z</time>
      </trkpt>
      <trkpt lat="41.98837167" lon="2.87098333">
        <ele>329.0</ele>
        <time>2021-08-21T07:32:46.000Z</time>
      </trkpt>
      <trkpt lat="41.98841833" lon="2.87087833">
        <ele>329.0</ele>
        <time>2021-08-21T07:32:47.013Z</time>
      </trkpt>
      <trkpt lat="41.98841833" lon="2.87087833">
        <ele>329.0</ele>
        <time>2021-08-21T07:32:48.019Z</time>
      </trkpt>
      <trkpt lat="41.988475" lon="2.87079833">
        <ele>329.0</ele>
        <time>2021-08-21T07:32:48.996Z</time>
      </trkpt>
      <trkpt lat="41.98850833" lon="2.87077333">
        <ele>329.0</ele>
        <time>2021-08-21T07:32:50.016Z</time>
      </trkpt>
      <trkpt lat="41.988555" lon="2.87078333">
        <ele>328.0</ele>
        <time>2021-08-21T07:32:51.002Z</time>
      </trkpt>
      <trkpt lat="41.988555" lon="2.87078333">
        <ele>328.0</ele>
        <time>2021-08-21T07:32:52.008Z</time>
      </trkpt>
      <trkpt lat="41.98861167" lon="2.87086167">
        <ele>328.0</ele>
        <time>2021-08-21T07:32:53.021Z</time>
      </trkpt>
      <trkpt lat="41.98861167" lon="2.87086167">
        <ele>328.0</ele>
        <time>2021-08-21T07:32:54.026Z</time>
      </trkpt>
      <trkpt lat="41.98863333" lon="2.87095833">
        <ele>328.0</ele>
        <time>2021-08-21T07:32:55.001Z</time>
      </trkpt>
      <trkpt lat="41.98864667" lon="2.87102333">
        <ele>328.0</ele>
        <time>2021-08-21T07:32:56.027Z</time>
      </trkpt>
      <trkpt lat="41.98866" lon="2.87109667">
        <ele>328.0</ele>
        <time>2021-08-21T07:32:57.007Z</time>
      </trkpt>
      <trkpt lat="41.98866" lon="2.87109667">
        <ele>328.0</ele>
        <time>2021-08-21T07:32:58.012Z</time>
      </trkpt>
      <trkpt lat="41.98867833" lon="2.87124833">
        <ele>327.0</ele>
        <time>2021-08-21T07:32:58.993Z</time>
      </trkpt>
      <trkpt lat="41.98867833" lon="2.87124833">
        <ele>327.0</ele>
        <time>2021-08-21T07:32:59.998Z</time>
      </trkpt>
      <trkpt lat="41.98873833" lon="2.87141833">
        <ele>326.0</ele>
        <time>2021-08-21T07:33:01.003Z</time>
      </trkpt>
      <trkpt lat="41.98876833" lon="2.87150333">
        <ele>326.0</ele>
        <time>2021-08-21T07:33:02.021Z</time>
      </trkpt>
      <trkpt lat="41.98876833" lon="2.87150333">
        <ele>326.0</ele>
        <time>2021-08-21T07:33:03.030Z</time>
      </trkpt>
      <trkpt lat="41.988805" lon="2.87166667">
        <ele>325.0</ele>
        <time>2021-08-21T07:33:04.012Z</time>
      </trkpt>
      <trkpt lat="41.988805" lon="2.87166667">
        <ele>325.0</ele>
        <time>2021-08-21T07:33:05.016Z</time>
      </trkpt>
      <trkpt lat="41.98882167" lon="2.871845">
        <ele>324.0</ele>
        <time>2021-08-21T07:33:06.011Z</time>
      </trkpt>
      <trkpt lat="41.98882333" lon="2.871935">
        <ele>324.0</ele>
        <time>2021-08-21T07:33:06.995Z</time>
      </trkpt>
      <trkpt lat="41.98882333" lon="2.871935">
        <ele>324.0</ele>
        <time>2021-08-21T07:33:08.000Z</time>
      </trkpt>
      <trkpt lat="41.98883333" lon="2.87211167">
        <ele>324.0</ele>
        <time>2021-08-21T07:33:09.019Z</time>
      </trkpt>
      <trkpt lat="41.98883333" lon="2.87211167">
        <ele>324.0</ele>
        <time>2021-08-21T07:33:10.031Z</time>
      </trkpt>
      <trkpt lat="41.98885833" lon="2.87228833">
        <ele>323.0</ele>
        <time>2021-08-21T07:33:11.009Z</time>
      </trkpt>
      <trkpt lat="41.98885833" lon="2.87228833">
        <ele>323.0</ele>
        <time>2021-08-21T07:33:12.015Z</time>
      </trkpt>
      <trkpt lat="41.98889667" lon="2.87246">
        <ele>322.0</ele>
        <time>2021-08-21T07:33:13.028Z</time>
      </trkpt>
      <trkpt lat="41.98889667" lon="2.87246">
        <ele>322.0</ele>
        <time>2021-08-21T07:33:13.993Z</time>
      </trkpt>
      <trkpt lat="41.98893833" lon="2.87262667">
        <ele>322.0</ele>
        <time>2021-08-21T07:33:15.028Z</time>
      </trkpt>
      <trkpt lat="41.98896333" lon="2.87269833">
        <ele>321.0</ele>
        <time>2021-08-21T07:33:16.004Z</time>
      </trkpt>
      <trkpt lat="41.98896333" lon="2.87269833">
        <ele>321.0</ele>
        <time>2021-08-21T07:33:17.009Z</time>
      </trkpt>
      <trkpt lat="41.98899667" lon="2.87283">
        <ele>321.0</ele>
        <time>2021-08-21T07:33:17.995Z</time>
      </trkpt>
      <trkpt lat="41.989005" lon="2.87289833">
        <ele>320.0</ele>
        <time>2021-08-21T07:33:19.011Z</time>
      </trkpt>
      <trkpt lat="41.989005" lon="2.87289833">
        <ele>320.0</ele>
        <time>2021-08-21T07:33:20.017Z</time>
      </trkpt>
      <trkpt lat="41.98901167" lon="2.87300333">
        <ele>319.0</ele>
        <time>2021-08-21T07:33:21.003Z</time>
      </trkpt>
      <trkpt lat="41.98901167" lon="2.87300333">
        <ele>319.0</ele>
        <time>2021-08-21T07:33:22.009Z</time>
      </trkpt>
      <trkpt lat="41.98907" lon="2.87311667">
        <ele>317.0</ele>
        <time>2021-08-21T07:33:23.021Z</time>
      </trkpt>
      <trkpt lat="41.98907" lon="2.87311667">
        <ele>317.0</ele>
        <time>2021-08-21T07:33:24.031Z</time>
      </trkpt>
      <trkpt lat="41.98916833" lon="2.87317">
        <ele>316.0</ele>
        <time>2021-08-21T07:33:25.008Z</time>
      </trkpt>
      <trkpt lat="41.98916833" lon="2.87317">
        <ele>316.0</ele>
        <time>2021-08-21T07:33:26.014Z</time>
      </trkpt>
      <trkpt lat="41.98926833" lon="2.87317">
        <ele>316.0</ele>
        <time>2021-08-21T07:33:27.026Z</time>
      </trkpt>
      <trkpt lat="41.98926833" lon="2.87317">
        <ele>316.0</ele>
        <time>2021-08-21T07:33:27.993Z</time>
      </trkpt>
      <trkpt lat="41.98936833" lon="2.87319833">
        <ele>315.0</ele>
        <time>2021-08-21T07:33:29.024Z</time>
      </trkpt>
      <trkpt lat="41.98936833" lon="2.87319833">
        <ele>315.0</ele>
        <time>2021-08-21T07:33:30.030Z</time>
      </trkpt>
      <trkpt lat="41.98945833" lon="2.87321667">
        <ele>315.0</ele>
        <time>2021-08-21T07:33:30.999Z</time>
      </trkpt>
      <trkpt lat="41.98945833" lon="2.87321667">
        <ele>315.0</ele>
        <time>2021-08-21T07:33:32.004Z</time>
      </trkpt>
      <trkpt lat="41.98955833" lon="2.87322833">
        <ele>314.0</ele>
        <time>2021-08-21T07:33:33.023Z</time>
      </trkpt>
      <trkpt lat="41.98955833" lon="2.87322833">
        <ele>314.0</ele>
        <time>2021-08-21T07:33:34.028Z</time>
      </trkpt>
      <trkpt lat="41.98964667" lon="2.87321">
        <ele>314.0</ele>
        <time>2021-08-21T07:33:34.997Z</time>
      </trkpt>
      <trkpt lat="41.98968667" lon="2.873195">
        <ele>314.0</ele>
        <time>2021-08-21T07:33:36.023Z</time>
      </trkpt>
      <trkpt lat="41.989725" lon="2.87316667">
        <ele>313.0</ele>
        <time>2021-08-21T07:33:37.004Z</time>
      </trkpt>
      <trkpt lat="41.989725" lon="2.87316667">
        <ele>313.0</ele>
        <time>2021-08-21T07:33:38.010Z</time>
      </trkpt>
      <trkpt lat="41.98977" lon="2.87305333">
        <ele>313.0</ele>
        <time>2021-08-21T07:33:38.997Z</time>
      </trkpt>
      <trkpt lat="41.98977" lon="2.87305333">
        <ele>313.0</ele>
        <time>2021-08-21T07:33:40.003Z</time>
      </trkpt>
      <trkpt lat="41.9898" lon="2.87290333">
        <ele>312.0</ele>
        <time>2021-08-21T07:33:41.021Z</time>
      </trkpt>
      <trkpt lat="41.9898" lon="2.87290333">
        <ele>312.0</ele>
        <time>2021-08-21T07:33:42.027Z</time>
      </trkpt>
      <trkpt lat="41.98986167" lon="2.872775">
        <ele>312.0</ele>
        <time>2021-08-21T07:33:43.017Z</time>
      </trkpt>
      <trkpt lat="41.9899" lon="2.87272167">
        <ele>312.0</ele>
        <time>2021-08-21T07:33:44.012Z</time>
      </trkpt>
      <trkpt lat="41.9899" lon="2.87272167">
        <ele>312.0</ele>
        <time>2021-08-21T07:33:45.018Z</time>
      </trkpt>
      <trkpt lat="41.989985" lon="2.87263833">
        <ele>312.0</ele>
        <time>2021-08-21T07:33:45.999Z</time>
      </trkpt>
      <trkpt lat="41.989985" lon="2.87263833">
        <ele>312.0</ele>
        <time>2021-08-21T07:33:47.005Z</time>
      </trkpt>
      <trkpt lat="41.99008" lon="2.87255">
        <ele>312.0</ele>
        <time>2021-08-21T07:33:48.025Z</time>
      </trkpt>
      <trkpt lat="41.99012167" lon="2.87250333">
        <ele>313.0</ele>
        <time>2021-08-21T07:33:49.003Z</time>
      </trkpt>
      <trkpt lat="41.99012167" lon="2.87250333">
        <ele>313.0</ele>
        <time>2021-08-21T07:33:50.009Z</time>
      </trkpt>
      <trkpt lat="41.99019" lon="2.87239333">
        <ele>313.0</ele>
        <time>2021-08-21T07:33:51.020Z</time>
      </trkpt>
      <trkpt lat="41.99019" lon="2.87239333">
        <ele>313.0</ele>
        <time>2021-08-21T07:33:52.026Z</time>
      </trkpt>
      <trkpt lat="41.99020833" lon="2.87228667">
        <ele>313.0</ele>
        <time>2021-08-21T07:33:53.014Z</time>
      </trkpt>
      <trkpt lat="41.99020833" lon="2.87228667">
        <ele>313.0</ele>
        <time>2021-08-21T07:33:54.019Z</time>
      </trkpt>
      <trkpt lat="41.99021833" lon="2.87219667">
        <ele>313.0</ele>
        <time>2021-08-21T07:33:55.001Z</time>
      </trkpt>
      <trkpt lat="41.99021833" lon="2.87219667">
        <ele>313.0</ele>
        <time>2021-08-21T07:33:56.006Z</time>
      </trkpt>
      <trkpt lat="41.99023667" lon="2.87208667">
        <ele>313.0</ele>
        <time>2021-08-21T07:33:57.030Z</time>
      </trkpt>
      <trkpt lat="41.99023667" lon="2.87208667">
        <ele>313.0</ele>
        <time>2021-08-21T07:33:57.996Z</time>
      </trkpt>
      <trkpt lat="41.99025" lon="2.87198833">
        <ele>313.0</ele>
        <time>2021-08-21T07:33:59.005Z</time>
      </trkpt>
      <trkpt lat="41.99025333" lon="2.87194667">
        <ele>313.0</ele>
        <time>2021-08-21T07:34:00.026Z</time>
      </trkpt>
      <trkpt lat="41.99025833" lon="2.8719">
        <ele>313.0</ele>
        <time>2021-08-21T07:34:01.002Z</time>
      </trkpt>
      <trkpt lat="41.99025833" lon="2.8719">
        <ele>313.0</ele>
        <time>2021-08-21T07:34:02.020Z</time>
      </trkpt>
      <trkpt lat="41.990255" lon="2.87181167">
        <ele>313.0</ele>
        <time>2021-08-21T07:34:03.000Z</time>
      </trkpt>
      <trkpt lat="41.990255" lon="2.87181167">
        <ele>313.0</ele>
        <time>2021-08-21T07:34:04.006Z</time>
      </trkpt>
      <trkpt lat="41.99024333" lon="2.87171">
        <ele>313.0</ele>
        <time>2021-08-21T07:34:05.025Z</time>
      </trkpt>
      <trkpt lat="41.990235" lon="2.87165833">
        <ele>313.0</ele>
        <time>2021-08-21T07:34:06.005Z</time>
      </trkpt>
      <trkpt lat="41.990235" lon="2.87165833">
        <ele>313.0</ele>
        <time>2021-08-21T07:34:07.011Z</time>
      </trkpt>
      <trkpt lat="41.99022667" lon="2.87155833">
        <ele>313.0</ele>
        <time>2021-08-21T07:34:08.031Z</time>
      </trkpt>
      <trkpt lat="41.99022667" lon="2.87155833">
        <ele>313.0</ele>
        <time>2021-08-21T07:34:08.997Z</time>
      </trkpt>
      <trkpt lat="41.99023333" lon="2.87145833">
        <ele>314.0</ele>
        <time>2021-08-21T07:34:10.023Z</time>
      </trkpt>
      <trkpt lat="41.99023333" lon="2.87145833">
        <ele>314.0</ele>
        <time>2021-08-21T07:34:11.029Z</time>
      </trkpt>
      <trkpt lat="41.99028167" lon="2.871385">
        <ele>314.0</ele>
        <time>2021-08-21T07:34:12.005Z</time>
      </trkpt>
      <trkpt lat="41.99028167" lon="2.871385">
        <ele>314.0</ele>
        <time>2021-08-21T07:34:13.010Z</time>
      </trkpt>
      <trkpt lat="41.99036" lon="2.87135">
        <ele>314.0</ele>
        <time>2021-08-21T07:34:13.993Z</time>
      </trkpt>
      <trkpt lat="41.99040167" lon="2.871335">
        <ele>314.0</ele>
        <time>2021-08-21T07:34:15.014Z</time>
      </trkpt>
      <trkpt lat="41.99040167" lon="2.871335">
        <ele>314.0</ele>
        <time>2021-08-21T07:34:16.019Z</time>
      </trkpt>
      <trkpt lat="41.990465" lon="2.87129167">
        <ele>315.0</ele>
        <time>2021-08-21T07:34:17.000Z</time>
      </trkpt>
      <trkpt lat="41.990465" lon="2.87129167">
        <ele>315.0</ele>
        <time>2021-08-21T07:34:18.006Z</time>
      </trkpt>
      <trkpt lat="41.99052" lon="2.87121">
        <ele>315.0</ele>
        <time>2021-08-21T07:34:19.009Z</time>
      </trkpt>
      <trkpt lat="41.99052" lon="2.87121">
        <ele>315.0</ele>
        <time>2021-08-21T07:34:20.014Z</time>
      </trkpt>
      <trkpt lat="41.99058" lon="2.87112333">
        <ele>316.0</ele>
        <time>2021-08-21T07:34:20.992Z</time>
      </trkpt>
      <trkpt lat="41.99058" lon="2.87112333">
        <ele>316.0</ele>
        <time>2021-08-21T07:34:21.997Z</time>
      </trkpt>
      <trkpt lat="41.99066667" lon="2.87104667">
        <ele>316.0</ele>
        <time>2021-08-21T07:34:23.016Z</time>
      </trkpt>
      <trkpt lat="41.99066667" lon="2.87104667">
        <ele>316.0</ele>
        <time>2021-08-21T07:34:24.022Z</time>
      </trkpt>
      <trkpt lat="41.99073333" lon="2.87105333">
        <ele>317.0</ele>
        <time>2021-08-21T07:34:25.003Z</time>
      </trkpt>
      <trkpt lat="41.99073333" lon="2.87105333">
        <ele>317.0</ele>
        <time>2021-08-21T07:34:26.008Z</time>
      </trkpt>
      <trkpt lat="41.990785" lon="2.87111">
        <ele>317.0</ele>
        <time>2021-08-21T07:34:26.998Z</time>
      </trkpt>
      <trkpt lat="41.990785" lon="2.87111">
        <ele>317.0</ele>
        <time>2021-08-21T07:34:28.004Z</time>
      </trkpt>
      <trkpt lat="41.99082667" lon="2.871155">
        <ele>318.0</ele>
        <time>2021-08-21T07:34:28.992Z</time>
      </trkpt>
      <trkpt lat="41.99082667" lon="2.871155">
        <ele>318.0</ele>
        <time>2021-08-21T07:34:29.997Z</time>
      </trkpt>
      <trkpt lat="41.99086" lon="2.87118167">
        <ele>319.0</ele>
        <time>2021-08-21T07:34:31.020Z</time>
      </trkpt>
      <trkpt lat="41.99086" lon="2.87118167">
        <ele>319.0</ele>
        <time>2021-08-21T07:34:32.027Z</time>
      </trkpt>
      <trkpt lat="41.99088667" lon="2.871205">
        <ele>319.0</ele>
        <time>2021-08-21T07:34:33.013Z</time>
      </trkpt>
      <trkpt lat="41.99088667" lon="2.871205">
        <ele>319.0</ele>
        <time>2021-08-21T07:34:34.018Z</time>
      </trkpt>
      <trkpt lat="41.99091667" lon="2.87123">
        <ele>320.0</ele>
        <time>2021-08-21T07:34:35.011Z</time>
      </trkpt>
      <trkpt lat="41.99092833" lon="2.871245">
        <ele>320.0</ele>
        <time>2021-08-21T07:34:36.031Z</time>
      </trkpt>
      <trkpt lat="41.99092833" lon="2.871245">
        <ele>320.0</ele>
        <time>2021-08-21T07:34:36.997Z</time>
      </trkpt>
      <trkpt lat="41.99095667" lon="2.871275">
        <ele>321.0</ele>
        <time>2021-08-21T07:34:38.026Z</time>
      </trkpt>
      <trkpt lat="41.99095667" lon="2.871275">
        <ele>321.0</ele>
        <time>2021-08-21T07:34:38.992Z</time>
      </trkpt>
      <trkpt lat="41.99097667" lon="2.87129833">
        <ele>321.0</ele>
        <time>2021-08-21T07:34:40.027Z</time>
      </trkpt>
      <trkpt lat="41.99097667" lon="2.87129833">
        <ele>321.0</ele>
        <time>2021-08-21T07:34:40.994Z</time>
      </trkpt>
      <trkpt lat="41.99098833" lon="2.87131667">
        <ele>322.0</ele>
        <time>2021-08-21T07:34:42.010Z</time>
      </trkpt>
      <trkpt lat="41.990995" lon="2.87133">
        <ele>322.0</ele>
        <time>2021-08-21T07:34:42.992Z</time>
      </trkpt>
      <trkpt lat="41.990995" lon="2.87133">
        <ele>322.0</ele>
        <time>2021-08-21T07:34:43.997Z</time>
      </trkpt>
      <trkpt lat="41.991015" lon="2.871355">
        <ele>322.0</ele>
        <time>2021-08-21T07:34:45.016Z</time>
      </trkpt>
      <trkpt lat="41.991015" lon="2.871355">
        <ele>322.0</ele>
        <time>2021-08-21T07:34:46.022Z</time>
      </trkpt>
      <trkpt lat="41.99103833" lon="2.87138167">
        <ele>322.0</ele>
        <time>2021-08-21T07:34:46.999Z</time>
      </trkpt>
      <trkpt lat="41.99103833" lon="2.87138167">
        <ele>322.0</ele>
        <time>2021-08-21T07:34:48.004Z</time>
      </trkpt>
      <trkpt lat="41.99106167" lon="2.87141833">
        <ele>323.0</ele>
        <time>2021-08-21T07:34:49.000Z</time>
      </trkpt>
      <trkpt lat="41.99106167" lon="2.87141833">
        <ele>323.0</ele>
        <time>2021-08-21T07:34:50.005Z</time>
      </trkpt>
      <trkpt lat="41.991085" lon="2.871455">
        <ele>323.0</ele>
        <time>2021-08-21T07:34:51.023Z</time>
      </trkpt>
      <trkpt lat="41.991085" lon="2.871455">
        <ele>323.0</ele>
        <time>2021-08-21T07:34:52.029Z</time>
      </trkpt>
      <trkpt lat="41.99111" lon="2.87148667">
        <ele>323.0</ele>
        <time>2021-08-21T07:34:53.025Z</time>
      </trkpt>
      <trkpt lat="41.99111" lon="2.87148667">
        <ele>323.0</ele>
        <time>2021-08-21T07:34:54.030Z</time>
      </trkpt>
      <trkpt lat="41.99113167" lon="2.87153">
        <ele>324.0</ele>
        <time>2021-08-21T07:34:55.019Z</time>
      </trkpt>
      <trkpt lat="41.99114333" lon="2.871545">
        <ele>324.0</ele>
        <time>2021-08-21T07:34:56.000Z</time>
      </trkpt>
      <trkpt lat="41.991155" lon="2.87155667">
        <ele>324.0</ele>
        <time>2021-08-21T07:34:57.024Z</time>
      </trkpt>
      <trkpt lat="41.991155" lon="2.87155667">
        <ele>324.0</ele>
        <time>2021-08-21T07:34:58.030Z</time>
      </trkpt>
      <trkpt lat="41.99118667" lon="2.87157333">
        <ele>325.0</ele>
        <time>2021-08-21T07:34:59.012Z</time>
      </trkpt>
      <trkpt lat="41.99118667" lon="2.87157333">
        <ele>325.0</ele>
        <time>2021-08-21T07:35:00.017Z</time>
      </trkpt>
      <trkpt lat="41.99122833" lon="2.87158333">
        <ele>325.0</ele>
        <time>2021-08-21T07:35:00.993Z</time>
      </trkpt>
      <trkpt lat="41.99122833" lon="2.87158333">
        <ele>325.0</ele>
        <time>2021-08-21T07:35:02.011Z</time>
      </trkpt>
      <trkpt lat="41.99126333" lon="2.871585">
        <ele>326.0</ele>
        <time>2021-08-21T07:35:03.005Z</time>
      </trkpt>
      <trkpt lat="41.99126333" lon="2.871585">
        <ele>326.0</ele>
        <time>2021-08-21T07:35:04.011Z</time>
      </trkpt>
      <trkpt lat="41.99129833" lon="2.87158667">
        <ele>326.0</ele>
        <time>2021-08-21T07:35:05.029Z</time>
      </trkpt>
      <trkpt lat="41.99131667" lon="2.87159">
        <ele>326.0</ele>
        <time>2021-08-21T07:35:06.004Z</time>
      </trkpt>
      <trkpt lat="41.99133167" lon="2.87160167">
        <ele>327.0</ele>
        <time>2021-08-21T07:35:07.022Z</time>
      </trkpt>
      <trkpt lat="41.99133167" lon="2.87160167">
        <ele>327.0</ele>
        <time>2021-08-21T07:35:08.029Z</time>
      </trkpt>
      <trkpt lat="41.99135667" lon="2.87161833">
        <ele>328.0</ele>
        <time>2021-08-21T07:35:09.008Z</time>
      </trkpt>
      <trkpt lat="41.99135667" lon="2.87161833">
        <ele>328.0</ele>
        <time>2021-08-21T07:35:10.013Z</time>
      </trkpt>
      <trkpt lat="41.99138167" lon="2.87164">
        <ele>328.0</ele>
        <time>2021-08-21T07:35:11.012Z</time>
      </trkpt>
      <trkpt lat="41.99139167" lon="2.87165">
        <ele>329.0</ele>
        <time>2021-08-21T07:35:12.022Z</time>
      </trkpt>
      <trkpt lat="41.99139167" lon="2.87165">
        <ele>329.0</ele>
        <time>2021-08-21T07:35:13.030Z</time>
      </trkpt>
      <trkpt lat="41.99141333" lon="2.87165833">
        <ele>329.0</ele>
        <time>2021-08-21T07:35:14.012Z</time>
      </trkpt>
      <trkpt lat="41.991425" lon="2.87166">
        <ele>330.0</ele>
        <time>2021-08-21T07:35:14.994Z</time>
      </trkpt>
      <trkpt lat="41.991425" lon="2.87166">
        <ele>330.0</ele>
        <time>2021-08-21T07:35:16.000Z</time>
      </trkpt>
      <trkpt lat="41.99145" lon="2.87165833">
        <ele>330.0</ele>
        <time>2021-08-21T07:35:17.019Z</time>
      </trkpt>
      <trkpt lat="41.99145" lon="2.87165833">
        <ele>330.0</ele>
        <time>2021-08-21T07:35:18.025Z</time>
      </trkpt>
      <trkpt lat="41.99148" lon="2.871645">
        <ele>330.0</ele>
        <time>2021-08-21T07:35:19.006Z</time>
      </trkpt>
      <trkpt lat="41.99148" lon="2.871645">
        <ele>330.0</ele>
        <time>2021-08-21T07:35:20.011Z</time>
      </trkpt>
      <trkpt lat="41.99152833" lon="2.87160667">
        <ele>331.0</ele>
        <time>2021-08-21T07:35:21.004Z</time>
      </trkpt>
      <trkpt lat="41.99152833" lon="2.87160667">
        <ele>331.0</ele>
        <time>2021-08-21T07:35:22.010Z</time>
      </trkpt>
      <trkpt lat="41.991575" lon="2.87153">
        <ele>332.0</ele>
        <time>2021-08-21T07:35:22.996Z</time>
      </trkpt>
      <trkpt lat="41.991575" lon="2.87153">
        <ele>332.0</ele>
        <time>2021-08-21T07:35:24.002Z</time>
      </trkpt>
      <trkpt lat="41.99160167" lon="2.87144833">
        <ele>332.0</ele>
        <time>2021-08-21T07:35:25.027Z</time>
      </trkpt>
      <trkpt lat="41.99160333" lon="2.87140667">
        <ele>332.0</ele>
        <time>2021-08-21T07:35:26.010Z</time>
      </trkpt>
      <trkpt lat="41.991605" lon="2.871365">
        <ele>333.0</ele>
        <time>2021-08-21T07:35:27.027Z</time>
      </trkpt>
      <trkpt lat="41.991605" lon="2.871365">
        <ele>333.0</ele>
        <time>2021-08-21T07:35:27.992Z</time>
      </trkpt>
      <trkpt lat="41.99160333" lon="2.87129167">
        <ele>333.0</ele>
        <time>2021-08-21T07:35:29.018Z</time>
      </trkpt>
      <trkpt lat="41.99160333" lon="2.87129167">
        <ele>333.0</ele>
        <time>2021-08-21T07:35:30.024Z</time>
      </trkpt>
      <trkpt lat="41.991605" lon="2.871225">
        <ele>334.0</ele>
        <time>2021-08-21T07:35:31.031Z</time>
      </trkpt>
      <trkpt lat="41.991605" lon="2.871225">
        <ele>334.0</ele>
        <time>2021-08-21T07:35:31.997Z</time>
      </trkpt>
      <trkpt lat="41.99161667" lon="2.871135">
        <ele>334.0</ele>
        <time>2021-08-21T07:35:33.017Z</time>
      </trkpt>
      <trkpt lat="41.99161667" lon="2.871135">
        <ele>334.0</ele>
        <time>2021-08-21T07:35:34.022Z</time>
      </trkpt>
      <trkpt lat="41.99162833" lon="2.871025">
        <ele>335.0</ele>
        <time>2021-08-21T07:35:35.001Z</time>
      </trkpt>
      <trkpt lat="41.991635" lon="2.87097333">
        <ele>335.0</ele>
        <time>2021-08-21T07:35:35.993Z</time>
      </trkpt>
      <trkpt lat="41.991635" lon="2.87097333">
        <ele>335.0</ele>
        <time>2021-08-21T07:35:36.999Z</time>
      </trkpt>
      <trkpt lat="41.99164667" lon="2.87087167">
        <ele>336.0</ele>
        <time>2021-08-21T07:35:38.026Z</time>
      </trkpt>
      <trkpt lat="41.99165833" lon="2.87082667">
        <ele>336.0</ele>
        <time>2021-08-21T07:35:39.020Z</time>
      </trkpt>
      <trkpt lat="41.99165833" lon="2.87082667">
        <ele>336.0</ele>
        <time>2021-08-21T07:35:40.026Z</time>
      </trkpt>
      <trkpt lat="41.99167667" lon="2.87073833">
        <ele>337.0</ele>
        <time>2021-08-21T07:35:41.007Z</time>
      </trkpt>
      <trkpt lat="41.99167667" lon="2.87073833">
        <ele>337.0</ele>
        <time>2021-08-21T07:35:42.013Z</time>
      </trkpt>
      <trkpt lat="41.991715" lon="2.87063333">
        <ele>338.0</ele>
        <time>2021-08-21T07:35:43.001Z</time>
      </trkpt>
      <trkpt lat="41.991715" lon="2.87063333">
        <ele>338.0</ele>
        <time>2021-08-21T07:35:44.006Z</time>
      </trkpt>
      <trkpt lat="41.99174833" lon="2.87052833">
        <ele>338.0</ele>
        <time>2021-08-21T07:35:45.025Z</time>
      </trkpt>
      <trkpt lat="41.99174833" lon="2.87052833">
        <ele>338.0</ele>
        <time>2021-08-21T07:35:46.031Z</time>
      </trkpt>
      <trkpt lat="41.99178167" lon="2.87043">
        <ele>339.0</ele>
        <time>2021-08-21T07:35:47.006Z</time>
      </trkpt>
      <trkpt lat="41.99178167" lon="2.87043">
        <ele>339.0</ele>
        <time>2021-08-21T07:35:48.012Z</time>
      </trkpt>
      <trkpt lat="41.99182667" lon="2.87035">
        <ele>339.0</ele>
        <time>2021-08-21T07:35:48.995Z</time>
      </trkpt>
      <trkpt lat="41.99182667" lon="2.87035">
        <ele>339.0</ele>
        <time>2021-08-21T07:35:50.001Z</time>
      </trkpt>
      <trkpt lat="41.99191333" lon="2.87028167">
        <ele>340.0</ele>
        <time>2021-08-21T07:35:51.015Z</time>
      </trkpt>
      <trkpt lat="41.99191333" lon="2.87028167">
        <ele>340.0</ele>
        <time>2021-08-21T07:35:52.021Z</time>
      </trkpt>
      <trkpt lat="41.99200833" lon="2.87029167">
        <ele>341.0</ele>
        <time>2021-08-21T07:35:52.996Z</time>
      </trkpt>
      <trkpt lat="41.99200833" lon="2.87029167">
        <ele>341.0</ele>
        <time>2021-08-21T07:35:54.002Z</time>
      </trkpt>
      <trkpt lat="41.99208333" lon="2.87034833">
        <ele>341.0</ele>
        <time>2021-08-21T07:35:55.027Z</time>
      </trkpt>
      <trkpt lat="41.99208333" lon="2.87034833">
        <ele>341.0</ele>
        <time>2021-08-21T07:35:55.995Z</time>
      </trkpt>
      <trkpt lat="41.99212667" lon="2.87040333">
        <ele>342.0</ele>
        <time>2021-08-21T07:35:57.020Z</time>
      </trkpt>
      <trkpt lat="41.99212667" lon="2.87040333">
        <ele>342.0</ele>
        <time>2021-08-21T07:35:58.025Z</time>
      </trkpt>
      <trkpt lat="41.992165" lon="2.87045167">
        <ele>342.0</ele>
        <time>2021-08-21T07:35:59.003Z</time>
      </trkpt>
      <trkpt lat="41.992165" lon="2.87045167">
        <ele>342.0</ele>
        <time>2021-08-21T07:36:00.008Z</time>
      </trkpt>
      <trkpt lat="41.99221" lon="2.87050333">
        <ele>343.0</ele>
        <time>2021-08-21T07:36:00.994Z</time>
      </trkpt>
      <trkpt lat="41.99221" lon="2.87050333">
        <ele>343.0</ele>
        <time>2021-08-21T07:36:02.011Z</time>
      </trkpt>
      <trkpt lat="41.99225167" lon="2.870545">
        <ele>343.0</ele>
        <time>2021-08-21T07:36:02.992Z</time>
      </trkpt>
      <trkpt lat="41.99225167" lon="2.870545">
        <ele>343.0</ele>
        <time>2021-08-21T07:36:03.997Z</time>
      </trkpt>
      <trkpt lat="41.99229167" lon="2.870595">
        <ele>343.0</ele>
        <time>2021-08-21T07:36:05.022Z</time>
      </trkpt>
      <trkpt lat="41.99229167" lon="2.870595">
        <ele>343.0</ele>
        <time>2021-08-21T07:36:06.029Z</time>
      </trkpt>
      <trkpt lat="41.992335" lon="2.87063167">
        <ele>343.0</ele>
        <time>2021-08-21T07:36:07.008Z</time>
      </trkpt>
      <trkpt lat="41.992335" lon="2.87063167">
        <ele>343.0</ele>
        <time>2021-08-21T07:36:08.013Z</time>
      </trkpt>
      <trkpt lat="41.99239" lon="2.87065167">
        <ele>344.0</ele>
        <time>2021-08-21T07:36:09.031Z</time>
      </trkpt>
      <trkpt lat="41.99239" lon="2.87065167">
        <ele>344.0</ele>
        <time>2021-08-21T07:36:09.998Z</time>
      </trkpt>
      <trkpt lat="41.99245667" lon="2.87066167">
        <ele>344.0</ele>
        <time>2021-08-21T07:36:11.014Z</time>
      </trkpt>
      <trkpt lat="41.99245667" lon="2.87066167">
        <ele>344.0</ele>
        <time>2021-08-21T07:36:12.019Z</time>
      </trkpt>
      <trkpt lat="41.99255" lon="2.87067">
        <ele>345.0</ele>
        <time>2021-08-21T07:36:13.030Z</time>
      </trkpt>
      <trkpt lat="41.99260333" lon="2.870675">
        <ele>345.0</ele>
        <time>2021-08-21T07:36:14.005Z</time>
      </trkpt>
      <trkpt lat="41.99260333" lon="2.870675">
        <ele>345.0</ele>
        <time>2021-08-21T07:36:15.010Z</time>
      </trkpt>
      <trkpt lat="41.992695" lon="2.87066833">
        <ele>345.0</ele>
        <time>2021-08-21T07:36:16.000Z</time>
      </trkpt>
      <trkpt lat="41.992695" lon="2.87066833">
        <ele>345.0</ele>
        <time>2021-08-21T07:36:17.005Z</time>
      </trkpt>
      <trkpt lat="41.9928" lon="2.87066333">
        <ele>344.0</ele>
        <time>2021-08-21T07:36:17.996Z</time>
      </trkpt>
      <trkpt lat="41.99286" lon="2.870665">
        <ele>344.0</ele>
        <time>2021-08-21T07:36:19.019Z</time>
      </trkpt>
      <trkpt lat="41.99286" lon="2.870665">
        <ele>344.0</ele>
        <time>2021-08-21T07:36:20.025Z</time>
      </trkpt>
      <trkpt lat="41.99298333" lon="2.87069">
        <ele>344.0</ele>
        <time>2021-08-21T07:36:21.005Z</time>
      </trkpt>
      <trkpt lat="41.99298333" lon="2.87069">
        <ele>344.0</ele>
        <time>2021-08-21T07:36:22.011Z</time>
      </trkpt>
      <trkpt lat="41.99309333" lon="2.87072333">
        <ele>344.0</ele>
        <time>2021-08-21T07:36:23.027Z</time>
      </trkpt>
      <trkpt lat="41.99314833" lon="2.870735">
        <ele>344.0</ele>
        <time>2021-08-21T07:36:24.006Z</time>
      </trkpt>
      <trkpt lat="41.99314833" lon="2.870735">
        <ele>344.0</ele>
        <time>2021-08-21T07:36:25.011Z</time>
      </trkpt>
      <trkpt lat="41.99326667" lon="2.87077167">
        <ele>343.0</ele>
        <time>2021-08-21T07:36:25.994Z</time>
      </trkpt>
      <trkpt lat="41.99331167" lon="2.87081167">
        <ele>343.0</ele>
        <time>2021-08-21T07:36:27.018Z</time>
      </trkpt>
      <trkpt lat="41.99331167" lon="2.87081167">
        <ele>343.0</ele>
        <time>2021-08-21T07:36:28.024Z</time>
      </trkpt>
      <trkpt lat="41.99335833" lon="2.87092833">
        <ele>342.0</ele>
        <time>2021-08-21T07:36:29.000Z</time>
      </trkpt>
      <trkpt lat="41.99335833" lon="2.87092833">
        <ele>342.0</ele>
        <time>2021-08-21T07:36:30.006Z</time>
      </trkpt>
      <trkpt lat="41.993385" lon="2.87103333">
        <ele>341.0</ele>
        <time>2021-08-21T07:36:31.024Z</time>
      </trkpt>
      <trkpt lat="41.993385" lon="2.87103333">
        <ele>341.0</ele>
        <time>2021-08-21T07:36:32.030Z</time>
      </trkpt>
      <trkpt lat="41.99340833" lon="2.871145">
        <ele>341.0</ele>
        <time>2021-08-21T07:36:33.010Z</time>
      </trkpt>
      <trkpt lat="41.99340833" lon="2.871145">
        <ele>341.0</ele>
        <time>2021-08-21T07:36:34.016Z</time>
      </trkpt>
      <trkpt lat="41.99345" lon="2.87124167">
        <ele>340.0</ele>
        <time>2021-08-21T07:36:34.996Z</time>
      </trkpt>
      <trkpt lat="41.99345" lon="2.87124167">
        <ele>340.0</ele>
        <time>2021-08-21T07:36:36.002Z</time>
      </trkpt>
      <trkpt lat="41.9935" lon="2.87134">
        <ele>339.0</ele>
        <time>2021-08-21T07:36:37.022Z</time>
      </trkpt>
      <trkpt lat="41.9935" lon="2.87134">
        <ele>339.0</ele>
        <time>2021-08-21T07:36:38.027Z</time>
      </trkpt>
      <trkpt lat="41.99356" lon="2.87145333">
        <ele>339.0</ele>
        <time>2021-08-21T07:36:39.013Z</time>
      </trkpt>
      <trkpt lat="41.99356" lon="2.87145333">
        <ele>339.0</ele>
        <time>2021-08-21T07:36:40.018Z</time>
      </trkpt>
      <trkpt lat="41.993615" lon="2.87157333">
        <ele>338.0</ele>
        <time>2021-08-21T07:36:40.994Z</time>
      </trkpt>
      <trkpt lat="41.993615" lon="2.87157333">
        <ele>338.0</ele>
        <time>2021-08-21T07:36:41.999Z</time>
      </trkpt>
      <trkpt lat="41.99366333" lon="2.87165667">
        <ele>337.0</ele>
        <time>2021-08-21T07:36:43.021Z</time>
      </trkpt>
      <trkpt lat="41.99366333" lon="2.87165667">
        <ele>337.0</ele>
        <time>2021-08-21T07:36:44.027Z</time>
      </trkpt>
      <trkpt lat="41.99367167" lon="2.871705">
        <ele>337.0</ele>
        <time>2021-08-21T07:36:45.008Z</time>
      </trkpt>
      <trkpt lat="41.99367167" lon="2.871705">
        <ele>337.0</ele>
        <time>2021-08-21T07:36:46.013Z</time>
      </trkpt>
      <trkpt lat="41.99365667" lon="2.87175333">
        <ele>336.0</ele>
        <time>2021-08-21T07:36:46.992Z</time>
      </trkpt>
      <trkpt lat="41.99365167" lon="2.87178167">
        <ele>336.0</ele>
        <time>2021-08-21T07:36:48.012Z</time>
      </trkpt>
      <trkpt lat="41.99365167" lon="2.87178167">
        <ele>336.0</ele>
        <time>2021-08-21T07:36:49.017Z</time>
      </trkpt>
      <trkpt lat="41.993645" lon="2.87184167">
        <ele>335.0</ele>
        <time>2021-08-21T07:36:49.992Z</time>
      </trkpt>
      <trkpt lat="41.99363667" lon="2.87187333">
        <ele>335.0</ele>
        <time>2021-08-21T07:36:51.013Z</time>
      </trkpt>
      <trkpt lat="41.99363667" lon="2.87187333">
        <ele>335.0</ele>
        <time>2021-08-21T07:36:52.018Z</time>
      </trkpt>
      <trkpt lat="41.99362" lon="2.87192667">
        <ele>334.0</ele>
        <time>2021-08-21T07:36:52.998Z</time>
      </trkpt>
      <trkpt lat="41.99361333" lon="2.87195167">
        <ele>334.0</ele>
        <time>2021-08-21T07:36:54.027Z</time>
      </trkpt>
      <trkpt lat="41.99361333" lon="2.87195167">
        <ele>334.0</ele>
        <time>2021-08-21T07:36:54.993Z</time>
      </trkpt>
      <trkpt lat="41.99359667" lon="2.87200833">
        <ele>333.0</ele>
        <time>2021-08-21T07:36:56.014Z</time>
      </trkpt>
      <trkpt lat="41.993575" lon="2.87204833">
        <ele>333.0</ele>
        <time>2021-08-21T07:36:56.995Z</time>
      </trkpt>
      <trkpt lat="41.993575" lon="2.87204833">
        <ele>333.0</ele>
        <time>2021-08-21T07:36:58.001Z</time>
      </trkpt>
      <trkpt lat="41.99353833" lon="2.87209833">
        <ele>332.0</ele>
        <time>2021-08-21T07:36:59.021Z</time>
      </trkpt>
      <trkpt lat="41.99352333" lon="2.87212167">
        <ele>332.0</ele>
        <time>2021-08-21T07:36:59.996Z</time>
      </trkpt>
      <trkpt lat="41.99352333" lon="2.87212167">
        <ele>332.0</ele>
        <time>2021-08-21T07:37:01.001Z</time>
      </trkpt>
      <trkpt lat="41.993515" lon="2.872175">
        <ele>331.0</ele>
        <time>2021-08-21T07:37:01.998Z</time>
      </trkpt>
      <trkpt lat="41.99351667" lon="2.87221167">
        <ele>331.0</ele>
        <time>2021-08-21T07:37:03.019Z</time>
      </trkpt>
      <trkpt lat="41.99351667" lon="2.87221167">
        <ele>331.0</ele>
        <time>2021-08-21T07:37:04.025Z</time>
      </trkpt>
      <trkpt lat="41.993505" lon="2.87226667">
        <ele>329.0</ele>
        <time>2021-08-21T07:37:05.005Z</time>
      </trkpt>
      <trkpt lat="41.9935" lon="2.87229">
        <ele>329.0</ele>
        <time>2021-08-21T07:37:06.024Z</time>
      </trkpt>
      <trkpt lat="41.9935" lon="2.87229">
        <ele>329.0</ele>
        <time>2021-08-21T07:37:07.031Z</time>
      </trkpt>
      <trkpt lat="41.99347667" lon="2.87235167">
        <ele>328.0</ele>
        <time>2021-08-21T07:37:08.012Z</time>
      </trkpt>
      <trkpt lat="41.99347667" lon="2.87235167">
        <ele>328.0</ele>
        <time>2021-08-21T07:37:09.017Z</time>
      </trkpt>
      <trkpt lat="41.993475" lon="2.87244">
        <ele>327.0</ele>
        <time>2021-08-21T07:37:10.013Z</time>
      </trkpt>
      <trkpt lat="41.99348" lon="2.87246833">
        <ele>326.0</ele>
        <time>2021-08-21T07:37:11.030Z</time>
      </trkpt>
      <trkpt lat="41.99348" lon="2.87246833">
        <ele>326.0</ele>
        <time>2021-08-21T07:37:11.994Z</time>
      </trkpt>
      <trkpt lat="41.99349167" lon="2.87250667">
        <ele>326.0</ele>
        <time>2021-08-21T07:37:13.012Z</time>
      </trkpt>
      <trkpt lat="41.99349167" lon="2.87250667">
        <ele>326.0</ele>
        <time>2021-08-21T07:37:14.018Z</time>
      </trkpt>
      <trkpt lat="41.99349333" lon="2.87252167">
        <ele>324.0</ele>
        <time>2021-08-21T07:37:14.998Z</time>
      </trkpt>
      <trkpt lat="41.99349333" lon="2.87252167">
        <ele>324.0</ele>
        <time>2021-08-21T07:37:16.003Z</time>
      </trkpt>
      <trkpt lat="41.993495" lon="2.87254167">
        <ele>323.0</ele>
        <time>2021-08-21T07:37:17.020Z</time>
      </trkpt>
      <trkpt lat="41.993495" lon="2.87254167">
        <ele>323.0</ele>
        <time>2021-08-21T07:37:18.025Z</time>
      </trkpt>
      <trkpt lat="41.99349667" lon="2.87254667">
        <ele>322.0</ele>
        <time>2021-08-21T07:37:19.005Z</time>
      </trkpt>
      <trkpt lat="41.99349667" lon="2.87254667">
        <ele>322.0</ele>
        <time>2021-08-21T07:37:20.015Z</time>
      </trkpt>
      <trkpt lat="41.99350167" lon="2.87262833">
        <ele>319.0</ele>
        <time>2021-08-21T07:37:21.019Z</time>
      </trkpt>
      <trkpt lat="41.99350167" lon="2.87262833">
        <ele>319.0</ele>
        <time>2021-08-21T07:37:21.996Z</time>
      </trkpt>
      <trkpt lat="41.993495" lon="2.87270333">
        <ele>318.0</ele>
        <time>2021-08-21T07:37:23.021Z</time>
      </trkpt>
      <trkpt lat="41.99349333" lon="2.87273167">
        <ele>317.0</ele>
        <time>2021-08-21T07:37:24.000Z</time>
      </trkpt>
      <trkpt lat="41.99349667" lon="2.87275167">
        <ele>317.0</ele>
        <time>2021-08-21T07:37:25.007Z</time>
      </trkpt>
      <trkpt lat="41.99349667" lon="2.87275167">
        <ele>317.0</ele>
        <time>2021-08-21T07:37:26.012Z</time>
      </trkpt>
      <trkpt lat="41.99349833" lon="2.87280667">
        <ele>316.0</ele>
        <time>2021-08-21T07:37:27.010Z</time>
      </trkpt>
      <trkpt lat="41.99349667" lon="2.87283">
        <ele>316.0</ele>
        <time>2021-08-21T07:37:27.992Z</time>
      </trkpt>
      <trkpt lat="41.99349667" lon="2.87283">
        <ele>316.0</ele>
        <time>2021-08-21T07:37:28.998Z</time>
      </trkpt>
      <trkpt lat="41.99350167" lon="2.872865">
        <ele>315.0</ele>
        <time>2021-08-21T07:37:30.021Z</time>
      </trkpt>
      <trkpt lat="41.993505" lon="2.87288">
        <ele>315.0</ele>
        <time>2021-08-21T07:37:31.011Z</time>
      </trkpt>
      <trkpt lat="41.993505" lon="2.87288">
        <ele>315.0</ele>
        <time>2021-08-21T07:37:32.017Z</time>
      </trkpt>
      <trkpt lat="41.993505" lon="2.87291833">
        <ele>314.0</ele>
        <time>2021-08-21T07:37:32.994Z</time>
      </trkpt>
      <trkpt lat="41.993505" lon="2.87291833">
        <ele>314.0</ele>
        <time>2021-08-21T07:37:33.999Z</time>
      </trkpt>
      <trkpt lat="41.9935" lon="2.87295833">
        <ele>314.0</ele>
        <time>2021-08-21T07:37:35.018Z</time>
      </trkpt>
      <trkpt lat="41.9935" lon="2.87295833">
        <ele>314.0</ele>
        <time>2021-08-21T07:37:36.023Z</time>
      </trkpt>
      <trkpt lat="41.99349833" lon="2.873015">
        <ele>312.0</ele>
        <time>2021-08-21T07:37:37.002Z</time>
      </trkpt>
      <trkpt lat="41.99349833" lon="2.87303167">
        <ele>312.0</ele>
        <time>2021-08-21T07:37:38.006Z</time>
      </trkpt>
      <trkpt lat="41.99349833" lon="2.87303167">
        <ele>312.0</ele>
        <time>2021-08-21T07:37:39.011Z</time>
      </trkpt>
      <trkpt lat="41.99350833" lon="2.87304833">
        <ele>312.0</ele>
        <time>2021-08-21T07:37:40.000Z</time>
      </trkpt>
      <trkpt lat="41.99351" lon="2.87305833">
        <ele>311.0</ele>
        <time>2021-08-21T07:37:41.019Z</time>
      </trkpt>
      <trkpt lat="41.99351" lon="2.87305833">
        <ele>311.0</ele>
        <time>2021-08-21T07:37:42.026Z</time>
      </trkpt>
      <trkpt lat="41.99350667" lon="2.87308167">
        <ele>311.0</ele>
        <time>2021-08-21T07:37:43.017Z</time>
      </trkpt>
      <trkpt lat="41.993505" lon="2.87309">
        <ele>311.0</ele>
        <time>2021-08-21T07:37:43.996Z</time>
      </trkpt>
      <trkpt lat="41.99350333" lon="2.87309">
        <ele>311.0</ele>
        <time>2021-08-21T07:37:45.008Z</time>
      </trkpt>
      <trkpt lat="41.99350333" lon="2.87309">
        <ele>311.0</ele>
        <time>2021-08-21T07:37:46.014Z</time>
      </trkpt>
      <trkpt lat="41.9935" lon="2.87309833">
        <ele>310.0</ele>
        <time>2021-08-21T07:37:46.999Z</time>
      </trkpt>
      <trkpt lat="41.9935" lon="2.87309833">
        <ele>310.0</ele>
        <time>2021-08-21T07:37:48.018Z</time>
      </trkpt>
      <trkpt lat="41.993485" lon="2.873205">
        <ele>307.0</ele>
        <time>2021-08-21T07:37:48.996Z</time>
      </trkpt>
      <trkpt lat="41.993485" lon="2.873205">
        <ele>307.0</ele>
        <time>2021-08-21T07:37:50.019Z</time>
      </trkpt>
      <trkpt lat="41.99349167" lon="2.873245">
        <ele>306.0</ele>
        <time>2021-08-21T07:37:50.993Z</time>
      </trkpt>
      <trkpt lat="41.99349167" lon="2.873245">
        <ele>306.0</ele>
        <time>2021-08-21T07:37:51.999Z</time>
      </trkpt>
      <trkpt lat="41.993485" lon="2.87328333">
        <ele>306.0</ele>
        <time>2021-08-21T07:37:52.993Z</time>
      </trkpt>
      <trkpt lat="41.993485" lon="2.87328333">
        <ele>306.0</ele>
        <time>2021-08-21T07:37:53.998Z</time>
      </trkpt>
      <trkpt lat="41.99348" lon="2.87332">
        <ele>305.0</ele>
        <time>2021-08-21T07:37:55.016Z</time>
      </trkpt>
      <trkpt lat="41.99348" lon="2.87332">
        <ele>305.0</ele>
        <time>2021-08-21T07:37:56.023Z</time>
      </trkpt>
      <trkpt lat="41.99347833" lon="2.87336167">
        <ele>304.0</ele>
        <time>2021-08-21T07:37:57.002Z</time>
      </trkpt>
      <trkpt lat="41.99347833" lon="2.87336167">
        <ele>304.0</ele>
        <time>2021-08-21T07:37:58.007Z</time>
      </trkpt>
      <trkpt lat="41.99347167" lon="2.87340667">
        <ele>304.0</ele>
        <time>2021-08-21T07:37:59.022Z</time>
      </trkpt>
      <trkpt lat="41.99347167" lon="2.87340667">
        <ele>304.0</ele>
        <time>2021-08-21T07:38:00.028Z</time>
      </trkpt>
      <trkpt lat="41.99347333" lon="2.87346333">
        <ele>303.0</ele>
        <time>2021-08-21T07:38:01.018Z</time>
      </trkpt>
      <trkpt lat="41.99347333" lon="2.87346333">
        <ele>303.0</ele>
        <time>2021-08-21T07:38:01.996Z</time>
      </trkpt>
      <trkpt lat="41.99348" lon="2.87353">
        <ele>302.0</ele>
        <time>2021-08-21T07:38:03.009Z</time>
      </trkpt>
      <trkpt lat="41.99348" lon="2.87353">
        <ele>302.0</ele>
        <time>2021-08-21T07:38:04.015Z</time>
      </trkpt>
      <trkpt lat="41.99347667" lon="2.87358833">
        <ele>301.0</ele>
        <time>2021-08-21T07:38:04.999Z</time>
      </trkpt>
      <trkpt lat="41.99347333" lon="2.873615">
        <ele>300.0</ele>
        <time>2021-08-21T07:38:06.017Z</time>
      </trkpt>
      <trkpt lat="41.99347167" lon="2.87364">
        <ele>300.0</ele>
        <time>2021-08-21T07:38:07.001Z</time>
      </trkpt>
      <trkpt lat="41.99347167" lon="2.87364">
        <ele>300.0</ele>
        <time>2021-08-21T07:38:08.006Z</time>
      </trkpt>
      <trkpt lat="41.99347667" lon="2.87369">
        <ele>299.0</ele>
        <time>2021-08-21T07:38:09.023Z</time>
      </trkpt>
      <trkpt lat="41.99347667" lon="2.87369">
        <ele>299.0</ele>
        <time>2021-08-21T07:38:10.028Z</time>
      </trkpt>
      <trkpt lat="41.99349" lon="2.87374">
        <ele>298.0</ele>
        <time>2021-08-21T07:38:11.008Z</time>
      </trkpt>
      <trkpt lat="41.99349" lon="2.87374">
        <ele>298.0</ele>
        <time>2021-08-21T07:38:12.013Z</time>
      </trkpt>
      <trkpt lat="41.99350167" lon="2.87378667">
        <ele>298.0</ele>
        <time>2021-08-21T07:38:13.029Z</time>
      </trkpt>
      <trkpt lat="41.99350167" lon="2.87378667">
        <ele>298.0</ele>
        <time>2021-08-21T07:38:13.994Z</time>
      </trkpt>
      <trkpt lat="41.99351333" lon="2.87383333">
        <ele>297.0</ele>
        <time>2021-08-21T07:38:15.008Z</time>
      </trkpt>
      <trkpt lat="41.99351333" lon="2.87383333">
        <ele>297.0</ele>
        <time>2021-08-21T07:38:16.014Z</time>
      </trkpt>
      <trkpt lat="41.99352833" lon="2.87387833">
        <ele>296.0</ele>
        <time>2021-08-21T07:38:16.997Z</time>
      </trkpt>
      <trkpt lat="41.99352833" lon="2.87387833">
        <ele>296.0</ele>
        <time>2021-08-21T07:38:18.002Z</time>
      </trkpt>
      <trkpt lat="41.99356167" lon="2.8739">
        <ele>295.0</ele>
        <time>2021-08-21T07:38:19.017Z</time>
      </trkpt>
      <trkpt lat="41.993575" lon="2.87390333">
        <ele>294.0</ele>
        <time>2021-08-21T07:38:19.995Z</time>
      </trkpt>
      <trkpt lat="41.99359167" lon="2.8739">
        <ele>294.0</ele>
        <time>2021-08-21T07:38:21.006Z</time>
      </trkpt>
      <trkpt lat="41.99359167" lon="2.8739">
        <ele>294.0</ele>
        <time>2021-08-21T07:38:22.013Z</time>
      </trkpt>
      <trkpt lat="41.993625" lon="2.87387833">
        <ele>293.0</ele>
        <time>2021-08-21T07:38:23.031Z</time>
      </trkpt>
      <trkpt lat="41.99363833" lon="2.87386">
        <ele>293.0</ele>
        <time>2021-08-21T07:38:24.012Z</time>
      </trkpt>
      <trkpt lat="41.99363833" lon="2.87386">
        <ele>293.0</ele>
        <time>2021-08-21T07:38:25.018Z</time>
      </trkpt>
      <trkpt lat="41.99366667" lon="2.87381">
        <ele>292.0</ele>
        <time>2021-08-21T07:38:25.999Z</time>
      </trkpt>
      <trkpt lat="41.99368333" lon="2.87377333">
        <ele>292.0</ele>
        <time>2021-08-21T07:38:27.020Z</time>
      </trkpt>
      <trkpt lat="41.99368333" lon="2.87377333">
        <ele>292.0</ele>
        <time>2021-08-21T07:38:28.026Z</time>
      </trkpt>
      <trkpt lat="41.99371167" lon="2.873685">
        <ele>291.0</ele>
        <time>2021-08-21T07:38:29.016Z</time>
      </trkpt>
      <trkpt lat="41.99372167" lon="2.87364167">
        <ele>291.0</ele>
        <time>2021-08-21T07:38:29.994Z</time>
      </trkpt>
      <trkpt lat="41.99372167" lon="2.87364167">
        <ele>291.0</ele>
        <time>2021-08-21T07:38:31.000Z</time>
      </trkpt>
      <trkpt lat="41.99375" lon="2.873565">
        <ele>290.0</ele>
        <time>2021-08-21T07:38:32.027Z</time>
      </trkpt>
      <trkpt lat="41.993765" lon="2.87352667">
        <ele>290.0</ele>
        <time>2021-08-21T07:38:33.002Z</time>
      </trkpt>
      <trkpt lat="41.993765" lon="2.87352667">
        <ele>290.0</ele>
        <time>2021-08-21T07:38:34.008Z</time>
      </trkpt>
      <trkpt lat="41.99379833" lon="2.873445">
        <ele>289.0</ele>
        <time>2021-08-21T07:38:35.024Z</time>
      </trkpt>
      <trkpt lat="41.99379833" lon="2.873445">
        <ele>289.0</ele>
        <time>2021-08-21T07:38:36.030Z</time>
      </trkpt>
      <trkpt lat="41.99383667" lon="2.87336667">
        <ele>289.0</ele>
        <time>2021-08-21T07:38:37.006Z</time>
      </trkpt>
      <trkpt lat="41.99385833" lon="2.87333167">
        <ele>289.0</ele>
        <time>2021-08-21T07:38:38.026Z</time>
      </trkpt>
      <trkpt lat="41.99387833" lon="2.87329833">
        <ele>289.0</ele>
        <time>2021-08-21T07:38:39.010Z</time>
      </trkpt>
      <trkpt lat="41.99387833" lon="2.87329833">
        <ele>289.0</ele>
        <time>2021-08-21T07:38:40.016Z</time>
      </trkpt>
      <trkpt lat="41.99392" lon="2.87324">
        <ele>289.0</ele>
        <time>2021-08-21T07:38:40.998Z</time>
      </trkpt>
      <trkpt lat="41.99392" lon="2.87324">
        <ele>289.0</ele>
        <time>2021-08-21T07:38:42.017Z</time>
      </trkpt>
      <trkpt lat="41.99399333" lon="2.87318167">
        <ele>288.0</ele>
        <time>2021-08-21T07:38:42.999Z</time>
      </trkpt>
      <trkpt lat="41.99399333" lon="2.87318167">
        <ele>288.0</ele>
        <time>2021-08-21T07:38:44.005Z</time>
      </trkpt>
      <trkpt lat="41.994075" lon="2.87312">
        <ele>288.0</ele>
        <time>2021-08-21T07:38:45.021Z</time>
      </trkpt>
      <trkpt lat="41.994075" lon="2.87312">
        <ele>288.0</ele>
        <time>2021-08-21T07:38:46.001Z</time>
      </trkpt>
      <trkpt lat="41.99414167" lon="2.87302333">
        <ele>287.0</ele>
        <time>2021-08-21T07:38:46.993Z</time>
      </trkpt>
      <trkpt lat="41.99414167" lon="2.87302333">
        <ele>287.0</ele>
        <time>2021-08-21T07:38:47.999Z</time>
      </trkpt>
      <trkpt lat="41.99420333" lon="2.872935">
        <ele>287.0</ele>
        <time>2021-08-21T07:38:49.013Z</time>
      </trkpt>
      <trkpt lat="41.994225" lon="2.87291333">
        <ele>287.0</ele>
        <time>2021-08-21T07:38:50.027Z</time>
      </trkpt>
      <trkpt lat="41.99424" lon="2.872905">
        <ele>287.0</ele>
        <time>2021-08-21T07:38:51.004Z</time>
      </trkpt>
      <trkpt lat="41.99424" lon="2.872905">
        <ele>287.0</ele>
        <time>2021-08-21T07:38:52.010Z</time>
      </trkpt>
      <trkpt lat="41.99426167" lon="2.87288167">
        <ele>286.0</ele>
        <time>2021-08-21T07:38:53.029Z</time>
      </trkpt>
      <trkpt lat="41.99426167" lon="2.87288167">
        <ele>286.0</ele>
        <time>2021-08-21T07:38:53.997Z</time>
      </trkpt>
      <trkpt lat="41.99427167" lon="2.87292333">
        <ele>286.0</ele>
        <time>2021-08-21T07:38:55.024Z</time>
      </trkpt>
      <trkpt lat="41.99427167" lon="2.87292333">
        <ele>286.0</ele>
        <time>2021-08-21T07:38:56.030Z</time>
      </trkpt>
      <trkpt lat="41.9943" lon="2.87295667">
        <ele>285.0</ele>
        <time>2021-08-21T07:38:57.007Z</time>
      </trkpt>
      <trkpt lat="41.9943" lon="2.87295667">
        <ele>285.0</ele>
        <time>2021-08-21T07:38:58.013Z</time>
      </trkpt>
      <trkpt lat="41.99432333" lon="2.873005">
        <ele>285.0</ele>
        <time>2021-08-21T07:38:59.000Z</time>
      </trkpt>
      <trkpt lat="41.99432333" lon="2.873005">
        <ele>285.0</ele>
        <time>2021-08-21T07:39:00.005Z</time>
      </trkpt>
      <trkpt lat="41.99435167" lon="2.87307">
        <ele>285.0</ele>
        <time>2021-08-21T07:39:01.026Z</time>
      </trkpt>
      <trkpt lat="41.99435167" lon="2.87307">
        <ele>285.0</ele>
        <time>2021-08-21T07:39:02.014Z</time>
      </trkpt>
      <trkpt lat="41.99438333" lon="2.873135">
        <ele>285.0</ele>
        <time>2021-08-21T07:39:03.001Z</time>
      </trkpt>
      <trkpt lat="41.99438333" lon="2.873135">
        <ele>285.0</ele>
        <time>2021-08-21T07:39:04.007Z</time>
      </trkpt>
      <trkpt lat="41.99442" lon="2.8732">
        <ele>284.0</ele>
        <time>2021-08-21T07:39:05.024Z</time>
      </trkpt>
      <trkpt lat="41.99442" lon="2.8732">
        <ele>284.0</ele>
        <time>2021-08-21T07:39:06.030Z</time>
      </trkpt>
      <trkpt lat="41.99445" lon="2.87324833">
        <ele>284.0</ele>
        <time>2021-08-21T07:39:07.013Z</time>
      </trkpt>
      <trkpt lat="41.99445" lon="2.87324833">
        <ele>284.0</ele>
        <time>2021-08-21T07:39:08.019Z</time>
      </trkpt>
      <trkpt lat="41.99448167" lon="2.87327833">
        <ele>284.0</ele>
        <time>2021-08-21T07:39:09.003Z</time>
      </trkpt>
      <trkpt lat="41.99448167" lon="2.87327833">
        <ele>284.0</ele>
        <time>2021-08-21T07:39:10.015Z</time>
      </trkpt>
      <trkpt lat="41.994515" lon="2.87329833">
        <ele>284.0</ele>
        <time>2021-08-21T07:39:10.992Z</time>
      </trkpt>
      <trkpt lat="41.994515" lon="2.87329833">
        <ele>284.0</ele>
        <time>2021-08-21T07:39:11.997Z</time>
      </trkpt>
      <trkpt lat="41.99455" lon="2.87330833">
        <ele>284.0</ele>
        <time>2021-08-21T07:39:13.019Z</time>
      </trkpt>
      <trkpt lat="41.99455" lon="2.87330833">
        <ele>284.0</ele>
        <time>2021-08-21T07:39:14.024Z</time>
      </trkpt>
      <trkpt lat="41.994585" lon="2.87334333">
        <ele>283.0</ele>
        <time>2021-08-21T07:39:15.012Z</time>
      </trkpt>
      <trkpt lat="41.994585" lon="2.87334333">
        <ele>283.0</ele>
        <time>2021-08-21T07:39:16.018Z</time>
      </trkpt>
      <trkpt lat="41.99460667" lon="2.873385">
        <ele>283.0</ele>
        <time>2021-08-21T07:39:17.002Z</time>
      </trkpt>
      <trkpt lat="41.99460667" lon="2.873385">
        <ele>283.0</ele>
        <time>2021-08-21T07:39:18.007Z</time>
      </trkpt>
      <trkpt lat="41.994625" lon="2.87344667">
        <ele>283.0</ele>
        <time>2021-08-21T07:39:19.028Z</time>
      </trkpt>
      <trkpt lat="41.99464167" lon="2.873495">
        <ele>283.0</ele>
        <time>2021-08-21T07:39:20.007Z</time>
      </trkpt>
      <trkpt lat="41.99464167" lon="2.873495">
        <ele>283.0</ele>
        <time>2021-08-21T07:39:21.017Z</time>
      </trkpt>
      <trkpt lat="41.99466" lon="2.87357167">
        <ele>283.0</ele>
        <time>2021-08-21T07:39:21.996Z</time>
      </trkpt>
      <trkpt lat="41.99466" lon="2.87357167">
        <ele>283.0</ele>
        <time>2021-08-21T07:39:23.002Z</time>
      </trkpt>
      <trkpt lat="41.99468833" lon="2.873655">
        <ele>283.0</ele>
        <time>2021-08-21T07:39:24.018Z</time>
      </trkpt>
      <trkpt lat="41.99468833" lon="2.873655">
        <ele>283.0</ele>
        <time>2021-08-21T07:39:25.023Z</time>
      </trkpt>
      <trkpt lat="41.99472167" lon="2.87374333">
        <ele>283.0</ele>
        <time>2021-08-21T07:39:25.999Z</time>
      </trkpt>
      <trkpt lat="41.99473833" lon="2.87378">
        <ele>283.0</ele>
        <time>2021-08-21T07:39:27.019Z</time>
      </trkpt>
      <trkpt lat="41.99473833" lon="2.87378">
        <ele>283.0</ele>
        <time>2021-08-21T07:39:28.024Z</time>
      </trkpt>
      <trkpt lat="41.99475833" lon="2.87387">
        <ele>283.0</ele>
        <time>2021-08-21T07:39:29.011Z</time>
      </trkpt>
      <trkpt lat="41.99475833" lon="2.87387">
        <ele>283.0</ele>
        <time>2021-08-21T07:39:30.016Z</time>
      </trkpt>
      <trkpt lat="41.994765" lon="2.87395667">
        <ele>283.0</ele>
        <time>2021-08-21T07:39:30.993Z</time>
      </trkpt>
      <trkpt lat="41.994765" lon="2.87395667">
        <ele>283.0</ele>
        <time>2021-08-21T07:39:31.998Z</time>
      </trkpt>
      <trkpt lat="41.994775" lon="2.87403833">
        <ele>282.0</ele>
        <time>2021-08-21T07:39:33.017Z</time>
      </trkpt>
      <trkpt lat="41.994775" lon="2.87403833">
        <ele>282.0</ele>
        <time>2021-08-21T07:39:34.023Z</time>
      </trkpt>
      <trkpt lat="41.99478333" lon="2.87411667">
        <ele>282.0</ele>
        <time>2021-08-21T07:39:35.028Z</time>
      </trkpt>
      <trkpt lat="41.99478333" lon="2.87411667">
        <ele>282.0</ele>
        <time>2021-08-21T07:39:35.994Z</time>
      </trkpt>
      <trkpt lat="41.99480333" lon="2.87419667">
        <ele>281.0</ele>
        <time>2021-08-21T07:39:37.018Z</time>
      </trkpt>
      <trkpt lat="41.99480333" lon="2.87419667">
        <ele>281.0</ele>
        <time>2021-08-21T07:39:38.024Z</time>
      </trkpt>
      <trkpt lat="41.99482833" lon="2.87426833">
        <ele>281.0</ele>
        <time>2021-08-21T07:39:39.007Z</time>
      </trkpt>
      <trkpt lat="41.99482833" lon="2.87426833">
        <ele>281.0</ele>
        <time>2021-08-21T07:39:40.014Z</time>
      </trkpt>
      <trkpt lat="41.99484833" lon="2.87435833">
        <ele>280.0</ele>
        <time>2021-08-21T07:39:40.993Z</time>
      </trkpt>
      <trkpt lat="41.99485333" lon="2.87440167">
        <ele>280.0</ele>
        <time>2021-08-21T07:39:42.008Z</time>
      </trkpt>
      <trkpt lat="41.994855" lon="2.87444667">
        <ele>280.0</ele>
        <time>2021-08-21T07:39:42.993Z</time>
      </trkpt>
      <trkpt lat="41.994855" lon="2.87444667">
        <ele>280.0</ele>
        <time>2021-08-21T07:39:43.998Z</time>
      </trkpt>
      <trkpt lat="41.99485" lon="2.87452333">
        <ele>280.0</ele>
        <time>2021-08-21T07:39:45.010Z</time>
      </trkpt>
      <trkpt lat="41.99485" lon="2.874565">
        <ele>279.0</ele>
        <time>2021-08-21T07:39:45.994Z</time>
      </trkpt>
      <trkpt lat="41.99485" lon="2.874565">
        <ele>279.0</ele>
        <time>2021-08-21T07:39:46.999Z</time>
      </trkpt>
      <trkpt lat="41.99484333" lon="2.87464167">
        <ele>279.0</ele>
        <time>2021-08-21T07:39:48.016Z</time>
      </trkpt>
      <trkpt lat="41.99484333" lon="2.87464167">
        <ele>279.0</ele>
        <time>2021-08-21T07:39:49.021Z</time>
      </trkpt>
      <trkpt lat="41.99484167" lon="2.87471167">
        <ele>279.0</ele>
        <time>2021-08-21T07:39:49.998Z</time>
      </trkpt>
      <trkpt lat="41.99484167" lon="2.87474167">
        <ele>279.0</ele>
        <time>2021-08-21T07:39:51.008Z</time>
      </trkpt>
      <trkpt lat="41.99484167" lon="2.87474167">
        <ele>279.0</ele>
        <time>2021-08-21T07:39:52.017Z</time>
      </trkpt>
      <trkpt lat="41.994855" lon="2.87480167">
        <ele>279.0</ele>
        <time>2021-08-21T07:39:52.999Z</time>
      </trkpt>
      <trkpt lat="41.994855" lon="2.87480167">
        <ele>279.0</ele>
        <time>2021-08-21T07:39:54.004Z</time>
      </trkpt>
      <trkpt lat="41.99488333" lon="2.87485667">
        <ele>279.0</ele>
        <time>2021-08-21T07:39:55.028Z</time>
      </trkpt>
      <trkpt lat="41.99488333" lon="2.87485667">
        <ele>279.0</ele>
        <time>2021-08-21T07:39:55.995Z</time>
      </trkpt>
      <trkpt lat="41.994905" lon="2.874885">
        <ele>278.0</ele>
        <time>2021-08-21T07:39:57.022Z</time>
      </trkpt>
      <trkpt lat="41.994905" lon="2.874885">
        <ele>278.0</ele>
        <time>2021-08-21T07:39:58.027Z</time>
      </trkpt>
      <trkpt lat="41.99492833" lon="2.874925">
        <ele>278.0</ele>
        <time>2021-08-21T07:39:59.002Z</time>
      </trkpt>
      <trkpt lat="41.99492833" lon="2.874925">
        <ele>278.0</ele>
        <time>2021-08-21T07:40:00.007Z</time>
      </trkpt>
      <trkpt lat="41.99495" lon="2.87497667">
        <ele>278.0</ele>
        <time>2021-08-21T07:40:00.992Z</time>
      </trkpt>
      <trkpt lat="41.99495" lon="2.87497667">
        <ele>278.0</ele>
        <time>2021-08-21T07:40:02.015Z</time>
      </trkpt>
      <trkpt lat="41.99496167" lon="2.87504">
        <ele>278.0</ele>
        <time>2021-08-21T07:40:03.016Z</time>
      </trkpt>
      <trkpt lat="41.99496167" lon="2.87504">
        <ele>278.0</ele>
        <time>2021-08-21T07:40:04.021Z</time>
      </trkpt>
      <trkpt lat="41.99497167" lon="2.87510333">
        <ele>278.0</ele>
        <time>2021-08-21T07:40:05.007Z</time>
      </trkpt>
      <trkpt lat="41.99498" lon="2.87514167">
        <ele>278.0</ele>
        <time>2021-08-21T07:40:06.023Z</time>
      </trkpt>
      <trkpt lat="41.99498" lon="2.87514167">
        <ele>278.0</ele>
        <time>2021-08-21T07:40:07.028Z</time>
      </trkpt>
      <trkpt lat="41.99500667" lon="2.87522167">
        <ele>277.0</ele>
        <time>2021-08-21T07:40:08.005Z</time>
      </trkpt>
      <trkpt lat="41.99503" lon="2.87525833">
        <ele>277.0</ele>
        <time>2021-08-21T07:40:09.029Z</time>
      </trkpt>
      <trkpt lat="41.99503" lon="2.87525833">
        <ele>277.0</ele>
        <time>2021-08-21T07:40:09.994Z</time>
      </trkpt>
      <trkpt lat="41.99506333" lon="2.875315">
        <ele>277.0</ele>
        <time>2021-08-21T07:40:11.017Z</time>
      </trkpt>
      <trkpt lat="41.99506333" lon="2.875315">
        <ele>277.0</ele>
        <time>2021-08-21T07:40:12.023Z</time>
      </trkpt>
      <trkpt lat="41.99510167" lon="2.87534833">
        <ele>277.0</ele>
        <time>2021-08-21T07:40:13.008Z</time>
      </trkpt>
      <trkpt lat="41.99512167" lon="2.87536167">
        <ele>277.0</ele>
        <time>2021-08-21T07:40:14.027Z</time>
      </trkpt>
      <trkpt lat="41.99514333" lon="2.87539">
        <ele>277.0</ele>
        <time>2021-08-21T07:40:15.008Z</time>
      </trkpt>
      <trkpt lat="41.99514333" lon="2.87539">
        <ele>277.0</ele>
        <time>2021-08-21T07:40:16.016Z</time>
      </trkpt>
      <trkpt lat="41.99518833" lon="2.87545833">
        <ele>278.0</ele>
        <time>2021-08-21T07:40:17.004Z</time>
      </trkpt>
      <trkpt lat="41.99521167" lon="2.87547333">
        <ele>278.0</ele>
        <time>2021-08-21T07:40:18.021Z</time>
      </trkpt>
      <trkpt lat="41.99521167" lon="2.87547333">
        <ele>278.0</ele>
        <time>2021-08-21T07:40:19.026Z</time>
      </trkpt>
      <trkpt lat="41.99525333" lon="2.87547167">
        <ele>278.0</ele>
        <time>2021-08-21T07:40:20.020Z</time>
      </trkpt>
      <trkpt lat="41.99527333" lon="2.87547">
        <ele>278.0</ele>
        <time>2021-08-21T07:40:20.999Z</time>
      </trkpt>
      <trkpt lat="41.99527333" lon="2.87547">
        <ele>278.0</ele>
        <time>2021-08-21T07:40:22.004Z</time>
      </trkpt>
      <trkpt lat="41.99530833" lon="2.87544833">
        <ele>278.0</ele>
        <time>2021-08-21T07:40:23.022Z</time>
      </trkpt>
      <trkpt lat="41.99530833" lon="2.87544833">
        <ele>278.0</ele>
        <time>2021-08-21T07:40:24.027Z</time>
      </trkpt>
      <trkpt lat="41.99534667" lon="2.87541">
        <ele>279.0</ele>
        <time>2021-08-21T07:40:25.006Z</time>
      </trkpt>
      <trkpt lat="41.99536333" lon="2.87539667">
        <ele>279.0</ele>
        <time>2021-08-21T07:40:26.000Z</time>
      </trkpt>
      <trkpt lat="41.99536333" lon="2.87539667">
        <ele>279.0</ele>
        <time>2021-08-21T07:40:27.006Z</time>
      </trkpt>
      <trkpt lat="41.995395" lon="2.87537833">
        <ele>279.0</ele>
        <time>2021-08-21T07:40:28.008Z</time>
      </trkpt>
      <trkpt lat="41.99540833" lon="2.87536333">
        <ele>279.0</ele>
        <time>2021-08-21T07:40:28.995Z</time>
      </trkpt>
      <trkpt lat="41.99540833" lon="2.87536333">
        <ele>279.0</ele>
        <time>2021-08-21T07:40:30.000Z</time>
      </trkpt>
      <trkpt lat="41.99543333" lon="2.875325">
        <ele>280.0</ele>
        <time>2021-08-21T07:40:31.023Z</time>
      </trkpt>
      <trkpt lat="41.99543333" lon="2.875325">
        <ele>280.0</ele>
        <time>2021-08-21T07:40:32.028Z</time>
      </trkpt>
      <trkpt lat="41.99546167" lon="2.87528">
        <ele>281.0</ele>
        <time>2021-08-21T07:40:33.015Z</time>
      </trkpt>
      <trkpt lat="41.99546167" lon="2.87528">
        <ele>281.0</ele>
        <time>2021-08-21T07:40:34.021Z</time>
      </trkpt>
      <trkpt lat="41.99548833" lon="2.87523667">
        <ele>281.0</ele>
        <time>2021-08-21T07:40:34.999Z</time>
      </trkpt>
      <trkpt lat="41.99548833" lon="2.87523667">
        <ele>281.0</ele>
        <time>2021-08-21T07:40:36.004Z</time>
      </trkpt>
      <trkpt lat="41.995505" lon="2.87518667">
        <ele>282.0</ele>
        <time>2021-08-21T07:40:37.016Z</time>
      </trkpt>
      <trkpt lat="41.995505" lon="2.87518667">
        <ele>282.0</ele>
        <time>2021-08-21T07:40:38.022Z</time>
      </trkpt>
      <trkpt lat="41.99552333" lon="2.875145">
        <ele>283.0</ele>
        <time>2021-08-21T07:40:38.995Z</time>
      </trkpt>
      <trkpt lat="41.99552333" lon="2.875145">
        <ele>283.0</ele>
        <time>2021-08-21T07:40:40.000Z</time>
      </trkpt>
      <trkpt lat="41.99556" lon="2.87510167">
        <ele>283.0</ele>
        <time>2021-08-21T07:40:41.006Z</time>
      </trkpt>
      <trkpt lat="41.99556" lon="2.87510167">
        <ele>283.0</ele>
        <time>2021-08-21T07:40:42.012Z</time>
      </trkpt>
      <trkpt lat="41.99558667" lon="2.87507333">
        <ele>284.0</ele>
        <time>2021-08-21T07:40:42.992Z</time>
      </trkpt>
      <trkpt lat="41.99558667" lon="2.87507333">
        <ele>284.0</ele>
        <time>2021-08-21T07:40:44.024Z</time>
      </trkpt>
      <trkpt lat="41.99561667" lon="2.87504">
        <ele>285.0</ele>
        <time>2021-08-21T07:40:45.004Z</time>
      </trkpt>
      <trkpt lat="41.99561667" lon="2.87504">
        <ele>285.0</ele>
        <time>2021-08-21T07:40:46.026Z</time>
      </trkpt>
      <trkpt lat="41.99565167" lon="2.87502">
        <ele>285.0</ele>
        <time>2021-08-21T07:40:47.022Z</time>
      </trkpt>
      <trkpt lat="41.99567" lon="2.87500667">
        <ele>286.0</ele>
        <time>2021-08-21T07:40:48.008Z</time>
      </trkpt>
      <trkpt lat="41.99567" lon="2.87500667">
        <ele>286.0</ele>
        <time>2021-08-21T07:40:49.024Z</time>
      </trkpt>
      <trkpt lat="41.99570667" lon="2.87500167">
        <ele>287.0</ele>
        <time>2021-08-21T07:40:50.012Z</time>
      </trkpt>
      <trkpt lat="41.99570667" lon="2.87500167">
        <ele>287.0</ele>
        <time>2021-08-21T07:40:51.028Z</time>
      </trkpt>
      <trkpt lat="41.99575167" lon="2.874995">
        <ele>288.0</ele>
        <time>2021-08-21T07:40:52.012Z</time>
      </trkpt>
      <trkpt lat="41.99575167" lon="2.874995">
        <ele>288.0</ele>
        <time>2021-08-21T07:40:53.028Z</time>
      </trkpt>
      <trkpt lat="41.995795" lon="2.87498833">
        <ele>289.0</ele>
        <time>2021-08-21T07:40:54.013Z</time>
      </trkpt>
      <trkpt lat="41.99581667" lon="2.87497667">
        <ele>290.0</ele>
        <time>2021-08-21T07:40:55.014Z</time>
      </trkpt>
      <trkpt lat="41.99581667" lon="2.87497667">
        <ele>290.0</ele>
        <time>2021-08-21T07:40:55.992Z</time>
      </trkpt>
      <trkpt lat="41.995855" lon="2.87494333">
        <ele>290.0</ele>
        <time>2021-08-21T07:40:57.016Z</time>
      </trkpt>
      <trkpt lat="41.995855" lon="2.87494333">
        <ele>290.0</ele>
        <time>2021-08-21T07:40:58.031Z</time>
      </trkpt>
      <trkpt lat="41.99589333" lon="2.87491833">
        <ele>291.0</ele>
        <time>2021-08-21T07:40:58.995Z</time>
      </trkpt>
      <trkpt lat="41.99590833" lon="2.874905">
        <ele>292.0</ele>
        <time>2021-08-21T07:40:59.996Z</time>
      </trkpt>
      <trkpt lat="41.99590833" lon="2.874905">
        <ele>292.0</ele>
        <time>2021-08-21T07:41:01.024Z</time>
      </trkpt>
      <trkpt lat="41.99594333" lon="2.87487667">
        <ele>292.0</ele>
        <time>2021-08-21T07:41:01.994Z</time>
      </trkpt>
      <trkpt lat="41.99596333" lon="2.87486167">
        <ele>293.0</ele>
        <time>2021-08-21T07:41:03.017Z</time>
      </trkpt>
      <trkpt lat="41.99598333" lon="2.87483667">
        <ele>293.0</ele>
        <time>2021-08-21T07:41:04.000Z</time>
      </trkpt>
      <trkpt lat="41.99598333" lon="2.87483667">
        <ele>293.0</ele>
        <time>2021-08-21T07:41:05.024Z</time>
      </trkpt>
      <trkpt lat="41.99601167" lon="2.87477667">
        <ele>294.0</ele>
        <time>2021-08-21T07:41:06.006Z</time>
      </trkpt>
      <trkpt lat="41.99601167" lon="2.87477667">
        <ele>294.0</ele>
        <time>2021-08-21T07:41:07.029Z</time>
      </trkpt>
      <trkpt lat="41.99602" lon="2.87471">
        <ele>295.0</ele>
        <time>2021-08-21T07:41:08.007Z</time>
      </trkpt>
      <trkpt lat="41.99602833" lon="2.87467833">
        <ele>295.0</ele>
        <time>2021-08-21T07:41:09.025Z</time>
      </trkpt>
      <trkpt lat="41.99602833" lon="2.87467833">
        <ele>295.0</ele>
        <time>2021-08-21T07:41:10.000Z</time>
      </trkpt>
      <trkpt lat="41.996055" lon="2.87460333">
        <ele>295.0</ele>
        <time>2021-08-21T07:41:10.997Z</time>
      </trkpt>
      <trkpt lat="41.99606333" lon="2.87456667">
        <ele>296.0</ele>
        <time>2021-08-21T07:41:11.995Z</time>
      </trkpt>
      <trkpt lat="41.99607667" lon="2.87453">
        <ele>296.0</ele>
        <time>2021-08-21T07:41:13.010Z</time>
      </trkpt>
      <trkpt lat="41.99607667" lon="2.87453">
        <ele>296.0</ele>
        <time>2021-08-21T07:41:14.030Z</time>
      </trkpt>
      <trkpt lat="41.99609" lon="2.87444667">
        <ele>296.0</ele>
        <time>2021-08-21T07:41:15.016Z</time>
      </trkpt>
      <trkpt lat="41.99609333" lon="2.87440167">
        <ele>297.0</ele>
        <time>2021-08-21T07:41:15.996Z</time>
      </trkpt>
      <trkpt lat="41.99609333" lon="2.87440167">
        <ele>297.0</ele>
        <time>2021-08-21T07:41:17.031Z</time>
      </trkpt>
      <trkpt lat="41.99611" lon="2.87431833">
        <ele>297.0</ele>
        <time>2021-08-21T07:41:18.004Z</time>
      </trkpt>
      <trkpt lat="41.99611" lon="2.87431833">
        <ele>297.0</ele>
        <time>2021-08-21T07:41:19.029Z</time>
      </trkpt>
      <trkpt lat="41.996135" lon="2.87423">
        <ele>297.0</ele>
        <time>2021-08-21T07:41:20.010Z</time>
      </trkpt>
      <trkpt lat="41.996135" lon="2.87423">
        <ele>297.0</ele>
        <time>2021-08-21T07:41:21.026Z</time>
      </trkpt>
      <trkpt lat="41.99615667" lon="2.87414167">
        <ele>298.0</ele>
        <time>2021-08-21T07:41:22.008Z</time>
      </trkpt>
      <trkpt lat="41.99615667" lon="2.87414167">
        <ele>298.0</ele>
        <time>2021-08-21T07:41:23.026Z</time>
      </trkpt>
      <trkpt lat="41.99618167" lon="2.87406">
        <ele>298.0</ele>
        <time>2021-08-21T07:41:24.007Z</time>
      </trkpt>
      <trkpt lat="41.99618167" lon="2.87406">
        <ele>298.0</ele>
        <time>2021-08-21T07:41:24.993Z</time>
      </trkpt>
      <trkpt lat="41.99619667" lon="2.87397833">
        <ele>298.0</ele>
        <time>2021-08-21T07:41:25.996Z</time>
      </trkpt>
      <trkpt lat="41.99620667" lon="2.873935">
        <ele>299.0</ele>
        <time>2021-08-21T07:41:27.009Z</time>
      </trkpt>
      <trkpt lat="41.99620667" lon="2.873935">
        <ele>299.0</ele>
        <time>2021-08-21T07:41:28.024Z</time>
      </trkpt>
      <trkpt lat="41.996225" lon="2.87385167">
        <ele>299.0</ele>
        <time>2021-08-21T07:41:29.024Z</time>
      </trkpt>
      <trkpt lat="41.99623833" lon="2.873805">
        <ele>299.0</ele>
        <time>2021-08-21T07:41:30.013Z</time>
      </trkpt>
      <trkpt lat="41.99623833" lon="2.873805">
        <ele>299.0</ele>
        <time>2021-08-21T07:41:31.028Z</time>
      </trkpt>
      <trkpt lat="41.99626833" lon="2.87370167">
        <ele>299.0</ele>
        <time>2021-08-21T07:41:32.017Z</time>
      </trkpt>
      <trkpt lat="41.99628833" lon="2.87365833">
        <ele>299.0</ele>
        <time>2021-08-21T07:41:32.999Z</time>
      </trkpt>
      <trkpt lat="41.99628833" lon="2.87365833">
        <ele>299.0</ele>
        <time>2021-08-21T07:41:34.029Z</time>
      </trkpt>
      <trkpt lat="41.99633833" lon="2.8736">
        <ele>299.0</ele>
        <time>2021-08-21T07:41:35.010Z</time>
      </trkpt>
      <trkpt lat="41.99633833" lon="2.8736">
        <ele>299.0</ele>
        <time>2021-08-21T07:41:36.027Z</time>
      </trkpt>
      <trkpt lat="41.996385" lon="2.87358167">
        <ele>300.0</ele>
        <time>2021-08-21T07:41:37.008Z</time>
      </trkpt>
      <trkpt lat="41.99640833" lon="2.87359333">
        <ele>300.0</ele>
        <time>2021-08-21T07:41:37.993Z</time>
      </trkpt>
      <trkpt lat="41.99640833" lon="2.87359333">
        <ele>300.0</ele>
        <time>2021-08-21T07:41:39.008Z</time>
      </trkpt>
      <trkpt lat="41.99645167" lon="2.87364667">
        <ele>300.0</ele>
        <time>2021-08-21T07:41:40.007Z</time>
      </trkpt>
      <trkpt lat="41.99645167" lon="2.87364667">
        <ele>300.0</ele>
        <time>2021-08-21T07:41:41.024Z</time>
      </trkpt>
      <trkpt lat="41.996485" lon="2.873715">
        <ele>300.0</ele>
        <time>2021-08-21T07:41:42.010Z</time>
      </trkpt>
      <trkpt lat="41.996485" lon="2.873715">
        <ele>300.0</ele>
        <time>2021-08-21T07:41:43.026Z</time>
      </trkpt>
      <trkpt lat="41.99652167" lon="2.873775">
        <ele>300.0</ele>
        <time>2021-08-21T07:41:44.010Z</time>
      </trkpt>
      <trkpt lat="41.99654" lon="2.87380333">
        <ele>300.0</ele>
        <time>2021-08-21T07:41:44.994Z</time>
      </trkpt>
      <trkpt lat="41.99656167" lon="2.87383333">
        <ele>300.0</ele>
        <time>2021-08-21T07:41:45.998Z</time>
      </trkpt>
      <trkpt lat="41.99656167" lon="2.87383333">
        <ele>300.0</ele>
        <time>2021-08-21T07:41:47.030Z</time>
      </trkpt>
      <trkpt lat="41.99661" lon="2.873885">
        <ele>301.0</ele>
        <time>2021-08-21T07:41:48.012Z</time>
      </trkpt>
      <trkpt lat="41.99661" lon="2.873885">
        <ele>301.0</ele>
        <time>2021-08-21T07:41:49.027Z</time>
      </trkpt>
      <trkpt lat="41.99666" lon="2.87391">
        <ele>301.0</ele>
        <time>2021-08-21T07:41:49.999Z</time>
      </trkpt>
      <trkpt lat="41.99666" lon="2.87391">
        <ele>301.0</ele>
        <time>2021-08-21T07:41:51.027Z</time>
      </trkpt>
      <trkpt lat="41.99669833" lon="2.87393">
        <ele>301.0</ele>
        <time>2021-08-21T07:41:52.008Z</time>
      </trkpt>
      <trkpt lat="41.99669833" lon="2.87393">
        <ele>301.0</ele>
        <time>2021-08-21T07:41:53.024Z</time>
      </trkpt>
      <trkpt lat="41.996745" lon="2.87393667">
        <ele>302.0</ele>
        <time>2021-08-21T07:41:54.015Z</time>
      </trkpt>
      <trkpt lat="41.99677333" lon="2.87393667">
        <ele>302.0</ele>
        <time>2021-08-21T07:41:54.996Z</time>
      </trkpt>
      <trkpt lat="41.99677333" lon="2.87393667">
        <ele>302.0</ele>
        <time>2021-08-21T07:41:56.029Z</time>
      </trkpt>
      <trkpt lat="41.99682167" lon="2.87394167">
        <ele>303.0</ele>
        <time>2021-08-21T07:41:57.015Z</time>
      </trkpt>
      <trkpt lat="41.99682167" lon="2.87394167">
        <ele>303.0</ele>
        <time>2021-08-21T07:41:58.027Z</time>
      </trkpt>
      <trkpt lat="41.99686667" lon="2.873955">
        <ele>303.0</ele>
        <time>2021-08-21T07:41:59.011Z</time>
      </trkpt>
      <trkpt lat="41.99689" lon="2.87397">
        <ele>304.0</ele>
        <time>2021-08-21T07:41:59.998Z</time>
      </trkpt>
      <trkpt lat="41.99689" lon="2.87397">
        <ele>304.0</ele>
        <time>2021-08-21T07:42:01.024Z</time>
      </trkpt>
      <trkpt lat="41.99694667" lon="2.874">
        <ele>305.0</ele>
        <time>2021-08-21T07:42:02.004Z</time>
      </trkpt>
      <trkpt lat="41.99697333" lon="2.87401833">
        <ele>305.0</ele>
        <time>2021-08-21T07:42:03.006Z</time>
      </trkpt>
      <trkpt lat="41.99697333" lon="2.87401833">
        <ele>305.0</ele>
        <time>2021-08-21T07:42:04.024Z</time>
      </trkpt>
      <trkpt lat="41.99700667" lon="2.87406333">
        <ele>306.0</ele>
        <time>2021-08-21T07:42:05.013Z</time>
      </trkpt>
      <trkpt lat="41.99700667" lon="2.87406333">
        <ele>306.0</ele>
        <time>2021-08-21T07:42:06.028Z</time>
      </trkpt>
      <trkpt lat="41.99703833" lon="2.87409">
        <ele>307.0</ele>
        <time>2021-08-21T07:42:07.023Z</time>
      </trkpt>
      <trkpt lat="41.99703833" lon="2.87409">
        <ele>307.0</ele>
        <time>2021-08-21T07:42:08.020Z</time>
      </trkpt>
      <trkpt lat="41.99707833" lon="2.87412833">
        <ele>307.0</ele>
        <time>2021-08-21T07:42:09.000Z</time>
      </trkpt>
      <trkpt lat="41.99707833" lon="2.87412833">
        <ele>307.0</ele>
        <time>2021-08-21T07:42:10.024Z</time>
      </trkpt>
      <trkpt lat="41.99712333" lon="2.87416667">
        <ele>307.0</ele>
        <time>2021-08-21T07:42:11.008Z</time>
      </trkpt>
      <trkpt lat="41.99712333" lon="2.87416667">
        <ele>307.0</ele>
        <time>2021-08-21T07:42:12.024Z</time>
      </trkpt>
      <trkpt lat="41.99716667" lon="2.87417167">
        <ele>308.0</ele>
        <time>2021-08-21T07:42:13.013Z</time>
      </trkpt>
      <trkpt lat="41.99716667" lon="2.87417167">
        <ele>308.0</ele>
        <time>2021-08-21T07:42:14.029Z</time>
      </trkpt>
      <trkpt lat="41.99721333" lon="2.87418167">
        <ele>309.0</ele>
        <time>2021-08-21T07:42:15.013Z</time>
      </trkpt>
      <trkpt lat="41.99723833" lon="2.87419667">
        <ele>309.0</ele>
        <time>2021-08-21T07:42:15.994Z</time>
      </trkpt>
      <trkpt lat="41.99723833" lon="2.87419667">
        <ele>309.0</ele>
        <time>2021-08-21T07:42:17.025Z</time>
      </trkpt>
      <trkpt lat="41.99728333" lon="2.874235">
        <ele>309.0</ele>
        <time>2021-08-21T07:42:18.024Z</time>
      </trkpt>
      <trkpt lat="41.99730667" lon="2.87425833">
        <ele>309.0</ele>
        <time>2021-08-21T07:42:18.992Z</time>
      </trkpt>
      <trkpt lat="41.99730667" lon="2.87425833">
        <ele>309.0</ele>
        <time>2021-08-21T07:42:19.998Z</time>
      </trkpt>
      <trkpt lat="41.99735" lon="2.87429333">
        <ele>310.0</ele>
        <time>2021-08-21T07:42:21.023Z</time>
      </trkpt>
      <trkpt lat="41.99735" lon="2.87429333">
        <ele>310.0</ele>
        <time>2021-08-21T07:42:22.029Z</time>
      </trkpt>
      <trkpt lat="41.99739333" lon="2.87433833">
        <ele>310.0</ele>
        <time>2021-08-21T07:42:23.004Z</time>
      </trkpt>
      <trkpt lat="41.99739333" lon="2.87433833">
        <ele>310.0</ele>
        <time>2021-08-21T07:42:24.009Z</time>
      </trkpt>
      <trkpt lat="41.997425" lon="2.874385">
        <ele>310.0</ele>
        <time>2021-08-21T07:42:25.023Z</time>
      </trkpt>
      <trkpt lat="41.997425" lon="2.874385">
        <ele>310.0</ele>
        <time>2021-08-21T07:42:26.028Z</time>
      </trkpt>
      <trkpt lat="41.99745167" lon="2.87444333">
        <ele>310.0</ele>
        <time>2021-08-21T07:42:27.003Z</time>
      </trkpt>
      <trkpt lat="41.99745167" lon="2.87444333">
        <ele>310.0</ele>
        <time>2021-08-21T07:42:28.009Z</time>
      </trkpt>
      <trkpt lat="41.997485" lon="2.87449667">
        <ele>310.0</ele>
        <time>2021-08-21T07:42:28.995Z</time>
      </trkpt>
      <trkpt lat="41.997485" lon="2.87449667">
        <ele>310.0</ele>
        <time>2021-08-21T07:42:30.000Z</time>
      </trkpt>
      <trkpt lat="41.997495" lon="2.87452667">
        <ele>310.0</ele>
        <time>2021-08-21T07:42:31.021Z</time>
      </trkpt>
      <trkpt lat="41.997495" lon="2.87452667">
        <ele>310.0</ele>
        <time>2021-08-21T07:42:32.000Z</time>
      </trkpt>
      <trkpt lat="41.99752333" lon="2.87457333">
        <ele>309.0</ele>
        <time>2021-08-21T07:42:32.996Z</time>
      </trkpt>
      <trkpt lat="41.99752333" lon="2.87457333">
        <ele>309.0</ele>
        <time>2021-08-21T07:42:34.026Z</time>
      </trkpt>
      <trkpt lat="41.99755" lon="2.87460833">
        <ele>308.0</ele>
        <time>2021-08-21T07:42:35.005Z</time>
      </trkpt>
      <trkpt lat="41.997565" lon="2.87462833">
        <ele>308.0</ele>
        <time>2021-08-21T07:42:36.005Z</time>
      </trkpt>
      <trkpt lat="41.997565" lon="2.87462833">
        <ele>308.0</ele>
        <time>2021-08-21T07:42:37.025Z</time>
      </trkpt>
      <trkpt lat="41.99759333" lon="2.87465167">
        <ele>307.0</ele>
        <time>2021-08-21T07:42:37.997Z</time>
      </trkpt>
      <trkpt lat="41.99760167" lon="2.87465333">
        <ele>306.0</ele>
        <time>2021-08-21T07:42:39.017Z</time>
      </trkpt>
      <trkpt lat="41.99760167" lon="2.87465333">
        <ele>306.0</ele>
        <time>2021-08-21T07:42:40.023Z</time>
      </trkpt>
      <trkpt lat="41.99762833" lon="2.87467667">
        <ele>306.0</ele>
        <time>2021-08-21T07:42:41.001Z</time>
      </trkpt>
      <trkpt lat="41.99762833" lon="2.87467667">
        <ele>306.0</ele>
        <time>2021-08-21T07:42:42.006Z</time>
      </trkpt>
      <trkpt lat="41.99766167" lon="2.8747">
        <ele>306.0</ele>
        <time>2021-08-21T07:42:43.028Z</time>
      </trkpt>
      <trkpt lat="41.997675" lon="2.87470167">
        <ele>306.0</ele>
        <time>2021-08-21T07:42:44.010Z</time>
      </trkpt>
      <trkpt lat="41.99768667" lon="2.8747">
        <ele>305.0</ele>
        <time>2021-08-21T07:42:45.000Z</time>
      </trkpt>
      <trkpt lat="41.99768667" lon="2.8747">
        <ele>305.0</ele>
        <time>2021-08-21T07:42:46.005Z</time>
      </trkpt>
      <trkpt lat="41.99771167" lon="2.874685">
        <ele>305.0</ele>
        <time>2021-08-21T07:42:47.030Z</time>
      </trkpt>
      <trkpt lat="41.99771167" lon="2.874685">
        <ele>305.0</ele>
        <time>2021-08-21T07:42:47.996Z</time>
      </trkpt>
      <trkpt lat="41.997715" lon="2.87464667">
        <ele>304.0</ele>
        <time>2021-08-21T07:42:49.017Z</time>
      </trkpt>
      <trkpt lat="41.997715" lon="2.87464667">
        <ele>304.0</ele>
        <time>2021-08-21T07:42:50.022Z</time>
      </trkpt>
      <trkpt lat="41.99769667" lon="2.8746">
        <ele>304.0</ele>
        <time>2021-08-21T07:42:51.013Z</time>
      </trkpt>
      <trkpt lat="41.99769667" lon="2.8746">
        <ele>304.0</ele>
        <time>2021-08-21T07:42:52.020Z</time>
      </trkpt>
      <trkpt lat="41.99768333" lon="2.87455833">
        <ele>303.0</ele>
        <time>2021-08-21T07:42:52.999Z</time>
      </trkpt>
      <trkpt lat="41.99767667" lon="2.874535">
        <ele>303.0</ele>
        <time>2021-08-21T07:42:54.018Z</time>
      </trkpt>
      <trkpt lat="41.99767667" lon="2.874535">
        <ele>303.0</ele>
        <time>2021-08-21T07:42:55.024Z</time>
      </trkpt>
      <trkpt lat="41.99766667" lon="2.87448">
        <ele>303.0</ele>
        <time>2021-08-21T07:42:56.004Z</time>
      </trkpt>
      <trkpt lat="41.99766" lon="2.87445167">
        <ele>303.0</ele>
        <time>2021-08-21T07:42:57.027Z</time>
      </trkpt>
      <trkpt lat="41.99766" lon="2.87445167">
        <ele>303.0</ele>
        <time>2021-08-21T07:42:57.992Z</time>
      </trkpt>
      <trkpt lat="41.997645" lon="2.87439167">
        <ele>303.0</ele>
        <time>2021-08-21T07:42:59.002Z</time>
      </trkpt>
      <trkpt lat="41.997645" lon="2.87439167">
        <ele>303.0</ele>
        <time>2021-08-21T07:43:00.008Z</time>
      </trkpt>
      <trkpt lat="41.99763333" lon="2.874335">
        <ele>303.0</ele>
        <time>2021-08-21T07:43:00.995Z</time>
      </trkpt>
      <trkpt lat="41.99763333" lon="2.874335">
        <ele>303.0</ele>
        <time>2021-08-21T07:43:02.017Z</time>
      </trkpt>
      <trkpt lat="41.99761667" lon="2.87429">
        <ele>303.0</ele>
        <time>2021-08-21T07:43:02.995Z</time>
      </trkpt>
      <trkpt lat="41.99761667" lon="2.87429">
        <ele>303.0</ele>
        <time>2021-08-21T07:43:04.000Z</time>
      </trkpt>
      <trkpt lat="41.99759333" lon="2.87424333">
        <ele>303.0</ele>
        <time>2021-08-21T07:43:05.014Z</time>
      </trkpt>
      <trkpt lat="41.99759333" lon="2.87424333">
        <ele>303.0</ele>
        <time>2021-08-21T07:43:06.020Z</time>
      </trkpt>
      <trkpt lat="41.997565" lon="2.87421">
        <ele>303.0</ele>
        <time>2021-08-21T07:43:07.010Z</time>
      </trkpt>
      <trkpt lat="41.997565" lon="2.87421">
        <ele>303.0</ele>
        <time>2021-08-21T07:43:08.017Z</time>
      </trkpt>
      <trkpt lat="41.99754" lon="2.87418333">
        <ele>304.0</ele>
        <time>2021-08-21T07:43:08.998Z</time>
      </trkpt>
      <trkpt lat="41.99754" lon="2.87418333">
        <ele>304.0</ele>
        <time>2021-08-21T07:43:10.003Z</time>
      </trkpt>
      <trkpt lat="41.99754167" lon="2.87417833">
        <ele>304.0</ele>
        <time>2021-08-21T07:43:11.021Z</time>
      </trkpt>
      <trkpt lat="41.99754167" lon="2.87417833">
        <ele>304.0</ele>
        <time>2021-08-21T07:43:12.005Z</time>
      </trkpt>
      <trkpt lat="41.99755667" lon="2.87416333">
        <ele>300.0</ele>
        <time>2021-08-21T07:43:13.030Z</time>
      </trkpt>
      <trkpt lat="41.99755667" lon="2.87416333">
        <ele>300.0</ele>
        <time>2021-08-21T07:43:13.995Z</time>
      </trkpt>
      <trkpt lat="41.997535" lon="2.874135">
        <ele>299.0</ele>
        <time>2021-08-21T07:43:15.000Z</time>
      </trkpt>
      <trkpt lat="41.997535" lon="2.874135">
        <ele>299.0</ele>
        <time>2021-08-21T07:43:16.006Z</time>
      </trkpt>
      <trkpt lat="41.99751" lon="2.87409333">
        <ele>299.0</ele>
        <time>2021-08-21T07:43:17.025Z</time>
      </trkpt>
      <trkpt lat="41.99749667" lon="2.87407167">
        <ele>299.0</ele>
        <time>2021-08-21T07:43:18.008Z</time>
      </trkpt>
      <trkpt lat="41.99749667" lon="2.87407167">
        <ele>299.0</ele>
        <time>2021-08-21T07:43:19.013Z</time>
      </trkpt>
      <trkpt lat="41.99746833" lon="2.874025">
        <ele>299.0</ele>
        <time>2021-08-21T07:43:20.008Z</time>
      </trkpt>
      <trkpt lat="41.997455" lon="2.87400167">
        <ele>299.0</ele>
        <time>2021-08-21T07:43:21.031Z</time>
      </trkpt>
      <trkpt lat="41.997455" lon="2.87400167">
        <ele>299.0</ele>
        <time>2021-08-21T07:43:21.997Z</time>
      </trkpt>
      <trkpt lat="41.99742" lon="2.87396">
        <ele>299.0</ele>
        <time>2021-08-21T07:43:23.017Z</time>
      </trkpt>
      <trkpt lat="41.99742" lon="2.87396">
        <ele>299.0</ele>
        <time>2021-08-21T07:43:24.022Z</time>
      </trkpt>
      <trkpt lat="41.99739" lon="2.87391667">
        <ele>300.0</ele>
        <time>2021-08-21T07:43:24.999Z</time>
      </trkpt>
      <trkpt lat="41.99737833" lon="2.87389167">
        <ele>300.0</ele>
        <time>2021-08-21T07:43:26.019Z</time>
      </trkpt>
      <trkpt lat="41.99736333" lon="2.87386667">
        <ele>300.0</ele>
        <time>2021-08-21T07:43:27.001Z</time>
      </trkpt>
      <trkpt lat="41.99736333" lon="2.87386667">
        <ele>300.0</ele>
        <time>2021-08-21T07:43:28.007Z</time>
      </trkpt>
      <trkpt lat="41.99733667" lon="2.87381333">
        <ele>300.0</ele>
        <time>2021-08-21T07:43:29.022Z</time>
      </trkpt>
      <trkpt lat="41.99733667" lon="2.87381333">
        <ele>300.0</ele>
        <time>2021-08-21T07:43:30.027Z</time>
      </trkpt>
      <trkpt lat="41.99731" lon="2.873765">
        <ele>300.0</ele>
        <time>2021-08-21T07:43:31.023Z</time>
      </trkpt>
      <trkpt lat="41.99731" lon="2.873765">
        <ele>300.0</ele>
        <time>2021-08-21T07:43:32.028Z</time>
      </trkpt>
      <trkpt lat="41.99727833" lon="2.873725">
        <ele>301.0</ele>
        <time>2021-08-21T07:43:33.010Z</time>
      </trkpt>
      <trkpt lat="41.99727833" lon="2.873725">
        <ele>301.0</ele>
        <time>2021-08-21T07:43:34.015Z</time>
      </trkpt>
      <trkpt lat="41.99724667" lon="2.87367333">
        <ele>301.0</ele>
        <time>2021-08-21T07:43:34.992Z</time>
      </trkpt>
      <trkpt lat="41.99724667" lon="2.87367333">
        <ele>301.0</ele>
        <time>2021-08-21T07:43:35.997Z</time>
      </trkpt>
      <trkpt lat="41.99721" lon="2.87362667">
        <ele>302.0</ele>
        <time>2021-08-21T07:43:36.995Z</time>
      </trkpt>
      <trkpt lat="41.99721" lon="2.87362667">
        <ele>302.0</ele>
        <time>2021-08-21T07:43:38.000Z</time>
      </trkpt>
      <trkpt lat="41.997175" lon="2.87358">
        <ele>302.0</ele>
        <time>2021-08-21T07:43:39.022Z</time>
      </trkpt>
      <trkpt lat="41.997175" lon="2.87358">
        <ele>302.0</ele>
        <time>2021-08-21T07:43:40.027Z</time>
      </trkpt>
      <trkpt lat="41.99714" lon="2.873545">
        <ele>303.0</ele>
        <time>2021-08-21T07:43:41.008Z</time>
      </trkpt>
      <trkpt lat="41.99714" lon="2.873545">
        <ele>303.0</ele>
        <time>2021-08-21T07:43:42.014Z</time>
      </trkpt>
      <trkpt lat="41.99710833" lon="2.87349833">
        <ele>303.0</ele>
        <time>2021-08-21T07:43:43.002Z</time>
      </trkpt>
      <trkpt lat="41.99709167" lon="2.87348">
        <ele>303.0</ele>
        <time>2021-08-21T07:43:44.027Z</time>
      </trkpt>
      <trkpt lat="41.99707667" lon="2.87345833">
        <ele>304.0</ele>
        <time>2021-08-21T07:43:45.015Z</time>
      </trkpt>
      <trkpt lat="41.99707667" lon="2.87345833">
        <ele>304.0</ele>
        <time>2021-08-21T07:43:46.020Z</time>
      </trkpt>
      <trkpt lat="41.997045" lon="2.87341667">
        <ele>304.0</ele>
        <time>2021-08-21T07:43:47.004Z</time>
      </trkpt>
      <trkpt lat="41.997045" lon="2.87341667">
        <ele>304.0</ele>
        <time>2021-08-21T07:43:48.010Z</time>
      </trkpt>
      <trkpt lat="41.99702" lon="2.87337">
        <ele>305.0</ele>
        <time>2021-08-21T07:43:48.998Z</time>
      </trkpt>
      <trkpt lat="41.99700667" lon="2.87334833">
        <ele>305.0</ele>
        <time>2021-08-21T07:43:50.010Z</time>
      </trkpt>
      <trkpt lat="41.996995" lon="2.873325">
        <ele>306.0</ele>
        <time>2021-08-21T07:43:50.993Z</time>
      </trkpt>
      <trkpt lat="41.996995" lon="2.873325">
        <ele>306.0</ele>
        <time>2021-08-21T07:43:51.998Z</time>
      </trkpt>
      <trkpt lat="41.99696833" lon="2.87327667">
        <ele>307.0</ele>
        <time>2021-08-21T07:43:53.014Z</time>
      </trkpt>
      <trkpt lat="41.99696833" lon="2.87327667">
        <ele>307.0</ele>
        <time>2021-08-21T07:43:54.031Z</time>
      </trkpt>
      <trkpt lat="41.99694333" lon="2.87324167">
        <ele>307.0</ele>
        <time>2021-08-21T07:43:55.015Z</time>
      </trkpt>
      <trkpt lat="41.99694333" lon="2.87324167">
        <ele>307.0</ele>
        <time>2021-08-21T07:43:56.021Z</time>
      </trkpt>
      <trkpt lat="41.99691667" lon="2.87319833">
        <ele>308.0</ele>
        <time>2021-08-21T07:43:57.014Z</time>
      </trkpt>
      <trkpt lat="41.99691667" lon="2.87319833">
        <ele>308.0</ele>
        <time>2021-08-21T07:43:58.030Z</time>
      </trkpt>
      <trkpt lat="41.99689" lon="2.87315833">
        <ele>308.0</ele>
        <time>2021-08-21T07:43:58.997Z</time>
      </trkpt>
      <trkpt lat="41.99689" lon="2.87315833">
        <ele>308.0</ele>
        <time>2021-08-21T07:44:00.002Z</time>
      </trkpt>
      <trkpt lat="41.99686833" lon="2.87311667">
        <ele>309.0</ele>
        <time>2021-08-21T07:44:01.025Z</time>
      </trkpt>
      <trkpt lat="41.99686833" lon="2.87311667">
        <ele>309.0</ele>
        <time>2021-08-21T07:44:02.008Z</time>
      </trkpt>
      <trkpt lat="41.99684833" lon="2.87307">
        <ele>309.0</ele>
        <time>2021-08-21T07:44:03.020Z</time>
      </trkpt>
      <trkpt lat="41.99684833" lon="2.87307">
        <ele>309.0</ele>
        <time>2021-08-21T07:44:04.025Z</time>
      </trkpt>
      <trkpt lat="41.99682833" lon="2.87303">
        <ele>310.0</ele>
        <time>2021-08-21T07:44:05.007Z</time>
      </trkpt>
      <trkpt lat="41.99681833" lon="2.87300833">
        <ele>310.0</ele>
        <time>2021-08-21T07:44:06.027Z</time>
      </trkpt>
      <trkpt lat="41.99681833" lon="2.87300833">
        <ele>310.0</ele>
        <time>2021-08-21T07:44:06.992Z</time>
      </trkpt>
      <trkpt lat="41.99679" lon="2.87295333">
        <ele>311.0</ele>
        <time>2021-08-21T07:44:08.016Z</time>
      </trkpt>
      <trkpt lat="41.99677333" lon="2.87292333">
        <ele>311.0</ele>
        <time>2021-08-21T07:44:09.024Z</time>
      </trkpt>
      <trkpt lat="41.99677333" lon="2.87292333">
        <ele>311.0</ele>
        <time>2021-08-21T07:44:10.030Z</time>
      </trkpt>
      <trkpt lat="41.99673667" lon="2.872865">
        <ele>312.0</ele>
        <time>2021-08-21T07:44:11.009Z</time>
      </trkpt>
      <trkpt lat="41.99673667" lon="2.872865">
        <ele>312.0</ele>
        <time>2021-08-21T07:44:12.014Z</time>
      </trkpt>
      <trkpt lat="41.996705" lon="2.87279833">
        <ele>312.0</ele>
        <time>2021-08-21T07:44:12.997Z</time>
      </trkpt>
      <trkpt lat="41.996705" lon="2.87279833">
        <ele>312.0</ele>
        <time>2021-08-21T07:44:14.003Z</time>
      </trkpt>
      <trkpt lat="41.996665" lon="2.87273167">
        <ele>313.0</ele>
        <time>2021-08-21T07:44:14.994Z</time>
      </trkpt>
      <trkpt lat="41.996645" lon="2.872705">
        <ele>313.0</ele>
        <time>2021-08-21T07:44:16.014Z</time>
      </trkpt>
      <trkpt lat="41.996645" lon="2.872705">
        <ele>313.0</ele>
        <time>2021-08-21T07:44:17.019Z</time>
      </trkpt>
      <trkpt lat="41.99659833" lon="2.872645">
        <ele>313.0</ele>
        <time>2021-08-21T07:44:17.994Z</time>
      </trkpt>
      <trkpt lat="41.99659833" lon="2.872645">
        <ele>313.0</ele>
        <time>2021-08-21T07:44:18.998Z</time>
      </trkpt>
      <trkpt lat="41.99655167" lon="2.87257833">
        <ele>314.0</ele>
        <time>2021-08-21T07:44:20.026Z</time>
      </trkpt>
      <trkpt lat="41.99652833" lon="2.87254667">
        <ele>314.0</ele>
        <time>2021-08-21T07:44:21.007Z</time>
      </trkpt>
      <trkpt lat="41.99652833" lon="2.87254667">
        <ele>314.0</ele>
        <time>2021-08-21T07:44:22.013Z</time>
      </trkpt>
      <trkpt lat="41.99648333" lon="2.872485">
        <ele>314.0</ele>
        <time>2021-08-21T07:44:23.031Z</time>
      </trkpt>
      <trkpt lat="41.99648333" lon="2.872485">
        <ele>314.0</ele>
        <time>2021-08-21T07:44:23.996Z</time>
      </trkpt>
      <trkpt lat="41.99644333" lon="2.87242833">
        <ele>315.0</ele>
        <time>2021-08-21T07:44:25.020Z</time>
      </trkpt>
      <trkpt lat="41.99644333" lon="2.87242833">
        <ele>315.0</ele>
        <time>2021-08-21T07:44:26.025Z</time>
      </trkpt>
      <trkpt lat="41.99639833" lon="2.87237">
        <ele>316.0</ele>
        <time>2021-08-21T07:44:27.007Z</time>
      </trkpt>
      <trkpt lat="41.99639833" lon="2.87237">
        <ele>316.0</ele>
        <time>2021-08-21T07:44:28.013Z</time>
      </trkpt>
      <trkpt lat="41.99635" lon="2.872305">
        <ele>316.0</ele>
        <time>2021-08-21T07:44:29.014Z</time>
      </trkpt>
      <trkpt lat="41.99635" lon="2.872305">
        <ele>316.0</ele>
        <time>2021-08-21T07:44:30.019Z</time>
      </trkpt>
      <trkpt lat="41.9963" lon="2.87223667">
        <ele>317.0</ele>
        <time>2021-08-21T07:44:31.000Z</time>
      </trkpt>
      <trkpt lat="41.9963" lon="2.87223667">
        <ele>317.0</ele>
        <time>2021-08-21T07:44:32.012Z</time>
      </trkpt>
      <trkpt lat="41.99624667" lon="2.87217167">
        <ele>317.0</ele>
        <time>2021-08-21T07:44:33.028Z</time>
      </trkpt>
      <trkpt lat="41.99624667" lon="2.87217167">
        <ele>317.0</ele>
        <time>2021-08-21T07:44:33.993Z</time>
      </trkpt>
      <trkpt lat="41.996195" lon="2.87212333">
        <ele>318.0</ele>
        <time>2021-08-21T07:44:35.019Z</time>
      </trkpt>
      <trkpt lat="41.996195" lon="2.87212333">
        <ele>318.0</ele>
        <time>2021-08-21T07:44:36.024Z</time>
      </trkpt>
      <trkpt lat="41.99613833" lon="2.87208667">
        <ele>318.0</ele>
        <time>2021-08-21T07:44:37.005Z</time>
      </trkpt>
      <trkpt lat="41.99610333" lon="2.87207667">
        <ele>318.0</ele>
        <time>2021-08-21T07:44:38.023Z</time>
      </trkpt>
      <trkpt lat="41.99606167" lon="2.872075">
        <ele>319.0</ele>
        <time>2021-08-21T07:44:39.001Z</time>
      </trkpt>
      <trkpt lat="41.99602667" lon="2.87206833">
        <ele>319.0</ele>
        <time>2021-08-21T07:44:40.026Z</time>
      </trkpt>
      <trkpt lat="41.99602667" lon="2.87206833">
        <ele>319.0</ele>
        <time>2021-08-21T07:44:41.031Z</time>
      </trkpt>
      <trkpt lat="41.99596667" lon="2.87207167">
        <ele>320.0</ele>
        <time>2021-08-21T07:44:42.008Z</time>
      </trkpt>
      <trkpt lat="41.99594167" lon="2.87207333">
        <ele>320.0</ele>
        <time>2021-08-21T07:44:42.998Z</time>
      </trkpt>
      <trkpt lat="41.99594167" lon="2.87207333">
        <ele>320.0</ele>
        <time>2021-08-21T07:44:44.003Z</time>
      </trkpt>
      <trkpt lat="41.9959" lon="2.87206333">
        <ele>320.0</ele>
        <time>2021-08-21T07:44:45.026Z</time>
      </trkpt>
      <trkpt lat="41.9959" lon="2.87206333">
        <ele>320.0</ele>
        <time>2021-08-21T07:44:45.992Z</time>
      </trkpt>
      <trkpt lat="41.99587333" lon="2.87205667">
        <ele>321.0</ele>
        <time>2021-08-21T07:44:47.012Z</time>
      </trkpt>
      <trkpt lat="41.99586167" lon="2.87205167">
        <ele>321.0</ele>
        <time>2021-08-21T07:44:48.012Z</time>
      </trkpt>
      <trkpt lat="41.99586167" lon="2.87205167">
        <ele>321.0</ele>
        <time>2021-08-21T07:44:49.017Z</time>
      </trkpt>
      <trkpt lat="41.995835" lon="2.87203">
        <ele>322.0</ele>
        <time>2021-08-21T07:44:50.003Z</time>
      </trkpt>
      <trkpt lat="41.995825" lon="2.87202">
        <ele>322.0</ele>
        <time>2021-08-21T07:44:51.031Z</time>
      </trkpt>
      <trkpt lat="41.995825" lon="2.87202">
        <ele>322.0</ele>
        <time>2021-08-21T07:44:51.996Z</time>
      </trkpt>
      <trkpt lat="41.99580667" lon="2.87199333">
        <ele>323.0</ele>
        <time>2021-08-21T07:44:53.014Z</time>
      </trkpt>
      <trkpt lat="41.99580667" lon="2.87199333">
        <ele>323.0</ele>
        <time>2021-08-21T07:44:54.020Z</time>
      </trkpt>
      <trkpt lat="41.99579333" lon="2.87196167">
        <ele>323.0</ele>
        <time>2021-08-21T07:44:54.995Z</time>
      </trkpt>
      <trkpt lat="41.99579333" lon="2.87196167">
        <ele>323.0</ele>
        <time>2021-08-21T07:44:56.000Z</time>
      </trkpt>
      <trkpt lat="41.99578167" lon="2.87192">
        <ele>324.0</ele>
        <time>2021-08-21T07:44:57.021Z</time>
      </trkpt>
      <trkpt lat="41.99578167" lon="2.87192">
        <ele>324.0</ele>
        <time>2021-08-21T07:44:57.998Z</time>
      </trkpt>
      <trkpt lat="41.99576167" lon="2.87188333">
        <ele>324.0</ele>
        <time>2021-08-21T07:44:58.998Z</time>
      </trkpt>
      <trkpt lat="41.99576167" lon="2.87188333">
        <ele>324.0</ele>
        <time>2021-08-21T07:45:00.004Z</time>
      </trkpt>
      <trkpt lat="41.99575167" lon="2.87184667">
        <ele>325.0</ele>
        <time>2021-08-21T07:45:01.023Z</time>
      </trkpt>
      <trkpt lat="41.99575167" lon="2.87184667">
        <ele>325.0</ele>
        <time>2021-08-21T07:45:02.002Z</time>
      </trkpt>
      <trkpt lat="41.99575" lon="2.87180667">
        <ele>325.0</ele>
        <time>2021-08-21T07:45:02.995Z</time>
      </trkpt>
      <trkpt lat="41.99575" lon="2.87180667">
        <ele>325.0</ele>
        <time>2021-08-21T07:45:04.000Z</time>
      </trkpt>
      <trkpt lat="41.99573167" lon="2.87177">
        <ele>325.0</ele>
        <time>2021-08-21T07:45:05.028Z</time>
      </trkpt>
      <trkpt lat="41.99573167" lon="2.87177">
        <ele>325.0</ele>
        <time>2021-08-21T07:45:05.994Z</time>
      </trkpt>
      <trkpt lat="41.99570333" lon="2.87173333">
        <ele>326.0</ele>
        <time>2021-08-21T07:45:07.017Z</time>
      </trkpt>
      <trkpt lat="41.99570333" lon="2.87173333">
        <ele>326.0</ele>
        <time>2021-08-21T07:45:08.023Z</time>
      </trkpt>
      <trkpt lat="41.99568167" lon="2.87169667">
        <ele>326.0</ele>
        <time>2021-08-21T07:45:09.002Z</time>
      </trkpt>
      <trkpt lat="41.99568167" lon="2.87169667">
        <ele>326.0</ele>
        <time>2021-08-21T07:45:10.009Z</time>
      </trkpt>
      <trkpt lat="41.995655" lon="2.871665">
        <ele>327.0</ele>
        <time>2021-08-21T07:45:11.028Z</time>
      </trkpt>
      <trkpt lat="41.995655" lon="2.871665">
        <ele>327.0</ele>
        <time>2021-08-21T07:45:11.993Z</time>
      </trkpt>
      <trkpt lat="41.995625" lon="2.87162833">
        <ele>327.0</ele>
        <time>2021-08-21T07:45:13.015Z</time>
      </trkpt>
      <trkpt lat="41.995625" lon="2.87162833">
        <ele>327.0</ele>
        <time>2021-08-21T07:45:14.020Z</time>
      </trkpt>
      <trkpt lat="41.99559833" lon="2.87158833">
        <ele>327.0</ele>
        <time>2021-08-21T07:45:15.001Z</time>
      </trkpt>
      <trkpt lat="41.99559833" lon="2.87158833">
        <ele>327.0</ele>
        <time>2021-08-21T07:45:16.012Z</time>
      </trkpt>
      <trkpt lat="41.99556833" lon="2.871555">
        <ele>328.0</ele>
        <time>2021-08-21T07:45:16.995Z</time>
      </trkpt>
      <trkpt lat="41.99556833" lon="2.871555">
        <ele>328.0</ele>
        <time>2021-08-21T07:45:18.000Z</time>
      </trkpt>
      <trkpt lat="41.99554333" lon="2.87151167">
        <ele>329.0</ele>
        <time>2021-08-21T07:45:19.022Z</time>
      </trkpt>
      <trkpt lat="41.99552833" lon="2.87149167">
        <ele>329.0</ele>
        <time>2021-08-21T07:45:20.025Z</time>
      </trkpt>
      <trkpt lat="41.995515" lon="2.87147333">
        <ele>329.0</ele>
        <time>2021-08-21T07:45:21.009Z</time>
      </trkpt>
      <trkpt lat="41.995515" lon="2.87147333">
        <ele>329.0</ele>
        <time>2021-08-21T07:45:22.015Z</time>
      </trkpt>
      <trkpt lat="41.99548667" lon="2.871435">
        <ele>330.0</ele>
        <time>2021-08-21T07:45:23.000Z</time>
      </trkpt>
      <trkpt lat="41.99548667" lon="2.871435">
        <ele>330.0</ele>
        <time>2021-08-21T07:45:24.011Z</time>
      </trkpt>
      <trkpt lat="41.99546167" lon="2.87139833">
        <ele>331.0</ele>
        <time>2021-08-21T07:45:25.025Z</time>
      </trkpt>
      <trkpt lat="41.99546167" lon="2.87139833">
        <ele>331.0</ele>
        <time>2021-08-21T07:45:26.030Z</time>
      </trkpt>
      <trkpt lat="41.99543667" lon="2.87135667">
        <ele>331.0</ele>
        <time>2021-08-21T07:45:27.020Z</time>
      </trkpt>
      <trkpt lat="41.99543667" lon="2.87135667">
        <ele>331.0</ele>
        <time>2021-08-21T07:45:28.025Z</time>
      </trkpt>
      <trkpt lat="41.99541167" lon="2.87132">
        <ele>332.0</ele>
        <time>2021-08-21T07:45:29.007Z</time>
      </trkpt>
      <trkpt lat="41.99541167" lon="2.87132">
        <ele>332.0</ele>
        <time>2021-08-21T07:45:30.015Z</time>
      </trkpt>
      <trkpt lat="41.995395" lon="2.87128167">
        <ele>333.0</ele>
        <time>2021-08-21T07:45:30.997Z</time>
      </trkpt>
      <trkpt lat="41.995395" lon="2.87128167">
        <ele>333.0</ele>
        <time>2021-08-21T07:45:32.002Z</time>
      </trkpt>
      <trkpt lat="41.99537333" lon="2.87124333">
        <ele>334.0</ele>
        <time>2021-08-21T07:45:33.004Z</time>
      </trkpt>
      <trkpt lat="41.99537333" lon="2.87124333">
        <ele>334.0</ele>
        <time>2021-08-21T07:45:34.009Z</time>
      </trkpt>
      <trkpt lat="41.99534667" lon="2.87120167">
        <ele>334.0</ele>
        <time>2021-08-21T07:45:35.030Z</time>
      </trkpt>
      <trkpt lat="41.99534667" lon="2.87120167">
        <ele>334.0</ele>
        <time>2021-08-21T07:45:35.995Z</time>
      </trkpt>
      <trkpt lat="41.99532167" lon="2.87115833">
        <ele>335.0</ele>
        <time>2021-08-21T07:45:37.008Z</time>
      </trkpt>
      <trkpt lat="41.99530833" lon="2.871135">
        <ele>335.0</ele>
        <time>2021-08-21T07:45:38.030Z</time>
      </trkpt>
      <trkpt lat="41.995295" lon="2.87111">
        <ele>335.0</ele>
        <time>2021-08-21T07:45:39.013Z</time>
      </trkpt>
      <trkpt lat="41.995295" lon="2.87111">
        <ele>335.0</ele>
        <time>2021-08-21T07:45:40.019Z</time>
      </trkpt>
      <trkpt lat="41.99527167" lon="2.87107">
        <ele>336.0</ele>
        <time>2021-08-21T07:45:40.993Z</time>
      </trkpt>
      <trkpt lat="41.99527167" lon="2.87107">
        <ele>336.0</ele>
        <time>2021-08-21T07:45:41.998Z</time>
      </trkpt>
      <trkpt lat="41.99524667" lon="2.871025">
        <ele>337.0</ele>
        <time>2021-08-21T07:45:43.017Z</time>
      </trkpt>
      <trkpt lat="41.99523167" lon="2.87100667">
        <ele>337.0</ele>
        <time>2021-08-21T07:45:44.003Z</time>
      </trkpt>
      <trkpt lat="41.99521833" lon="2.87098667">
        <ele>338.0</ele>
        <time>2021-08-21T07:45:45.023Z</time>
      </trkpt>
      <trkpt lat="41.99521833" lon="2.87098667">
        <ele>338.0</ele>
        <time>2021-08-21T07:45:46.028Z</time>
      </trkpt>
      <trkpt lat="41.99518833" lon="2.87093167">
        <ele>338.0</ele>
        <time>2021-08-21T07:45:47.011Z</time>
      </trkpt>
      <trkpt lat="41.99517833" lon="2.87090833">
        <ele>339.0</ele>
        <time>2021-08-21T07:45:48.000Z</time>
      </trkpt>
      <trkpt lat="41.99517833" lon="2.87090833">
        <ele>339.0</ele>
        <time>2021-08-21T07:45:49.005Z</time>
      </trkpt>
      <trkpt lat="41.99515333" lon="2.870865">
        <ele>339.0</ele>
        <time>2021-08-21T07:45:50.000Z</time>
      </trkpt>
      <trkpt lat="41.99515333" lon="2.870865">
        <ele>339.0</ele>
        <time>2021-08-21T07:45:51.009Z</time>
      </trkpt>
      <trkpt lat="41.99513" lon="2.87082">
        <ele>340.0</ele>
        <time>2021-08-21T07:45:52.031Z</time>
      </trkpt>
      <trkpt lat="41.99513" lon="2.87082">
        <ele>340.0</ele>
        <time>2021-08-21T07:45:52.999Z</time>
      </trkpt>
      <trkpt lat="41.99511" lon="2.870775">
        <ele>340.0</ele>
        <time>2021-08-21T07:45:54.015Z</time>
      </trkpt>
      <trkpt lat="41.9951" lon="2.87075333">
        <ele>341.0</ele>
        <time>2021-08-21T07:45:54.994Z</time>
      </trkpt>
      <trkpt lat="41.9951" lon="2.87075333">
        <ele>341.0</ele>
        <time>2021-08-21T07:45:55.999Z</time>
      </trkpt>
      <trkpt lat="41.99508" lon="2.87071">
        <ele>341.0</ele>
        <time>2021-08-21T07:45:57.018Z</time>
      </trkpt>
      <trkpt lat="41.99508" lon="2.87071">
        <ele>341.0</ele>
        <time>2021-08-21T07:45:58.023Z</time>
      </trkpt>
      <trkpt lat="41.99506167" lon="2.87066">
        <ele>342.0</ele>
        <time>2021-08-21T07:45:59.002Z</time>
      </trkpt>
      <trkpt lat="41.99506167" lon="2.87066">
        <ele>342.0</ele>
        <time>2021-08-21T07:46:00.008Z</time>
      </trkpt>
      <trkpt lat="41.99503833" lon="2.870615">
        <ele>342.0</ele>
        <time>2021-08-21T07:46:01.005Z</time>
      </trkpt>
      <trkpt lat="41.99503833" lon="2.870615">
        <ele>342.0</ele>
        <time>2021-08-21T07:46:02.024Z</time>
      </trkpt>
      <trkpt lat="41.99501667" lon="2.87056833">
        <ele>343.0</ele>
        <time>2021-08-21T07:46:02.992Z</time>
      </trkpt>
      <trkpt lat="41.99501667" lon="2.87056833">
        <ele>343.0</ele>
        <time>2021-08-21T07:46:03.998Z</time>
      </trkpt>
      <trkpt lat="41.995" lon="2.87052833">
        <ele>344.0</ele>
        <time>2021-08-21T07:46:05.021Z</time>
      </trkpt>
      <trkpt lat="41.995" lon="2.87052833">
        <ele>344.0</ele>
        <time>2021-08-21T07:46:06.027Z</time>
      </trkpt>
      <trkpt lat="41.99497667" lon="2.87049">
        <ele>344.0</ele>
        <time>2021-08-21T07:46:07.009Z</time>
      </trkpt>
      <trkpt lat="41.99497667" lon="2.87049">
        <ele>344.0</ele>
        <time>2021-08-21T07:46:08.015Z</time>
      </trkpt>
      <trkpt lat="41.99494833" lon="2.870435">
        <ele>345.0</ele>
        <time>2021-08-21T07:46:08.994Z</time>
      </trkpt>
      <trkpt lat="41.99494833" lon="2.870435">
        <ele>345.0</ele>
        <time>2021-08-21T07:46:10.000Z</time>
      </trkpt>
      <trkpt lat="41.99492167" lon="2.87039167">
        <ele>346.0</ele>
        <time>2021-08-21T07:46:11.017Z</time>
      </trkpt>
      <trkpt lat="41.99492167" lon="2.87039167">
        <ele>346.0</ele>
        <time>2021-08-21T07:46:12.023Z</time>
      </trkpt>
      <trkpt lat="41.99489833" lon="2.87036">
        <ele>347.0</ele>
        <time>2021-08-21T07:46:12.995Z</time>
      </trkpt>
      <trkpt lat="41.99488667" lon="2.87035">
        <ele>347.0</ele>
        <time>2021-08-21T07:46:14.019Z</time>
      </trkpt>
      <trkpt lat="41.99487833" lon="2.87034167">
        <ele>348.0</ele>
        <time>2021-08-21T07:46:14.997Z</time>
      </trkpt>
      <trkpt lat="41.99487833" lon="2.87034167">
        <ele>348.0</ele>
        <time>2021-08-21T07:46:16.004Z</time>
      </trkpt>
      <trkpt lat="41.99485333" lon="2.87030167">
        <ele>348.0</ele>
        <time>2021-08-21T07:46:17.025Z</time>
      </trkpt>
      <trkpt lat="41.99485333" lon="2.87030167">
        <ele>348.0</ele>
        <time>2021-08-21T07:46:18.031Z</time>
      </trkpt>
      <trkpt lat="41.994825" lon="2.87028167">
        <ele>349.0</ele>
        <time>2021-08-21T07:46:19.025Z</time>
      </trkpt>
      <trkpt lat="41.99480833" lon="2.870275">
        <ele>349.0</ele>
        <time>2021-08-21T07:46:20.013Z</time>
      </trkpt>
      <trkpt lat="41.99479167" lon="2.87027333">
        <ele>349.0</ele>
        <time>2021-08-21T07:46:20.992Z</time>
      </trkpt>
      <trkpt lat="41.99479167" lon="2.87027333">
        <ele>349.0</ele>
        <time>2021-08-21T07:46:21.998Z</time>
      </trkpt>
      <trkpt lat="41.994755" lon="2.87027167">
        <ele>350.0</ele>
        <time>2021-08-21T07:46:23.015Z</time>
      </trkpt>
      <trkpt lat="41.99473667" lon="2.87026667">
        <ele>350.0</ele>
        <time>2021-08-21T07:46:24.005Z</time>
      </trkpt>
      <trkpt lat="41.99473667" lon="2.87026667">
        <ele>350.0</ele>
        <time>2021-08-21T07:46:25.011Z</time>
      </trkpt>
      <trkpt lat="41.99469833" lon="2.870265">
        <ele>351.0</ele>
        <time>2021-08-21T07:46:26.000Z</time>
      </trkpt>
      <trkpt lat="41.99468" lon="2.870265">
        <ele>351.0</ele>
        <time>2021-08-21T07:46:27.014Z</time>
      </trkpt>
      <trkpt lat="41.99468" lon="2.870265">
        <ele>351.0</ele>
        <time>2021-08-21T07:46:28.020Z</time>
      </trkpt>
      <trkpt lat="41.994645" lon="2.87026333">
        <ele>352.0</ele>
        <time>2021-08-21T07:46:29.001Z</time>
      </trkpt>
      <trkpt lat="41.994645" lon="2.87026333">
        <ele>352.0</ele>
        <time>2021-08-21T07:46:30.008Z</time>
      </trkpt>
      <trkpt lat="41.99460667" lon="2.87026">
        <ele>353.0</ele>
        <time>2021-08-21T07:46:31.028Z</time>
      </trkpt>
      <trkpt lat="41.99460667" lon="2.87026">
        <ele>353.0</ele>
        <time>2021-08-21T07:46:31.993Z</time>
      </trkpt>
      <trkpt lat="41.99456667" lon="2.870255">
        <ele>353.0</ele>
        <time>2021-08-21T07:46:33.003Z</time>
      </trkpt>
      <trkpt lat="41.99456667" lon="2.870255">
        <ele>353.0</ele>
        <time>2021-08-21T07:46:34.010Z</time>
      </trkpt>
      <trkpt lat="41.99452833" lon="2.87025167">
        <ele>354.0</ele>
        <time>2021-08-21T07:46:35.025Z</time>
      </trkpt>
      <trkpt lat="41.99452833" lon="2.87025167">
        <ele>354.0</ele>
        <time>2021-08-21T07:46:36.030Z</time>
      </trkpt>
      <trkpt lat="41.99449" lon="2.87025667">
        <ele>355.0</ele>
        <time>2021-08-21T07:46:37.009Z</time>
      </trkpt>
      <trkpt lat="41.99449" lon="2.87025667">
        <ele>355.0</ele>
        <time>2021-08-21T07:46:38.015Z</time>
      </trkpt>
      <trkpt lat="41.99445667" lon="2.870245">
        <ele>355.0</ele>
        <time>2021-08-21T07:46:39.002Z</time>
      </trkpt>
      <trkpt lat="41.99445667" lon="2.870245">
        <ele>355.0</ele>
        <time>2021-08-21T07:46:40.008Z</time>
      </trkpt>
      <trkpt lat="41.994425" lon="2.87023333">
        <ele>356.0</ele>
        <time>2021-08-21T07:46:41.032Z</time>
      </trkpt>
      <trkpt lat="41.994425" lon="2.87023333">
        <ele>356.0</ele>
        <time>2021-08-21T07:46:41.997Z</time>
      </trkpt>
      <trkpt lat="41.99439167" lon="2.87022">
        <ele>357.0</ele>
        <time>2021-08-21T07:46:43.017Z</time>
      </trkpt>
      <trkpt lat="41.99437167" lon="2.87021333">
        <ele>357.0</ele>
        <time>2021-08-21T07:46:44.002Z</time>
      </trkpt>
      <trkpt lat="41.99435" lon="2.87020333">
        <ele>357.0</ele>
        <time>2021-08-21T07:46:45.022Z</time>
      </trkpt>
      <trkpt lat="41.99435" lon="2.87020333">
        <ele>357.0</ele>
        <time>2021-08-21T07:46:46.027Z</time>
      </trkpt>
      <trkpt lat="41.994315" lon="2.87017667">
        <ele>357.0</ele>
        <time>2021-08-21T07:46:47.005Z</time>
      </trkpt>
      <trkpt lat="41.994315" lon="2.87017667">
        <ele>357.0</ele>
        <time>2021-08-21T07:46:48.012Z</time>
      </trkpt>
      <trkpt lat="41.99428" lon="2.87015">
        <ele>357.0</ele>
        <time>2021-08-21T07:46:49.031Z</time>
      </trkpt>
      <trkpt lat="41.99428" lon="2.87015">
        <ele>357.0</ele>
        <time>2021-08-21T07:46:49.996Z</time>
      </trkpt>
      <trkpt lat="41.99424167" lon="2.87013333">
        <ele>357.0</ele>
        <time>2021-08-21T07:46:51.012Z</time>
      </trkpt>
      <trkpt lat="41.99424167" lon="2.87013333">
        <ele>357.0</ele>
        <time>2021-08-21T07:46:52.017Z</time>
      </trkpt>
      <trkpt lat="41.994205" lon="2.870115">
        <ele>357.0</ele>
        <time>2021-08-21T07:46:52.996Z</time>
      </trkpt>
      <trkpt lat="41.99418667" lon="2.87010333">
        <ele>357.0</ele>
        <time>2021-08-21T07:46:54.028Z</time>
      </trkpt>
      <trkpt lat="41.99418667" lon="2.87010333">
        <ele>357.0</ele>
        <time>2021-08-21T07:46:54.994Z</time>
      </trkpt>
      <trkpt lat="41.99415333" lon="2.87007333">
        <ele>357.0</ele>
        <time>2021-08-21T07:46:56.016Z</time>
      </trkpt>
      <trkpt lat="41.99413667" lon="2.87005833">
        <ele>357.0</ele>
        <time>2021-08-21T07:46:57.001Z</time>
      </trkpt>
      <trkpt lat="41.99413667" lon="2.87005833">
        <ele>357.0</ele>
        <time>2021-08-21T07:46:58.006Z</time>
      </trkpt>
      <trkpt lat="41.99410333" lon="2.87003167">
        <ele>357.0</ele>
        <time>2021-08-21T07:46:59.031Z</time>
      </trkpt>
      <trkpt lat="41.99410333" lon="2.87003167">
        <ele>357.0</ele>
        <time>2021-08-21T07:46:59.996Z</time>
      </trkpt>
      <trkpt lat="41.99407" lon="2.87001">
        <ele>357.0</ele>
        <time>2021-08-21T07:47:01.020Z</time>
      </trkpt>
      <trkpt lat="41.99407" lon="2.87001">
        <ele>357.0</ele>
        <time>2021-08-21T07:47:01.996Z</time>
      </trkpt>
      <trkpt lat="41.99404" lon="2.86998333">
        <ele>357.0</ele>
        <time>2021-08-21T07:47:03.029Z</time>
      </trkpt>
      <trkpt lat="41.99404" lon="2.86998333">
        <ele>357.0</ele>
        <time>2021-08-21T07:47:03.994Z</time>
      </trkpt>
      <trkpt lat="41.994005" lon="2.869965">
        <ele>357.0</ele>
        <time>2021-08-21T07:47:05.016Z</time>
      </trkpt>
      <trkpt lat="41.994005" lon="2.869965">
        <ele>357.0</ele>
        <time>2021-08-21T07:47:06.022Z</time>
      </trkpt>
      <trkpt lat="41.99396333" lon="2.86994833">
        <ele>357.0</ele>
        <time>2021-08-21T07:47:07.005Z</time>
      </trkpt>
      <trkpt lat="41.99396333" lon="2.86994833">
        <ele>357.0</ele>
        <time>2021-08-21T07:47:08.010Z</time>
      </trkpt>
      <trkpt lat="41.993915" lon="2.869935">
        <ele>356.0</ele>
        <time>2021-08-21T07:47:08.994Z</time>
      </trkpt>
      <trkpt lat="41.993915" lon="2.869935">
        <ele>356.0</ele>
        <time>2021-08-21T07:47:09.999Z</time>
      </trkpt>
      <trkpt lat="41.99386833" lon="2.86992167">
        <ele>356.0</ele>
        <time>2021-08-21T07:47:11.016Z</time>
      </trkpt>
      <trkpt lat="41.99386833" lon="2.86992167">
        <ele>356.0</ele>
        <time>2021-08-21T07:47:12.022Z</time>
      </trkpt>
      <trkpt lat="41.993815" lon="2.86991">
        <ele>355.0</ele>
        <time>2021-08-21T07:47:13.012Z</time>
      </trkpt>
      <trkpt lat="41.993815" lon="2.86991">
        <ele>355.0</ele>
        <time>2021-08-21T07:47:14.019Z</time>
      </trkpt>
      <trkpt lat="41.99375833" lon="2.86989">
        <ele>354.0</ele>
        <time>2021-08-21T07:47:14.996Z</time>
      </trkpt>
      <trkpt lat="41.99375833" lon="2.86989">
        <ele>354.0</ele>
        <time>2021-08-21T07:47:16.001Z</time>
      </trkpt>
      <trkpt lat="41.99369" lon="2.86986667">
        <ele>354.0</ele>
        <time>2021-08-21T07:47:17.021Z</time>
      </trkpt>
      <trkpt lat="41.99369" lon="2.86986667">
        <ele>354.0</ele>
        <time>2021-08-21T07:47:18.026Z</time>
      </trkpt>
      <trkpt lat="41.99362333" lon="2.86984167">
        <ele>354.0</ele>
        <time>2021-08-21T07:47:19.015Z</time>
      </trkpt>
      <trkpt lat="41.99362333" lon="2.86984167">
        <ele>354.0</ele>
        <time>2021-08-21T07:47:20.021Z</time>
      </trkpt>
      <trkpt lat="41.99355333" lon="2.86982333">
        <ele>353.0</ele>
        <time>2021-08-21T07:47:20.993Z</time>
      </trkpt>
      <trkpt lat="41.99355333" lon="2.86982333">
        <ele>353.0</ele>
        <time>2021-08-21T07:47:22.001Z</time>
      </trkpt>
      <trkpt lat="41.99347167" lon="2.86980333">
        <ele>353.0</ele>
        <time>2021-08-21T07:47:23.024Z</time>
      </trkpt>
      <trkpt lat="41.99347167" lon="2.86980333">
        <ele>353.0</ele>
        <time>2021-08-21T07:47:24.029Z</time>
      </trkpt>
      <trkpt lat="41.993395" lon="2.86979">
        <ele>353.0</ele>
        <time>2021-08-21T07:47:25.008Z</time>
      </trkpt>
      <trkpt lat="41.993395" lon="2.86979">
        <ele>353.0</ele>
        <time>2021-08-21T07:47:26.016Z</time>
      </trkpt>
      <trkpt lat="41.99332333" lon="2.86977667">
        <ele>353.0</ele>
        <time>2021-08-21T07:47:26.997Z</time>
      </trkpt>
      <trkpt lat="41.99329333" lon="2.86977167">
        <ele>353.0</ele>
        <time>2021-08-21T07:47:28.015Z</time>
      </trkpt>
      <trkpt lat="41.99329333" lon="2.86977167">
        <ele>353.0</ele>
        <time>2021-08-21T07:47:29.021Z</time>
      </trkpt>
      <trkpt lat="41.99322833" lon="2.86976333">
        <ele>352.0</ele>
        <time>2021-08-21T07:47:30.013Z</time>
      </trkpt>
      <trkpt lat="41.99322833" lon="2.86976333">
        <ele>352.0</ele>
        <time>2021-08-21T07:47:31.019Z</time>
      </trkpt>
      <trkpt lat="41.99315667" lon="2.86976667">
        <ele>352.0</ele>
        <time>2021-08-21T07:47:32.005Z</time>
      </trkpt>
      <trkpt lat="41.99311" lon="2.86977167">
        <ele>351.0</ele>
        <time>2021-08-21T07:47:33.027Z</time>
      </trkpt>
      <trkpt lat="41.99311" lon="2.86977167">
        <ele>351.0</ele>
        <time>2021-08-21T07:47:33.992Z</time>
      </trkpt>
      <trkpt lat="41.99300833" lon="2.86976">
        <ele>351.0</ele>
        <time>2021-08-21T07:47:35.007Z</time>
      </trkpt>
      <trkpt lat="41.99300833" lon="2.86976">
        <ele>351.0</ele>
        <time>2021-08-21T07:47:36.014Z</time>
      </trkpt>
      <trkpt lat="41.99292" lon="2.86973333">
        <ele>351.0</ele>
        <time>2021-08-21T07:47:36.999Z</time>
      </trkpt>
      <trkpt lat="41.99292" lon="2.86973333">
        <ele>351.0</ele>
        <time>2021-08-21T07:47:38.025Z</time>
      </trkpt>
      <trkpt lat="41.99284167" lon="2.86970667">
        <ele>350.0</ele>
        <time>2021-08-21T07:47:39.009Z</time>
      </trkpt>
      <trkpt lat="41.99284167" lon="2.86970667">
        <ele>350.0</ele>
        <time>2021-08-21T07:47:40.014Z</time>
      </trkpt>
      <trkpt lat="41.99276833" lon="2.86969333">
        <ele>350.0</ele>
        <time>2021-08-21T07:47:40.998Z</time>
      </trkpt>
      <trkpt lat="41.99276833" lon="2.86969333">
        <ele>350.0</ele>
        <time>2021-08-21T07:47:42.003Z</time>
      </trkpt>
      <trkpt lat="41.9927" lon="2.86967833">
        <ele>350.0</ele>
        <time>2021-08-21T07:47:43.029Z</time>
      </trkpt>
      <trkpt lat="41.9927" lon="2.86967833">
        <ele>350.0</ele>
        <time>2021-08-21T07:47:43.994Z</time>
      </trkpt>
      <trkpt lat="41.99263167" lon="2.86965167">
        <ele>350.0</ele>
        <time>2021-08-21T07:47:45.022Z</time>
      </trkpt>
      <trkpt lat="41.99263167" lon="2.86965167">
        <ele>350.0</ele>
        <time>2021-08-21T07:47:46.027Z</time>
      </trkpt>
      <trkpt lat="41.99258" lon="2.86961">
        <ele>350.0</ele>
        <time>2021-08-21T07:47:47.002Z</time>
      </trkpt>
      <trkpt lat="41.99258" lon="2.86961">
        <ele>350.0</ele>
        <time>2021-08-21T07:47:48.019Z</time>
      </trkpt>
      <trkpt lat="41.99253333" lon="2.86954">
        <ele>350.0</ele>
        <time>2021-08-21T07:47:49.022Z</time>
      </trkpt>
      <trkpt lat="41.99253333" lon="2.86954">
        <ele>350.0</ele>
        <time>2021-08-21T07:47:50.027Z</time>
      </trkpt>
      <trkpt lat="41.99250333" lon="2.86943667">
        <ele>350.0</ele>
        <time>2021-08-21T07:47:51.003Z</time>
      </trkpt>
      <trkpt lat="41.99250333" lon="2.86943667">
        <ele>350.0</ele>
        <time>2021-08-21T07:47:52.011Z</time>
      </trkpt>
      <trkpt lat="41.99250167" lon="2.869335">
        <ele>350.0</ele>
        <time>2021-08-21T07:47:52.997Z</time>
      </trkpt>
      <trkpt lat="41.99250167" lon="2.869335">
        <ele>350.0</ele>
        <time>2021-08-21T07:47:54.003Z</time>
      </trkpt>
      <trkpt lat="41.99249333" lon="2.86923">
        <ele>350.0</ele>
        <time>2021-08-21T07:47:55.031Z</time>
      </trkpt>
      <trkpt lat="41.99249333" lon="2.86923">
        <ele>350.0</ele>
        <time>2021-08-21T07:47:55.996Z</time>
      </trkpt>
      <trkpt lat="41.99247667" lon="2.86913">
        <ele>351.0</ele>
        <time>2021-08-21T07:47:57.021Z</time>
      </trkpt>
      <trkpt lat="41.99247667" lon="2.86913">
        <ele>351.0</ele>
        <time>2021-08-21T07:47:58.026Z</time>
      </trkpt>
      <trkpt lat="41.99247" lon="2.86904">
        <ele>352.0</ele>
        <time>2021-08-21T07:47:59.011Z</time>
      </trkpt>
      <trkpt lat="41.992465" lon="2.868995">
        <ele>352.0</ele>
        <time>2021-08-21T07:48:00.029Z</time>
      </trkpt>
      <trkpt lat="41.992465" lon="2.868995">
        <ele>352.0</ele>
        <time>2021-08-21T07:48:00.995Z</time>
      </trkpt>
      <trkpt lat="41.99246333" lon="2.868905">
        <ele>353.0</ele>
        <time>2021-08-21T07:48:02.031Z</time>
      </trkpt>
      <trkpt lat="41.992465" lon="2.86885833">
        <ele>353.0</ele>
        <time>2021-08-21T07:48:03.027Z</time>
      </trkpt>
      <trkpt lat="41.992465" lon="2.86885833">
        <ele>353.0</ele>
        <time>2021-08-21T07:48:03.992Z</time>
      </trkpt>
      <trkpt lat="41.99245667" lon="2.86878167">
        <ele>353.0</ele>
        <time>2021-08-21T07:48:05.013Z</time>
      </trkpt>
      <trkpt lat="41.99245667" lon="2.86878167">
        <ele>353.0</ele>
        <time>2021-08-21T07:48:06.019Z</time>
      </trkpt>
      <trkpt lat="41.99243333" lon="2.86872333">
        <ele>353.0</ele>
        <time>2021-08-21T07:48:07.002Z</time>
      </trkpt>
      <trkpt lat="41.99243333" lon="2.86872333">
        <ele>353.0</ele>
        <time>2021-08-21T07:48:08.016Z</time>
      </trkpt>
      <trkpt lat="41.99240333" lon="2.86867">
        <ele>354.0</ele>
        <time>2021-08-21T07:48:09.011Z</time>
      </trkpt>
      <trkpt lat="41.99240333" lon="2.86867">
        <ele>354.0</ele>
        <time>2021-08-21T07:48:10.016Z</time>
      </trkpt>
      <trkpt lat="41.99237333" lon="2.86862333">
        <ele>354.0</ele>
        <time>2021-08-21T07:48:10.992Z</time>
      </trkpt>
      <trkpt lat="41.99237333" lon="2.86862333">
        <ele>354.0</ele>
        <time>2021-08-21T07:48:11.998Z</time>
      </trkpt>
      <trkpt lat="41.99234" lon="2.86858167">
        <ele>355.0</ele>
        <time>2021-08-21T07:48:13.000Z</time>
      </trkpt>
      <trkpt lat="41.99234" lon="2.86858167">
        <ele>355.0</ele>
        <time>2021-08-21T07:48:14.006Z</time>
      </trkpt>
      <trkpt lat="41.99230333" lon="2.86854167">
        <ele>355.0</ele>
        <time>2021-08-21T07:48:15.024Z</time>
      </trkpt>
      <trkpt lat="41.99230333" lon="2.86854167">
        <ele>355.0</ele>
        <time>2021-08-21T07:48:16.029Z</time>
      </trkpt>
      <trkpt lat="41.992265" lon="2.8685">
        <ele>355.0</ele>
        <time>2021-08-21T07:48:17.011Z</time>
      </trkpt>
      <trkpt lat="41.992265" lon="2.8685">
        <ele>355.0</ele>
        <time>2021-08-21T07:48:18.017Z</time>
      </trkpt>
      <trkpt lat="41.99222833" lon="2.86847">
        <ele>356.0</ele>
        <time>2021-08-21T07:48:19.030Z</time>
      </trkpt>
      <trkpt lat="41.99222833" lon="2.86847">
        <ele>356.0</ele>
        <time>2021-08-21T07:48:19.995Z</time>
      </trkpt>
      <trkpt lat="41.99219667" lon="2.86843167">
        <ele>356.0</ele>
        <time>2021-08-21T07:48:21.016Z</time>
      </trkpt>
      <trkpt lat="41.99219667" lon="2.86843167">
        <ele>356.0</ele>
        <time>2021-08-21T07:48:22.021Z</time>
      </trkpt>
      <trkpt lat="41.99214667" lon="2.868395">
        <ele>357.0</ele>
        <time>2021-08-21T07:48:23.004Z</time>
      </trkpt>
      <trkpt lat="41.99214667" lon="2.868395">
        <ele>357.0</ele>
        <time>2021-08-21T07:48:24.010Z</time>
      </trkpt>
      <trkpt lat="41.99209833" lon="2.86838167">
        <ele>358.0</ele>
        <time>2021-08-21T07:48:25.029Z</time>
      </trkpt>
      <trkpt lat="41.99209833" lon="2.86838167">
        <ele>358.0</ele>
        <time>2021-08-21T07:48:25.996Z</time>
      </trkpt>
      <trkpt lat="41.992055" lon="2.868375">
        <ele>359.0</ele>
        <time>2021-08-21T07:48:27.010Z</time>
      </trkpt>
      <trkpt lat="41.992055" lon="2.868375">
        <ele>359.0</ele>
        <time>2021-08-21T07:48:28.015Z</time>
      </trkpt>
      <trkpt lat="41.99201833" lon="2.868385">
        <ele>360.0</ele>
        <time>2021-08-21T07:48:28.996Z</time>
      </trkpt>
      <trkpt lat="41.99201833" lon="2.868385">
        <ele>360.0</ele>
        <time>2021-08-21T07:48:30.001Z</time>
      </trkpt>
      <trkpt lat="41.99198167" lon="2.86838667">
        <ele>360.0</ele>
        <time>2021-08-21T07:48:31.030Z</time>
      </trkpt>
      <trkpt lat="41.99196" lon="2.86838667">
        <ele>361.0</ele>
        <time>2021-08-21T07:48:32.011Z</time>
      </trkpt>
      <trkpt lat="41.99193833" lon="2.86838667">
        <ele>361.0</ele>
        <time>2021-08-21T07:48:33.028Z</time>
      </trkpt>
      <trkpt lat="41.99193833" lon="2.86838667">
        <ele>361.0</ele>
        <time>2021-08-21T07:48:33.993Z</time>
      </trkpt>
      <trkpt lat="41.99190167" lon="2.86839333">
        <ele>361.0</ele>
        <time>2021-08-21T07:48:35.014Z</time>
      </trkpt>
      <trkpt lat="41.99190167" lon="2.86839333">
        <ele>361.0</ele>
        <time>2021-08-21T07:48:36.020Z</time>
      </trkpt>
      <trkpt lat="41.99186167" lon="2.86840333">
        <ele>362.0</ele>
        <time>2021-08-21T07:48:36.998Z</time>
      </trkpt>
      <trkpt lat="41.99186167" lon="2.86840333">
        <ele>362.0</ele>
        <time>2021-08-21T07:48:38.022Z</time>
      </trkpt>
      <trkpt lat="41.99182333" lon="2.86840167">
        <ele>362.0</ele>
        <time>2021-08-21T07:48:39.007Z</time>
      </trkpt>
      <trkpt lat="41.99182333" lon="2.86840167">
        <ele>362.0</ele>
        <time>2021-08-21T07:48:40.013Z</time>
      </trkpt>
      <trkpt lat="41.99179333" lon="2.868405">
        <ele>362.0</ele>
        <time>2021-08-21T07:48:41.027Z</time>
      </trkpt>
      <trkpt lat="41.99179333" lon="2.868405">
        <ele>362.0</ele>
        <time>2021-08-21T07:48:41.992Z</time>
      </trkpt>
      <trkpt lat="41.99176833" lon="2.868415">
        <ele>363.0</ele>
        <time>2021-08-21T07:48:43.007Z</time>
      </trkpt>
      <trkpt lat="41.99176833" lon="2.868415">
        <ele>363.0</ele>
        <time>2021-08-21T07:48:44.024Z</time>
      </trkpt>
      <trkpt lat="41.99174333" lon="2.86840167">
        <ele>363.0</ele>
        <time>2021-08-21T07:48:45.006Z</time>
      </trkpt>
      <trkpt lat="41.99174333" lon="2.86840167">
        <ele>363.0</ele>
        <time>2021-08-21T07:48:46.013Z</time>
      </trkpt>
      <trkpt lat="41.99173333" lon="2.86836">
        <ele>364.0</ele>
        <time>2021-08-21T07:48:46.994Z</time>
      </trkpt>
      <trkpt lat="41.99173333" lon="2.86836">
        <ele>364.0</ele>
        <time>2021-08-21T07:48:47.999Z</time>
      </trkpt>
      <trkpt lat="41.99173" lon="2.86831167">
        <ele>364.0</ele>
        <time>2021-08-21T07:48:49.006Z</time>
      </trkpt>
      <trkpt lat="41.99173" lon="2.86831167">
        <ele>364.0</ele>
        <time>2021-08-21T07:48:50.013Z</time>
      </trkpt>
      <trkpt lat="41.99171333" lon="2.86826167">
        <ele>365.0</ele>
        <time>2021-08-21T07:48:51.029Z</time>
      </trkpt>
      <trkpt lat="41.99171333" lon="2.86826167">
        <ele>365.0</ele>
        <time>2021-08-21T07:48:51.994Z</time>
      </trkpt>
      <trkpt lat="41.991675" lon="2.86817667">
        <ele>365.0</ele>
        <time>2021-08-21T07:48:53.011Z</time>
      </trkpt>
      <trkpt lat="41.991675" lon="2.86817667">
        <ele>365.0</ele>
        <time>2021-08-21T07:48:54.017Z</time>
      </trkpt>
      <trkpt lat="41.99164333" lon="2.86811">
        <ele>365.0</ele>
        <time>2021-08-21T07:48:55.005Z</time>
      </trkpt>
      <trkpt lat="41.99164333" lon="2.86811">
        <ele>365.0</ele>
        <time>2021-08-21T07:48:56.011Z</time>
      </trkpt>
      <trkpt lat="41.99163" lon="2.86804167">
        <ele>366.0</ele>
        <time>2021-08-21T07:48:57.023Z</time>
      </trkpt>
      <trkpt lat="41.99163" lon="2.86804167">
        <ele>366.0</ele>
        <time>2021-08-21T07:48:58.029Z</time>
      </trkpt>
      <trkpt lat="41.991625" lon="2.86801833">
        <ele>366.0</ele>
        <time>2021-08-21T07:48:58.994Z</time>
      </trkpt>
      <trkpt lat="41.991625" lon="2.86801833">
        <ele>366.0</ele>
        <time>2021-08-21T07:48:59.999Z</time>
      </trkpt>
      <trkpt lat="41.99162333" lon="2.86801167">
        <ele>366.0</ele>
        <time>2021-08-21T07:49:00.996Z</time>
      </trkpt>
      <trkpt lat="41.99167" lon="2.86814333">
        <ele>365.0</ele>
        <time>2021-08-21T07:49:02.023Z</time>
      </trkpt>
      <trkpt lat="41.99167833" lon="2.86817">
        <ele>365.0</ele>
        <time>2021-08-21T07:49:03.018Z</time>
      </trkpt>
      <trkpt lat="41.99167833" lon="2.86817">
        <ele>365.0</ele>
        <time>2021-08-21T07:49:04.014Z</time>
      </trkpt>
      <trkpt lat="41.99169167" lon="2.86822333">
        <ele>365.0</ele>
        <time>2021-08-21T07:49:05.025Z</time>
      </trkpt>
      <trkpt lat="41.991695" lon="2.868245">
        <ele>365.0</ele>
        <time>2021-08-21T07:49:05.999Z</time>
      </trkpt>
      <trkpt lat="41.991695" lon="2.868245">
        <ele>365.0</ele>
        <time>2021-08-21T07:49:07.006Z</time>
      </trkpt>
      <trkpt lat="41.9917" lon="2.86831167">
        <ele>366.0</ele>
        <time>2021-08-21T07:49:08.021Z</time>
      </trkpt>
      <trkpt lat="41.9917" lon="2.86831167">
        <ele>366.0</ele>
        <time>2021-08-21T07:49:09.026Z</time>
      </trkpt>
      <trkpt lat="41.991695" lon="2.8684">
        <ele>365.0</ele>
        <time>2021-08-21T07:49:10.000Z</time>
      </trkpt>
      <trkpt lat="41.99168667" lon="2.86844">
        <ele>365.0</ele>
        <time>2021-08-21T07:49:11.021Z</time>
      </trkpt>
      <trkpt lat="41.99168" lon="2.86848">
        <ele>365.0</ele>
        <time>2021-08-21T07:49:11.996Z</time>
      </trkpt>
      <trkpt lat="41.99168" lon="2.86848">
        <ele>365.0</ele>
        <time>2021-08-21T07:49:13.002Z</time>
      </trkpt>
      <trkpt lat="41.99166167" lon="2.86855833">
        <ele>365.0</ele>
        <time>2021-08-21T07:49:14.024Z</time>
      </trkpt>
      <trkpt lat="41.99166167" lon="2.86855833">
        <ele>365.0</ele>
        <time>2021-08-21T07:49:15.030Z</time>
      </trkpt>
      <trkpt lat="41.99162833" lon="2.86861">
        <ele>365.0</ele>
        <time>2021-08-21T07:49:16.023Z</time>
      </trkpt>
      <trkpt lat="41.99162833" lon="2.86861">
        <ele>365.0</ele>
        <time>2021-08-21T07:49:17.028Z</time>
      </trkpt>
      <trkpt lat="41.99158333" lon="2.86866">
        <ele>365.0</ele>
        <time>2021-08-21T07:49:18.011Z</time>
      </trkpt>
      <trkpt lat="41.99158333" lon="2.86866">
        <ele>365.0</ele>
        <time>2021-08-21T07:49:19.016Z</time>
      </trkpt>
      <trkpt lat="41.99153167" lon="2.86870667">
        <ele>365.0</ele>
        <time>2021-08-21T07:49:20.009Z</time>
      </trkpt>
      <trkpt lat="41.99153167" lon="2.86870667">
        <ele>365.0</ele>
        <time>2021-08-21T07:49:21.015Z</time>
      </trkpt>
      <trkpt lat="41.99147167" lon="2.86874167">
        <ele>365.0</ele>
        <time>2021-08-21T07:49:21.993Z</time>
      </trkpt>
      <trkpt lat="41.99147167" lon="2.86874167">
        <ele>365.0</ele>
        <time>2021-08-21T07:49:22.998Z</time>
      </trkpt>
      <trkpt lat="41.99140833" lon="2.86875833">
        <ele>365.0</ele>
        <time>2021-08-21T07:49:24.027Z</time>
      </trkpt>
      <trkpt lat="41.99140833" lon="2.86875833">
        <ele>365.0</ele>
        <time>2021-08-21T07:49:25.012Z</time>
      </trkpt>
      <trkpt lat="41.99134333" lon="2.868755">
        <ele>364.0</ele>
        <time>2021-08-21T07:49:26.009Z</time>
      </trkpt>
      <trkpt lat="41.99134333" lon="2.868755">
        <ele>364.0</ele>
        <time>2021-08-21T07:49:27.013Z</time>
      </trkpt>
      <trkpt lat="41.99128333" lon="2.86873">
        <ele>364.0</ele>
        <time>2021-08-21T07:49:28.003Z</time>
      </trkpt>
      <trkpt lat="41.99128333" lon="2.86873">
        <ele>364.0</ele>
        <time>2021-08-21T07:49:29.023Z</time>
      </trkpt>
      <trkpt lat="41.99123" lon="2.868695">
        <ele>365.0</ele>
        <time>2021-08-21T07:49:29.993Z</time>
      </trkpt>
      <trkpt lat="41.99123" lon="2.868695">
        <ele>365.0</ele>
        <time>2021-08-21T07:49:30.999Z</time>
      </trkpt>
      <trkpt lat="41.99118" lon="2.86865667">
        <ele>365.0</ele>
        <time>2021-08-21T07:49:32.015Z</time>
      </trkpt>
      <trkpt lat="41.99118" lon="2.86865667">
        <ele>365.0</ele>
        <time>2021-08-21T07:49:33.020Z</time>
      </trkpt>
      <trkpt lat="41.99112667" lon="2.86862167">
        <ele>365.0</ele>
        <time>2021-08-21T07:49:33.999Z</time>
      </trkpt>
      <trkpt lat="41.99112667" lon="2.86862167">
        <ele>365.0</ele>
        <time>2021-08-21T07:49:35.004Z</time>
      </trkpt>
      <trkpt lat="41.99107167" lon="2.868585">
        <ele>366.0</ele>
        <time>2021-08-21T07:49:35.996Z</time>
      </trkpt>
      <trkpt lat="41.99107167" lon="2.868585">
        <ele>366.0</ele>
        <time>2021-08-21T07:49:37.002Z</time>
      </trkpt>
      <trkpt lat="41.99101667" lon="2.86856333">
        <ele>366.0</ele>
        <time>2021-08-21T07:49:38.027Z</time>
      </trkpt>
      <trkpt lat="41.99101667" lon="2.86856333">
        <ele>366.0</ele>
        <time>2021-08-21T07:49:38.992Z</time>
      </trkpt>
      <trkpt lat="41.99096333" lon="2.86855167">
        <ele>367.0</ele>
        <time>2021-08-21T07:49:39.995Z</time>
      </trkpt>
      <trkpt lat="41.99096333" lon="2.86855167">
        <ele>367.0</ele>
        <time>2021-08-21T07:49:41.003Z</time>
      </trkpt>
      <trkpt lat="41.99090167" lon="2.86854833">
        <ele>368.0</ele>
        <time>2021-08-21T07:49:42.019Z</time>
      </trkpt>
      <trkpt lat="41.99090167" lon="2.86854833">
        <ele>368.0</ele>
        <time>2021-08-21T07:49:43.024Z</time>
      </trkpt>
      <trkpt lat="41.99084333" lon="2.86855667">
        <ele>368.0</ele>
        <time>2021-08-21T07:49:43.998Z</time>
      </trkpt>
      <trkpt lat="41.99084333" lon="2.86855667">
        <ele>368.0</ele>
        <time>2021-08-21T07:49:45.004Z</time>
      </trkpt>
      <trkpt lat="41.99079" lon="2.86856833">
        <ele>368.0</ele>
        <time>2021-08-21T07:49:46.024Z</time>
      </trkpt>
      <trkpt lat="41.99079" lon="2.86856833">
        <ele>368.0</ele>
        <time>2021-08-21T07:49:47.030Z</time>
      </trkpt>
      <trkpt lat="41.99073167" lon="2.868585">
        <ele>368.0</ele>
        <time>2021-08-21T07:49:48.015Z</time>
      </trkpt>
      <trkpt lat="41.99073167" lon="2.868585">
        <ele>368.0</ele>
        <time>2021-08-21T07:49:49.020Z</time>
      </trkpt>
      <trkpt lat="41.99067" lon="2.86860667">
        <ele>368.0</ele>
        <time>2021-08-21T07:49:49.998Z</time>
      </trkpt>
      <trkpt lat="41.99067" lon="2.86860667">
        <ele>368.0</ele>
        <time>2021-08-21T07:49:51.004Z</time>
      </trkpt>
      <trkpt lat="41.99061333" lon="2.86862833">
        <ele>369.0</ele>
        <time>2021-08-21T07:49:51.993Z</time>
      </trkpt>
      <trkpt lat="41.99061333" lon="2.86862833">
        <ele>369.0</ele>
        <time>2021-08-21T07:49:52.999Z</time>
      </trkpt>
      <trkpt lat="41.99055333" lon="2.86864333">
        <ele>369.0</ele>
        <time>2021-08-21T07:49:54.020Z</time>
      </trkpt>
      <trkpt lat="41.99055333" lon="2.86864333">
        <ele>369.0</ele>
        <time>2021-08-21T07:49:55.025Z</time>
      </trkpt>
      <trkpt lat="41.99049167" lon="2.868665">
        <ele>369.0</ele>
        <time>2021-08-21T07:49:56.009Z</time>
      </trkpt>
      <trkpt lat="41.99046167" lon="2.86867833">
        <ele>369.0</ele>
        <time>2021-08-21T07:49:57.031Z</time>
      </trkpt>
      <trkpt lat="41.99046167" lon="2.86867833">
        <ele>369.0</ele>
        <time>2021-08-21T07:49:57.996Z</time>
      </trkpt>
      <trkpt lat="41.99040333" lon="2.86869333">
        <ele>369.0</ele>
        <time>2021-08-21T07:49:59.026Z</time>
      </trkpt>
      <trkpt lat="41.990375" lon="2.8687">
        <ele>369.0</ele>
        <time>2021-08-21T07:50:00.001Z</time>
      </trkpt>
      <trkpt lat="41.990375" lon="2.8687">
        <ele>369.0</ele>
        <time>2021-08-21T07:50:01.006Z</time>
      </trkpt>
      <trkpt lat="41.99031667" lon="2.86870833">
        <ele>370.0</ele>
        <time>2021-08-21T07:50:02.009Z</time>
      </trkpt>
      <trkpt lat="41.99031667" lon="2.86870833">
        <ele>370.0</ele>
        <time>2021-08-21T07:50:03.024Z</time>
      </trkpt>
      <trkpt lat="41.99026" lon="2.86871167">
        <ele>370.0</ele>
        <time>2021-08-21T07:50:03.994Z</time>
      </trkpt>
      <trkpt lat="41.99026" lon="2.86871167">
        <ele>370.0</ele>
        <time>2021-08-21T07:50:05.004Z</time>
      </trkpt>
      <trkpt lat="41.99020667" lon="2.868715">
        <ele>370.0</ele>
        <time>2021-08-21T07:50:06.023Z</time>
      </trkpt>
      <trkpt lat="41.99018" lon="2.868715">
        <ele>370.0</ele>
        <time>2021-08-21T07:50:06.997Z</time>
      </trkpt>
      <trkpt lat="41.99018" lon="2.868715">
        <ele>370.0</ele>
        <time>2021-08-21T07:50:08.006Z</time>
      </trkpt>
      <trkpt lat="41.99012333" lon="2.86871333">
        <ele>370.0</ele>
        <time>2021-08-21T07:50:09.031Z</time>
      </trkpt>
      <trkpt lat="41.99012333" lon="2.86871333">
        <ele>370.0</ele>
        <time>2021-08-21T07:50:09.996Z</time>
      </trkpt>
      <trkpt lat="41.99006667" lon="2.86870667">
        <ele>370.0</ele>
        <time>2021-08-21T07:50:11.020Z</time>
      </trkpt>
      <trkpt lat="41.99003833" lon="2.86870333">
        <ele>371.0</ele>
        <time>2021-08-21T07:50:11.993Z</time>
      </trkpt>
      <trkpt lat="41.99003833" lon="2.86870333">
        <ele>371.0</ele>
        <time>2021-08-21T07:50:12.998Z</time>
      </trkpt>
      <trkpt lat="41.98998167" lon="2.86869333">
        <ele>371.0</ele>
        <time>2021-08-21T07:50:14.017Z</time>
      </trkpt>
      <trkpt lat="41.98998167" lon="2.86869333">
        <ele>371.0</ele>
        <time>2021-08-21T07:50:15.022Z</time>
      </trkpt>
      <trkpt lat="41.989925" lon="2.86867333">
        <ele>371.0</ele>
        <time>2021-08-21T07:50:16.003Z</time>
      </trkpt>
      <trkpt lat="41.989925" lon="2.86867333">
        <ele>371.0</ele>
        <time>2021-08-21T07:50:17.009Z</time>
      </trkpt>
      <trkpt lat="41.98987" lon="2.86865333">
        <ele>372.0</ele>
        <time>2021-08-21T07:50:18.027Z</time>
      </trkpt>
      <trkpt lat="41.98987" lon="2.86865333">
        <ele>372.0</ele>
        <time>2021-08-21T07:50:19.032Z</time>
      </trkpt>
      <trkpt lat="41.98981667" lon="2.86863">
        <ele>372.0</ele>
        <time>2021-08-21T07:50:20.004Z</time>
      </trkpt>
      <trkpt lat="41.98981667" lon="2.86863">
        <ele>372.0</ele>
        <time>2021-08-21T07:50:21.009Z</time>
      </trkpt>
      <trkpt lat="41.989765" lon="2.868605">
        <ele>373.0</ele>
        <time>2021-08-21T07:50:21.995Z</time>
      </trkpt>
      <trkpt lat="41.989765" lon="2.868605">
        <ele>373.0</ele>
        <time>2021-08-21T07:50:23.002Z</time>
      </trkpt>
      <trkpt lat="41.98971667" lon="2.868565">
        <ele>374.0</ele>
        <time>2021-08-21T07:50:24.019Z</time>
      </trkpt>
      <trkpt lat="41.98971667" lon="2.868565">
        <ele>374.0</ele>
        <time>2021-08-21T07:50:25.024Z</time>
      </trkpt>
      <trkpt lat="41.98967" lon="2.86852167">
        <ele>375.0</ele>
        <time>2021-08-21T07:50:25.997Z</time>
      </trkpt>
      <trkpt lat="41.98967" lon="2.86852167">
        <ele>375.0</ele>
        <time>2021-08-21T07:50:27.004Z</time>
      </trkpt>
      <trkpt lat="41.98962833" lon="2.868475">
        <ele>375.0</ele>
        <time>2021-08-21T07:50:28.001Z</time>
      </trkpt>
      <trkpt lat="41.989605" lon="2.86844667">
        <ele>375.0</ele>
        <time>2021-08-21T07:50:29.023Z</time>
      </trkpt>
      <trkpt lat="41.989605" lon="2.86844667">
        <ele>375.0</ele>
        <time>2021-08-21T07:50:30.029Z</time>
      </trkpt>
      <trkpt lat="41.98955833" lon="2.86838">
        <ele>375.0</ele>
        <time>2021-08-21T07:50:31.005Z</time>
      </trkpt>
      <trkpt lat="41.98955833" lon="2.86838">
        <ele>375.0</ele>
        <time>2021-08-21T07:50:32.012Z</time>
      </trkpt>
      <trkpt lat="41.98951" lon="2.8683">
        <ele>375.0</ele>
        <time>2021-08-21T07:50:32.993Z</time>
      </trkpt>
      <trkpt lat="41.98951" lon="2.8683">
        <ele>375.0</ele>
        <time>2021-08-21T07:50:33.999Z</time>
      </trkpt>
      <trkpt lat="41.98945833" lon="2.868205">
        <ele>375.0</ele>
        <time>2021-08-21T07:50:35.005Z</time>
      </trkpt>
      <trkpt lat="41.98945833" lon="2.868205">
        <ele>375.0</ele>
        <time>2021-08-21T07:50:36.009Z</time>
      </trkpt>
      <trkpt lat="41.98941" lon="2.868085">
        <ele>374.0</ele>
        <time>2021-08-21T07:50:37.007Z</time>
      </trkpt>
      <trkpt lat="41.98941" lon="2.868085">
        <ele>374.0</ele>
        <time>2021-08-21T07:50:38.023Z</time>
      </trkpt>
      <trkpt lat="41.98938167" lon="2.86795">
        <ele>374.0</ele>
        <time>2021-08-21T07:50:39.008Z</time>
      </trkpt>
      <trkpt lat="41.98938167" lon="2.86795">
        <ele>374.0</ele>
        <time>2021-08-21T07:50:40.023Z</time>
      </trkpt>
      <trkpt lat="41.98935667" lon="2.867825">
        <ele>374.0</ele>
        <time>2021-08-21T07:50:40.998Z</time>
      </trkpt>
      <trkpt lat="41.98934167" lon="2.86777">
        <ele>374.0</ele>
        <time>2021-08-21T07:50:42.024Z</time>
      </trkpt>
      <trkpt lat="41.98934167" lon="2.86777">
        <ele>374.0</ele>
        <time>2021-08-21T07:50:43.031Z</time>
      </trkpt>
      <trkpt lat="41.98929667" lon="2.86767667">
        <ele>374.0</ele>
        <time>2021-08-21T07:50:44.008Z</time>
      </trkpt>
      <trkpt lat="41.98929667" lon="2.86767667">
        <ele>374.0</ele>
        <time>2021-08-21T07:50:45.023Z</time>
      </trkpt>
      <trkpt lat="41.98923667" lon="2.867625">
        <ele>374.0</ele>
        <time>2021-08-21T07:50:46.012Z</time>
      </trkpt>
      <trkpt lat="41.98923667" lon="2.867625">
        <ele>374.0</ele>
        <time>2021-08-21T07:50:47.027Z</time>
      </trkpt>
      <trkpt lat="41.98915167" lon="2.86762833">
        <ele>374.0</ele>
        <time>2021-08-21T07:50:47.995Z</time>
      </trkpt>
      <trkpt lat="41.98915167" lon="2.86762833">
        <ele>374.0</ele>
        <time>2021-08-21T07:50:49.017Z</time>
      </trkpt>
      <trkpt lat="41.98906667" lon="2.86767333">
        <ele>374.0</ele>
        <time>2021-08-21T07:50:49.997Z</time>
      </trkpt>
      <trkpt lat="41.98906667" lon="2.86767333">
        <ele>374.0</ele>
        <time>2021-08-21T07:50:51.015Z</time>
      </trkpt>
      <trkpt lat="41.988985" lon="2.86773333">
        <ele>373.0</ele>
        <time>2021-08-21T07:50:51.997Z</time>
      </trkpt>
      <trkpt lat="41.98894333" lon="2.86777">
        <ele>373.0</ele>
        <time>2021-08-21T07:50:53.021Z</time>
      </trkpt>
      <trkpt lat="41.98890167" lon="2.86780833">
        <ele>373.0</ele>
        <time>2021-08-21T07:50:53.997Z</time>
      </trkpt>
      <trkpt lat="41.98890167" lon="2.86780833">
        <ele>373.0</ele>
        <time>2021-08-21T07:50:55.015Z</time>
      </trkpt>
      <trkpt lat="41.988825" lon="2.86788">
        <ele>371.0</ele>
        <time>2021-08-21T07:50:56.015Z</time>
      </trkpt>
      <trkpt lat="41.988825" lon="2.86788">
        <ele>371.0</ele>
        <time>2021-08-21T07:50:57.030Z</time>
      </trkpt>
      <trkpt lat="41.98876" lon="2.867965">
        <ele>370.0</ele>
        <time>2021-08-21T07:50:57.992Z</time>
      </trkpt>
      <trkpt lat="41.98876" lon="2.867965">
        <ele>370.0</ele>
        <time>2021-08-21T07:50:59.015Z</time>
      </trkpt>
      <trkpt lat="41.98872167" lon="2.86808167">
        <ele>369.0</ele>
        <time>2021-08-21T07:51:00.006Z</time>
      </trkpt>
      <trkpt lat="41.98872167" lon="2.86808167">
        <ele>369.0</ele>
        <time>2021-08-21T07:51:01.021Z</time>
      </trkpt>
      <trkpt lat="41.98868833" lon="2.86822167">
        <ele>368.0</ele>
        <time>2021-08-21T07:51:02.028Z</time>
      </trkpt>
      <trkpt lat="41.98867167" lon="2.86829833">
        <ele>368.0</ele>
        <time>2021-08-21T07:51:02.994Z</time>
      </trkpt>
      <trkpt lat="41.98865167" lon="2.86837">
        <ele>367.0</ele>
        <time>2021-08-21T07:51:04.015Z</time>
      </trkpt>
      <trkpt lat="41.98865167" lon="2.86837">
        <ele>367.0</ele>
        <time>2021-08-21T07:51:05.021Z</time>
      </trkpt>
      <trkpt lat="41.988605" lon="2.86848667">
        <ele>366.0</ele>
        <time>2021-08-21T07:51:06.031Z</time>
      </trkpt>
      <trkpt lat="41.988605" lon="2.86848667">
        <ele>366.0</ele>
        <time>2021-08-21T07:51:06.996Z</time>
      </trkpt>
      <trkpt lat="41.98856667" lon="2.86854833">
        <ele>366.0</ele>
        <time>2021-08-21T07:51:08.019Z</time>
      </trkpt>
      <trkpt lat="41.98854667" lon="2.86857167">
        <ele>365.0</ele>
        <time>2021-08-21T07:51:09.000Z</time>
      </trkpt>
      <trkpt lat="41.98854667" lon="2.86857167">
        <ele>365.0</ele>
        <time>2021-08-21T07:51:10.007Z</time>
      </trkpt>
      <trkpt lat="41.98849833" lon="2.86861333">
        <ele>365.0</ele>
        <time>2021-08-21T07:51:11.020Z</time>
      </trkpt>
      <trkpt lat="41.98847167" lon="2.868635">
        <ele>364.0</ele>
        <time>2021-08-21T07:51:11.995Z</time>
      </trkpt>
      <trkpt lat="41.98847167" lon="2.868635">
        <ele>364.0</ele>
        <time>2021-08-21T07:51:13.000Z</time>
      </trkpt>
      <trkpt lat="41.98841333" lon="2.86868">
        <ele>364.0</ele>
        <time>2021-08-21T07:51:14.028Z</time>
      </trkpt>
      <trkpt lat="41.98841333" lon="2.86868">
        <ele>364.0</ele>
        <time>2021-08-21T07:51:14.993Z</time>
      </trkpt>
      <trkpt lat="41.98834667" lon="2.86871333">
        <ele>363.0</ele>
        <time>2021-08-21T07:51:16.026Z</time>
      </trkpt>
      <trkpt lat="41.98834667" lon="2.86871333">
        <ele>363.0</ele>
        <time>2021-08-21T07:51:17.031Z</time>
      </trkpt>
      <trkpt lat="41.98828" lon="2.86873667">
        <ele>362.0</ele>
        <time>2021-08-21T07:51:18.010Z</time>
      </trkpt>
      <trkpt lat="41.98828" lon="2.86873667">
        <ele>362.0</ele>
        <time>2021-08-21T07:51:19.015Z</time>
      </trkpt>
      <trkpt lat="41.98820833" lon="2.86874">
        <ele>362.0</ele>
        <time>2021-08-21T07:51:19.999Z</time>
      </trkpt>
      <trkpt lat="41.98820833" lon="2.86874">
        <ele>362.0</ele>
        <time>2021-08-21T07:51:21.007Z</time>
      </trkpt>
      <trkpt lat="41.98814" lon="2.86871667">
        <ele>362.0</ele>
        <time>2021-08-21T07:51:22.029Z</time>
      </trkpt>
      <trkpt lat="41.98814" lon="2.86871667">
        <ele>362.0</ele>
        <time>2021-08-21T07:51:22.995Z</time>
      </trkpt>
      <trkpt lat="41.988075" lon="2.868685">
        <ele>361.0</ele>
        <time>2021-08-21T07:51:24.007Z</time>
      </trkpt>
      <trkpt lat="41.988075" lon="2.868685">
        <ele>361.0</ele>
        <time>2021-08-21T07:51:25.023Z</time>
      </trkpt>
      <trkpt lat="41.98801167" lon="2.86865167">
        <ele>361.0</ele>
        <time>2021-08-21T07:51:26.001Z</time>
      </trkpt>
      <trkpt lat="41.98801167" lon="2.86865167">
        <ele>361.0</ele>
        <time>2021-08-21T07:51:27.008Z</time>
      </trkpt>
      <trkpt lat="41.98795667" lon="2.86862333">
        <ele>361.0</ele>
        <time>2021-08-21T07:51:28.031Z</time>
      </trkpt>
      <trkpt lat="41.98795667" lon="2.86862333">
        <ele>361.0</ele>
        <time>2021-08-21T07:51:28.996Z</time>
      </trkpt>
      <trkpt lat="41.98789833" lon="2.86858667">
        <ele>361.0</ele>
        <time>2021-08-21T07:51:30.016Z</time>
      </trkpt>
      <trkpt lat="41.98789833" lon="2.86858667">
        <ele>361.0</ele>
        <time>2021-08-21T07:51:31.021Z</time>
      </trkpt>
      <trkpt lat="41.98784833" lon="2.86854833">
        <ele>362.0</ele>
        <time>2021-08-21T07:51:32.003Z</time>
      </trkpt>
      <trkpt lat="41.98784833" lon="2.86854833">
        <ele>362.0</ele>
        <time>2021-08-21T07:51:33.010Z</time>
      </trkpt>
      <trkpt lat="41.98779167" lon="2.86851">
        <ele>362.0</ele>
        <time>2021-08-21T07:51:33.993Z</time>
      </trkpt>
      <trkpt lat="41.98776667" lon="2.86849167">
        <ele>362.0</ele>
        <time>2021-08-21T07:51:35.006Z</time>
      </trkpt>
      <trkpt lat="41.987745" lon="2.86846833">
        <ele>362.0</ele>
        <time>2021-08-21T07:51:36.024Z</time>
      </trkpt>
      <trkpt lat="41.987745" lon="2.86846833">
        <ele>362.0</ele>
        <time>2021-08-21T07:51:37.029Z</time>
      </trkpt>
      <trkpt lat="41.98770333" lon="2.86843333">
        <ele>363.0</ele>
        <time>2021-08-21T07:51:38.011Z</time>
      </trkpt>
      <trkpt lat="41.98770333" lon="2.86843333">
        <ele>363.0</ele>
        <time>2021-08-21T07:51:39.016Z</time>
      </trkpt>
      <trkpt lat="41.98765167" lon="2.86838833">
        <ele>363.0</ele>
        <time>2021-08-21T07:51:40.015Z</time>
      </trkpt>
      <trkpt lat="41.98765167" lon="2.86838833">
        <ele>363.0</ele>
        <time>2021-08-21T07:51:41.021Z</time>
      </trkpt>
      <trkpt lat="41.987595" lon="2.86834">
        <ele>364.0</ele>
        <time>2021-08-21T07:51:42.000Z</time>
      </trkpt>
      <trkpt lat="41.987595" lon="2.86834">
        <ele>364.0</ele>
        <time>2021-08-21T07:51:43.007Z</time>
      </trkpt>
      <trkpt lat="41.98753833" lon="2.868295">
        <ele>364.0</ele>
        <time>2021-08-21T07:51:44.028Z</time>
      </trkpt>
      <trkpt lat="41.98753833" lon="2.868295">
        <ele>364.0</ele>
        <time>2021-08-21T07:51:44.994Z</time>
      </trkpt>
      <trkpt lat="41.98747" lon="2.86826167">
        <ele>365.0</ele>
        <time>2021-08-21T07:51:46.012Z</time>
      </trkpt>
      <trkpt lat="41.98747" lon="2.86826167">
        <ele>365.0</ele>
        <time>2021-08-21T07:51:47.017Z</time>
      </trkpt>
      <trkpt lat="41.987395" lon="2.86824">
        <ele>366.0</ele>
        <time>2021-08-21T07:51:47.998Z</time>
      </trkpt>
      <trkpt lat="41.987395" lon="2.86824">
        <ele>366.0</ele>
        <time>2021-08-21T07:51:49.004Z</time>
      </trkpt>
      <trkpt lat="41.98731167" lon="2.86821667">
        <ele>366.0</ele>
        <time>2021-08-21T07:51:50.008Z</time>
      </trkpt>
      <trkpt lat="41.98731167" lon="2.86821667">
        <ele>366.0</ele>
        <time>2021-08-21T07:51:51.013Z</time>
      </trkpt>
      <trkpt lat="41.98722167" lon="2.86820833">
        <ele>367.0</ele>
        <time>2021-08-21T07:51:52.002Z</time>
      </trkpt>
      <trkpt lat="41.98722167" lon="2.86820833">
        <ele>367.0</ele>
        <time>2021-08-21T07:51:53.009Z</time>
      </trkpt>
      <trkpt lat="41.98713333" lon="2.86819167">
        <ele>367.0</ele>
        <time>2021-08-21T07:51:54.024Z</time>
      </trkpt>
      <trkpt lat="41.98713333" lon="2.86819167">
        <ele>367.0</ele>
        <time>2021-08-21T07:51:55.030Z</time>
      </trkpt>
      <trkpt lat="41.98704667" lon="2.86816">
        <ele>368.0</ele>
        <time>2021-08-21T07:51:56.008Z</time>
      </trkpt>
      <trkpt lat="41.98704667" lon="2.86816">
        <ele>368.0</ele>
        <time>2021-08-21T07:51:57.013Z</time>
      </trkpt>
      <trkpt lat="41.98695667" lon="2.86812167">
        <ele>368.0</ele>
        <time>2021-08-21T07:51:57.996Z</time>
      </trkpt>
      <trkpt lat="41.98695667" lon="2.86812167">
        <ele>368.0</ele>
        <time>2021-08-21T07:51:59.001Z</time>
      </trkpt>
      <trkpt lat="41.986875" lon="2.86807667">
        <ele>369.0</ele>
        <time>2021-08-21T07:52:00.019Z</time>
      </trkpt>
      <trkpt lat="41.986875" lon="2.86807667">
        <ele>369.0</ele>
        <time>2021-08-21T07:52:01.024Z</time>
      </trkpt>
      <trkpt lat="41.98678333" lon="2.86803333">
        <ele>369.0</ele>
        <time>2021-08-21T07:52:02.023Z</time>
      </trkpt>
      <trkpt lat="41.98678333" lon="2.86803333">
        <ele>369.0</ele>
        <time>2021-08-21T07:52:02.993Z</time>
      </trkpt>
      <trkpt lat="41.98670167" lon="2.86799667">
        <ele>370.0</ele>
        <time>2021-08-21T07:52:04.005Z</time>
      </trkpt>
      <trkpt lat="41.98670167" lon="2.86799667">
        <ele>370.0</ele>
        <time>2021-08-21T07:52:05.012Z</time>
      </trkpt>
      <trkpt lat="41.98662" lon="2.86798667">
        <ele>371.0</ele>
        <time>2021-08-21T07:52:05.996Z</time>
      </trkpt>
      <trkpt lat="41.98657833" lon="2.867985">
        <ele>371.0</ele>
        <time>2021-08-21T07:52:07.015Z</time>
      </trkpt>
      <trkpt lat="41.98654167" lon="2.86797833">
        <ele>371.0</ele>
        <time>2021-08-21T07:52:07.996Z</time>
      </trkpt>
      <trkpt lat="41.98654167" lon="2.86797833">
        <ele>371.0</ele>
        <time>2021-08-21T07:52:09.007Z</time>
      </trkpt>
      <trkpt lat="41.98647667" lon="2.86796333">
        <ele>372.0</ele>
        <time>2021-08-21T07:52:09.996Z</time>
      </trkpt>
      <trkpt lat="41.98647667" lon="2.86796333">
        <ele>372.0</ele>
        <time>2021-08-21T07:52:11.001Z</time>
      </trkpt>
      <trkpt lat="41.98641833" lon="2.867965">
        <ele>373.0</ele>
        <time>2021-08-21T07:52:12.017Z</time>
      </trkpt>
      <trkpt lat="41.98641833" lon="2.867965">
        <ele>373.0</ele>
        <time>2021-08-21T07:52:13.022Z</time>
      </trkpt>
      <trkpt lat="41.98636333" lon="2.86796167">
        <ele>374.0</ele>
        <time>2021-08-21T07:52:14.005Z</time>
      </trkpt>
      <trkpt lat="41.98636333" lon="2.86796167">
        <ele>374.0</ele>
        <time>2021-08-21T07:52:15.010Z</time>
      </trkpt>
      <trkpt lat="41.98631167" lon="2.86795333">
        <ele>374.0</ele>
        <time>2021-08-21T07:52:16.009Z</time>
      </trkpt>
      <trkpt lat="41.98631167" lon="2.86795333">
        <ele>374.0</ele>
        <time>2021-08-21T07:52:17.013Z</time>
      </trkpt>
      <trkpt lat="41.98626167" lon="2.86791333">
        <ele>374.0</ele>
        <time>2021-08-21T07:52:18.002Z</time>
      </trkpt>
      <trkpt lat="41.98626167" lon="2.86791333">
        <ele>374.0</ele>
        <time>2021-08-21T07:52:19.007Z</time>
      </trkpt>
      <trkpt lat="41.98620833" lon="2.867855">
        <ele>375.0</ele>
        <time>2021-08-21T07:52:20.027Z</time>
      </trkpt>
      <trkpt lat="41.98620833" lon="2.867855">
        <ele>375.0</ele>
        <time>2021-08-21T07:52:20.992Z</time>
      </trkpt>
      <trkpt lat="41.98614" lon="2.86778833">
        <ele>375.0</ele>
        <time>2021-08-21T07:52:22.007Z</time>
      </trkpt>
      <trkpt lat="41.98614" lon="2.86778833">
        <ele>375.0</ele>
        <time>2021-08-21T07:52:23.012Z</time>
      </trkpt>
      <trkpt lat="41.98604667" lon="2.86773333">
        <ele>375.0</ele>
        <time>2021-08-21T07:52:23.994Z</time>
      </trkpt>
      <trkpt lat="41.98604667" lon="2.86773333">
        <ele>375.0</ele>
        <time>2021-08-21T07:52:25.000Z</time>
      </trkpt>
      <trkpt lat="41.98594833" lon="2.86768667">
        <ele>375.0</ele>
        <time>2021-08-21T07:52:26.017Z</time>
      </trkpt>
      <trkpt lat="41.98594833" lon="2.86768667">
        <ele>375.0</ele>
        <time>2021-08-21T07:52:27.023Z</time>
      </trkpt>
      <trkpt lat="41.98584833" lon="2.86767833">
        <ele>375.0</ele>
        <time>2021-08-21T07:52:28.014Z</time>
      </trkpt>
      <trkpt lat="41.98584833" lon="2.86767833">
        <ele>375.0</ele>
        <time>2021-08-21T07:52:29.022Z</time>
      </trkpt>
      <trkpt lat="41.98575" lon="2.86771333">
        <ele>374.0</ele>
        <time>2021-08-21T07:52:30.006Z</time>
      </trkpt>
      <trkpt lat="41.98575" lon="2.86771333">
        <ele>374.0</ele>
        <time>2021-08-21T07:52:31.012Z</time>
      </trkpt>
      <trkpt lat="41.98562667" lon="2.86777333">
        <ele>373.0</ele>
        <time>2021-08-21T07:52:31.992Z</time>
      </trkpt>
      <trkpt lat="41.98562667" lon="2.86777333">
        <ele>373.0</ele>
        <time>2021-08-21T07:52:32.997Z</time>
      </trkpt>
      <trkpt lat="41.98548333" lon="2.86783167">
        <ele>372.0</ele>
        <time>2021-08-21T07:52:34.003Z</time>
      </trkpt>
      <trkpt lat="41.98548333" lon="2.86783167">
        <ele>372.0</ele>
        <time>2021-08-21T07:52:35.008Z</time>
      </trkpt>
      <trkpt lat="41.98532667" lon="2.86785833">
        <ele>372.0</ele>
        <time>2021-08-21T07:52:36.029Z</time>
      </trkpt>
      <trkpt lat="41.98532667" lon="2.86785833">
        <ele>372.0</ele>
        <time>2021-08-21T07:52:36.994Z</time>
      </trkpt>
      <trkpt lat="41.98517167" lon="2.86787667">
        <ele>371.0</ele>
        <time>2021-08-21T07:52:38.013Z</time>
      </trkpt>
      <trkpt lat="41.98509667" lon="2.86788167">
        <ele>371.0</ele>
        <time>2021-08-21T07:52:39.027Z</time>
      </trkpt>
      <trkpt lat="41.98509667" lon="2.86788167">
        <ele>371.0</ele>
        <time>2021-08-21T07:52:39.993Z</time>
      </trkpt>
      <trkpt lat="41.98495167" lon="2.86788167">
        <ele>370.0</ele>
        <time>2021-08-21T07:52:41.011Z</time>
      </trkpt>
      <trkpt lat="41.98488667" lon="2.86786167">
        <ele>370.0</ele>
        <time>2021-08-21T07:52:42.030Z</time>
      </trkpt>
      <trkpt lat="41.98488667" lon="2.86786167">
        <ele>370.0</ele>
        <time>2021-08-21T07:52:42.995Z</time>
      </trkpt>
      <trkpt lat="41.98477167" lon="2.86779833">
        <ele>369.0</ele>
        <time>2021-08-21T07:52:44.014Z</time>
      </trkpt>
      <trkpt lat="41.98477167" lon="2.86779833">
        <ele>369.0</ele>
        <time>2021-08-21T07:52:45.019Z</time>
      </trkpt>
      <trkpt lat="41.98467167" lon="2.86775">
        <ele>369.0</ele>
        <time>2021-08-21T07:52:46.003Z</time>
      </trkpt>
      <trkpt lat="41.98467167" lon="2.86775">
        <ele>369.0</ele>
        <time>2021-08-21T07:52:47.008Z</time>
      </trkpt>
      <trkpt lat="41.984565" lon="2.86770667">
        <ele>369.0</ele>
        <time>2021-08-21T07:52:48.023Z</time>
      </trkpt>
      <trkpt lat="41.984565" lon="2.86770667">
        <ele>369.0</ele>
        <time>2021-08-21T07:52:49.028Z</time>
      </trkpt>
      <trkpt lat="41.984455" lon="2.86766667">
        <ele>369.0</ele>
        <time>2021-08-21T07:52:50.027Z</time>
      </trkpt>
      <trkpt lat="41.98440667" lon="2.867645">
        <ele>369.0</ele>
        <time>2021-08-21T07:52:51.030Z</time>
      </trkpt>
      <trkpt lat="41.98440667" lon="2.867645">
        <ele>369.0</ele>
        <time>2021-08-21T07:52:51.997Z</time>
      </trkpt>
      <trkpt lat="41.98432333" lon="2.86759333">
        <ele>369.0</ele>
        <time>2021-08-21T07:52:53.024Z</time>
      </trkpt>
      <trkpt lat="41.98428833" lon="2.86756333">
        <ele>369.0</ele>
        <time>2021-08-21T07:52:53.998Z</time>
      </trkpt>
      <trkpt lat="41.98428833" lon="2.86756333">
        <ele>369.0</ele>
        <time>2021-08-21T07:52:55.005Z</time>
      </trkpt>
      <trkpt lat="41.98422667" lon="2.86747833">
        <ele>368.0</ele>
        <time>2021-08-21T07:52:56.028Z</time>
      </trkpt>
      <trkpt lat="41.98422667" lon="2.86747833">
        <ele>368.0</ele>
        <time>2021-08-21T07:52:56.993Z</time>
      </trkpt>
      <trkpt lat="41.98415667" lon="2.86740667">
        <ele>368.0</ele>
        <time>2021-08-21T07:52:58.023Z</time>
      </trkpt>
      <trkpt lat="41.98415667" lon="2.86740667">
        <ele>368.0</ele>
        <time>2021-08-21T07:52:59.029Z</time>
      </trkpt>
      <trkpt lat="41.98408833" lon="2.86735667">
        <ele>369.0</ele>
        <time>2021-08-21T07:53:00.015Z</time>
      </trkpt>
      <trkpt lat="41.98408833" lon="2.86735667">
        <ele>369.0</ele>
        <time>2021-08-21T07:53:01.021Z</time>
      </trkpt>
      <trkpt lat="41.98403833" lon="2.867285">
        <ele>369.0</ele>
        <time>2021-08-21T07:53:02.022Z</time>
      </trkpt>
      <trkpt lat="41.98403833" lon="2.867285">
        <ele>369.0</ele>
        <time>2021-08-21T07:53:02.998Z</time>
      </trkpt>
      <trkpt lat="41.98396667" lon="2.86724333">
        <ele>369.0</ele>
        <time>2021-08-21T07:53:04.027Z</time>
      </trkpt>
      <trkpt lat="41.98396667" lon="2.86724333">
        <ele>369.0</ele>
        <time>2021-08-21T07:53:05.010Z</time>
      </trkpt>
      <trkpt lat="41.983885" lon="2.86721">
        <ele>369.0</ele>
        <time>2021-08-21T07:53:06.004Z</time>
      </trkpt>
      <trkpt lat="41.983885" lon="2.86721">
        <ele>369.0</ele>
        <time>2021-08-21T07:53:07.018Z</time>
      </trkpt>
      <trkpt lat="41.983825" lon="2.86713167">
        <ele>369.0</ele>
        <time>2021-08-21T07:53:08.003Z</time>
      </trkpt>
      <trkpt lat="41.983825" lon="2.86713167">
        <ele>369.0</ele>
        <time>2021-08-21T07:53:09.017Z</time>
      </trkpt>
      <trkpt lat="41.983775" lon="2.86707333">
        <ele>369.0</ele>
        <time>2021-08-21T07:53:10.032Z</time>
      </trkpt>
      <trkpt lat="41.98374333" lon="2.86705">
        <ele>369.0</ele>
        <time>2021-08-21T07:53:11.013Z</time>
      </trkpt>
      <trkpt lat="41.98374333" lon="2.86705">
        <ele>369.0</ele>
        <time>2021-08-21T07:53:12.019Z</time>
      </trkpt>
      <trkpt lat="41.98370833" lon="2.866965">
        <ele>369.0</ele>
        <time>2021-08-21T07:53:13.017Z</time>
      </trkpt>
      <trkpt lat="41.98370833" lon="2.866965">
        <ele>369.0</ele>
        <time>2021-08-21T07:53:14.022Z</time>
      </trkpt>
      <trkpt lat="41.983655" lon="2.866875">
        <ele>369.0</ele>
        <time>2021-08-21T07:53:15.001Z</time>
      </trkpt>
      <trkpt lat="41.983655" lon="2.866875">
        <ele>369.0</ele>
        <time>2021-08-21T07:53:16.010Z</time>
      </trkpt>
      <trkpt lat="41.98360833" lon="2.86676">
        <ele>369.0</ele>
        <time>2021-08-21T07:53:16.995Z</time>
      </trkpt>
      <trkpt lat="41.98358333" lon="2.86670833">
        <ele>369.0</ele>
        <time>2021-08-21T07:53:18.013Z</time>
      </trkpt>
      <trkpt lat="41.98358333" lon="2.86670833">
        <ele>369.0</ele>
        <time>2021-08-21T07:53:19.019Z</time>
      </trkpt>
      <trkpt lat="41.98354833" lon="2.86658333">
        <ele>368.0</ele>
        <time>2021-08-21T07:53:19.993Z</time>
      </trkpt>
      <trkpt lat="41.98354833" lon="2.86658333">
        <ele>368.0</ele>
        <time>2021-08-21T07:53:20.999Z</time>
      </trkpt>
      <trkpt lat="41.98351167" lon="2.86641167">
        <ele>367.0</ele>
        <time>2021-08-21T07:53:22.017Z</time>
      </trkpt>
      <trkpt lat="41.98351167" lon="2.86641167">
        <ele>367.0</ele>
        <time>2021-08-21T07:53:23.022Z</time>
      </trkpt>
      <trkpt lat="41.98347" lon="2.86626667">
        <ele>366.0</ele>
        <time>2021-08-21T07:53:23.994Z</time>
      </trkpt>
      <trkpt lat="41.98347" lon="2.86626667">
        <ele>366.0</ele>
        <time>2021-08-21T07:53:24.999Z</time>
      </trkpt>
      <trkpt lat="41.983465" lon="2.86618">
        <ele>365.0</ele>
        <time>2021-08-21T07:53:26.024Z</time>
      </trkpt>
      <trkpt lat="41.983465" lon="2.86618">
        <ele>365.0</ele>
        <time>2021-08-21T07:53:27.029Z</time>
      </trkpt>
      <trkpt lat="41.98348667" lon="2.86610333">
        <ele>364.0</ele>
        <time>2021-08-21T07:53:28.020Z</time>
      </trkpt>
      <trkpt lat="41.98348667" lon="2.86610333">
        <ele>364.0</ele>
        <time>2021-08-21T07:53:29.026Z</time>
      </trkpt>
      <trkpt lat="41.983505" lon="2.86602167">
        <ele>363.0</ele>
        <time>2021-08-21T07:53:30.009Z</time>
      </trkpt>
      <trkpt lat="41.983505" lon="2.86602167">
        <ele>363.0</ele>
        <time>2021-08-21T07:53:31.014Z</time>
      </trkpt>
      <trkpt lat="41.9835" lon="2.86593167">
        <ele>362.0</ele>
        <time>2021-08-21T07:53:32.031Z</time>
      </trkpt>
      <trkpt lat="41.9835" lon="2.86593167">
        <ele>362.0</ele>
        <time>2021-08-21T07:53:32.996Z</time>
      </trkpt>
      <trkpt lat="41.98349" lon="2.86585167">
        <ele>362.0</ele>
        <time>2021-08-21T07:53:34.020Z</time>
      </trkpt>
      <trkpt lat="41.98349" lon="2.86585167">
        <ele>362.0</ele>
        <time>2021-08-21T07:53:35.026Z</time>
      </trkpt>
      <trkpt lat="41.98348833" lon="2.86578">
        <ele>361.0</ele>
        <time>2021-08-21T07:53:36.007Z</time>
      </trkpt>
      <trkpt lat="41.98348833" lon="2.86578">
        <ele>361.0</ele>
        <time>2021-08-21T07:53:37.012Z</time>
      </trkpt>
      <trkpt lat="41.98348" lon="2.86574667">
        <ele>360.0</ele>
        <time>2021-08-21T07:53:38.028Z</time>
      </trkpt>
      <trkpt lat="41.98348" lon="2.86574667">
        <ele>360.0</ele>
        <time>2021-08-21T07:53:38.994Z</time>
      </trkpt>
      <trkpt lat="41.98348333" lon="2.86574667">
        <ele>360.0</ele>
        <time>2021-08-21T07:53:40.015Z</time>
      </trkpt>
      <trkpt lat="41.983485" lon="2.86574333">
        <ele>360.0</ele>
        <time>2021-08-21T07:53:41.023Z</time>
      </trkpt>
      <trkpt lat="41.983485" lon="2.86574333">
        <ele>360.0</ele>
        <time>2021-08-21T07:53:41.994Z</time>
      </trkpt>
      <trkpt lat="41.983485" lon="2.86574333">
        <ele>360.0</ele>
        <time>2021-08-21T07:53:42.995Z</time>
      </trkpt>
      <trkpt lat="41.983485" lon="2.86574333">
        <ele>360.0</ele>
        <time>2021-08-21T07:53:44.022Z</time>
      </trkpt>
      <trkpt lat="41.983485" lon="2.86574333">
        <ele>360.0</ele>
        <time>2021-08-21T07:53:45.024Z</time>
      </trkpt>
      <trkpt lat="41.983485" lon="2.86574333">
        <ele>360.0</ele>
        <time>2021-08-21T07:53:46.117Z</time>
      </trkpt>
      <trkpt lat="41.983485" lon="2.86574333">
        <ele>360.0</ele>
        <time>2021-08-21T07:53:47.020Z</time>
      </trkpt>
      <trkpt lat="41.983485" lon="2.86574333">
        <ele>360.0</ele>
        <time>2021-08-21T07:53:48.010Z</time>
      </trkpt>
      <trkpt lat="41.983485" lon="2.86574333">
        <ele>360.0</ele>
        <time>2021-08-21T07:53:49.005Z</time>
      </trkpt>
      <trkpt lat="41.983485" lon="2.86574333">
        <ele>360.0</ele>
        <time>2021-08-21T07:53:50.001Z</time>
      </trkpt>
      <trkpt lat="41.983485" lon="2.86574333">
        <ele>360.0</ele>
        <time>2021-08-21T07:53:51.013Z</time>
      </trkpt>
      <trkpt lat="41.983485" lon="2.86574333">
        <ele>360.0</ele>
        <time>2021-08-21T07:53:52.010Z</time>
      </trkpt>
      <trkpt lat="41.983485" lon="2.86574333">
        <ele>360.0</ele>
        <time>2021-08-21T07:53:53.009Z</time>
      </trkpt>
      <trkpt lat="41.983485" lon="2.86574333">
        <ele>360.0</ele>
        <time>2021-08-21T07:53:54.058Z</time>
      </trkpt>
      <trkpt lat="41.983485" lon="2.86574333">
        <ele>360.0</ele>
        <time>2021-08-21T07:53:54.999Z</time>
      </trkpt>
      <trkpt lat="41.983485" lon="2.86574333">
        <ele>360.0</ele>
        <time>2021-08-21T07:53:56.017Z</time>
      </trkpt>
      <trkpt lat="41.983485" lon="2.86574333">
        <ele>360.0</ele>
        <time>2021-08-21T07:53:57.005Z</time>
      </trkpt>
      <trkpt lat="41.983485" lon="2.86574333">
        <ele>360.0</ele>
        <time>2021-08-21T07:53:58.029Z</time>
      </trkpt>
      <trkpt lat="41.983485" lon="2.86574333">
        <ele>360.0</ele>
        <time>2021-08-21T07:53:59.011Z</time>
      </trkpt>
      <trkpt lat="41.983485" lon="2.86574333">
        <ele>360.0</ele>
        <time>2021-08-21T07:53:59.997Z</time>
      </trkpt>
      <trkpt lat="41.983485" lon="2.86574333">
        <ele>360.0</ele>
        <time>2021-08-21T07:54:01.003Z</time>
      </trkpt>
      <trkpt lat="41.983485" lon="2.86574333">
        <ele>360.0</ele>
        <time>2021-08-21T07:54:01.997Z</time>
      </trkpt>
      <trkpt lat="41.983485" lon="2.86574333">
        <ele>360.0</ele>
        <time>2021-08-21T07:54:03.045Z</time>
      </trkpt>
      <trkpt lat="41.983485" lon="2.86574333">
        <ele>360.0</ele>
        <time>2021-08-21T07:54:04.002Z</time>
      </trkpt>
      <trkpt lat="41.983485" lon="2.86574333">
        <ele>360.0</ele>
        <time>2021-08-21T07:54:05.009Z</time>
      </trkpt>
      <trkpt lat="41.983485" lon="2.86574333">
        <ele>360.0</ele>
        <time>2021-08-21T07:54:06.017Z</time>
      </trkpt>
      <trkpt lat="41.983485" lon="2.86574333">
        <ele>360.0</ele>
        <time>2021-08-21T07:54:07.024Z</time>
      </trkpt>
      <trkpt lat="41.983485" lon="2.86574333">
        <ele>360.0</ele>
        <time>2021-08-21T07:54:08.011Z</time>
      </trkpt>
      <trkpt lat="41.983485" lon="2.86574333">
        <ele>360.0</ele>
        <time>2021-08-21T07:54:09.017Z</time>
      </trkpt>
      <trkpt lat="41.983485" lon="2.86574333">
        <ele>360.0</ele>
        <time>2021-08-21T07:54:10.004Z</time>
      </trkpt>
      <trkpt lat="41.983485" lon="2.86574333">
        <ele>360.0</ele>
        <time>2021-08-21T07:54:11.006Z</time>
      </trkpt>
      <trkpt lat="41.983485" lon="2.86574333">
        <ele>360.0</ele>
        <time>2021-08-21T07:54:12.004Z</time>
      </trkpt>
      <trkpt lat="41.983485" lon="2.86574333">
        <ele>360.0</ele>
        <time>2021-08-21T07:54:13.006Z</time>
      </trkpt>
      <trkpt lat="41.983485" lon="2.86574333">
        <ele>360.0</ele>
        <time>2021-08-21T07:54:14.028Z</time>
      </trkpt>
      <trkpt lat="41.98348667" lon="2.865735">
        <ele>356.0</ele>
        <time>2021-08-21T07:54:15.022Z</time>
      </trkpt>
      <trkpt lat="41.98348667" lon="2.865735">
        <ele>356.0</ele>
        <time>2021-08-21T07:54:16.020Z</time>
      </trkpt>
      <trkpt lat="41.983495" lon="2.86576667">
        <ele>356.0</ele>
        <time>2021-08-21T07:54:17.027Z</time>
      </trkpt>
      <trkpt lat="41.983495" lon="2.86576667">
        <ele>356.0</ele>
        <time>2021-08-21T07:54:17.995Z</time>
      </trkpt>
      <trkpt lat="41.98349167" lon="2.86582333">
        <ele>356.0</ele>
        <time>2021-08-21T07:54:19.015Z</time>
      </trkpt>
      <trkpt lat="41.98349" lon="2.86585833">
        <ele>356.0</ele>
        <time>2021-08-21T07:54:20.000Z</time>
      </trkpt>
      <trkpt lat="41.98349" lon="2.86585833">
        <ele>356.0</ele>
        <time>2021-08-21T07:54:21.008Z</time>
      </trkpt>
      <trkpt lat="41.98348167" lon="2.86593333">
        <ele>356.0</ele>
        <time>2021-08-21T07:54:21.992Z</time>
      </trkpt>
      <trkpt lat="41.98348167" lon="2.86593333">
        <ele>356.0</ele>
        <time>2021-08-21T07:54:23.000Z</time>
      </trkpt>
      <trkpt lat="41.98346667" lon="2.86598833">
        <ele>356.0</ele>
        <time>2021-08-21T07:54:24.029Z</time>
      </trkpt>
      <trkpt lat="41.98344167" lon="2.866">
        <ele>355.0</ele>
        <time>2021-08-21T07:54:25.008Z</time>
      </trkpt>
      <trkpt lat="41.983405" lon="2.866015">
        <ele>355.0</ele>
        <time>2021-08-21T07:54:25.994Z</time>
      </trkpt>
      <trkpt lat="41.983405" lon="2.866015">
        <ele>355.0</ele>
        <time>2021-08-21T07:54:27.003Z</time>
      </trkpt>
      <trkpt lat="41.98332167" lon="2.86608167">
        <ele>354.0</ele>
        <time>2021-08-21T07:54:28.023Z</time>
      </trkpt>
      <trkpt lat="41.98332167" lon="2.86608167">
        <ele>354.0</ele>
        <time>2021-08-21T07:54:28.994Z</time>
      </trkpt>
      <trkpt lat="41.98323667" lon="2.866165">
        <ele>353.0</ele>
        <time>2021-08-21T07:54:30.011Z</time>
      </trkpt>
      <trkpt lat="41.98323667" lon="2.866165">
        <ele>353.0</ele>
        <time>2021-08-21T07:54:31.018Z</time>
      </trkpt>
      <trkpt lat="41.983175" lon="2.866235">
        <ele>352.0</ele>
        <time>2021-08-21T07:54:32.000Z</time>
      </trkpt>
      <trkpt lat="41.983145" lon="2.86627333">
        <ele>352.0</ele>
        <time>2021-08-21T07:54:33.025Z</time>
      </trkpt>
      <trkpt lat="41.983145" lon="2.86627333">
        <ele>352.0</ele>
        <time>2021-08-21T07:54:33.998Z</time>
      </trkpt>
      <trkpt lat="41.98308167" lon="2.86639667">
        <ele>350.0</ele>
        <time>2021-08-21T07:54:35.020Z</time>
      </trkpt>
      <trkpt lat="41.98305667" lon="2.86647833">
        <ele>350.0</ele>
        <time>2021-08-21T07:54:36.001Z</time>
      </trkpt>
      <trkpt lat="41.98305667" lon="2.86647833">
        <ele>350.0</ele>
        <time>2021-08-21T07:54:37.008Z</time>
      </trkpt>
      <trkpt lat="41.98301333" lon="2.86666">
        <ele>349.0</ele>
        <time>2021-08-21T07:54:38.028Z</time>
      </trkpt>
      <trkpt lat="41.98301333" lon="2.86666">
        <ele>349.0</ele>
        <time>2021-08-21T07:54:38.994Z</time>
      </trkpt>
      <trkpt lat="41.98296167" lon="2.866815">
        <ele>348.0</ele>
        <time>2021-08-21T07:54:40.025Z</time>
      </trkpt>
      <trkpt lat="41.98296167" lon="2.866815">
        <ele>348.0</ele>
        <time>2021-08-21T07:54:41.031Z</time>
      </trkpt>
      <trkpt lat="41.98287" lon="2.86691333">
        <ele>347.0</ele>
        <time>2021-08-21T07:54:42.011Z</time>
      </trkpt>
      <trkpt lat="41.98287" lon="2.86691333">
        <ele>347.0</ele>
        <time>2021-08-21T07:54:43.016Z</time>
      </trkpt>
      <trkpt lat="41.982775" lon="2.866995">
        <ele>346.0</ele>
        <time>2021-08-21T07:54:43.994Z</time>
      </trkpt>
      <trkpt lat="41.982775" lon="2.866995">
        <ele>346.0</ele>
        <time>2021-08-21T07:54:45.006Z</time>
      </trkpt>
      <trkpt lat="41.98271167" lon="2.86708">
        <ele>345.0</ele>
        <time>2021-08-21T07:54:46.023Z</time>
      </trkpt>
      <trkpt lat="41.98271167" lon="2.86708">
        <ele>345.0</ele>
        <time>2021-08-21T07:54:46.993Z</time>
      </trkpt>
      <trkpt lat="41.98265333" lon="2.86716">
        <ele>344.0</ele>
        <time>2021-08-21T07:54:48.026Z</time>
      </trkpt>
      <trkpt lat="41.98262333" lon="2.86719167">
        <ele>343.0</ele>
        <time>2021-08-21T07:54:49.020Z</time>
      </trkpt>
      <trkpt lat="41.98262333" lon="2.86719167">
        <ele>343.0</ele>
        <time>2021-08-21T07:54:50.025Z</time>
      </trkpt>
      <trkpt lat="41.98256667" lon="2.86724833">
        <ele>341.0</ele>
        <time>2021-08-21T07:54:51.008Z</time>
      </trkpt>
      <trkpt lat="41.98256667" lon="2.86724833">
        <ele>341.0</ele>
        <time>2021-08-21T07:54:52.012Z</time>
      </trkpt>
      <trkpt lat="41.98250833" lon="2.86732667">
        <ele>339.0</ele>
        <time>2021-08-21T07:54:52.993Z</time>
      </trkpt>
      <trkpt lat="41.98250833" lon="2.86732667">
        <ele>339.0</ele>
        <time>2021-08-21T07:54:53.999Z</time>
      </trkpt>
      <trkpt lat="41.98247667" lon="2.86742833">
        <ele>338.0</ele>
        <time>2021-08-21T07:54:55.022Z</time>
      </trkpt>
      <trkpt lat="41.982455" lon="2.86747833">
        <ele>337.0</ele>
        <time>2021-08-21T07:54:56.009Z</time>
      </trkpt>
      <trkpt lat="41.982455" lon="2.86747833">
        <ele>337.0</ele>
        <time>2021-08-21T07:54:57.015Z</time>
      </trkpt>
      <trkpt lat="41.98237833" lon="2.86757333">
        <ele>335.0</ele>
        <time>2021-08-21T07:54:58.029Z</time>
      </trkpt>
      <trkpt lat="41.98237833" lon="2.86757333">
        <ele>335.0</ele>
        <time>2021-08-21T07:54:58.994Z</time>
      </trkpt>
      <trkpt lat="41.98230833" lon="2.867685">
        <ele>333.0</ele>
        <time>2021-08-21T07:55:00.010Z</time>
      </trkpt>
      <trkpt lat="41.98230833" lon="2.867685">
        <ele>333.0</ele>
        <time>2021-08-21T07:55:01.015Z</time>
      </trkpt>
      <trkpt lat="41.98224333" lon="2.86777333">
        <ele>332.0</ele>
        <time>2021-08-21T07:55:02.015Z</time>
      </trkpt>
      <trkpt lat="41.98224333" lon="2.86777333">
        <ele>332.0</ele>
        <time>2021-08-21T07:55:03.011Z</time>
      </trkpt>
      <trkpt lat="41.98214833" lon="2.86779833">
        <ele>330.0</ele>
        <time>2021-08-21T07:55:03.994Z</time>
      </trkpt>
      <trkpt lat="41.98214833" lon="2.86779833">
        <ele>330.0</ele>
        <time>2021-08-21T07:55:05.003Z</time>
      </trkpt>
      <trkpt lat="41.98201333" lon="2.86778833">
        <ele>328.0</ele>
        <time>2021-08-21T07:55:06.019Z</time>
      </trkpt>
      <trkpt lat="41.98201333" lon="2.86778833">
        <ele>328.0</ele>
        <time>2021-08-21T07:55:07.024Z</time>
      </trkpt>
      <trkpt lat="41.981855" lon="2.86778833">
        <ele>326.0</ele>
        <time>2021-08-21T07:55:08.007Z</time>
      </trkpt>
      <trkpt lat="41.981855" lon="2.86778833">
        <ele>326.0</ele>
        <time>2021-08-21T07:55:09.012Z</time>
      </trkpt>
      <trkpt lat="41.98169167" lon="2.86778167">
        <ele>324.0</ele>
        <time>2021-08-21T07:55:10.025Z</time>
      </trkpt>
      <trkpt lat="41.98169167" lon="2.86778167">
        <ele>324.0</ele>
        <time>2021-08-21T07:55:10.992Z</time>
      </trkpt>
      <trkpt lat="41.98152667" lon="2.86777333">
        <ele>322.0</ele>
        <time>2021-08-21T07:55:12.024Z</time>
      </trkpt>
      <trkpt lat="41.98152667" lon="2.86777333">
        <ele>322.0</ele>
        <time>2021-08-21T07:55:13.030Z</time>
      </trkpt>
      <trkpt lat="41.98138333" lon="2.86775">
        <ele>320.0</ele>
        <time>2021-08-21T07:55:14.012Z</time>
      </trkpt>
      <trkpt lat="41.98131833" lon="2.867745">
        <ele>319.0</ele>
        <time>2021-08-21T07:55:14.996Z</time>
      </trkpt>
      <trkpt lat="41.98131833" lon="2.867745">
        <ele>319.0</ele>
        <time>2021-08-21T07:55:16.001Z</time>
      </trkpt>
      <trkpt lat="41.98120833" lon="2.86774667">
        <ele>318.0</ele>
        <time>2021-08-21T07:55:16.998Z</time>
      </trkpt>
      <trkpt lat="41.98120833" lon="2.86774667">
        <ele>318.0</ele>
        <time>2021-08-21T07:55:18.003Z</time>
      </trkpt>
      <trkpt lat="41.98110333" lon="2.86775833">
        <ele>317.0</ele>
        <time>2021-08-21T07:55:19.026Z</time>
      </trkpt>
      <trkpt lat="41.98105167" lon="2.86777">
        <ele>316.0</ele>
        <time>2021-08-21T07:55:20.000Z</time>
      </trkpt>
      <trkpt lat="41.98105167" lon="2.86777">
        <ele>316.0</ele>
        <time>2021-08-21T07:55:21.005Z</time>
      </trkpt>
      <trkpt lat="41.98096167" lon="2.867795">
        <ele>317.0</ele>
        <time>2021-08-21T07:55:22.031Z</time>
      </trkpt>
      <trkpt lat="41.98096167" lon="2.867795">
        <ele>317.0</ele>
        <time>2021-08-21T07:55:22.997Z</time>
      </trkpt>
      <trkpt lat="41.98088167" lon="2.86781167">
        <ele>316.0</ele>
        <time>2021-08-21T07:55:24.031Z</time>
      </trkpt>
      <trkpt lat="41.98088167" lon="2.86781167">
        <ele>316.0</ele>
        <time>2021-08-21T07:55:24.997Z</time>
      </trkpt>
      <trkpt lat="41.98081167" lon="2.86786667">
        <ele>315.0</ele>
        <time>2021-08-21T07:55:26.012Z</time>
      </trkpt>
      <trkpt lat="41.98078333" lon="2.86789167">
        <ele>315.0</ele>
        <time>2021-08-21T07:55:27.001Z</time>
      </trkpt>
      <trkpt lat="41.98078333" lon="2.86789167">
        <ele>315.0</ele>
        <time>2021-08-21T07:55:28.007Z</time>
      </trkpt>
      <trkpt lat="41.98072667" lon="2.86790833">
        <ele>315.0</ele>
        <time>2021-08-21T07:55:29.025Z</time>
      </trkpt>
      <trkpt lat="41.98072667" lon="2.86790833">
        <ele>315.0</ele>
        <time>2021-08-21T07:55:29.992Z</time>
      </trkpt>
      <trkpt lat="41.980695" lon="2.86794333">
        <ele>314.0</ele>
        <time>2021-08-21T07:55:31.013Z</time>
      </trkpt>
      <trkpt lat="41.98068333" lon="2.86796167">
        <ele>314.0</ele>
        <time>2021-08-21T07:55:31.993Z</time>
      </trkpt>
      <trkpt lat="41.98068333" lon="2.86796167">
        <ele>314.0</ele>
        <time>2021-08-21T07:55:32.999Z</time>
      </trkpt>
      <trkpt lat="41.98064167" lon="2.86799667">
        <ele>314.0</ele>
        <time>2021-08-21T07:55:34.019Z</time>
      </trkpt>
      <trkpt lat="41.98064167" lon="2.86799667">
        <ele>314.0</ele>
        <time>2021-08-21T07:55:35.025Z</time>
      </trkpt>
      <trkpt lat="41.98058667" lon="2.86801167">
        <ele>314.0</ele>
        <time>2021-08-21T07:55:36.004Z</time>
      </trkpt>
      <trkpt lat="41.98058667" lon="2.86801167">
        <ele>314.0</ele>
        <time>2021-08-21T07:55:37.009Z</time>
      </trkpt>
      <trkpt lat="41.98052667" lon="2.86802167">
        <ele>314.0</ele>
        <time>2021-08-21T07:55:38.028Z</time>
      </trkpt>
      <trkpt lat="41.98052667" lon="2.86802167">
        <ele>314.0</ele>
        <time>2021-08-21T07:55:38.994Z</time>
      </trkpt>
      <trkpt lat="41.980465" lon="2.86801833">
        <ele>315.0</ele>
        <time>2021-08-21T07:55:40.011Z</time>
      </trkpt>
      <trkpt lat="41.98043333" lon="2.86800833">
        <ele>315.0</ele>
        <time>2021-08-21T07:55:40.997Z</time>
      </trkpt>
      <trkpt lat="41.98043333" lon="2.86800833">
        <ele>315.0</ele>
        <time>2021-08-21T07:55:42.003Z</time>
      </trkpt>
      <trkpt lat="41.98037667" lon="2.86798">
        <ele>316.0</ele>
        <time>2021-08-21T07:55:43.020Z</time>
      </trkpt>
      <trkpt lat="41.980345" lon="2.86796167">
        <ele>317.0</ele>
        <time>2021-08-21T07:55:44.003Z</time>
      </trkpt>
      <trkpt lat="41.980345" lon="2.86796167">
        <ele>317.0</ele>
        <time>2021-08-21T07:55:45.008Z</time>
      </trkpt>
      <trkpt lat="41.98026833" lon="2.86792167">
        <ele>317.0</ele>
        <time>2021-08-21T07:55:46.028Z</time>
      </trkpt>
      <trkpt lat="41.98021833" lon="2.86790667">
        <ele>318.0</ele>
        <time>2021-08-21T07:55:47.004Z</time>
      </trkpt>
      <trkpt lat="41.98021833" lon="2.86790667">
        <ele>318.0</ele>
        <time>2021-08-21T07:55:48.010Z</time>
      </trkpt>
      <trkpt lat="41.980105" lon="2.86790333">
        <ele>318.0</ele>
        <time>2021-08-21T07:55:48.996Z</time>
      </trkpt>
      <trkpt lat="41.98003167" lon="2.86791">
        <ele>317.0</ele>
        <time>2021-08-21T07:55:50.012Z</time>
      </trkpt>
      <trkpt lat="41.98003167" lon="2.86791">
        <ele>317.0</ele>
        <time>2021-08-21T07:55:51.017Z</time>
      </trkpt>
      <trkpt lat="41.979865" lon="2.86791167">
        <ele>317.0</ele>
        <time>2021-08-21T07:55:52.032Z</time>
      </trkpt>
      <trkpt lat="41.979865" lon="2.86791167">
        <ele>317.0</ele>
        <time>2021-08-21T07:55:52.996Z</time>
      </trkpt>
      <trkpt lat="41.97968833" lon="2.86789667">
        <ele>317.0</ele>
        <time>2021-08-21T07:55:54.019Z</time>
      </trkpt>
      <trkpt lat="41.97968833" lon="2.86789667">
        <ele>317.0</ele>
        <time>2021-08-21T07:55:55.024Z</time>
      </trkpt>
      <trkpt lat="41.97951167" lon="2.867895">
        <ele>317.0</ele>
        <time>2021-08-21T07:55:56.012Z</time>
      </trkpt>
      <trkpt lat="41.97951167" lon="2.867895">
        <ele>317.0</ele>
        <time>2021-08-21T07:55:57.016Z</time>
      </trkpt>
      <trkpt lat="41.979335" lon="2.86792167">
        <ele>317.0</ele>
        <time>2021-08-21T07:55:57.999Z</time>
      </trkpt>
      <trkpt lat="41.979335" lon="2.86792167">
        <ele>317.0</ele>
        <time>2021-08-21T07:55:59.005Z</time>
      </trkpt>
      <trkpt lat="41.97918667" lon="2.86795833">
        <ele>317.0</ele>
        <time>2021-08-21T07:56:00.024Z</time>
      </trkpt>
      <trkpt lat="41.97918667" lon="2.86795833">
        <ele>317.0</ele>
        <time>2021-08-21T07:56:00.993Z</time>
      </trkpt>
      <trkpt lat="41.97905833" lon="2.86795667">
        <ele>317.0</ele>
        <time>2021-08-21T07:56:02.021Z</time>
      </trkpt>
      <trkpt lat="41.97905833" lon="2.86795667">
        <ele>317.0</ele>
        <time>2021-08-21T07:56:03.025Z</time>
      </trkpt>
      <trkpt lat="41.97895667" lon="2.86785333">
        <ele>316.0</ele>
        <time>2021-08-21T07:56:04.008Z</time>
      </trkpt>
      <trkpt lat="41.97895667" lon="2.86785333">
        <ele>316.0</ele>
        <time>2021-08-21T07:56:05.014Z</time>
      </trkpt>
      <trkpt lat="41.97884833" lon="2.86773833">
        <ele>316.0</ele>
        <time>2021-08-21T07:56:06.002Z</time>
      </trkpt>
      <trkpt lat="41.97884833" lon="2.86773833">
        <ele>316.0</ele>
        <time>2021-08-21T07:56:07.008Z</time>
      </trkpt>
      <trkpt lat="41.97874667" lon="2.86763333">
        <ele>316.0</ele>
        <time>2021-08-21T07:56:07.995Z</time>
      </trkpt>
      <trkpt lat="41.97874667" lon="2.86763333">
        <ele>316.0</ele>
        <time>2021-08-21T07:56:09.001Z</time>
      </trkpt>
      <trkpt lat="41.97864333" lon="2.86757167">
        <ele>316.0</ele>
        <time>2021-08-21T07:56:09.993Z</time>
      </trkpt>
      <trkpt lat="41.97864333" lon="2.86757167">
        <ele>316.0</ele>
        <time>2021-08-21T07:56:10.998Z</time>
      </trkpt>
      <trkpt lat="41.97851833" lon="2.86754167">
        <ele>316.0</ele>
        <time>2021-08-21T07:56:12.014Z</time>
      </trkpt>
      <trkpt lat="41.97851833" lon="2.86754167">
        <ele>316.0</ele>
        <time>2021-08-21T07:56:13.019Z</time>
      </trkpt>
      <trkpt lat="41.97840333" lon="2.86755833">
        <ele>316.0</ele>
        <time>2021-08-21T07:56:14.003Z</time>
      </trkpt>
      <trkpt lat="41.97840333" lon="2.86755833">
        <ele>316.0</ele>
        <time>2021-08-21T07:56:15.008Z</time>
      </trkpt>
      <trkpt lat="41.97834167" lon="2.86756833">
        <ele>316.0</ele>
        <time>2021-08-21T07:56:16.030Z</time>
      </trkpt>
      <trkpt lat="41.97834167" lon="2.86756833">
        <ele>316.0</ele>
        <time>2021-08-21T07:56:16.995Z</time>
      </trkpt>
      <trkpt lat="41.97831833" lon="2.86757">
        <ele>316.0</ele>
        <time>2021-08-21T07:56:18.009Z</time>
      </trkpt>
      <trkpt lat="41.97831667" lon="2.86757">
        <ele>315.0</ele>
        <time>2021-08-21T07:56:18.995Z</time>
      </trkpt>
      <trkpt lat="41.97832167" lon="2.86756667">
        <ele>315.0</ele>
        <time>2021-08-21T07:56:20.016Z</time>
      </trkpt>
      <trkpt lat="41.97832167" lon="2.86756667">
        <ele>315.0</ele>
        <time>2021-08-21T07:56:21.022Z</time>
      </trkpt>
      <trkpt lat="41.97835" lon="2.86755667">
        <ele>315.0</ele>
        <time>2021-08-21T07:56:21.997Z</time>
      </trkpt>
      <trkpt lat="41.97835" lon="2.86755667">
        <ele>315.0</ele>
        <time>2021-08-21T07:56:23.015Z</time>
      </trkpt>
      <trkpt lat="41.978395" lon="2.86753667">
        <ele>315.0</ele>
        <time>2021-08-21T07:56:24.006Z</time>
      </trkpt>
      <trkpt lat="41.978395" lon="2.86753667">
        <ele>315.0</ele>
        <time>2021-08-21T07:56:24.992Z</time>
      </trkpt>
      <trkpt lat="41.97846667" lon="2.867515">
        <ele>315.0</ele>
        <time>2021-08-21T07:56:26.023Z</time>
      </trkpt>
      <trkpt lat="41.97850333" lon="2.86751167">
        <ele>315.0</ele>
        <time>2021-08-21T07:56:27.028Z</time>
      </trkpt>
      <trkpt lat="41.97850333" lon="2.86751167">
        <ele>315.0</ele>
        <time>2021-08-21T07:56:27.994Z</time>
      </trkpt>
      <trkpt lat="41.978585" lon="2.86752167">
        <ele>316.0</ele>
        <time>2021-08-21T07:56:29.010Z</time>
      </trkpt>
      <trkpt lat="41.978585" lon="2.86752167">
        <ele>316.0</ele>
        <time>2021-08-21T07:56:30.015Z</time>
      </trkpt>
      <trkpt lat="41.97866833" lon="2.86756">
        <ele>316.0</ele>
        <time>2021-08-21T07:56:30.998Z</time>
      </trkpt>
      <trkpt lat="41.97871333" lon="2.86759167">
        <ele>316.0</ele>
        <time>2021-08-21T07:56:31.995Z</time>
      </trkpt>
      <trkpt lat="41.97871333" lon="2.86759167">
        <ele>316.0</ele>
        <time>2021-08-21T07:56:33.001Z</time>
      </trkpt>
      <trkpt lat="41.97879167" lon="2.86765833">
        <ele>316.0</ele>
        <time>2021-08-21T07:56:34.069Z</time>
      </trkpt>
      <trkpt lat="41.978825" lon="2.86769667">
        <ele>316.0</ele>
        <time>2021-08-21T07:56:34.998Z</time>
      </trkpt>
      <trkpt lat="41.978825" lon="2.86769667">
        <ele>316.0</ele>
        <time>2021-08-21T07:56:36.004Z</time>
      </trkpt>
      <trkpt lat="41.97887833" lon="2.867765">
        <ele>316.0</ele>
        <time>2021-08-21T07:56:37.010Z</time>
      </trkpt>
      <trkpt lat="41.978905" lon="2.86777833">
        <ele>316.0</ele>
        <time>2021-08-21T07:56:38.022Z</time>
      </trkpt>
      <trkpt lat="41.978905" lon="2.86777833">
        <ele>316.0</ele>
        <time>2021-08-21T07:56:39.004Z</time>
      </trkpt>
      <trkpt lat="41.97895167" lon="2.86776333">
        <ele>316.0</ele>
        <time>2021-08-21T07:56:39.993Z</time>
      </trkpt>
      <trkpt lat="41.97894833" lon="2.86773333">
        <ele>316.0</ele>
        <time>2021-08-21T07:56:40.998Z</time>
      </trkpt>
      <trkpt lat="41.97894833" lon="2.86773333">
        <ele>316.0</ele>
        <time>2021-08-21T07:56:42.003Z</time>
      </trkpt>
      <trkpt lat="41.978915" lon="2.86766833">
        <ele>316.0</ele>
        <time>2021-08-21T07:56:43.026Z</time>
      </trkpt>
      <trkpt lat="41.978895" lon="2.86763167">
        <ele>316.0</ele>
        <time>2021-08-21T07:56:43.998Z</time>
      </trkpt>
      <trkpt lat="41.978895" lon="2.86763167">
        <ele>316.0</ele>
        <time>2021-08-21T07:56:45.005Z</time>
      </trkpt>
      <trkpt lat="41.978855" lon="2.86756">
        <ele>316.0</ele>
        <time>2021-08-21T07:56:45.994Z</time>
      </trkpt>
      <trkpt lat="41.978855" lon="2.86756">
        <ele>316.0</ele>
        <time>2021-08-21T07:56:46.999Z</time>
      </trkpt>
      <trkpt lat="41.97881833" lon="2.86750833">
        <ele>316.0</ele>
        <time>2021-08-21T07:56:48.020Z</time>
      </trkpt>
      <trkpt lat="41.97881833" lon="2.86750833">
        <ele>316.0</ele>
        <time>2021-08-21T07:56:49.026Z</time>
      </trkpt>
      <trkpt lat="41.97881667" lon="2.86744667">
        <ele>317.0</ele>
        <time>2021-08-21T07:56:50.005Z</time>
      </trkpt>
      <trkpt lat="41.978815" lon="2.86741333">
        <ele>317.0</ele>
        <time>2021-08-21T07:56:50.994Z</time>
      </trkpt>
      <trkpt lat="41.978815" lon="2.86741333">
        <ele>317.0</ele>
        <time>2021-08-21T07:56:52.000Z</time>
      </trkpt>
      <trkpt lat="41.97880667" lon="2.86737">
        <ele>317.0</ele>
        <time>2021-08-21T07:56:53.030Z</time>
      </trkpt>
      <trkpt lat="41.97880667" lon="2.86737">
        <ele>317.0</ele>
        <time>2021-08-21T07:56:53.998Z</time>
      </trkpt>
      <trkpt lat="41.97880667" lon="2.86736333">
        <ele>318.0</ele>
        <time>2021-08-21T07:56:55.031Z</time>
      </trkpt>
      <trkpt lat="41.97880667" lon="2.86736167">
        <ele>318.0</ele>
        <time>2021-08-21T07:56:56.012Z</time>
      </trkpt>
      <trkpt lat="41.97880333" lon="2.86736">
        <ele>318.0</ele>
        <time>2021-08-21T07:56:57.015Z</time>
      </trkpt>
      <trkpt lat="41.97880333" lon="2.86736">
        <ele>318.0</ele>
        <time>2021-08-21T07:56:58.180Z</time>
      </trkpt>
      <trkpt lat="41.97880333" lon="2.86736">
        <ele>318.0</ele>
        <time>2021-08-21T07:56:59.004Z</time>
      </trkpt>
      <trkpt lat="41.97880333" lon="2.86736">
        <ele>318.0</ele>
        <time>2021-08-21T07:56:59.997Z</time>
      </trkpt>
      <trkpt lat="41.97880333" lon="2.86736">
        <ele>318.0</ele>
        <time>2021-08-21T07:57:00.999Z</time>
      </trkpt>
      <trkpt lat="41.97880333" lon="2.86736">
        <ele>318.0</ele>
        <time>2021-08-21T07:57:02.020Z</time>
      </trkpt>
      <trkpt lat="41.97880333" lon="2.86736">
        <ele>318.0</ele>
        <time>2021-08-21T07:57:03.027Z</time>
      </trkpt>
      <trkpt lat="41.97880333" lon="2.86736">
        <ele>318.0</ele>
        <time>2021-08-21T07:57:04.028Z</time>
      </trkpt>
      <trkpt lat="41.97880333" lon="2.86736">
        <ele>318.0</ele>
        <time>2021-08-21T07:57:05.013Z</time>
      </trkpt>
      <trkpt lat="41.97880333" lon="2.86736">
        <ele>318.0</ele>
        <time>2021-08-21T07:57:06.013Z</time>
      </trkpt>
      <trkpt lat="41.97880333" lon="2.86736">
        <ele>318.0</ele>
        <time>2021-08-21T07:57:06.992Z</time>
      </trkpt>
      <trkpt lat="41.97880333" lon="2.86736">
        <ele>318.0</ele>
        <time>2021-08-21T07:57:08.004Z</time>
      </trkpt>
      <trkpt lat="41.97880333" lon="2.86736">
        <ele>318.0</ele>
        <time>2021-08-21T07:57:08.998Z</time>
      </trkpt>
      <trkpt lat="41.97880333" lon="2.86736">
        <ele>318.0</ele>
        <time>2021-08-21T07:57:10.028Z</time>
      </trkpt>
      <trkpt lat="41.97880333" lon="2.86736">
        <ele>318.0</ele>
        <time>2021-08-21T07:57:10.993Z</time>
      </trkpt>
      <trkpt lat="41.97880333" lon="2.86736">
        <ele>318.0</ele>
        <time>2021-08-21T07:57:12.005Z</time>
      </trkpt>
      <trkpt lat="41.97880333" lon="2.86736">
        <ele>318.0</ele>
        <time>2021-08-21T07:57:13.019Z</time>
      </trkpt>
      <trkpt lat="41.97880333" lon="2.86736">
        <ele>318.0</ele>
        <time>2021-08-21T07:57:14.030Z</time>
      </trkpt>
      <trkpt lat="41.97880333" lon="2.86736">
        <ele>318.0</ele>
        <time>2021-08-21T07:57:14.997Z</time>
      </trkpt>
      <trkpt lat="41.97880333" lon="2.86736">
        <ele>318.0</ele>
        <time>2021-08-21T07:57:16.004Z</time>
      </trkpt>
      <trkpt lat="41.97880333" lon="2.86736">
        <ele>318.0</ele>
        <time>2021-08-21T07:57:17.029Z</time>
      </trkpt>
      <trkpt lat="41.97880333" lon="2.86736">
        <ele>318.0</ele>
        <time>2021-08-21T07:57:18.006Z</time>
      </trkpt>
      <trkpt lat="41.97880333" lon="2.86736">
        <ele>318.0</ele>
        <time>2021-08-21T07:57:19.029Z</time>
      </trkpt>
      <trkpt lat="41.97880333" lon="2.86736">
        <ele>318.0</ele>
        <time>2021-08-21T07:57:20.007Z</time>
      </trkpt>
      <trkpt lat="41.97880333" lon="2.86736">
        <ele>318.0</ele>
        <time>2021-08-21T07:57:21.029Z</time>
      </trkpt>
      <trkpt lat="41.97880333" lon="2.86736">
        <ele>318.0</ele>
        <time>2021-08-21T07:57:21.996Z</time>
      </trkpt>
      <trkpt lat="41.97880333" lon="2.86736">
        <ele>318.0</ele>
        <time>2021-08-21T07:57:23.029Z</time>
      </trkpt>
      <trkpt lat="41.97880333" lon="2.86736">
        <ele>318.0</ele>
        <time>2021-08-21T07:57:24.009Z</time>
      </trkpt>
      <trkpt lat="41.97880333" lon="2.86736">
        <ele>318.0</ele>
        <time>2021-08-21T07:57:25.029Z</time>
      </trkpt>
      <trkpt lat="41.97880333" lon="2.86736">
        <ele>318.0</ele>
        <time>2021-08-21T07:57:26.006Z</time>
      </trkpt>
      <trkpt lat="41.97880333" lon="2.86736">
        <ele>318.0</ele>
        <time>2021-08-21T07:57:27.029Z</time>
      </trkpt>
      <trkpt lat="41.97880333" lon="2.86736">
        <ele>318.0</ele>
        <time>2021-08-21T07:57:28.005Z</time>
      </trkpt>
      <trkpt lat="41.97880333" lon="2.86736">
        <ele>318.0</ele>
        <time>2021-08-21T07:57:29.029Z</time>
      </trkpt>
      <trkpt lat="41.97880333" lon="2.86736">
        <ele>318.0</ele>
        <time>2021-08-21T07:57:30.006Z</time>
      </trkpt>
      <trkpt lat="41.97880333" lon="2.86736">
        <ele>318.0</ele>
        <time>2021-08-21T07:57:31.029Z</time>
      </trkpt>
      <trkpt lat="41.97880333" lon="2.86736">
        <ele>318.0</ele>
        <time>2021-08-21T07:57:32.007Z</time>
      </trkpt>
      <trkpt lat="41.97880333" lon="2.86736">
        <ele>318.0</ele>
        <time>2021-08-21T07:57:33.029Z</time>
      </trkpt>
      <trkpt lat="41.97880333" lon="2.86736">
        <ele>318.0</ele>
        <time>2021-08-21T07:57:34.006Z</time>
      </trkpt>
      <trkpt lat="41.97880333" lon="2.86736">
        <ele>318.0</ele>
        <time>2021-08-21T07:57:34.994Z</time>
      </trkpt>
      <trkpt lat="41.97880333" lon="2.86736">
        <ele>318.0</ele>
        <time>2021-08-21T07:57:36.010Z</time>
      </trkpt>
      <trkpt lat="41.97880333" lon="2.86736">
        <ele>318.0</ele>
        <time>2021-08-21T07:57:37.031Z</time>
      </trkpt>
      <trkpt lat="41.97880333" lon="2.86736">
        <ele>318.0</ele>
        <time>2021-08-21T07:57:38.007Z</time>
      </trkpt>
      <trkpt lat="41.97880333" lon="2.86736">
        <ele>318.0</ele>
        <time>2021-08-21T07:57:39.029Z</time>
      </trkpt>
      <trkpt lat="41.97880333" lon="2.86736">
        <ele>318.0</ele>
        <time>2021-08-21T07:57:40.007Z</time>
      </trkpt>
      <trkpt lat="41.97880333" lon="2.86736">
        <ele>318.0</ele>
        <time>2021-08-21T07:57:41.029Z</time>
      </trkpt>
      <trkpt lat="41.97880333" lon="2.86736">
        <ele>318.0</ele>
        <time>2021-08-21T07:57:42.006Z</time>
      </trkpt>
      <trkpt lat="41.97880333" lon="2.86736">
        <ele>318.0</ele>
        <time>2021-08-21T07:57:43.029Z</time>
      </trkpt>
      <trkpt lat="41.97880333" lon="2.86736">
        <ele>318.0</ele>
        <time>2021-08-21T07:57:44.006Z</time>
      </trkpt>
      <trkpt lat="41.97880333" lon="2.86736">
        <ele>318.0</ele>
        <time>2021-08-21T07:57:45.029Z</time>
      </trkpt>
      <trkpt lat="41.97880333" lon="2.86736">
        <ele>318.0</ele>
        <time>2021-08-21T07:57:46.006Z</time>
      </trkpt>
      <trkpt lat="41.97880333" lon="2.86736">
        <ele>318.0</ele>
        <time>2021-08-21T07:57:47.029Z</time>
      </trkpt>
      <trkpt lat="41.97880333" lon="2.86736">
        <ele>318.0</ele>
        <time>2021-08-21T07:57:48.006Z</time>
      </trkpt>
      <trkpt lat="41.97880333" lon="2.86736">
        <ele>318.0</ele>
        <time>2021-08-21T07:57:49.029Z</time>
      </trkpt>
      <trkpt lat="41.97880333" lon="2.86736">
        <ele>318.0</ele>
        <time>2021-08-21T07:57:50.005Z</time>
      </trkpt>
      <trkpt lat="41.97880333" lon="2.86736">
        <ele>318.0</ele>
        <time>2021-08-21T07:57:51.029Z</time>
      </trkpt>
      <trkpt lat="41.97880333" lon="2.86736">
        <ele>318.0</ele>
        <time>2021-08-21T07:57:52.006Z</time>
      </trkpt>
      <trkpt lat="41.97880333" lon="2.86736">
        <ele>318.0</ele>
        <time>2021-08-21T07:57:53.008Z</time>
      </trkpt>
      <trkpt lat="41.97880333" lon="2.86736">
        <ele>318.0</ele>
        <time>2021-08-21T07:57:53.993Z</time>
      </trkpt>
      <trkpt lat="41.97878167" lon="2.86737667">
        <ele>311.0</ele>
        <time>2021-08-21T07:57:54.995Z</time>
      </trkpt>
      <trkpt lat="41.97878333" lon="2.867395">
        <ele>311.0</ele>
        <time>2021-08-21T07:57:56.003Z</time>
      </trkpt>
      <trkpt lat="41.97878333" lon="2.867395">
        <ele>311.0</ele>
        <time>2021-08-21T07:57:57.026Z</time>
      </trkpt>
      <trkpt lat="41.97878167" lon="2.86745">
        <ele>311.0</ele>
        <time>2021-08-21T07:57:58.001Z</time>
      </trkpt>
      <trkpt lat="41.97878167" lon="2.86745">
        <ele>311.0</ele>
        <time>2021-08-21T07:57:59.006Z</time>
      </trkpt>
      <trkpt lat="41.97876667" lon="2.86746333">
        <ele>311.0</ele>
        <time>2021-08-21T07:58:00.004Z</time>
      </trkpt>
      <trkpt lat="41.97876667" lon="2.86746333">
        <ele>311.0</ele>
        <time>2021-08-21T07:58:01.028Z</time>
      </trkpt>
      <trkpt lat="41.97873833" lon="2.867455">
        <ele>311.0</ele>
        <time>2021-08-21T07:58:02.017Z</time>
      </trkpt>
      <trkpt lat="41.97873833" lon="2.867455">
        <ele>311.0</ele>
        <time>2021-08-21T07:58:03.003Z</time>
      </trkpt>
      <trkpt lat="41.97871" lon="2.86741333">
        <ele>311.0</ele>
        <time>2021-08-21T07:58:04.016Z</time>
      </trkpt>
      <trkpt lat="41.97871" lon="2.86741333">
        <ele>311.0</ele>
        <time>2021-08-21T07:58:04.992Z</time>
      </trkpt>
      <trkpt lat="41.978665" lon="2.86738833">
        <ele>311.0</ele>
        <time>2021-08-21T07:58:06.003Z</time>
      </trkpt>
      <trkpt lat="41.978665" lon="2.86738833">
        <ele>311.0</ele>
        <time>2021-08-21T07:58:07.021Z</time>
      </trkpt>
      <trkpt lat="41.97861833" lon="2.86736833">
        <ele>311.0</ele>
        <time>2021-08-21T07:58:08.001Z</time>
      </trkpt>
      <trkpt lat="41.97861833" lon="2.86736833">
        <ele>311.0</ele>
        <time>2021-08-21T07:58:09.023Z</time>
      </trkpt>
      <trkpt lat="41.97856667" lon="2.867355">
        <ele>311.0</ele>
        <time>2021-08-21T07:58:09.996Z</time>
      </trkpt>
      <trkpt lat="41.97856667" lon="2.867355">
        <ele>311.0</ele>
        <time>2021-08-21T07:58:11.021Z</time>
      </trkpt>
      <trkpt lat="41.97851833" lon="2.86733833">
        <ele>311.0</ele>
        <time>2021-08-21T07:58:11.995Z</time>
      </trkpt>
      <trkpt lat="41.97851833" lon="2.86733833">
        <ele>311.0</ele>
        <time>2021-08-21T07:58:13.023Z</time>
      </trkpt>
      <trkpt lat="41.97846833" lon="2.86732167">
        <ele>312.0</ele>
        <time>2021-08-21T07:58:14.010Z</time>
      </trkpt>
      <trkpt lat="41.97844333" lon="2.867315">
        <ele>312.0</ele>
        <time>2021-08-21T07:58:15.012Z</time>
      </trkpt>
      <trkpt lat="41.97844333" lon="2.867315">
        <ele>312.0</ele>
        <time>2021-08-21T07:58:16.002Z</time>
      </trkpt>
      <trkpt lat="41.978395" lon="2.86729667">
        <ele>312.0</ele>
        <time>2021-08-21T07:58:17.020Z</time>
      </trkpt>
      <trkpt lat="41.978395" lon="2.86729667">
        <ele>312.0</ele>
        <time>2021-08-21T07:58:17.999Z</time>
      </trkpt>
      <trkpt lat="41.97835167" lon="2.86727833">
        <ele>313.0</ele>
        <time>2021-08-21T07:58:19.018Z</time>
      </trkpt>
      <trkpt lat="41.97835167" lon="2.86727833">
        <ele>313.0</ele>
        <time>2021-08-21T07:58:20.018Z</time>
      </trkpt>
      <trkpt lat="41.97831667" lon="2.86725">
        <ele>313.0</ele>
        <time>2021-08-21T07:58:21.001Z</time>
      </trkpt>
      <trkpt lat="41.97831667" lon="2.86725">
        <ele>313.0</ele>
        <time>2021-08-21T07:58:22.009Z</time>
      </trkpt>
      <trkpt lat="41.97829167" lon="2.86722833">
        <ele>314.0</ele>
        <time>2021-08-21T07:58:23.005Z</time>
      </trkpt>
      <trkpt lat="41.97829167" lon="2.86722833">
        <ele>314.0</ele>
        <time>2021-08-21T07:58:24.027Z</time>
      </trkpt>
      <trkpt lat="41.978275" lon="2.86719833">
        <ele>314.0</ele>
        <time>2021-08-21T07:58:24.998Z</time>
      </trkpt>
      <trkpt lat="41.978275" lon="2.86719833">
        <ele>314.0</ele>
        <time>2021-08-21T07:58:26.025Z</time>
      </trkpt>
      <trkpt lat="41.97826" lon="2.86716333">
        <ele>315.0</ele>
        <time>2021-08-21T07:58:27.010Z</time>
      </trkpt>
      <trkpt lat="41.97826" lon="2.86716333">
        <ele>315.0</ele>
        <time>2021-08-21T07:58:28.026Z</time>
      </trkpt>
      <trkpt lat="41.97823" lon="2.867135">
        <ele>314.0</ele>
        <time>2021-08-21T07:58:29.015Z</time>
      </trkpt>
      <trkpt lat="41.97821167" lon="2.86714333">
        <ele>313.0</ele>
        <time>2021-08-21T07:58:29.999Z</time>
      </trkpt>
      <trkpt lat="41.97821167" lon="2.86714333">
        <ele>313.0</ele>
        <time>2021-08-21T07:58:31.002Z</time>
      </trkpt>
      <trkpt lat="41.97818167" lon="2.86717667">
        <ele>313.0</ele>
        <time>2021-08-21T07:58:32.015Z</time>
      </trkpt>
      <trkpt lat="41.97818167" lon="2.86717667">
        <ele>313.0</ele>
        <time>2021-08-21T07:58:32.993Z</time>
      </trkpt>
      <trkpt lat="41.97814" lon="2.86722833">
        <ele>312.0</ele>
        <time>2021-08-21T07:58:34.007Z</time>
      </trkpt>
      <trkpt lat="41.97814" lon="2.86722833">
        <ele>312.0</ele>
        <time>2021-08-21T07:58:35.005Z</time>
      </trkpt>
      <trkpt lat="41.97809" lon="2.867285">
        <ele>311.0</ele>
        <time>2021-08-21T07:58:36.021Z</time>
      </trkpt>
      <trkpt lat="41.97809" lon="2.867285">
        <ele>311.0</ele>
        <time>2021-08-21T07:58:37.029Z</time>
      </trkpt>
      <trkpt lat="41.97803667" lon="2.86734167">
        <ele>310.0</ele>
        <time>2021-08-21T07:58:38.004Z</time>
      </trkpt>
      <trkpt lat="41.97803667" lon="2.86734167">
        <ele>310.0</ele>
        <time>2021-08-21T07:58:38.996Z</time>
      </trkpt>
      <trkpt lat="41.977975" lon="2.86739167">
        <ele>309.0</ele>
        <time>2021-08-21T07:58:40.010Z</time>
      </trkpt>
      <trkpt lat="41.977975" lon="2.86739167">
        <ele>309.0</ele>
        <time>2021-08-21T07:58:41.003Z</time>
      </trkpt>
      <trkpt lat="41.97791333" lon="2.86744667">
        <ele>308.0</ele>
        <time>2021-08-21T07:58:42.019Z</time>
      </trkpt>
      <trkpt lat="41.97791333" lon="2.86744667">
        <ele>308.0</ele>
        <time>2021-08-21T07:58:43.026Z</time>
      </trkpt>
      <trkpt lat="41.97785167" lon="2.867485">
        <ele>307.0</ele>
        <time>2021-08-21T07:58:44.019Z</time>
      </trkpt>
      <trkpt lat="41.97785167" lon="2.867485">
        <ele>307.0</ele>
        <time>2021-08-21T07:58:45.002Z</time>
      </trkpt>
      <trkpt lat="41.977805" lon="2.86752333">
        <ele>306.0</ele>
        <time>2021-08-21T07:58:46.031Z</time>
      </trkpt>
      <trkpt lat="41.97777167" lon="2.86754167">
        <ele>305.0</ele>
        <time>2021-08-21T07:58:47.005Z</time>
      </trkpt>
      <trkpt lat="41.97777167" lon="2.86754167">
        <ele>305.0</ele>
        <time>2021-08-21T07:58:48.026Z</time>
      </trkpt>
      <trkpt lat="41.9777" lon="2.86754833">
        <ele>304.0</ele>
        <time>2021-08-21T07:58:49.000Z</time>
      </trkpt>
      <trkpt lat="41.9777" lon="2.86754833">
        <ele>304.0</ele>
        <time>2021-08-21T07:58:50.021Z</time>
      </trkpt>
      <trkpt lat="41.97762333" lon="2.86755">
        <ele>303.0</ele>
        <time>2021-08-21T07:58:50.993Z</time>
      </trkpt>
      <trkpt lat="41.97762333" lon="2.86755">
        <ele>303.0</ele>
        <time>2021-08-21T07:58:52.000Z</time>
      </trkpt>
      <trkpt lat="41.97754" lon="2.86753333">
        <ele>302.0</ele>
        <time>2021-08-21T07:58:53.016Z</time>
      </trkpt>
      <trkpt lat="41.977505" lon="2.86750833">
        <ele>301.0</ele>
        <time>2021-08-21T07:58:54.002Z</time>
      </trkpt>
      <trkpt lat="41.977505" lon="2.86750833">
        <ele>301.0</ele>
        <time>2021-08-21T07:58:55.027Z</time>
      </trkpt>
      <trkpt lat="41.97746333" lon="2.86744333">
        <ele>300.0</ele>
        <time>2021-08-21T07:58:55.994Z</time>
      </trkpt>
      <trkpt lat="41.97744667" lon="2.86741667">
        <ele>300.0</ele>
        <time>2021-08-21T07:58:56.996Z</time>
      </trkpt>
      <trkpt lat="41.97744667" lon="2.86741667">
        <ele>300.0</ele>
        <time>2021-08-21T07:58:58.010Z</time>
      </trkpt>
      <trkpt lat="41.97740333" lon="2.86740833">
        <ele>299.0</ele>
        <time>2021-08-21T07:58:59.020Z</time>
      </trkpt>
      <trkpt lat="41.977375" lon="2.86742">
        <ele>299.0</ele>
        <time>2021-08-21T07:59:00.010Z</time>
      </trkpt>
      <trkpt lat="41.977375" lon="2.86742">
        <ele>299.0</ele>
        <time>2021-08-21T07:59:00.997Z</time>
      </trkpt>
      <trkpt lat="41.97731667" lon="2.86743">
        <ele>298.0</ele>
        <time>2021-08-21T07:59:01.994Z</time>
      </trkpt>
      <trkpt lat="41.97731667" lon="2.86743">
        <ele>298.0</ele>
        <time>2021-08-21T07:59:02.996Z</time>
      </trkpt>
      <trkpt lat="41.97724" lon="2.86743833">
        <ele>297.0</ele>
        <time>2021-08-21T07:59:04.009Z</time>
      </trkpt>
      <trkpt lat="41.97724" lon="2.86743833">
        <ele>297.0</ele>
        <time>2021-08-21T07:59:04.995Z</time>
      </trkpt>
      <trkpt lat="41.97718667" lon="2.86739">
        <ele>297.0</ele>
        <time>2021-08-21T07:59:06.008Z</time>
      </trkpt>
      <trkpt lat="41.97718667" lon="2.86739">
        <ele>297.0</ele>
        <time>2021-08-21T07:59:07.024Z</time>
      </trkpt>
      <trkpt lat="41.97717667" lon="2.86727667">
        <ele>296.0</ele>
        <time>2021-08-21T07:59:07.994Z</time>
      </trkpt>
      <trkpt lat="41.97717667" lon="2.86727667">
        <ele>296.0</ele>
        <time>2021-08-21T07:59:09.007Z</time>
      </trkpt>
      <trkpt lat="41.97720833" lon="2.86714">
        <ele>295.0</ele>
        <time>2021-08-21T07:59:10.027Z</time>
      </trkpt>
      <trkpt lat="41.977235" lon="2.86708833">
        <ele>295.0</ele>
        <time>2021-08-21T07:59:11.016Z</time>
      </trkpt>
      <trkpt lat="41.97726333" lon="2.867055">
        <ele>294.0</ele>
        <time>2021-08-21T07:59:12.030Z</time>
      </trkpt>
      <trkpt lat="41.97726333" lon="2.867055">
        <ele>294.0</ele>
        <time>2021-08-21T07:59:13.001Z</time>
      </trkpt>
      <trkpt lat="41.97733833" lon="2.867025">
        <ele>294.0</ele>
        <time>2021-08-21T07:59:14.009Z</time>
      </trkpt>
      <trkpt lat="41.97733833" lon="2.867025">
        <ele>294.0</ele>
        <time>2021-08-21T07:59:14.996Z</time>
      </trkpt>
      <trkpt lat="41.97743333" lon="2.86704167">
        <ele>293.0</ele>
        <time>2021-08-21T07:59:16.002Z</time>
      </trkpt>
      <trkpt lat="41.97743333" lon="2.86704167">
        <ele>293.0</ele>
        <time>2021-08-21T07:59:17.018Z</time>
      </trkpt>
      <trkpt lat="41.97753833" lon="2.86700333">
        <ele>293.0</ele>
        <time>2021-08-21T07:59:18.027Z</time>
      </trkpt>
      <trkpt lat="41.97753833" lon="2.86700333">
        <ele>293.0</ele>
        <time>2021-08-21T07:59:19.000Z</time>
      </trkpt>
      <trkpt lat="41.97762833" lon="2.86691833">
        <ele>292.0</ele>
        <time>2021-08-21T07:59:20.014Z</time>
      </trkpt>
      <trkpt lat="41.97762833" lon="2.86691833">
        <ele>292.0</ele>
        <time>2021-08-21T07:59:21.021Z</time>
      </trkpt>
      <trkpt lat="41.97769167" lon="2.86681667">
        <ele>292.0</ele>
        <time>2021-08-21T07:59:22.031Z</time>
      </trkpt>
      <trkpt lat="41.97769167" lon="2.86681667">
        <ele>292.0</ele>
        <time>2021-08-21T07:59:23.031Z</time>
      </trkpt>
      <trkpt lat="41.977695" lon="2.86667667">
        <ele>292.0</ele>
        <time>2021-08-21T07:59:24.019Z</time>
      </trkpt>
      <trkpt lat="41.977695" lon="2.86667667">
        <ele>292.0</ele>
        <time>2021-08-21T07:59:25.001Z</time>
      </trkpt>
      <trkpt lat="41.977675" lon="2.86651667">
        <ele>292.0</ele>
        <time>2021-08-21T07:59:26.009Z</time>
      </trkpt>
      <trkpt lat="41.977675" lon="2.86651667">
        <ele>292.0</ele>
        <time>2021-08-21T07:59:27.020Z</time>
      </trkpt>
      <trkpt lat="41.97764333" lon="2.866345">
        <ele>292.0</ele>
        <time>2021-08-21T07:59:28.027Z</time>
      </trkpt>
      <trkpt lat="41.97764333" lon="2.866345">
        <ele>292.0</ele>
        <time>2021-08-21T07:59:28.996Z</time>
      </trkpt>
      <trkpt lat="41.977625" lon="2.86617833">
        <ele>291.0</ele>
        <time>2021-08-21T07:59:30.004Z</time>
      </trkpt>
      <trkpt lat="41.977625" lon="2.86617833">
        <ele>291.0</ele>
        <time>2021-08-21T07:59:31.023Z</time>
      </trkpt>
      <trkpt lat="41.97761333" lon="2.86604">
        <ele>290.0</ele>
        <time>2021-08-21T07:59:32.013Z</time>
      </trkpt>
      <trkpt lat="41.97761333" lon="2.86604">
        <ele>290.0</ele>
        <time>2021-08-21T07:59:32.997Z</time>
      </trkpt>
      <trkpt lat="41.97762167" lon="2.86590333">
        <ele>289.0</ele>
        <time>2021-08-21T07:59:34.010Z</time>
      </trkpt>
      <trkpt lat="41.97762167" lon="2.86590333">
        <ele>289.0</ele>
        <time>2021-08-21T07:59:34.996Z</time>
      </trkpt>
      <trkpt lat="41.97759833" lon="2.86577833">
        <ele>288.0</ele>
        <time>2021-08-21T07:59:36.002Z</time>
      </trkpt>
      <trkpt lat="41.97759833" lon="2.86577833">
        <ele>288.0</ele>
        <time>2021-08-21T07:59:37.025Z</time>
      </trkpt>
      <trkpt lat="41.97751833" lon="2.865675">
        <ele>288.0</ele>
        <time>2021-08-21T07:59:37.995Z</time>
      </trkpt>
      <trkpt lat="41.97751833" lon="2.865675">
        <ele>288.0</ele>
        <time>2021-08-21T07:59:39.008Z</time>
      </trkpt>
      <trkpt lat="41.97743167" lon="2.86558833">
        <ele>286.0</ele>
        <time>2021-08-21T07:59:40.024Z</time>
      </trkpt>
      <trkpt lat="41.97743167" lon="2.86558833">
        <ele>286.0</ele>
        <time>2021-08-21T07:59:41.002Z</time>
      </trkpt>
      <trkpt lat="41.977345" lon="2.86550333">
        <ele>285.0</ele>
        <time>2021-08-21T07:59:42.012Z</time>
      </trkpt>
      <trkpt lat="41.977345" lon="2.86550333">
        <ele>285.0</ele>
        <time>2021-08-21T07:59:43.018Z</time>
      </trkpt>
      <trkpt lat="41.97727667" lon="2.86537333">
        <ele>283.0</ele>
        <time>2021-08-21T07:59:44.012Z</time>
      </trkpt>
      <trkpt lat="41.97727667" lon="2.86537333">
        <ele>283.0</ele>
        <time>2021-08-21T07:59:44.998Z</time>
      </trkpt>
      <trkpt lat="41.97725333" lon="2.86523833">
        <ele>281.0</ele>
        <time>2021-08-21T07:59:46.020Z</time>
      </trkpt>
      <trkpt lat="41.97725333" lon="2.86523833">
        <ele>281.0</ele>
        <time>2021-08-21T07:59:47.031Z</time>
      </trkpt>
      <trkpt lat="41.97723333" lon="2.865105">
        <ele>280.0</ele>
        <time>2021-08-21T07:59:47.992Z</time>
      </trkpt>
      <trkpt lat="41.97723333" lon="2.865105">
        <ele>280.0</ele>
        <time>2021-08-21T07:59:49.000Z</time>
      </trkpt>
      <trkpt lat="41.977175" lon="2.86505333">
        <ele>278.0</ele>
        <time>2021-08-21T07:59:50.029Z</time>
      </trkpt>
      <trkpt lat="41.977175" lon="2.86505333">
        <ele>278.0</ele>
        <time>2021-08-21T07:59:50.995Z</time>
      </trkpt>
      <trkpt lat="41.97712167" lon="2.86507333">
        <ele>277.0</ele>
        <time>2021-08-21T07:59:52.006Z</time>
      </trkpt>
      <trkpt lat="41.97712167" lon="2.86507333">
        <ele>277.0</ele>
        <time>2021-08-21T07:59:53.020Z</time>
      </trkpt>
      <trkpt lat="41.97708833" lon="2.86514167">
        <ele>275.0</ele>
        <time>2021-08-21T07:59:54.016Z</time>
      </trkpt>
      <trkpt lat="41.97708833" lon="2.86514167">
        <ele>275.0</ele>
        <time>2021-08-21T07:59:54.995Z</time>
      </trkpt>
      <trkpt lat="41.97708667" lon="2.86524167">
        <ele>274.0</ele>
        <time>2021-08-21T07:59:56.002Z</time>
      </trkpt>
      <trkpt lat="41.97708667" lon="2.86524167">
        <ele>274.0</ele>
        <time>2021-08-21T07:59:57.010Z</time>
      </trkpt>
      <trkpt lat="41.97710833" lon="2.86535833">
        <ele>273.0</ele>
        <time>2021-08-21T07:59:57.992Z</time>
      </trkpt>
      <trkpt lat="41.97710833" lon="2.86535833">
        <ele>273.0</ele>
        <time>2021-08-21T07:59:59.018Z</time>
      </trkpt>
      <trkpt lat="41.97716667" lon="2.86549833">
        <ele>272.0</ele>
        <time>2021-08-21T08:00:00.028Z</time>
      </trkpt>
      <trkpt lat="41.97719667" lon="2.86557">
        <ele>272.0</ele>
        <time>2021-08-21T08:00:01.005Z</time>
      </trkpt>
      <trkpt lat="41.97719667" lon="2.86557">
        <ele>272.0</ele>
        <time>2021-08-21T08:00:02.009Z</time>
      </trkpt>
      <trkpt lat="41.97726333" lon="2.86572167">
        <ele>270.0</ele>
        <time>2021-08-21T08:00:03.021Z</time>
      </trkpt>
      <trkpt lat="41.97726333" lon="2.86572167">
        <ele>270.0</ele>
        <time>2021-08-21T08:00:03.993Z</time>
      </trkpt>
      <trkpt lat="41.97731333" lon="2.86587833">
        <ele>269.0</ele>
        <time>2021-08-21T08:00:05.000Z</time>
      </trkpt>
      <trkpt lat="41.97732333" lon="2.86595667">
        <ele>269.0</ele>
        <time>2021-08-21T08:00:06.025Z</time>
      </trkpt>
      <trkpt lat="41.97732333" lon="2.86595667">
        <ele>269.0</ele>
        <time>2021-08-21T08:00:07.015Z</time>
      </trkpt>
      <trkpt lat="41.97732667" lon="2.86612667">
        <ele>267.0</ele>
        <time>2021-08-21T08:00:08.021Z</time>
      </trkpt>
      <trkpt lat="41.97732667" lon="2.86612667">
        <ele>267.0</ele>
        <time>2021-08-21T08:00:08.994Z</time>
      </trkpt>
      <trkpt lat="41.97731167" lon="2.86626667">
        <ele>266.0</ele>
        <time>2021-08-21T08:00:10.019Z</time>
      </trkpt>
      <trkpt lat="41.97731167" lon="2.86626667">
        <ele>266.0</ele>
        <time>2021-08-21T08:00:11.022Z</time>
      </trkpt>
      <trkpt lat="41.97724833" lon="2.86633833">
        <ele>266.0</ele>
        <time>2021-08-21T08:00:12.030Z</time>
      </trkpt>
      <trkpt lat="41.97724833" lon="2.86633833">
        <ele>266.0</ele>
        <time>2021-08-21T08:00:13.003Z</time>
      </trkpt>
      <trkpt lat="41.977155" lon="2.86635667">
        <ele>265.0</ele>
        <time>2021-08-21T08:00:14.025Z</time>
      </trkpt>
      <trkpt lat="41.977155" lon="2.86635667">
        <ele>265.0</ele>
        <time>2021-08-21T08:00:15.006Z</time>
      </trkpt>
      <trkpt lat="41.977055" lon="2.86638">
        <ele>264.0</ele>
        <time>2021-08-21T08:00:16.017Z</time>
      </trkpt>
      <trkpt lat="41.977055" lon="2.86638">
        <ele>264.0</ele>
        <time>2021-08-21T08:00:17.025Z</time>
      </trkpt>
      <trkpt lat="41.97695667" lon="2.86643667">
        <ele>263.0</ele>
        <time>2021-08-21T08:00:18.025Z</time>
      </trkpt>
      <trkpt lat="41.97695667" lon="2.86643667">
        <ele>263.0</ele>
        <time>2021-08-21T08:00:19.015Z</time>
      </trkpt>
      <trkpt lat="41.97686667" lon="2.86651">
        <ele>263.0</ele>
        <time>2021-08-21T08:00:20.031Z</time>
      </trkpt>
      <trkpt lat="41.97686667" lon="2.86651">
        <ele>263.0</ele>
        <time>2021-08-21T08:00:21.003Z</time>
      </trkpt>
      <trkpt lat="41.97676667" lon="2.866515">
        <ele>262.0</ele>
        <time>2021-08-21T08:00:21.992Z</time>
      </trkpt>
      <trkpt lat="41.97676667" lon="2.866515">
        <ele>262.0</ele>
        <time>2021-08-21T08:00:23.022Z</time>
      </trkpt>
      <trkpt lat="41.97667833" lon="2.86643333">
        <ele>262.0</ele>
        <time>2021-08-21T08:00:23.994Z</time>
      </trkpt>
      <trkpt lat="41.97667833" lon="2.86643333">
        <ele>262.0</ele>
        <time>2021-08-21T08:00:25.008Z</time>
      </trkpt>
      <trkpt lat="41.97658333" lon="2.86635833">
        <ele>261.0</ele>
        <time>2021-08-21T08:00:26.015Z</time>
      </trkpt>
      <trkpt lat="41.97658333" lon="2.86635833">
        <ele>261.0</ele>
        <time>2021-08-21T08:00:27.027Z</time>
      </trkpt>
      <trkpt lat="41.97646667" lon="2.86630667">
        <ele>261.0</ele>
        <time>2021-08-21T08:00:28.013Z</time>
      </trkpt>
      <trkpt lat="41.97646667" lon="2.86630667">
        <ele>261.0</ele>
        <time>2021-08-21T08:00:29.026Z</time>
      </trkpt>
      <trkpt lat="41.97634833" lon="2.86624167">
        <ele>260.0</ele>
        <time>2021-08-21T08:00:29.992Z</time>
      </trkpt>
      <trkpt lat="41.97634833" lon="2.86624167">
        <ele>260.0</ele>
        <time>2021-08-21T08:00:31.005Z</time>
      </trkpt>
      <trkpt lat="41.97623" lon="2.86617333">
        <ele>260.0</ele>
        <time>2021-08-21T08:00:32.011Z</time>
      </trkpt>
      <trkpt lat="41.97623" lon="2.86617333">
        <ele>260.0</ele>
        <time>2021-08-21T08:00:32.993Z</time>
      </trkpt>
      <trkpt lat="41.97611167" lon="2.86611833">
        <ele>259.0</ele>
        <time>2021-08-21T08:00:34.016Z</time>
      </trkpt>
      <trkpt lat="41.97605167" lon="2.86609">
        <ele>259.0</ele>
        <time>2021-08-21T08:00:34.998Z</time>
      </trkpt>
      <trkpt lat="41.97599667" lon="2.86607333">
        <ele>259.0</ele>
        <time>2021-08-21T08:00:36.018Z</time>
      </trkpt>
      <trkpt lat="41.97599667" lon="2.86607333">
        <ele>259.0</ele>
        <time>2021-08-21T08:00:37.030Z</time>
      </trkpt>
      <trkpt lat="41.975905" lon="2.866065">
        <ele>259.0</ele>
        <time>2021-08-21T08:00:38.004Z</time>
      </trkpt>
      <trkpt lat="41.975905" lon="2.866065">
        <ele>259.0</ele>
        <time>2021-08-21T08:00:39.022Z</time>
      </trkpt>
      <trkpt lat="41.97581333" lon="2.86610833">
        <ele>259.0</ele>
        <time>2021-08-21T08:00:40.029Z</time>
      </trkpt>
      <trkpt lat="41.97577167" lon="2.866145">
        <ele>259.0</ele>
        <time>2021-08-21T08:00:41.025Z</time>
      </trkpt>
      <trkpt lat="41.97577167" lon="2.866145">
        <ele>259.0</ele>
        <time>2021-08-21T08:00:42.006Z</time>
      </trkpt>
      <trkpt lat="41.975705" lon="2.86626167">
        <ele>259.0</ele>
        <time>2021-08-21T08:00:42.994Z</time>
      </trkpt>
      <trkpt lat="41.975705" lon="2.86626167">
        <ele>259.0</ele>
        <time>2021-08-21T08:00:44.008Z</time>
      </trkpt>
      <trkpt lat="41.97564" lon="2.866385">
        <ele>258.0</ele>
        <time>2021-08-21T08:00:45.025Z</time>
      </trkpt>
      <trkpt lat="41.97560167" lon="2.86644">
        <ele>258.0</ele>
        <time>2021-08-21T08:00:45.999Z</time>
      </trkpt>
      <trkpt lat="41.97560167" lon="2.86644">
        <ele>258.0</ele>
        <time>2021-08-21T08:00:47.007Z</time>
      </trkpt>
      <trkpt lat="41.97550167" lon="2.86652">
        <ele>258.0</ele>
        <time>2021-08-21T08:00:48.028Z</time>
      </trkpt>
      <trkpt lat="41.97550167" lon="2.86652">
        <ele>258.0</ele>
        <time>2021-08-21T08:00:49.001Z</time>
      </trkpt>
      <trkpt lat="41.97539833" lon="2.86652">
        <ele>257.0</ele>
        <time>2021-08-21T08:00:50.025Z</time>
      </trkpt>
      <trkpt lat="41.97539833" lon="2.86652">
        <ele>257.0</ele>
        <time>2021-08-21T08:00:51.021Z</time>
      </trkpt>
      <trkpt lat="41.9753" lon="2.8665">
        <ele>257.0</ele>
        <time>2021-08-21T08:00:52.030Z</time>
      </trkpt>
      <trkpt lat="41.9753" lon="2.8665">
        <ele>257.0</ele>
        <time>2021-08-21T08:00:52.996Z</time>
      </trkpt>
      <trkpt lat="41.97517333" lon="2.86647833">
        <ele>257.0</ele>
        <time>2021-08-21T08:00:54.029Z</time>
      </trkpt>
      <trkpt lat="41.97517333" lon="2.86647833">
        <ele>257.0</ele>
        <time>2021-08-21T08:00:54.995Z</time>
      </trkpt>
      <trkpt lat="41.97505" lon="2.86646">
        <ele>257.0</ele>
        <time>2021-08-21T08:00:56.016Z</time>
      </trkpt>
      <trkpt lat="41.97505" lon="2.86646">
        <ele>257.0</ele>
        <time>2021-08-21T08:00:57.029Z</time>
      </trkpt>
      <trkpt lat="41.974925" lon="2.866445">
        <ele>256.0</ele>
        <time>2021-08-21T08:00:58.023Z</time>
      </trkpt>
      <trkpt lat="41.974925" lon="2.866445">
        <ele>256.0</ele>
        <time>2021-08-21T08:00:59.026Z</time>
      </trkpt>
      <trkpt lat="41.97479667" lon="2.866455">
        <ele>256.0</ele>
        <time>2021-08-21T08:01:00.005Z</time>
      </trkpt>
      <trkpt lat="41.97479667" lon="2.866455">
        <ele>256.0</ele>
        <time>2021-08-21T08:01:01.018Z</time>
      </trkpt>
      <trkpt lat="41.97468" lon="2.866495">
        <ele>255.0</ele>
        <time>2021-08-21T08:01:02.014Z</time>
      </trkpt>
      <trkpt lat="41.97468" lon="2.866495">
        <ele>255.0</ele>
        <time>2021-08-21T08:01:03.009Z</time>
      </trkpt>
      <trkpt lat="41.974565" lon="2.86653833">
        <ele>255.0</ele>
        <time>2021-08-21T08:01:04.018Z</time>
      </trkpt>
      <trkpt lat="41.97450833" lon="2.86655">
        <ele>255.0</ele>
        <time>2021-08-21T08:01:05.001Z</time>
      </trkpt>
      <trkpt lat="41.97450833" lon="2.86655">
        <ele>255.0</ele>
        <time>2021-08-21T08:01:06.026Z</time>
      </trkpt>
      <trkpt lat="41.97439833" lon="2.86654167">
        <ele>255.0</ele>
        <time>2021-08-21T08:01:06.995Z</time>
      </trkpt>
      <trkpt lat="41.97439833" lon="2.86654167">
        <ele>255.0</ele>
        <time>2021-08-21T08:01:08.007Z</time>
      </trkpt>
      <trkpt lat="41.97434833" lon="2.86648167">
        <ele>254.0</ele>
        <time>2021-08-21T08:01:09.011Z</time>
      </trkpt>
      <trkpt lat="41.97434833" lon="2.86648167">
        <ele>254.0</ele>
        <time>2021-08-21T08:01:09.997Z</time>
      </trkpt>
      <trkpt lat="41.97434667" lon="2.86638833">
        <ele>254.0</ele>
        <time>2021-08-21T08:01:11.001Z</time>
      </trkpt>
      <trkpt lat="41.97434667" lon="2.86638833">
        <ele>254.0</ele>
        <time>2021-08-21T08:01:12.015Z</time>
      </trkpt>
      <trkpt lat="41.97438833" lon="2.86625667">
        <ele>254.0</ele>
        <time>2021-08-21T08:01:13.028Z</time>
      </trkpt>
      <trkpt lat="41.97438833" lon="2.86625667">
        <ele>254.0</ele>
        <time>2021-08-21T08:01:13.993Z</time>
      </trkpt>
      <trkpt lat="41.97444" lon="2.86611">
        <ele>253.0</ele>
        <time>2021-08-21T08:01:15.009Z</time>
      </trkpt>
      <trkpt lat="41.97444" lon="2.86611">
        <ele>253.0</ele>
        <time>2021-08-21T08:01:16.027Z</time>
      </trkpt>
      <trkpt lat="41.97450167" lon="2.865975">
        <ele>253.0</ele>
        <time>2021-08-21T08:01:16.996Z</time>
      </trkpt>
      <trkpt lat="41.97453667" lon="2.86590667">
        <ele>253.0</ele>
        <time>2021-08-21T08:01:18.009Z</time>
      </trkpt>
      <trkpt lat="41.97453667" lon="2.86590667">
        <ele>253.0</ele>
        <time>2021-08-21T08:01:19.026Z</time>
      </trkpt>
      <trkpt lat="41.974565" lon="2.86575833">
        <ele>252.0</ele>
        <time>2021-08-21T08:01:20.005Z</time>
      </trkpt>
      <trkpt lat="41.974565" lon="2.86575833">
        <ele>252.0</ele>
        <time>2021-08-21T08:01:21.013Z</time>
      </trkpt>
      <trkpt lat="41.97452" lon="2.86561333">
        <ele>251.0</ele>
        <time>2021-08-21T08:01:22.004Z</time>
      </trkpt>
      <trkpt lat="41.97452" lon="2.86561333">
        <ele>251.0</ele>
        <time>2021-08-21T08:01:23.026Z</time>
      </trkpt>
      <trkpt lat="41.974435" lon="2.86550333">
        <ele>251.0</ele>
        <time>2021-08-21T08:01:24.006Z</time>
      </trkpt>
      <trkpt lat="41.974435" lon="2.86550333">
        <ele>251.0</ele>
        <time>2021-08-21T08:01:25.026Z</time>
      </trkpt>
      <trkpt lat="41.974375" lon="2.86539167">
        <ele>251.0</ele>
        <time>2021-08-21T08:01:26.014Z</time>
      </trkpt>
      <trkpt lat="41.974375" lon="2.86539167">
        <ele>251.0</ele>
        <time>2021-08-21T08:01:26.998Z</time>
      </trkpt>
      <trkpt lat="41.97437333" lon="2.86525667">
        <ele>250.0</ele>
        <time>2021-08-21T08:01:28.010Z</time>
      </trkpt>
      <trkpt lat="41.97437333" lon="2.86525667">
        <ele>250.0</ele>
        <time>2021-08-21T08:01:29.023Z</time>
      </trkpt>
      <trkpt lat="41.97438" lon="2.86511">
        <ele>250.0</ele>
        <time>2021-08-21T08:01:30.013Z</time>
      </trkpt>
      <trkpt lat="41.97438" lon="2.86511">
        <ele>250.0</ele>
        <time>2021-08-21T08:01:31.003Z</time>
      </trkpt>
      <trkpt lat="41.97442833" lon="2.86499">
        <ele>250.0</ele>
        <time>2021-08-21T08:01:32.020Z</time>
      </trkpt>
      <trkpt lat="41.97442833" lon="2.86499">
        <ele>250.0</ele>
        <time>2021-08-21T08:01:32.993Z</time>
      </trkpt>
      <trkpt lat="41.97451167" lon="2.86491">
        <ele>250.0</ele>
        <time>2021-08-21T08:01:34.013Z</time>
      </trkpt>
      <trkpt lat="41.97451167" lon="2.86491">
        <ele>250.0</ele>
        <time>2021-08-21T08:01:34.997Z</time>
      </trkpt>
      <trkpt lat="41.97460167" lon="2.864835">
        <ele>250.0</ele>
        <time>2021-08-21T08:01:36.003Z</time>
      </trkpt>
      <trkpt lat="41.97460167" lon="2.864835">
        <ele>250.0</ele>
        <time>2021-08-21T08:01:37.026Z</time>
      </trkpt>
      <trkpt lat="41.974675" lon="2.86472167">
        <ele>251.0</ele>
        <time>2021-08-21T08:01:38.015Z</time>
      </trkpt>
      <trkpt lat="41.974675" lon="2.86472167">
        <ele>251.0</ele>
        <time>2021-08-21T08:01:38.997Z</time>
      </trkpt>
      <trkpt lat="41.974725" lon="2.86459167">
        <ele>251.0</ele>
        <time>2021-08-21T08:01:40.009Z</time>
      </trkpt>
      <trkpt lat="41.974725" lon="2.86459167">
        <ele>251.0</ele>
        <time>2021-08-21T08:01:41.022Z</time>
      </trkpt>
      <trkpt lat="41.97477333" lon="2.864455">
        <ele>251.0</ele>
        <time>2021-08-21T08:01:41.994Z</time>
      </trkpt>
      <trkpt lat="41.97477333" lon="2.864455">
        <ele>251.0</ele>
        <time>2021-08-21T08:01:42.996Z</time>
      </trkpt>
      <trkpt lat="41.97481667" lon="2.864325">
        <ele>251.0</ele>
        <time>2021-08-21T08:01:44.007Z</time>
      </trkpt>
      <trkpt lat="41.97481667" lon="2.864325">
        <ele>251.0</ele>
        <time>2021-08-21T08:01:45.023Z</time>
      </trkpt>
      <trkpt lat="41.97485167" lon="2.86419833">
        <ele>251.0</ele>
        <time>2021-08-21T08:01:46.013Z</time>
      </trkpt>
      <trkpt lat="41.97485167" lon="2.86419833">
        <ele>251.0</ele>
        <time>2021-08-21T08:01:47.008Z</time>
      </trkpt>
      <trkpt lat="41.97486333" lon="2.86407833">
        <ele>251.0</ele>
        <time>2021-08-21T08:01:48.015Z</time>
      </trkpt>
      <trkpt lat="41.97486333" lon="2.86407833">
        <ele>251.0</ele>
        <time>2021-08-21T08:01:49.028Z</time>
      </trkpt>
      <trkpt lat="41.97482667" lon="2.86394833">
        <ele>250.0</ele>
        <time>2021-08-21T08:01:50.013Z</time>
      </trkpt>
      <trkpt lat="41.97482667" lon="2.86394833">
        <ele>250.0</ele>
        <time>2021-08-21T08:01:51.030Z</time>
      </trkpt>
      <trkpt lat="41.97477" lon="2.86381167">
        <ele>250.0</ele>
        <time>2021-08-21T08:01:52.002Z</time>
      </trkpt>
      <trkpt lat="41.97474" lon="2.86374667">
        <ele>250.0</ele>
        <time>2021-08-21T08:01:53.013Z</time>
      </trkpt>
      <trkpt lat="41.97474" lon="2.86374667">
        <ele>250.0</ele>
        <time>2021-08-21T08:01:54.000Z</time>
      </trkpt>
      <trkpt lat="41.97467833" lon="2.86361667">
        <ele>250.0</ele>
        <time>2021-08-21T08:01:55.092Z</time>
      </trkpt>
      <trkpt lat="41.97467833" lon="2.86361667">
        <ele>250.0</ele>
        <time>2021-08-21T08:01:56.031Z</time>
      </trkpt>
      <trkpt lat="41.97461333" lon="2.86349167">
        <ele>249.0</ele>
        <time>2021-08-21T08:01:57.006Z</time>
      </trkpt>
      <trkpt lat="41.97461333" lon="2.86349167">
        <ele>249.0</ele>
        <time>2021-08-21T08:01:57.995Z</time>
      </trkpt>
      <trkpt lat="41.974555" lon="2.86336333">
        <ele>249.0</ele>
        <time>2021-08-21T08:01:59.004Z</time>
      </trkpt>
      <trkpt lat="41.97453" lon="2.86330167">
        <ele>249.0</ele>
        <time>2021-08-21T08:02:00.002Z</time>
      </trkpt>
      <trkpt lat="41.97453" lon="2.86330167">
        <ele>249.0</ele>
        <time>2021-08-21T08:02:01.016Z</time>
      </trkpt>
      <trkpt lat="41.974485" lon="2.86318833">
        <ele>249.0</ele>
        <time>2021-08-21T08:02:02.093Z</time>
      </trkpt>
      <trkpt lat="41.974485" lon="2.86318833">
        <ele>249.0</ele>
        <time>2021-08-21T08:02:03.013Z</time>
      </trkpt>
      <trkpt lat="41.974465" lon="2.863075">
        <ele>249.0</ele>
        <time>2021-08-21T08:02:04.025Z</time>
      </trkpt>
      <trkpt lat="41.974465" lon="2.863075">
        <ele>249.0</ele>
        <time>2021-08-21T08:02:05.010Z</time>
      </trkpt>
      <trkpt lat="41.974505" lon="2.86295167">
        <ele>249.0</ele>
        <time>2021-08-21T08:02:06.026Z</time>
      </trkpt>
      <trkpt lat="41.974505" lon="2.86295167">
        <ele>249.0</ele>
        <time>2021-08-21T08:02:07.024Z</time>
      </trkpt>
      <trkpt lat="41.97456167" lon="2.862845">
        <ele>249.0</ele>
        <time>2021-08-21T08:02:07.995Z</time>
      </trkpt>
      <trkpt lat="41.974595" lon="2.862805">
        <ele>248.0</ele>
        <time>2021-08-21T08:02:09.019Z</time>
      </trkpt>
      <trkpt lat="41.974595" lon="2.862805">
        <ele>248.0</ele>
        <time>2021-08-21T08:02:10.005Z</time>
      </trkpt>
      <trkpt lat="41.97466833" lon="2.86277667">
        <ele>249.0</ele>
        <time>2021-08-21T08:02:11.023Z</time>
      </trkpt>
      <trkpt lat="41.97471167" lon="2.86277333">
        <ele>249.0</ele>
        <time>2021-08-21T08:02:12.014Z</time>
      </trkpt>
      <trkpt lat="41.97471167" lon="2.86277333">
        <ele>249.0</ele>
        <time>2021-08-21T08:02:13.022Z</time>
      </trkpt>
      <trkpt lat="41.97479833" lon="2.86277167">
        <ele>249.0</ele>
        <time>2021-08-21T08:02:14.007Z</time>
      </trkpt>
      <trkpt lat="41.97479833" lon="2.86277167">
        <ele>249.0</ele>
        <time>2021-08-21T08:02:15.011Z</time>
      </trkpt>
      <trkpt lat="41.97489" lon="2.86277">
        <ele>250.0</ele>
        <time>2021-08-21T08:02:15.992Z</time>
      </trkpt>
      <trkpt lat="41.97493667" lon="2.86276167">
        <ele>250.0</ele>
        <time>2021-08-21T08:02:17.023Z</time>
      </trkpt>
      <trkpt lat="41.97498833" lon="2.86275">
        <ele>251.0</ele>
        <time>2021-08-21T08:02:18.017Z</time>
      </trkpt>
      <trkpt lat="41.97498833" lon="2.86275">
        <ele>251.0</ele>
        <time>2021-08-21T08:02:19.007Z</time>
      </trkpt>
      <trkpt lat="41.975075" lon="2.86269667">
        <ele>252.0</ele>
        <time>2021-08-21T08:02:19.995Z</time>
      </trkpt>
      <trkpt lat="41.97510833" lon="2.86265833">
        <ele>252.0</ele>
        <time>2021-08-21T08:02:21.030Z</time>
      </trkpt>
      <trkpt lat="41.97510833" lon="2.86265833">
        <ele>252.0</ele>
        <time>2021-08-21T08:02:22.008Z</time>
      </trkpt>
      <trkpt lat="41.97516" lon="2.86256333">
        <ele>253.0</ele>
        <time>2021-08-21T08:02:23.017Z</time>
      </trkpt>
      <trkpt lat="41.97518333" lon="2.86251333">
        <ele>254.0</ele>
        <time>2021-08-21T08:02:24.015Z</time>
      </trkpt>
      <trkpt lat="41.97518333" lon="2.86251333">
        <ele>254.0</ele>
        <time>2021-08-21T08:02:25.018Z</time>
      </trkpt>
      <trkpt lat="41.97522833" lon="2.86241333">
        <ele>254.0</ele>
        <time>2021-08-21T08:02:26.001Z</time>
      </trkpt>
      <trkpt lat="41.97522833" lon="2.86241333">
        <ele>254.0</ele>
        <time>2021-08-21T08:02:27.028Z</time>
      </trkpt>
      <trkpt lat="41.975275" lon="2.862325">
        <ele>255.0</ele>
        <time>2021-08-21T08:02:28.008Z</time>
      </trkpt>
      <trkpt lat="41.975275" lon="2.862325">
        <ele>255.0</ele>
        <time>2021-08-21T08:02:29.017Z</time>
      </trkpt>
      <trkpt lat="41.97535" lon="2.86225333">
        <ele>255.0</ele>
        <time>2021-08-21T08:02:29.992Z</time>
      </trkpt>
      <trkpt lat="41.97535" lon="2.86225333">
        <ele>255.0</ele>
        <time>2021-08-21T08:02:31.023Z</time>
      </trkpt>
      <trkpt lat="41.97543167" lon="2.86219667">
        <ele>256.0</ele>
        <time>2021-08-21T08:02:32.002Z</time>
      </trkpt>
      <trkpt lat="41.97543167" lon="2.86219667">
        <ele>256.0</ele>
        <time>2021-08-21T08:02:33.021Z</time>
      </trkpt>
      <trkpt lat="41.97549667" lon="2.86211333">
        <ele>256.0</ele>
        <time>2021-08-21T08:02:34.002Z</time>
      </trkpt>
      <trkpt lat="41.97549667" lon="2.86211333">
        <ele>256.0</ele>
        <time>2021-08-21T08:02:35.001Z</time>
      </trkpt>
      <trkpt lat="41.97554333" lon="2.862015">
        <ele>257.0</ele>
        <time>2021-08-21T08:02:36.015Z</time>
      </trkpt>
      <trkpt lat="41.97554333" lon="2.862015">
        <ele>257.0</ele>
        <time>2021-08-21T08:02:37.023Z</time>
      </trkpt>
      <trkpt lat="41.975565" lon="2.86191833">
        <ele>257.0</ele>
        <time>2021-08-21T08:02:38.000Z</time>
      </trkpt>
      <trkpt lat="41.975565" lon="2.86191833">
        <ele>257.0</ele>
        <time>2021-08-21T08:02:39.025Z</time>
      </trkpt>
      <trkpt lat="41.97556" lon="2.86183333">
        <ele>257.0</ele>
        <time>2021-08-21T08:02:40.012Z</time>
      </trkpt>
      <trkpt lat="41.97555333" lon="2.86180333">
        <ele>257.0</ele>
        <time>2021-08-21T08:02:41.022Z</time>
      </trkpt>
      <trkpt lat="41.97554167" lon="2.86176167">
        <ele>257.0</ele>
        <time>2021-08-21T08:02:42.020Z</time>
      </trkpt>
      <trkpt lat="41.97554167" lon="2.86176167">
        <ele>257.0</ele>
        <time>2021-08-21T08:02:43.013Z</time>
      </trkpt>
      <trkpt lat="41.97551" lon="2.86166833">
        <ele>257.0</ele>
        <time>2021-08-21T08:02:44.014Z</time>
      </trkpt>
      <trkpt lat="41.97551" lon="2.86166833">
        <ele>257.0</ele>
        <time>2021-08-21T08:02:45.029Z</time>
      </trkpt>
      <trkpt lat="41.97546833" lon="2.86157667">
        <ele>257.0</ele>
        <time>2021-08-21T08:02:46.001Z</time>
      </trkpt>
      <trkpt lat="41.97546833" lon="2.86157667">
        <ele>257.0</ele>
        <time>2021-08-21T08:02:47.029Z</time>
      </trkpt>
      <trkpt lat="41.975415" lon="2.86149">
        <ele>257.0</ele>
        <time>2021-08-21T08:02:47.998Z</time>
      </trkpt>
      <trkpt lat="41.975415" lon="2.86149">
        <ele>257.0</ele>
        <time>2021-08-21T08:02:49.027Z</time>
      </trkpt>
      <trkpt lat="41.97535333" lon="2.86140667">
        <ele>258.0</ele>
        <time>2021-08-21T08:02:49.997Z</time>
      </trkpt>
      <trkpt lat="41.97535333" lon="2.86140667">
        <ele>258.0</ele>
        <time>2021-08-21T08:02:50.996Z</time>
      </trkpt>
      <trkpt lat="41.97530167" lon="2.86133167">
        <ele>258.0</ele>
        <time>2021-08-21T08:02:52.021Z</time>
      </trkpt>
      <trkpt lat="41.97530167" lon="2.86133167">
        <ele>258.0</ele>
        <time>2021-08-21T08:02:53.013Z</time>
      </trkpt>
      <trkpt lat="41.975255" lon="2.86125333">
        <ele>258.0</ele>
        <time>2021-08-21T08:02:54.024Z</time>
      </trkpt>
      <trkpt lat="41.975255" lon="2.86125333">
        <ele>258.0</ele>
        <time>2021-08-21T08:02:54.992Z</time>
      </trkpt>
      <trkpt lat="41.97522833" lon="2.86115">
        <ele>258.0</ele>
        <time>2021-08-21T08:02:56.027Z</time>
      </trkpt>
      <trkpt lat="41.97522833" lon="2.86115">
        <ele>258.0</ele>
        <time>2021-08-21T08:02:56.994Z</time>
      </trkpt>
      <trkpt lat="41.97522167" lon="2.861035">
        <ele>259.0</ele>
        <time>2021-08-21T08:02:58.005Z</time>
      </trkpt>
      <trkpt lat="41.97522167" lon="2.861035">
        <ele>259.0</ele>
        <time>2021-08-21T08:02:59.008Z</time>
      </trkpt>
      <trkpt lat="41.975255" lon="2.86091833">
        <ele>259.0</ele>
        <time>2021-08-21T08:03:00.030Z</time>
      </trkpt>
      <trkpt lat="41.975255" lon="2.86091833">
        <ele>259.0</ele>
        <time>2021-08-21T08:03:01.024Z</time>
      </trkpt>
      <trkpt lat="41.97532" lon="2.86083167">
        <ele>260.0</ele>
        <time>2021-08-21T08:03:02.010Z</time>
      </trkpt>
      <trkpt lat="41.97532" lon="2.86083167">
        <ele>260.0</ele>
        <time>2021-08-21T08:03:03.023Z</time>
      </trkpt>
      <trkpt lat="41.97538833" lon="2.86077167">
        <ele>261.0</ele>
        <time>2021-08-21T08:03:03.996Z</time>
      </trkpt>
      <trkpt lat="41.97538833" lon="2.86077167">
        <ele>261.0</ele>
        <time>2021-08-21T08:03:05.024Z</time>
      </trkpt>
      <trkpt lat="41.97546667" lon="2.86073833">
        <ele>261.0</ele>
        <time>2021-08-21T08:03:06.007Z</time>
      </trkpt>
      <trkpt lat="41.97546667" lon="2.86073833">
        <ele>261.0</ele>
        <time>2021-08-21T08:03:07.028Z</time>
      </trkpt>
      <trkpt lat="41.97554333" lon="2.86070167">
        <ele>262.0</ele>
        <time>2021-08-21T08:03:08.006Z</time>
      </trkpt>
      <trkpt lat="41.97554333" lon="2.86070167">
        <ele>262.0</ele>
        <time>2021-08-21T08:03:08.995Z</time>
      </trkpt>
      <trkpt lat="41.975635" lon="2.860675">
        <ele>262.0</ele>
        <time>2021-08-21T08:03:10.009Z</time>
      </trkpt>
      <trkpt lat="41.975635" lon="2.860675">
        <ele>262.0</ele>
        <time>2021-08-21T08:03:10.992Z</time>
      </trkpt>
      <trkpt lat="41.97571667" lon="2.86063">
        <ele>263.0</ele>
        <time>2021-08-21T08:03:12.004Z</time>
      </trkpt>
      <trkpt lat="41.97571667" lon="2.86063">
        <ele>263.0</ele>
        <time>2021-08-21T08:03:13.002Z</time>
      </trkpt>
      <trkpt lat="41.97579833" lon="2.86057">
        <ele>264.0</ele>
        <time>2021-08-21T08:03:14.014Z</time>
      </trkpt>
      <trkpt lat="41.97579833" lon="2.86057">
        <ele>264.0</ele>
        <time>2021-08-21T08:03:15.031Z</time>
      </trkpt>
      <trkpt lat="41.97587" lon="2.860475">
        <ele>264.0</ele>
        <time>2021-08-21T08:03:16.002Z</time>
      </trkpt>
      <trkpt lat="41.97587" lon="2.860475">
        <ele>264.0</ele>
        <time>2021-08-21T08:03:17.012Z</time>
      </trkpt>
      <trkpt lat="41.975925" lon="2.86037">
        <ele>263.0</ele>
        <time>2021-08-21T08:03:18.028Z</time>
      </trkpt>
      <trkpt lat="41.975925" lon="2.86037">
        <ele>263.0</ele>
        <time>2021-08-21T08:03:19.004Z</time>
      </trkpt>
      <trkpt lat="41.97596" lon="2.86025833">
        <ele>263.0</ele>
        <time>2021-08-21T08:03:19.998Z</time>
      </trkpt>
      <trkpt lat="41.97596" lon="2.86025833">
        <ele>263.0</ele>
        <time>2021-08-21T08:03:21.014Z</time>
      </trkpt>
      <trkpt lat="41.97597333" lon="2.86015167">
        <ele>263.0</ele>
        <time>2021-08-21T08:03:21.996Z</time>
      </trkpt>
      <trkpt lat="41.97597333" lon="2.86015167">
        <ele>263.0</ele>
        <time>2021-08-21T08:03:23.026Z</time>
      </trkpt>
      <trkpt lat="41.97599333" lon="2.86005167">
        <ele>262.0</ele>
        <time>2021-08-21T08:03:24.005Z</time>
      </trkpt>
      <trkpt lat="41.97599333" lon="2.86005167">
        <ele>262.0</ele>
        <time>2021-08-21T08:03:25.026Z</time>
      </trkpt>
      <trkpt lat="41.97601333" lon="2.859935">
        <ele>262.0</ele>
        <time>2021-08-21T08:03:25.995Z</time>
      </trkpt>
      <trkpt lat="41.97601333" lon="2.859935">
        <ele>262.0</ele>
        <time>2021-08-21T08:03:27.013Z</time>
      </trkpt>
      <trkpt lat="41.976045" lon="2.85981">
        <ele>261.0</ele>
        <time>2021-08-21T08:03:27.995Z</time>
      </trkpt>
      <trkpt lat="41.976045" lon="2.85981">
        <ele>261.0</ele>
        <time>2021-08-21T08:03:29.026Z</time>
      </trkpt>
      <trkpt lat="41.97607" lon="2.85968833">
        <ele>261.0</ele>
        <time>2021-08-21T08:03:30.000Z</time>
      </trkpt>
      <trkpt lat="41.97607" lon="2.85968833">
        <ele>261.0</ele>
        <time>2021-08-21T08:03:30.992Z</time>
      </trkpt>
      <trkpt lat="41.97606" lon="2.85955833">
        <ele>259.0</ele>
        <time>2021-08-21T08:03:32.034Z</time>
      </trkpt>
      <trkpt lat="41.97606" lon="2.85955833">
        <ele>259.0</ele>
        <time>2021-08-21T08:03:33.006Z</time>
      </trkpt>
      <trkpt lat="41.97603" lon="2.85942">
        <ele>259.0</ele>
        <time>2021-08-21T08:03:34.022Z</time>
      </trkpt>
      <trkpt lat="41.97603" lon="2.85942">
        <ele>259.0</ele>
        <time>2021-08-21T08:03:35.031Z</time>
      </trkpt>
      <trkpt lat="41.976" lon="2.85928333">
        <ele>258.0</ele>
        <time>2021-08-21T08:03:36.007Z</time>
      </trkpt>
      <trkpt lat="41.976" lon="2.85928333">
        <ele>258.0</ele>
        <time>2021-08-21T08:03:37.011Z</time>
      </trkpt>
      <trkpt lat="41.97597667" lon="2.859165">
        <ele>257.0</ele>
        <time>2021-08-21T08:03:38.027Z</time>
      </trkpt>
      <trkpt lat="41.97597667" lon="2.859165">
        <ele>257.0</ele>
        <time>2021-08-21T08:03:39.016Z</time>
      </trkpt>
      <trkpt lat="41.97599333" lon="2.859055">
        <ele>256.0</ele>
        <time>2021-08-21T08:03:40.032Z</time>
      </trkpt>
      <trkpt lat="41.97599333" lon="2.859055">
        <ele>256.0</ele>
        <time>2021-08-21T08:03:40.997Z</time>
      </trkpt>
      <trkpt lat="41.97605333" lon="2.858955">
        <ele>256.0</ele>
        <time>2021-08-21T08:03:42.012Z</time>
      </trkpt>
      <trkpt lat="41.97605333" lon="2.858955">
        <ele>256.0</ele>
        <time>2021-08-21T08:03:43.008Z</time>
      </trkpt>
      <trkpt lat="41.97612833" lon="2.858865">
        <ele>255.0</ele>
        <time>2021-08-21T08:03:44.024Z</time>
      </trkpt>
      <trkpt lat="41.97612833" lon="2.858865">
        <ele>255.0</ele>
        <time>2021-08-21T08:03:45.019Z</time>
      </trkpt>
      <trkpt lat="41.97621833" lon="2.85876667">
        <ele>255.0</ele>
        <time>2021-08-21T08:03:45.994Z</time>
      </trkpt>
      <trkpt lat="41.97621833" lon="2.85876667">
        <ele>255.0</ele>
        <time>2021-08-21T08:03:46.997Z</time>
      </trkpt>
      <trkpt lat="41.97630833" lon="2.85868833">
        <ele>254.0</ele>
        <time>2021-08-21T08:03:48.009Z</time>
      </trkpt>
      <trkpt lat="41.97630833" lon="2.85868833">
        <ele>254.0</ele>
        <time>2021-08-21T08:03:49.028Z</time>
      </trkpt>
      <trkpt lat="41.97638667" lon="2.85859333">
        <ele>254.0</ele>
        <time>2021-08-21T08:03:50.000Z</time>
      </trkpt>
      <trkpt lat="41.97638667" lon="2.85859333">
        <ele>254.0</ele>
        <time>2021-08-21T08:03:51.030Z</time>
      </trkpt>
      <trkpt lat="41.97644167" lon="2.85845667">
        <ele>254.0</ele>
        <time>2021-08-21T08:03:52.003Z</time>
      </trkpt>
      <trkpt lat="41.97644167" lon="2.85845667">
        <ele>254.0</ele>
        <time>2021-08-21T08:03:53.032Z</time>
      </trkpt>
      <trkpt lat="41.97649667" lon="2.858305">
        <ele>253.0</ele>
        <time>2021-08-21T08:03:54.026Z</time>
      </trkpt>
      <trkpt lat="41.97649667" lon="2.858305">
        <ele>253.0</ele>
        <time>2021-08-21T08:03:55.012Z</time>
      </trkpt>
      <trkpt lat="41.97655167" lon="2.85813167">
        <ele>253.0</ele>
        <time>2021-08-21T08:03:56.027Z</time>
      </trkpt>
      <trkpt lat="41.97655167" lon="2.85813167">
        <ele>253.0</ele>
        <time>2021-08-21T08:03:56.996Z</time>
      </trkpt>
      <trkpt lat="41.97659667" lon="2.85796833">
        <ele>252.0</ele>
        <time>2021-08-21T08:03:58.016Z</time>
      </trkpt>
      <trkpt lat="41.97659667" lon="2.85796833">
        <ele>252.0</ele>
        <time>2021-08-21T08:03:59.000Z</time>
      </trkpt>
      <trkpt lat="41.97660833" lon="2.857805">
        <ele>251.0</ele>
        <time>2021-08-21T08:04:00.015Z</time>
      </trkpt>
      <trkpt lat="41.97660833" lon="2.857805">
        <ele>251.0</ele>
        <time>2021-08-21T08:04:01.004Z</time>
      </trkpt>
      <trkpt lat="41.97658333" lon="2.85765333">
        <ele>251.0</ele>
        <time>2021-08-21T08:04:02.011Z</time>
      </trkpt>
      <trkpt lat="41.97658333" lon="2.85765333">
        <ele>251.0</ele>
        <time>2021-08-21T08:04:02.994Z</time>
      </trkpt>
      <trkpt lat="41.97656667" lon="2.85750667">
        <ele>250.0</ele>
        <time>2021-08-21T08:04:04.012Z</time>
      </trkpt>
      <trkpt lat="41.97656667" lon="2.85750667">
        <ele>250.0</ele>
        <time>2021-08-21T08:04:04.996Z</time>
      </trkpt>
      <trkpt lat="41.97662" lon="2.85735333">
        <ele>250.0</ele>
        <time>2021-08-21T08:04:06.017Z</time>
      </trkpt>
      <trkpt lat="41.97662" lon="2.85735333">
        <ele>250.0</ele>
        <time>2021-08-21T08:04:07.021Z</time>
      </trkpt>
      <trkpt lat="41.97667833" lon="2.857195">
        <ele>250.0</ele>
        <time>2021-08-21T08:04:07.993Z</time>
      </trkpt>
      <trkpt lat="41.97667833" lon="2.857195">
        <ele>250.0</ele>
        <time>2021-08-21T08:04:09.025Z</time>
      </trkpt>
      <trkpt lat="41.97672667" lon="2.85703167">
        <ele>249.0</ele>
        <time>2021-08-21T08:04:10.001Z</time>
      </trkpt>
      <trkpt lat="41.97675833" lon="2.85695667">
        <ele>249.0</ele>
        <time>2021-08-21T08:04:11.007Z</time>
      </trkpt>
      <trkpt lat="41.9768" lon="2.85688667">
        <ele>249.0</ele>
        <time>2021-08-21T08:04:11.994Z</time>
      </trkpt>
      <trkpt lat="41.9768" lon="2.85688667">
        <ele>249.0</ele>
        <time>2021-08-21T08:04:13.015Z</time>
      </trkpt>
      <trkpt lat="41.97689167" lon="2.85675167">
        <ele>248.0</ele>
        <time>2021-08-21T08:04:14.011Z</time>
      </trkpt>
      <trkpt lat="41.97689167" lon="2.85675167">
        <ele>248.0</ele>
        <time>2021-08-21T08:04:14.998Z</time>
      </trkpt>
      <trkpt lat="41.976975" lon="2.85660833">
        <ele>247.0</ele>
        <time>2021-08-21T08:04:16.015Z</time>
      </trkpt>
      <trkpt lat="41.976975" lon="2.85660833">
        <ele>247.0</ele>
        <time>2021-08-21T08:04:17.005Z</time>
      </trkpt>
      <trkpt lat="41.97707667" lon="2.85646">
        <ele>247.0</ele>
        <time>2021-08-21T08:04:18.018Z</time>
      </trkpt>
      <trkpt lat="41.97707667" lon="2.85646">
        <ele>247.0</ele>
        <time>2021-08-21T08:04:19.024Z</time>
      </trkpt>
      <trkpt lat="41.97718667" lon="2.85633333">
        <ele>246.0</ele>
        <time>2021-08-21T08:04:20.013Z</time>
      </trkpt>
      <trkpt lat="41.97718667" lon="2.85633333">
        <ele>246.0</ele>
        <time>2021-08-21T08:04:21.023Z</time>
      </trkpt>
      <trkpt lat="41.9773" lon="2.85621167">
        <ele>246.0</ele>
        <time>2021-08-21T08:04:21.993Z</time>
      </trkpt>
      <trkpt lat="41.97734833" lon="2.85615333">
        <ele>246.0</ele>
        <time>2021-08-21T08:04:23.008Z</time>
      </trkpt>
      <trkpt lat="41.97738667" lon="2.85608167">
        <ele>245.0</ele>
        <time>2021-08-21T08:04:24.016Z</time>
      </trkpt>
      <trkpt lat="41.97738667" lon="2.85608167">
        <ele>245.0</ele>
        <time>2021-08-21T08:04:25.009Z</time>
      </trkpt>
      <trkpt lat="41.97744833" lon="2.85593667">
        <ele>244.0</ele>
        <time>2021-08-21T08:04:26.023Z</time>
      </trkpt>
      <trkpt lat="41.97747167" lon="2.855875">
        <ele>244.0</ele>
        <time>2021-08-21T08:04:27.022Z</time>
      </trkpt>
      <trkpt lat="41.97747167" lon="2.855875">
        <ele>244.0</ele>
        <time>2021-08-21T08:04:28.005Z</time>
      </trkpt>
      <trkpt lat="41.97746833" lon="2.85575167">
        <ele>242.0</ele>
        <time>2021-08-21T08:04:29.017Z</time>
      </trkpt>
      <trkpt lat="41.97744833" lon="2.85569667">
        <ele>242.0</ele>
        <time>2021-08-21T08:04:30.001Z</time>
      </trkpt>
      <trkpt lat="41.97744833" lon="2.85569667">
        <ele>242.0</ele>
        <time>2021-08-21T08:04:31.010Z</time>
      </trkpt>
      <trkpt lat="41.97737667" lon="2.85560833">
        <ele>241.0</ele>
        <time>2021-08-21T08:04:32.022Z</time>
      </trkpt>
      <trkpt lat="41.97737667" lon="2.85560833">
        <ele>241.0</ele>
        <time>2021-08-21T08:04:32.999Z</time>
      </trkpt>
      <trkpt lat="41.97727333" lon="2.855545">
        <ele>239.0</ele>
        <time>2021-08-21T08:04:34.017Z</time>
      </trkpt>
      <trkpt lat="41.97727333" lon="2.855545">
        <ele>239.0</ele>
        <time>2021-08-21T08:04:34.994Z</time>
      </trkpt>
      <trkpt lat="41.97716" lon="2.85548167">
        <ele>238.0</ele>
        <time>2021-08-21T08:04:36.010Z</time>
      </trkpt>
      <trkpt lat="41.97716" lon="2.85548167">
        <ele>238.0</ele>
        <time>2021-08-21T08:04:37.002Z</time>
      </trkpt>
      <trkpt lat="41.97707833" lon="2.85542">
        <ele>237.0</ele>
        <time>2021-08-21T08:04:38.020Z</time>
      </trkpt>
      <trkpt lat="41.97707833" lon="2.85542">
        <ele>237.0</ele>
        <time>2021-08-21T08:04:38.993Z</time>
      </trkpt>
      <trkpt lat="41.97704333" lon="2.85533833">
        <ele>236.0</ele>
        <time>2021-08-21T08:04:40.002Z</time>
      </trkpt>
      <trkpt lat="41.97704333" lon="2.85533833">
        <ele>236.0</ele>
        <time>2021-08-21T08:04:41.000Z</time>
      </trkpt>
      <trkpt lat="41.97704667" lon="2.855235">
        <ele>235.0</ele>
        <time>2021-08-21T08:04:42.022Z</time>
      </trkpt>
      <trkpt lat="41.97704667" lon="2.855235">
        <ele>235.0</ele>
        <time>2021-08-21T08:04:43.000Z</time>
      </trkpt>
      <trkpt lat="41.977095" lon="2.855105">
        <ele>234.0</ele>
        <time>2021-08-21T08:04:44.020Z</time>
      </trkpt>
      <trkpt lat="41.977095" lon="2.855105">
        <ele>234.0</ele>
        <time>2021-08-21T08:04:44.995Z</time>
      </trkpt>
      <trkpt lat="41.97714167" lon="2.85497833">
        <ele>233.0</ele>
        <time>2021-08-21T08:04:46.026Z</time>
      </trkpt>
      <trkpt lat="41.97714167" lon="2.85497833">
        <ele>233.0</ele>
        <time>2021-08-21T08:04:47.005Z</time>
      </trkpt>
      <trkpt lat="41.97717333" lon="2.85484167">
        <ele>231.0</ele>
        <time>2021-08-21T08:04:48.010Z</time>
      </trkpt>
      <trkpt lat="41.97718" lon="2.854775">
        <ele>231.0</ele>
        <time>2021-08-21T08:04:48.997Z</time>
      </trkpt>
      <trkpt lat="41.97718" lon="2.854775">
        <ele>231.0</ele>
        <time>2021-08-21T08:04:50.012Z</time>
      </trkpt>
      <trkpt lat="41.977175" lon="2.85463833">
        <ele>229.0</ele>
        <time>2021-08-21T08:04:50.993Z</time>
      </trkpt>
      <trkpt lat="41.97717333" lon="2.85457167">
        <ele>228.0</ele>
        <time>2021-08-21T08:04:52.000Z</time>
      </trkpt>
      <trkpt lat="41.97717333" lon="2.85457167">
        <ele>228.0</ele>
        <time>2021-08-21T08:04:52.995Z</time>
      </trkpt>
      <trkpt lat="41.97720167" lon="2.85449333">
        <ele>227.0</ele>
        <time>2021-08-21T08:04:54.011Z</time>
      </trkpt>
      <trkpt lat="41.97720167" lon="2.85449333">
        <ele>227.0</ele>
        <time>2021-08-21T08:04:55.009Z</time>
      </trkpt>
      <trkpt lat="41.97724167" lon="2.854515">
        <ele>225.0</ele>
        <time>2021-08-21T08:04:56.022Z</time>
      </trkpt>
      <trkpt lat="41.97724167" lon="2.854515">
        <ele>225.0</ele>
        <time>2021-08-21T08:04:57.029Z</time>
      </trkpt>
      <trkpt lat="41.97726" lon="2.85459667">
        <ele>224.0</ele>
        <time>2021-08-21T08:04:58.000Z</time>
      </trkpt>
      <trkpt lat="41.97726" lon="2.85459667">
        <ele>224.0</ele>
        <time>2021-08-21T08:04:59.029Z</time>
      </trkpt>
      <trkpt lat="41.97725333" lon="2.85471667">
        <ele>223.0</ele>
        <time>2021-08-21T08:04:59.993Z</time>
      </trkpt>
      <trkpt lat="41.97725333" lon="2.85471667">
        <ele>223.0</ele>
        <time>2021-08-21T08:05:00.993Z</time>
      </trkpt>
      <trkpt lat="41.97724667" lon="2.85484667">
        <ele>221.0</ele>
        <time>2021-08-21T08:05:02.023Z</time>
      </trkpt>
      <trkpt lat="41.97724667" lon="2.85484667">
        <ele>221.0</ele>
        <time>2021-08-21T08:05:03.016Z</time>
      </trkpt>
      <trkpt lat="41.97724" lon="2.85495">
        <ele>220.0</ele>
        <time>2021-08-21T08:05:04.025Z</time>
      </trkpt>
      <trkpt lat="41.97724" lon="2.85495">
        <ele>220.0</ele>
        <time>2021-08-21T08:05:04.998Z</time>
      </trkpt>
      <trkpt lat="41.97723333" lon="2.85503833">
        <ele>219.0</ele>
        <time>2021-08-21T08:05:06.004Z</time>
      </trkpt>
      <trkpt lat="41.97723333" lon="2.85503833">
        <ele>219.0</ele>
        <time>2021-08-21T08:05:07.017Z</time>
      </trkpt>
      <trkpt lat="41.97723333" lon="2.85514">
        <ele>218.0</ele>
        <time>2021-08-21T08:05:08.026Z</time>
      </trkpt>
      <trkpt lat="41.97723333" lon="2.85514">
        <ele>218.0</ele>
        <time>2021-08-21T08:05:09.007Z</time>
      </trkpt>
      <trkpt lat="41.97728333" lon="2.85521167">
        <ele>217.0</ele>
        <time>2021-08-21T08:05:10.019Z</time>
      </trkpt>
      <trkpt lat="41.97728333" lon="2.85521167">
        <ele>217.0</ele>
        <time>2021-08-21T08:05:11.014Z</time>
      </trkpt>
      <trkpt lat="41.97737167" lon="2.85522833">
        <ele>216.0</ele>
        <time>2021-08-21T08:05:11.992Z</time>
      </trkpt>
      <trkpt lat="41.97737167" lon="2.85522833">
        <ele>216.0</ele>
        <time>2021-08-21T08:05:13.014Z</time>
      </trkpt>
      <trkpt lat="41.977465" lon="2.85523">
        <ele>215.0</ele>
        <time>2021-08-21T08:05:14.025Z</time>
      </trkpt>
      <trkpt lat="41.977465" lon="2.85523">
        <ele>215.0</ele>
        <time>2021-08-21T08:05:15.006Z</time>
      </trkpt>
      <trkpt lat="41.97757667" lon="2.85523667">
        <ele>215.0</ele>
        <time>2021-08-21T08:05:16.012Z</time>
      </trkpt>
      <trkpt lat="41.97757667" lon="2.85523667">
        <ele>215.0</ele>
        <time>2021-08-21T08:05:17.026Z</time>
      </trkpt>
      <trkpt lat="41.97768667" lon="2.85524833">
        <ele>214.0</ele>
        <time>2021-08-21T08:05:18.020Z</time>
      </trkpt>
      <trkpt lat="41.97768667" lon="2.85524833">
        <ele>214.0</ele>
        <time>2021-08-21T08:05:19.011Z</time>
      </trkpt>
      <trkpt lat="41.977805" lon="2.85523667">
        <ele>214.0</ele>
        <time>2021-08-21T08:05:20.004Z</time>
      </trkpt>
      <trkpt lat="41.977805" lon="2.85523667">
        <ele>214.0</ele>
        <time>2021-08-21T08:05:21.024Z</time>
      </trkpt>
      <trkpt lat="41.97792333" lon="2.85521833">
        <ele>213.0</ele>
        <time>2021-08-21T08:05:22.021Z</time>
      </trkpt>
      <trkpt lat="41.97792333" lon="2.85521833">
        <ele>213.0</ele>
        <time>2021-08-21T08:05:22.999Z</time>
      </trkpt>
      <trkpt lat="41.97801" lon="2.85521167">
        <ele>212.0</ele>
        <time>2021-08-21T08:05:24.006Z</time>
      </trkpt>
      <trkpt lat="41.97801" lon="2.85521167">
        <ele>212.0</ele>
        <time>2021-08-21T08:05:25.028Z</time>
      </trkpt>
      <trkpt lat="41.978075" lon="2.85523333">
        <ele>211.0</ele>
        <time>2021-08-21T08:05:26.000Z</time>
      </trkpt>
      <trkpt lat="41.978075" lon="2.85523333">
        <ele>211.0</ele>
        <time>2021-08-21T08:05:27.025Z</time>
      </trkpt>
      <trkpt lat="41.97814" lon="2.85528667">
        <ele>209.0</ele>
        <time>2021-08-21T08:05:28.001Z</time>
      </trkpt>
      <trkpt lat="41.97814" lon="2.85528667">
        <ele>209.0</ele>
        <time>2021-08-21T08:05:28.993Z</time>
      </trkpt>
      <trkpt lat="41.978165" lon="2.855385">
        <ele>207.0</ele>
        <time>2021-08-21T08:05:30.023Z</time>
      </trkpt>
      <trkpt lat="41.978165" lon="2.855385">
        <ele>207.0</ele>
        <time>2021-08-21T08:05:31.000Z</time>
      </trkpt>
      <trkpt lat="41.978155" lon="2.8555">
        <ele>206.0</ele>
        <time>2021-08-21T08:05:32.009Z</time>
      </trkpt>
      <trkpt lat="41.978155" lon="2.8555">
        <ele>206.0</ele>
        <time>2021-08-21T08:05:33.022Z</time>
      </trkpt>
      <trkpt lat="41.97814333" lon="2.85562333">
        <ele>205.0</ele>
        <time>2021-08-21T08:05:34.013Z</time>
      </trkpt>
      <trkpt lat="41.97814333" lon="2.85562333">
        <ele>205.0</ele>
        <time>2021-08-21T08:05:34.992Z</time>
      </trkpt>
      <trkpt lat="41.978135" lon="2.855755">
        <ele>203.0</ele>
        <time>2021-08-21T08:05:36.003Z</time>
      </trkpt>
      <trkpt lat="41.978135" lon="2.855755">
        <ele>203.0</ele>
        <time>2021-08-21T08:05:37.015Z</time>
      </trkpt>
      <trkpt lat="41.978145" lon="2.85589">
        <ele>202.0</ele>
        <time>2021-08-21T08:05:38.023Z</time>
      </trkpt>
      <trkpt lat="41.978145" lon="2.85589">
        <ele>202.0</ele>
        <time>2021-08-21T08:05:38.997Z</time>
      </trkpt>
      <trkpt lat="41.978135" lon="2.85601333">
        <ele>200.0</ele>
        <time>2021-08-21T08:05:40.003Z</time>
      </trkpt>
      <trkpt lat="41.978135" lon="2.85601333">
        <ele>200.0</ele>
        <time>2021-08-21T08:05:41.016Z</time>
      </trkpt>
      <trkpt lat="41.97809333" lon="2.85615">
        <ele>199.0</ele>
        <time>2021-08-21T08:05:42.006Z</time>
      </trkpt>
      <trkpt lat="41.97809333" lon="2.85615">
        <ele>199.0</ele>
        <time>2021-08-21T08:05:43.027Z</time>
      </trkpt>
      <trkpt lat="41.97805167" lon="2.85629833">
        <ele>198.0</ele>
        <time>2021-08-21T08:05:44.011Z</time>
      </trkpt>
      <trkpt lat="41.97805167" lon="2.85629833">
        <ele>198.0</ele>
        <time>2021-08-21T08:05:45.028Z</time>
      </trkpt>
      <trkpt lat="41.97800167" lon="2.856485">
        <ele>196.0</ele>
        <time>2021-08-21T08:05:45.998Z</time>
      </trkpt>
      <trkpt lat="41.97796333" lon="2.85655667">
        <ele>196.0</ele>
        <time>2021-08-21T08:05:47.011Z</time>
      </trkpt>
      <trkpt lat="41.97791667" lon="2.856625">
        <ele>195.0</ele>
        <time>2021-08-21T08:05:48.025Z</time>
      </trkpt>
      <trkpt lat="41.97791667" lon="2.856625">
        <ele>195.0</ele>
        <time>2021-08-21T08:05:48.997Z</time>
      </trkpt>
      <trkpt lat="41.97782167" lon="2.85675">
        <ele>194.0</ele>
        <time>2021-08-21T08:05:50.012Z</time>
      </trkpt>
      <trkpt lat="41.97782167" lon="2.85675">
        <ele>194.0</ele>
        <time>2021-08-21T08:05:51.013Z</time>
      </trkpt>
      <trkpt lat="41.97774" lon="2.85686167">
        <ele>193.0</ele>
        <time>2021-08-21T08:05:52.027Z</time>
      </trkpt>
      <trkpt lat="41.97770667" lon="2.856915">
        <ele>192.0</ele>
        <time>2021-08-21T08:05:53.024Z</time>
      </trkpt>
      <trkpt lat="41.97770667" lon="2.856915">
        <ele>192.0</ele>
        <time>2021-08-21T08:05:54.030Z</time>
      </trkpt>
      <trkpt lat="41.97769" lon="2.85703333">
        <ele>191.0</ele>
        <time>2021-08-21T08:05:54.999Z</time>
      </trkpt>
      <trkpt lat="41.97769" lon="2.85703333">
        <ele>191.0</ele>
        <time>2021-08-21T08:05:56.011Z</time>
      </trkpt>
      <trkpt lat="41.97774833" lon="2.85714833">
        <ele>191.0</ele>
        <time>2021-08-21T08:05:56.994Z</time>
      </trkpt>
      <trkpt lat="41.97774833" lon="2.85714833">
        <ele>191.0</ele>
        <time>2021-08-21T08:05:58.008Z</time>
      </trkpt>
      <trkpt lat="41.97780167" lon="2.85724167">
        <ele>189.0</ele>
        <time>2021-08-21T08:05:58.995Z</time>
      </trkpt>
      <trkpt lat="41.97780667" lon="2.85728833">
        <ele>189.0</ele>
        <time>2021-08-21T08:06:00.002Z</time>
      </trkpt>
      <trkpt lat="41.97780667" lon="2.85728833">
        <ele>189.0</ele>
        <time>2021-08-21T08:06:01.007Z</time>
      </trkpt>
      <trkpt lat="41.97778833" lon="2.85737">
        <ele>188.0</ele>
        <time>2021-08-21T08:06:01.994Z</time>
      </trkpt>
      <trkpt lat="41.97778833" lon="2.85737">
        <ele>188.0</ele>
        <time>2021-08-21T08:06:03.026Z</time>
      </trkpt>
      <trkpt lat="41.97776" lon="2.85746833">
        <ele>186.0</ele>
        <time>2021-08-21T08:06:04.005Z</time>
      </trkpt>
      <trkpt lat="41.97776" lon="2.85746833">
        <ele>186.0</ele>
        <time>2021-08-21T08:06:05.026Z</time>
      </trkpt>
      <trkpt lat="41.977765" lon="2.85756333">
        <ele>185.0</ele>
        <time>2021-08-21T08:06:06.023Z</time>
      </trkpt>
      <trkpt lat="41.977765" lon="2.85756333">
        <ele>185.0</ele>
        <time>2021-08-21T08:06:07.012Z</time>
      </trkpt>
      <trkpt lat="41.977815" lon="2.85765667">
        <ele>184.0</ele>
        <time>2021-08-21T08:06:08.017Z</time>
      </trkpt>
      <trkpt lat="41.97785333" lon="2.85770833">
        <ele>184.0</ele>
        <time>2021-08-21T08:06:09.024Z</time>
      </trkpt>
      <trkpt lat="41.97785333" lon="2.85770833">
        <ele>184.0</ele>
        <time>2021-08-21T08:06:09.998Z</time>
      </trkpt>
      <trkpt lat="41.97794333" lon="2.85783">
        <ele>183.0</ele>
        <time>2021-08-21T08:06:11.012Z</time>
      </trkpt>
      <trkpt lat="41.97798667" lon="2.85789167">
        <ele>182.0</ele>
        <time>2021-08-21T08:06:12.024Z</time>
      </trkpt>
      <trkpt lat="41.97798667" lon="2.85789167">
        <ele>182.0</ele>
        <time>2021-08-21T08:06:12.997Z</time>
      </trkpt>
      <trkpt lat="41.97807833" lon="2.85801667">
        <ele>181.0</ele>
        <time>2021-08-21T08:06:14.007Z</time>
      </trkpt>
      <trkpt lat="41.97807833" lon="2.85801667">
        <ele>181.0</ele>
        <time>2021-08-21T08:06:15.028Z</time>
      </trkpt>
      <trkpt lat="41.97815667" lon="2.85814">
        <ele>179.0</ele>
        <time>2021-08-21T08:06:15.994Z</time>
      </trkpt>
      <trkpt lat="41.97815667" lon="2.85814">
        <ele>179.0</ele>
        <time>2021-08-21T08:06:17.006Z</time>
      </trkpt>
      <trkpt lat="41.97826833" lon="2.85828333">
        <ele>178.0</ele>
        <time>2021-08-21T08:06:18.008Z</time>
      </trkpt>
      <trkpt lat="41.97826833" lon="2.85828333">
        <ele>178.0</ele>
        <time>2021-08-21T08:06:18.995Z</time>
      </trkpt>
      <trkpt lat="41.97837167" lon="2.85841833">
        <ele>177.0</ele>
        <time>2021-08-21T08:06:20.006Z</time>
      </trkpt>
      <trkpt lat="41.97840167" lon="2.85849">
        <ele>176.0</ele>
        <time>2021-08-21T08:06:21.026Z</time>
      </trkpt>
      <trkpt lat="41.97840167" lon="2.85849">
        <ele>176.0</ele>
        <time>2021-08-21T08:06:21.999Z</time>
      </trkpt>
      <trkpt lat="41.97844" lon="2.85866">
        <ele>175.0</ele>
        <time>2021-08-21T08:06:23.006Z</time>
      </trkpt>
      <trkpt lat="41.97844" lon="2.85866">
        <ele>175.0</ele>
        <time>2021-08-21T08:06:23.992Z</time>
      </trkpt>
      <trkpt lat="41.97845333" lon="2.85882833">
        <ele>173.0</ele>
        <time>2021-08-21T08:06:25.016Z</time>
      </trkpt>
      <trkpt lat="41.97845333" lon="2.85882833">
        <ele>173.0</ele>
        <time>2021-08-21T08:06:26.017Z</time>
      </trkpt>
      <trkpt lat="41.97842333" lon="2.85896833">
        <ele>172.0</ele>
        <time>2021-08-21T08:06:27.000Z</time>
      </trkpt>
      <trkpt lat="41.97842333" lon="2.85896833">
        <ele>172.0</ele>
        <time>2021-08-21T08:06:28.016Z</time>
      </trkpt>
      <trkpt lat="41.978375" lon="2.85909">
        <ele>171.0</ele>
        <time>2021-08-21T08:06:28.994Z</time>
      </trkpt>
      <trkpt lat="41.978345" lon="2.85915167">
        <ele>170.0</ele>
        <time>2021-08-21T08:06:30.012Z</time>
      </trkpt>
      <trkpt lat="41.978345" lon="2.85915167">
        <ele>170.0</ele>
        <time>2021-08-21T08:06:31.026Z</time>
      </trkpt>
      <trkpt lat="41.97827833" lon="2.85927667">
        <ele>169.0</ele>
        <time>2021-08-21T08:06:31.992Z</time>
      </trkpt>
      <trkpt lat="41.97825167" lon="2.85932167">
        <ele>168.0</ele>
        <time>2021-08-21T08:06:33.005Z</time>
      </trkpt>
      <trkpt lat="41.97825167" lon="2.85932167">
        <ele>168.0</ele>
        <time>2021-08-21T08:06:34.013Z</time>
      </trkpt>
      <trkpt lat="41.97823833" lon="2.85942833">
        <ele>167.0</ele>
        <time>2021-08-21T08:06:35.027Z</time>
      </trkpt>
      <trkpt lat="41.97823" lon="2.85947">
        <ele>166.0</ele>
        <time>2021-08-21T08:06:36.000Z</time>
      </trkpt>
      <trkpt lat="41.97823" lon="2.85947">
        <ele>166.0</ele>
        <time>2021-08-21T08:06:37.013Z</time>
      </trkpt>
      <trkpt lat="41.97826167" lon="2.859525">
        <ele>165.0</ele>
        <time>2021-08-21T08:06:38.029Z</time>
      </trkpt>
      <trkpt lat="41.97826167" lon="2.859525">
        <ele>165.0</ele>
        <time>2021-08-21T08:06:39.001Z</time>
      </trkpt>
      <trkpt lat="41.97832333" lon="2.85953167">
        <ele>165.0</ele>
        <time>2021-08-21T08:06:40.008Z</time>
      </trkpt>
      <trkpt lat="41.97832333" lon="2.85953167">
        <ele>165.0</ele>
        <time>2021-08-21T08:06:41.020Z</time>
      </trkpt>
      <trkpt lat="41.97837667" lon="2.85952833">
        <ele>164.0</ele>
        <time>2021-08-21T08:06:41.993Z</time>
      </trkpt>
      <trkpt lat="41.97837667" lon="2.85952833">
        <ele>164.0</ele>
        <time>2021-08-21T08:06:43.007Z</time>
      </trkpt>
      <trkpt lat="41.97842167" lon="2.85949333">
        <ele>163.0</ele>
        <time>2021-08-21T08:06:44.018Z</time>
      </trkpt>
      <trkpt lat="41.97842167" lon="2.85949333">
        <ele>163.0</ele>
        <time>2021-08-21T08:06:45.004Z</time>
      </trkpt>
      <trkpt lat="41.97846833" lon="2.859435">
        <ele>163.0</ele>
        <time>2021-08-21T08:06:46.010Z</time>
      </trkpt>
      <trkpt lat="41.97846833" lon="2.859435">
        <ele>163.0</ele>
        <time>2021-08-21T08:06:47.017Z</time>
      </trkpt>
      <trkpt lat="41.97851833" lon="2.85934333">
        <ele>163.0</ele>
        <time>2021-08-21T08:06:47.993Z</time>
      </trkpt>
      <trkpt lat="41.97851833" lon="2.85934333">
        <ele>163.0</ele>
        <time>2021-08-21T08:06:49.006Z</time>
      </trkpt>
      <trkpt lat="41.97856167" lon="2.85926833">
        <ele>162.0</ele>
        <time>2021-08-21T08:06:50.013Z</time>
      </trkpt>
      <trkpt lat="41.97856167" lon="2.85926833">
        <ele>162.0</ele>
        <time>2021-08-21T08:06:51.026Z</time>
      </trkpt>
      <trkpt lat="41.97862167" lon="2.85918833">
        <ele>162.0</ele>
        <time>2021-08-21T08:06:52.023Z</time>
      </trkpt>
      <trkpt lat="41.97862167" lon="2.85918833">
        <ele>162.0</ele>
        <time>2021-08-21T08:06:53.007Z</time>
      </trkpt>
      <trkpt lat="41.97867" lon="2.859095">
        <ele>162.0</ele>
        <time>2021-08-21T08:06:54.021Z</time>
      </trkpt>
      <trkpt lat="41.97867" lon="2.859095">
        <ele>162.0</ele>
        <time>2021-08-21T08:06:54.997Z</time>
      </trkpt>
      <trkpt lat="41.97870167" lon="2.858985">
        <ele>161.0</ele>
        <time>2021-08-21T08:06:56.005Z</time>
      </trkpt>
      <trkpt lat="41.97870833" lon="2.85894167">
        <ele>162.0</ele>
        <time>2021-08-21T08:06:57.020Z</time>
      </trkpt>
      <trkpt lat="41.97870833" lon="2.85894167">
        <ele>162.0</ele>
        <time>2021-08-21T08:06:58.015Z</time>
      </trkpt>
      <trkpt lat="41.97868667" lon="2.85885167">
        <ele>162.0</ele>
        <time>2021-08-21T08:06:59.012Z</time>
      </trkpt>
      <trkpt lat="41.97868667" lon="2.85885167">
        <ele>162.0</ele>
        <time>2021-08-21T08:06:59.997Z</time>
      </trkpt>
      <trkpt lat="41.978655" lon="2.85876">
        <ele>162.0</ele>
        <time>2021-08-21T08:07:01.008Z</time>
      </trkpt>
      <trkpt lat="41.978655" lon="2.85876">
        <ele>162.0</ele>
        <time>2021-08-21T08:07:02.013Z</time>
      </trkpt>
      <trkpt lat="41.97865167" lon="2.85867">
        <ele>161.0</ele>
        <time>2021-08-21T08:07:02.995Z</time>
      </trkpt>
      <trkpt lat="41.97865833" lon="2.85862167">
        <ele>161.0</ele>
        <time>2021-08-21T08:07:04.024Z</time>
      </trkpt>
      <trkpt lat="41.97865833" lon="2.85862167">
        <ele>161.0</ele>
        <time>2021-08-21T08:07:04.999Z</time>
      </trkpt>
      <trkpt lat="41.97867667" lon="2.85853">
        <ele>160.0</ele>
        <time>2021-08-21T08:07:06.011Z</time>
      </trkpt>
      <trkpt lat="41.97867667" lon="2.85853">
        <ele>160.0</ele>
        <time>2021-08-21T08:07:07.017Z</time>
      </trkpt>
      <trkpt lat="41.97868167" lon="2.85847833">
        <ele>160.0</ele>
        <time>2021-08-21T08:07:08.011Z</time>
      </trkpt>
      <trkpt lat="41.97868167" lon="2.85847833">
        <ele>160.0</ele>
        <time>2021-08-21T08:07:09.028Z</time>
      </trkpt>
      <trkpt lat="41.9787" lon="2.85839833">
        <ele>159.0</ele>
        <time>2021-08-21T08:07:10.002Z</time>
      </trkpt>
      <trkpt lat="41.9787" lon="2.85839833">
        <ele>159.0</ele>
        <time>2021-08-21T08:07:11.016Z</time>
      </trkpt>
      <trkpt lat="41.978705" lon="2.85827167">
        <ele>159.0</ele>
        <time>2021-08-21T08:07:11.994Z</time>
      </trkpt>
      <trkpt lat="41.978705" lon="2.85827167">
        <ele>159.0</ele>
        <time>2021-08-21T08:07:13.027Z</time>
      </trkpt>
      <trkpt lat="41.97869" lon="2.85815833">
        <ele>159.0</ele>
        <time>2021-08-21T08:07:14.001Z</time>
      </trkpt>
      <trkpt lat="41.97869" lon="2.85815833">
        <ele>159.0</ele>
        <time>2021-08-21T08:07:15.014Z</time>
      </trkpt>
      <trkpt lat="41.97867" lon="2.85806">
        <ele>158.0</ele>
        <time>2021-08-21T08:07:16.033Z</time>
      </trkpt>
      <trkpt lat="41.97867" lon="2.85806">
        <ele>158.0</ele>
        <time>2021-08-21T08:07:16.998Z</time>
      </trkpt>
      <trkpt lat="41.97863667" lon="2.857955">
        <ele>158.0</ele>
        <time>2021-08-21T08:07:18.006Z</time>
      </trkpt>
      <trkpt lat="41.97863667" lon="2.857955">
        <ele>158.0</ele>
        <time>2021-08-21T08:07:19.005Z</time>
      </trkpt>
      <trkpt lat="41.97857" lon="2.85784333">
        <ele>157.0</ele>
        <time>2021-08-21T08:07:20.013Z</time>
      </trkpt>
      <trkpt lat="41.97857" lon="2.85784333">
        <ele>157.0</ele>
        <time>2021-08-21T08:07:21.031Z</time>
      </trkpt>
      <trkpt lat="41.97852333" lon="2.85773333">
        <ele>157.0</ele>
        <time>2021-08-21T08:07:22.000Z</time>
      </trkpt>
      <trkpt lat="41.97852333" lon="2.85773333">
        <ele>157.0</ele>
        <time>2021-08-21T08:07:23.013Z</time>
      </trkpt>
      <trkpt lat="41.978475" lon="2.85759167">
        <ele>156.0</ele>
        <time>2021-08-21T08:07:23.992Z</time>
      </trkpt>
      <trkpt lat="41.978475" lon="2.85759167">
        <ele>156.0</ele>
        <time>2021-08-21T08:07:25.014Z</time>
      </trkpt>
      <trkpt lat="41.97845667" lon="2.85746">
        <ele>156.0</ele>
        <time>2021-08-21T08:07:26.005Z</time>
      </trkpt>
      <trkpt lat="41.97845667" lon="2.85746">
        <ele>156.0</ele>
        <time>2021-08-21T08:07:27.023Z</time>
      </trkpt>
      <trkpt lat="41.97847833" lon="2.85735333">
        <ele>156.0</ele>
        <time>2021-08-21T08:07:28.023Z</time>
      </trkpt>
      <trkpt lat="41.97847833" lon="2.85735333">
        <ele>156.0</ele>
        <time>2021-08-21T08:07:29.029Z</time>
      </trkpt>
      <trkpt lat="41.978515" lon="2.857245">
        <ele>155.0</ele>
        <time>2021-08-21T08:07:30.003Z</time>
      </trkpt>
      <trkpt lat="41.978515" lon="2.857245">
        <ele>155.0</ele>
        <time>2021-08-21T08:07:31.018Z</time>
      </trkpt>
      <trkpt lat="41.97856167" lon="2.85715">
        <ele>155.0</ele>
        <time>2021-08-21T08:07:32.024Z</time>
      </trkpt>
      <trkpt lat="41.97856167" lon="2.85715">
        <ele>155.0</ele>
        <time>2021-08-21T08:07:33.027Z</time>
      </trkpt>
      <trkpt lat="41.97863" lon="2.85707667">
        <ele>154.0</ele>
        <time>2021-08-21T08:07:34.002Z</time>
      </trkpt>
      <trkpt lat="41.97863" lon="2.85707667">
        <ele>154.0</ele>
        <time>2021-08-21T08:07:35.016Z</time>
      </trkpt>
      <trkpt lat="41.978705" lon="2.85701167">
        <ele>154.0</ele>
        <time>2021-08-21T08:07:35.994Z</time>
      </trkpt>
      <trkpt lat="41.978705" lon="2.85701167">
        <ele>154.0</ele>
        <time>2021-08-21T08:07:37.029Z</time>
      </trkpt>
      <trkpt lat="41.978785" lon="2.856955">
        <ele>154.0</ele>
        <time>2021-08-21T08:07:37.994Z</time>
      </trkpt>
      <trkpt lat="41.978785" lon="2.856955">
        <ele>154.0</ele>
        <time>2021-08-21T08:07:39.001Z</time>
      </trkpt>
      <trkpt lat="41.978835" lon="2.85691333">
        <ele>153.0</ele>
        <time>2021-08-21T08:07:39.992Z</time>
      </trkpt>
      <trkpt lat="41.97886" lon="2.85688833">
        <ele>153.0</ele>
        <time>2021-08-21T08:07:41.030Z</time>
      </trkpt>
      <trkpt lat="41.97889" lon="2.856865">
        <ele>153.0</ele>
        <time>2021-08-21T08:07:42.005Z</time>
      </trkpt>
      <trkpt lat="41.97889" lon="2.856865">
        <ele>153.0</ele>
        <time>2021-08-21T08:07:43.010Z</time>
      </trkpt>
      <trkpt lat="41.978945" lon="2.85680667">
        <ele>153.0</ele>
        <time>2021-08-21T08:07:44.025Z</time>
      </trkpt>
      <trkpt lat="41.978945" lon="2.85680667">
        <ele>153.0</ele>
        <time>2021-08-21T08:07:44.997Z</time>
      </trkpt>
      <trkpt lat="41.978975" lon="2.85668167">
        <ele>153.0</ele>
        <time>2021-08-21T08:07:46.014Z</time>
      </trkpt>
      <trkpt lat="41.978975" lon="2.85668167">
        <ele>153.0</ele>
        <time>2021-08-21T08:07:47.001Z</time>
      </trkpt>
      <trkpt lat="41.97899" lon="2.85654333">
        <ele>153.0</ele>
        <time>2021-08-21T08:07:47.992Z</time>
      </trkpt>
      <trkpt lat="41.97899" lon="2.85654333">
        <ele>153.0</ele>
        <time>2021-08-21T08:07:49.007Z</time>
      </trkpt>
      <trkpt lat="41.97902333" lon="2.85639833">
        <ele>152.0</ele>
        <time>2021-08-21T08:07:50.015Z</time>
      </trkpt>
      <trkpt lat="41.97902333" lon="2.85639833">
        <ele>152.0</ele>
        <time>2021-08-21T08:07:51.011Z</time>
      </trkpt>
      <trkpt lat="41.97906" lon="2.85627333">
        <ele>152.0</ele>
        <time>2021-08-21T08:07:52.023Z</time>
      </trkpt>
      <trkpt lat="41.97906" lon="2.85627333">
        <ele>152.0</ele>
        <time>2021-08-21T08:07:53.021Z</time>
      </trkpt>
      <trkpt lat="41.979085" lon="2.856175">
        <ele>152.0</ele>
        <time>2021-08-21T08:07:53.994Z</time>
      </trkpt>
      <trkpt lat="41.979085" lon="2.856175">
        <ele>152.0</ele>
        <time>2021-08-21T08:07:55.007Z</time>
      </trkpt>
      <trkpt lat="41.97909333" lon="2.856065">
        <ele>152.0</ele>
        <time>2021-08-21T08:07:56.032Z</time>
      </trkpt>
      <trkpt lat="41.97909333" lon="2.856065">
        <ele>152.0</ele>
        <time>2021-08-21T08:07:57.007Z</time>
      </trkpt>
      <trkpt lat="41.979095" lon="2.85595">
        <ele>152.0</ele>
        <time>2021-08-21T08:07:58.029Z</time>
      </trkpt>
      <trkpt lat="41.979095" lon="2.85595">
        <ele>152.0</ele>
        <time>2021-08-21T08:07:59.019Z</time>
      </trkpt>
      <trkpt lat="41.97909833" lon="2.85580667">
        <ele>151.0</ele>
        <time>2021-08-21T08:08:00.027Z</time>
      </trkpt>
      <trkpt lat="41.97909833" lon="2.85580667">
        <ele>151.0</ele>
        <time>2021-08-21T08:08:00.997Z</time>
      </trkpt>
      <trkpt lat="41.97912" lon="2.85567">
        <ele>151.0</ele>
        <time>2021-08-21T08:08:02.028Z</time>
      </trkpt>
      <trkpt lat="41.97912" lon="2.85567">
        <ele>151.0</ele>
        <time>2021-08-21T08:08:03.002Z</time>
      </trkpt>
      <trkpt lat="41.97915167" lon="2.85554667">
        <ele>151.0</ele>
        <time>2021-08-21T08:08:04.029Z</time>
      </trkpt>
      <trkpt lat="41.97915167" lon="2.85554667">
        <ele>151.0</ele>
        <time>2021-08-21T08:08:04.993Z</time>
      </trkpt>
      <trkpt lat="41.97920667" lon="2.85546">
        <ele>151.0</ele>
        <time>2021-08-21T08:08:06.015Z</time>
      </trkpt>
      <trkpt lat="41.97920667" lon="2.85546">
        <ele>151.0</ele>
        <time>2021-08-21T08:08:07.030Z</time>
      </trkpt>
      <trkpt lat="41.97925167" lon="2.855355">
        <ele>150.0</ele>
        <time>2021-08-21T08:08:08.004Z</time>
      </trkpt>
      <trkpt lat="41.97925167" lon="2.855355">
        <ele>150.0</ele>
        <time>2021-08-21T08:08:09.018Z</time>
      </trkpt>
      <trkpt lat="41.97929333" lon="2.85522333">
        <ele>150.0</ele>
        <time>2021-08-21T08:08:09.998Z</time>
      </trkpt>
      <trkpt lat="41.97931" lon="2.85516167">
        <ele>150.0</ele>
        <time>2021-08-21T08:08:10.994Z</time>
      </trkpt>
      <trkpt lat="41.97932667" lon="2.85510333">
        <ele>150.0</ele>
        <time>2021-08-21T08:08:12.002Z</time>
      </trkpt>
      <trkpt lat="41.97932667" lon="2.85510333">
        <ele>150.0</ele>
        <time>2021-08-21T08:08:13.010Z</time>
      </trkpt>
      <trkpt lat="41.97936333" lon="2.85497833">
        <ele>150.0</ele>
        <time>2021-08-21T08:08:14.023Z</time>
      </trkpt>
      <trkpt lat="41.97936333" lon="2.85497833">
        <ele>150.0</ele>
        <time>2021-08-21T08:08:14.996Z</time>
      </trkpt>
      <trkpt lat="41.97941" lon="2.85485333">
        <ele>150.0</ele>
        <time>2021-08-21T08:08:16.020Z</time>
      </trkpt>
      <trkpt lat="41.97941" lon="2.85485333">
        <ele>150.0</ele>
        <time>2021-08-21T08:08:17.029Z</time>
      </trkpt>
      <trkpt lat="41.979475" lon="2.85472667">
        <ele>150.0</ele>
        <time>2021-08-21T08:08:17.996Z</time>
      </trkpt>
      <trkpt lat="41.979475" lon="2.85472667">
        <ele>150.0</ele>
        <time>2021-08-21T08:08:19.024Z</time>
      </trkpt>
      <trkpt lat="41.97954" lon="2.85458667">
        <ele>150.0</ele>
        <time>2021-08-21T08:08:20.025Z</time>
      </trkpt>
      <trkpt lat="41.97954" lon="2.85458667">
        <ele>150.0</ele>
        <time>2021-08-21T08:08:21.031Z</time>
      </trkpt>
      <trkpt lat="41.97960667" lon="2.85446333">
        <ele>149.0</ele>
        <time>2021-08-21T08:08:22.008Z</time>
      </trkpt>
      <trkpt lat="41.97960667" lon="2.85446333">
        <ele>149.0</ele>
        <time>2021-08-21T08:08:23.021Z</time>
      </trkpt>
      <trkpt lat="41.97967833" lon="2.85437">
        <ele>150.0</ele>
        <time>2021-08-21T08:08:24.025Z</time>
      </trkpt>
      <trkpt lat="41.97967833" lon="2.85437">
        <ele>150.0</ele>
        <time>2021-08-21T08:08:25.017Z</time>
      </trkpt>
      <trkpt lat="41.97972167" lon="2.85425167">
        <ele>149.0</ele>
        <time>2021-08-21T08:08:26.029Z</time>
      </trkpt>
      <trkpt lat="41.97974333" lon="2.85422">
        <ele>149.0</ele>
        <time>2021-08-21T08:08:27.017Z</time>
      </trkpt>
      <trkpt lat="41.97974333" lon="2.85422">
        <ele>149.0</ele>
        <time>2021-08-21T08:08:28.008Z</time>
      </trkpt>
      <trkpt lat="41.97976167" lon="2.85414667">
        <ele>149.0</ele>
        <time>2021-08-21T08:08:29.016Z</time>
      </trkpt>
      <trkpt lat="41.97976167" lon="2.85414667">
        <ele>149.0</ele>
        <time>2021-08-21T08:08:30.024Z</time>
      </trkpt>
      <trkpt lat="41.97973667" lon="2.85407333">
        <ele>149.0</ele>
        <time>2021-08-21T08:08:31.023Z</time>
      </trkpt>
      <trkpt lat="41.97973667" lon="2.85407333">
        <ele>149.0</ele>
        <time>2021-08-21T08:08:32.012Z</time>
      </trkpt>
      <trkpt lat="41.97973333" lon="2.85398833">
        <ele>148.0</ele>
        <time>2021-08-21T08:08:33.019Z</time>
      </trkpt>
      <trkpt lat="41.97973333" lon="2.85398833">
        <ele>148.0</ele>
        <time>2021-08-21T08:08:33.992Z</time>
      </trkpt>
      <trkpt lat="41.97977667" lon="2.85395667">
        <ele>148.0</ele>
        <time>2021-08-21T08:08:35.000Z</time>
      </trkpt>
      <trkpt lat="41.97980167" lon="2.85394667">
        <ele>147.0</ele>
        <time>2021-08-21T08:08:36.007Z</time>
      </trkpt>
      <trkpt lat="41.97980167" lon="2.85394667">
        <ele>147.0</ele>
        <time>2021-08-21T08:08:37.020Z</time>
      </trkpt>
      <trkpt lat="41.97983833" lon="2.85390833">
        <ele>147.0</ele>
        <time>2021-08-21T08:08:37.994Z</time>
      </trkpt>
      <trkpt lat="41.97983833" lon="2.85390833">
        <ele>147.0</ele>
        <time>2021-08-21T08:08:39.008Z</time>
      </trkpt>
      <trkpt lat="41.97988167" lon="2.85385333">
        <ele>147.0</ele>
        <time>2021-08-21T08:08:40.023Z</time>
      </trkpt>
      <trkpt lat="41.97988167" lon="2.85385333">
        <ele>147.0</ele>
        <time>2021-08-21T08:08:40.996Z</time>
      </trkpt>
      <trkpt lat="41.97992" lon="2.85379667">
        <ele>147.0</ele>
        <time>2021-08-21T08:08:42.010Z</time>
      </trkpt>
      <trkpt lat="41.97992" lon="2.85379667">
        <ele>147.0</ele>
        <time>2021-08-21T08:08:42.996Z</time>
      </trkpt>
      <trkpt lat="41.97995" lon="2.85372">
        <ele>146.0</ele>
        <time>2021-08-21T08:08:44.012Z</time>
      </trkpt>
      <trkpt lat="41.97995" lon="2.85372">
        <ele>146.0</ele>
        <time>2021-08-21T08:08:44.993Z</time>
      </trkpt>
      <trkpt lat="41.97999" lon="2.85362833">
        <ele>146.0</ele>
        <time>2021-08-21T08:08:46.003Z</time>
      </trkpt>
      <trkpt lat="41.98001167" lon="2.85358167">
        <ele>146.0</ele>
        <time>2021-08-21T08:08:47.000Z</time>
      </trkpt>
      <trkpt lat="41.98001167" lon="2.85358167">
        <ele>146.0</ele>
        <time>2021-08-21T08:08:48.004Z</time>
      </trkpt>
      <trkpt lat="41.98003" lon="2.85347667">
        <ele>146.0</ele>
        <time>2021-08-21T08:08:49.014Z</time>
      </trkpt>
      <trkpt lat="41.98003" lon="2.85347667">
        <ele>146.0</ele>
        <time>2021-08-21T08:08:50.027Z</time>
      </trkpt>
      <trkpt lat="41.98001667" lon="2.85336833">
        <ele>146.0</ele>
        <time>2021-08-21T08:08:51.008Z</time>
      </trkpt>
      <trkpt lat="41.98001667" lon="2.85336833">
        <ele>146.0</ele>
        <time>2021-08-21T08:08:52.016Z</time>
      </trkpt>
      <trkpt lat="41.97999667" lon="2.85328667">
        <ele>146.0</ele>
        <time>2021-08-21T08:08:53.023Z</time>
      </trkpt>
      <trkpt lat="41.97999" lon="2.85322667">
        <ele>145.0</ele>
        <time>2021-08-21T08:08:54.012Z</time>
      </trkpt>
      <trkpt lat="41.97999" lon="2.85322667">
        <ele>145.0</ele>
        <time>2021-08-21T08:08:55.005Z</time>
      </trkpt>
      <trkpt lat="41.97998333" lon="2.85311">
        <ele>145.0</ele>
        <time>2021-08-21T08:08:56.023Z</time>
      </trkpt>
      <trkpt lat="41.97998333" lon="2.85311">
        <ele>145.0</ele>
        <time>2021-08-21T08:08:57.013Z</time>
      </trkpt>
      <trkpt lat="41.97996833" lon="2.85294167">
        <ele>144.0</ele>
        <time>2021-08-21T08:08:58.021Z</time>
      </trkpt>
      <trkpt lat="41.97995667" lon="2.85284667">
        <ele>144.0</ele>
        <time>2021-08-21T08:08:59.026Z</time>
      </trkpt>
      <trkpt lat="41.97995667" lon="2.85284667">
        <ele>144.0</ele>
        <time>2021-08-21T08:09:00.029Z</time>
      </trkpt>
      <trkpt lat="41.97992833" lon="2.85267667">
        <ele>143.0</ele>
        <time>2021-08-21T08:09:01.009Z</time>
      </trkpt>
      <trkpt lat="41.97992833" lon="2.85267667">
        <ele>143.0</ele>
        <time>2021-08-21T08:09:02.027Z</time>
      </trkpt>
      <trkpt lat="41.97992" lon="2.85254833">
        <ele>143.0</ele>
        <time>2021-08-21T08:09:03.005Z</time>
      </trkpt>
      <trkpt lat="41.97992" lon="2.85254833">
        <ele>143.0</ele>
        <time>2021-08-21T08:09:04.018Z</time>
      </trkpt>
      <trkpt lat="41.97996167" lon="2.85245167">
        <ele>143.0</ele>
        <time>2021-08-21T08:09:05.003Z</time>
      </trkpt>
      <trkpt lat="41.98" lon="2.852425">
        <ele>142.0</ele>
        <time>2021-08-21T08:09:06.027Z</time>
      </trkpt>
      <trkpt lat="41.98" lon="2.852425">
        <ele>142.0</ele>
        <time>2021-08-21T08:09:07.015Z</time>
      </trkpt>
      <trkpt lat="41.98009167" lon="2.852375">
        <ele>142.0</ele>
        <time>2021-08-21T08:09:08.066Z</time>
      </trkpt>
      <trkpt lat="41.98009167" lon="2.852375">
        <ele>142.0</ele>
        <time>2021-08-21T08:09:09.008Z</time>
      </trkpt>
      <trkpt lat="41.980195" lon="2.85230333">
        <ele>142.0</ele>
        <time>2021-08-21T08:09:10.016Z</time>
      </trkpt>
      <trkpt lat="41.98025167" lon="2.85226167">
        <ele>141.0</ele>
        <time>2021-08-21T08:09:10.998Z</time>
      </trkpt>
      <trkpt lat="41.98025167" lon="2.85226167">
        <ele>141.0</ele>
        <time>2021-08-21T08:09:12.012Z</time>
      </trkpt>
      <trkpt lat="41.98036667" lon="2.85213667">
        <ele>141.0</ele>
        <time>2021-08-21T08:09:13.018Z</time>
      </trkpt>
      <trkpt lat="41.98036667" lon="2.85213667">
        <ele>141.0</ele>
        <time>2021-08-21T08:09:13.992Z</time>
      </trkpt>
      <trkpt lat="41.98048" lon="2.85198667">
        <ele>141.0</ele>
        <time>2021-08-21T08:09:15.001Z</time>
      </trkpt>
      <trkpt lat="41.98048" lon="2.85198667">
        <ele>141.0</ele>
        <time>2021-08-21T08:09:16.009Z</time>
      </trkpt>
      <trkpt lat="41.98060167" lon="2.85184">
        <ele>140.0</ele>
        <time>2021-08-21T08:09:16.994Z</time>
      </trkpt>
      <trkpt lat="41.980665" lon="2.851775">
        <ele>140.0</ele>
        <time>2021-08-21T08:09:18.027Z</time>
      </trkpt>
      <trkpt lat="41.980665" lon="2.851775">
        <ele>140.0</ele>
        <time>2021-08-21T08:09:18.995Z</time>
      </trkpt>
      <trkpt lat="41.98079167" lon="2.85164">
        <ele>140.0</ele>
        <time>2021-08-21T08:09:20.024Z</time>
      </trkpt>
      <trkpt lat="41.98079167" lon="2.85164">
        <ele>140.0</ele>
        <time>2021-08-21T08:09:21.008Z</time>
      </trkpt>
      <trkpt lat="41.98092" lon="2.85150667">
        <ele>139.0</ele>
        <time>2021-08-21T08:09:22.025Z</time>
      </trkpt>
      <trkpt lat="41.98092" lon="2.85150667">
        <ele>139.0</ele>
        <time>2021-08-21T08:09:23.030Z</time>
      </trkpt>
      <trkpt lat="41.98103833" lon="2.85134167">
        <ele>139.0</ele>
        <time>2021-08-21T08:09:23.993Z</time>
      </trkpt>
      <trkpt lat="41.98103833" lon="2.85134167">
        <ele>139.0</ele>
        <time>2021-08-21T08:09:25.028Z</time>
      </trkpt>
      <trkpt lat="41.98111833" lon="2.85115333">
        <ele>138.0</ele>
        <time>2021-08-21T08:09:26.005Z</time>
      </trkpt>
      <trkpt lat="41.98111833" lon="2.85115333">
        <ele>138.0</ele>
        <time>2021-08-21T08:09:27.019Z</time>
      </trkpt>
      <trkpt lat="41.98115" lon="2.85095">
        <ele>137.0</ele>
        <time>2021-08-21T08:09:28.024Z</time>
      </trkpt>
      <trkpt lat="41.98115" lon="2.85095">
        <ele>137.0</ele>
        <time>2021-08-21T08:09:29.002Z</time>
      </trkpt>
      <trkpt lat="41.98113667" lon="2.85072">
        <ele>136.0</ele>
        <time>2021-08-21T08:09:30.008Z</time>
      </trkpt>
      <trkpt lat="41.98113667" lon="2.85072">
        <ele>136.0</ele>
        <time>2021-08-21T08:09:31.022Z</time>
      </trkpt>
      <trkpt lat="41.981105" lon="2.85050333">
        <ele>135.0</ele>
        <time>2021-08-21T08:09:32.001Z</time>
      </trkpt>
      <trkpt lat="41.981105" lon="2.85050333">
        <ele>135.0</ele>
        <time>2021-08-21T08:09:32.997Z</time>
      </trkpt>
      <trkpt lat="41.98109167" lon="2.850305">
        <ele>135.0</ele>
        <time>2021-08-21T08:09:33.995Z</time>
      </trkpt>
      <trkpt lat="41.98109167" lon="2.850305">
        <ele>135.0</ele>
        <time>2021-08-21T08:09:34.992Z</time>
      </trkpt>
      <trkpt lat="41.98110333" lon="2.85012833">
        <ele>133.0</ele>
        <time>2021-08-21T08:09:36.003Z</time>
      </trkpt>
      <trkpt lat="41.98112" lon="2.85004167">
        <ele>133.0</ele>
        <time>2021-08-21T08:09:37.011Z</time>
      </trkpt>
      <trkpt lat="41.98112" lon="2.85004167">
        <ele>133.0</ele>
        <time>2021-08-21T08:09:38.017Z</time>
      </trkpt>
      <trkpt lat="41.98118167" lon="2.84987333">
        <ele>132.0</ele>
        <time>2021-08-21T08:09:39.026Z</time>
      </trkpt>
      <trkpt lat="41.98118167" lon="2.84987333">
        <ele>132.0</ele>
        <time>2021-08-21T08:09:39.999Z</time>
      </trkpt>
      <trkpt lat="41.98125333" lon="2.84970333">
        <ele>132.0</ele>
        <time>2021-08-21T08:09:40.994Z</time>
      </trkpt>
      <trkpt lat="41.98129667" lon="2.84961167">
        <ele>131.0</ele>
        <time>2021-08-21T08:09:42.028Z</time>
      </trkpt>
      <trkpt lat="41.98129667" lon="2.84961167">
        <ele>131.0</ele>
        <time>2021-08-21T08:09:42.993Z</time>
      </trkpt>
      <trkpt lat="41.98137667" lon="2.84941333">
        <ele>131.0</ele>
        <time>2021-08-21T08:09:44.000Z</time>
      </trkpt>
      <trkpt lat="41.98137667" lon="2.84941333">
        <ele>131.0</ele>
        <time>2021-08-21T08:09:45.029Z</time>
      </trkpt>
      <trkpt lat="41.981455" lon="2.849215">
        <ele>130.0</ele>
        <time>2021-08-21T08:09:46.020Z</time>
      </trkpt>
      <trkpt lat="41.98150167" lon="2.84913">
        <ele>130.0</ele>
        <time>2021-08-21T08:09:46.994Z</time>
      </trkpt>
      <trkpt lat="41.98150167" lon="2.84913">
        <ele>130.0</ele>
        <time>2021-08-21T08:09:48.001Z</time>
      </trkpt>
      <trkpt lat="41.98159" lon="2.84899">
        <ele>129.0</ele>
        <time>2021-08-21T08:09:49.012Z</time>
      </trkpt>
      <trkpt lat="41.98159" lon="2.84899">
        <ele>129.0</ele>
        <time>2021-08-21T08:09:50.025Z</time>
      </trkpt>
      <trkpt lat="41.98167167" lon="2.84885833">
        <ele>129.0</ele>
        <time>2021-08-21T08:09:50.993Z</time>
      </trkpt>
      <trkpt lat="41.98167167" lon="2.84885833">
        <ele>129.0</ele>
        <time>2021-08-21T08:09:52.007Z</time>
      </trkpt>
      <trkpt lat="41.98175833" lon="2.848695">
        <ele>128.0</ele>
        <time>2021-08-21T08:09:53.020Z</time>
      </trkpt>
      <trkpt lat="41.9818" lon="2.84861833">
        <ele>128.0</ele>
        <time>2021-08-21T08:09:54.019Z</time>
      </trkpt>
      <trkpt lat="41.9818" lon="2.84861833">
        <ele>128.0</ele>
        <time>2021-08-21T08:09:54.994Z</time>
      </trkpt>
      <trkpt lat="41.98186167" lon="2.84845667">
        <ele>127.0</ele>
        <time>2021-08-21T08:09:56.014Z</time>
      </trkpt>
      <trkpt lat="41.98186167" lon="2.84845667">
        <ele>127.0</ele>
        <time>2021-08-21T08:09:56.992Z</time>
      </trkpt>
      <trkpt lat="41.98190333" lon="2.848285">
        <ele>126.0</ele>
        <time>2021-08-21T08:09:58.114Z</time>
      </trkpt>
      <trkpt lat="41.98190333" lon="2.848285">
        <ele>126.0</ele>
        <time>2021-08-21T08:09:59.011Z</time>
      </trkpt>
      <trkpt lat="41.98194333" lon="2.848135">
        <ele>126.0</ele>
        <time>2021-08-21T08:10:00.023Z</time>
      </trkpt>
      <trkpt lat="41.98194333" lon="2.848135">
        <ele>126.0</ele>
        <time>2021-08-21T08:10:01.030Z</time>
      </trkpt>
      <trkpt lat="41.981975" lon="2.84799">
        <ele>125.0</ele>
        <time>2021-08-21T08:10:02.014Z</time>
      </trkpt>
      <trkpt lat="41.981975" lon="2.84799">
        <ele>125.0</ele>
        <time>2021-08-21T08:10:03.029Z</time>
      </trkpt>
      <trkpt lat="41.98200333" lon="2.84785167">
        <ele>124.0</ele>
        <time>2021-08-21T08:10:04.016Z</time>
      </trkpt>
      <trkpt lat="41.98200333" lon="2.84785167">
        <ele>124.0</ele>
        <time>2021-08-21T08:10:05.004Z</time>
      </trkpt>
      <trkpt lat="41.98205167" lon="2.84772167">
        <ele>124.0</ele>
        <time>2021-08-21T08:10:06.013Z</time>
      </trkpt>
      <trkpt lat="41.98205167" lon="2.84772167">
        <ele>124.0</ele>
        <time>2021-08-21T08:10:07.027Z</time>
      </trkpt>
      <trkpt lat="41.98209" lon="2.84758667">
        <ele>124.0</ele>
        <time>2021-08-21T08:10:08.021Z</time>
      </trkpt>
      <trkpt lat="41.98209" lon="2.84758667">
        <ele>124.0</ele>
        <time>2021-08-21T08:10:09.016Z</time>
      </trkpt>
      <trkpt lat="41.98213" lon="2.84744333">
        <ele>123.0</ele>
        <time>2021-08-21T08:10:10.028Z</time>
      </trkpt>
      <trkpt lat="41.98215" lon="2.847375">
        <ele>123.0</ele>
        <time>2021-08-21T08:10:11.028Z</time>
      </trkpt>
      <trkpt lat="41.98217" lon="2.84731333">
        <ele>122.0</ele>
        <time>2021-08-21T08:10:11.997Z</time>
      </trkpt>
      <trkpt lat="41.98217" lon="2.84731333">
        <ele>122.0</ele>
        <time>2021-08-21T08:10:13.005Z</time>
      </trkpt>
      <trkpt lat="41.98220667" lon="2.84720167">
        <ele>122.0</ele>
        <time>2021-08-21T08:10:14.013Z</time>
      </trkpt>
      <trkpt lat="41.98220667" lon="2.84720167">
        <ele>122.0</ele>
        <time>2021-08-21T08:10:15.027Z</time>
      </trkpt>
      <trkpt lat="41.98224" lon="2.84711333">
        <ele>122.0</ele>
        <time>2021-08-21T08:10:16.004Z</time>
      </trkpt>
      <trkpt lat="41.98224" lon="2.84711333">
        <ele>122.0</ele>
        <time>2021-08-21T08:10:17.006Z</time>
      </trkpt>
      <trkpt lat="41.98226333" lon="2.84703333">
        <ele>122.0</ele>
        <time>2021-08-21T08:10:18.016Z</time>
      </trkpt>
      <trkpt lat="41.98226333" lon="2.84703333">
        <ele>122.0</ele>
        <time>2021-08-21T08:10:19.029Z</time>
      </trkpt>
      <trkpt lat="41.982285" lon="2.84695667">
        <ele>122.0</ele>
        <time>2021-08-21T08:10:19.995Z</time>
      </trkpt>
      <trkpt lat="41.982285" lon="2.84695667">
        <ele>122.0</ele>
        <time>2021-08-21T08:10:21.018Z</time>
      </trkpt>
      <trkpt lat="41.98230667" lon="2.84688">
        <ele>121.0</ele>
        <time>2021-08-21T08:10:22.028Z</time>
      </trkpt>
      <trkpt lat="41.98230667" lon="2.84688">
        <ele>121.0</ele>
        <time>2021-08-21T08:10:23.015Z</time>
      </trkpt>
      <trkpt lat="41.98233833" lon="2.84678667">
        <ele>121.0</ele>
        <time>2021-08-21T08:10:24.033Z</time>
      </trkpt>
      <trkpt lat="41.98233833" lon="2.84678667">
        <ele>121.0</ele>
        <time>2021-08-21T08:10:25.017Z</time>
      </trkpt>
      <trkpt lat="41.98240167" lon="2.84668">
        <ele>121.0</ele>
        <time>2021-08-21T08:10:26.031Z</time>
      </trkpt>
      <trkpt lat="41.98242" lon="2.846635">
        <ele>121.0</ele>
        <time>2021-08-21T08:10:27.010Z</time>
      </trkpt>
      <trkpt lat="41.98242" lon="2.846635">
        <ele>121.0</ele>
        <time>2021-08-21T08:10:28.013Z</time>
      </trkpt>
      <trkpt lat="41.982455" lon="2.84654333">
        <ele>121.0</ele>
        <time>2021-08-21T08:10:29.021Z</time>
      </trkpt>
      <trkpt lat="41.98247" lon="2.84649333">
        <ele>120.0</ele>
        <time>2021-08-21T08:10:30.003Z</time>
      </trkpt>
      <trkpt lat="41.98247" lon="2.84649333">
        <ele>120.0</ele>
        <time>2021-08-21T08:10:31.017Z</time>
      </trkpt>
      <trkpt lat="41.98249" lon="2.84637667">
        <ele>120.0</ele>
        <time>2021-08-21T08:10:32.023Z</time>
      </trkpt>
      <trkpt lat="41.98249" lon="2.84637667">
        <ele>120.0</ele>
        <time>2021-08-21T08:10:33.030Z</time>
      </trkpt>
      <trkpt lat="41.98251667" lon="2.84626167">
        <ele>120.0</ele>
        <time>2021-08-21T08:10:34.031Z</time>
      </trkpt>
      <trkpt lat="41.98251667" lon="2.84626167">
        <ele>120.0</ele>
        <time>2021-08-21T08:10:34.994Z</time>
      </trkpt>
      <trkpt lat="41.98256" lon="2.84614833">
        <ele>119.0</ele>
        <time>2021-08-21T08:10:36.010Z</time>
      </trkpt>
      <trkpt lat="41.98256" lon="2.84614833">
        <ele>119.0</ele>
        <time>2021-08-21T08:10:36.997Z</time>
      </trkpt>
      <trkpt lat="41.98260333" lon="2.846025">
        <ele>119.0</ele>
        <time>2021-08-21T08:10:38.026Z</time>
      </trkpt>
      <trkpt lat="41.98260333" lon="2.846025">
        <ele>119.0</ele>
        <time>2021-08-21T08:10:39.014Z</time>
      </trkpt>
      <trkpt lat="41.98264667" lon="2.84590333">
        <ele>118.0</ele>
        <time>2021-08-21T08:10:40.029Z</time>
      </trkpt>
      <trkpt lat="41.98264667" lon="2.84590333">
        <ele>118.0</ele>
        <time>2021-08-21T08:10:41.016Z</time>
      </trkpt>
      <trkpt lat="41.982695" lon="2.84578">
        <ele>118.0</ele>
        <time>2021-08-21T08:10:42.006Z</time>
      </trkpt>
      <trkpt lat="41.982695" lon="2.84578">
        <ele>118.0</ele>
        <time>2021-08-21T08:10:43.011Z</time>
      </trkpt>
      <trkpt lat="41.98274333" lon="2.84566">
        <ele>117.0</ele>
        <time>2021-08-21T08:10:44.018Z</time>
      </trkpt>
      <trkpt lat="41.98274333" lon="2.84566">
        <ele>117.0</ele>
        <time>2021-08-21T08:10:44.993Z</time>
      </trkpt>
      <trkpt lat="41.982795" lon="2.845555">
        <ele>116.0</ele>
        <time>2021-08-21T08:10:46.018Z</time>
      </trkpt>
      <trkpt lat="41.982795" lon="2.845555">
        <ele>116.0</ele>
        <time>2021-08-21T08:10:47.025Z</time>
      </trkpt>
      <trkpt lat="41.98283667" lon="2.84544167">
        <ele>116.0</ele>
        <time>2021-08-21T08:10:47.995Z</time>
      </trkpt>
      <trkpt lat="41.98283667" lon="2.84544167">
        <ele>116.0</ele>
        <time>2021-08-21T08:10:48.997Z</time>
      </trkpt>
      <trkpt lat="41.98288" lon="2.84532667">
        <ele>116.0</ele>
        <time>2021-08-21T08:10:50.006Z</time>
      </trkpt>
      <trkpt lat="41.98288" lon="2.84532667">
        <ele>116.0</ele>
        <time>2021-08-21T08:10:51.021Z</time>
      </trkpt>
      <trkpt lat="41.98292" lon="2.84520333">
        <ele>116.0</ele>
        <time>2021-08-21T08:10:52.020Z</time>
      </trkpt>
      <trkpt lat="41.98292" lon="2.84520333">
        <ele>116.0</ele>
        <time>2021-08-21T08:10:53.029Z</time>
      </trkpt>
      <trkpt lat="41.98296167" lon="2.84506833">
        <ele>116.0</ele>
        <time>2021-08-21T08:10:53.995Z</time>
      </trkpt>
      <trkpt lat="41.98296167" lon="2.84506833">
        <ele>116.0</ele>
        <time>2021-08-21T08:10:55.008Z</time>
      </trkpt>
      <trkpt lat="41.983" lon="2.844925">
        <ele>116.0</ele>
        <time>2021-08-21T08:10:56.022Z</time>
      </trkpt>
      <trkpt lat="41.983" lon="2.844925">
        <ele>116.0</ele>
        <time>2021-08-21T08:10:57.007Z</time>
      </trkpt>
      <trkpt lat="41.98305" lon="2.84480333">
        <ele>116.0</ele>
        <time>2021-08-21T08:10:58.032Z</time>
      </trkpt>
      <trkpt lat="41.98305" lon="2.84480333">
        <ele>116.0</ele>
        <time>2021-08-21T08:10:59.006Z</time>
      </trkpt>
      <trkpt lat="41.98309833" lon="2.844685">
        <ele>116.0</ele>
        <time>2021-08-21T08:11:00.025Z</time>
      </trkpt>
      <trkpt lat="41.98309833" lon="2.844685">
        <ele>116.0</ele>
        <time>2021-08-21T08:11:01.000Z</time>
      </trkpt>
      <trkpt lat="41.98315833" lon="2.84456333">
        <ele>116.0</ele>
        <time>2021-08-21T08:11:01.992Z</time>
      </trkpt>
      <trkpt lat="41.98315833" lon="2.84456333">
        <ele>116.0</ele>
        <time>2021-08-21T08:11:03.004Z</time>
      </trkpt>
      <trkpt lat="41.98321167" lon="2.84445667">
        <ele>116.0</ele>
        <time>2021-08-21T08:11:04.021Z</time>
      </trkpt>
      <trkpt lat="41.98323833" lon="2.8444">
        <ele>116.0</ele>
        <time>2021-08-21T08:11:04.997Z</time>
      </trkpt>
      <trkpt lat="41.98323833" lon="2.8444">
        <ele>116.0</ele>
        <time>2021-08-21T08:11:06.010Z</time>
      </trkpt>
      <trkpt lat="41.98328" lon="2.84428">
        <ele>116.0</ele>
        <time>2021-08-21T08:11:07.019Z</time>
      </trkpt>
      <trkpt lat="41.98328" lon="2.84428">
        <ele>116.0</ele>
        <time>2021-08-21T08:11:07.993Z</time>
      </trkpt>
      <trkpt lat="41.98331833" lon="2.84416">
        <ele>117.0</ele>
        <time>2021-08-21T08:11:08.994Z</time>
      </trkpt>
      <trkpt lat="41.98331833" lon="2.84416">
        <ele>117.0</ele>
        <time>2021-08-21T08:11:09.999Z</time>
      </trkpt>
      <trkpt lat="41.98335167" lon="2.84404167">
        <ele>117.0</ele>
        <time>2021-08-21T08:11:11.011Z</time>
      </trkpt>
      <trkpt lat="41.98335167" lon="2.84404167">
        <ele>117.0</ele>
        <time>2021-08-21T08:11:12.018Z</time>
      </trkpt>
      <trkpt lat="41.98338667" lon="2.84391667">
        <ele>118.0</ele>
        <time>2021-08-21T08:11:13.006Z</time>
      </trkpt>
      <trkpt lat="41.983405" lon="2.84385">
        <ele>118.0</ele>
        <time>2021-08-21T08:11:13.995Z</time>
      </trkpt>
      <trkpt lat="41.983405" lon="2.84385">
        <ele>118.0</ele>
        <time>2021-08-21T08:11:15.003Z</time>
      </trkpt>
      <trkpt lat="41.98343667" lon="2.84372333">
        <ele>118.0</ele>
        <time>2021-08-21T08:11:16.011Z</time>
      </trkpt>
      <trkpt lat="41.98345167" lon="2.84366667">
        <ele>119.0</ele>
        <time>2021-08-21T08:11:17.029Z</time>
      </trkpt>
      <trkpt lat="41.98345167" lon="2.84366667">
        <ele>119.0</ele>
        <time>2021-08-21T08:11:18.001Z</time>
      </trkpt>
      <trkpt lat="41.98347333" lon="2.84355333">
        <ele>119.0</ele>
        <time>2021-08-21T08:11:19.026Z</time>
      </trkpt>
      <trkpt lat="41.98347333" lon="2.84355333">
        <ele>119.0</ele>
        <time>2021-08-21T08:11:19.998Z</time>
      </trkpt>
      <trkpt lat="41.98349" lon="2.843445">
        <ele>119.0</ele>
        <time>2021-08-21T08:11:21.023Z</time>
      </trkpt>
      <trkpt lat="41.98349" lon="2.843445">
        <ele>119.0</ele>
        <time>2021-08-21T08:11:21.997Z</time>
      </trkpt>
      <trkpt lat="41.98350833" lon="2.843335">
        <ele>120.0</ele>
        <time>2021-08-21T08:11:23.013Z</time>
      </trkpt>
      <trkpt lat="41.98350833" lon="2.843335">
        <ele>120.0</ele>
        <time>2021-08-21T08:11:24.030Z</time>
      </trkpt>
      <trkpt lat="41.983535" lon="2.84321667">
        <ele>120.0</ele>
        <time>2021-08-21T08:11:25.024Z</time>
      </trkpt>
      <trkpt lat="41.983535" lon="2.84321667">
        <ele>120.0</ele>
        <time>2021-08-21T08:11:26.006Z</time>
      </trkpt>
      <trkpt lat="41.98357167" lon="2.843045">
        <ele>119.0</ele>
        <time>2021-08-21T08:11:26.996Z</time>
      </trkpt>
      <trkpt lat="41.98357167" lon="2.843045">
        <ele>119.0</ele>
        <time>2021-08-21T08:11:28.020Z</time>
      </trkpt>
      <trkpt lat="41.98361667" lon="2.84288">
        <ele>117.0</ele>
        <time>2021-08-21T08:11:28.992Z</time>
      </trkpt>
      <trkpt lat="41.98361667" lon="2.84288">
        <ele>117.0</ele>
        <time>2021-08-21T08:11:30.000Z</time>
      </trkpt>
      <trkpt lat="41.98365333" lon="2.84272">
        <ele>115.0</ele>
        <time>2021-08-21T08:11:31.028Z</time>
      </trkpt>
      <trkpt lat="41.98365333" lon="2.84272">
        <ele>115.0</ele>
        <time>2021-08-21T08:11:32.004Z</time>
      </trkpt>
      <trkpt lat="41.983685" lon="2.84255667">
        <ele>113.0</ele>
        <time>2021-08-21T08:11:32.993Z</time>
      </trkpt>
      <trkpt lat="41.983685" lon="2.84255667">
        <ele>113.0</ele>
        <time>2021-08-21T08:11:34.110Z</time>
      </trkpt>
      <trkpt lat="41.98367667" lon="2.842385">
        <ele>111.0</ele>
        <time>2021-08-21T08:11:35.014Z</time>
      </trkpt>
      <trkpt lat="41.98366667" lon="2.84229167">
        <ele>110.0</ele>
        <time>2021-08-21T08:11:36.007Z</time>
      </trkpt>
      <trkpt lat="41.98366667" lon="2.84229167">
        <ele>110.0</ele>
        <time>2021-08-21T08:11:37.015Z</time>
      </trkpt>
      <trkpt lat="41.98367667" lon="2.84208333">
        <ele>108.0</ele>
        <time>2021-08-21T08:11:38.018Z</time>
      </trkpt>
      <trkpt lat="41.98367667" lon="2.84208333">
        <ele>108.0</ele>
        <time>2021-08-21T08:11:39.003Z</time>
      </trkpt>
      <trkpt lat="41.98369167" lon="2.841875">
        <ele>108.0</ele>
        <time>2021-08-21T08:11:40.024Z</time>
      </trkpt>
      <trkpt lat="41.98369167" lon="2.841875">
        <ele>108.0</ele>
        <time>2021-08-21T08:11:41.021Z</time>
      </trkpt>
      <trkpt lat="41.983695" lon="2.84169">
        <ele>107.0</ele>
        <time>2021-08-21T08:11:42.004Z</time>
      </trkpt>
      <trkpt lat="41.983695" lon="2.84169">
        <ele>107.0</ele>
        <time>2021-08-21T08:11:42.999Z</time>
      </trkpt>
      <trkpt lat="41.98368667" lon="2.84152167">
        <ele>107.0</ele>
        <time>2021-08-21T08:11:44.020Z</time>
      </trkpt>
      <trkpt lat="41.98368667" lon="2.84152167">
        <ele>107.0</ele>
        <time>2021-08-21T08:11:45.027Z</time>
      </trkpt>
      <trkpt lat="41.98369" lon="2.84137333">
        <ele>106.0</ele>
        <time>2021-08-21T08:11:46.001Z</time>
      </trkpt>
      <trkpt lat="41.98369" lon="2.84137333">
        <ele>106.0</ele>
        <time>2021-08-21T08:11:46.993Z</time>
      </trkpt>
      <trkpt lat="41.98373167" lon="2.84123167">
        <ele>105.0</ele>
        <time>2021-08-21T08:11:48.008Z</time>
      </trkpt>
      <trkpt lat="41.98373167" lon="2.84123167">
        <ele>105.0</ele>
        <time>2021-08-21T08:11:49.032Z</time>
      </trkpt>
      <trkpt lat="41.98381167" lon="2.84110333">
        <ele>104.0</ele>
        <time>2021-08-21T08:11:50.019Z</time>
      </trkpt>
      <trkpt lat="41.98381167" lon="2.84110333">
        <ele>104.0</ele>
        <time>2021-08-21T08:11:51.029Z</time>
      </trkpt>
      <trkpt lat="41.98389667" lon="2.84099667">
        <ele>104.0</ele>
        <time>2021-08-21T08:11:52.001Z</time>
      </trkpt>
      <trkpt lat="41.98394333" lon="2.84093833">
        <ele>103.0</ele>
        <time>2021-08-21T08:11:53.008Z</time>
      </trkpt>
      <trkpt lat="41.98399667" lon="2.84088167">
        <ele>103.0</ele>
        <time>2021-08-21T08:11:54.001Z</time>
      </trkpt>
      <trkpt lat="41.98399667" lon="2.84088167">
        <ele>103.0</ele>
        <time>2021-08-21T08:11:55.028Z</time>
      </trkpt>
      <trkpt lat="41.984105" lon="2.84077833">
        <ele>102.0</ele>
        <time>2021-08-21T08:11:56.001Z</time>
      </trkpt>
      <trkpt lat="41.984105" lon="2.84077833">
        <ele>102.0</ele>
        <time>2021-08-21T08:11:56.997Z</time>
      </trkpt>
      <trkpt lat="41.984215" lon="2.84067">
        <ele>102.0</ele>
        <time>2021-08-21T08:11:58.011Z</time>
      </trkpt>
      <trkpt lat="41.984215" lon="2.84067">
        <ele>102.0</ele>
        <time>2021-08-21T08:11:59.021Z</time>
      </trkpt>
      <trkpt lat="41.984325" lon="2.84056167">
        <ele>102.0</ele>
        <time>2021-08-21T08:11:59.994Z</time>
      </trkpt>
      <trkpt lat="41.984325" lon="2.84056167">
        <ele>102.0</ele>
        <time>2021-08-21T08:12:01.017Z</time>
      </trkpt>
      <trkpt lat="41.98443667" lon="2.84045833">
        <ele>101.0</ele>
        <time>2021-08-21T08:12:02.011Z</time>
      </trkpt>
      <trkpt lat="41.98443667" lon="2.84045833">
        <ele>101.0</ele>
        <time>2021-08-21T08:12:02.993Z</time>
      </trkpt>
      <trkpt lat="41.98455833" lon="2.84036333">
        <ele>101.0</ele>
        <time>2021-08-21T08:12:04.013Z</time>
      </trkpt>
      <trkpt lat="41.98455833" lon="2.84036333">
        <ele>101.0</ele>
        <time>2021-08-21T08:12:05.007Z</time>
      </trkpt>
      <trkpt lat="41.98468333" lon="2.84029">
        <ele>100.0</ele>
        <time>2021-08-21T08:12:06.023Z</time>
      </trkpt>
      <trkpt lat="41.98468333" lon="2.84029">
        <ele>100.0</ele>
        <time>2021-08-21T08:12:07.021Z</time>
      </trkpt>
      <trkpt lat="41.984785" lon="2.840205">
        <ele>100.0</ele>
        <time>2021-08-21T08:12:08.004Z</time>
      </trkpt>
      <trkpt lat="41.984785" lon="2.840205">
        <ele>100.0</ele>
        <time>2021-08-21T08:12:09.030Z</time>
      </trkpt>
      <trkpt lat="41.984865" lon="2.84009667">
        <ele>99.0</ele>
        <time>2021-08-21T08:12:10.010Z</time>
      </trkpt>
      <trkpt lat="41.984865" lon="2.84009667">
        <ele>99.0</ele>
        <time>2021-08-21T08:12:11.005Z</time>
      </trkpt>
      <trkpt lat="41.98494333" lon="2.83997833">
        <ele>99.0</ele>
        <time>2021-08-21T08:12:12.031Z</time>
      </trkpt>
      <trkpt lat="41.98494333" lon="2.83997833">
        <ele>99.0</ele>
        <time>2021-08-21T08:12:13.017Z</time>
      </trkpt>
      <trkpt lat="41.98504" lon="2.83988167">
        <ele>99.0</ele>
        <time>2021-08-21T08:12:14.028Z</time>
      </trkpt>
      <trkpt lat="41.9851" lon="2.83984">
        <ele>98.0</ele>
        <time>2021-08-21T08:12:15.012Z</time>
      </trkpt>
      <trkpt lat="41.9851" lon="2.83984">
        <ele>98.0</ele>
        <time>2021-08-21T08:12:16.012Z</time>
      </trkpt>
      <trkpt lat="41.98521667" lon="2.839745">
        <ele>98.0</ele>
        <time>2021-08-21T08:12:16.994Z</time>
      </trkpt>
      <trkpt lat="41.98527333" lon="2.83968">
        <ele>97.0</ele>
        <time>2021-08-21T08:12:17.994Z</time>
      </trkpt>
      <trkpt lat="41.98527333" lon="2.83968">
        <ele>97.0</ele>
        <time>2021-08-21T08:12:19.016Z</time>
      </trkpt>
      <trkpt lat="41.98536667" lon="2.83952667">
        <ele>97.0</ele>
        <time>2021-08-21T08:12:20.026Z</time>
      </trkpt>
      <trkpt lat="41.98536667" lon="2.83952667">
        <ele>97.0</ele>
        <time>2021-08-21T08:12:21.024Z</time>
      </trkpt>
      <trkpt lat="41.98544167" lon="2.839405">
        <ele>97.0</ele>
        <time>2021-08-21T08:12:22.004Z</time>
      </trkpt>
      <trkpt lat="41.98544167" lon="2.839405">
        <ele>97.0</ele>
        <time>2021-08-21T08:12:22.993Z</time>
      </trkpt>
      <trkpt lat="41.98552167" lon="2.839325">
        <ele>96.0</ele>
        <time>2021-08-21T08:12:24.009Z</time>
      </trkpt>
      <trkpt lat="41.98552167" lon="2.839325">
        <ele>96.0</ele>
        <time>2021-08-21T08:12:25.030Z</time>
      </trkpt>
      <trkpt lat="41.985625" lon="2.83922333">
        <ele>96.0</ele>
        <time>2021-08-21T08:12:26.007Z</time>
      </trkpt>
      <trkpt lat="41.985625" lon="2.83922333">
        <ele>96.0</ele>
        <time>2021-08-21T08:12:27.016Z</time>
      </trkpt>
      <trkpt lat="41.98575" lon="2.83910833">
        <ele>95.0</ele>
        <time>2021-08-21T08:12:28.005Z</time>
      </trkpt>
      <trkpt lat="41.98575" lon="2.83910833">
        <ele>95.0</ele>
        <time>2021-08-21T08:12:29.025Z</time>
      </trkpt>
      <trkpt lat="41.985875" lon="2.83897667">
        <ele>95.0</ele>
        <time>2021-08-21T08:12:30.000Z</time>
      </trkpt>
      <trkpt lat="41.985875" lon="2.83897667">
        <ele>95.0</ele>
        <time>2021-08-21T08:12:31.002Z</time>
      </trkpt>
      <trkpt lat="41.98600667" lon="2.83886167">
        <ele>94.0</ele>
        <time>2021-08-21T08:12:32.022Z</time>
      </trkpt>
      <trkpt lat="41.98600667" lon="2.83886167">
        <ele>94.0</ele>
        <time>2021-08-21T08:12:33.013Z</time>
      </trkpt>
      <trkpt lat="41.98613" lon="2.83873333">
        <ele>93.0</ele>
        <time>2021-08-21T08:12:34.033Z</time>
      </trkpt>
      <trkpt lat="41.98618167" lon="2.838675">
        <ele>93.0</ele>
        <time>2021-08-21T08:12:35.014Z</time>
      </trkpt>
      <trkpt lat="41.98618167" lon="2.838675">
        <ele>93.0</ele>
        <time>2021-08-21T08:12:35.999Z</time>
      </trkpt>
      <trkpt lat="41.98625167" lon="2.83860333">
        <ele>93.0</ele>
        <time>2021-08-21T08:12:37.017Z</time>
      </trkpt>
      <trkpt lat="41.98625167" lon="2.83860333">
        <ele>93.0</ele>
        <time>2021-08-21T08:12:37.994Z</time>
      </trkpt>
      <trkpt lat="41.98632167" lon="2.83854667">
        <ele>92.0</ele>
        <time>2021-08-21T08:12:39.024Z</time>
      </trkpt>
      <trkpt lat="41.98632167" lon="2.83854667">
        <ele>92.0</ele>
        <time>2021-08-21T08:12:40.018Z</time>
      </trkpt>
      <trkpt lat="41.98641" lon="2.83852">
        <ele>92.0</ele>
        <time>2021-08-21T08:12:41.034Z</time>
      </trkpt>
      <trkpt lat="41.986465" lon="2.83852">
        <ele>92.0</ele>
        <time>2021-08-21T08:12:42.017Z</time>
      </trkpt>
      <trkpt lat="41.986465" lon="2.83852">
        <ele>92.0</ele>
        <time>2021-08-21T08:12:43.016Z</time>
      </trkpt>
      <trkpt lat="41.98657333" lon="2.83852833">
        <ele>91.0</ele>
        <time>2021-08-21T08:12:44.031Z</time>
      </trkpt>
      <trkpt lat="41.98657333" lon="2.83852833">
        <ele>91.0</ele>
        <time>2021-08-21T08:12:45.013Z</time>
      </trkpt>
      <trkpt lat="41.98669333" lon="2.838515">
        <ele>91.0</ele>
        <time>2021-08-21T08:12:46.034Z</time>
      </trkpt>
      <trkpt lat="41.98669333" lon="2.838515">
        <ele>91.0</ele>
        <time>2021-08-21T08:12:47.024Z</time>
      </trkpt>
      <trkpt lat="41.98681333" lon="2.83846">
        <ele>92.0</ele>
        <time>2021-08-21T08:12:48.000Z</time>
      </trkpt>
      <trkpt lat="41.98681333" lon="2.83846">
        <ele>92.0</ele>
        <time>2021-08-21T08:12:49.016Z</time>
      </trkpt>
      <trkpt lat="41.98691167" lon="2.83836333">
        <ele>92.0</ele>
        <time>2021-08-21T08:12:49.992Z</time>
      </trkpt>
      <trkpt lat="41.98691167" lon="2.83836333">
        <ele>92.0</ele>
        <time>2021-08-21T08:12:50.996Z</time>
      </trkpt>
      <trkpt lat="41.98698167" lon="2.83829333">
        <ele>92.0</ele>
        <time>2021-08-21T08:12:52.014Z</time>
      </trkpt>
      <trkpt lat="41.98698167" lon="2.83829333">
        <ele>92.0</ele>
        <time>2021-08-21T08:12:52.994Z</time>
      </trkpt>
      <trkpt lat="41.98703833" lon="2.83823667">
        <ele>92.0</ele>
        <time>2021-08-21T08:12:54.024Z</time>
      </trkpt>
      <trkpt lat="41.98703833" lon="2.83823667">
        <ele>92.0</ele>
        <time>2021-08-21T08:12:55.016Z</time>
      </trkpt>
      <trkpt lat="41.98707833" lon="2.838175">
        <ele>92.0</ele>
        <time>2021-08-21T08:12:55.993Z</time>
      </trkpt>
      <trkpt lat="41.98707833" lon="2.838175">
        <ele>92.0</ele>
        <time>2021-08-21T08:12:57.003Z</time>
      </trkpt>
      <trkpt lat="41.98709167" lon="2.83809333">
        <ele>93.0</ele>
        <time>2021-08-21T08:12:58.018Z</time>
      </trkpt>
      <trkpt lat="41.98709167" lon="2.83809333">
        <ele>93.0</ele>
        <time>2021-08-21T08:12:58.993Z</time>
      </trkpt>
      <trkpt lat="41.987085" lon="2.83801333">
        <ele>93.0</ele>
        <time>2021-08-21T08:13:00.006Z</time>
      </trkpt>
      <trkpt lat="41.987085" lon="2.83801333">
        <ele>93.0</ele>
        <time>2021-08-21T08:13:01.000Z</time>
      </trkpt>
      <trkpt lat="41.987095" lon="2.83790667">
        <ele>93.0</ele>
        <time>2021-08-21T08:13:01.992Z</time>
      </trkpt>
      <trkpt lat="41.987095" lon="2.83790667">
        <ele>93.0</ele>
        <time>2021-08-21T08:13:02.993Z</time>
      </trkpt>
      <trkpt lat="41.987125" lon="2.83779167">
        <ele>93.0</ele>
        <time>2021-08-21T08:13:04.010Z</time>
      </trkpt>
      <trkpt lat="41.987125" lon="2.83779167">
        <ele>93.0</ele>
        <time>2021-08-21T08:13:05.001Z</time>
      </trkpt>
      <trkpt lat="41.98715167" lon="2.83767833">
        <ele>93.0</ele>
        <time>2021-08-21T08:13:06.033Z</time>
      </trkpt>
      <trkpt lat="41.98715167" lon="2.83767833">
        <ele>93.0</ele>
        <time>2021-08-21T08:13:07.016Z</time>
      </trkpt>
      <trkpt lat="41.98719167" lon="2.83756333">
        <ele>93.0</ele>
        <time>2021-08-21T08:13:07.999Z</time>
      </trkpt>
      <trkpt lat="41.98721833" lon="2.83751167">
        <ele>93.0</ele>
        <time>2021-08-21T08:13:09.027Z</time>
      </trkpt>
      <trkpt lat="41.98721833" lon="2.83751167">
        <ele>93.0</ele>
        <time>2021-08-21T08:13:10.001Z</time>
      </trkpt>
      <trkpt lat="41.98727" lon="2.83740833">
        <ele>93.0</ele>
        <time>2021-08-21T08:13:11.019Z</time>
      </trkpt>
      <trkpt lat="41.987295" lon="2.83735667">
        <ele>92.0</ele>
        <time>2021-08-21T08:13:12.016Z</time>
      </trkpt>
      <trkpt lat="41.987295" lon="2.83735667">
        <ele>92.0</ele>
        <time>2021-08-21T08:13:12.999Z</time>
      </trkpt>
      <trkpt lat="41.98733833" lon="2.837245">
        <ele>92.0</ele>
        <time>2021-08-21T08:13:14.025Z</time>
      </trkpt>
      <trkpt lat="41.98733833" lon="2.837245">
        <ele>92.0</ele>
        <time>2021-08-21T08:13:15.016Z</time>
      </trkpt>
      <trkpt lat="41.98738167" lon="2.83713833">
        <ele>91.0</ele>
        <time>2021-08-21T08:13:16.004Z</time>
      </trkpt>
      <trkpt lat="41.98738167" lon="2.83713833">
        <ele>91.0</ele>
        <time>2021-08-21T08:13:17.021Z</time>
      </trkpt>
      <trkpt lat="41.98742167" lon="2.83703833">
        <ele>91.0</ele>
        <time>2021-08-21T08:13:18.019Z</time>
      </trkpt>
      <trkpt lat="41.98742167" lon="2.83703833">
        <ele>91.0</ele>
        <time>2021-08-21T08:13:19.009Z</time>
      </trkpt>
      <trkpt lat="41.98747667" lon="2.836935">
        <ele>90.0</ele>
        <time>2021-08-21T08:13:20.026Z</time>
      </trkpt>
      <trkpt lat="41.987495" lon="2.83686667">
        <ele>90.0</ele>
        <time>2021-08-21T08:13:21.011Z</time>
      </trkpt>
      <trkpt lat="41.987495" lon="2.83686667">
        <ele>90.0</ele>
        <time>2021-08-21T08:13:22.004Z</time>
      </trkpt>
      <trkpt lat="41.98753333" lon="2.83673833">
        <ele>90.0</ele>
        <time>2021-08-21T08:13:23.027Z</time>
      </trkpt>
      <trkpt lat="41.98754833" lon="2.83667167">
        <ele>89.0</ele>
        <time>2021-08-21T08:13:24.025Z</time>
      </trkpt>
      <trkpt lat="41.98754833" lon="2.83667167">
        <ele>89.0</ele>
        <time>2021-08-21T08:13:25.006Z</time>
      </trkpt>
      <trkpt lat="41.98757167" lon="2.83655167">
        <ele>89.0</ele>
        <time>2021-08-21T08:13:25.996Z</time>
      </trkpt>
      <trkpt lat="41.98757167" lon="2.83655167">
        <ele>89.0</ele>
        <time>2021-08-21T08:13:27.009Z</time>
      </trkpt>
      <trkpt lat="41.98759667" lon="2.836425">
        <ele>88.0</ele>
        <time>2021-08-21T08:13:28.022Z</time>
      </trkpt>
      <trkpt lat="41.98759667" lon="2.836425">
        <ele>88.0</ele>
        <time>2021-08-21T08:13:28.992Z</time>
      </trkpt>
      <trkpt lat="41.98760833" lon="2.8363">
        <ele>88.0</ele>
        <time>2021-08-21T08:13:30.000Z</time>
      </trkpt>
      <trkpt lat="41.98760833" lon="2.8363">
        <ele>88.0</ele>
        <time>2021-08-21T08:13:30.992Z</time>
      </trkpt>
      <trkpt lat="41.987625" lon="2.83616">
        <ele>87.0</ele>
        <time>2021-08-21T08:13:32.002Z</time>
      </trkpt>
      <trkpt lat="41.987625" lon="2.83616">
        <ele>87.0</ele>
        <time>2021-08-21T08:13:33.017Z</time>
      </trkpt>
      <trkpt lat="41.987635" lon="2.83600667">
        <ele>87.0</ele>
        <time>2021-08-21T08:13:34.011Z</time>
      </trkpt>
      <trkpt lat="41.987635" lon="2.83600667">
        <ele>87.0</ele>
        <time>2021-08-21T08:13:35.030Z</time>
      </trkpt>
      <trkpt lat="41.987645" lon="2.83585167">
        <ele>87.0</ele>
        <time>2021-08-21T08:13:36.000Z</time>
      </trkpt>
      <trkpt lat="41.987645" lon="2.83585167">
        <ele>87.0</ele>
        <time>2021-08-21T08:13:37.031Z</time>
      </trkpt>
      <trkpt lat="41.98765" lon="2.835695">
        <ele>86.0</ele>
        <time>2021-08-21T08:13:38.006Z</time>
      </trkpt>
      <trkpt lat="41.98765" lon="2.835695">
        <ele>86.0</ele>
        <time>2021-08-21T08:13:39.008Z</time>
      </trkpt>
      <trkpt lat="41.987655" lon="2.83553667">
        <ele>86.0</ele>
        <time>2021-08-21T08:13:40.018Z</time>
      </trkpt>
      <trkpt lat="41.987655" lon="2.83553667">
        <ele>86.0</ele>
        <time>2021-08-21T08:13:40.998Z</time>
      </trkpt>
      <trkpt lat="41.98766167" lon="2.83536667">
        <ele>86.0</ele>
        <time>2021-08-21T08:13:42.006Z</time>
      </trkpt>
      <trkpt lat="41.98766167" lon="2.83536667">
        <ele>86.0</ele>
        <time>2021-08-21T08:13:43.002Z</time>
      </trkpt>
      <trkpt lat="41.98766333" lon="2.835195">
        <ele>86.0</ele>
        <time>2021-08-21T08:13:44.016Z</time>
      </trkpt>
      <trkpt lat="41.98766333" lon="2.835195">
        <ele>86.0</ele>
        <time>2021-08-21T08:13:45.022Z</time>
      </trkpt>
      <trkpt lat="41.987675" lon="2.83503167">
        <ele>85.0</ele>
        <time>2021-08-21T08:13:46.007Z</time>
      </trkpt>
      <trkpt lat="41.987675" lon="2.83503167">
        <ele>85.0</ele>
        <time>2021-08-21T08:13:47.030Z</time>
      </trkpt>
      <trkpt lat="41.98768667" lon="2.83488">
        <ele>85.0</ele>
        <time>2021-08-21T08:13:48.004Z</time>
      </trkpt>
      <trkpt lat="41.98768667" lon="2.83488">
        <ele>85.0</ele>
        <time>2021-08-21T08:13:49.016Z</time>
      </trkpt>
      <trkpt lat="41.98769" lon="2.83472333">
        <ele>84.0</ele>
        <time>2021-08-21T08:13:50.030Z</time>
      </trkpt>
      <trkpt lat="41.98769" lon="2.83472333">
        <ele>84.0</ele>
        <time>2021-08-21T08:13:51.005Z</time>
      </trkpt>
      <trkpt lat="41.98769167" lon="2.83457667">
        <ele>84.0</ele>
        <time>2021-08-21T08:13:52.025Z</time>
      </trkpt>
      <trkpt lat="41.98769167" lon="2.83450667">
        <ele>83.0</ele>
        <time>2021-08-21T08:13:53.028Z</time>
      </trkpt>
      <trkpt lat="41.98768833" lon="2.83444">
        <ele>83.0</ele>
        <time>2021-08-21T08:13:54.030Z</time>
      </trkpt>
      <trkpt lat="41.98768833" lon="2.83444">
        <ele>83.0</ele>
        <time>2021-08-21T08:13:54.998Z</time>
      </trkpt>
      <trkpt lat="41.987695" lon="2.83431">
        <ele>83.0</ele>
        <time>2021-08-21T08:13:56.017Z</time>
      </trkpt>
      <trkpt lat="41.987695" lon="2.83431">
        <ele>83.0</ele>
        <time>2021-08-21T08:13:56.992Z</time>
      </trkpt>
      <trkpt lat="41.98772167" lon="2.834185">
        <ele>84.0</ele>
        <time>2021-08-21T08:13:58.014Z</time>
      </trkpt>
      <trkpt lat="41.98772167" lon="2.834185">
        <ele>84.0</ele>
        <time>2021-08-21T08:13:58.999Z</time>
      </trkpt>
      <trkpt lat="41.98776833" lon="2.83407167">
        <ele>84.0</ele>
        <time>2021-08-21T08:14:00.041Z</time>
      </trkpt>
      <trkpt lat="41.98776833" lon="2.83407167">
        <ele>84.0</ele>
        <time>2021-08-21T08:14:01.004Z</time>
      </trkpt>
      <trkpt lat="41.98781667" lon="2.833955">
        <ele>84.0</ele>
        <time>2021-08-21T08:14:02.008Z</time>
      </trkpt>
      <trkpt lat="41.98781667" lon="2.833955">
        <ele>84.0</ele>
        <time>2021-08-21T08:14:03.019Z</time>
      </trkpt>
      <trkpt lat="41.98787" lon="2.83383167">
        <ele>84.0</ele>
        <time>2021-08-21T08:14:03.995Z</time>
      </trkpt>
      <trkpt lat="41.98787" lon="2.83383167">
        <ele>84.0</ele>
        <time>2021-08-21T08:14:05.022Z</time>
      </trkpt>
      <trkpt lat="41.98792" lon="2.83371333">
        <ele>83.0</ele>
        <time>2021-08-21T08:14:06.004Z</time>
      </trkpt>
      <trkpt lat="41.98792" lon="2.83371333">
        <ele>83.0</ele>
        <time>2021-08-21T08:14:07.021Z</time>
      </trkpt>
      <trkpt lat="41.98797" lon="2.83359167">
        <ele>83.0</ele>
        <time>2021-08-21T08:14:08.005Z</time>
      </trkpt>
      <trkpt lat="41.98797" lon="2.83359167">
        <ele>83.0</ele>
        <time>2021-08-21T08:14:09.006Z</time>
      </trkpt>
      <trkpt lat="41.98802333" lon="2.83344333">
        <ele>83.0</ele>
        <time>2021-08-21T08:14:10.014Z</time>
      </trkpt>
      <trkpt lat="41.98802333" lon="2.83344333">
        <ele>83.0</ele>
        <time>2021-08-21T08:14:11.028Z</time>
      </trkpt>
      <trkpt lat="41.98807667" lon="2.83329667">
        <ele>82.0</ele>
        <time>2021-08-21T08:14:12.013Z</time>
      </trkpt>
      <trkpt lat="41.98807667" lon="2.83329667">
        <ele>82.0</ele>
        <time>2021-08-21T08:14:13.008Z</time>
      </trkpt>
      <trkpt lat="41.98813167" lon="2.83315833">
        <ele>81.0</ele>
        <time>2021-08-21T08:14:14.015Z</time>
      </trkpt>
      <trkpt lat="41.98813167" lon="2.83315833">
        <ele>81.0</ele>
        <time>2021-08-21T08:14:15.030Z</time>
      </trkpt>
      <trkpt lat="41.98818167" lon="2.833025">
        <ele>80.0</ele>
        <time>2021-08-21T08:14:15.994Z</time>
      </trkpt>
      <trkpt lat="41.98818167" lon="2.833025">
        <ele>80.0</ele>
        <time>2021-08-21T08:14:17.011Z</time>
      </trkpt>
      <trkpt lat="41.98822667" lon="2.83289">
        <ele>80.0</ele>
        <time>2021-08-21T08:14:17.999Z</time>
      </trkpt>
      <trkpt lat="41.98822667" lon="2.83289">
        <ele>80.0</ele>
        <time>2021-08-21T08:14:19.013Z</time>
      </trkpt>
      <trkpt lat="41.98827167" lon="2.83276167">
        <ele>80.0</ele>
        <time>2021-08-21T08:14:20.022Z</time>
      </trkpt>
      <trkpt lat="41.98827167" lon="2.83276167">
        <ele>80.0</ele>
        <time>2021-08-21T08:14:21.030Z</time>
      </trkpt>
      <trkpt lat="41.98832" lon="2.83263667">
        <ele>80.0</ele>
        <time>2021-08-21T08:14:21.998Z</time>
      </trkpt>
      <trkpt lat="41.98832" lon="2.83263667">
        <ele>80.0</ele>
        <time>2021-08-21T08:14:23.005Z</time>
      </trkpt>
      <trkpt lat="41.98836667" lon="2.83250833">
        <ele>80.0</ele>
        <time>2021-08-21T08:14:24.003Z</time>
      </trkpt>
      <trkpt lat="41.98838833" lon="2.83244167">
        <ele>80.0</ele>
        <time>2021-08-21T08:14:24.995Z</time>
      </trkpt>
      <trkpt lat="41.98841333" lon="2.83237833">
        <ele>79.0</ele>
        <time>2021-08-21T08:14:26.012Z</time>
      </trkpt>
      <trkpt lat="41.98841333" lon="2.83237833">
        <ele>79.0</ele>
        <time>2021-08-21T08:14:27.025Z</time>
      </trkpt>
      <trkpt lat="41.98846667" lon="2.83226333">
        <ele>79.0</ele>
        <time>2021-08-21T08:14:28.000Z</time>
      </trkpt>
      <trkpt lat="41.98846667" lon="2.83226333">
        <ele>79.0</ele>
        <time>2021-08-21T08:14:29.012Z</time>
      </trkpt>
      <trkpt lat="41.98849667" lon="2.83215333">
        <ele>79.0</ele>
        <time>2021-08-21T08:14:30.001Z</time>
      </trkpt>
      <trkpt lat="41.98849667" lon="2.83215333">
        <ele>79.0</ele>
        <time>2021-08-21T08:14:31.003Z</time>
      </trkpt>
      <trkpt lat="41.98851833" lon="2.83203">
        <ele>79.0</ele>
        <time>2021-08-21T08:14:31.995Z</time>
      </trkpt>
      <trkpt lat="41.988535" lon="2.83196">
        <ele>78.0</ele>
        <time>2021-08-21T08:14:33.028Z</time>
      </trkpt>
      <trkpt lat="41.988535" lon="2.83196">
        <ele>78.0</ele>
        <time>2021-08-21T08:14:34.020Z</time>
      </trkpt>
      <trkpt lat="41.98856167" lon="2.83183167">
        <ele>78.0</ele>
        <time>2021-08-21T08:14:35.029Z</time>
      </trkpt>
      <trkpt lat="41.98857333" lon="2.83176833">
        <ele>78.0</ele>
        <time>2021-08-21T08:14:36.005Z</time>
      </trkpt>
      <trkpt lat="41.98857333" lon="2.83176833">
        <ele>78.0</ele>
        <time>2021-08-21T08:14:37.017Z</time>
      </trkpt>
      <trkpt lat="41.98859667" lon="2.83162333">
        <ele>78.0</ele>
        <time>2021-08-21T08:14:37.995Z</time>
      </trkpt>
      <trkpt lat="41.98859667" lon="2.83162333">
        <ele>78.0</ele>
        <time>2021-08-21T08:14:39.008Z</time>
      </trkpt>
      <trkpt lat="41.98861667" lon="2.83148">
        <ele>77.0</ele>
        <time>2021-08-21T08:14:39.994Z</time>
      </trkpt>
      <trkpt lat="41.98861667" lon="2.83148">
        <ele>77.0</ele>
        <time>2021-08-21T08:14:41.005Z</time>
      </trkpt>
      <trkpt lat="41.98862667" lon="2.831345">
        <ele>77.0</ele>
        <time>2021-08-21T08:14:42.023Z</time>
      </trkpt>
      <trkpt lat="41.98862667" lon="2.831345">
        <ele>77.0</ele>
        <time>2021-08-21T08:14:42.995Z</time>
      </trkpt>
      <trkpt lat="41.98863333" lon="2.8312">
        <ele>77.0</ele>
        <time>2021-08-21T08:14:44.002Z</time>
      </trkpt>
      <trkpt lat="41.98863333" lon="2.8312">
        <ele>77.0</ele>
        <time>2021-08-21T08:14:44.992Z</time>
      </trkpt>
      <trkpt lat="41.98861" lon="2.83104833">
        <ele>77.0</ele>
        <time>2021-08-21T08:14:45.999Z</time>
      </trkpt>
      <trkpt lat="41.98861" lon="2.83104833">
        <ele>77.0</ele>
        <time>2021-08-21T08:14:47.013Z</time>
      </trkpt>
      <trkpt lat="41.98855667" lon="2.83091667">
        <ele>76.0</ele>
        <time>2021-08-21T08:14:47.995Z</time>
      </trkpt>
      <trkpt lat="41.98855667" lon="2.83091667">
        <ele>76.0</ele>
        <time>2021-08-21T08:14:49.009Z</time>
      </trkpt>
      <trkpt lat="41.988485" lon="2.83080667">
        <ele>76.0</ele>
        <time>2021-08-21T08:14:50.030Z</time>
      </trkpt>
      <trkpt lat="41.988485" lon="2.83080667">
        <ele>76.0</ele>
        <time>2021-08-21T08:14:51.020Z</time>
      </trkpt>
      <trkpt lat="41.98841167" lon="2.83070167">
        <ele>76.0</ele>
        <time>2021-08-21T08:14:51.995Z</time>
      </trkpt>
      <trkpt lat="41.98841167" lon="2.83070167">
        <ele>76.0</ele>
        <time>2021-08-21T08:14:52.999Z</time>
      </trkpt>
      <trkpt lat="41.98834667" lon="2.83061">
        <ele>75.0</ele>
        <time>2021-08-21T08:14:53.992Z</time>
      </trkpt>
      <trkpt lat="41.98834667" lon="2.83061">
        <ele>75.0</ele>
        <time>2021-08-21T08:14:55.024Z</time>
      </trkpt>
      <trkpt lat="41.98826833" lon="2.830515">
        <ele>74.0</ele>
        <time>2021-08-21T08:14:55.992Z</time>
      </trkpt>
      <trkpt lat="41.98823167" lon="2.830465">
        <ele>74.0</ele>
        <time>2021-08-21T08:14:57.022Z</time>
      </trkpt>
      <trkpt lat="41.98823167" lon="2.830465">
        <ele>74.0</ele>
        <time>2021-08-21T08:14:57.994Z</time>
      </trkpt>
      <trkpt lat="41.98815167" lon="2.83037167">
        <ele>73.0</ele>
        <time>2021-08-21T08:14:59.011Z</time>
      </trkpt>
      <trkpt lat="41.98812333" lon="2.83031333">
        <ele>73.0</ele>
        <time>2021-08-21T08:15:00.020Z</time>
      </trkpt>
      <trkpt lat="41.98812333" lon="2.83031333">
        <ele>73.0</ele>
        <time>2021-08-21T08:15:00.993Z</time>
      </trkpt>
      <trkpt lat="41.98809667" lon="2.830175">
        <ele>72.0</ele>
        <time>2021-08-21T08:15:02.020Z</time>
      </trkpt>
      <trkpt lat="41.98809667" lon="2.830175">
        <ele>72.0</ele>
        <time>2021-08-21T08:15:03.001Z</time>
      </trkpt>
      <trkpt lat="41.98809333" lon="2.83004333">
        <ele>71.0</ele>
        <time>2021-08-21T08:15:04.034Z</time>
      </trkpt>
      <trkpt lat="41.98809333" lon="2.83004333">
        <ele>71.0</ele>
        <time>2021-08-21T08:15:05.008Z</time>
      </trkpt>
      <trkpt lat="41.98811667" lon="2.8299">
        <ele>71.0</ele>
        <time>2021-08-21T08:15:06.014Z</time>
      </trkpt>
      <trkpt lat="41.98811667" lon="2.8299">
        <ele>71.0</ele>
        <time>2021-08-21T08:15:06.995Z</time>
      </trkpt>
      <trkpt lat="41.98815667" lon="2.82975">
        <ele>70.0</ele>
        <time>2021-08-21T08:15:08.026Z</time>
      </trkpt>
      <trkpt lat="41.98815667" lon="2.82975">
        <ele>70.0</ele>
        <time>2021-08-21T08:15:09.002Z</time>
      </trkpt>
      <trkpt lat="41.98818667" lon="2.82960333">
        <ele>70.0</ele>
        <time>2021-08-21T08:15:10.009Z</time>
      </trkpt>
      <trkpt lat="41.98818667" lon="2.82960333">
        <ele>70.0</ele>
        <time>2021-08-21T08:15:11.023Z</time>
      </trkpt>
      <trkpt lat="41.98821333" lon="2.82945167">
        <ele>69.0</ele>
        <time>2021-08-21T08:15:12.013Z</time>
      </trkpt>
      <trkpt lat="41.98821333" lon="2.82945167">
        <ele>69.0</ele>
        <time>2021-08-21T08:15:12.996Z</time>
      </trkpt>
      <trkpt lat="41.988225" lon="2.82931">
        <ele>69.0</ele>
        <time>2021-08-21T08:15:14.010Z</time>
      </trkpt>
      <trkpt lat="41.988225" lon="2.82931">
        <ele>69.0</ele>
        <time>2021-08-21T08:15:15.020Z</time>
      </trkpt>
      <trkpt lat="41.98823167" lon="2.82915667">
        <ele>68.0</ele>
        <time>2021-08-21T08:15:16.021Z</time>
      </trkpt>
      <trkpt lat="41.98823167" lon="2.82915667">
        <ele>68.0</ele>
        <time>2021-08-21T08:15:17.002Z</time>
      </trkpt>
      <trkpt lat="41.98823333" lon="2.82902167">
        <ele>68.0</ele>
        <time>2021-08-21T08:15:18.009Z</time>
      </trkpt>
      <trkpt lat="41.98823333" lon="2.82902167">
        <ele>68.0</ele>
        <time>2021-08-21T08:15:19.022Z</time>
      </trkpt>
      <trkpt lat="41.98823833" lon="2.82889667">
        <ele>68.0</ele>
        <time>2021-08-21T08:15:20.001Z</time>
      </trkpt>
      <trkpt lat="41.98823833" lon="2.82889667">
        <ele>68.0</ele>
        <time>2021-08-21T08:15:21.026Z</time>
      </trkpt>
      <trkpt lat="41.98823333" lon="2.82877">
        <ele>68.0</ele>
        <time>2021-08-21T08:15:22.025Z</time>
      </trkpt>
      <trkpt lat="41.98823333" lon="2.82877">
        <ele>68.0</ele>
        <time>2021-08-21T08:15:23.017Z</time>
      </trkpt>
      <trkpt lat="41.988235" lon="2.82863833">
        <ele>68.0</ele>
        <time>2021-08-21T08:15:24.011Z</time>
      </trkpt>
      <trkpt lat="41.988235" lon="2.82863833">
        <ele>68.0</ele>
        <time>2021-08-21T08:15:25.016Z</time>
      </trkpt>
      <trkpt lat="41.98827" lon="2.82849667">
        <ele>67.0</ele>
        <time>2021-08-21T08:15:26.026Z</time>
      </trkpt>
      <trkpt lat="41.98827" lon="2.82849667">
        <ele>67.0</ele>
        <time>2021-08-21T08:15:27.000Z</time>
      </trkpt>
      <trkpt lat="41.98832667" lon="2.82837833">
        <ele>67.0</ele>
        <time>2021-08-21T08:15:27.996Z</time>
      </trkpt>
      <trkpt lat="41.98836" lon="2.82832">
        <ele>68.0</ele>
        <time>2021-08-21T08:15:29.016Z</time>
      </trkpt>
      <trkpt lat="41.98838333" lon="2.82826167">
        <ele>68.0</ele>
        <time>2021-08-21T08:15:29.992Z</time>
      </trkpt>
      <trkpt lat="41.98838333" lon="2.82826167">
        <ele>68.0</ele>
        <time>2021-08-21T08:15:31.004Z</time>
      </trkpt>
      <trkpt lat="41.98842333" lon="2.82812833">
        <ele>68.0</ele>
        <time>2021-08-21T08:15:32.010Z</time>
      </trkpt>
      <trkpt lat="41.98844" lon="2.82806333">
        <ele>68.0</ele>
        <time>2021-08-21T08:15:33.023Z</time>
      </trkpt>
      <trkpt lat="41.98844" lon="2.82806333">
        <ele>68.0</ele>
        <time>2021-08-21T08:15:34.016Z</time>
      </trkpt>
      <trkpt lat="41.98846667" lon="2.827955">
        <ele>68.0</ele>
        <time>2021-08-21T08:15:34.992Z</time>
      </trkpt>
      <trkpt lat="41.98847833" lon="2.82789833">
        <ele>68.0</ele>
        <time>2021-08-21T08:15:36.009Z</time>
      </trkpt>
      <trkpt lat="41.98847833" lon="2.82789833">
        <ele>68.0</ele>
        <time>2021-08-21T08:15:37.022Z</time>
      </trkpt>
      <trkpt lat="41.98849" lon="2.827785">
        <ele>68.0</ele>
        <time>2021-08-21T08:15:37.997Z</time>
      </trkpt>
      <trkpt lat="41.98849" lon="2.827785">
        <ele>68.0</ele>
        <time>2021-08-21T08:15:39.000Z</time>
      </trkpt>
      <trkpt lat="41.98851333" lon="2.82767833">
        <ele>69.0</ele>
        <time>2021-08-21T08:15:40.033Z</time>
      </trkpt>
      <trkpt lat="41.98851333" lon="2.82767833">
        <ele>69.0</ele>
        <time>2021-08-21T08:15:41.006Z</time>
      </trkpt>
      <trkpt lat="41.98853167" lon="2.82759333">
        <ele>69.0</ele>
        <time>2021-08-21T08:15:42.014Z</time>
      </trkpt>
      <trkpt lat="41.98853167" lon="2.82759333">
        <ele>69.0</ele>
        <time>2021-08-21T08:15:43.009Z</time>
      </trkpt>
      <trkpt lat="41.98855667" lon="2.82749667">
        <ele>69.0</ele>
        <time>2021-08-21T08:15:44.029Z</time>
      </trkpt>
      <trkpt lat="41.98855667" lon="2.82749667">
        <ele>69.0</ele>
        <time>2021-08-21T08:15:45.002Z</time>
      </trkpt>
      <trkpt lat="41.98857667" lon="2.82741">
        <ele>70.0</ele>
        <time>2021-08-21T08:15:45.994Z</time>
      </trkpt>
      <trkpt lat="41.98858667" lon="2.82737">
        <ele>70.0</ele>
        <time>2021-08-21T08:15:47.009Z</time>
      </trkpt>
      <trkpt lat="41.98858667" lon="2.82737">
        <ele>70.0</ele>
        <time>2021-08-21T08:15:48.021Z</time>
      </trkpt>
      <trkpt lat="41.98861" lon="2.82732">
        <ele>71.0</ele>
        <time>2021-08-21T08:15:49.020Z</time>
      </trkpt>
      <trkpt lat="41.98863" lon="2.827285">
        <ele>72.0</ele>
        <time>2021-08-21T08:15:50.022Z</time>
      </trkpt>
      <trkpt lat="41.98863" lon="2.827285">
        <ele>72.0</ele>
        <time>2021-08-21T08:15:50.994Z</time>
      </trkpt>
      <trkpt lat="41.98866167" lon="2.827185">
        <ele>72.0</ele>
        <time>2021-08-21T08:15:52.008Z</time>
      </trkpt>
      <trkpt lat="41.98866167" lon="2.827185">
        <ele>72.0</ele>
        <time>2021-08-21T08:15:52.995Z</time>
      </trkpt>
      <trkpt lat="41.98869333" lon="2.82708167">
        <ele>73.0</ele>
        <time>2021-08-21T08:15:54.013Z</time>
      </trkpt>
      <trkpt lat="41.98869333" lon="2.82708167">
        <ele>73.0</ele>
        <time>2021-08-21T08:15:54.997Z</time>
      </trkpt>
      <trkpt lat="41.988755" lon="2.82697">
        <ele>74.0</ele>
        <time>2021-08-21T08:15:56.009Z</time>
      </trkpt>
      <trkpt lat="41.988755" lon="2.82697">
        <ele>74.0</ele>
        <time>2021-08-21T08:15:57.023Z</time>
      </trkpt>
      <trkpt lat="41.98883" lon="2.82686667">
        <ele>74.0</ele>
        <time>2021-08-21T08:15:57.998Z</time>
      </trkpt>
      <trkpt lat="41.98883" lon="2.82686667">
        <ele>74.0</ele>
        <time>2021-08-21T08:15:59.012Z</time>
      </trkpt>
      <trkpt lat="41.98890167" lon="2.82677333">
        <ele>74.0</ele>
        <time>2021-08-21T08:15:59.993Z</time>
      </trkpt>
      <trkpt lat="41.98890167" lon="2.82677333">
        <ele>74.0</ele>
        <time>2021-08-21T08:16:01.016Z</time>
      </trkpt>
      <trkpt lat="41.98898" lon="2.82667333">
        <ele>75.0</ele>
        <time>2021-08-21T08:16:01.993Z</time>
      </trkpt>
      <trkpt lat="41.98898" lon="2.82667333">
        <ele>75.0</ele>
        <time>2021-08-21T08:16:03.011Z</time>
      </trkpt>
      <trkpt lat="41.98900833" lon="2.82653">
        <ele>74.0</ele>
        <time>2021-08-21T08:16:04.020Z</time>
      </trkpt>
      <trkpt lat="41.98900833" lon="2.82653">
        <ele>74.0</ele>
        <time>2021-08-21T08:16:04.993Z</time>
      </trkpt>
      <trkpt lat="41.98898667" lon="2.82638833">
        <ele>74.0</ele>
        <time>2021-08-21T08:16:06.018Z</time>
      </trkpt>
      <trkpt lat="41.98898667" lon="2.82638833">
        <ele>74.0</ele>
        <time>2021-08-21T08:16:07.032Z</time>
      </trkpt>
      <trkpt lat="41.98894167" lon="2.82626333">
        <ele>73.0</ele>
        <time>2021-08-21T08:16:08.008Z</time>
      </trkpt>
      <trkpt lat="41.98894167" lon="2.82626333">
        <ele>73.0</ele>
        <time>2021-08-21T08:16:09.015Z</time>
      </trkpt>
      <trkpt lat="41.98892833" lon="2.82612167">
        <ele>73.0</ele>
        <time>2021-08-21T08:16:09.993Z</time>
      </trkpt>
      <trkpt lat="41.98892833" lon="2.82612167">
        <ele>73.0</ele>
        <time>2021-08-21T08:16:11.006Z</time>
      </trkpt>
      <trkpt lat="41.98891667" lon="2.82599">
        <ele>73.0</ele>
        <time>2021-08-21T08:16:12.012Z</time>
      </trkpt>
      <trkpt lat="41.98891667" lon="2.82599">
        <ele>73.0</ele>
        <time>2021-08-21T08:16:12.996Z</time>
      </trkpt>
      <trkpt lat="41.98890833" lon="2.82587333">
        <ele>72.0</ele>
        <time>2021-08-21T08:16:14.023Z</time>
      </trkpt>
      <trkpt lat="41.98890833" lon="2.82587333">
        <ele>72.0</ele>
        <time>2021-08-21T08:16:14.994Z</time>
      </trkpt>
      <trkpt lat="41.98892833" lon="2.82575">
        <ele>72.0</ele>
        <time>2021-08-21T08:16:16.007Z</time>
      </trkpt>
      <trkpt lat="41.98892833" lon="2.82575">
        <ele>72.0</ele>
        <time>2021-08-21T08:16:17.021Z</time>
      </trkpt>
      <trkpt lat="41.988975" lon="2.825645">
        <ele>71.0</ele>
        <time>2021-08-21T08:16:18.023Z</time>
      </trkpt>
      <trkpt lat="41.988975" lon="2.825645">
        <ele>71.0</ele>
        <time>2021-08-21T08:16:19.016Z</time>
      </trkpt>
      <trkpt lat="41.98903" lon="2.82555833">
        <ele>71.0</ele>
        <time>2021-08-21T08:16:20.029Z</time>
      </trkpt>
      <trkpt lat="41.98903" lon="2.82555833">
        <ele>71.0</ele>
        <time>2021-08-21T08:16:21.002Z</time>
      </trkpt>
      <trkpt lat="41.98908833" lon="2.82546333">
        <ele>70.0</ele>
        <time>2021-08-21T08:16:22.025Z</time>
      </trkpt>
      <trkpt lat="41.98908833" lon="2.82546333">
        <ele>70.0</ele>
        <time>2021-08-21T08:16:23.018Z</time>
      </trkpt>
      <trkpt lat="41.98914333" lon="2.82536167">
        <ele>69.0</ele>
        <time>2021-08-21T08:16:24.004Z</time>
      </trkpt>
      <trkpt lat="41.98914333" lon="2.82536167">
        <ele>69.0</ele>
        <time>2021-08-21T08:16:25.010Z</time>
      </trkpt>
      <trkpt lat="41.98918333" lon="2.82526333">
        <ele>69.0</ele>
        <time>2021-08-21T08:16:26.016Z</time>
      </trkpt>
      <trkpt lat="41.98918333" lon="2.82526333">
        <ele>69.0</ele>
        <time>2021-08-21T08:16:27.023Z</time>
      </trkpt>
      <trkpt lat="41.98919333" lon="2.82517667">
        <ele>68.0</ele>
        <time>2021-08-21T08:16:28.018Z</time>
      </trkpt>
      <trkpt lat="41.98919333" lon="2.82517667">
        <ele>68.0</ele>
        <time>2021-08-21T08:16:29.022Z</time>
      </trkpt>
      <trkpt lat="41.98918833" lon="2.82512833">
        <ele>68.0</ele>
        <time>2021-08-21T08:16:30.015Z</time>
      </trkpt>
      <trkpt lat="41.98918833" lon="2.82512833">
        <ele>68.0</ele>
        <time>2021-08-21T08:16:30.992Z</time>
      </trkpt>
      <trkpt lat="41.989195" lon="2.825075">
        <ele>68.0</ele>
        <time>2021-08-21T08:16:31.996Z</time>
      </trkpt>
      <trkpt lat="41.989195" lon="2.825075">
        <ele>68.0</ele>
        <time>2021-08-21T08:16:33.016Z</time>
      </trkpt>
      <trkpt lat="41.98922333" lon="2.82500333">
        <ele>67.0</ele>
        <time>2021-08-21T08:16:34.025Z</time>
      </trkpt>
      <trkpt lat="41.98923667" lon="2.824965">
        <ele>67.0</ele>
        <time>2021-08-21T08:16:35.015Z</time>
      </trkpt>
      <trkpt lat="41.98923667" lon="2.824965">
        <ele>67.0</ele>
        <time>2021-08-21T08:16:36.027Z</time>
      </trkpt>
      <trkpt lat="41.98926667" lon="2.82487833">
        <ele>66.0</ele>
        <time>2021-08-21T08:16:37.002Z</time>
      </trkpt>
      <trkpt lat="41.98928333" lon="2.82483167">
        <ele>66.0</ele>
        <time>2021-08-21T08:16:37.996Z</time>
      </trkpt>
      <trkpt lat="41.98928333" lon="2.82483167">
        <ele>66.0</ele>
        <time>2021-08-21T08:16:39.005Z</time>
      </trkpt>
      <trkpt lat="41.98932167" lon="2.82474">
        <ele>66.0</ele>
        <time>2021-08-21T08:16:40.011Z</time>
      </trkpt>
      <trkpt lat="41.98932167" lon="2.82474">
        <ele>66.0</ele>
        <time>2021-08-21T08:16:41.024Z</time>
      </trkpt>
      <trkpt lat="41.98936333" lon="2.82465667">
        <ele>65.0</ele>
        <time>2021-08-21T08:16:42.032Z</time>
      </trkpt>
      <trkpt lat="41.98936333" lon="2.82465667">
        <ele>65.0</ele>
        <time>2021-08-21T08:16:43.005Z</time>
      </trkpt>
      <trkpt lat="41.98940667" lon="2.82456667">
        <ele>66.0</ele>
        <time>2021-08-21T08:16:44.013Z</time>
      </trkpt>
      <trkpt lat="41.98942833" lon="2.82452667">
        <ele>66.0</ele>
        <time>2021-08-21T08:16:45.003Z</time>
      </trkpt>
      <trkpt lat="41.98942833" lon="2.82452667">
        <ele>66.0</ele>
        <time>2021-08-21T08:16:45.999Z</time>
      </trkpt>
      <trkpt lat="41.989475" lon="2.82445">
        <ele>66.0</ele>
        <time>2021-08-21T08:16:47.009Z</time>
      </trkpt>
      <trkpt lat="41.9895" lon="2.82441">
        <ele>66.0</ele>
        <time>2021-08-21T08:16:48.029Z</time>
      </trkpt>
      <trkpt lat="41.9895" lon="2.82441">
        <ele>66.0</ele>
        <time>2021-08-21T08:16:48.999Z</time>
      </trkpt>
      <trkpt lat="41.989545" lon="2.82432833">
        <ele>66.0</ele>
        <time>2021-08-21T08:16:50.008Z</time>
      </trkpt>
      <trkpt lat="41.989545" lon="2.82432833">
        <ele>66.0</ele>
        <time>2021-08-21T08:16:51.020Z</time>
      </trkpt>
      <trkpt lat="41.98958167" lon="2.82426">
        <ele>66.0</ele>
        <time>2021-08-21T08:16:51.993Z</time>
      </trkpt>
      <trkpt lat="41.98958167" lon="2.82426">
        <ele>66.0</ele>
        <time>2021-08-21T08:16:52.997Z</time>
      </trkpt>
      <trkpt lat="41.9896" lon="2.824165">
        <ele>66.0</ele>
        <time>2021-08-21T08:16:54.014Z</time>
      </trkpt>
      <trkpt lat="41.9896" lon="2.824165">
        <ele>66.0</ele>
        <time>2021-08-21T08:16:55.001Z</time>
      </trkpt>
      <trkpt lat="41.98960333" lon="2.82405">
        <ele>66.0</ele>
        <time>2021-08-21T08:16:56.025Z</time>
      </trkpt>
      <trkpt lat="41.98960333" lon="2.82405">
        <ele>66.0</ele>
        <time>2021-08-21T08:16:57.002Z</time>
      </trkpt>
      <trkpt lat="41.98958167" lon="2.82392833">
        <ele>66.0</ele>
        <time>2021-08-21T08:16:58.019Z</time>
      </trkpt>
      <trkpt lat="41.98958167" lon="2.82392833">
        <ele>66.0</ele>
        <time>2021-08-21T08:16:59.001Z</time>
      </trkpt>
      <trkpt lat="41.98955" lon="2.82381667">
        <ele>66.0</ele>
        <time>2021-08-21T08:17:00.020Z</time>
      </trkpt>
      <trkpt lat="41.98955" lon="2.82381667">
        <ele>66.0</ele>
        <time>2021-08-21T08:17:01.003Z</time>
      </trkpt>
      <trkpt lat="41.989525" lon="2.82370333">
        <ele>66.0</ele>
        <time>2021-08-21T08:17:02.028Z</time>
      </trkpt>
      <trkpt lat="41.989525" lon="2.82370333">
        <ele>66.0</ele>
        <time>2021-08-21T08:17:03.010Z</time>
      </trkpt>
      <trkpt lat="41.98950833" lon="2.82358333">
        <ele>66.0</ele>
        <time>2021-08-21T08:17:04.023Z</time>
      </trkpt>
      <trkpt lat="41.98950833" lon="2.82358333">
        <ele>66.0</ele>
        <time>2021-08-21T08:17:05.001Z</time>
      </trkpt>
      <trkpt lat="41.98950333" lon="2.823465">
        <ele>67.0</ele>
        <time>2021-08-21T08:17:06.010Z</time>
      </trkpt>
      <trkpt lat="41.98950333" lon="2.823465">
        <ele>67.0</ele>
        <time>2021-08-21T08:17:07.026Z</time>
      </trkpt>
      <trkpt lat="41.98949833" lon="2.823345">
        <ele>66.0</ele>
        <time>2021-08-21T08:17:07.992Z</time>
      </trkpt>
      <trkpt lat="41.98949833" lon="2.823345">
        <ele>66.0</ele>
        <time>2021-08-21T08:17:08.998Z</time>
      </trkpt>
      <trkpt lat="41.98949333" lon="2.82323167">
        <ele>67.0</ele>
        <time>2021-08-21T08:17:10.012Z</time>
      </trkpt>
      <trkpt lat="41.98949333" lon="2.82323167">
        <ele>67.0</ele>
        <time>2021-08-21T08:17:10.993Z</time>
      </trkpt>
      <trkpt lat="41.98949167" lon="2.82311667">
        <ele>67.0</ele>
        <time>2021-08-21T08:17:12.025Z</time>
      </trkpt>
      <trkpt lat="41.98949167" lon="2.82311667">
        <ele>67.0</ele>
        <time>2021-08-21T08:17:13.023Z</time>
      </trkpt>
      <trkpt lat="41.98948667" lon="2.82299833">
        <ele>66.0</ele>
        <time>2021-08-21T08:17:14.004Z</time>
      </trkpt>
      <trkpt lat="41.989475" lon="2.82294333">
        <ele>66.0</ele>
        <time>2021-08-21T08:17:14.994Z</time>
      </trkpt>
      <trkpt lat="41.989475" lon="2.82294333">
        <ele>66.0</ele>
        <time>2021-08-21T08:17:16.018Z</time>
      </trkpt>
      <trkpt lat="41.98942167" lon="2.822865">
        <ele>66.0</ele>
        <time>2021-08-21T08:17:16.993Z</time>
      </trkpt>
      <trkpt lat="41.98938667" lon="2.82285167">
        <ele>66.0</ele>
        <time>2021-08-21T08:17:17.992Z</time>
      </trkpt>
      <trkpt lat="41.98938667" lon="2.82285167">
        <ele>66.0</ele>
        <time>2021-08-21T08:17:19.006Z</time>
      </trkpt>
      <trkpt lat="41.98930167" lon="2.82281833">
        <ele>66.0</ele>
        <time>2021-08-21T08:17:20.014Z</time>
      </trkpt>
      <trkpt lat="41.98930167" lon="2.82281833">
        <ele>66.0</ele>
        <time>2021-08-21T08:17:21.026Z</time>
      </trkpt>
      <trkpt lat="41.989215" lon="2.82275833">
        <ele>66.0</ele>
        <time>2021-08-21T08:17:22.028Z</time>
      </trkpt>
      <trkpt lat="41.989215" lon="2.82275833">
        <ele>66.0</ele>
        <time>2021-08-21T08:17:23.013Z</time>
      </trkpt>
      <trkpt lat="41.98913167" lon="2.82271167">
        <ele>66.0</ele>
        <time>2021-08-21T08:17:24.025Z</time>
      </trkpt>
      <trkpt lat="41.98913167" lon="2.82271167">
        <ele>66.0</ele>
        <time>2021-08-21T08:17:24.999Z</time>
      </trkpt>
      <trkpt lat="41.98903167" lon="2.822705">
        <ele>66.0</ele>
        <time>2021-08-21T08:17:25.993Z</time>
      </trkpt>
      <trkpt lat="41.98903167" lon="2.822705">
        <ele>66.0</ele>
        <time>2021-08-21T08:17:27.013Z</time>
      </trkpt>
      <trkpt lat="41.988935" lon="2.82272333">
        <ele>66.0</ele>
        <time>2021-08-21T08:17:28.020Z</time>
      </trkpt>
      <trkpt lat="41.988935" lon="2.82272333">
        <ele>66.0</ele>
        <time>2021-08-21T08:17:28.993Z</time>
      </trkpt>
      <trkpt lat="41.98883333" lon="2.822745">
        <ele>66.0</ele>
        <time>2021-08-21T08:17:30.003Z</time>
      </trkpt>
      <trkpt lat="41.98883333" lon="2.822745">
        <ele>66.0</ele>
        <time>2021-08-21T08:17:31.014Z</time>
      </trkpt>
      <trkpt lat="41.98873333" lon="2.82277333">
        <ele>66.0</ele>
        <time>2021-08-21T08:17:32.021Z</time>
      </trkpt>
      <trkpt lat="41.98868333" lon="2.82278833">
        <ele>66.0</ele>
        <time>2021-08-21T08:17:33.024Z</time>
      </trkpt>
      <trkpt lat="41.98868333" lon="2.82278833">
        <ele>66.0</ele>
        <time>2021-08-21T08:17:34.005Z</time>
      </trkpt>
      <trkpt lat="41.98858333" lon="2.82281333">
        <ele>66.0</ele>
        <time>2021-08-21T08:17:35.029Z</time>
      </trkpt>
      <trkpt lat="41.98858333" lon="2.82281333">
        <ele>66.0</ele>
        <time>2021-08-21T08:17:36.002Z</time>
      </trkpt>
      <trkpt lat="41.98848333" lon="2.82284">
        <ele>66.0</ele>
        <time>2021-08-21T08:17:36.992Z</time>
      </trkpt>
      <trkpt lat="41.98848333" lon="2.82284">
        <ele>66.0</ele>
        <time>2021-08-21T08:17:37.994Z</time>
      </trkpt>
      <trkpt lat="41.988385" lon="2.822865">
        <ele>66.0</ele>
        <time>2021-08-21T08:17:39.009Z</time>
      </trkpt>
      <trkpt lat="41.988385" lon="2.822865">
        <ele>66.0</ele>
        <time>2021-08-21T08:17:40.022Z</time>
      </trkpt>
      <trkpt lat="41.98829" lon="2.822885">
        <ele>66.0</ele>
        <time>2021-08-21T08:17:40.992Z</time>
      </trkpt>
      <trkpt lat="41.98829" lon="2.822885">
        <ele>66.0</ele>
        <time>2021-08-21T08:17:42.007Z</time>
      </trkpt>
      <trkpt lat="41.98820167" lon="2.82291167">
        <ele>66.0</ele>
        <time>2021-08-21T08:17:42.993Z</time>
      </trkpt>
      <trkpt lat="41.98816" lon="2.82293167">
        <ele>66.0</ele>
        <time>2021-08-21T08:17:44.032Z</time>
      </trkpt>
      <trkpt lat="41.98816" lon="2.82293167">
        <ele>66.0</ele>
        <time>2021-08-21T08:17:44.998Z</time>
      </trkpt>
      <trkpt lat="41.988085" lon="2.82296167">
        <ele>66.0</ele>
        <time>2021-08-21T08:17:46.010Z</time>
      </trkpt>
      <trkpt lat="41.988085" lon="2.82296167">
        <ele>66.0</ele>
        <time>2021-08-21T08:17:47.026Z</time>
      </trkpt>
      <trkpt lat="41.987995" lon="2.82301167">
        <ele>66.0</ele>
        <time>2021-08-21T08:17:48.014Z</time>
      </trkpt>
      <trkpt lat="41.987995" lon="2.82301167">
        <ele>66.0</ele>
        <time>2021-08-21T08:17:49.006Z</time>
      </trkpt>
      <trkpt lat="41.98790667" lon="2.82307">
        <ele>65.0</ele>
        <time>2021-08-21T08:17:50.012Z</time>
      </trkpt>
      <trkpt lat="41.98790667" lon="2.82307">
        <ele>65.0</ele>
        <time>2021-08-21T08:17:51.024Z</time>
      </trkpt>
      <trkpt lat="41.98781167" lon="2.82311667">
        <ele>66.0</ele>
        <time>2021-08-21T08:17:51.992Z</time>
      </trkpt>
      <trkpt lat="41.98781167" lon="2.82311667">
        <ele>66.0</ele>
        <time>2021-08-21T08:17:53.014Z</time>
      </trkpt>
      <trkpt lat="41.98772" lon="2.82316667">
        <ele>66.0</ele>
        <time>2021-08-21T08:17:54.021Z</time>
      </trkpt>
      <trkpt lat="41.98772" lon="2.82316667">
        <ele>66.0</ele>
        <time>2021-08-21T08:17:55.004Z</time>
      </trkpt>
      <trkpt lat="41.98763" lon="2.82321">
        <ele>66.0</ele>
        <time>2021-08-21T08:17:55.996Z</time>
      </trkpt>
      <trkpt lat="41.98763" lon="2.82321">
        <ele>66.0</ele>
        <time>2021-08-21T08:17:57.006Z</time>
      </trkpt>
      <trkpt lat="41.98753167" lon="2.82326">
        <ele>66.0</ele>
        <time>2021-08-21T08:17:57.993Z</time>
      </trkpt>
      <trkpt lat="41.98753167" lon="2.82326">
        <ele>66.0</ele>
        <time>2021-08-21T08:17:59.007Z</time>
      </trkpt>
      <trkpt lat="41.98743" lon="2.82329167">
        <ele>66.0</ele>
        <time>2021-08-21T08:18:00.015Z</time>
      </trkpt>
      <trkpt lat="41.98743" lon="2.82329167">
        <ele>66.0</ele>
        <time>2021-08-21T08:18:01.014Z</time>
      </trkpt>
      <trkpt lat="41.98733667" lon="2.82333167">
        <ele>66.0</ele>
        <time>2021-08-21T08:18:02.009Z</time>
      </trkpt>
      <trkpt lat="41.98733667" lon="2.82333167">
        <ele>66.0</ele>
        <time>2021-08-21T08:18:02.992Z</time>
      </trkpt>
      <trkpt lat="41.98724667" lon="2.82336833">
        <ele>67.0</ele>
        <time>2021-08-21T08:18:04.000Z</time>
      </trkpt>
      <trkpt lat="41.98724667" lon="2.82336833">
        <ele>67.0</ele>
        <time>2021-08-21T08:18:05.014Z</time>
      </trkpt>
      <trkpt lat="41.987165" lon="2.82339833">
        <ele>67.0</ele>
        <time>2021-08-21T08:18:06.033Z</time>
      </trkpt>
      <trkpt lat="41.987165" lon="2.82339833">
        <ele>67.0</ele>
        <time>2021-08-21T08:18:07.016Z</time>
      </trkpt>
      <trkpt lat="41.98707" lon="2.823455">
        <ele>68.0</ele>
        <time>2021-08-21T08:18:08.025Z</time>
      </trkpt>
      <trkpt lat="41.98702667" lon="2.82347667">
        <ele>68.0</ele>
        <time>2021-08-21T08:18:09.014Z</time>
      </trkpt>
      <trkpt lat="41.98702667" lon="2.82347667">
        <ele>68.0</ele>
        <time>2021-08-21T08:18:09.994Z</time>
      </trkpt>
      <trkpt lat="41.98693667" lon="2.82351">
        <ele>68.0</ele>
        <time>2021-08-21T08:18:11.016Z</time>
      </trkpt>
      <trkpt lat="41.98689167" lon="2.823525">
        <ele>68.0</ele>
        <time>2021-08-21T08:18:12.026Z</time>
      </trkpt>
      <trkpt lat="41.98689167" lon="2.823525">
        <ele>68.0</ele>
        <time>2021-08-21T08:18:12.992Z</time>
      </trkpt>
      <trkpt lat="41.98679667" lon="2.82356">
        <ele>69.0</ele>
        <time>2021-08-21T08:18:14.000Z</time>
      </trkpt>
      <trkpt lat="41.98679667" lon="2.82356">
        <ele>69.0</ele>
        <time>2021-08-21T08:18:15.026Z</time>
      </trkpt>
      <trkpt lat="41.98672" lon="2.82358833">
        <ele>69.0</ele>
        <time>2021-08-21T08:18:16.033Z</time>
      </trkpt>
      <trkpt lat="41.98672" lon="2.82358833">
        <ele>69.0</ele>
        <time>2021-08-21T08:18:17.018Z</time>
      </trkpt>
      <trkpt lat="41.98663667" lon="2.82362667">
        <ele>69.0</ele>
        <time>2021-08-21T08:18:18.024Z</time>
      </trkpt>
      <trkpt lat="41.98663667" lon="2.82362667">
        <ele>69.0</ele>
        <time>2021-08-21T08:18:19.019Z</time>
      </trkpt>
      <trkpt lat="41.98655667" lon="2.82366667">
        <ele>69.0</ele>
        <time>2021-08-21T08:18:20.022Z</time>
      </trkpt>
      <trkpt lat="41.98655667" lon="2.82366667">
        <ele>69.0</ele>
        <time>2021-08-21T08:18:20.998Z</time>
      </trkpt>
      <trkpt lat="41.98647833" lon="2.82370667">
        <ele>69.0</ele>
        <time>2021-08-21T08:18:22.013Z</time>
      </trkpt>
      <trkpt lat="41.98643667" lon="2.82372667">
        <ele>69.0</ele>
        <time>2021-08-21T08:18:23.026Z</time>
      </trkpt>
      <trkpt lat="41.98643667" lon="2.82372667">
        <ele>69.0</ele>
        <time>2021-08-21T08:18:24.010Z</time>
      </trkpt>
      <trkpt lat="41.98644" lon="2.82379667">
        <ele>71.0</ele>
        <time>2021-08-21T08:18:25.024Z</time>
      </trkpt>
      <trkpt lat="41.98644" lon="2.82379667">
        <ele>71.0</ele>
        <time>2021-08-21T08:18:26.030Z</time>
      </trkpt>
      <trkpt lat="41.98637167" lon="2.82376">
        <ele>70.0</ele>
        <time>2021-08-21T08:18:26.992Z</time>
      </trkpt>
      <trkpt lat="41.98637167" lon="2.82376">
        <ele>70.0</ele>
        <time>2021-08-21T08:18:27.999Z</time>
      </trkpt>
      <trkpt lat="41.98631333" lon="2.82366333">
        <ele>70.0</ele>
        <time>2021-08-21T08:18:29.012Z</time>
      </trkpt>
      <trkpt lat="41.98628667" lon="2.82361167">
        <ele>70.0</ele>
        <time>2021-08-21T08:18:30.031Z</time>
      </trkpt>
      <trkpt lat="41.98628667" lon="2.82361167">
        <ele>70.0</ele>
        <time>2021-08-21T08:18:31.003Z</time>
      </trkpt>
      <trkpt lat="41.98624167" lon="2.82350667">
        <ele>69.0</ele>
        <time>2021-08-21T08:18:32.016Z</time>
      </trkpt>
      <trkpt lat="41.98622" lon="2.82345333">
        <ele>69.0</ele>
        <time>2021-08-21T08:18:33.023Z</time>
      </trkpt>
      <trkpt lat="41.98622" lon="2.82345333">
        <ele>69.0</ele>
        <time>2021-08-21T08:18:34.000Z</time>
      </trkpt>
      <trkpt lat="41.98617167" lon="2.82334833">
        <ele>69.0</ele>
        <time>2021-08-21T08:18:35.013Z</time>
      </trkpt>
      <trkpt lat="41.98614833" lon="2.82330833">
        <ele>69.0</ele>
        <time>2021-08-21T08:18:36.027Z</time>
      </trkpt>
      <trkpt lat="41.98614833" lon="2.82330833">
        <ele>69.0</ele>
        <time>2021-08-21T08:18:37.022Z</time>
      </trkpt>
      <trkpt lat="41.98607" lon="2.82329">
        <ele>70.0</ele>
        <time>2021-08-21T08:18:38.031Z</time>
      </trkpt>
      <trkpt lat="41.98607" lon="2.82329">
        <ele>70.0</ele>
        <time>2021-08-21T08:18:39.007Z</time>
      </trkpt>
      <trkpt lat="41.98597667" lon="2.82332">
        <ele>70.0</ele>
        <time>2021-08-21T08:18:40.015Z</time>
      </trkpt>
      <trkpt lat="41.98593" lon="2.82333167">
        <ele>70.0</ele>
        <time>2021-08-21T08:18:41.025Z</time>
      </trkpt>
      <trkpt lat="41.985885" lon="2.823345">
        <ele>70.0</ele>
        <time>2021-08-21T08:18:42.005Z</time>
      </trkpt>
      <trkpt lat="41.985885" lon="2.823345">
        <ele>70.0</ele>
        <time>2021-08-21T08:18:43.019Z</time>
      </trkpt>
      <trkpt lat="41.98579667" lon="2.82337167">
        <ele>70.0</ele>
        <time>2021-08-21T08:18:44.027Z</time>
      </trkpt>
      <trkpt lat="41.985755" lon="2.82338333">
        <ele>70.0</ele>
        <time>2021-08-21T08:18:45.004Z</time>
      </trkpt>
      <trkpt lat="41.985755" lon="2.82338333">
        <ele>70.0</ele>
        <time>2021-08-21T08:18:45.997Z</time>
      </trkpt>
      <trkpt lat="41.985665" lon="2.82341333">
        <ele>70.0</ele>
        <time>2021-08-21T08:18:47.015Z</time>
      </trkpt>
      <trkpt lat="41.98562333" lon="2.82342833">
        <ele>70.0</ele>
        <time>2021-08-21T08:18:48.028Z</time>
      </trkpt>
      <trkpt lat="41.98562333" lon="2.82342833">
        <ele>70.0</ele>
        <time>2021-08-21T08:18:49.002Z</time>
      </trkpt>
      <trkpt lat="41.98553" lon="2.82346333">
        <ele>70.0</ele>
        <time>2021-08-21T08:18:50.012Z</time>
      </trkpt>
      <trkpt lat="41.98553" lon="2.82346333">
        <ele>70.0</ele>
        <time>2021-08-21T08:18:51.024Z</time>
      </trkpt>
      <trkpt lat="41.98544333" lon="2.82348833">
        <ele>70.0</ele>
        <time>2021-08-21T08:18:52.003Z</time>
      </trkpt>
      <trkpt lat="41.98544333" lon="2.82348833">
        <ele>70.0</ele>
        <time>2021-08-21T08:18:53.026Z</time>
      </trkpt>
      <trkpt lat="41.98535667" lon="2.82354333">
        <ele>71.0</ele>
        <time>2021-08-21T08:18:54.014Z</time>
      </trkpt>
      <trkpt lat="41.98535667" lon="2.82354333">
        <ele>71.0</ele>
        <time>2021-08-21T08:18:55.028Z</time>
      </trkpt>
      <trkpt lat="41.98526833" lon="2.82354833">
        <ele>71.0</ele>
        <time>2021-08-21T08:18:55.993Z</time>
      </trkpt>
      <trkpt lat="41.98526833" lon="2.82354833">
        <ele>71.0</ele>
        <time>2021-08-21T08:18:57.019Z</time>
      </trkpt>
      <trkpt lat="41.98518333" lon="2.82353167">
        <ele>71.0</ele>
        <time>2021-08-21T08:18:58.029Z</time>
      </trkpt>
      <trkpt lat="41.98514" lon="2.82352333">
        <ele>71.0</ele>
        <time>2021-08-21T08:18:58.992Z</time>
      </trkpt>
      <trkpt lat="41.9851" lon="2.82350833">
        <ele>71.0</ele>
        <time>2021-08-21T08:19:00.008Z</time>
      </trkpt>
      <trkpt lat="41.9851" lon="2.82350833">
        <ele>71.0</ele>
        <time>2021-08-21T08:19:01.020Z</time>
      </trkpt>
      <trkpt lat="41.98502167" lon="2.82346667">
        <ele>71.0</ele>
        <time>2021-08-21T08:19:02.014Z</time>
      </trkpt>
      <trkpt lat="41.98498333" lon="2.82345833">
        <ele>71.0</ele>
        <time>2021-08-21T08:19:03.010Z</time>
      </trkpt>
      <trkpt lat="41.98498333" lon="2.82345833">
        <ele>71.0</ele>
        <time>2021-08-21T08:19:04.023Z</time>
      </trkpt>
      <trkpt lat="41.98489667" lon="2.82342833">
        <ele>72.0</ele>
        <time>2021-08-21T08:19:04.998Z</time>
      </trkpt>
      <trkpt lat="41.98485667" lon="2.82341167">
        <ele>72.0</ele>
        <time>2021-08-21T08:19:06.023Z</time>
      </trkpt>
      <trkpt lat="41.98485667" lon="2.82341167">
        <ele>72.0</ele>
        <time>2021-08-21T08:19:07.009Z</time>
      </trkpt>
      <trkpt lat="41.98477333" lon="2.82342">
        <ele>72.0</ele>
        <time>2021-08-21T08:19:08.022Z</time>
      </trkpt>
      <trkpt lat="41.98477333" lon="2.82342">
        <ele>72.0</ele>
        <time>2021-08-21T08:19:09.001Z</time>
      </trkpt>
      <trkpt lat="41.98469667" lon="2.823425">
        <ele>72.0</ele>
        <time>2021-08-21T08:19:10.011Z</time>
      </trkpt>
      <trkpt lat="41.98469667" lon="2.823425">
        <ele>72.0</ele>
        <time>2021-08-21T08:19:11.026Z</time>
      </trkpt>
      <trkpt lat="41.98461833" lon="2.82340833">
        <ele>72.0</ele>
        <time>2021-08-21T08:19:12.002Z</time>
      </trkpt>
      <trkpt lat="41.98461833" lon="2.82340833">
        <ele>72.0</ele>
        <time>2021-08-21T08:19:13.015Z</time>
      </trkpt>
      <trkpt lat="41.98453333" lon="2.82338167">
        <ele>72.0</ele>
        <time>2021-08-21T08:19:14.022Z</time>
      </trkpt>
      <trkpt lat="41.98453333" lon="2.82338167">
        <ele>72.0</ele>
        <time>2021-08-21T08:19:15.000Z</time>
      </trkpt>
      <trkpt lat="41.98443667" lon="2.82335833">
        <ele>72.0</ele>
        <time>2021-08-21T08:19:16.025Z</time>
      </trkpt>
      <trkpt lat="41.98443667" lon="2.82335833">
        <ele>72.0</ele>
        <time>2021-08-21T08:19:17.018Z</time>
      </trkpt>
      <trkpt lat="41.98435167" lon="2.82333667">
        <ele>72.0</ele>
        <time>2021-08-21T08:19:17.992Z</time>
      </trkpt>
      <trkpt lat="41.98435167" lon="2.82333667">
        <ele>72.0</ele>
        <time>2021-08-21T08:19:19.014Z</time>
      </trkpt>
      <trkpt lat="41.984265" lon="2.82332">
        <ele>73.0</ele>
        <time>2021-08-21T08:19:20.024Z</time>
      </trkpt>
      <trkpt lat="41.984265" lon="2.82332">
        <ele>73.0</ele>
        <time>2021-08-21T08:19:21.028Z</time>
      </trkpt>
      <trkpt lat="41.98417833" lon="2.82329333">
        <ele>73.0</ele>
        <time>2021-08-21T08:19:22.010Z</time>
      </trkpt>
      <trkpt lat="41.98414" lon="2.82327667">
        <ele>73.0</ele>
        <time>2021-08-21T08:19:23.026Z</time>
      </trkpt>
      <trkpt lat="41.98414" lon="2.82327667">
        <ele>73.0</ele>
        <time>2021-08-21T08:19:24.026Z</time>
      </trkpt>
      <trkpt lat="41.98405333" lon="2.82325">
        <ele>73.0</ele>
        <time>2021-08-21T08:19:24.995Z</time>
      </trkpt>
      <trkpt lat="41.98405333" lon="2.82325">
        <ele>73.0</ele>
        <time>2021-08-21T08:19:26.009Z</time>
      </trkpt>
      <trkpt lat="41.98396667" lon="2.82323333">
        <ele>73.0</ele>
        <time>2021-08-21T08:19:27.021Z</time>
      </trkpt>
      <trkpt lat="41.98396667" lon="2.82323333">
        <ele>73.0</ele>
        <time>2021-08-21T08:19:27.994Z</time>
      </trkpt>
      <trkpt lat="41.98388" lon="2.82319833">
        <ele>73.0</ele>
        <time>2021-08-21T08:19:29.001Z</time>
      </trkpt>
      <trkpt lat="41.983835" lon="2.82321333">
        <ele>73.0</ele>
        <time>2021-08-21T08:19:30.018Z</time>
      </trkpt>
      <trkpt lat="41.983835" lon="2.82321333">
        <ele>73.0</ele>
        <time>2021-08-21T08:19:30.996Z</time>
      </trkpt>
      <trkpt lat="41.98375" lon="2.82318833">
        <ele>74.0</ele>
        <time>2021-08-21T08:19:32.023Z</time>
      </trkpt>
      <trkpt lat="41.98375" lon="2.82318833">
        <ele>74.0</ele>
        <time>2021-08-21T08:19:33.005Z</time>
      </trkpt>
      <trkpt lat="41.98366667" lon="2.82317">
        <ele>74.0</ele>
        <time>2021-08-21T08:19:34.002Z</time>
      </trkpt>
      <trkpt lat="41.98366667" lon="2.82317">
        <ele>74.0</ele>
        <time>2021-08-21T08:19:34.994Z</time>
      </trkpt>
      <trkpt lat="41.983595" lon="2.82313333">
        <ele>74.0</ele>
        <time>2021-08-21T08:19:36.001Z</time>
      </trkpt>
      <trkpt lat="41.983595" lon="2.82313333">
        <ele>74.0</ele>
        <time>2021-08-21T08:19:37.016Z</time>
      </trkpt>
      <trkpt lat="41.98351333" lon="2.82310833">
        <ele>74.0</ele>
        <time>2021-08-21T08:19:38.023Z</time>
      </trkpt>
      <trkpt lat="41.98351333" lon="2.82310833">
        <ele>74.0</ele>
        <time>2021-08-21T08:19:39.012Z</time>
      </trkpt>
      <trkpt lat="41.98342667" lon="2.82307667">
        <ele>74.0</ele>
        <time>2021-08-21T08:19:40.023Z</time>
      </trkpt>
      <trkpt lat="41.98342667" lon="2.82307667">
        <ele>74.0</ele>
        <time>2021-08-21T08:19:40.997Z</time>
      </trkpt>
      <trkpt lat="41.98334" lon="2.82308833">
        <ele>73.0</ele>
        <time>2021-08-21T08:19:42.001Z</time>
      </trkpt>
      <trkpt lat="41.98334" lon="2.82308833">
        <ele>73.0</ele>
        <time>2021-08-21T08:19:43.015Z</time>
      </trkpt>
      <trkpt lat="41.98325333" lon="2.82305667">
        <ele>73.0</ele>
        <time>2021-08-21T08:19:44.030Z</time>
      </trkpt>
      <trkpt lat="41.98325333" lon="2.82305667">
        <ele>73.0</ele>
        <time>2021-08-21T08:19:45.005Z</time>
      </trkpt>
      <trkpt lat="41.983165" lon="2.82299833">
        <ele>73.0</ele>
        <time>2021-08-21T08:19:46.019Z</time>
      </trkpt>
      <trkpt lat="41.983165" lon="2.82299833">
        <ele>73.0</ele>
        <time>2021-08-21T08:19:47.022Z</time>
      </trkpt>
      <trkpt lat="41.98309833" lon="2.82290167">
        <ele>73.0</ele>
        <time>2021-08-21T08:19:48.030Z</time>
      </trkpt>
      <trkpt lat="41.98309833" lon="2.82290167">
        <ele>73.0</ele>
        <time>2021-08-21T08:19:49.003Z</time>
      </trkpt>
      <trkpt lat="41.983015" lon="2.82289167">
        <ele>72.0</ele>
        <time>2021-08-21T08:19:50.006Z</time>
      </trkpt>
      <trkpt lat="41.983015" lon="2.82289167">
        <ele>72.0</ele>
        <time>2021-08-21T08:19:51.019Z</time>
      </trkpt>
      <trkpt lat="41.98293333" lon="2.82286167">
        <ele>72.0</ele>
        <time>2021-08-21T08:19:52.025Z</time>
      </trkpt>
      <trkpt lat="41.98293333" lon="2.82286167">
        <ele>72.0</ele>
        <time>2021-08-21T08:19:52.999Z</time>
      </trkpt>
      <trkpt lat="41.98285" lon="2.82283333">
        <ele>71.0</ele>
        <time>2021-08-21T08:19:53.995Z</time>
      </trkpt>
      <trkpt lat="41.98285" lon="2.82283333">
        <ele>71.0</ele>
        <time>2021-08-21T08:19:55.001Z</time>
      </trkpt>
      <trkpt lat="41.98277667" lon="2.82281167">
        <ele>71.0</ele>
        <time>2021-08-21T08:19:56.019Z</time>
      </trkpt>
      <trkpt lat="41.98277667" lon="2.82281167">
        <ele>71.0</ele>
        <time>2021-08-21T08:19:57.025Z</time>
      </trkpt>
      <trkpt lat="41.98272167" lon="2.82279833">
        <ele>70.0</ele>
        <time>2021-08-21T08:19:58.006Z</time>
      </trkpt>
      <trkpt lat="41.98272167" lon="2.82279833">
        <ele>70.0</ele>
        <time>2021-08-21T08:19:59.014Z</time>
      </trkpt>
      <trkpt lat="41.98265833" lon="2.82278833">
        <ele>69.0</ele>
        <time>2021-08-21T08:19:59.996Z</time>
      </trkpt>
      <trkpt lat="41.98265833" lon="2.82278833">
        <ele>69.0</ele>
        <time>2021-08-21T08:20:01.017Z</time>
      </trkpt>
      <trkpt lat="41.98258" lon="2.822775">
        <ele>69.0</ele>
        <time>2021-08-21T08:20:02.017Z</time>
      </trkpt>
      <trkpt lat="41.98258" lon="2.822775">
        <ele>69.0</ele>
        <time>2021-08-21T08:20:02.994Z</time>
      </trkpt>
      <trkpt lat="41.98250167" lon="2.82276167">
        <ele>69.0</ele>
        <time>2021-08-21T08:20:04.001Z</time>
      </trkpt>
      <trkpt lat="41.98250167" lon="2.82276167">
        <ele>69.0</ele>
        <time>2021-08-21T08:20:05.020Z</time>
      </trkpt>
      <trkpt lat="41.98242" lon="2.82275667">
        <ele>68.0</ele>
        <time>2021-08-21T08:20:06.017Z</time>
      </trkpt>
      <trkpt lat="41.98242" lon="2.82275667">
        <ele>68.0</ele>
        <time>2021-08-21T08:20:06.997Z</time>
      </trkpt>
      <trkpt lat="41.982345" lon="2.82276333">
        <ele>68.0</ele>
        <time>2021-08-21T08:20:08.005Z</time>
      </trkpt>
      <trkpt lat="41.982345" lon="2.82276333">
        <ele>68.0</ele>
        <time>2021-08-21T08:20:09.018Z</time>
      </trkpt>
      <trkpt lat="41.98229167" lon="2.822775">
        <ele>68.0</ele>
        <time>2021-08-21T08:20:09.993Z</time>
      </trkpt>
      <trkpt lat="41.98229167" lon="2.822775">
        <ele>68.0</ele>
        <time>2021-08-21T08:20:11.013Z</time>
      </trkpt>
      <trkpt lat="41.98226667" lon="2.82278833">
        <ele>69.0</ele>
        <time>2021-08-21T08:20:11.997Z</time>
      </trkpt>
      <trkpt lat="41.98226667" lon="2.82278833">
        <ele>69.0</ele>
        <time>2021-08-21T08:20:13.010Z</time>
      </trkpt>
      <trkpt lat="41.98226667" lon="2.82275667">
        <ele>69.0</ele>
        <time>2021-08-21T08:20:13.992Z</time>
      </trkpt>
      <trkpt lat="41.98226667" lon="2.82275667">
        <ele>69.0</ele>
        <time>2021-08-21T08:20:14.998Z</time>
      </trkpt>
      <trkpt lat="41.98229" lon="2.82275667">
        <ele>69.0</ele>
        <time>2021-08-21T08:20:16.010Z</time>
      </trkpt>
      <trkpt lat="41.98229" lon="2.82275667">
        <ele>69.0</ele>
        <time>2021-08-21T08:20:17.023Z</time>
      </trkpt>
      <trkpt lat="41.98225333" lon="2.82285">
        <ele>69.0</ele>
        <time>2021-08-21T08:20:17.998Z</time>
      </trkpt>
      <trkpt lat="41.98225333" lon="2.82285">
        <ele>69.0</ele>
        <time>2021-08-21T08:20:19.013Z</time>
      </trkpt>
      <trkpt lat="41.98219667" lon="2.82294167">
        <ele>70.0</ele>
        <time>2021-08-21T08:20:20.008Z</time>
      </trkpt>
      <trkpt lat="41.98219667" lon="2.82294167">
        <ele>70.0</ele>
        <time>2021-08-21T08:20:21.024Z</time>
      </trkpt>
      <trkpt lat="41.982145" lon="2.823015">
        <ele>70.0</ele>
        <time>2021-08-21T08:20:22.026Z</time>
      </trkpt>
      <trkpt lat="41.982145" lon="2.823015">
        <ele>70.0</ele>
        <time>2021-08-21T08:20:23.000Z</time>
      </trkpt>
      <trkpt lat="41.98206833" lon="2.82306333">
        <ele>71.0</ele>
        <time>2021-08-21T08:20:24.010Z</time>
      </trkpt>
      <trkpt lat="41.98206833" lon="2.82306333">
        <ele>71.0</ele>
        <time>2021-08-21T08:20:25.027Z</time>
      </trkpt>
      <trkpt lat="41.98198" lon="2.82308">
        <ele>71.0</ele>
        <time>2021-08-21T08:20:26.023Z</time>
      </trkpt>
      <trkpt lat="41.98198" lon="2.82308">
        <ele>71.0</ele>
        <time>2021-08-21T08:20:27.023Z</time>
      </trkpt>
      <trkpt lat="41.98189167" lon="2.8231">
        <ele>71.0</ele>
        <time>2021-08-21T08:20:28.000Z</time>
      </trkpt>
      <trkpt lat="41.98189167" lon="2.8231">
        <ele>71.0</ele>
        <time>2021-08-21T08:20:29.014Z</time>
      </trkpt>
      <trkpt lat="41.98180333" lon="2.82311833">
        <ele>71.0</ele>
        <time>2021-08-21T08:20:30.030Z</time>
      </trkpt>
      <trkpt lat="41.98180333" lon="2.82311833">
        <ele>71.0</ele>
        <time>2021-08-21T08:20:31.016Z</time>
      </trkpt>
      <trkpt lat="41.98171167" lon="2.823135">
        <ele>71.0</ele>
        <time>2021-08-21T08:20:32.029Z</time>
      </trkpt>
      <trkpt lat="41.98166667" lon="2.82314">
        <ele>71.0</ele>
        <time>2021-08-21T08:20:33.021Z</time>
      </trkpt>
      <trkpt lat="41.98166667" lon="2.82314">
        <ele>71.0</ele>
        <time>2021-08-21T08:20:33.998Z</time>
      </trkpt>
      <trkpt lat="41.98157667" lon="2.82315167">
        <ele>71.0</ele>
        <time>2021-08-21T08:20:35.011Z</time>
      </trkpt>
      <trkpt lat="41.981535" lon="2.82315667">
        <ele>71.0</ele>
        <time>2021-08-21T08:20:36.021Z</time>
      </trkpt>
      <trkpt lat="41.981535" lon="2.82315667">
        <ele>71.0</ele>
        <time>2021-08-21T08:20:36.995Z</time>
      </trkpt>
      <trkpt lat="41.98144833" lon="2.82317">
        <ele>71.0</ele>
        <time>2021-08-21T08:20:38.002Z</time>
      </trkpt>
      <trkpt lat="41.98144833" lon="2.82317">
        <ele>71.0</ele>
        <time>2021-08-21T08:20:39.015Z</time>
      </trkpt>
      <trkpt lat="41.98136167" lon="2.82320167">
        <ele>71.0</ele>
        <time>2021-08-21T08:20:40.027Z</time>
      </trkpt>
      <trkpt lat="41.98136167" lon="2.82320167">
        <ele>71.0</ele>
        <time>2021-08-21T08:20:41.028Z</time>
      </trkpt>
      <trkpt lat="41.981275" lon="2.823245">
        <ele>71.0</ele>
        <time>2021-08-21T08:20:42.007Z</time>
      </trkpt>
      <trkpt lat="41.981275" lon="2.823245">
        <ele>71.0</ele>
        <time>2021-08-21T08:20:43.015Z</time>
      </trkpt>
      <trkpt lat="41.98118833" lon="2.82329167">
        <ele>71.0</ele>
        <time>2021-08-21T08:20:44.022Z</time>
      </trkpt>
      <trkpt lat="41.98118833" lon="2.82329167">
        <ele>71.0</ele>
        <time>2021-08-21T08:20:44.998Z</time>
      </trkpt>
      <trkpt lat="41.9811" lon="2.82333">
        <ele>71.0</ele>
        <time>2021-08-21T08:20:46.015Z</time>
      </trkpt>
      <trkpt lat="41.981055" lon="2.82334333">
        <ele>71.0</ele>
        <time>2021-08-21T08:20:46.994Z</time>
      </trkpt>
      <trkpt lat="41.981055" lon="2.82334333">
        <ele>71.0</ele>
        <time>2021-08-21T08:20:48.022Z</time>
      </trkpt>
      <trkpt lat="41.98096167" lon="2.82336667">
        <ele>71.0</ele>
        <time>2021-08-21T08:20:48.994Z</time>
      </trkpt>
      <trkpt lat="41.98096167" lon="2.82336667">
        <ele>71.0</ele>
        <time>2021-08-21T08:20:50.008Z</time>
      </trkpt>
      <trkpt lat="41.980865" lon="2.82338">
        <ele>71.0</ele>
        <time>2021-08-21T08:20:51.026Z</time>
      </trkpt>
      <trkpt lat="41.98081667" lon="2.82340167">
        <ele>71.0</ele>
        <time>2021-08-21T08:20:52.002Z</time>
      </trkpt>
      <trkpt lat="41.98081667" lon="2.82340167">
        <ele>71.0</ele>
        <time>2021-08-21T08:20:53.016Z</time>
      </trkpt>
      <trkpt lat="41.980715" lon="2.82343333">
        <ele>72.0</ele>
        <time>2021-08-21T08:20:54.001Z</time>
      </trkpt>
      <trkpt lat="41.980715" lon="2.82343333">
        <ele>72.0</ele>
        <time>2021-08-21T08:20:55.009Z</time>
      </trkpt>
      <trkpt lat="41.98061667" lon="2.82346167">
        <ele>72.0</ele>
        <time>2021-08-21T08:20:56.025Z</time>
      </trkpt>
      <trkpt lat="41.98061667" lon="2.82346167">
        <ele>72.0</ele>
        <time>2021-08-21T08:20:57.005Z</time>
      </trkpt>
      <trkpt lat="41.980525" lon="2.82350167">
        <ele>72.0</ele>
        <time>2021-08-21T08:20:58.033Z</time>
      </trkpt>
      <trkpt lat="41.980525" lon="2.82350167">
        <ele>72.0</ele>
        <time>2021-08-21T08:20:59.029Z</time>
      </trkpt>
      <trkpt lat="41.98044167" lon="2.82353667">
        <ele>72.0</ele>
        <time>2021-08-21T08:21:00.008Z</time>
      </trkpt>
      <trkpt lat="41.98044167" lon="2.82353667">
        <ele>72.0</ele>
        <time>2021-08-21T08:21:01.020Z</time>
      </trkpt>
      <trkpt lat="41.98035" lon="2.82357167">
        <ele>73.0</ele>
        <time>2021-08-21T08:21:01.997Z</time>
      </trkpt>
      <trkpt lat="41.98035" lon="2.82357167">
        <ele>73.0</ele>
        <time>2021-08-21T08:21:03.012Z</time>
      </trkpt>
      <trkpt lat="41.980255" lon="2.82359">
        <ele>73.0</ele>
        <time>2021-08-21T08:21:03.999Z</time>
      </trkpt>
      <trkpt lat="41.980255" lon="2.82359">
        <ele>73.0</ele>
        <time>2021-08-21T08:21:05.029Z</time>
      </trkpt>
      <trkpt lat="41.98016167" lon="2.823615">
        <ele>73.0</ele>
        <time>2021-08-21T08:21:06.005Z</time>
      </trkpt>
      <trkpt lat="41.98016167" lon="2.823615">
        <ele>73.0</ele>
        <time>2021-08-21T08:21:07.004Z</time>
      </trkpt>
      <trkpt lat="41.98007167" lon="2.82363333">
        <ele>73.0</ele>
        <time>2021-08-21T08:21:08.032Z</time>
      </trkpt>
      <trkpt lat="41.98007167" lon="2.82363333">
        <ele>73.0</ele>
        <time>2021-08-21T08:21:09.007Z</time>
      </trkpt>
      <trkpt lat="41.979995" lon="2.82364167">
        <ele>73.0</ele>
        <time>2021-08-21T08:21:10.026Z</time>
      </trkpt>
      <trkpt lat="41.979995" lon="2.82364167">
        <ele>73.0</ele>
        <time>2021-08-21T08:21:10.996Z</time>
      </trkpt>
      <trkpt lat="41.97991833" lon="2.82367833">
        <ele>73.0</ele>
        <time>2021-08-21T08:21:11.994Z</time>
      </trkpt>
      <trkpt lat="41.97991833" lon="2.82367833">
        <ele>73.0</ele>
        <time>2021-08-21T08:21:13.023Z</time>
      </trkpt>
      <trkpt lat="41.97984333" lon="2.823695">
        <ele>73.0</ele>
        <time>2021-08-21T08:21:14.031Z</time>
      </trkpt>
      <trkpt lat="41.97984333" lon="2.823695">
        <ele>73.0</ele>
        <time>2021-08-21T08:21:15.003Z</time>
      </trkpt>
      <trkpt lat="41.97975833" lon="2.82370833">
        <ele>73.0</ele>
        <time>2021-08-21T08:21:15.992Z</time>
      </trkpt>
      <trkpt lat="41.97975833" lon="2.82370833">
        <ele>73.0</ele>
        <time>2021-08-21T08:21:17.005Z</time>
      </trkpt>
      <trkpt lat="41.97966833" lon="2.82372667">
        <ele>74.0</ele>
        <time>2021-08-21T08:21:18.020Z</time>
      </trkpt>
      <trkpt lat="41.97966833" lon="2.82372667">
        <ele>74.0</ele>
        <time>2021-08-21T08:21:19.015Z</time>
      </trkpt>
      <trkpt lat="41.97957333" lon="2.82374833">
        <ele>74.0</ele>
        <time>2021-08-21T08:21:20.023Z</time>
      </trkpt>
      <trkpt lat="41.979505" lon="2.82376833">
        <ele>74.0</ele>
        <time>2021-08-21T08:21:21.001Z</time>
      </trkpt>
      <trkpt lat="41.979505" lon="2.82376833">
        <ele>74.0</ele>
        <time>2021-08-21T08:21:22.015Z</time>
      </trkpt>
      <trkpt lat="41.97939833" lon="2.82379167">
        <ele>74.0</ele>
        <time>2021-08-21T08:21:23.013Z</time>
      </trkpt>
      <trkpt lat="41.97935333" lon="2.82378667">
        <ele>73.0</ele>
        <time>2021-08-21T08:21:24.014Z</time>
      </trkpt>
      <trkpt lat="41.97935333" lon="2.82378667">
        <ele>73.0</ele>
        <time>2021-08-21T08:21:24.993Z</time>
      </trkpt>
      <trkpt lat="41.979275" lon="2.82379833">
        <ele>73.0</ele>
        <time>2021-08-21T08:21:26.001Z</time>
      </trkpt>
      <trkpt lat="41.979275" lon="2.82379833">
        <ele>73.0</ele>
        <time>2021-08-21T08:21:27.014Z</time>
      </trkpt>
      <trkpt lat="41.97919167" lon="2.82382">
        <ele>73.0</ele>
        <time>2021-08-21T08:21:28.024Z</time>
      </trkpt>
      <trkpt lat="41.97915667" lon="2.82382667">
        <ele>73.0</ele>
        <time>2021-08-21T08:21:29.029Z</time>
      </trkpt>
      <trkpt lat="41.97912167" lon="2.82382667">
        <ele>73.0</ele>
        <time>2021-08-21T08:21:30.003Z</time>
      </trkpt>
      <trkpt lat="41.97912167" lon="2.82382667">
        <ele>73.0</ele>
        <time>2021-08-21T08:21:31.017Z</time>
      </trkpt>
      <trkpt lat="41.97905667" lon="2.82382333">
        <ele>73.0</ele>
        <time>2021-08-21T08:21:32.009Z</time>
      </trkpt>
      <trkpt lat="41.97905667" lon="2.82382333">
        <ele>73.0</ele>
        <time>2021-08-21T08:21:33.000Z</time>
      </trkpt>
      <trkpt lat="41.97899833" lon="2.823815">
        <ele>73.0</ele>
        <time>2021-08-21T08:21:34.017Z</time>
      </trkpt>
      <trkpt lat="41.97899833" lon="2.823815">
        <ele>73.0</ele>
        <time>2021-08-21T08:21:34.998Z</time>
      </trkpt>
      <trkpt lat="41.97897667" lon="2.82381333">
        <ele>72.0</ele>
        <time>2021-08-21T08:21:36.009Z</time>
      </trkpt>
      <trkpt lat="41.97897667" lon="2.82381333">
        <ele>72.0</ele>
        <time>2021-08-21T08:21:37.015Z</time>
      </trkpt>
      <trkpt lat="41.97897833" lon="2.82380667">
        <ele>72.0</ele>
        <time>2021-08-21T08:21:38.006Z</time>
      </trkpt>
      <trkpt lat="41.97897833" lon="2.82380667">
        <ele>72.0</ele>
        <time>2021-08-21T08:21:39.017Z</time>
      </trkpt>
      <trkpt lat="41.97897833" lon="2.82380667">
        <ele>72.0</ele>
        <time>2021-08-21T08:21:39.999Z</time>
      </trkpt>
      <trkpt lat="41.97897833" lon="2.82380667">
        <ele>72.0</ele>
        <time>2021-08-21T08:21:41.023Z</time>
      </trkpt>
      <trkpt lat="41.97887167" lon="2.82377">
        <ele>69.0</ele>
        <time>2021-08-21T08:21:42.031Z</time>
      </trkpt>
      <trkpt lat="41.97887167" lon="2.82377">
        <ele>69.0</ele>
        <time>2021-08-21T08:21:42.999Z</time>
      </trkpt>
      <trkpt lat="41.97877" lon="2.82375667">
        <ele>69.0</ele>
        <time>2021-08-21T08:21:44.002Z</time>
      </trkpt>
      <trkpt lat="41.97877" lon="2.82375667">
        <ele>69.0</ele>
        <time>2021-08-21T08:21:45.024Z</time>
      </trkpt>
      <trkpt lat="41.97866833" lon="2.82375">
        <ele>69.0</ele>
        <time>2021-08-21T08:21:46.015Z</time>
      </trkpt>
      <trkpt lat="41.97866833" lon="2.82375">
        <ele>69.0</ele>
        <time>2021-08-21T08:21:47.021Z</time>
      </trkpt>
      <trkpt lat="41.97858833" lon="2.823725">
        <ele>69.0</ele>
        <time>2021-08-21T08:21:47.995Z</time>
      </trkpt>
      <trkpt lat="41.97858833" lon="2.823725">
        <ele>69.0</ele>
        <time>2021-08-21T08:21:49.002Z</time>
      </trkpt>
      <trkpt lat="41.97850333" lon="2.82370667">
        <ele>69.0</ele>
        <time>2021-08-21T08:21:49.995Z</time>
      </trkpt>
      <trkpt lat="41.97846333" lon="2.82368833">
        <ele>69.0</ele>
        <time>2021-08-21T08:21:51.002Z</time>
      </trkpt>
      <trkpt lat="41.97846333" lon="2.82368833">
        <ele>69.0</ele>
        <time>2021-08-21T08:21:52.013Z</time>
      </trkpt>
      <trkpt lat="41.978395" lon="2.82365333">
        <ele>69.0</ele>
        <time>2021-08-21T08:21:52.994Z</time>
      </trkpt>
      <trkpt lat="41.978395" lon="2.82365333">
        <ele>69.0</ele>
        <time>2021-08-21T08:21:53.999Z</time>
      </trkpt>
      <trkpt lat="41.97833333" lon="2.82363167">
        <ele>69.0</ele>
        <time>2021-08-21T08:21:55.016Z</time>
      </trkpt>
      <trkpt lat="41.97833333" lon="2.82363167">
        <ele>69.0</ele>
        <time>2021-08-21T08:21:56.021Z</time>
      </trkpt>
      <trkpt lat="41.978255" lon="2.823585">
        <ele>69.0</ele>
        <time>2021-08-21T08:21:57.016Z</time>
      </trkpt>
      <trkpt lat="41.978255" lon="2.823585">
        <ele>69.0</ele>
        <time>2021-08-21T08:21:58.021Z</time>
      </trkpt>
      <trkpt lat="41.97816667" lon="2.82352167">
        <ele>69.0</ele>
        <time>2021-08-21T08:21:59.028Z</time>
      </trkpt>
      <trkpt lat="41.97816667" lon="2.82352167">
        <ele>69.0</ele>
        <time>2021-08-21T08:21:59.995Z</time>
      </trkpt>
      <trkpt lat="41.97808167" lon="2.82347833">
        <ele>69.0</ele>
        <time>2021-08-21T08:22:01.020Z</time>
      </trkpt>
      <trkpt lat="41.97808167" lon="2.82347833">
        <ele>69.0</ele>
        <time>2021-08-21T08:22:01.998Z</time>
      </trkpt>
      <trkpt lat="41.97800333" lon="2.823455">
        <ele>69.0</ele>
        <time>2021-08-21T08:22:03.000Z</time>
      </trkpt>
      <trkpt lat="41.97798167" lon="2.82341833">
        <ele>69.0</ele>
        <time>2021-08-21T08:22:04.024Z</time>
      </trkpt>
      <trkpt lat="41.97798167" lon="2.82341833">
        <ele>69.0</ele>
        <time>2021-08-21T08:22:05.029Z</time>
      </trkpt>
      <trkpt lat="41.97791833" lon="2.823405">
        <ele>69.0</ele>
        <time>2021-08-21T08:22:06.003Z</time>
      </trkpt>
      <trkpt lat="41.97791833" lon="2.823405">
        <ele>69.0</ele>
        <time>2021-08-21T08:22:07.010Z</time>
      </trkpt>
      <trkpt lat="41.97786833" lon="2.823455">
        <ele>70.0</ele>
        <time>2021-08-21T08:22:08.021Z</time>
      </trkpt>
      <trkpt lat="41.97786833" lon="2.823455">
        <ele>70.0</ele>
        <time>2021-08-21T08:22:09.026Z</time>
      </trkpt>
      <trkpt lat="41.97787" lon="2.82354833">
        <ele>70.0</ele>
        <time>2021-08-21T08:22:10.007Z</time>
      </trkpt>
      <trkpt lat="41.97787" lon="2.82354833">
        <ele>70.0</ele>
        <time>2021-08-21T08:22:11.015Z</time>
      </trkpt>
      <trkpt lat="41.97780833" lon="2.823615">
        <ele>70.0</ele>
        <time>2021-08-21T08:22:12.006Z</time>
      </trkpt>
      <trkpt lat="41.97780833" lon="2.823615">
        <ele>70.0</ele>
        <time>2021-08-21T08:22:13.012Z</time>
      </trkpt>
      <trkpt lat="41.97772667" lon="2.82363167">
        <ele>70.0</ele>
        <time>2021-08-21T08:22:14.021Z</time>
      </trkpt>
      <trkpt lat="41.97772667" lon="2.82363167">
        <ele>70.0</ele>
        <time>2021-08-21T08:22:15.026Z</time>
      </trkpt>
      <trkpt lat="41.97764833" lon="2.82361">
        <ele>70.0</ele>
        <time>2021-08-21T08:22:16.016Z</time>
      </trkpt>
      <trkpt lat="41.97764833" lon="2.82361">
        <ele>70.0</ele>
        <time>2021-08-21T08:22:17.021Z</time>
      </trkpt>
      <trkpt lat="41.97758667" lon="2.823565">
        <ele>71.0</ele>
        <time>2021-08-21T08:22:18.004Z</time>
      </trkpt>
      <trkpt lat="41.97754833" lon="2.82354333">
        <ele>71.0</ele>
        <time>2021-08-21T08:22:19.009Z</time>
      </trkpt>
      <trkpt lat="41.97754833" lon="2.82354333">
        <ele>71.0</ele>
        <time>2021-08-21T08:22:20.015Z</time>
      </trkpt>
      <trkpt lat="41.977475" lon="2.8235">
        <ele>70.0</ele>
        <time>2021-08-21T08:22:20.994Z</time>
      </trkpt>
      <trkpt lat="41.977475" lon="2.8235">
        <ele>70.0</ele>
        <time>2021-08-21T08:22:22.000Z</time>
      </trkpt>
      <trkpt lat="41.97740333" lon="2.82345667">
        <ele>70.0</ele>
        <time>2021-08-21T08:22:22.997Z</time>
      </trkpt>
      <trkpt lat="41.97736667" lon="2.82343833">
        <ele>70.0</ele>
        <time>2021-08-21T08:22:24.015Z</time>
      </trkpt>
      <trkpt lat="41.97736667" lon="2.82343833">
        <ele>70.0</ele>
        <time>2021-08-21T08:22:25.020Z</time>
      </trkpt>
      <trkpt lat="41.97729" lon="2.823405">
        <ele>70.0</ele>
        <time>2021-08-21T08:22:26.019Z</time>
      </trkpt>
      <trkpt lat="41.97729" lon="2.823405">
        <ele>70.0</ele>
        <time>2021-08-21T08:22:27.025Z</time>
      </trkpt>
      <trkpt lat="41.97721167" lon="2.82335667">
        <ele>70.0</ele>
        <time>2021-08-21T08:22:28.025Z</time>
      </trkpt>
      <trkpt lat="41.97721167" lon="2.82335667">
        <ele>70.0</ele>
        <time>2021-08-21T08:22:29.031Z</time>
      </trkpt>
      <trkpt lat="41.97714167" lon="2.82330333">
        <ele>70.0</ele>
        <time>2021-08-21T08:22:30.003Z</time>
      </trkpt>
      <trkpt lat="41.97710167" lon="2.82327833">
        <ele>70.0</ele>
        <time>2021-08-21T08:22:31.013Z</time>
      </trkpt>
      <trkpt lat="41.97706167" lon="2.82325833">
        <ele>70.0</ele>
        <time>2021-08-21T08:22:32.012Z</time>
      </trkpt>
      <trkpt lat="41.97706167" lon="2.82325833">
        <ele>70.0</ele>
        <time>2021-08-21T08:22:33.019Z</time>
      </trkpt>
      <trkpt lat="41.97698667" lon="2.82322667">
        <ele>70.0</ele>
        <time>2021-08-21T08:22:34.016Z</time>
      </trkpt>
      <trkpt lat="41.97698667" lon="2.82322667">
        <ele>70.0</ele>
        <time>2021-08-21T08:22:35.022Z</time>
      </trkpt>
      <trkpt lat="41.97690333" lon="2.823195">
        <ele>69.0</ele>
        <time>2021-08-21T08:22:35.993Z</time>
      </trkpt>
      <trkpt lat="41.97690333" lon="2.823195">
        <ele>69.0</ele>
        <time>2021-08-21T08:22:36.999Z</time>
      </trkpt>
      <trkpt lat="41.97681167" lon="2.82318">
        <ele>69.0</ele>
        <time>2021-08-21T08:22:38.008Z</time>
      </trkpt>
      <trkpt lat="41.97681167" lon="2.82318">
        <ele>69.0</ele>
        <time>2021-08-21T08:22:39.013Z</time>
      </trkpt>
      <trkpt lat="41.97671833" lon="2.82317833">
        <ele>70.0</ele>
        <time>2021-08-21T08:22:40.007Z</time>
      </trkpt>
      <trkpt lat="41.97671833" lon="2.82317833">
        <ele>70.0</ele>
        <time>2021-08-21T08:22:41.013Z</time>
      </trkpt>
      <trkpt lat="41.97663167" lon="2.82316833">
        <ele>70.0</ele>
        <time>2021-08-21T08:22:42.000Z</time>
      </trkpt>
      <trkpt lat="41.976585" lon="2.82315333">
        <ele>70.0</ele>
        <time>2021-08-21T08:22:43.021Z</time>
      </trkpt>
      <trkpt lat="41.976585" lon="2.82315333">
        <ele>70.0</ele>
        <time>2021-08-21T08:22:44.026Z</time>
      </trkpt>
      <trkpt lat="41.97650167" lon="2.82312">
        <ele>70.0</ele>
        <time>2021-08-21T08:22:45.013Z</time>
      </trkpt>
      <trkpt lat="41.976455" lon="2.82311167">
        <ele>70.0</ele>
        <time>2021-08-21T08:22:45.995Z</time>
      </trkpt>
      <trkpt lat="41.976455" lon="2.82311167">
        <ele>70.0</ele>
        <time>2021-08-21T08:22:47.000Z</time>
      </trkpt>
      <trkpt lat="41.97636" lon="2.82311833">
        <ele>70.0</ele>
        <time>2021-08-21T08:22:48.018Z</time>
      </trkpt>
      <trkpt lat="41.97636" lon="2.82311833">
        <ele>70.0</ele>
        <time>2021-08-21T08:22:49.023Z</time>
      </trkpt>
      <trkpt lat="41.97627" lon="2.823155">
        <ele>70.0</ele>
        <time>2021-08-21T08:22:50.008Z</time>
      </trkpt>
      <trkpt lat="41.97627" lon="2.823155">
        <ele>70.0</ele>
        <time>2021-08-21T08:22:51.023Z</time>
      </trkpt>
      <trkpt lat="41.97618167" lon="2.82321667">
        <ele>71.0</ele>
        <time>2021-08-21T08:22:51.999Z</time>
      </trkpt>
      <trkpt lat="41.97618167" lon="2.82321667">
        <ele>71.0</ele>
        <time>2021-08-21T08:22:53.007Z</time>
      </trkpt>
      <trkpt lat="41.97609333" lon="2.82325333">
        <ele>71.0</ele>
        <time>2021-08-21T08:22:54.015Z</time>
      </trkpt>
      <trkpt lat="41.97609333" lon="2.82325333">
        <ele>71.0</ele>
        <time>2021-08-21T08:22:55.020Z</time>
      </trkpt>
      <trkpt lat="41.97600167" lon="2.82329167">
        <ele>71.0</ele>
        <time>2021-08-21T08:22:56.026Z</time>
      </trkpt>
      <trkpt lat="41.97600167" lon="2.82329167">
        <ele>71.0</ele>
        <time>2021-08-21T08:22:57.031Z</time>
      </trkpt>
      <trkpt lat="41.975915" lon="2.823335">
        <ele>72.0</ele>
        <time>2021-08-21T08:22:57.998Z</time>
      </trkpt>
      <trkpt lat="41.975915" lon="2.823335">
        <ele>72.0</ele>
        <time>2021-08-21T08:22:59.005Z</time>
      </trkpt>
      <trkpt lat="41.97582833" lon="2.82338167">
        <ele>72.0</ele>
        <time>2021-08-21T08:22:59.997Z</time>
      </trkpt>
      <trkpt lat="41.97582833" lon="2.82338167">
        <ele>72.0</ele>
        <time>2021-08-21T08:23:01.002Z</time>
      </trkpt>
      <trkpt lat="41.97575833" lon="2.82342833">
        <ele>73.0</ele>
        <time>2021-08-21T08:23:02.009Z</time>
      </trkpt>
      <trkpt lat="41.97575833" lon="2.82342833">
        <ele>73.0</ele>
        <time>2021-08-21T08:23:03.025Z</time>
      </trkpt>
      <trkpt lat="41.975695" lon="2.82348333">
        <ele>73.0</ele>
        <time>2021-08-21T08:23:03.999Z</time>
      </trkpt>
      <trkpt lat="41.975695" lon="2.82348333">
        <ele>73.0</ele>
        <time>2021-08-21T08:23:05.013Z</time>
      </trkpt>
      <trkpt lat="41.97562833" lon="2.82354167">
        <ele>73.0</ele>
        <time>2021-08-21T08:23:06.016Z</time>
      </trkpt>
      <trkpt lat="41.97562833" lon="2.82354167">
        <ele>73.0</ele>
        <time>2021-08-21T08:23:07.022Z</time>
      </trkpt>
      <trkpt lat="41.97556833" lon="2.82360667">
        <ele>74.0</ele>
        <time>2021-08-21T08:23:08.008Z</time>
      </trkpt>
      <trkpt lat="41.97556833" lon="2.82360667">
        <ele>74.0</ele>
        <time>2021-08-21T08:23:09.004Z</time>
      </trkpt>
      <trkpt lat="41.9755" lon="2.823685">
        <ele>74.0</ele>
        <time>2021-08-21T08:23:10.016Z</time>
      </trkpt>
      <trkpt lat="41.9755" lon="2.823685">
        <ele>74.0</ele>
        <time>2021-08-21T08:23:11.112Z</time>
      </trkpt>
      <trkpt lat="41.97543167" lon="2.82376833">
        <ele>75.0</ele>
        <time>2021-08-21T08:23:12.005Z</time>
      </trkpt>
      <trkpt lat="41.97543167" lon="2.82376833">
        <ele>75.0</ele>
        <time>2021-08-21T08:23:13.024Z</time>
      </trkpt>
      <trkpt lat="41.97535667" lon="2.82388333">
        <ele>76.0</ele>
        <time>2021-08-21T08:23:13.999Z</time>
      </trkpt>
      <trkpt lat="41.97535667" lon="2.82388333">
        <ele>76.0</ele>
        <time>2021-08-21T08:23:15.006Z</time>
      </trkpt>
      <trkpt lat="41.97527333" lon="2.82397667">
        <ele>76.0</ele>
        <time>2021-08-21T08:23:16.025Z</time>
      </trkpt>
      <trkpt lat="41.97527333" lon="2.82397667">
        <ele>76.0</ele>
        <time>2021-08-21T08:23:17.030Z</time>
      </trkpt>
      <trkpt lat="41.97517833" lon="2.82399833">
        <ele>76.0</ele>
        <time>2021-08-21T08:23:18.028Z</time>
      </trkpt>
      <trkpt lat="41.97517833" lon="2.82399833">
        <ele>76.0</ele>
        <time>2021-08-21T08:23:18.993Z</time>
      </trkpt>
      <trkpt lat="41.97511833" lon="2.82396667">
        <ele>79.0</ele>
        <time>2021-08-21T08:23:20.006Z</time>
      </trkpt>
      <trkpt lat="41.97511833" lon="2.82396667">
        <ele>79.0</ele>
        <time>2021-08-21T08:23:21.013Z</time>
      </trkpt>
      <trkpt lat="41.97505167" lon="2.82400167">
        <ele>79.0</ele>
        <time>2021-08-21T08:23:22.026Z</time>
      </trkpt>
      <trkpt lat="41.97505167" lon="2.82400167">
        <ele>79.0</ele>
        <time>2021-08-21T08:23:22.992Z</time>
      </trkpt>
      <trkpt lat="41.97499167" lon="2.82406833">
        <ele>78.0</ele>
        <time>2021-08-21T08:23:24.003Z</time>
      </trkpt>
      <trkpt lat="41.97499167" lon="2.82406833">
        <ele>78.0</ele>
        <time>2021-08-21T08:23:25.022Z</time>
      </trkpt>
      <trkpt lat="41.97494667" lon="2.82412">
        <ele>78.0</ele>
        <time>2021-08-21T08:23:26.016Z</time>
      </trkpt>
      <trkpt lat="41.97494667" lon="2.82412">
        <ele>78.0</ele>
        <time>2021-08-21T08:23:27.021Z</time>
      </trkpt>
      <trkpt lat="41.97488167" lon="2.824155">
        <ele>78.0</ele>
        <time>2021-08-21T08:23:28.015Z</time>
      </trkpt>
      <trkpt lat="41.97488167" lon="2.824155">
        <ele>78.0</ele>
        <time>2021-08-21T08:23:29.028Z</time>
      </trkpt>
      <trkpt lat="41.974805" lon="2.82419333">
        <ele>78.0</ele>
        <time>2021-08-21T08:23:30.009Z</time>
      </trkpt>
      <trkpt lat="41.974805" lon="2.82419333">
        <ele>78.0</ele>
        <time>2021-08-21T08:23:31.013Z</time>
      </trkpt>
      <trkpt lat="41.97472833" lon="2.82423">
        <ele>78.0</ele>
        <time>2021-08-21T08:23:32.005Z</time>
      </trkpt>
      <trkpt lat="41.97472833" lon="2.82423">
        <ele>78.0</ele>
        <time>2021-08-21T08:23:32.993Z</time>
      </trkpt>
      <trkpt lat="41.974655" lon="2.82426833">
        <ele>78.0</ele>
        <time>2021-08-21T08:23:34.003Z</time>
      </trkpt>
      <trkpt lat="41.974655" lon="2.82426833">
        <ele>78.0</ele>
        <time>2021-08-21T08:23:35.010Z</time>
      </trkpt>
      <trkpt lat="41.97458333" lon="2.82431667">
        <ele>78.0</ele>
        <time>2021-08-21T08:23:36.006Z</time>
      </trkpt>
      <trkpt lat="41.97458333" lon="2.82431667">
        <ele>78.0</ele>
        <time>2021-08-21T08:23:37.013Z</time>
      </trkpt>
      <trkpt lat="41.97450833" lon="2.82435833">
        <ele>78.0</ele>
        <time>2021-08-21T08:23:38.013Z</time>
      </trkpt>
      <trkpt lat="41.97450833" lon="2.82435833">
        <ele>78.0</ele>
        <time>2021-08-21T08:23:39.023Z</time>
      </trkpt>
      <trkpt lat="41.97441333" lon="2.82438167">
        <ele>78.0</ele>
        <time>2021-08-21T08:23:40.012Z</time>
      </trkpt>
      <trkpt lat="41.97441333" lon="2.82438167">
        <ele>78.0</ele>
        <time>2021-08-21T08:23:41.005Z</time>
      </trkpt>
      <trkpt lat="41.97431667" lon="2.82432333">
        <ele>78.0</ele>
        <time>2021-08-21T08:23:42.025Z</time>
      </trkpt>
      <trkpt lat="41.97427" lon="2.82428167">
        <ele>78.0</ele>
        <time>2021-08-21T08:23:43.005Z</time>
      </trkpt>
      <trkpt lat="41.97421833" lon="2.82425">
        <ele>78.0</ele>
        <time>2021-08-21T08:23:43.996Z</time>
      </trkpt>
      <trkpt lat="41.97421833" lon="2.82425">
        <ele>78.0</ele>
        <time>2021-08-21T08:23:45.001Z</time>
      </trkpt>
      <trkpt lat="41.974105" lon="2.82422167">
        <ele>77.0</ele>
        <time>2021-08-21T08:23:46.010Z</time>
      </trkpt>
      <trkpt lat="41.974105" lon="2.82422167">
        <ele>77.0</ele>
        <time>2021-08-21T08:23:47.027Z</time>
      </trkpt>
      <trkpt lat="41.97399167" lon="2.82427333">
        <ele>77.0</ele>
        <time>2021-08-21T08:23:48.006Z</time>
      </trkpt>
      <trkpt lat="41.97399167" lon="2.82427333">
        <ele>77.0</ele>
        <time>2021-08-21T08:23:49.012Z</time>
      </trkpt>
      <trkpt lat="41.97388167" lon="2.82435">
        <ele>77.0</ele>
        <time>2021-08-21T08:23:50.020Z</time>
      </trkpt>
      <trkpt lat="41.97388167" lon="2.82435">
        <ele>77.0</ele>
        <time>2021-08-21T08:23:51.025Z</time>
      </trkpt>
      <trkpt lat="41.973765" lon="2.82437167">
        <ele>77.0</ele>
        <time>2021-08-21T08:23:52.005Z</time>
      </trkpt>
      <trkpt lat="41.973765" lon="2.82437167">
        <ele>77.0</ele>
        <time>2021-08-21T08:23:53.011Z</time>
      </trkpt>
      <trkpt lat="41.97364833" lon="2.82433667">
        <ele>77.0</ele>
        <time>2021-08-21T08:23:54.003Z</time>
      </trkpt>
      <trkpt lat="41.97364833" lon="2.82433667">
        <ele>77.0</ele>
        <time>2021-08-21T08:23:55.011Z</time>
      </trkpt>
      <trkpt lat="41.97352667" lon="2.82430833">
        <ele>77.0</ele>
        <time>2021-08-21T08:23:56.022Z</time>
      </trkpt>
      <trkpt lat="41.97352667" lon="2.82430833">
        <ele>77.0</ele>
        <time>2021-08-21T08:23:57.027Z</time>
      </trkpt>
      <trkpt lat="41.9734" lon="2.82428833">
        <ele>78.0</ele>
        <time>2021-08-21T08:23:58.017Z</time>
      </trkpt>
      <trkpt lat="41.9734" lon="2.82428833">
        <ele>78.0</ele>
        <time>2021-08-21T08:23:59.021Z</time>
      </trkpt>
      <trkpt lat="41.973275" lon="2.82428667">
        <ele>78.0</ele>
        <time>2021-08-21T08:23:59.994Z</time>
      </trkpt>
      <trkpt lat="41.973275" lon="2.82428667">
        <ele>78.0</ele>
        <time>2021-08-21T08:24:00.999Z</time>
      </trkpt>
      <trkpt lat="41.97315167" lon="2.82429167">
        <ele>79.0</ele>
        <time>2021-08-21T08:24:02.026Z</time>
      </trkpt>
      <trkpt lat="41.97309167" lon="2.82429667">
        <ele>79.0</ele>
        <time>2021-08-21T08:24:02.998Z</time>
      </trkpt>
      <trkpt lat="41.97309167" lon="2.82429667">
        <ele>79.0</ele>
        <time>2021-08-21T08:24:04.004Z</time>
      </trkpt>
      <trkpt lat="41.97297" lon="2.82430333">
        <ele>79.0</ele>
        <time>2021-08-21T08:24:05.017Z</time>
      </trkpt>
      <trkpt lat="41.97297" lon="2.82430333">
        <ele>79.0</ele>
        <time>2021-08-21T08:24:06.022Z</time>
      </trkpt>
      <trkpt lat="41.97285" lon="2.82430333">
        <ele>79.0</ele>
        <time>2021-08-21T08:24:07.012Z</time>
      </trkpt>
      <trkpt lat="41.97279167" lon="2.824305">
        <ele>79.0</ele>
        <time>2021-08-21T08:24:08.020Z</time>
      </trkpt>
      <trkpt lat="41.97279167" lon="2.824305">
        <ele>79.0</ele>
        <time>2021-08-21T08:24:09.024Z</time>
      </trkpt>
      <trkpt lat="41.97267167" lon="2.82430833">
        <ele>80.0</ele>
        <time>2021-08-21T08:24:10.008Z</time>
      </trkpt>
      <trkpt lat="41.97267167" lon="2.82430833">
        <ele>80.0</ele>
        <time>2021-08-21T08:24:11.014Z</time>
      </trkpt>
      <trkpt lat="41.97255333" lon="2.82429667">
        <ele>80.0</ele>
        <time>2021-08-21T08:24:11.992Z</time>
      </trkpt>
      <trkpt lat="41.972495" lon="2.82429167">
        <ele>80.0</ele>
        <time>2021-08-21T08:24:13.003Z</time>
      </trkpt>
      <trkpt lat="41.972495" lon="2.82429167">
        <ele>80.0</ele>
        <time>2021-08-21T08:24:14.008Z</time>
      </trkpt>
      <trkpt lat="41.97237667" lon="2.82428333">
        <ele>80.0</ele>
        <time>2021-08-21T08:24:15.025Z</time>
      </trkpt>
      <trkpt lat="41.97237667" lon="2.82428333">
        <ele>80.0</ele>
        <time>2021-08-21T08:24:16.030Z</time>
      </trkpt>
      <trkpt lat="41.97226" lon="2.82427167">
        <ele>80.0</ele>
        <time>2021-08-21T08:24:17.030Z</time>
      </trkpt>
      <trkpt lat="41.97226" lon="2.82427167">
        <ele>80.0</ele>
        <time>2021-08-21T08:24:17.994Z</time>
      </trkpt>
      <trkpt lat="41.97214" lon="2.82426167">
        <ele>81.0</ele>
        <time>2021-08-21T08:24:19.005Z</time>
      </trkpt>
      <trkpt lat="41.97208333" lon="2.82425167">
        <ele>81.0</ele>
        <time>2021-08-21T08:24:19.996Z</time>
      </trkpt>
      <trkpt lat="41.97208333" lon="2.82425167">
        <ele>81.0</ele>
        <time>2021-08-21T08:24:21.001Z</time>
      </trkpt>
      <trkpt lat="41.971975" lon="2.82423833">
        <ele>81.0</ele>
        <time>2021-08-21T08:24:22.010Z</time>
      </trkpt>
      <trkpt lat="41.971975" lon="2.82423833">
        <ele>81.0</ele>
        <time>2021-08-21T08:24:23.015Z</time>
      </trkpt>
      <trkpt lat="41.97186833" lon="2.82423">
        <ele>81.0</ele>
        <time>2021-08-21T08:24:23.992Z</time>
      </trkpt>
      <trkpt lat="41.97186833" lon="2.82423">
        <ele>81.0</ele>
        <time>2021-08-21T08:24:24.997Z</time>
      </trkpt>
      <trkpt lat="41.97175667" lon="2.82422167">
        <ele>81.0</ele>
        <time>2021-08-21T08:24:26.008Z</time>
      </trkpt>
      <trkpt lat="41.97175667" lon="2.82422167">
        <ele>81.0</ele>
        <time>2021-08-21T08:24:27.013Z</time>
      </trkpt>
      <trkpt lat="41.97165167" lon="2.824205">
        <ele>82.0</ele>
        <time>2021-08-21T08:24:28.005Z</time>
      </trkpt>
      <trkpt lat="41.97160333" lon="2.82419833">
        <ele>82.0</ele>
        <time>2021-08-21T08:24:29.007Z</time>
      </trkpt>
      <trkpt lat="41.97160333" lon="2.82419833">
        <ele>82.0</ele>
        <time>2021-08-21T08:24:30.012Z</time>
      </trkpt>
      <trkpt lat="41.97150333" lon="2.82419333">
        <ele>82.0</ele>
        <time>2021-08-21T08:24:31.003Z</time>
      </trkpt>
      <trkpt lat="41.97145167" lon="2.824185">
        <ele>82.0</ele>
        <time>2021-08-21T08:24:32.025Z</time>
      </trkpt>
      <trkpt lat="41.97145167" lon="2.824185">
        <ele>82.0</ele>
        <time>2021-08-21T08:24:33.030Z</time>
      </trkpt>
      <trkpt lat="41.97135" lon="2.82417">
        <ele>83.0</ele>
        <time>2021-08-21T08:24:34.026Z</time>
      </trkpt>
      <trkpt lat="41.97135" lon="2.82417">
        <ele>83.0</ele>
        <time>2021-08-21T08:24:35.031Z</time>
      </trkpt>
      <trkpt lat="41.97125167" lon="2.82416">
        <ele>83.0</ele>
        <time>2021-08-21T08:24:36.016Z</time>
      </trkpt>
      <trkpt lat="41.97125167" lon="2.82416">
        <ele>83.0</ele>
        <time>2021-08-21T08:24:37.021Z</time>
      </trkpt>
      <trkpt lat="41.97114833" lon="2.82415667">
        <ele>83.0</ele>
        <time>2021-08-21T08:24:38.029Z</time>
      </trkpt>
      <trkpt lat="41.97114833" lon="2.82415667">
        <ele>83.0</ele>
        <time>2021-08-21T08:24:38.994Z</time>
      </trkpt>
      <trkpt lat="41.97105167" lon="2.82414">
        <ele>84.0</ele>
        <time>2021-08-21T08:24:40.025Z</time>
      </trkpt>
      <trkpt lat="41.97105167" lon="2.82414">
        <ele>84.0</ele>
        <time>2021-08-21T08:24:41.030Z</time>
      </trkpt>
      <trkpt lat="41.97095667" lon="2.82412667">
        <ele>84.0</ele>
        <time>2021-08-21T08:24:42.003Z</time>
      </trkpt>
      <trkpt lat="41.97095667" lon="2.82412667">
        <ele>84.0</ele>
        <time>2021-08-21T08:24:43.017Z</time>
      </trkpt>
      <trkpt lat="41.97086" lon="2.824115">
        <ele>84.0</ele>
        <time>2021-08-21T08:24:43.993Z</time>
      </trkpt>
      <trkpt lat="41.97086" lon="2.824115">
        <ele>84.0</ele>
        <time>2021-08-21T08:24:44.998Z</time>
      </trkpt>
      <trkpt lat="41.970755" lon="2.82408667">
        <ele>84.0</ele>
        <time>2021-08-21T08:24:46.007Z</time>
      </trkpt>
      <trkpt lat="41.970755" lon="2.82408667">
        <ele>84.0</ele>
        <time>2021-08-21T08:24:47.012Z</time>
      </trkpt>
      <trkpt lat="41.970655" lon="2.82407">
        <ele>83.0</ele>
        <time>2021-08-21T08:24:47.993Z</time>
      </trkpt>
      <trkpt lat="41.970655" lon="2.82407">
        <ele>83.0</ele>
        <time>2021-08-21T08:24:48.998Z</time>
      </trkpt>
      <trkpt lat="41.97055333" lon="2.82405833">
        <ele>83.0</ele>
        <time>2021-08-21T08:24:50.009Z</time>
      </trkpt>
      <trkpt lat="41.97055333" lon="2.82405833">
        <ele>83.0</ele>
        <time>2021-08-21T08:24:51.015Z</time>
      </trkpt>
      <trkpt lat="41.97045667" lon="2.82404667">
        <ele>83.0</ele>
        <time>2021-08-21T08:24:51.995Z</time>
      </trkpt>
      <trkpt lat="41.97045667" lon="2.82404667">
        <ele>83.0</ele>
        <time>2021-08-21T08:24:53.011Z</time>
      </trkpt>
      <trkpt lat="41.97036333" lon="2.82403667">
        <ele>84.0</ele>
        <time>2021-08-21T08:24:54.002Z</time>
      </trkpt>
      <trkpt lat="41.97036333" lon="2.82403667">
        <ele>84.0</ele>
        <time>2021-08-21T08:24:55.020Z</time>
      </trkpt>
      <trkpt lat="41.97026833" lon="2.82402667">
        <ele>84.0</ele>
        <time>2021-08-21T08:24:56.021Z</time>
      </trkpt>
      <trkpt lat="41.97026833" lon="2.82402667">
        <ele>84.0</ele>
        <time>2021-08-21T08:24:57.026Z</time>
      </trkpt>
      <trkpt lat="41.97017667" lon="2.82401833">
        <ele>84.0</ele>
        <time>2021-08-21T08:24:58.015Z</time>
      </trkpt>
      <trkpt lat="41.97017667" lon="2.82401833">
        <ele>84.0</ele>
        <time>2021-08-21T08:24:59.027Z</time>
      </trkpt>
      <trkpt lat="41.970085" lon="2.82402">
        <ele>84.0</ele>
        <time>2021-08-21T08:25:00.001Z</time>
      </trkpt>
      <trkpt lat="41.970085" lon="2.82402">
        <ele>84.0</ele>
        <time>2021-08-21T08:25:01.007Z</time>
      </trkpt>
      <trkpt lat="41.96999667" lon="2.82403333">
        <ele>85.0</ele>
        <time>2021-08-21T08:25:02.026Z</time>
      </trkpt>
      <trkpt lat="41.96999667" lon="2.82403333">
        <ele>85.0</ele>
        <time>2021-08-21T08:25:02.993Z</time>
      </trkpt>
      <trkpt lat="41.96991167" lon="2.82402833">
        <ele>85.0</ele>
        <time>2021-08-21T08:25:04.010Z</time>
      </trkpt>
      <trkpt lat="41.96991167" lon="2.82402833">
        <ele>85.0</ele>
        <time>2021-08-21T08:25:05.019Z</time>
      </trkpt>
      <trkpt lat="41.969825" lon="2.824025">
        <ele>85.0</ele>
        <time>2021-08-21T08:25:06.005Z</time>
      </trkpt>
      <trkpt lat="41.969825" lon="2.824025">
        <ele>85.0</ele>
        <time>2021-08-21T08:25:07.021Z</time>
      </trkpt>
      <trkpt lat="41.96973833" lon="2.82400667">
        <ele>86.0</ele>
        <time>2021-08-21T08:25:08.029Z</time>
      </trkpt>
      <trkpt lat="41.96973833" lon="2.82400667">
        <ele>86.0</ele>
        <time>2021-08-21T08:25:08.994Z</time>
      </trkpt>
      <trkpt lat="41.96964667" lon="2.82398667">
        <ele>86.0</ele>
        <time>2021-08-21T08:25:10.013Z</time>
      </trkpt>
      <trkpt lat="41.96964667" lon="2.82398667">
        <ele>86.0</ele>
        <time>2021-08-21T08:25:11.018Z</time>
      </trkpt>
      <trkpt lat="41.96955833" lon="2.823975">
        <ele>86.0</ele>
        <time>2021-08-21T08:25:12.019Z</time>
      </trkpt>
      <trkpt lat="41.96955833" lon="2.823975">
        <ele>86.0</ele>
        <time>2021-08-21T08:25:13.025Z</time>
      </trkpt>
      <trkpt lat="41.96946" lon="2.82398833">
        <ele>87.0</ele>
        <time>2021-08-21T08:25:13.993Z</time>
      </trkpt>
      <trkpt lat="41.96946" lon="2.82398833">
        <ele>87.0</ele>
        <time>2021-08-21T08:25:14.998Z</time>
      </trkpt>
      <trkpt lat="41.969365" lon="2.823975">
        <ele>87.0</ele>
        <time>2021-08-21T08:25:15.999Z</time>
      </trkpt>
      <trkpt lat="41.969365" lon="2.823975">
        <ele>87.0</ele>
        <time>2021-08-21T08:25:17.025Z</time>
      </trkpt>
      <trkpt lat="41.96927167" lon="2.82396">
        <ele>87.0</ele>
        <time>2021-08-21T08:25:18.000Z</time>
      </trkpt>
      <trkpt lat="41.969225" lon="2.82395167">
        <ele>87.0</ele>
        <time>2021-08-21T08:25:19.017Z</time>
      </trkpt>
      <trkpt lat="41.969225" lon="2.82395167">
        <ele>87.0</ele>
        <time>2021-08-21T08:25:20.022Z</time>
      </trkpt>
      <trkpt lat="41.969135" lon="2.82393">
        <ele>86.0</ele>
        <time>2021-08-21T08:25:21.014Z</time>
      </trkpt>
      <trkpt lat="41.969135" lon="2.82393">
        <ele>86.0</ele>
        <time>2021-08-21T08:25:22.019Z</time>
      </trkpt>
      <trkpt lat="41.96905333" lon="2.823905">
        <ele>87.0</ele>
        <time>2021-08-21T08:25:23.030Z</time>
      </trkpt>
      <trkpt lat="41.96905333" lon="2.823905">
        <ele>87.0</ele>
        <time>2021-08-21T08:25:23.995Z</time>
      </trkpt>
      <trkpt lat="41.96899667" lon="2.82383667">
        <ele>87.0</ele>
        <time>2021-08-21T08:25:25.003Z</time>
      </trkpt>
      <trkpt lat="41.96899" lon="2.823785">
        <ele>87.0</ele>
        <time>2021-08-21T08:25:26.013Z</time>
      </trkpt>
      <trkpt lat="41.96899" lon="2.823785">
        <ele>87.0</ele>
        <time>2021-08-21T08:25:27.019Z</time>
      </trkpt>
      <trkpt lat="41.96899833" lon="2.82368">
        <ele>87.0</ele>
        <time>2021-08-21T08:25:28.026Z</time>
      </trkpt>
    </trkseg>
  </trk>
</gpx>
